<?xml version="1.0" encoding="UTF-8" standalone="no" ?>
<gpx xmlns="http://www.topografix.com/GPX/1/1" xmlns:xsi="http://www.w3.org/2001/XMLSchema-instance" xsi:schemaLocation="http://www.topografix.com/GPX/1/1 http://www.topografix.com/GPX/1/1/gpx.xsd" version="1.1" creator="VisuGPX - https://www.visugpx.com">
  <metadata>
    <name>23-08-08</name>
    <desc><![CDATA[ADV]]></desc>
  </metadata>
  <trk>
    <name><![CDATA[Eecke Cyclisme sur route]]></name>
    <trkseg>
      <trkpt lat="50.77992" lon="2.57635">
        <ele>45.400001525879</ele>
        <time>2023-08-08T04:17:36.000Z</time>
      </trkpt>
      <trkpt lat="50.77993" lon="2.57634">
        <ele>43.400001525879</ele>
        <time>2023-08-08T04:17:37.000Z</time>
      </trkpt>
      <trkpt lat="50.78001" lon="2.57631">
        <ele>42.799999237061</ele>
        <time>2023-08-08T04:17:41.000Z</time>
      </trkpt>
      <trkpt lat="50.78003" lon="2.57631">
        <ele>42.200000762939</ele>
        <time>2023-08-08T04:17:42.000Z</time>
      </trkpt>
      <trkpt lat="50.78008" lon="2.57628">
        <ele>43</ele>
        <time>2023-08-08T04:17:44.000Z</time>
      </trkpt>
      <trkpt lat="50.78013" lon="2.57628">
        <ele>43.200000762939</ele>
        <time>2023-08-08T04:17:46.000Z</time>
      </trkpt>
      <trkpt lat="50.78018" lon="2.57642">
        <ele>43.200000762939</ele>
        <time>2023-08-08T04:17:51.000Z</time>
      </trkpt>
      <trkpt lat="50.7802" lon="2.57659">
        <ele>43.200000762939</ele>
        <time>2023-08-08T04:17:55.000Z</time>
      </trkpt>
      <trkpt lat="50.78021" lon="2.57662">
        <ele>43.200000762939</ele>
        <time>2023-08-08T04:17:56.000Z</time>
      </trkpt>
      <trkpt lat="50.78029" lon="2.57683">
        <ele>43.599998474121</ele>
        <time>2023-08-08T04:18:02.000Z</time>
      </trkpt>
      <trkpt lat="50.78046" lon="2.57711">
        <ele>44</ele>
        <time>2023-08-08T04:18:10.000Z</time>
      </trkpt>
      <trkpt lat="50.78049" lon="2.57715">
        <ele>44</ele>
        <time>2023-08-08T04:18:11.000Z</time>
      </trkpt>
      <trkpt lat="50.78062" lon="2.57733">
        <ele>43.400001525879</ele>
        <time>2023-08-08T04:18:16.000Z</time>
      </trkpt>
      <trkpt lat="50.78084" lon="2.57762">
        <ele>42.400001525879</ele>
        <time>2023-08-08T04:18:24.000Z</time>
      </trkpt>
      <trkpt lat="50.78087" lon="2.57769">
        <ele>42</ele>
        <time>2023-08-08T04:18:26.000Z</time>
      </trkpt>
      <trkpt lat="50.78088" lon="2.57773">
        <ele>42</ele>
        <time>2023-08-08T04:18:27.000Z</time>
      </trkpt>
      <trkpt lat="50.78087" lon="2.57777">
        <ele>41.799999237061</ele>
        <time>2023-08-08T04:18:28.000Z</time>
      </trkpt>
      <trkpt lat="50.78087" lon="2.57781">
        <ele>41.799999237061</ele>
        <time>2023-08-08T04:18:29.000Z</time>
      </trkpt>
      <trkpt lat="50.78083" lon="2.57788">
        <ele>41.799999237061</ele>
        <time>2023-08-08T04:18:31.000Z</time>
      </trkpt>
      <trkpt lat="50.78081" lon="2.57791">
        <ele>41.799999237061</ele>
        <time>2023-08-08T04:18:32.000Z</time>
      </trkpt>
      <trkpt lat="50.78067" lon="2.57821">
        <ele>41.799999237061</ele>
        <time>2023-08-08T04:18:39.000Z</time>
      </trkpt>
      <trkpt lat="50.78058" lon="2.57851">
        <ele>42.200000762939</ele>
        <time>2023-08-08T04:18:45.000Z</time>
      </trkpt>
      <trkpt lat="50.78046" lon="2.57894">
        <ele>42.599998474121</ele>
        <time>2023-08-08T04:18:54.000Z</time>
      </trkpt>
      <trkpt lat="50.78042" lon="2.57926">
        <ele>43.200000762939</ele>
        <time>2023-08-08T04:19:01.000Z</time>
      </trkpt>
      <trkpt lat="50.78042" lon="2.57931">
        <ele>43.200000762939</ele>
        <time>2023-08-08T04:19:02.000Z</time>
      </trkpt>
      <trkpt lat="50.7804" lon="2.57989">
        <ele>44.200000762939</ele>
        <time>2023-08-08T04:19:11.000Z</time>
      </trkpt>
      <trkpt lat="50.78039" lon="2.58034">
        <ele>45.200000762939</ele>
        <time>2023-08-08T04:19:18.000Z</time>
      </trkpt>
      <trkpt lat="50.78038" lon="2.58046">
        <ele>45.400001525879</ele>
        <time>2023-08-08T04:19:20.000Z</time>
      </trkpt>
      <trkpt lat="50.78037" lon="2.5809">
        <ele>46.200000762939</ele>
        <time>2023-08-08T04:19:27.000Z</time>
      </trkpt>
      <trkpt lat="50.78038" lon="2.58114">
        <ele>46.400001525879</ele>
        <time>2023-08-08T04:19:32.000Z</time>
      </trkpt>
      <trkpt lat="50.78041" lon="2.58155">
        <ele>46.599998474121</ele>
        <time>2023-08-08T04:19:38.000Z</time>
      </trkpt>
      <trkpt lat="50.78044" lon="2.58191">
        <ele>46.799999237061</ele>
        <time>2023-08-08T04:19:44.000Z</time>
      </trkpt>
      <trkpt lat="50.78043" lon="2.58209">
        <ele>47</ele>
        <time>2023-08-08T04:19:48.000Z</time>
      </trkpt>
      <trkpt lat="50.78035" lon="2.58227">
        <ele>47.200000762939</ele>
        <time>2023-08-08T04:19:52.000Z</time>
      </trkpt>
      <trkpt lat="50.7803" lon="2.58232">
        <ele>47.599998474121</ele>
        <time>2023-08-08T04:19:55.000Z</time>
      </trkpt>
      <trkpt lat="50.78027" lon="2.58238">
        <ele>47.599998474121</ele>
        <time>2023-08-08T04:19:56.000Z</time>
      </trkpt>
      <trkpt lat="50.78027" lon="2.58242">
        <ele>47.799999237061</ele>
        <time>2023-08-08T04:19:57.000Z</time>
      </trkpt>
      <trkpt lat="50.78036" lon="2.58263">
        <ele>48</ele>
        <time>2023-08-08T04:20:02.000Z</time>
      </trkpt>
      <trkpt lat="50.78055" lon="2.583">
        <ele>48</ele>
        <time>2023-08-08T04:20:09.000Z</time>
      </trkpt>
      <trkpt lat="50.78064" lon="2.58317">
        <ele>47.799999237061</ele>
        <time>2023-08-08T04:20:12.000Z</time>
      </trkpt>
      <trkpt lat="50.78073" lon="2.58335">
        <ele>47.599998474121</ele>
        <time>2023-08-08T04:20:15.000Z</time>
      </trkpt>
      <trkpt lat="50.78076" lon="2.58342">
        <ele>47.599998474121</ele>
        <time>2023-08-08T04:20:16.000Z</time>
      </trkpt>
      <trkpt lat="50.78106" lon="2.58398">
        <ele>46.599998474121</ele>
        <time>2023-08-08T04:20:25.000Z</time>
      </trkpt>
      <trkpt lat="50.78109" lon="2.58404">
        <ele>46.400001525879</ele>
        <time>2023-08-08T04:20:26.000Z</time>
      </trkpt>
      <trkpt lat="50.78139" lon="2.58457">
        <ele>46.200000762939</ele>
        <time>2023-08-08T04:20:36.000Z</time>
      </trkpt>
      <trkpt lat="50.7817" lon="2.58513">
        <ele>46.200000762939</ele>
        <time>2023-08-08T04:20:45.000Z</time>
      </trkpt>
      <trkpt lat="50.78173" lon="2.58518">
        <ele>46.400001525879</ele>
        <time>2023-08-08T04:20:46.000Z</time>
      </trkpt>
      <trkpt lat="50.78208" lon="2.58574">
        <ele>46.400001525879</ele>
        <time>2023-08-08T04:20:56.000Z</time>
      </trkpt>
      <trkpt lat="50.78239" lon="2.58628">
        <ele>46.599998474121</ele>
        <time>2023-08-08T04:21:06.000Z</time>
      </trkpt>
      <trkpt lat="50.78275" lon="2.58698">
        <ele>47.400001525879</ele>
        <time>2023-08-08T04:21:19.000Z</time>
      </trkpt>
      <trkpt lat="50.78281" lon="2.58708">
        <ele>47.400001525879</ele>
        <time>2023-08-08T04:21:21.000Z</time>
      </trkpt>
      <trkpt lat="50.78292" lon="2.5873">
        <ele>47.599998474121</ele>
        <time>2023-08-08T04:21:25.000Z</time>
      </trkpt>
      <trkpt lat="50.78305" lon="2.58751">
        <ele>47.799999237061</ele>
        <time>2023-08-08T04:21:29.000Z</time>
      </trkpt>
      <trkpt lat="50.78315" lon="2.58768">
        <ele>48.200000762939</ele>
        <time>2023-08-08T04:21:34.000Z</time>
      </trkpt>
      <trkpt lat="50.78324" lon="2.58784">
        <ele>48.400001525879</ele>
        <time>2023-08-08T04:21:40.000Z</time>
      </trkpt>
      <trkpt lat="50.78342" lon="2.58814">
        <ele>48.400001525879</ele>
        <time>2023-08-08T04:21:47.000Z</time>
      </trkpt>
      <trkpt lat="50.78354" lon="2.58834">
        <ele>48.599998474121</ele>
        <time>2023-08-08T04:21:51.000Z</time>
      </trkpt>
      <trkpt lat="50.78371" lon="2.58865">
        <ele>48.799999237061</ele>
        <time>2023-08-08T04:21:57.000Z</time>
      </trkpt>
      <trkpt lat="50.78396" lon="2.5891">
        <ele>48.599998474121</ele>
        <time>2023-08-08T04:22:05.000Z</time>
      </trkpt>
      <trkpt lat="50.78422" lon="2.58953">
        <ele>48.599998474121</ele>
        <time>2023-08-08T04:22:13.000Z</time>
      </trkpt>
      <trkpt lat="50.78425" lon="2.58957">
        <ele>48.599998474121</ele>
        <time>2023-08-08T04:22:14.000Z</time>
      </trkpt>
      <trkpt lat="50.78452" lon="2.58997">
        <ele>48.599998474121</ele>
        <time>2023-08-08T04:22:22.000Z</time>
      </trkpt>
      <trkpt lat="50.78482" lon="2.59038">
        <ele>48.599998474121</ele>
        <time>2023-08-08T04:22:30.000Z</time>
      </trkpt>
      <trkpt lat="50.78513" lon="2.59065">
        <ele>48.599998474121</ele>
        <time>2023-08-08T04:22:37.000Z</time>
      </trkpt>
      <trkpt lat="50.78531" lon="2.59079">
        <ele>48.799999237061</ele>
        <time>2023-08-08T04:22:41.000Z</time>
      </trkpt>
      <trkpt lat="50.78543" lon="2.59093">
        <ele>48.599998474121</ele>
        <time>2023-08-08T04:22:44.000Z</time>
      </trkpt>
      <trkpt lat="50.78547" lon="2.59098">
        <ele>48.599998474121</ele>
        <time>2023-08-08T04:22:45.000Z</time>
      </trkpt>
      <trkpt lat="50.78563" lon="2.5913">
        <ele>48.200000762939</ele>
        <time>2023-08-08T04:22:50.000Z</time>
      </trkpt>
      <trkpt lat="50.78588" lon="2.59183">
        <ele>47.599998474121</ele>
        <time>2023-08-08T04:22:59.000Z</time>
      </trkpt>
      <trkpt lat="50.78591" lon="2.59188">
        <ele>47.400001525879</ele>
        <time>2023-08-08T04:23:00.000Z</time>
      </trkpt>
      <trkpt lat="50.78598" lon="2.59205">
        <ele>47.400001525879</ele>
        <time>2023-08-08T04:23:04.000Z</time>
      </trkpt>
      <trkpt lat="50.786" lon="2.59214">
        <ele>47.200000762939</ele>
        <time>2023-08-08T04:23:07.000Z</time>
      </trkpt>
      <trkpt lat="50.786" lon="2.59216">
        <ele>47.200000762939</ele>
        <time>2023-08-08T04:23:08.000Z</time>
      </trkpt>
      <trkpt lat="50.78601" lon="2.59217">
        <ele>47.200000762939</ele>
        <time>2023-08-08T04:23:09.000Z</time>
      </trkpt>
      <trkpt lat="50.78608" lon="2.59221">
        <ele>47.200000762939</ele>
        <time>2023-08-08T04:23:12.000Z</time>
      </trkpt>
      <trkpt lat="50.78619" lon="2.59218">
        <ele>47.200000762939</ele>
        <time>2023-08-08T04:23:16.000Z</time>
      </trkpt>
      <trkpt lat="50.78657" lon="2.59199">
        <ele>47</ele>
        <time>2023-08-08T04:23:23.000Z</time>
      </trkpt>
      <trkpt lat="50.78697" lon="2.59176">
        <ele>46.799999237061</ele>
        <time>2023-08-08T04:23:31.000Z</time>
      </trkpt>
      <trkpt lat="50.78737" lon="2.5915">
        <ele>46.400001525879</ele>
        <time>2023-08-08T04:23:39.000Z</time>
      </trkpt>
      <trkpt lat="50.78757" lon="2.59135">
        <ele>46</ele>
        <time>2023-08-08T04:23:43.000Z</time>
      </trkpt>
      <trkpt lat="50.78807" lon="2.59105">
        <ele>45.799999237061</ele>
        <time>2023-08-08T04:23:52.000Z</time>
      </trkpt>
      <trkpt lat="50.78824" lon="2.59095">
        <ele>45.400001525879</ele>
        <time>2023-08-08T04:23:55.000Z</time>
      </trkpt>
      <trkpt lat="50.78864" lon="2.59077">
        <ele>44.799999237061</ele>
        <time>2023-08-08T04:24:02.000Z</time>
      </trkpt>
      <trkpt lat="50.78888" lon="2.59066">
        <ele>44.599998474121</ele>
        <time>2023-08-08T04:24:06.000Z</time>
      </trkpt>
      <trkpt lat="50.78904" lon="2.59059">
        <ele>44.400001525879</ele>
        <time>2023-08-08T04:24:09.000Z</time>
      </trkpt>
      <trkpt lat="50.78928" lon="2.59048">
        <ele>44</ele>
        <time>2023-08-08T04:24:13.000Z</time>
      </trkpt>
      <trkpt lat="50.78959" lon="2.59035">
        <ele>43.200000762939</ele>
        <time>2023-08-08T04:24:18.000Z</time>
      </trkpt>
      <trkpt lat="50.78991" lon="2.59022">
        <ele>42.599998474121</ele>
        <time>2023-08-08T04:24:23.000Z</time>
      </trkpt>
      <trkpt lat="50.79004" lon="2.59016">
        <ele>42.200000762939</ele>
        <time>2023-08-08T04:24:25.000Z</time>
      </trkpt>
      <trkpt lat="50.79037" lon="2.59003">
        <ele>41.200000762939</ele>
        <time>2023-08-08T04:24:31.000Z</time>
      </trkpt>
      <trkpt lat="50.79063" lon="2.58993">
        <ele>40.400001525879</ele>
        <time>2023-08-08T04:24:34.000Z</time>
      </trkpt>
      <trkpt lat="50.79076" lon="2.58987">
        <ele>40.200000762939</ele>
        <time>2023-08-08T04:24:36.000Z</time>
      </trkpt>
      <trkpt lat="50.79117" lon="2.58969">
        <ele>39</ele>
        <time>2023-08-08T04:24:42.000Z</time>
      </trkpt>
      <trkpt lat="50.7913" lon="2.58963">
        <ele>38.599998474121</ele>
        <time>2023-08-08T04:24:44.000Z</time>
      </trkpt>
      <trkpt lat="50.79149" lon="2.58954">
        <ele>38</ele>
        <time>2023-08-08T04:24:47.000Z</time>
      </trkpt>
      <trkpt lat="50.79206" lon="2.5893">
        <ele>36.599998474121</ele>
        <time>2023-08-08T04:24:56.000Z</time>
      </trkpt>
      <trkpt lat="50.79254" lon="2.5891">
        <ele>36</ele>
        <time>2023-08-08T04:25:04.000Z</time>
      </trkpt>
      <trkpt lat="50.79259" lon="2.58907">
        <ele>35.799999237061</ele>
        <time>2023-08-08T04:25:05.000Z</time>
      </trkpt>
      <trkpt lat="50.79265" lon="2.58905">
        <ele>35.599998474121</ele>
        <time>2023-08-08T04:25:06.000Z</time>
      </trkpt>
      <trkpt lat="50.79319" lon="2.58888">
        <ele>34.599998474121</ele>
        <time>2023-08-08T04:25:15.000Z</time>
      </trkpt>
      <trkpt lat="50.79324" lon="2.58887">
        <ele>34.599998474121</ele>
        <time>2023-08-08T04:25:16.000Z</time>
      </trkpt>
      <trkpt lat="50.79377" lon="2.58876">
        <ele>34.200000762939</ele>
        <time>2023-08-08T04:25:25.000Z</time>
      </trkpt>
      <trkpt lat="50.79433" lon="2.58863">
        <ele>33.799999237061</ele>
        <time>2023-08-08T04:25:35.000Z</time>
      </trkpt>
      <trkpt lat="50.79449" lon="2.58859">
        <ele>34</ele>
        <time>2023-08-08T04:25:38.000Z</time>
      </trkpt>
      <trkpt lat="50.79486" lon="2.5885">
        <ele>34.400001525879</ele>
        <time>2023-08-08T04:25:45.000Z</time>
      </trkpt>
      <trkpt lat="50.79536" lon="2.58827">
        <ele>34.799999237061</ele>
        <time>2023-08-08T04:25:55.000Z</time>
      </trkpt>
      <trkpt lat="50.79589" lon="2.58803">
        <ele>34.799999237061</ele>
        <time>2023-08-08T04:26:05.000Z</time>
      </trkpt>
      <trkpt lat="50.796" lon="2.58798">
        <ele>34.799999237061</ele>
        <time>2023-08-08T04:26:07.000Z</time>
      </trkpt>
      <trkpt lat="50.79633" lon="2.58786">
        <ele>34.799999237061</ele>
        <time>2023-08-08T04:26:13.000Z</time>
      </trkpt>
      <trkpt lat="50.79671" lon="2.58771">
        <ele>34.599998474121</ele>
        <time>2023-08-08T04:26:20.000Z</time>
      </trkpt>
      <trkpt lat="50.79725" lon="2.58745">
        <ele>34.400001525879</ele>
        <time>2023-08-08T04:26:30.000Z</time>
      </trkpt>
      <trkpt lat="50.7973" lon="2.58742">
        <ele>34.400001525879</ele>
        <time>2023-08-08T04:26:31.000Z</time>
      </trkpt>
      <trkpt lat="50.79785" lon="2.58719">
        <ele>34.200000762939</ele>
        <time>2023-08-08T04:26:41.000Z</time>
      </trkpt>
      <trkpt lat="50.79796" lon="2.58715">
        <ele>34.200000762939</ele>
        <time>2023-08-08T04:26:43.000Z</time>
      </trkpt>
      <trkpt lat="50.79848" lon="2.58705">
        <ele>33.799999237061</ele>
        <time>2023-08-08T04:26:52.000Z</time>
      </trkpt>
      <trkpt lat="50.79894" lon="2.58697">
        <ele>33.599998474121</ele>
        <time>2023-08-08T04:27:00.000Z</time>
      </trkpt>
      <trkpt lat="50.79906" lon="2.58694">
        <ele>33.400001525879</ele>
        <time>2023-08-08T04:27:02.000Z</time>
      </trkpt>
      <trkpt lat="50.79959" lon="2.58676">
        <ele>32.400001525879</ele>
        <time>2023-08-08T04:27:11.000Z</time>
      </trkpt>
      <trkpt lat="50.7997" lon="2.58671">
        <ele>32.200000762939</ele>
        <time>2023-08-08T04:27:13.000Z</time>
      </trkpt>
      <trkpt lat="50.80017" lon="2.58649">
        <ele>31.60000038147</ele>
        <time>2023-08-08T04:27:21.000Z</time>
      </trkpt>
      <trkpt lat="50.80045" lon="2.58637">
        <ele>31.200000762939</ele>
        <time>2023-08-08T04:27:26.000Z</time>
      </trkpt>
      <trkpt lat="50.80068" lon="2.58627">
        <ele>30.799999237061</ele>
        <time>2023-08-08T04:27:30.000Z</time>
      </trkpt>
      <trkpt lat="50.8011" lon="2.58608">
        <ele>30.200000762939</ele>
        <time>2023-08-08T04:27:37.000Z</time>
      </trkpt>
      <trkpt lat="50.80127" lon="2.586">
        <ele>29.60000038147</ele>
        <time>2023-08-08T04:27:40.000Z</time>
      </trkpt>
      <trkpt lat="50.80138" lon="2.58594">
        <ele>29.39999961853</ele>
        <time>2023-08-08T04:27:42.000Z</time>
      </trkpt>
      <trkpt lat="50.8016" lon="2.58581">
        <ele>29</ele>
        <time>2023-08-08T04:27:46.000Z</time>
      </trkpt>
      <trkpt lat="50.802" lon="2.58557">
        <ele>28.799999237061</ele>
        <time>2023-08-08T04:27:53.000Z</time>
      </trkpt>
      <trkpt lat="50.80233" lon="2.58539">
        <ele>28</ele>
        <time>2023-08-08T04:27:59.000Z</time>
      </trkpt>
      <trkpt lat="50.80236" lon="2.58539">
        <ele>28</ele>
        <time>2023-08-08T04:28:00.000Z</time>
      </trkpt>
      <trkpt lat="50.80244" lon="2.58538">
        <ele>27.39999961853</ele>
        <time>2023-08-08T04:28:04.000Z</time>
      </trkpt>
      <trkpt lat="50.80244" lon="2.58538">
        <ele>27.200000762939</ele>
        <time>2023-08-08T04:28:07.000Z</time>
      </trkpt>
      <trkpt lat="50.80246" lon="2.58537">
        <ele>26.799999237061</ele>
        <time>2023-08-08T04:28:37.000Z</time>
      </trkpt>
      <trkpt lat="50.80249" lon="2.58536">
        <ele>26.799999237061</ele>
        <time>2023-08-08T04:28:38.000Z</time>
      </trkpt>
      <trkpt lat="50.80268" lon="2.58532">
        <ele>26.60000038147</ele>
        <time>2023-08-08T04:28:44.000Z</time>
      </trkpt>
      <trkpt lat="50.80279" lon="2.58547">
        <ele>26.60000038147</ele>
        <time>2023-08-08T04:28:48.000Z</time>
      </trkpt>
      <trkpt lat="50.80281" lon="2.58559">
        <ele>26.60000038147</ele>
        <time>2023-08-08T04:28:50.000Z</time>
      </trkpt>
      <trkpt lat="50.8028" lon="2.58573">
        <ele>26.39999961853</ele>
        <time>2023-08-08T04:28:52.000Z</time>
      </trkpt>
      <trkpt lat="50.80279" lon="2.58625">
        <ele>26.39999961853</ele>
        <time>2023-08-08T04:29:00.000Z</time>
      </trkpt>
      <trkpt lat="50.80279" lon="2.58686">
        <ele>26.799999237061</ele>
        <time>2023-08-08T04:29:08.000Z</time>
      </trkpt>
      <trkpt lat="50.80287" lon="2.58759">
        <ele>27.200000762939</ele>
        <time>2023-08-08T04:29:17.000Z</time>
      </trkpt>
      <trkpt lat="50.80305" lon="2.58839">
        <ele>27.39999961853</ele>
        <time>2023-08-08T04:29:27.000Z</time>
      </trkpt>
      <trkpt lat="50.80326" lon="2.58898">
        <ele>27.799999237061</ele>
        <time>2023-08-08T04:29:35.000Z</time>
      </trkpt>
      <trkpt lat="50.8034" lon="2.58926">
        <ele>27.799999237061</ele>
        <time>2023-08-08T04:29:39.000Z</time>
      </trkpt>
      <trkpt lat="50.80351" lon="2.58945">
        <ele>27.60000038147</ele>
        <time>2023-08-08T04:29:42.000Z</time>
      </trkpt>
      <trkpt lat="50.80389" lon="2.58997">
        <ele>27.60000038147</ele>
        <time>2023-08-08T04:29:51.000Z</time>
      </trkpt>
      <trkpt lat="50.80427" lon="2.59042">
        <ele>27.39999961853</ele>
        <time>2023-08-08T04:29:59.000Z</time>
      </trkpt>
      <trkpt lat="50.80474" lon="2.591">
        <ele>26.60000038147</ele>
        <time>2023-08-08T04:30:09.000Z</time>
      </trkpt>
      <trkpt lat="50.80495" lon="2.59125">
        <ele>26.200000762939</ele>
        <time>2023-08-08T04:30:13.000Z</time>
      </trkpt>
      <trkpt lat="50.80525" lon="2.59162">
        <ele>25.39999961853</ele>
        <time>2023-08-08T04:30:19.000Z</time>
      </trkpt>
      <trkpt lat="50.80547" lon="2.59188">
        <ele>25</ele>
        <time>2023-08-08T04:30:23.000Z</time>
      </trkpt>
      <trkpt lat="50.80569" lon="2.59215">
        <ele>24.39999961853</ele>
        <time>2023-08-08T04:30:27.000Z</time>
      </trkpt>
      <trkpt lat="50.80608" lon="2.59265">
        <ele>23.200000762939</ele>
        <time>2023-08-08T04:30:34.000Z</time>
      </trkpt>
      <trkpt lat="50.80638" lon="2.59303">
        <ele>22.200000762939</ele>
        <time>2023-08-08T04:30:40.000Z</time>
      </trkpt>
      <trkpt lat="50.80642" lon="2.5931">
        <ele>22</ele>
        <time>2023-08-08T04:30:41.000Z</time>
      </trkpt>
      <trkpt lat="50.80646" lon="2.59317">
        <ele>21.799999237061</ele>
        <time>2023-08-08T04:30:42.000Z</time>
      </trkpt>
      <trkpt lat="50.80651" lon="2.59334">
        <ele>21.39999961853</ele>
        <time>2023-08-08T04:30:44.000Z</time>
      </trkpt>
      <trkpt lat="50.80655" lon="2.59352">
        <ele>21.200000762939</ele>
        <time>2023-08-08T04:30:46.000Z</time>
      </trkpt>
      <trkpt lat="50.80662" lon="2.59366">
        <ele>21</ele>
        <time>2023-08-08T04:30:48.000Z</time>
      </trkpt>
      <trkpt lat="50.80667" lon="2.59371">
        <ele>21</ele>
        <time>2023-08-08T04:30:49.000Z</time>
      </trkpt>
      <trkpt lat="50.80673" lon="2.59373">
        <ele>21</ele>
        <time>2023-08-08T04:30:50.000Z</time>
      </trkpt>
      <trkpt lat="50.8068" lon="2.59372">
        <ele>21</ele>
        <time>2023-08-08T04:30:51.000Z</time>
      </trkpt>
      <trkpt lat="50.80685" lon="2.59368">
        <ele>20.799999237061</ele>
        <time>2023-08-08T04:30:52.000Z</time>
      </trkpt>
      <trkpt lat="50.80694" lon="2.59354">
        <ele>20.39999961853</ele>
        <time>2023-08-08T04:30:54.000Z</time>
      </trkpt>
      <trkpt lat="50.80695" lon="2.59336">
        <ele>20</ele>
        <time>2023-08-08T04:30:56.000Z</time>
      </trkpt>
      <trkpt lat="50.80695" lon="2.59327">
        <ele>20</ele>
        <time>2023-08-08T04:30:57.000Z</time>
      </trkpt>
      <trkpt lat="50.80696" lon="2.59319">
        <ele>19.799999237061</ele>
        <time>2023-08-08T04:30:58.000Z</time>
      </trkpt>
      <trkpt lat="50.807" lon="2.59306">
        <ele>19.799999237061</ele>
        <time>2023-08-08T04:31:00.000Z</time>
      </trkpt>
      <trkpt lat="50.80704" lon="2.59294">
        <ele>19.799999237061</ele>
        <time>2023-08-08T04:31:02.000Z</time>
      </trkpt>
      <trkpt lat="50.80708" lon="2.59282">
        <ele>20</ele>
        <time>2023-08-08T04:31:04.000Z</time>
      </trkpt>
      <trkpt lat="50.80731" lon="2.5923">
        <ele>20.39999961853</ele>
        <time>2023-08-08T04:31:12.000Z</time>
      </trkpt>
      <trkpt lat="50.80751" lon="2.59188">
        <ele>20.799999237061</ele>
        <time>2023-08-08T04:31:20.000Z</time>
      </trkpt>
      <trkpt lat="50.80754" lon="2.59179">
        <ele>21</ele>
        <time>2023-08-08T04:31:22.000Z</time>
      </trkpt>
      <trkpt lat="50.80762" lon="2.59163">
        <ele>21.200000762939</ele>
        <time>2023-08-08T04:31:25.000Z</time>
      </trkpt>
      <trkpt lat="50.80779" lon="2.59129">
        <ele>21.60000038147</ele>
        <time>2023-08-08T04:31:31.000Z</time>
      </trkpt>
      <trkpt lat="50.80791" lon="2.59105">
        <ele>22.200000762939</ele>
        <time>2023-08-08T04:31:35.000Z</time>
      </trkpt>
      <trkpt lat="50.80811" lon="2.59062">
        <ele>22.39999961853</ele>
        <time>2023-08-08T04:31:42.000Z</time>
      </trkpt>
      <trkpt lat="50.80843" lon="2.58985">
        <ele>23</ele>
        <time>2023-08-08T04:31:54.000Z</time>
      </trkpt>
      <trkpt lat="50.80845" lon="2.5898">
        <ele>23</ele>
        <time>2023-08-08T04:31:55.000Z</time>
      </trkpt>
      <trkpt lat="50.80853" lon="2.58959">
        <ele>23.200000762939</ele>
        <time>2023-08-08T04:31:58.000Z</time>
      </trkpt>
      <trkpt lat="50.80864" lon="2.58924">
        <ele>23.60000038147</ele>
        <time>2023-08-08T04:32:03.000Z</time>
      </trkpt>
      <trkpt lat="50.80887" lon="2.58846">
        <ele>24.200000762939</ele>
        <time>2023-08-08T04:32:14.000Z</time>
      </trkpt>
      <trkpt lat="50.80894" lon="2.58826">
        <ele>24.200000762939</ele>
        <time>2023-08-08T04:32:17.000Z</time>
      </trkpt>
      <trkpt lat="50.80908" lon="2.58793">
        <ele>24.200000762939</ele>
        <time>2023-08-08T04:32:22.000Z</time>
      </trkpt>
      <trkpt lat="50.80937" lon="2.58746">
        <ele>24</ele>
        <time>2023-08-08T04:32:30.000Z</time>
      </trkpt>
      <trkpt lat="50.80957" lon="2.58719">
        <ele>23.60000038147</ele>
        <time>2023-08-08T04:32:35.000Z</time>
      </trkpt>
      <trkpt lat="50.80965" lon="2.58713">
        <ele>23.39999961853</ele>
        <time>2023-08-08T04:32:37.000Z</time>
      </trkpt>
      <trkpt lat="50.80971" lon="2.58705">
        <ele>23.200000762939</ele>
        <time>2023-08-08T04:32:39.000Z</time>
      </trkpt>
      <trkpt lat="50.80972" lon="2.58692">
        <ele>23.200000762939</ele>
        <time>2023-08-08T04:32:41.000Z</time>
      </trkpt>
      <trkpt lat="50.8097" lon="2.58665">
        <ele>23</ele>
        <time>2023-08-08T04:32:44.000Z</time>
      </trkpt>
      <trkpt lat="50.80968" lon="2.58656">
        <ele>22.799999237061</ele>
        <time>2023-08-08T04:32:45.000Z</time>
      </trkpt>
      <trkpt lat="50.80963" lon="2.58597">
        <ele>21.799999237061</ele>
        <time>2023-08-08T04:32:51.000Z</time>
      </trkpt>
      <trkpt lat="50.8096" lon="2.58567">
        <ele>21.60000038147</ele>
        <time>2023-08-08T04:32:54.000Z</time>
      </trkpt>
      <trkpt lat="50.80956" lon="2.58517">
        <ele>20.60000038147</ele>
        <time>2023-08-08T04:32:59.000Z</time>
      </trkpt>
      <trkpt lat="50.80951" lon="2.58456">
        <ele>19.799999237061</ele>
        <time>2023-08-08T04:33:05.000Z</time>
      </trkpt>
      <trkpt lat="50.80951" lon="2.58446">
        <ele>19.60000038147</ele>
        <time>2023-08-08T04:33:06.000Z</time>
      </trkpt>
      <trkpt lat="50.80947" lon="2.58398">
        <ele>18.39999961853</ele>
        <time>2023-08-08T04:33:11.000Z</time>
      </trkpt>
      <trkpt lat="50.80946" lon="2.58372">
        <ele>18</ele>
        <time>2023-08-08T04:33:14.000Z</time>
      </trkpt>
      <trkpt lat="50.80944" lon="2.58329">
        <ele>17.39999961853</ele>
        <time>2023-08-08T04:33:19.000Z</time>
      </trkpt>
      <trkpt lat="50.80943" lon="2.58314">
        <ele>17.200000762939</ele>
        <time>2023-08-08T04:33:21.000Z</time>
      </trkpt>
      <trkpt lat="50.80943" lon="2.58299">
        <ele>17.200000762939</ele>
        <time>2023-08-08T04:33:23.000Z</time>
      </trkpt>
      <trkpt lat="50.80945" lon="2.58285">
        <ele>17.200000762939</ele>
        <time>2023-08-08T04:33:25.000Z</time>
      </trkpt>
      <trkpt lat="50.8095" lon="2.58274">
        <ele>17.200000762939</ele>
        <time>2023-08-08T04:33:27.000Z</time>
      </trkpt>
      <trkpt lat="50.80958" lon="2.58265">
        <ele>17.200000762939</ele>
        <time>2023-08-08T04:33:29.000Z</time>
      </trkpt>
      <trkpt lat="50.80974" lon="2.58258">
        <ele>17.60000038147</ele>
        <time>2023-08-08T04:33:33.000Z</time>
      </trkpt>
      <trkpt lat="50.80977" lon="2.58257">
        <ele>17.60000038147</ele>
        <time>2023-08-08T04:33:34.000Z</time>
      </trkpt>
      <trkpt lat="50.81012" lon="2.58244">
        <ele>18.39999961853</ele>
        <time>2023-08-08T04:33:42.000Z</time>
      </trkpt>
      <trkpt lat="50.81017" lon="2.58241">
        <ele>18.60000038147</ele>
        <time>2023-08-08T04:33:43.000Z</time>
      </trkpt>
      <trkpt lat="50.81033" lon="2.58224">
        <ele>19.200000762939</ele>
        <time>2023-08-08T04:33:47.000Z</time>
      </trkpt>
      <trkpt lat="50.81037" lon="2.5822">
        <ele>19.60000038147</ele>
        <time>2023-08-08T04:33:48.000Z</time>
      </trkpt>
      <trkpt lat="50.81041" lon="2.58216">
        <ele>19.799999237061</ele>
        <time>2023-08-08T04:33:49.000Z</time>
      </trkpt>
      <trkpt lat="50.81044" lon="2.5821">
        <ele>19.799999237061</ele>
        <time>2023-08-08T04:33:50.000Z</time>
      </trkpt>
      <trkpt lat="50.81057" lon="2.5819">
        <ele>20.200000762939</ele>
        <time>2023-08-08T04:33:54.000Z</time>
      </trkpt>
      <trkpt lat="50.81061" lon="2.58183">
        <ele>20.200000762939</ele>
        <time>2023-08-08T04:33:55.000Z</time>
      </trkpt>
      <trkpt lat="50.81071" lon="2.58168">
        <ele>20.39999961853</ele>
        <time>2023-08-08T04:33:58.000Z</time>
      </trkpt>
      <trkpt lat="50.81071" lon="2.58162">
        <ele>20.39999961853</ele>
        <time>2023-08-08T04:33:59.000Z</time>
      </trkpt>
      <trkpt lat="50.81074" lon="2.58156">
        <ele>20.39999961853</ele>
        <time>2023-08-08T04:34:00.000Z</time>
      </trkpt>
      <trkpt lat="50.81078" lon="2.58142">
        <ele>20.60000038147</ele>
        <time>2023-08-08T04:34:02.000Z</time>
      </trkpt>
      <trkpt lat="50.81082" lon="2.58131">
        <ele>20.799999237061</ele>
        <time>2023-08-08T04:34:04.000Z</time>
      </trkpt>
      <trkpt lat="50.81081" lon="2.58122">
        <ele>21</ele>
        <time>2023-08-08T04:34:05.000Z</time>
      </trkpt>
      <trkpt lat="50.81079" lon="2.58089">
        <ele>21.39999961853</ele>
        <time>2023-08-08T04:34:09.000Z</time>
      </trkpt>
      <trkpt lat="50.81082" lon="2.58067">
        <ele>21.799999237061</ele>
        <time>2023-08-08T04:34:12.000Z</time>
      </trkpt>
      <trkpt lat="50.81083" lon="2.58061">
        <ele>21.799999237061</ele>
        <time>2023-08-08T04:34:13.000Z</time>
      </trkpt>
      <trkpt lat="50.81095" lon="2.58009">
        <ele>22.39999961853</ele>
        <time>2023-08-08T04:34:21.000Z</time>
      </trkpt>
      <trkpt lat="50.81096" lon="2.58002">
        <ele>22.60000038147</ele>
        <time>2023-08-08T04:34:22.000Z</time>
      </trkpt>
      <trkpt lat="50.81103" lon="2.57963">
        <ele>23.200000762939</ele>
        <time>2023-08-08T04:34:28.000Z</time>
      </trkpt>
      <trkpt lat="50.81105" lon="2.57957">
        <ele>23.200000762939</ele>
        <time>2023-08-08T04:34:29.000Z</time>
      </trkpt>
      <trkpt lat="50.81115" lon="2.57912">
        <ele>23.60000038147</ele>
        <time>2023-08-08T04:34:37.000Z</time>
      </trkpt>
      <trkpt lat="50.81118" lon="2.57901">
        <ele>23.799999237061</ele>
        <time>2023-08-08T04:34:40.000Z</time>
      </trkpt>
      <trkpt lat="50.81118" lon="2.57891">
        <ele>23.799999237061</ele>
        <time>2023-08-08T04:34:42.000Z</time>
      </trkpt>
      <trkpt lat="50.81125" lon="2.57854">
        <ele>24.200000762939</ele>
        <time>2023-08-08T04:34:48.000Z</time>
      </trkpt>
      <trkpt lat="50.81135" lon="2.5781">
        <ele>24.60000038147</ele>
        <time>2023-08-08T04:34:55.000Z</time>
      </trkpt>
      <trkpt lat="50.8114" lon="2.57793">
        <ele>24.799999237061</ele>
        <time>2023-08-08T04:34:58.000Z</time>
      </trkpt>
      <trkpt lat="50.81163" lon="2.57742">
        <ele>25.60000038147</ele>
        <time>2023-08-08T04:35:07.000Z</time>
      </trkpt>
      <trkpt lat="50.81176" lon="2.57719">
        <ele>25.60000038147</ele>
        <time>2023-08-08T04:35:11.000Z</time>
      </trkpt>
      <trkpt lat="50.81191" lon="2.57698">
        <ele>25.200000762939</ele>
        <time>2023-08-08T04:35:15.000Z</time>
      </trkpt>
      <trkpt lat="50.8123" lon="2.57645">
        <ele>25</ele>
        <time>2023-08-08T04:35:25.000Z</time>
      </trkpt>
      <trkpt lat="50.81272" lon="2.57591">
        <ele>25</ele>
        <time>2023-08-08T04:35:35.000Z</time>
      </trkpt>
      <trkpt lat="50.81314" lon="2.57537">
        <ele>25</ele>
        <time>2023-08-08T04:35:45.000Z</time>
      </trkpt>
      <trkpt lat="50.81319" lon="2.57532">
        <ele>25</ele>
        <time>2023-08-08T04:35:46.000Z</time>
      </trkpt>
      <trkpt lat="50.8135" lon="2.57485">
        <ele>25</ele>
        <time>2023-08-08T04:35:54.000Z</time>
      </trkpt>
      <trkpt lat="50.81354" lon="2.5748">
        <ele>25</ele>
        <time>2023-08-08T04:35:55.000Z</time>
      </trkpt>
      <trkpt lat="50.81372" lon="2.57448">
        <ele>25</ele>
        <time>2023-08-08T04:36:00.000Z</time>
      </trkpt>
      <trkpt lat="50.81399" lon="2.57387">
        <ele>25</ele>
        <time>2023-08-08T04:36:09.000Z</time>
      </trkpt>
      <trkpt lat="50.81424" lon="2.57335">
        <ele>25.60000038147</ele>
        <time>2023-08-08T04:36:17.000Z</time>
      </trkpt>
      <trkpt lat="50.81427" lon="2.57329">
        <ele>25.799999237061</ele>
        <time>2023-08-08T04:36:18.000Z</time>
      </trkpt>
      <trkpt lat="50.81444" lon="2.57301">
        <ele>26.200000762939</ele>
        <time>2023-08-08T04:36:23.000Z</time>
      </trkpt>
      <trkpt lat="50.81472" lon="2.57254">
        <ele>27</ele>
        <time>2023-08-08T04:36:32.000Z</time>
      </trkpt>
      <trkpt lat="50.81476" lon="2.57249">
        <ele>27</ele>
        <time>2023-08-08T04:36:33.000Z</time>
      </trkpt>
      <trkpt lat="50.815" lon="2.57211">
        <ele>27.799999237061</ele>
        <time>2023-08-08T04:36:41.000Z</time>
      </trkpt>
      <trkpt lat="50.81504" lon="2.57205">
        <ele>28</ele>
        <time>2023-08-08T04:36:42.000Z</time>
      </trkpt>
      <trkpt lat="50.81531" lon="2.57162">
        <ele>29</ele>
        <time>2023-08-08T04:36:51.000Z</time>
      </trkpt>
      <trkpt lat="50.81537" lon="2.57152">
        <ele>29.200000762939</ele>
        <time>2023-08-08T04:36:53.000Z</time>
      </trkpt>
      <trkpt lat="50.81552" lon="2.57128">
        <ele>29.799999237061</ele>
        <time>2023-08-08T04:36:58.000Z</time>
      </trkpt>
      <trkpt lat="50.81555" lon="2.57124">
        <ele>29.799999237061</ele>
        <time>2023-08-08T04:36:59.000Z</time>
      </trkpt>
      <trkpt lat="50.81579" lon="2.57085">
        <ele>30.799999237061</ele>
        <time>2023-08-08T04:37:08.000Z</time>
      </trkpt>
      <trkpt lat="50.81582" lon="2.57079">
        <ele>31</ele>
        <time>2023-08-08T04:37:09.000Z</time>
      </trkpt>
      <trkpt lat="50.81599" lon="2.57039">
        <ele>32.200000762939</ele>
        <time>2023-08-08T04:37:17.000Z</time>
      </trkpt>
      <trkpt lat="50.81601" lon="2.57034">
        <ele>32.400001525879</ele>
        <time>2023-08-08T04:37:18.000Z</time>
      </trkpt>
      <trkpt lat="50.81612" lon="2.57003">
        <ele>33.400001525879</ele>
        <time>2023-08-08T04:37:24.000Z</time>
      </trkpt>
      <trkpt lat="50.81618" lon="2.56988">
        <ele>33.799999237061</ele>
        <time>2023-08-08T04:37:27.000Z</time>
      </trkpt>
      <trkpt lat="50.81628" lon="2.56965">
        <ele>34.400001525879</ele>
        <time>2023-08-08T04:37:32.000Z</time>
      </trkpt>
      <trkpt lat="50.81642" lon="2.56932">
        <ele>35.200000762939</ele>
        <time>2023-08-08T04:37:39.000Z</time>
      </trkpt>
      <trkpt lat="50.81646" lon="2.56922">
        <ele>35.599998474121</ele>
        <time>2023-08-08T04:37:41.000Z</time>
      </trkpt>
      <trkpt lat="50.81661" lon="2.56889">
        <ele>36.599998474121</ele>
        <time>2023-08-08T04:37:48.000Z</time>
      </trkpt>
      <trkpt lat="50.81668" lon="2.56876">
        <ele>37.200000762939</ele>
        <time>2023-08-08T04:37:51.000Z</time>
      </trkpt>
      <trkpt lat="50.81674" lon="2.56862">
        <ele>37.599998474121</ele>
        <time>2023-08-08T04:37:54.000Z</time>
      </trkpt>
      <trkpt lat="50.8169" lon="2.56826">
        <ele>38.599998474121</ele>
        <time>2023-08-08T04:38:02.000Z</time>
      </trkpt>
      <trkpt lat="50.81692" lon="2.56821">
        <ele>38.799999237061</ele>
        <time>2023-08-08T04:38:03.000Z</time>
      </trkpt>
      <trkpt lat="50.81712" lon="2.56776">
        <ele>39.799999237061</ele>
        <time>2023-08-08T04:38:13.000Z</time>
      </trkpt>
      <trkpt lat="50.81729" lon="2.56737">
        <ele>41</ele>
        <time>2023-08-08T04:38:23.000Z</time>
      </trkpt>
      <trkpt lat="50.8173" lon="2.56736">
        <ele>41</ele>
        <time>2023-08-08T04:38:24.000Z</time>
      </trkpt>
      <trkpt lat="50.8173" lon="2.56736">
        <ele>41.200000762939</ele>
        <time>2023-08-08T04:38:26.000Z</time>
      </trkpt>
      <trkpt lat="50.81732" lon="2.56732">
        <ele>41.400001525879</ele>
        <time>2023-08-08T04:38:33.000Z</time>
      </trkpt>
      <trkpt lat="50.81733" lon="2.56729">
        <ele>41.400001525879</ele>
        <time>2023-08-08T04:38:34.000Z</time>
      </trkpt>
      <trkpt lat="50.81742" lon="2.56708">
        <ele>41.400001525879</ele>
        <time>2023-08-08T04:38:39.000Z</time>
      </trkpt>
      <trkpt lat="50.81756" lon="2.56676">
        <ele>41.599998474121</ele>
        <time>2023-08-08T04:38:45.000Z</time>
      </trkpt>
      <trkpt lat="50.81776" lon="2.56631">
        <ele>42</ele>
        <time>2023-08-08T04:38:53.000Z</time>
      </trkpt>
      <trkpt lat="50.81805" lon="2.56574">
        <ele>42.200000762939</ele>
        <time>2023-08-08T04:39:03.000Z</time>
      </trkpt>
      <trkpt lat="50.81837" lon="2.56497">
        <ele>42.200000762939</ele>
        <time>2023-08-08T04:39:15.000Z</time>
      </trkpt>
      <trkpt lat="50.81862" lon="2.56436">
        <ele>42.400001525879</ele>
        <time>2023-08-08T04:39:25.000Z</time>
      </trkpt>
      <trkpt lat="50.81887" lon="2.5638">
        <ele>42.599998474121</ele>
        <time>2023-08-08T04:39:34.000Z</time>
      </trkpt>
      <trkpt lat="50.8191" lon="2.56337">
        <ele>42.200000762939</ele>
        <time>2023-08-08T04:39:40.000Z</time>
      </trkpt>
      <trkpt lat="50.81929" lon="2.56305">
        <ele>41</ele>
        <time>2023-08-08T04:39:44.000Z</time>
      </trkpt>
      <trkpt lat="50.81944" lon="2.5628">
        <ele>40</ele>
        <time>2023-08-08T04:39:47.000Z</time>
      </trkpt>
      <trkpt lat="50.81949" lon="2.56272">
        <ele>40</ele>
        <time>2023-08-08T04:39:48.000Z</time>
      </trkpt>
      <trkpt lat="50.81965" lon="2.56246">
        <ele>38.799999237061</ele>
        <time>2023-08-08T04:39:51.000Z</time>
      </trkpt>
      <trkpt lat="50.81984" lon="2.56208">
        <ele>37.799999237061</ele>
        <time>2023-08-08T04:39:55.000Z</time>
      </trkpt>
      <trkpt lat="50.82002" lon="2.56166">
        <ele>36</ele>
        <time>2023-08-08T04:39:59.000Z</time>
      </trkpt>
      <trkpt lat="50.82015" lon="2.56133">
        <ele>35</ele>
        <time>2023-08-08T04:40:02.000Z</time>
      </trkpt>
      <trkpt lat="50.82023" lon="2.56112">
        <ele>34.400001525879</ele>
        <time>2023-08-08T04:40:04.000Z</time>
      </trkpt>
      <trkpt lat="50.82032" lon="2.56091">
        <ele>33.799999237061</ele>
        <time>2023-08-08T04:40:06.000Z</time>
      </trkpt>
      <trkpt lat="50.82052" lon="2.5604">
        <ele>32.799999237061</ele>
        <time>2023-08-08T04:40:11.000Z</time>
      </trkpt>
      <trkpt lat="50.82064" lon="2.5601">
        <ele>32</ele>
        <time>2023-08-08T04:40:14.000Z</time>
      </trkpt>
      <trkpt lat="50.82071" lon="2.5599">
        <ele>31.60000038147</ele>
        <time>2023-08-08T04:40:16.000Z</time>
      </trkpt>
      <trkpt lat="50.82098" lon="2.55922">
        <ele>30.60000038147</ele>
        <time>2023-08-08T04:40:23.000Z</time>
      </trkpt>
      <trkpt lat="50.82127" lon="2.55849">
        <ele>29.799999237061</ele>
        <time>2023-08-08T04:40:31.000Z</time>
      </trkpt>
      <trkpt lat="50.82134" lon="2.55831">
        <ele>29.60000038147</ele>
        <time>2023-08-08T04:40:33.000Z</time>
      </trkpt>
      <trkpt lat="50.82141" lon="2.55814">
        <ele>29.60000038147</ele>
        <time>2023-08-08T04:40:35.000Z</time>
      </trkpt>
      <trkpt lat="50.82163" lon="2.55755">
        <ele>29.200000762939</ele>
        <time>2023-08-08T04:40:42.000Z</time>
      </trkpt>
      <trkpt lat="50.82189" lon="2.55686">
        <ele>28.60000038147</ele>
        <time>2023-08-08T04:40:50.000Z</time>
      </trkpt>
      <trkpt lat="50.82201" lon="2.55653">
        <ele>28.39999961853</ele>
        <time>2023-08-08T04:40:54.000Z</time>
      </trkpt>
      <trkpt lat="50.82231" lon="2.55577">
        <ele>28</ele>
        <time>2023-08-08T04:41:03.000Z</time>
      </trkpt>
      <trkpt lat="50.82235" lon="2.55569">
        <ele>28</ele>
        <time>2023-08-08T04:41:04.000Z</time>
      </trkpt>
      <trkpt lat="50.82266" lon="2.55493">
        <ele>27.799999237061</ele>
        <time>2023-08-08T04:41:13.000Z</time>
      </trkpt>
      <trkpt lat="50.82278" lon="2.55461">
        <ele>27.799999237061</ele>
        <time>2023-08-08T04:41:17.000Z</time>
      </trkpt>
      <trkpt lat="50.82314" lon="2.55388">
        <ele>28</ele>
        <time>2023-08-08T04:41:27.000Z</time>
      </trkpt>
      <trkpt lat="50.82341" lon="2.55336">
        <ele>28.39999961853</ele>
        <time>2023-08-08T04:41:35.000Z</time>
      </trkpt>
      <trkpt lat="50.82376" lon="2.55274">
        <ele>29.200000762939</ele>
        <time>2023-08-08T04:41:45.000Z</time>
      </trkpt>
      <trkpt lat="50.82395" lon="2.5523">
        <ele>29.60000038147</ele>
        <time>2023-08-08T04:41:52.000Z</time>
      </trkpt>
      <trkpt lat="50.82397" lon="2.55222">
        <ele>29.60000038147</ele>
        <time>2023-08-08T04:41:53.000Z</time>
      </trkpt>
      <trkpt lat="50.82409" lon="2.55161">
        <ele>30.39999961853</ele>
        <time>2023-08-08T04:42:01.000Z</time>
      </trkpt>
      <trkpt lat="50.82411" lon="2.55138">
        <ele>30.60000038147</ele>
        <time>2023-08-08T04:42:04.000Z</time>
      </trkpt>
      <trkpt lat="50.82415" lon="2.55084">
        <ele>31</ele>
        <time>2023-08-08T04:42:11.000Z</time>
      </trkpt>
      <trkpt lat="50.82423" lon="2.54993">
        <ele>31.60000038147</ele>
        <time>2023-08-08T04:42:23.000Z</time>
      </trkpt>
      <trkpt lat="50.82435" lon="2.54935">
        <ele>32.200000762939</ele>
        <time>2023-08-08T04:42:31.000Z</time>
      </trkpt>
      <trkpt lat="50.82437" lon="2.54928">
        <ele>32.200000762939</ele>
        <time>2023-08-08T04:42:32.000Z</time>
      </trkpt>
      <trkpt lat="50.82458" lon="2.54894">
        <ele>32.400001525879</ele>
        <time>2023-08-08T04:42:38.000Z</time>
      </trkpt>
      <trkpt lat="50.82484" lon="2.54859">
        <ele>32.599998474121</ele>
        <time>2023-08-08T04:42:45.000Z</time>
      </trkpt>
      <trkpt lat="50.82507" lon="2.54829">
        <ele>32.799999237061</ele>
        <time>2023-08-08T04:42:51.000Z</time>
      </trkpt>
      <trkpt lat="50.82543" lon="2.54776">
        <ele>33.400001525879</ele>
        <time>2023-08-08T04:43:01.000Z</time>
      </trkpt>
      <trkpt lat="50.82568" lon="2.5474">
        <ele>33.599998474121</ele>
        <time>2023-08-08T04:43:08.000Z</time>
      </trkpt>
      <trkpt lat="50.82578" lon="2.54722">
        <ele>33.799999237061</ele>
        <time>2023-08-08T04:43:11.000Z</time>
      </trkpt>
      <trkpt lat="50.82605" lon="2.5467">
        <ele>34.400001525879</ele>
        <time>2023-08-08T04:43:20.000Z</time>
      </trkpt>
      <trkpt lat="50.82619" lon="2.54641">
        <ele>34.799999237061</ele>
        <time>2023-08-08T04:43:25.000Z</time>
      </trkpt>
      <trkpt lat="50.82639" lon="2.54599">
        <ele>35.200000762939</ele>
        <time>2023-08-08T04:43:32.000Z</time>
      </trkpt>
      <trkpt lat="50.82656" lon="2.54564">
        <ele>35.799999237061</ele>
        <time>2023-08-08T04:43:38.000Z</time>
      </trkpt>
      <trkpt lat="50.82665" lon="2.54546">
        <ele>36.200000762939</ele>
        <time>2023-08-08T04:43:41.000Z</time>
      </trkpt>
      <trkpt lat="50.82697" lon="2.5448">
        <ele>36.599998474121</ele>
        <time>2023-08-08T04:43:52.000Z</time>
      </trkpt>
      <trkpt lat="50.82709" lon="2.54446">
        <ele>37</ele>
        <time>2023-08-08T04:43:57.000Z</time>
      </trkpt>
      <trkpt lat="50.82722" lon="2.54409">
        <ele>37.400001525879</ele>
        <time>2023-08-08T04:44:03.000Z</time>
      </trkpt>
      <trkpt lat="50.82732" lon="2.54374">
        <ele>38</ele>
        <time>2023-08-08T04:44:08.000Z</time>
      </trkpt>
      <trkpt lat="50.82747" lon="2.54326">
        <ele>38.400001525879</ele>
        <time>2023-08-08T04:44:15.000Z</time>
      </trkpt>
      <trkpt lat="50.82779" lon="2.5425">
        <ele>38.799999237061</ele>
        <time>2023-08-08T04:44:27.000Z</time>
      </trkpt>
      <trkpt lat="50.82807" lon="2.54187">
        <ele>38.599998474121</ele>
        <time>2023-08-08T04:44:36.000Z</time>
      </trkpt>
      <trkpt lat="50.82824" lon="2.54132">
        <ele>38.400001525879</ele>
        <time>2023-08-08T04:44:43.000Z</time>
      </trkpt>
      <trkpt lat="50.82836" lon="2.54067">
        <ele>37.599998474121</ele>
        <time>2023-08-08T04:44:51.000Z</time>
      </trkpt>
      <trkpt lat="50.82851" lon="2.54004">
        <ele>37.799999237061</ele>
        <time>2023-08-08T04:44:59.000Z</time>
      </trkpt>
      <trkpt lat="50.8287" lon="2.5394">
        <ele>38.200000762939</ele>
        <time>2023-08-08T04:45:07.000Z</time>
      </trkpt>
      <trkpt lat="50.82895" lon="2.53883">
        <ele>37.400001525879</ele>
        <time>2023-08-08T04:45:14.000Z</time>
      </trkpt>
      <trkpt lat="50.82924" lon="2.53826">
        <ele>36.799999237061</ele>
        <time>2023-08-08T04:45:21.000Z</time>
      </trkpt>
      <trkpt lat="50.82929" lon="2.53817">
        <ele>36.599998474121</ele>
        <time>2023-08-08T04:45:22.000Z</time>
      </trkpt>
      <trkpt lat="50.82946" lon="2.53783">
        <ele>35.599998474121</ele>
        <time>2023-08-08T04:45:26.000Z</time>
      </trkpt>
      <trkpt lat="50.82966" lon="2.53738">
        <ele>34.599998474121</ele>
        <time>2023-08-08T04:45:31.000Z</time>
      </trkpt>
      <trkpt lat="50.8297" lon="2.53728">
        <ele>34.599998474121</ele>
        <time>2023-08-08T04:45:32.000Z</time>
      </trkpt>
      <trkpt lat="50.8299" lon="2.5367">
        <ele>33.400001525879</ele>
        <time>2023-08-08T04:45:38.000Z</time>
      </trkpt>
      <trkpt lat="50.83003" lon="2.53631">
        <ele>32.799999237061</ele>
        <time>2023-08-08T04:45:42.000Z</time>
      </trkpt>
      <trkpt lat="50.83012" lon="2.53603">
        <ele>32.400001525879</ele>
        <time>2023-08-08T04:45:45.000Z</time>
      </trkpt>
      <trkpt lat="50.83032" lon="2.53548">
        <ele>31.60000038147</ele>
        <time>2023-08-08T04:45:51.000Z</time>
      </trkpt>
      <trkpt lat="50.83038" lon="2.5353">
        <ele>31.200000762939</ele>
        <time>2023-08-08T04:45:53.000Z</time>
      </trkpt>
      <trkpt lat="50.83061" lon="2.53469">
        <ele>30.39999961853</ele>
        <time>2023-08-08T04:46:00.000Z</time>
      </trkpt>
      <trkpt lat="50.83066" lon="2.5346">
        <ele>30.200000762939</ele>
        <time>2023-08-08T04:46:01.000Z</time>
      </trkpt>
      <trkpt lat="50.83093" lon="2.53415">
        <ele>29.39999961853</ele>
        <time>2023-08-08T04:46:07.000Z</time>
      </trkpt>
      <trkpt lat="50.83119" lon="2.53382">
        <ele>29.200000762939</ele>
        <time>2023-08-08T04:46:12.000Z</time>
      </trkpt>
      <trkpt lat="50.83151" lon="2.53342">
        <ele>29</ele>
        <time>2023-08-08T04:46:18.000Z</time>
      </trkpt>
      <trkpt lat="50.83196" lon="2.53284">
        <ele>28.799999237061</ele>
        <time>2023-08-08T04:46:27.000Z</time>
      </trkpt>
      <trkpt lat="50.83201" lon="2.53278">
        <ele>28.799999237061</ele>
        <time>2023-08-08T04:46:28.000Z</time>
      </trkpt>
      <trkpt lat="50.83245" lon="2.53223">
        <ele>28.60000038147</ele>
        <time>2023-08-08T04:46:37.000Z</time>
      </trkpt>
      <trkpt lat="50.8326" lon="2.53205">
        <ele>28.60000038147</ele>
        <time>2023-08-08T04:46:40.000Z</time>
      </trkpt>
      <trkpt lat="50.83294" lon="2.53165">
        <ele>28.799999237061</ele>
        <time>2023-08-08T04:46:47.000Z</time>
      </trkpt>
      <trkpt lat="50.83337" lon="2.53112">
        <ele>29</ele>
        <time>2023-08-08T04:46:56.000Z</time>
      </trkpt>
      <trkpt lat="50.83345" lon="2.53101">
        <ele>29</ele>
        <time>2023-08-08T04:46:58.000Z</time>
      </trkpt>
      <trkpt lat="50.8339" lon="2.53045">
        <ele>28.799999237061</ele>
        <time>2023-08-08T04:47:07.000Z</time>
      </trkpt>
      <trkpt lat="50.83395" lon="2.53039">
        <ele>28.799999237061</ele>
        <time>2023-08-08T04:47:08.000Z</time>
      </trkpt>
      <trkpt lat="50.83436" lon="2.52982">
        <ele>28.60000038147</ele>
        <time>2023-08-08T04:47:17.000Z</time>
      </trkpt>
      <trkpt lat="50.83466" lon="2.52922">
        <ele>28.39999961853</ele>
        <time>2023-08-08T04:47:25.000Z</time>
      </trkpt>
      <trkpt lat="50.83501" lon="2.5285">
        <ele>28.39999961853</ele>
        <time>2023-08-08T04:47:35.000Z</time>
      </trkpt>
      <trkpt lat="50.83535" lon="2.52782">
        <ele>29.799999237061</ele>
        <time>2023-08-08T04:47:45.000Z</time>
      </trkpt>
      <trkpt lat="50.83541" lon="2.52769">
        <ele>28.799999237061</ele>
        <time>2023-08-08T04:47:47.000Z</time>
      </trkpt>
      <trkpt lat="50.83574" lon="2.52702">
        <ele>29.60000038147</ele>
        <time>2023-08-08T04:47:57.000Z</time>
      </trkpt>
      <trkpt lat="50.83604" lon="2.52645">
        <ele>30.200000762939</ele>
        <time>2023-08-08T04:48:06.000Z</time>
      </trkpt>
      <trkpt lat="50.83639" lon="2.5258">
        <ele>31</ele>
        <time>2023-08-08T04:48:17.000Z</time>
      </trkpt>
      <trkpt lat="50.83649" lon="2.52563">
        <ele>31.200000762939</ele>
        <time>2023-08-08T04:48:20.000Z</time>
      </trkpt>
      <trkpt lat="50.83667" lon="2.52532">
        <ele>31.60000038147</ele>
        <time>2023-08-08T04:48:26.000Z</time>
      </trkpt>
      <trkpt lat="50.83686" lon="2.52494">
        <ele>32.200000762939</ele>
        <time>2023-08-08T04:48:33.000Z</time>
      </trkpt>
      <trkpt lat="50.83694" lon="2.52478">
        <ele>32.400001525879</ele>
        <time>2023-08-08T04:48:36.000Z</time>
      </trkpt>
      <trkpt lat="50.83713" lon="2.52437">
        <ele>33.400001525879</ele>
        <time>2023-08-08T04:48:43.000Z</time>
      </trkpt>
      <trkpt lat="50.83718" lon="2.52426">
        <ele>33.599998474121</ele>
        <time>2023-08-08T04:48:45.000Z</time>
      </trkpt>
      <trkpt lat="50.83739" lon="2.52381">
        <ele>34.400001525879</ele>
        <time>2023-08-08T04:48:53.000Z</time>
      </trkpt>
      <trkpt lat="50.8375" lon="2.52359">
        <ele>34.799999237061</ele>
        <time>2023-08-08T04:48:57.000Z</time>
      </trkpt>
      <trkpt lat="50.83769" lon="2.5232">
        <ele>35.599998474121</ele>
        <time>2023-08-08T04:49:04.000Z</time>
      </trkpt>
      <trkpt lat="50.83778" lon="2.52303">
        <ele>35.799999237061</ele>
        <time>2023-08-08T04:49:07.000Z</time>
      </trkpt>
      <trkpt lat="50.8381" lon="2.52247">
        <ele>36</ele>
        <time>2023-08-08T04:49:16.000Z</time>
      </trkpt>
      <trkpt lat="50.8384" lon="2.52193">
        <ele>35.200000762939</ele>
        <time>2023-08-08T04:49:24.000Z</time>
      </trkpt>
      <trkpt lat="50.8388" lon="2.52139">
        <ele>34.799999237061</ele>
        <time>2023-08-08T04:49:33.000Z</time>
      </trkpt>
      <trkpt lat="50.8389" lon="2.52129">
        <ele>34.599998474121</ele>
        <time>2023-08-08T04:49:35.000Z</time>
      </trkpt>
      <trkpt lat="50.83923" lon="2.52102">
        <ele>33.599998474121</ele>
        <time>2023-08-08T04:49:41.000Z</time>
      </trkpt>
      <trkpt lat="50.83935" lon="2.52093">
        <ele>33.400001525879</ele>
        <time>2023-08-08T04:49:43.000Z</time>
      </trkpt>
      <trkpt lat="50.83969" lon="2.52068">
        <ele>32.599998474121</ele>
        <time>2023-08-08T04:49:49.000Z</time>
      </trkpt>
      <trkpt lat="50.83982" lon="2.52059">
        <ele>32.200000762939</ele>
        <time>2023-08-08T04:49:51.000Z</time>
      </trkpt>
      <trkpt lat="50.84029" lon="2.52024">
        <ele>31.200000762939</ele>
        <time>2023-08-08T04:49:59.000Z</time>
      </trkpt>
      <trkpt lat="50.84035" lon="2.52019">
        <ele>31.200000762939</ele>
        <time>2023-08-08T04:50:00.000Z</time>
      </trkpt>
      <trkpt lat="50.84085" lon="2.51971">
        <ele>30.200000762939</ele>
        <time>2023-08-08T04:50:09.000Z</time>
      </trkpt>
      <trkpt lat="50.8409" lon="2.51964">
        <ele>30</ele>
        <time>2023-08-08T04:50:10.000Z</time>
      </trkpt>
      <trkpt lat="50.84138" lon="2.51906">
        <ele>29</ele>
        <time>2023-08-08T04:50:19.000Z</time>
      </trkpt>
      <trkpt lat="50.84144" lon="2.519">
        <ele>28.799999237061</ele>
        <time>2023-08-08T04:50:20.000Z</time>
      </trkpt>
      <trkpt lat="50.84173" lon="2.51871">
        <ele>27.799999237061</ele>
        <time>2023-08-08T04:50:25.000Z</time>
      </trkpt>
      <trkpt lat="50.84197" lon="2.51848">
        <ele>27.39999961853</ele>
        <time>2023-08-08T04:50:29.000Z</time>
      </trkpt>
      <trkpt lat="50.84228" lon="2.51821">
        <ele>26.799999237061</ele>
        <time>2023-08-08T04:50:34.000Z</time>
      </trkpt>
      <trkpt lat="50.84261" lon="2.51796">
        <ele>26</ele>
        <time>2023-08-08T04:50:39.000Z</time>
      </trkpt>
      <trkpt lat="50.84267" lon="2.5179">
        <ele>25.799999237061</ele>
        <time>2023-08-08T04:50:40.000Z</time>
      </trkpt>
      <trkpt lat="50.84308" lon="2.51759">
        <ele>24.60000038147</ele>
        <time>2023-08-08T04:50:46.000Z</time>
      </trkpt>
      <trkpt lat="50.84355" lon="2.51725">
        <ele>23.39999961853</ele>
        <time>2023-08-08T04:50:53.000Z</time>
      </trkpt>
      <trkpt lat="50.84375" lon="2.51711">
        <ele>23.200000762939</ele>
        <time>2023-08-08T04:50:56.000Z</time>
      </trkpt>
      <trkpt lat="50.84425" lon="2.51669">
        <ele>22.39999961853</ele>
        <time>2023-08-08T04:51:04.000Z</time>
      </trkpt>
      <trkpt lat="50.84472" lon="2.5162">
        <ele>21.799999237061</ele>
        <time>2023-08-08T04:51:12.000Z</time>
      </trkpt>
      <trkpt lat="50.84501" lon="2.51591">
        <ele>21.39999961853</ele>
        <time>2023-08-08T04:51:17.000Z</time>
      </trkpt>
      <trkpt lat="50.84507" lon="2.51585">
        <ele>21.39999961853</ele>
        <time>2023-08-08T04:51:18.000Z</time>
      </trkpt>
      <trkpt lat="50.8454" lon="2.51548">
        <ele>21</ele>
        <time>2023-08-08T04:51:24.000Z</time>
      </trkpt>
      <trkpt lat="50.84583" lon="2.51486">
        <ele>20.799999237061</ele>
        <time>2023-08-08T04:51:33.000Z</time>
      </trkpt>
      <trkpt lat="50.846" lon="2.51457">
        <ele>20.39999961853</ele>
        <time>2023-08-08T04:51:37.000Z</time>
      </trkpt>
      <trkpt lat="50.84637" lon="2.51397">
        <ele>20</ele>
        <time>2023-08-08T04:51:45.000Z</time>
      </trkpt>
      <trkpt lat="50.84681" lon="2.51338">
        <ele>19.200000762939</ele>
        <time>2023-08-08T04:51:54.000Z</time>
      </trkpt>
      <trkpt lat="50.8473" lon="2.51283">
        <ele>18.799999237061</ele>
        <time>2023-08-08T04:52:03.000Z</time>
      </trkpt>
      <trkpt lat="50.84739" lon="2.51272">
        <ele>18.799999237061</ele>
        <time>2023-08-08T04:52:05.000Z</time>
      </trkpt>
      <trkpt lat="50.84765" lon="2.51228">
        <ele>18.200000762939</ele>
        <time>2023-08-08T04:52:11.000Z</time>
      </trkpt>
      <trkpt lat="50.84797" lon="2.51153">
        <ele>18</ele>
        <time>2023-08-08T04:52:20.000Z</time>
      </trkpt>
      <trkpt lat="50.84801" lon="2.51145">
        <ele>18</ele>
        <time>2023-08-08T04:52:21.000Z</time>
      </trkpt>
      <trkpt lat="50.84834" lon="2.51069">
        <ele>17.60000038147</ele>
        <time>2023-08-08T04:52:30.000Z</time>
      </trkpt>
      <trkpt lat="50.84842" lon="2.51052">
        <ele>17.39999961853</ele>
        <time>2023-08-08T04:52:32.000Z</time>
      </trkpt>
      <trkpt lat="50.84857" lon="2.51019">
        <ele>17.200000762939</ele>
        <time>2023-08-08T04:52:36.000Z</time>
      </trkpt>
      <trkpt lat="50.84885" lon="2.50964">
        <ele>16.799999237061</ele>
        <time>2023-08-08T04:52:43.000Z</time>
      </trkpt>
      <trkpt lat="50.84915" lon="2.50924">
        <ele>16.200000762939</ele>
        <time>2023-08-08T04:52:49.000Z</time>
      </trkpt>
      <trkpt lat="50.84921" lon="2.50919">
        <ele>16</ele>
        <time>2023-08-08T04:52:50.000Z</time>
      </trkpt>
      <trkpt lat="50.84957" lon="2.50894">
        <ele>15.800000190735</ele>
        <time>2023-08-08T04:52:56.000Z</time>
      </trkpt>
      <trkpt lat="50.84999" lon="2.50864">
        <ele>15.60000038147</ele>
        <time>2023-08-08T04:53:03.000Z</time>
      </trkpt>
      <trkpt lat="50.85048" lon="2.50811">
        <ele>15.800000190735</ele>
        <time>2023-08-08T04:53:12.000Z</time>
      </trkpt>
      <trkpt lat="50.85083" lon="2.50768">
        <ele>15.60000038147</ele>
        <time>2023-08-08T04:53:19.000Z</time>
      </trkpt>
      <trkpt lat="50.85128" lon="2.50715">
        <ele>15.60000038147</ele>
        <time>2023-08-08T04:53:28.000Z</time>
      </trkpt>
      <trkpt lat="50.85138" lon="2.50703">
        <ele>15.60000038147</ele>
        <time>2023-08-08T04:53:30.000Z</time>
      </trkpt>
      <trkpt lat="50.85181" lon="2.50648">
        <ele>15.39999961853</ele>
        <time>2023-08-08T04:53:39.000Z</time>
      </trkpt>
      <trkpt lat="50.8522" lon="2.50582">
        <ele>15.39999961853</ele>
        <time>2023-08-08T04:53:48.000Z</time>
      </trkpt>
      <trkpt lat="50.85229" lon="2.50568">
        <ele>15.199999809265</ele>
        <time>2023-08-08T04:53:50.000Z</time>
      </trkpt>
      <trkpt lat="50.85265" lon="2.50503">
        <ele>15</ele>
        <time>2023-08-08T04:53:59.000Z</time>
      </trkpt>
      <trkpt lat="50.85279" lon="2.50481">
        <ele>15</ele>
        <time>2023-08-08T04:54:02.000Z</time>
      </trkpt>
      <trkpt lat="50.85292" lon="2.50459">
        <ele>15</ele>
        <time>2023-08-08T04:54:05.000Z</time>
      </trkpt>
      <trkpt lat="50.85325" lon="2.50416">
        <ele>14.800000190735</ele>
        <time>2023-08-08T04:54:12.000Z</time>
      </trkpt>
      <trkpt lat="50.8533" lon="2.50411">
        <ele>14.800000190735</ele>
        <time>2023-08-08T04:54:13.000Z</time>
      </trkpt>
      <trkpt lat="50.85378" lon="2.50366">
        <ele>14.60000038147</ele>
        <time>2023-08-08T04:54:22.000Z</time>
      </trkpt>
      <trkpt lat="50.85383" lon="2.50361">
        <ele>14.60000038147</ele>
        <time>2023-08-08T04:54:23.000Z</time>
      </trkpt>
      <trkpt lat="50.85431" lon="2.50311">
        <ele>14.39999961853</ele>
        <time>2023-08-08T04:54:32.000Z</time>
      </trkpt>
      <trkpt lat="50.85466" lon="2.50257">
        <ele>14.60000038147</ele>
        <time>2023-08-08T04:54:40.000Z</time>
      </trkpt>
      <trkpt lat="50.85497" lon="2.50192">
        <ele>14.800000190735</ele>
        <time>2023-08-08T04:54:48.000Z</time>
      </trkpt>
      <trkpt lat="50.85527" lon="2.50118">
        <ele>14.60000038147</ele>
        <time>2023-08-08T04:54:57.000Z</time>
      </trkpt>
      <trkpt lat="50.85532" lon="2.50103">
        <ele>14.60000038147</ele>
        <time>2023-08-08T04:54:59.000Z</time>
      </trkpt>
      <trkpt lat="50.85558" lon="2.50027">
        <ele>14.60000038147</ele>
        <time>2023-08-08T04:55:08.000Z</time>
      </trkpt>
      <trkpt lat="50.85561" lon="2.50019">
        <ele>14.60000038147</ele>
        <time>2023-08-08T04:55:09.000Z</time>
      </trkpt>
      <trkpt lat="50.85589" lon="2.49941">
        <ele>15.199999809265</ele>
        <time>2023-08-08T04:55:19.000Z</time>
      </trkpt>
      <trkpt lat="50.85617" lon="2.49872">
        <ele>15.39999961853</ele>
        <time>2023-08-08T04:55:28.000Z</time>
      </trkpt>
      <trkpt lat="50.85651" lon="2.49809">
        <ele>15.39999961853</ele>
        <time>2023-08-08T04:55:37.000Z</time>
      </trkpt>
      <trkpt lat="50.85688" lon="2.49744">
        <ele>15.39999961853</ele>
        <time>2023-08-08T04:55:47.000Z</time>
      </trkpt>
      <trkpt lat="50.85691" lon="2.49737">
        <ele>15.39999961853</ele>
        <time>2023-08-08T04:55:48.000Z</time>
      </trkpt>
      <trkpt lat="50.8572" lon="2.49681">
        <ele>15.60000038147</ele>
        <time>2023-08-08T04:55:56.000Z</time>
      </trkpt>
      <trkpt lat="50.85755" lon="2.49609">
        <ele>15.800000190735</ele>
        <time>2023-08-08T04:56:06.000Z</time>
      </trkpt>
      <trkpt lat="50.85792" lon="2.4954">
        <ele>15.60000038147</ele>
        <time>2023-08-08T04:56:16.000Z</time>
      </trkpt>
      <trkpt lat="50.858" lon="2.49526">
        <ele>15.60000038147</ele>
        <time>2023-08-08T04:56:18.000Z</time>
      </trkpt>
      <trkpt lat="50.85841" lon="2.49469">
        <ele>15.39999961853</ele>
        <time>2023-08-08T04:56:27.000Z</time>
      </trkpt>
      <trkpt lat="50.85884" lon="2.49416">
        <ele>15.199999809265</ele>
        <time>2023-08-08T04:56:36.000Z</time>
      </trkpt>
      <trkpt lat="50.85893" lon="2.49404">
        <ele>15</ele>
        <time>2023-08-08T04:56:38.000Z</time>
      </trkpt>
      <trkpt lat="50.8594" lon="2.49347">
        <ele>14.800000190735</ele>
        <time>2023-08-08T04:56:48.000Z</time>
      </trkpt>
      <trkpt lat="50.85982" lon="2.49293">
        <ele>14.60000038147</ele>
        <time>2023-08-08T04:56:57.000Z</time>
      </trkpt>
      <trkpt lat="50.86" lon="2.49268">
        <ele>14.60000038147</ele>
        <time>2023-08-08T04:57:01.000Z</time>
      </trkpt>
      <trkpt lat="50.86021" lon="2.49224">
        <ele>14.60000038147</ele>
        <time>2023-08-08T04:57:07.000Z</time>
      </trkpt>
      <trkpt lat="50.86035" lon="2.49168">
        <ele>14.800000190735</ele>
        <time>2023-08-08T04:57:14.000Z</time>
      </trkpt>
      <trkpt lat="50.86053" lon="2.49101">
        <ele>15</ele>
        <time>2023-08-08T04:57:22.000Z</time>
      </trkpt>
      <trkpt lat="50.86075" lon="2.49059">
        <ele>15</ele>
        <time>2023-08-08T04:57:28.000Z</time>
      </trkpt>
      <trkpt lat="50.86104" lon="2.49031">
        <ele>15.199999809265</ele>
        <time>2023-08-08T04:57:34.000Z</time>
      </trkpt>
      <trkpt lat="50.86144" lon="2.49012">
        <ele>15.199999809265</ele>
        <time>2023-08-08T04:57:41.000Z</time>
      </trkpt>
      <trkpt lat="50.86176" lon="2.48988">
        <ele>15</ele>
        <time>2023-08-08T04:57:47.000Z</time>
      </trkpt>
      <trkpt lat="50.86209" lon="2.4895">
        <ele>15</ele>
        <time>2023-08-08T04:57:54.000Z</time>
      </trkpt>
      <trkpt lat="50.86253" lon="2.48898">
        <ele>15.39999961853</ele>
        <time>2023-08-08T04:58:04.000Z</time>
      </trkpt>
      <trkpt lat="50.86263" lon="2.48888">
        <ele>15.39999961853</ele>
        <time>2023-08-08T04:58:06.000Z</time>
      </trkpt>
      <trkpt lat="50.86309" lon="2.48844">
        <ele>15.60000038147</ele>
        <time>2023-08-08T04:58:15.000Z</time>
      </trkpt>
      <trkpt lat="50.86358" lon="2.48803">
        <ele>15.39999961853</ele>
        <time>2023-08-08T04:58:24.000Z</time>
      </trkpt>
      <trkpt lat="50.86408" lon="2.48766">
        <ele>15</ele>
        <time>2023-08-08T04:58:33.000Z</time>
      </trkpt>
      <trkpt lat="50.86455" lon="2.48732">
        <ele>15</ele>
        <time>2023-08-08T04:58:41.000Z</time>
      </trkpt>
      <trkpt lat="50.86507" lon="2.48692">
        <ele>14.60000038147</ele>
        <time>2023-08-08T04:58:50.000Z</time>
      </trkpt>
      <trkpt lat="50.86517" lon="2.48685">
        <ele>14.39999961853</ele>
        <time>2023-08-08T04:58:52.000Z</time>
      </trkpt>
      <trkpt lat="50.86569" lon="2.48644">
        <ele>14.39999961853</ele>
        <time>2023-08-08T04:59:01.000Z</time>
      </trkpt>
      <trkpt lat="50.86574" lon="2.4864">
        <ele>14.39999961853</ele>
        <time>2023-08-08T04:59:02.000Z</time>
      </trkpt>
      <trkpt lat="50.86625" lon="2.48598">
        <ele>14.199999809265</ele>
        <time>2023-08-08T04:59:11.000Z</time>
      </trkpt>
      <trkpt lat="50.86644" lon="2.48583">
        <ele>14.199999809265</ele>
        <time>2023-08-08T04:59:14.000Z</time>
      </trkpt>
      <trkpt lat="50.86684" lon="2.4855">
        <ele>13.800000190735</ele>
        <time>2023-08-08T04:59:21.000Z</time>
      </trkpt>
      <trkpt lat="50.86706" lon="2.4853">
        <ele>13.60000038147</ele>
        <time>2023-08-08T04:59:25.000Z</time>
      </trkpt>
      <trkpt lat="50.86754" lon="2.48487">
        <ele>13.199999809265</ele>
        <time>2023-08-08T04:59:34.000Z</time>
      </trkpt>
      <trkpt lat="50.86761" lon="2.48481">
        <ele>13.199999809265</ele>
        <time>2023-08-08T04:59:35.000Z</time>
      </trkpt>
      <trkpt lat="50.8681" lon="2.48438">
        <ele>13</ele>
        <time>2023-08-08T04:59:44.000Z</time>
      </trkpt>
      <trkpt lat="50.86821" lon="2.48428">
        <ele>13</ele>
        <time>2023-08-08T04:59:46.000Z</time>
      </trkpt>
      <trkpt lat="50.86837" lon="2.48411">
        <ele>12.800000190735</ele>
        <time>2023-08-08T04:59:49.000Z</time>
      </trkpt>
      <trkpt lat="50.86874" lon="2.4837">
        <ele>12.39999961853</ele>
        <time>2023-08-08T04:59:56.000Z</time>
      </trkpt>
      <trkpt lat="50.86923" lon="2.48318">
        <ele>11.800000190735</ele>
        <time>2023-08-08T05:00:05.000Z</time>
      </trkpt>
      <trkpt lat="50.86967" lon="2.4827">
        <ele>11.60000038147</ele>
        <time>2023-08-08T05:00:14.000Z</time>
      </trkpt>
      <trkpt lat="50.87011" lon="2.48211">
        <ele>11.800000190735</ele>
        <time>2023-08-08T05:00:24.000Z</time>
      </trkpt>
      <trkpt lat="50.8702" lon="2.48196">
        <ele>11.800000190735</ele>
        <time>2023-08-08T05:00:26.000Z</time>
      </trkpt>
      <trkpt lat="50.87058" lon="2.48134">
        <ele>11.800000190735</ele>
        <time>2023-08-08T05:00:35.000Z</time>
      </trkpt>
      <trkpt lat="50.87063" lon="2.48127">
        <ele>11.800000190735</ele>
        <time>2023-08-08T05:00:36.000Z</time>
      </trkpt>
      <trkpt lat="50.87101" lon="2.48064">
        <ele>11.60000038147</ele>
        <time>2023-08-08T05:00:45.000Z</time>
      </trkpt>
      <trkpt lat="50.87113" lon="2.48043">
        <ele>11.60000038147</ele>
        <time>2023-08-08T05:00:48.000Z</time>
      </trkpt>
      <trkpt lat="50.87153" lon="2.47975">
        <ele>11.39999961853</ele>
        <time>2023-08-08T05:00:58.000Z</time>
      </trkpt>
      <trkpt lat="50.87165" lon="2.47955">
        <ele>11.60000038147</ele>
        <time>2023-08-08T05:01:01.000Z</time>
      </trkpt>
      <trkpt lat="50.87204" lon="2.47888">
        <ele>11.800000190735</ele>
        <time>2023-08-08T05:01:11.000Z</time>
      </trkpt>
      <trkpt lat="50.87238" lon="2.47826">
        <ele>12.39999961853</ele>
        <time>2023-08-08T05:01:20.000Z</time>
      </trkpt>
      <trkpt lat="50.87273" lon="2.47768">
        <ele>12.60000038147</ele>
        <time>2023-08-08T05:01:29.000Z</time>
      </trkpt>
      <trkpt lat="50.87302" lon="2.47729">
        <ele>13</ele>
        <time>2023-08-08T05:01:36.000Z</time>
      </trkpt>
      <trkpt lat="50.87316" lon="2.47714">
        <ele>13</ele>
        <time>2023-08-08T05:01:39.000Z</time>
      </trkpt>
      <trkpt lat="50.87363" lon="2.47663">
        <ele>13.60000038147</ele>
        <time>2023-08-08T05:01:49.000Z</time>
      </trkpt>
      <trkpt lat="50.87377" lon="2.47647">
        <ele>13.800000190735</ele>
        <time>2023-08-08T05:01:52.000Z</time>
      </trkpt>
      <trkpt lat="50.87386" lon="2.47635">
        <ele>13.800000190735</ele>
        <time>2023-08-08T05:01:54.000Z</time>
      </trkpt>
      <trkpt lat="50.87416" lon="2.47594">
        <ele>14.39999961853</ele>
        <time>2023-08-08T05:02:01.000Z</time>
      </trkpt>
      <trkpt lat="50.87456" lon="2.47532">
        <ele>14</ele>
        <time>2023-08-08T05:02:11.000Z</time>
      </trkpt>
      <trkpt lat="50.87465" lon="2.4752">
        <ele>14</ele>
        <time>2023-08-08T05:02:13.000Z</time>
      </trkpt>
      <trkpt lat="50.87511" lon="2.4746">
        <ele>13.60000038147</ele>
        <time>2023-08-08T05:02:23.000Z</time>
      </trkpt>
      <trkpt lat="50.87516" lon="2.47455">
        <ele>13.60000038147</ele>
        <time>2023-08-08T05:02:24.000Z</time>
      </trkpt>
      <trkpt lat="50.87561" lon="2.47403">
        <ele>13.199999809265</ele>
        <time>2023-08-08T05:02:33.000Z</time>
      </trkpt>
      <trkpt lat="50.87582" lon="2.47383">
        <ele>12.800000190735</ele>
        <time>2023-08-08T05:02:37.000Z</time>
      </trkpt>
      <trkpt lat="50.8761" lon="2.47361">
        <ele>12.199999809265</ele>
        <time>2023-08-08T05:02:42.000Z</time>
      </trkpt>
      <trkpt lat="50.87658" lon="2.47339">
        <ele>12.199999809265</ele>
        <time>2023-08-08T05:02:50.000Z</time>
      </trkpt>
      <trkpt lat="50.87706" lon="2.47333">
        <ele>12</ele>
        <time>2023-08-08T05:02:58.000Z</time>
      </trkpt>
      <trkpt lat="50.87755" lon="2.47333">
        <ele>12</ele>
        <time>2023-08-08T05:03:06.000Z</time>
      </trkpt>
      <trkpt lat="50.87771" lon="2.47337">
        <ele>12</ele>
        <time>2023-08-08T05:03:09.000Z</time>
      </trkpt>
      <trkpt lat="50.87788" lon="2.47343">
        <ele>12</ele>
        <time>2023-08-08T05:03:12.000Z</time>
      </trkpt>
      <trkpt lat="50.87831" lon="2.47367">
        <ele>12.199999809265</ele>
        <time>2023-08-08T05:03:20.000Z</time>
      </trkpt>
      <trkpt lat="50.87868" lon="2.47391">
        <ele>12.199999809265</ele>
        <time>2023-08-08T05:03:27.000Z</time>
      </trkpt>
      <trkpt lat="50.87874" lon="2.47392">
        <ele>12.39999961853</ele>
        <time>2023-08-08T05:03:28.000Z</time>
      </trkpt>
      <trkpt lat="50.8788" lon="2.47392">
        <ele>12.39999961853</ele>
        <time>2023-08-08T05:03:29.000Z</time>
      </trkpt>
      <trkpt lat="50.8789" lon="2.47387">
        <ele>12.39999961853</ele>
        <time>2023-08-08T05:03:31.000Z</time>
      </trkpt>
      <trkpt lat="50.87895" lon="2.47383">
        <ele>12.39999961853</ele>
        <time>2023-08-08T05:03:32.000Z</time>
      </trkpt>
      <trkpt lat="50.87928" lon="2.47351">
        <ele>12.199999809265</ele>
        <time>2023-08-08T05:03:38.000Z</time>
      </trkpt>
      <trkpt lat="50.87933" lon="2.47347">
        <ele>12.199999809265</ele>
        <time>2023-08-08T05:03:39.000Z</time>
      </trkpt>
      <trkpt lat="50.87939" lon="2.47344">
        <ele>12</ele>
        <time>2023-08-08T05:03:40.000Z</time>
      </trkpt>
      <trkpt lat="50.87951" lon="2.47344">
        <ele>12</ele>
        <time>2023-08-08T05:03:42.000Z</time>
      </trkpt>
      <trkpt lat="50.87957" lon="2.47347">
        <ele>12</ele>
        <time>2023-08-08T05:03:43.000Z</time>
      </trkpt>
      <trkpt lat="50.88006" lon="2.4738">
        <ele>12</ele>
        <time>2023-08-08T05:03:52.000Z</time>
      </trkpt>
      <trkpt lat="50.88043" lon="2.47404">
        <ele>12.39999961853</ele>
        <time>2023-08-08T05:03:59.000Z</time>
      </trkpt>
      <trkpt lat="50.88049" lon="2.47407">
        <ele>12.39999961853</ele>
        <time>2023-08-08T05:04:00.000Z</time>
      </trkpt>
      <trkpt lat="50.88054" lon="2.47408">
        <ele>12.39999961853</ele>
        <time>2023-08-08T05:04:01.000Z</time>
      </trkpt>
      <trkpt lat="50.88066" lon="2.47406">
        <ele>12.39999961853</ele>
        <time>2023-08-08T05:04:03.000Z</time>
      </trkpt>
      <trkpt lat="50.8807" lon="2.47404">
        <ele>12.60000038147</ele>
        <time>2023-08-08T05:04:04.000Z</time>
      </trkpt>
      <trkpt lat="50.88077" lon="2.474">
        <ele>12.60000038147</ele>
        <time>2023-08-08T05:04:05.000Z</time>
      </trkpt>
      <trkpt lat="50.88086" lon="2.47389">
        <ele>12.60000038147</ele>
        <time>2023-08-08T05:04:07.000Z</time>
      </trkpt>
      <trkpt lat="50.8809" lon="2.47383">
        <ele>12.60000038147</ele>
        <time>2023-08-08T05:04:08.000Z</time>
      </trkpt>
      <trkpt lat="50.88094" lon="2.47376">
        <ele>12.60000038147</ele>
        <time>2023-08-08T05:04:09.000Z</time>
      </trkpt>
      <trkpt lat="50.88106" lon="2.47344">
        <ele>12.60000038147</ele>
        <time>2023-08-08T05:04:13.000Z</time>
      </trkpt>
      <trkpt lat="50.88131" lon="2.47269">
        <ele>12.39999961853</ele>
        <time>2023-08-08T05:04:22.000Z</time>
      </trkpt>
      <trkpt lat="50.88155" lon="2.47188">
        <ele>12</ele>
        <time>2023-08-08T05:04:32.000Z</time>
      </trkpt>
      <trkpt lat="50.88163" lon="2.47171">
        <ele>11.800000190735</ele>
        <time>2023-08-08T05:04:34.000Z</time>
      </trkpt>
      <trkpt lat="50.88166" lon="2.47163">
        <ele>11.800000190735</ele>
        <time>2023-08-08T05:04:35.000Z</time>
      </trkpt>
      <trkpt lat="50.88189" lon="2.47131">
        <ele>11.60000038147</ele>
        <time>2023-08-08T05:04:40.000Z</time>
      </trkpt>
      <trkpt lat="50.88198" lon="2.47123">
        <ele>11.39999961853</ele>
        <time>2023-08-08T05:04:42.000Z</time>
      </trkpt>
      <trkpt lat="50.88205" lon="2.47123">
        <ele>11.39999961853</ele>
        <time>2023-08-08T05:04:43.000Z</time>
      </trkpt>
      <trkpt lat="50.88216" lon="2.47125">
        <ele>11</ele>
        <time>2023-08-08T05:04:45.000Z</time>
      </trkpt>
      <trkpt lat="50.88225" lon="2.47118">
        <ele>10.60000038147</ele>
        <time>2023-08-08T05:04:47.000Z</time>
      </trkpt>
      <trkpt lat="50.88228" lon="2.47103">
        <ele>10.39999961853</ele>
        <time>2023-08-08T05:04:49.000Z</time>
      </trkpt>
      <trkpt lat="50.88229" lon="2.47094">
        <ele>10.39999961853</ele>
        <time>2023-08-08T05:04:50.000Z</time>
      </trkpt>
      <trkpt lat="50.88232" lon="2.47086">
        <ele>10.39999961853</ele>
        <time>2023-08-08T05:04:51.000Z</time>
      </trkpt>
      <trkpt lat="50.88242" lon="2.47065">
        <ele>10.199999809265</ele>
        <time>2023-08-08T05:04:54.000Z</time>
      </trkpt>
      <trkpt lat="50.8826" lon="2.47029">
        <ele>10</ele>
        <time>2023-08-08T05:04:59.000Z</time>
      </trkpt>
      <trkpt lat="50.88272" lon="2.4701">
        <ele>9.8000001907349</ele>
        <time>2023-08-08T05:05:02.000Z</time>
      </trkpt>
      <trkpt lat="50.88299" lon="2.46966">
        <ele>9.6000003814697</ele>
        <time>2023-08-08T05:05:09.000Z</time>
      </trkpt>
      <trkpt lat="50.88302" lon="2.4696">
        <ele>9.6000003814697</ele>
        <time>2023-08-08T05:05:10.000Z</time>
      </trkpt>
      <trkpt lat="50.88309" lon="2.46941">
        <ele>9.6000003814697</ele>
        <time>2023-08-08T05:05:13.000Z</time>
      </trkpt>
      <trkpt lat="50.88318" lon="2.46917">
        <ele>9.8000001907349</ele>
        <time>2023-08-08T05:05:17.000Z</time>
      </trkpt>
      <trkpt lat="50.88322" lon="2.46906">
        <ele>9.8000001907349</ele>
        <time>2023-08-08T05:05:19.000Z</time>
      </trkpt>
      <trkpt lat="50.88332" lon="2.4688">
        <ele>10.199999809265</ele>
        <time>2023-08-08T05:05:24.000Z</time>
      </trkpt>
      <trkpt lat="50.88341" lon="2.46848">
        <ele>10.60000038147</ele>
        <time>2023-08-08T05:05:29.000Z</time>
      </trkpt>
      <trkpt lat="50.88342" lon="2.46841">
        <ele>10.800000190735</ele>
        <time>2023-08-08T05:05:30.000Z</time>
      </trkpt>
      <trkpt lat="50.88344" lon="2.46827">
        <ele>10.800000190735</ele>
        <time>2023-08-08T05:05:32.000Z</time>
      </trkpt>
      <trkpt lat="50.88349" lon="2.46816">
        <ele>11</ele>
        <time>2023-08-08T05:05:34.000Z</time>
      </trkpt>
      <trkpt lat="50.88376" lon="2.46768">
        <ele>11.60000038147</ele>
        <time>2023-08-08T05:05:42.000Z</time>
      </trkpt>
      <trkpt lat="50.88383" lon="2.46756">
        <ele>11.800000190735</ele>
        <time>2023-08-08T05:05:44.000Z</time>
      </trkpt>
      <trkpt lat="50.88398" lon="2.46736">
        <ele>12.199999809265</ele>
        <time>2023-08-08T05:05:48.000Z</time>
      </trkpt>
      <trkpt lat="50.88417" lon="2.46714">
        <ele>12.39999961853</ele>
        <time>2023-08-08T05:05:53.000Z</time>
      </trkpt>
      <trkpt lat="50.88427" lon="2.46709">
        <ele>12.60000038147</ele>
        <time>2023-08-08T05:05:55.000Z</time>
      </trkpt>
      <trkpt lat="50.88435" lon="2.46704">
        <ele>12.60000038147</ele>
        <time>2023-08-08T05:05:57.000Z</time>
      </trkpt>
      <trkpt lat="50.88469" lon="2.46687">
        <ele>13</ele>
        <time>2023-08-08T05:06:04.000Z</time>
      </trkpt>
      <trkpt lat="50.88513" lon="2.46664">
        <ele>13.199999809265</ele>
        <time>2023-08-08T05:06:13.000Z</time>
      </trkpt>
      <trkpt lat="50.88537" lon="2.46651">
        <ele>13.39999961853</ele>
        <time>2023-08-08T05:06:18.000Z</time>
      </trkpt>
      <trkpt lat="50.88548" lon="2.46646">
        <ele>13.60000038147</ele>
        <time>2023-08-08T05:06:20.000Z</time>
      </trkpt>
      <trkpt lat="50.88558" lon="2.46642">
        <ele>13.60000038147</ele>
        <time>2023-08-08T05:06:22.000Z</time>
      </trkpt>
      <trkpt lat="50.88583" lon="2.46629">
        <ele>14</ele>
        <time>2023-08-08T05:06:27.000Z</time>
      </trkpt>
      <trkpt lat="50.88624" lon="2.46604">
        <ele>14.199999809265</ele>
        <time>2023-08-08T05:06:35.000Z</time>
      </trkpt>
      <trkpt lat="50.88677" lon="2.46575">
        <ele>14.199999809265</ele>
        <time>2023-08-08T05:06:45.000Z</time>
      </trkpt>
      <trkpt lat="50.88682" lon="2.46572">
        <ele>14.199999809265</ele>
        <time>2023-08-08T05:06:46.000Z</time>
      </trkpt>
      <trkpt lat="50.88735" lon="2.46542">
        <ele>14.199999809265</ele>
        <time>2023-08-08T05:06:56.000Z</time>
      </trkpt>
      <trkpt lat="50.88771" lon="2.46521">
        <ele>14.39999961853</ele>
        <time>2023-08-08T05:07:03.000Z</time>
      </trkpt>
      <trkpt lat="50.88776" lon="2.46519">
        <ele>14.39999961853</ele>
        <time>2023-08-08T05:07:04.000Z</time>
      </trkpt>
      <trkpt lat="50.88824" lon="2.46492">
        <ele>14.60000038147</ele>
        <time>2023-08-08T05:07:13.000Z</time>
      </trkpt>
      <trkpt lat="50.88857" lon="2.46474">
        <ele>14.60000038147</ele>
        <time>2023-08-08T05:07:19.000Z</time>
      </trkpt>
      <trkpt lat="50.88874" lon="2.46465">
        <ele>14.60000038147</ele>
        <time>2023-08-08T05:07:22.000Z</time>
      </trkpt>
      <trkpt lat="50.88915" lon="2.46442">
        <ele>14.199999809265</ele>
        <time>2023-08-08T05:07:29.000Z</time>
      </trkpt>
      <trkpt lat="50.88968" lon="2.46412">
        <ele>14.199999809265</ele>
        <time>2023-08-08T05:07:38.000Z</time>
      </trkpt>
      <trkpt lat="50.89021" lon="2.46384">
        <ele>14</ele>
        <time>2023-08-08T05:07:47.000Z</time>
      </trkpt>
      <trkpt lat="50.89074" lon="2.46356">
        <ele>13.60000038147</ele>
        <time>2023-08-08T05:07:56.000Z</time>
      </trkpt>
      <trkpt lat="50.8908" lon="2.46353">
        <ele>13.39999961853</ele>
        <time>2023-08-08T05:07:57.000Z</time>
      </trkpt>
      <trkpt lat="50.89122" lon="2.46329">
        <ele>13.199999809265</ele>
        <time>2023-08-08T05:08:04.000Z</time>
      </trkpt>
      <trkpt lat="50.89175" lon="2.46296">
        <ele>12.800000190735</ele>
        <time>2023-08-08T05:08:13.000Z</time>
      </trkpt>
      <trkpt lat="50.89228" lon="2.46265">
        <ele>12.60000038147</ele>
        <time>2023-08-08T05:08:22.000Z</time>
      </trkpt>
      <trkpt lat="50.89235" lon="2.46261">
        <ele>12.60000038147</ele>
        <time>2023-08-08T05:08:23.000Z</time>
      </trkpt>
      <trkpt lat="50.89288" lon="2.46229">
        <ele>12.39999961853</ele>
        <time>2023-08-08T05:08:32.000Z</time>
      </trkpt>
      <trkpt lat="50.89294" lon="2.46226">
        <ele>12.39999961853</ele>
        <time>2023-08-08T05:08:33.000Z</time>
      </trkpt>
      <trkpt lat="50.893" lon="2.46222">
        <ele>12.39999961853</ele>
        <time>2023-08-08T05:08:34.000Z</time>
      </trkpt>
      <trkpt lat="50.89351" lon="2.46194">
        <ele>12.199999809265</ele>
        <time>2023-08-08T05:08:43.000Z</time>
      </trkpt>
      <trkpt lat="50.89404" lon="2.46165">
        <ele>12.39999961853</ele>
        <time>2023-08-08T05:08:52.000Z</time>
      </trkpt>
      <trkpt lat="50.89432" lon="2.46149">
        <ele>12.60000038147</ele>
        <time>2023-08-08T05:08:57.000Z</time>
      </trkpt>
      <trkpt lat="50.89488" lon="2.46117">
        <ele>12.60000038147</ele>
        <time>2023-08-08T05:09:07.000Z</time>
      </trkpt>
      <trkpt lat="50.895" lon="2.46111">
        <ele>12.60000038147</ele>
        <time>2023-08-08T05:09:09.000Z</time>
      </trkpt>
      <trkpt lat="50.89556" lon="2.4608">
        <ele>12.39999961853</ele>
        <time>2023-08-08T05:09:19.000Z</time>
      </trkpt>
      <trkpt lat="50.89567" lon="2.46074">
        <ele>12.39999961853</ele>
        <time>2023-08-08T05:09:21.000Z</time>
      </trkpt>
      <trkpt lat="50.89624" lon="2.46045">
        <ele>12.39999961853</ele>
        <time>2023-08-08T05:09:31.000Z</time>
      </trkpt>
      <trkpt lat="50.89629" lon="2.46042">
        <ele>12.39999961853</ele>
        <time>2023-08-08T05:09:32.000Z</time>
      </trkpt>
      <trkpt lat="50.89669" lon="2.46022">
        <ele>12.60000038147</ele>
        <time>2023-08-08T05:09:39.000Z</time>
      </trkpt>
      <trkpt lat="50.89703" lon="2.46003">
        <ele>12.800000190735</ele>
        <time>2023-08-08T05:09:45.000Z</time>
      </trkpt>
      <trkpt lat="50.89757" lon="2.45972">
        <ele>12.39999961853</ele>
        <time>2023-08-08T05:09:54.000Z</time>
      </trkpt>
      <trkpt lat="50.89763" lon="2.45969">
        <ele>12</ele>
        <time>2023-08-08T05:09:55.000Z</time>
      </trkpt>
      <trkpt lat="50.89814" lon="2.45939">
        <ele>11.60000038147</ele>
        <time>2023-08-08T05:10:03.000Z</time>
      </trkpt>
      <trkpt lat="50.8984" lon="2.45924">
        <ele>11.39999961853</ele>
        <time>2023-08-08T05:10:07.000Z</time>
      </trkpt>
      <trkpt lat="50.89873" lon="2.45905">
        <ele>11</ele>
        <time>2023-08-08T05:10:12.000Z</time>
      </trkpt>
      <trkpt lat="50.89921" lon="2.45879">
        <ele>11</ele>
        <time>2023-08-08T05:10:19.000Z</time>
      </trkpt>
      <trkpt lat="50.89975" lon="2.45849">
        <ele>10.199999809265</ele>
        <time>2023-08-08T05:10:27.000Z</time>
      </trkpt>
      <trkpt lat="50.89988" lon="2.45842">
        <ele>9.8000001907349</ele>
        <time>2023-08-08T05:10:29.000Z</time>
      </trkpt>
      <trkpt lat="50.90039" lon="2.45814">
        <ele>9.3999996185303</ele>
        <time>2023-08-08T05:10:37.000Z</time>
      </trkpt>
      <trkpt lat="50.90045" lon="2.45811">
        <ele>9.3999996185303</ele>
        <time>2023-08-08T05:10:38.000Z</time>
      </trkpt>
      <trkpt lat="50.90095" lon="2.45783">
        <ele>10.199999809265</ele>
        <time>2023-08-08T05:10:47.000Z</time>
      </trkpt>
      <trkpt lat="50.90147" lon="2.45754">
        <ele>10.800000190735</ele>
        <time>2023-08-08T05:10:57.000Z</time>
      </trkpt>
      <trkpt lat="50.90152" lon="2.45751">
        <ele>11</ele>
        <time>2023-08-08T05:10:58.000Z</time>
      </trkpt>
      <trkpt lat="50.90167" lon="2.45742">
        <ele>11.199999809265</ele>
        <time>2023-08-08T05:11:01.000Z</time>
      </trkpt>
      <trkpt lat="50.90202" lon="2.45723">
        <ele>12</ele>
        <time>2023-08-08T05:11:08.000Z</time>
      </trkpt>
      <trkpt lat="50.90221" lon="2.45712">
        <ele>12.39999961853</ele>
        <time>2023-08-08T05:11:12.000Z</time>
      </trkpt>
      <trkpt lat="50.90255" lon="2.45693">
        <ele>13</ele>
        <time>2023-08-08T05:11:19.000Z</time>
      </trkpt>
      <trkpt lat="50.90275" lon="2.45682">
        <ele>13.39999961853</ele>
        <time>2023-08-08T05:11:23.000Z</time>
      </trkpt>
      <trkpt lat="50.90291" lon="2.45675">
        <ele>13.800000190735</ele>
        <time>2023-08-08T05:11:26.000Z</time>
      </trkpt>
      <trkpt lat="50.9032" lon="2.4566">
        <ele>14.60000038147</ele>
        <time>2023-08-08T05:11:32.000Z</time>
      </trkpt>
      <trkpt lat="50.90334" lon="2.45651">
        <ele>14.800000190735</ele>
        <time>2023-08-08T05:11:35.000Z</time>
      </trkpt>
      <trkpt lat="50.90388" lon="2.45622">
        <ele>15.39999961853</ele>
        <time>2023-08-08T05:11:46.000Z</time>
      </trkpt>
      <trkpt lat="50.90394" lon="2.45619">
        <ele>15.60000038147</ele>
        <time>2023-08-08T05:11:47.000Z</time>
      </trkpt>
      <trkpt lat="50.90399" lon="2.45615">
        <ele>15.60000038147</ele>
        <time>2023-08-08T05:11:48.000Z</time>
      </trkpt>
      <trkpt lat="50.90448" lon="2.45587">
        <ele>15.800000190735</ele>
        <time>2023-08-08T05:11:57.000Z</time>
      </trkpt>
      <trkpt lat="50.90501" lon="2.45559">
        <ele>15.60000038147</ele>
        <time>2023-08-08T05:12:06.000Z</time>
      </trkpt>
      <trkpt lat="50.90518" lon="2.4555">
        <ele>15.800000190735</ele>
        <time>2023-08-08T05:12:09.000Z</time>
      </trkpt>
      <trkpt lat="50.90569" lon="2.4552">
        <ele>16</ele>
        <time>2023-08-08T05:12:18.000Z</time>
      </trkpt>
      <trkpt lat="50.90586" lon="2.45511">
        <ele>16</ele>
        <time>2023-08-08T05:12:21.000Z</time>
      </trkpt>
      <trkpt lat="50.90639" lon="2.45481">
        <ele>16</ele>
        <time>2023-08-08T05:12:30.000Z</time>
      </trkpt>
      <trkpt lat="50.90651" lon="2.45474">
        <ele>15.800000190735</ele>
        <time>2023-08-08T05:12:32.000Z</time>
      </trkpt>
      <trkpt lat="50.90706" lon="2.45444">
        <ele>15.800000190735</ele>
        <time>2023-08-08T05:12:41.000Z</time>
      </trkpt>
      <trkpt lat="50.90724" lon="2.45434">
        <ele>15.800000190735</ele>
        <time>2023-08-08T05:12:44.000Z</time>
      </trkpt>
      <trkpt lat="50.90779" lon="2.45404">
        <ele>15.800000190735</ele>
        <time>2023-08-08T05:12:53.000Z</time>
      </trkpt>
      <trkpt lat="50.90798" lon="2.45393">
        <ele>15.800000190735</ele>
        <time>2023-08-08T05:12:56.000Z</time>
      </trkpt>
      <trkpt lat="50.90852" lon="2.45363">
        <ele>15.800000190735</ele>
        <time>2023-08-08T05:13:05.000Z</time>
      </trkpt>
      <trkpt lat="50.90864" lon="2.45356">
        <ele>15.800000190735</ele>
        <time>2023-08-08T05:13:07.000Z</time>
      </trkpt>
      <trkpt lat="50.9092" lon="2.45326">
        <ele>15.800000190735</ele>
        <time>2023-08-08T05:13:16.000Z</time>
      </trkpt>
      <trkpt lat="50.90932" lon="2.45319">
        <ele>15.800000190735</ele>
        <time>2023-08-08T05:13:18.000Z</time>
      </trkpt>
      <trkpt lat="50.90986" lon="2.4529">
        <ele>16</ele>
        <time>2023-08-08T05:13:27.000Z</time>
      </trkpt>
      <trkpt lat="50.90997" lon="2.45283">
        <ele>16</ele>
        <time>2023-08-08T05:13:29.000Z</time>
      </trkpt>
      <trkpt lat="50.91052" lon="2.45252">
        <ele>15.800000190735</ele>
        <time>2023-08-08T05:13:38.000Z</time>
      </trkpt>
      <trkpt lat="50.91064" lon="2.45245">
        <ele>15.800000190735</ele>
        <time>2023-08-08T05:13:40.000Z</time>
      </trkpt>
      <trkpt lat="50.91118" lon="2.45217">
        <ele>15.60000038147</ele>
        <time>2023-08-08T05:13:49.000Z</time>
      </trkpt>
      <trkpt lat="50.91146" lon="2.45201">
        <ele>15.60000038147</ele>
        <time>2023-08-08T05:13:54.000Z</time>
      </trkpt>
      <trkpt lat="50.91199" lon="2.45171">
        <ele>16.200000762939</ele>
        <time>2023-08-08T05:14:03.000Z</time>
      </trkpt>
      <trkpt lat="50.9121" lon="2.45165">
        <ele>16.200000762939</ele>
        <time>2023-08-08T05:14:05.000Z</time>
      </trkpt>
      <trkpt lat="50.91262" lon="2.45136">
        <ele>16.39999961853</ele>
        <time>2023-08-08T05:14:14.000Z</time>
      </trkpt>
      <trkpt lat="50.91286" lon="2.45122">
        <ele>16.60000038147</ele>
        <time>2023-08-08T05:14:18.000Z</time>
      </trkpt>
      <trkpt lat="50.91292" lon="2.45119">
        <ele>16.60000038147</ele>
        <time>2023-08-08T05:14:19.000Z</time>
      </trkpt>
      <trkpt lat="50.91344" lon="2.45091">
        <ele>17</ele>
        <time>2023-08-08T05:14:28.000Z</time>
      </trkpt>
      <trkpt lat="50.91396" lon="2.45062">
        <ele>17.60000038147</ele>
        <time>2023-08-08T05:14:37.000Z</time>
      </trkpt>
      <trkpt lat="50.91407" lon="2.45056">
        <ele>17.60000038147</ele>
        <time>2023-08-08T05:14:39.000Z</time>
      </trkpt>
      <trkpt lat="50.91413" lon="2.45053">
        <ele>17.60000038147</ele>
        <time>2023-08-08T05:14:40.000Z</time>
      </trkpt>
      <trkpt lat="50.91458" lon="2.45027">
        <ele>17.799999237061</ele>
        <time>2023-08-08T05:14:48.000Z</time>
      </trkpt>
      <trkpt lat="50.91475" lon="2.45018">
        <ele>18</ele>
        <time>2023-08-08T05:14:51.000Z</time>
      </trkpt>
      <trkpt lat="50.91526" lon="2.44989">
        <ele>18.60000038147</ele>
        <time>2023-08-08T05:15:00.000Z</time>
      </trkpt>
      <trkpt lat="50.91532" lon="2.44986">
        <ele>18.60000038147</ele>
        <time>2023-08-08T05:15:01.000Z</time>
      </trkpt>
      <trkpt lat="50.91543" lon="2.4498">
        <ele>18.60000038147</ele>
        <time>2023-08-08T05:15:03.000Z</time>
      </trkpt>
      <trkpt lat="50.91597" lon="2.44949">
        <ele>18.799999237061</ele>
        <time>2023-08-08T05:15:13.000Z</time>
      </trkpt>
      <trkpt lat="50.91603" lon="2.44946">
        <ele>19</ele>
        <time>2023-08-08T05:15:14.000Z</time>
      </trkpt>
      <trkpt lat="50.91656" lon="2.44917">
        <ele>19.200000762939</ele>
        <time>2023-08-08T05:15:23.000Z</time>
      </trkpt>
      <trkpt lat="50.91673" lon="2.44908">
        <ele>19.39999961853</ele>
        <time>2023-08-08T05:15:26.000Z</time>
      </trkpt>
      <trkpt lat="50.91683" lon="2.44902">
        <ele>19.60000038147</ele>
        <time>2023-08-08T05:15:28.000Z</time>
      </trkpt>
      <trkpt lat="50.91727" lon="2.44877">
        <ele>20</ele>
        <time>2023-08-08T05:15:36.000Z</time>
      </trkpt>
      <trkpt lat="50.91783" lon="2.44847">
        <ele>20.60000038147</ele>
        <time>2023-08-08T05:15:46.000Z</time>
      </trkpt>
      <trkpt lat="50.91789" lon="2.44843">
        <ele>20.60000038147</ele>
        <time>2023-08-08T05:15:47.000Z</time>
      </trkpt>
      <trkpt lat="50.91795" lon="2.44839">
        <ele>20.799999237061</ele>
        <time>2023-08-08T05:15:48.000Z</time>
      </trkpt>
      <trkpt lat="50.91851" lon="2.44808">
        <ele>21.200000762939</ele>
        <time>2023-08-08T05:15:58.000Z</time>
      </trkpt>
      <trkpt lat="50.91907" lon="2.44776">
        <ele>21.60000038147</ele>
        <time>2023-08-08T05:16:08.000Z</time>
      </trkpt>
      <trkpt lat="50.91928" lon="2.44764">
        <ele>21.799999237061</ele>
        <time>2023-08-08T05:16:12.000Z</time>
      </trkpt>
      <trkpt lat="50.91949" lon="2.44753">
        <ele>22</ele>
        <time>2023-08-08T05:16:16.000Z</time>
      </trkpt>
      <trkpt lat="50.92004" lon="2.44723">
        <ele>22.799999237061</ele>
        <time>2023-08-08T05:16:26.000Z</time>
      </trkpt>
      <trkpt lat="50.9201" lon="2.4472">
        <ele>23</ele>
        <time>2023-08-08T05:16:27.000Z</time>
      </trkpt>
      <trkpt lat="50.92065" lon="2.44689">
        <ele>23.60000038147</ele>
        <time>2023-08-08T05:16:37.000Z</time>
      </trkpt>
      <trkpt lat="50.92075" lon="2.44683">
        <ele>23.60000038147</ele>
        <time>2023-08-08T05:16:39.000Z</time>
      </trkpt>
      <trkpt lat="50.92088" lon="2.44676">
        <ele>23.60000038147</ele>
        <time>2023-08-08T05:16:41.000Z</time>
      </trkpt>
      <trkpt lat="50.92141" lon="2.44647">
        <ele>24</ele>
        <time>2023-08-08T05:16:51.000Z</time>
      </trkpt>
      <trkpt lat="50.92157" lon="2.44638">
        <ele>24.200000762939</ele>
        <time>2023-08-08T05:16:54.000Z</time>
      </trkpt>
      <trkpt lat="50.92206" lon="2.44611">
        <ele>24.60000038147</ele>
        <time>2023-08-08T05:17:03.000Z</time>
      </trkpt>
      <trkpt lat="50.92243" lon="2.4459">
        <ele>25</ele>
        <time>2023-08-08T05:17:10.000Z</time>
      </trkpt>
      <trkpt lat="50.92254" lon="2.44585">
        <ele>25.200000762939</ele>
        <time>2023-08-08T05:17:12.000Z</time>
      </trkpt>
      <trkpt lat="50.92308" lon="2.44554">
        <ele>25.799999237061</ele>
        <time>2023-08-08T05:17:22.000Z</time>
      </trkpt>
      <trkpt lat="50.92319" lon="2.44548">
        <ele>26</ele>
        <time>2023-08-08T05:17:24.000Z</time>
      </trkpt>
      <trkpt lat="50.92324" lon="2.44545">
        <ele>26</ele>
        <time>2023-08-08T05:17:25.000Z</time>
      </trkpt>
      <trkpt lat="50.92371" lon="2.44516">
        <ele>26.60000038147</ele>
        <time>2023-08-08T05:17:34.000Z</time>
      </trkpt>
      <trkpt lat="50.92408" lon="2.44487">
        <ele>27</ele>
        <time>2023-08-08T05:17:41.000Z</time>
      </trkpt>
      <trkpt lat="50.92429" lon="2.44471">
        <ele>27.200000762939</ele>
        <time>2023-08-08T05:17:45.000Z</time>
      </trkpt>
      <trkpt lat="50.92482" lon="2.44429">
        <ele>27</ele>
        <time>2023-08-08T05:17:54.000Z</time>
      </trkpt>
      <trkpt lat="50.92488" lon="2.44424">
        <ele>26.799999237061</ele>
        <time>2023-08-08T05:17:55.000Z</time>
      </trkpt>
      <trkpt lat="50.92537" lon="2.44385">
        <ele>26.39999961853</ele>
        <time>2023-08-08T05:18:03.000Z</time>
      </trkpt>
      <trkpt lat="50.92543" lon="2.4438">
        <ele>26.200000762939</ele>
        <time>2023-08-08T05:18:04.000Z</time>
      </trkpt>
      <trkpt lat="50.92576" lon="2.44354">
        <ele>25.799999237061</ele>
        <time>2023-08-08T05:18:09.000Z</time>
      </trkpt>
      <trkpt lat="50.92609" lon="2.44327">
        <ele>25.200000762939</ele>
        <time>2023-08-08T05:18:14.000Z</time>
      </trkpt>
      <trkpt lat="50.92642" lon="2.44301">
        <ele>24.799999237061</ele>
        <time>2023-08-08T05:18:19.000Z</time>
      </trkpt>
      <trkpt lat="50.9267" lon="2.44279">
        <ele>24.39999961853</ele>
        <time>2023-08-08T05:18:23.000Z</time>
      </trkpt>
      <trkpt lat="50.92705" lon="2.4425">
        <ele>23.799999237061</ele>
        <time>2023-08-08T05:18:28.000Z</time>
      </trkpt>
      <trkpt lat="50.92735" lon="2.44226">
        <ele>23.39999961853</ele>
        <time>2023-08-08T05:18:32.000Z</time>
      </trkpt>
      <trkpt lat="50.92786" lon="2.44185">
        <ele>23</ele>
        <time>2023-08-08T05:18:39.000Z</time>
      </trkpt>
      <trkpt lat="50.92816" lon="2.44161">
        <ele>22.60000038147</ele>
        <time>2023-08-08T05:18:43.000Z</time>
      </trkpt>
      <trkpt lat="50.92868" lon="2.44121">
        <ele>22</ele>
        <time>2023-08-08T05:18:50.000Z</time>
      </trkpt>
      <trkpt lat="50.92889" lon="2.44104">
        <ele>21.60000038147</ele>
        <time>2023-08-08T05:18:53.000Z</time>
      </trkpt>
      <trkpt lat="50.92896" lon="2.44098">
        <ele>21.799999237061</ele>
        <time>2023-08-08T05:18:54.000Z</time>
      </trkpt>
      <trkpt lat="50.92945" lon="2.44058">
        <ele>21.39999961853</ele>
        <time>2023-08-08T05:19:01.000Z</time>
      </trkpt>
      <trkpt lat="50.92973" lon="2.44037">
        <ele>21.200000762939</ele>
        <time>2023-08-08T05:19:05.000Z</time>
      </trkpt>
      <trkpt lat="50.93021" lon="2.43999">
        <ele>20.60000038147</ele>
        <time>2023-08-08T05:19:12.000Z</time>
      </trkpt>
      <trkpt lat="50.93055" lon="2.43971">
        <ele>20.39999961853</ele>
        <time>2023-08-08T05:19:17.000Z</time>
      </trkpt>
      <trkpt lat="50.93109" lon="2.43928">
        <ele>19.799999237061</ele>
        <time>2023-08-08T05:19:25.000Z</time>
      </trkpt>
      <trkpt lat="50.93123" lon="2.43917">
        <ele>19.60000038147</ele>
        <time>2023-08-08T05:19:27.000Z</time>
      </trkpt>
      <trkpt lat="50.93136" lon="2.43906">
        <ele>19.39999961853</ele>
        <time>2023-08-08T05:19:29.000Z</time>
      </trkpt>
      <trkpt lat="50.9319" lon="2.43864">
        <ele>19</ele>
        <time>2023-08-08T05:19:37.000Z</time>
      </trkpt>
      <trkpt lat="50.93216" lon="2.43844">
        <ele>18.799999237061</ele>
        <time>2023-08-08T05:19:41.000Z</time>
      </trkpt>
      <trkpt lat="50.93235" lon="2.43829">
        <ele>18.60000038147</ele>
        <time>2023-08-08T05:19:44.000Z</time>
      </trkpt>
      <trkpt lat="50.93264" lon="2.43805">
        <ele>18.60000038147</ele>
        <time>2023-08-08T05:19:49.000Z</time>
      </trkpt>
      <trkpt lat="50.93316" lon="2.43765">
        <ele>18.799999237061</ele>
        <time>2023-08-08T05:19:58.000Z</time>
      </trkpt>
      <trkpt lat="50.93357" lon="2.43731">
        <ele>19.200000762939</ele>
        <time>2023-08-08T05:20:06.000Z</time>
      </trkpt>
      <trkpt lat="50.9341" lon="2.4369">
        <ele>19.60000038147</ele>
        <time>2023-08-08T05:20:16.000Z</time>
      </trkpt>
      <trkpt lat="50.93416" lon="2.43686">
        <ele>19.60000038147</ele>
        <time>2023-08-08T05:20:17.000Z</time>
      </trkpt>
      <trkpt lat="50.93461" lon="2.4365">
        <ele>20</ele>
        <time>2023-08-08T05:20:26.000Z</time>
      </trkpt>
      <trkpt lat="50.93511" lon="2.43612">
        <ele>20.799999237061</ele>
        <time>2023-08-08T05:20:36.000Z</time>
      </trkpt>
      <trkpt lat="50.93549" lon="2.43581">
        <ele>21.799999237061</ele>
        <time>2023-08-08T05:20:44.000Z</time>
      </trkpt>
      <trkpt lat="50.9356" lon="2.43573">
        <ele>22.200000762939</ele>
        <time>2023-08-08T05:20:46.000Z</time>
      </trkpt>
      <trkpt lat="50.93583" lon="2.43554">
        <ele>22.799999237061</ele>
        <time>2023-08-08T05:20:51.000Z</time>
      </trkpt>
      <trkpt lat="50.9361" lon="2.43532">
        <ele>23.60000038147</ele>
        <time>2023-08-08T05:20:57.000Z</time>
      </trkpt>
      <trkpt lat="50.93614" lon="2.43528">
        <ele>23.799999237061</ele>
        <time>2023-08-08T05:20:58.000Z</time>
      </trkpt>
      <trkpt lat="50.93658" lon="2.43494">
        <ele>25</ele>
        <time>2023-08-08T05:21:07.000Z</time>
      </trkpt>
      <trkpt lat="50.93663" lon="2.4349">
        <ele>25.200000762939</ele>
        <time>2023-08-08T05:21:08.000Z</time>
      </trkpt>
      <trkpt lat="50.937" lon="2.43461">
        <ele>26</ele>
        <time>2023-08-08T05:21:16.000Z</time>
      </trkpt>
      <trkpt lat="50.93709" lon="2.43454">
        <ele>26.200000762939</ele>
        <time>2023-08-08T05:21:18.000Z</time>
      </trkpt>
      <trkpt lat="50.93758" lon="2.43415">
        <ele>26.60000038147</ele>
        <time>2023-08-08T05:21:28.000Z</time>
      </trkpt>
      <trkpt lat="50.93763" lon="2.43411">
        <ele>26.60000038147</ele>
        <time>2023-08-08T05:21:29.000Z</time>
      </trkpt>
      <trkpt lat="50.93794" lon="2.43387">
        <ele>26.799999237061</ele>
        <time>2023-08-08T05:21:35.000Z</time>
      </trkpt>
      <trkpt lat="50.93835" lon="2.43359">
        <ele>26.39999961853</ele>
        <time>2023-08-08T05:21:42.000Z</time>
      </trkpt>
      <trkpt lat="50.9389" lon="2.43329">
        <ele>25.799999237061</ele>
        <time>2023-08-08T05:21:50.000Z</time>
      </trkpt>
      <trkpt lat="50.93924" lon="2.43315">
        <ele>25</ele>
        <time>2023-08-08T05:21:55.000Z</time>
      </trkpt>
      <trkpt lat="50.93937" lon="2.43312">
        <ele>24.60000038147</ele>
        <time>2023-08-08T05:21:57.000Z</time>
      </trkpt>
      <trkpt lat="50.93982" lon="2.43299">
        <ele>23.39999961853</ele>
        <time>2023-08-08T05:22:03.000Z</time>
      </trkpt>
      <trkpt lat="50.94027" lon="2.43291">
        <ele>22.200000762939</ele>
        <time>2023-08-08T05:22:09.000Z</time>
      </trkpt>
      <trkpt lat="50.94037" lon="2.4329">
        <ele>22.200000762939</ele>
        <time>2023-08-08T05:22:10.000Z</time>
      </trkpt>
      <trkpt lat="50.94087" lon="2.43283">
        <ele>20.799999237061</ele>
        <time>2023-08-08T05:22:16.000Z</time>
      </trkpt>
      <trkpt lat="50.94127" lon="2.43277">
        <ele>19.799999237061</ele>
        <time>2023-08-08T05:22:21.000Z</time>
      </trkpt>
      <trkpt lat="50.94145" lon="2.43274">
        <ele>19.39999961853</ele>
        <time>2023-08-08T05:22:23.000Z</time>
      </trkpt>
      <trkpt lat="50.94179" lon="2.43269">
        <ele>18.60000038147</ele>
        <time>2023-08-08T05:22:27.000Z</time>
      </trkpt>
      <trkpt lat="50.94203" lon="2.43265">
        <ele>17.60000038147</ele>
        <time>2023-08-08T05:22:30.000Z</time>
      </trkpt>
      <trkpt lat="50.94214" lon="2.43264">
        <ele>17.39999961853</ele>
        <time>2023-08-08T05:22:31.000Z</time>
      </trkpt>
      <trkpt lat="50.94247" lon="2.4326">
        <ele>16.39999961853</ele>
        <time>2023-08-08T05:22:35.000Z</time>
      </trkpt>
      <trkpt lat="50.94268" lon="2.43258">
        <ele>16</ele>
        <time>2023-08-08T05:22:37.000Z</time>
      </trkpt>
      <trkpt lat="50.94303" lon="2.43253">
        <ele>15.39999961853</ele>
        <time>2023-08-08T05:22:41.000Z</time>
      </trkpt>
      <trkpt lat="50.94345" lon="2.43247">
        <ele>14.39999961853</ele>
        <time>2023-08-08T05:22:46.000Z</time>
      </trkpt>
      <trkpt lat="50.94356" lon="2.43245">
        <ele>14.199999809265</ele>
        <time>2023-08-08T05:22:47.000Z</time>
      </trkpt>
      <trkpt lat="50.94409" lon="2.43237">
        <ele>13</ele>
        <time>2023-08-08T05:22:53.000Z</time>
      </trkpt>
      <trkpt lat="50.94442" lon="2.43232">
        <ele>12.60000038147</ele>
        <time>2023-08-08T05:22:57.000Z</time>
      </trkpt>
      <trkpt lat="50.94466" lon="2.43229">
        <ele>12</ele>
        <time>2023-08-08T05:23:00.000Z</time>
      </trkpt>
      <trkpt lat="50.94525" lon="2.43221">
        <ele>11</ele>
        <time>2023-08-08T05:23:07.000Z</time>
      </trkpt>
      <trkpt lat="50.94535" lon="2.43219">
        <ele>11</ele>
        <time>2023-08-08T05:23:08.000Z</time>
      </trkpt>
      <trkpt lat="50.94592" lon="2.43211">
        <ele>10.199999809265</ele>
        <time>2023-08-08T05:23:15.000Z</time>
      </trkpt>
      <trkpt lat="50.94609" lon="2.43208">
        <ele>9.8000001907349</ele>
        <time>2023-08-08T05:23:17.000Z</time>
      </trkpt>
      <trkpt lat="50.94625" lon="2.43206">
        <ele>9.3999996185303</ele>
        <time>2023-08-08T05:23:19.000Z</time>
      </trkpt>
      <trkpt lat="50.94685" lon="2.43194">
        <ele>9.1999998092651</ele>
        <time>2023-08-08T05:23:27.000Z</time>
      </trkpt>
      <trkpt lat="50.9473" lon="2.43184">
        <ele>9.3999996185303</ele>
        <time>2023-08-08T05:23:34.000Z</time>
      </trkpt>
      <trkpt lat="50.94777" lon="2.43177">
        <ele>10.39999961853</ele>
        <time>2023-08-08T05:23:42.000Z</time>
      </trkpt>
      <trkpt lat="50.94787" lon="2.43175">
        <ele>10.800000190735</ele>
        <time>2023-08-08T05:23:44.000Z</time>
      </trkpt>
      <trkpt lat="50.94834" lon="2.43168">
        <ele>11.800000190735</ele>
        <time>2023-08-08T05:23:52.000Z</time>
      </trkpt>
      <trkpt lat="50.9484" lon="2.43167">
        <ele>11.800000190735</ele>
        <time>2023-08-08T05:23:53.000Z</time>
      </trkpt>
      <trkpt lat="50.94894" lon="2.4316">
        <ele>12.39999961853</ele>
        <time>2023-08-08T05:24:02.000Z</time>
      </trkpt>
      <trkpt lat="50.94944" lon="2.43153">
        <ele>12</ele>
        <time>2023-08-08T05:24:10.000Z</time>
      </trkpt>
      <trkpt lat="50.94993" lon="2.43146">
        <ele>11.199999809265</ele>
        <time>2023-08-08T05:24:17.000Z</time>
      </trkpt>
      <trkpt lat="50.95018" lon="2.43144">
        <ele>10.60000038147</ele>
        <time>2023-08-08T05:24:20.000Z</time>
      </trkpt>
      <trkpt lat="50.95033" lon="2.43142">
        <ele>10.199999809265</ele>
        <time>2023-08-08T05:24:22.000Z</time>
      </trkpt>
      <trkpt lat="50.95058" lon="2.43139">
        <ele>9.3999996185303</ele>
        <time>2023-08-08T05:24:25.000Z</time>
      </trkpt>
      <trkpt lat="50.95074" lon="2.43136">
        <ele>8.6000003814697</ele>
        <time>2023-08-08T05:24:27.000Z</time>
      </trkpt>
      <trkpt lat="50.95084" lon="2.43133">
        <ele>8.3999996185303</ele>
        <time>2023-08-08T05:24:28.000Z</time>
      </trkpt>
      <trkpt lat="50.95116" lon="2.43128">
        <ele>7</ele>
        <time>2023-08-08T05:24:32.000Z</time>
      </trkpt>
      <trkpt lat="50.95127" lon="2.43127">
        <ele>6.8000001907349</ele>
        <time>2023-08-08T05:24:33.000Z</time>
      </trkpt>
      <trkpt lat="50.95158" lon="2.43123">
        <ele>5.8000001907349</ele>
        <time>2023-08-08T05:24:37.000Z</time>
      </trkpt>
      <trkpt lat="50.95173" lon="2.43124">
        <ele>5.4000000953674</ele>
        <time>2023-08-08T05:24:39.000Z</time>
      </trkpt>
      <trkpt lat="50.95179" lon="2.43126">
        <ele>5.1999998092651</ele>
        <time>2023-08-08T05:24:40.000Z</time>
      </trkpt>
      <trkpt lat="50.95194" lon="2.43132">
        <ele>5</ele>
        <time>2023-08-08T05:24:42.000Z</time>
      </trkpt>
      <trkpt lat="50.95201" lon="2.43133">
        <ele>5</ele>
        <time>2023-08-08T05:24:43.000Z</time>
      </trkpt>
      <trkpt lat="50.95213" lon="2.43133">
        <ele>4.5999999046326</ele>
        <time>2023-08-08T05:24:45.000Z</time>
      </trkpt>
      <trkpt lat="50.9522" lon="2.43134">
        <ele>4.5999999046326</ele>
        <time>2023-08-08T05:24:46.000Z</time>
      </trkpt>
      <trkpt lat="50.95236" lon="2.4314">
        <ele>4.4000000953674</ele>
        <time>2023-08-08T05:24:48.000Z</time>
      </trkpt>
      <trkpt lat="50.95276" lon="2.4316">
        <ele>4</ele>
        <time>2023-08-08T05:24:55.000Z</time>
      </trkpt>
      <trkpt lat="50.95294" lon="2.43167">
        <ele>3.5999999046326</ele>
        <time>2023-08-08T05:24:58.000Z</time>
      </trkpt>
      <trkpt lat="50.95336" lon="2.43183">
        <ele>3.4000000953674</ele>
        <time>2023-08-08T05:25:05.000Z</time>
      </trkpt>
      <trkpt lat="50.95386" lon="2.43206">
        <ele>3</ele>
        <time>2023-08-08T05:25:13.000Z</time>
      </trkpt>
      <trkpt lat="50.95438" lon="2.43231">
        <ele>2.5999999046326</ele>
        <time>2023-08-08T05:25:21.000Z</time>
      </trkpt>
      <trkpt lat="50.95445" lon="2.43234">
        <ele>2.5999999046326</ele>
        <time>2023-08-08T05:25:22.000Z</time>
      </trkpt>
      <trkpt lat="50.95474" lon="2.43249">
        <ele>2.4000000953674</ele>
        <time>2023-08-08T05:25:27.000Z</time>
      </trkpt>
      <trkpt lat="50.95487" lon="2.43258">
        <ele>2.2000000476837</ele>
        <time>2023-08-08T05:25:29.000Z</time>
      </trkpt>
      <trkpt lat="50.95541" lon="2.43282">
        <ele>1.7999999523163</ele>
        <time>2023-08-08T05:25:38.000Z</time>
      </trkpt>
      <trkpt lat="50.95576" lon="2.43292">
        <ele>1.3999999761581</ele>
        <time>2023-08-08T05:25:44.000Z</time>
      </trkpt>
      <trkpt lat="50.95596" lon="2.43301">
        <ele>1.3999999761581</ele>
        <time>2023-08-08T05:25:48.000Z</time>
      </trkpt>
      <trkpt lat="50.95615" lon="2.43312">
        <ele>1</ele>
        <time>2023-08-08T05:25:52.000Z</time>
      </trkpt>
      <trkpt lat="50.95652" lon="2.4333">
        <ele>0.80000001192093</ele>
        <time>2023-08-08T05:26:00.000Z</time>
      </trkpt>
      <trkpt lat="50.9571" lon="2.43359">
        <ele>0.40000000596046</ele>
        <time>2023-08-08T05:26:09.000Z</time>
      </trkpt>
      <trkpt lat="50.9571" lon="2.43359">
        <ele>0.40000000596046</ele>
        <time>2023-08-08T05:26:10.000Z</time>
      </trkpt>
      <trkpt lat="50.95721" lon="2.43366">
        <ele>0.40000000596046</ele>
        <time>2023-08-08T05:26:11.000Z</time>
      </trkpt>
      <trkpt lat="50.95759" lon="2.4338">
        <ele>0.20000000298023</ele>
        <time>2023-08-08T05:26:17.000Z</time>
      </trkpt>
      <trkpt lat="50.95797" lon="2.43382">
        <ele>3.2</ele>
        <time>2023-08-08T05:26:23.000Z</time>
      </trkpt>
      <trkpt lat="50.95843" lon="2.43374">
        <ele>-0.20000000298023</ele>
        <time>2023-08-08T05:26:30.000Z</time>
      </trkpt>
      <trkpt lat="50.9588" lon="2.43367">
        <ele>-0.40000000596046</ele>
        <time>2023-08-08T05:26:36.000Z</time>
      </trkpt>
      <trkpt lat="50.95923" lon="2.4336">
        <ele>-0.80000001192093</ele>
        <time>2023-08-08T05:26:43.000Z</time>
      </trkpt>
      <trkpt lat="50.95936" lon="2.43358">
        <ele>-0.80000001192093</ele>
        <time>2023-08-08T05:26:45.000Z</time>
      </trkpt>
      <trkpt lat="50.9599" lon="2.43352">
        <ele>-0.80000001192093</ele>
        <time>2023-08-08T05:26:54.000Z</time>
      </trkpt>
      <trkpt lat="50.9599" lon="2.43352">
        <ele>-1</ele>
        <time>2023-08-08T05:26:55.000Z</time>
      </trkpt>
      <trkpt lat="50.96003" lon="2.4335">
        <ele>-1</ele>
        <time>2023-08-08T05:26:56.000Z</time>
      </trkpt>
      <trkpt lat="50.96027" lon="2.43347">
        <ele>-1.2000000476837</ele>
        <time>2023-08-08T05:27:00.000Z</time>
      </trkpt>
      <trkpt lat="50.96086" lon="2.43339">
        <ele>-1.2000000476837</ele>
        <time>2023-08-08T05:27:10.000Z</time>
      </trkpt>
      <trkpt lat="50.9614" lon="2.43333">
        <ele>-1.2000000476837</ele>
        <time>2023-08-08T05:27:19.000Z</time>
      </trkpt>
      <trkpt lat="50.96146" lon="2.43332">
        <ele>-1.2000000476837</ele>
        <time>2023-08-08T05:27:20.000Z</time>
      </trkpt>
      <trkpt lat="50.96208" lon="2.43324">
        <ele>-1.6000000238419</ele>
        <time>2023-08-08T05:27:30.000Z</time>
      </trkpt>
      <trkpt lat="50.96252" lon="2.4331">
        <ele>-1.3999999761581</ele>
        <time>2023-08-08T05:27:38.000Z</time>
      </trkpt>
      <trkpt lat="50.96258" lon="2.43309">
        <ele>-1.3999999761581</ele>
        <time>2023-08-08T05:27:39.000Z</time>
      </trkpt>
      <trkpt lat="50.96269" lon="2.43309">
        <ele>-1.3999999761581</ele>
        <time>2023-08-08T05:27:41.000Z</time>
      </trkpt>
      <trkpt lat="50.96275" lon="2.43311">
        <ele>-1.3999999761581</ele>
        <time>2023-08-08T05:27:42.000Z</time>
      </trkpt>
      <trkpt lat="50.9628" lon="2.43314">
        <ele>-1.3999999761581</ele>
        <time>2023-08-08T05:27:43.000Z</time>
      </trkpt>
      <trkpt lat="50.96292" lon="2.43322">
        <ele>-1.3999999761581</ele>
        <time>2023-08-08T05:27:45.000Z</time>
      </trkpt>
      <trkpt lat="50.96305" lon="2.43323">
        <ele>-1.6000000238419</ele>
        <time>2023-08-08T05:27:47.000Z</time>
      </trkpt>
      <trkpt lat="50.96311" lon="2.43321">
        <ele>-1.6000000238419</ele>
        <time>2023-08-08T05:27:48.000Z</time>
      </trkpt>
      <trkpt lat="50.96316" lon="2.43317">
        <ele>-1.6000000238419</ele>
        <time>2023-08-08T05:27:49.000Z</time>
      </trkpt>
      <trkpt lat="50.96325" lon="2.43307">
        <ele>-1.3999999761581</ele>
        <time>2023-08-08T05:27:51.000Z</time>
      </trkpt>
      <trkpt lat="50.96329" lon="2.43298">
        <ele>-1.3999999761581</ele>
        <time>2023-08-08T05:27:52.000Z</time>
      </trkpt>
      <trkpt lat="50.96333" lon="2.43285">
        <ele>-1.3999999761581</ele>
        <time>2023-08-08T05:27:54.000Z</time>
      </trkpt>
      <trkpt lat="50.9634" lon="2.43274">
        <ele>-1.3999999761581</ele>
        <time>2023-08-08T05:27:56.000Z</time>
      </trkpt>
      <trkpt lat="50.96348" lon="2.43266">
        <ele>-1.3999999761581</ele>
        <time>2023-08-08T05:27:58.000Z</time>
      </trkpt>
      <trkpt lat="50.96357" lon="2.43262">
        <ele>-1.2000000476837</ele>
        <time>2023-08-08T05:28:01.000Z</time>
      </trkpt>
      <trkpt lat="50.96367" lon="2.43258">
        <ele>-1</ele>
        <time>2023-08-08T05:28:07.000Z</time>
      </trkpt>
      <trkpt lat="50.96367" lon="2.43258">
        <ele>-1</ele>
        <time>2023-08-08T05:28:08.000Z</time>
      </trkpt>
      <trkpt lat="50.96373" lon="2.43251">
        <ele>-0.20000000298023</ele>
        <time>2023-08-08T05:35:47.000Z</time>
      </trkpt>
      <trkpt lat="50.96378" lon="2.43248">
        <ele>-0.20000000298023</ele>
        <time>2023-08-08T05:35:49.000Z</time>
      </trkpt>
      <trkpt lat="50.96397" lon="2.43238">
        <ele>-0.20000000298023</ele>
        <time>2023-08-08T05:35:54.000Z</time>
      </trkpt>
      <trkpt lat="50.9641" lon="2.4323">
        <ele>3</ele>
        <time>2023-08-08T05:35:57.000Z</time>
      </trkpt>
      <trkpt lat="50.96423" lon="2.43223">
        <ele>3</ele>
        <time>2023-08-08T05:36:00.000Z</time>
      </trkpt>
      <trkpt lat="50.96443" lon="2.43216">
        <ele>0.40000000596046</ele>
        <time>2023-08-08T05:36:04.000Z</time>
      </trkpt>
      <trkpt lat="50.96454" lon="2.43214">
        <ele>0.40000000596046</ele>
        <time>2023-08-08T05:36:06.000Z</time>
      </trkpt>
      <trkpt lat="50.96459" lon="2.43214">
        <ele>0.40000000596046</ele>
        <time>2023-08-08T05:36:07.000Z</time>
      </trkpt>
      <trkpt lat="50.9648" lon="2.43212">
        <ele>0.40000000596046</ele>
        <time>2023-08-08T05:36:11.000Z</time>
      </trkpt>
      <trkpt lat="50.96483" lon="2.4321">
        <ele>0.20000000298023</ele>
        <time>2023-08-08T05:36:12.000Z</time>
      </trkpt>
      <trkpt lat="50.9649" lon="2.43202">
        <ele>0.20000000298023</ele>
        <time>2023-08-08T05:36:15.000Z</time>
      </trkpt>
      <trkpt lat="50.9649" lon="2.43202">
        <ele>0.20000000298023</ele>
        <time>2023-08-08T05:36:16.000Z</time>
      </trkpt>
      <trkpt lat="50.96501" lon="2.43204">
        <ele>0.20000000298023</ele>
        <time>2023-08-08T05:36:20.000Z</time>
      </trkpt>
      <trkpt lat="50.96502" lon="2.43204">
        <ele>0.20000000298023</ele>
        <time>2023-08-08T05:36:21.000Z</time>
      </trkpt>
      <trkpt lat="50.96502" lon="2.43205">
        <ele>0.20000000298023</ele>
        <time>2023-08-08T05:36:24.000Z</time>
      </trkpt>
      <trkpt lat="50.96509" lon="2.43206">
        <ele>1.7999999523163</ele>
        <time>2023-08-08T05:52:24.000Z</time>
      </trkpt>
      <trkpt lat="50.96518" lon="2.43207">
        <ele>1.7999999523163</ele>
        <time>2023-08-08T05:52:27.000Z</time>
      </trkpt>
      <trkpt lat="50.96535" lon="2.43211">
        <ele>1.7999999523163</ele>
        <time>2023-08-08T05:52:34.000Z</time>
      </trkpt>
      <trkpt lat="50.96539" lon="2.43216">
        <ele>1.7999999523163</ele>
        <time>2023-08-08T05:52:37.000Z</time>
      </trkpt>
      <trkpt lat="50.96544" lon="2.43218">
        <ele>1.7999999523163</ele>
        <time>2023-08-08T05:52:39.000Z</time>
      </trkpt>
      <trkpt lat="50.96561" lon="2.43222">
        <ele>2</ele>
        <time>2023-08-08T05:52:44.000Z</time>
      </trkpt>
      <trkpt lat="50.96586" lon="2.43227">
        <ele>2</ele>
        <time>2023-08-08T05:52:50.000Z</time>
      </trkpt>
      <trkpt lat="50.96599" lon="2.43229">
        <ele>2</ele>
        <time>2023-08-08T05:52:53.000Z</time>
      </trkpt>
      <trkpt lat="50.96606" lon="2.43231">
        <ele>2</ele>
        <time>2023-08-08T05:52:55.000Z</time>
      </trkpt>
      <trkpt lat="50.96617" lon="2.43234">
        <ele>2.2000000476837</ele>
        <time>2023-08-08T05:52:59.000Z</time>
      </trkpt>
      <trkpt lat="50.96619" lon="2.43235">
        <ele>2.2000000476837</ele>
        <time>2023-08-08T05:53:00.000Z</time>
      </trkpt>
      <trkpt lat="50.96635" lon="2.43239">
        <ele>2.2000000476837</ele>
        <time>2023-08-08T05:53:05.000Z</time>
      </trkpt>
      <trkpt lat="50.96658" lon="2.43242">
        <ele>2.4000000953674</ele>
        <time>2023-08-08T05:53:11.000Z</time>
      </trkpt>
      <trkpt lat="50.96681" lon="2.43236">
        <ele>2.4000000953674</ele>
        <time>2023-08-08T05:53:17.000Z</time>
      </trkpt>
      <trkpt lat="50.96708" lon="2.43224">
        <ele>2.5999999046326</ele>
        <time>2023-08-08T05:53:25.000Z</time>
      </trkpt>
      <trkpt lat="50.96725" lon="2.43218">
        <ele>2.7999999523163</ele>
        <time>2023-08-08T05:53:31.000Z</time>
      </trkpt>
      <trkpt lat="50.96735" lon="2.43221">
        <ele>3</ele>
        <time>2023-08-08T05:53:34.000Z</time>
      </trkpt>
      <trkpt lat="50.96741" lon="2.43225">
        <ele>3</ele>
        <time>2023-08-08T05:53:36.000Z</time>
      </trkpt>
      <trkpt lat="50.96744" lon="2.43227">
        <ele>3</ele>
        <time>2023-08-08T05:53:37.000Z</time>
      </trkpt>
      <trkpt lat="50.96758" lon="2.43241">
        <ele>3</ele>
        <time>2023-08-08T05:53:42.000Z</time>
      </trkpt>
      <trkpt lat="50.96773" lon="2.43259">
        <ele>3</ele>
        <time>2023-08-08T05:53:49.000Z</time>
      </trkpt>
      <trkpt lat="50.96785" lon="2.43274">
        <ele>3.2000000476837</ele>
        <time>2023-08-08T05:53:55.000Z</time>
      </trkpt>
      <trkpt lat="50.96802" lon="2.43293">
        <ele>3.4000000953674</ele>
        <time>2023-08-08T05:54:02.000Z</time>
      </trkpt>
      <trkpt lat="50.96817" lon="2.43307">
        <ele>3.5999999046326</ele>
        <time>2023-08-08T05:54:10.000Z</time>
      </trkpt>
      <trkpt lat="50.96827" lon="2.43298">
        <ele>3.5999999046326</ele>
        <time>2023-08-08T05:54:14.000Z</time>
      </trkpt>
      <trkpt lat="50.9683" lon="2.43295">
        <ele>3.5999999046326</ele>
        <time>2023-08-08T05:54:15.000Z</time>
      </trkpt>
      <trkpt lat="50.96855" lon="2.43279">
        <ele>3.7999999523163</ele>
        <time>2023-08-08T05:54:23.000Z</time>
      </trkpt>
      <trkpt lat="50.96878" lon="2.43269">
        <ele>3.7999999523163</ele>
        <time>2023-08-08T05:54:30.000Z</time>
      </trkpt>
      <trkpt lat="50.96903" lon="2.43258">
        <ele>4</ele>
        <time>2023-08-08T05:54:37.000Z</time>
      </trkpt>
      <trkpt lat="50.96932" lon="2.43238">
        <ele>4.1999998092651</ele>
        <time>2023-08-08T05:54:45.000Z</time>
      </trkpt>
      <trkpt lat="50.96936" lon="2.43234">
        <ele>4.1999998092651</ele>
        <time>2023-08-08T05:54:46.000Z</time>
      </trkpt>
      <trkpt lat="50.96942" lon="2.43225">
        <ele>4.1999998092651</ele>
        <time>2023-08-08T05:54:48.000Z</time>
      </trkpt>
      <trkpt lat="50.9695" lon="2.43209">
        <ele>4</ele>
        <time>2023-08-08T05:54:51.000Z</time>
      </trkpt>
      <trkpt lat="50.96959" lon="2.43195">
        <ele>3.7999999523163</ele>
        <time>2023-08-08T05:54:54.000Z</time>
      </trkpt>
      <trkpt lat="50.96967" lon="2.4318">
        <ele>3.5999999046326</ele>
        <time>2023-08-08T05:54:57.000Z</time>
      </trkpt>
      <trkpt lat="50.96973" lon="2.43171">
        <ele>3.5999999046326</ele>
        <time>2023-08-08T05:54:59.000Z</time>
      </trkpt>
      <trkpt lat="50.96977" lon="2.43166">
        <ele>3.5999999046326</ele>
        <time>2023-08-08T05:55:00.000Z</time>
      </trkpt>
      <trkpt lat="50.96981" lon="2.43163">
        <ele>3.4000000953674</ele>
        <time>2023-08-08T05:55:01.000Z</time>
      </trkpt>
      <trkpt lat="50.96984" lon="2.43158">
        <ele>3.4000000953674</ele>
        <time>2023-08-08T05:55:02.000Z</time>
      </trkpt>
      <trkpt lat="50.96987" lon="2.43151">
        <ele>3.4000000953674</ele>
        <time>2023-08-08T05:55:03.000Z</time>
      </trkpt>
      <trkpt lat="50.96988" lon="2.43138">
        <ele>3.4000000953674</ele>
        <time>2023-08-08T05:55:05.000Z</time>
      </trkpt>
      <trkpt lat="50.9699" lon="2.43113">
        <ele>3.2000000476837</ele>
        <time>2023-08-08T05:55:08.000Z</time>
      </trkpt>
      <trkpt lat="50.96991" lon="2.43075">
        <ele>3</ele>
        <time>2023-08-08T05:55:13.000Z</time>
      </trkpt>
      <trkpt lat="50.96991" lon="2.43068">
        <ele>3</ele>
        <time>2023-08-08T05:55:14.000Z</time>
      </trkpt>
      <trkpt lat="50.96992" lon="2.43051">
        <ele>3</ele>
        <time>2023-08-08T05:55:16.000Z</time>
      </trkpt>
      <trkpt lat="50.96992" lon="2.43038">
        <ele>2.7999999523163</ele>
        <time>2023-08-08T05:55:18.000Z</time>
      </trkpt>
      <trkpt lat="50.96995" lon="2.43028">
        <ele>2.7999999523163</ele>
        <time>2023-08-08T05:55:20.000Z</time>
      </trkpt>
      <trkpt lat="50.96999" lon="2.43025">
        <ele>2.7999999523163</ele>
        <time>2023-08-08T05:55:21.000Z</time>
      </trkpt>
      <trkpt lat="50.97021" lon="2.43008">
        <ele>2.7999999523163</ele>
        <time>2023-08-08T05:55:27.000Z</time>
      </trkpt>
      <trkpt lat="50.97025" lon="2.43005">
        <ele>2.7999999523163</ele>
        <time>2023-08-08T05:55:28.000Z</time>
      </trkpt>
      <trkpt lat="50.97036" lon="2.42995">
        <ele>3</ele>
        <time>2023-08-08T05:55:32.000Z</time>
      </trkpt>
      <trkpt lat="50.97046" lon="2.42968">
        <ele>3.4000000953674</ele>
        <time>2023-08-08T05:55:37.000Z</time>
      </trkpt>
      <trkpt lat="50.97049" lon="2.42961">
        <ele>3.4000000953674</ele>
        <time>2023-08-08T05:55:38.000Z</time>
      </trkpt>
      <trkpt lat="50.97062" lon="2.42938">
        <ele>3.2000000476837</ele>
        <time>2023-08-08T05:55:42.000Z</time>
      </trkpt>
      <trkpt lat="50.97076" lon="2.42915">
        <ele>2.7999999523163</ele>
        <time>2023-08-08T05:55:46.000Z</time>
      </trkpt>
      <trkpt lat="50.97089" lon="2.4289">
        <ele>2.7999999523163</ele>
        <time>2023-08-08T05:55:50.000Z</time>
      </trkpt>
      <trkpt lat="50.97095" lon="2.42875">
        <ele>2.5999999046326</ele>
        <time>2023-08-08T05:55:52.000Z</time>
      </trkpt>
      <trkpt lat="50.97099" lon="2.4286">
        <ele>2.5999999046326</ele>
        <time>2023-08-08T05:55:54.000Z</time>
      </trkpt>
      <trkpt lat="50.97101" lon="2.42843">
        <ele>2.5999999046326</ele>
        <time>2023-08-08T05:55:56.000Z</time>
      </trkpt>
      <trkpt lat="50.97101" lon="2.42781">
        <ele>2.5999999046326</ele>
        <time>2023-08-08T05:56:03.000Z</time>
      </trkpt>
      <trkpt lat="50.97101" lon="2.42716">
        <ele>2.5999999046326</ele>
        <time>2023-08-08T05:56:11.000Z</time>
      </trkpt>
      <trkpt lat="50.97101" lon="2.42708">
        <ele>2.7999999523163</ele>
        <time>2023-08-08T05:56:12.000Z</time>
      </trkpt>
      <trkpt lat="50.97102" lon="2.42685">
        <ele>2.7999999523163</ele>
        <time>2023-08-08T05:56:15.000Z</time>
      </trkpt>
      <trkpt lat="50.97105" lon="2.42652">
        <ele>3</ele>
        <time>2023-08-08T05:56:19.000Z</time>
      </trkpt>
      <trkpt lat="50.97107" lon="2.42636">
        <ele>3</ele>
        <time>2023-08-08T05:56:21.000Z</time>
      </trkpt>
      <trkpt lat="50.97107" lon="2.42613">
        <ele>2.7999999523163</ele>
        <time>2023-08-08T05:56:24.000Z</time>
      </trkpt>
      <trkpt lat="50.97108" lon="2.42605">
        <ele>2.7999999523163</ele>
        <time>2023-08-08T05:56:25.000Z</time>
      </trkpt>
      <trkpt lat="50.97109" lon="2.42579">
        <ele>2.7999999523163</ele>
        <time>2023-08-08T05:56:28.000Z</time>
      </trkpt>
      <trkpt lat="50.97109" lon="2.42564">
        <ele>2.7999999523163</ele>
        <time>2023-08-08T05:56:30.000Z</time>
      </trkpt>
      <trkpt lat="50.97108" lon="2.42557">
        <ele>2.7999999523163</ele>
        <time>2023-08-08T05:56:31.000Z</time>
      </trkpt>
      <trkpt lat="50.97106" lon="2.42536">
        <ele>2.7999999523163</ele>
        <time>2023-08-08T05:56:34.000Z</time>
      </trkpt>
      <trkpt lat="50.97102" lon="2.42505">
        <ele>2.7999999523163</ele>
        <time>2023-08-08T05:56:38.000Z</time>
      </trkpt>
      <trkpt lat="50.97102" lon="2.42498">
        <ele>2.7999999523163</ele>
        <time>2023-08-08T05:56:39.000Z</time>
      </trkpt>
      <trkpt lat="50.97102" lon="2.42475">
        <ele>3</ele>
        <time>2023-08-08T05:56:42.000Z</time>
      </trkpt>
      <trkpt lat="50.97105" lon="2.42462">
        <ele>3.2000000476837</ele>
        <time>2023-08-08T05:56:44.000Z</time>
      </trkpt>
      <trkpt lat="50.97112" lon="2.42444">
        <ele>3.4000000953674</ele>
        <time>2023-08-08T05:56:47.000Z</time>
      </trkpt>
      <trkpt lat="50.97117" lon="2.42434">
        <ele>3.7999999523163</ele>
        <time>2023-08-08T05:56:49.000Z</time>
      </trkpt>
      <trkpt lat="50.97124" lon="2.42426">
        <ele>4</ele>
        <time>2023-08-08T05:56:51.000Z</time>
      </trkpt>
      <trkpt lat="50.97128" lon="2.42422">
        <ele>4.1999998092651</ele>
        <time>2023-08-08T05:56:52.000Z</time>
      </trkpt>
      <trkpt lat="50.97166" lon="2.42387">
        <ele>4.8000001907349</ele>
        <time>2023-08-08T05:57:01.000Z</time>
      </trkpt>
      <trkpt lat="50.97187" lon="2.42371">
        <ele>4.8000001907349</ele>
        <time>2023-08-08T05:57:06.000Z</time>
      </trkpt>
      <trkpt lat="50.97195" lon="2.42367">
        <ele>4.8000001907349</ele>
        <time>2023-08-08T05:57:08.000Z</time>
      </trkpt>
      <trkpt lat="50.97225" lon="2.42363">
        <ele>3.5999999046326</ele>
        <time>2023-08-08T05:57:14.000Z</time>
      </trkpt>
      <trkpt lat="50.97242" lon="2.42365">
        <ele>3</ele>
        <time>2023-08-08T05:57:17.000Z</time>
      </trkpt>
      <trkpt lat="50.97256" lon="2.42367">
        <ele>2.5999999046326</ele>
        <time>2023-08-08T05:57:20.000Z</time>
      </trkpt>
      <trkpt lat="50.97264" lon="2.42361">
        <ele>2.2000000476837</ele>
        <time>2023-08-08T05:57:23.000Z</time>
      </trkpt>
      <trkpt lat="50.97259" lon="2.42355">
        <ele>2</ele>
        <time>2023-08-08T05:57:26.000Z</time>
      </trkpt>
      <trkpt lat="50.9725" lon="2.42357">
        <ele>1.7999999523163</ele>
        <time>2023-08-08T05:57:29.000Z</time>
      </trkpt>
      <trkpt lat="50.97246" lon="2.42356">
        <ele>1.6000000238419</ele>
        <time>2023-08-08T05:57:30.000Z</time>
      </trkpt>
      <trkpt lat="50.97223" lon="2.42347">
        <ele>2</ele>
        <time>2023-08-08T05:57:36.000Z</time>
      </trkpt>
      <trkpt lat="50.9721" lon="2.42345">
        <ele>2.4000000953674</ele>
        <time>2023-08-08T05:57:39.000Z</time>
      </trkpt>
      <trkpt lat="50.97201" lon="2.42346">
        <ele>2.7999999523163</ele>
        <time>2023-08-08T05:57:41.000Z</time>
      </trkpt>
      <trkpt lat="50.97197" lon="2.42346">
        <ele>3</ele>
        <time>2023-08-08T05:57:42.000Z</time>
      </trkpt>
      <trkpt lat="50.97189" lon="2.42346">
        <ele>2.7999999523163</ele>
        <time>2023-08-08T05:57:44.000Z</time>
      </trkpt>
      <trkpt lat="50.97181" lon="2.42347">
        <ele>3.2000000476837</ele>
        <time>2023-08-08T05:57:46.000Z</time>
      </trkpt>
      <trkpt lat="50.97178" lon="2.42347">
        <ele>3.4000000953674</ele>
        <time>2023-08-08T05:57:47.000Z</time>
      </trkpt>
      <trkpt lat="50.9717" lon="2.42338">
        <ele>3.7999999523163</ele>
        <time>2023-08-08T05:57:50.000Z</time>
      </trkpt>
      <trkpt lat="50.9716" lon="2.42313">
        <ele>4.1999998092651</ele>
        <time>2023-08-08T05:57:54.000Z</time>
      </trkpt>
      <trkpt lat="50.97158" lon="2.42306">
        <ele>4.1999998092651</ele>
        <time>2023-08-08T05:57:55.000Z</time>
      </trkpt>
      <trkpt lat="50.97147" lon="2.42257">
        <ele>4.1999998092651</ele>
        <time>2023-08-08T05:58:01.000Z</time>
      </trkpt>
      <trkpt lat="50.97135" lon="2.422">
        <ele>3.4000000953674</ele>
        <time>2023-08-08T05:58:07.000Z</time>
      </trkpt>
      <trkpt lat="50.97117" lon="2.42121">
        <ele>2.2000000476837</ele>
        <time>2023-08-08T05:58:16.000Z</time>
      </trkpt>
      <trkpt lat="50.97104" lon="2.42058">
        <ele>1.7999999523163</ele>
        <time>2023-08-08T05:58:23.000Z</time>
      </trkpt>
      <trkpt lat="50.97095" lon="2.41966">
        <ele>1.6000000238419</ele>
        <time>2023-08-08T05:58:33.000Z</time>
      </trkpt>
      <trkpt lat="50.97093" lon="2.41893">
        <ele>1.6000000238419</ele>
        <time>2023-08-08T05:58:41.000Z</time>
      </trkpt>
      <trkpt lat="50.9709" lon="2.41812">
        <ele>1.6000000238419</ele>
        <time>2023-08-08T05:58:50.000Z</time>
      </trkpt>
      <trkpt lat="50.97088" lon="2.41758">
        <ele>1.6000000238419</ele>
        <time>2023-08-08T05:58:56.000Z</time>
      </trkpt>
      <trkpt lat="50.97086" lon="2.41695">
        <ele>1.6000000238419</ele>
        <time>2023-08-08T05:59:03.000Z</time>
      </trkpt>
      <trkpt lat="50.97084" lon="2.41628">
        <ele>1.3999999761581</ele>
        <time>2023-08-08T05:59:10.000Z</time>
      </trkpt>
      <trkpt lat="50.97083" lon="2.41582">
        <ele>1.2000000476837</ele>
        <time>2023-08-08T05:59:15.000Z</time>
      </trkpt>
      <trkpt lat="50.97082" lon="2.41547">
        <ele>1.2000000476837</ele>
        <time>2023-08-08T05:59:19.000Z</time>
      </trkpt>
      <trkpt lat="50.97079" lon="2.41468">
        <ele>1.2000000476837</ele>
        <time>2023-08-08T05:59:28.000Z</time>
      </trkpt>
      <trkpt lat="50.97077" lon="2.41388">
        <ele>1.2000000476837</ele>
        <time>2023-08-08T05:59:37.000Z</time>
      </trkpt>
      <trkpt lat="50.97075" lon="2.41296">
        <ele>1.6000000238419</ele>
        <time>2023-08-08T05:59:47.000Z</time>
      </trkpt>
      <trkpt lat="50.97074" lon="2.41268">
        <ele>1.6000000238419</ele>
        <time>2023-08-08T05:59:50.000Z</time>
      </trkpt>
      <trkpt lat="50.97072" lon="2.41175">
        <ele>1.6000000238419</ele>
        <time>2023-08-08T06:00:00.000Z</time>
      </trkpt>
      <trkpt lat="50.97072" lon="2.41166">
        <ele>1.6000000238419</ele>
        <time>2023-08-08T06:00:01.000Z</time>
      </trkpt>
      <trkpt lat="50.97069" lon="2.41085">
        <ele>1.3999999761581</ele>
        <time>2023-08-08T06:00:10.000Z</time>
      </trkpt>
      <trkpt lat="50.97068" lon="2.41032">
        <ele>1.6000000238419</ele>
        <time>2023-08-08T06:00:16.000Z</time>
      </trkpt>
      <trkpt lat="50.97066" lon="2.40961">
        <ele>1.3999999761581</ele>
        <time>2023-08-08T06:00:24.000Z</time>
      </trkpt>
      <trkpt lat="50.97064" lon="2.409">
        <ele>1.3999999761581</ele>
        <time>2023-08-08T06:00:31.000Z</time>
      </trkpt>
      <trkpt lat="50.97064" lon="2.40891">
        <ele>1.3999999761581</ele>
        <time>2023-08-08T06:00:32.000Z</time>
      </trkpt>
      <trkpt lat="50.97062" lon="2.40827">
        <ele>1.2000000476837</ele>
        <time>2023-08-08T06:00:39.000Z</time>
      </trkpt>
      <trkpt lat="50.9706" lon="2.40739">
        <ele>1</ele>
        <time>2023-08-08T06:00:49.000Z</time>
      </trkpt>
      <trkpt lat="50.9706" lon="2.40693">
        <ele>1.3999999761581</ele>
        <time>2023-08-08T06:00:54.000Z</time>
      </trkpt>
      <trkpt lat="50.97057" lon="2.40603">
        <ele>1.2000000476837</ele>
        <time>2023-08-08T06:01:04.000Z</time>
      </trkpt>
      <trkpt lat="50.97055" lon="2.40531">
        <ele>1.3999999761581</ele>
        <time>2023-08-08T06:01:12.000Z</time>
      </trkpt>
      <trkpt lat="50.97053" lon="2.40443">
        <ele>1.2000000476837</ele>
        <time>2023-08-08T06:01:22.000Z</time>
      </trkpt>
      <trkpt lat="50.97053" lon="2.40434">
        <ele>1.2000000476837</ele>
        <time>2023-08-08T06:01:23.000Z</time>
      </trkpt>
      <trkpt lat="50.97052" lon="2.40346">
        <ele>1.2000000476837</ele>
        <time>2023-08-08T06:01:33.000Z</time>
      </trkpt>
      <trkpt lat="50.97051" lon="2.40318">
        <ele>1.2000000476837</ele>
        <time>2023-08-08T06:01:36.000Z</time>
      </trkpt>
      <trkpt lat="50.9705" lon="2.40228">
        <ele>1.3999999761581</ele>
        <time>2023-08-08T06:01:46.000Z</time>
      </trkpt>
      <trkpt lat="50.9705" lon="2.40198">
        <ele>1.3999999761581</ele>
        <time>2023-08-08T06:01:49.000Z</time>
      </trkpt>
      <trkpt lat="50.97047" lon="2.40105">
        <ele>1.2000000476837</ele>
        <time>2023-08-08T06:01:59.000Z</time>
      </trkpt>
      <trkpt lat="50.97046" lon="2.40049">
        <ele>0.80000001192093</ele>
        <time>2023-08-08T06:02:05.000Z</time>
      </trkpt>
      <trkpt lat="50.97046" lon="2.40013">
        <ele>0.60000002384186</ele>
        <time>2023-08-08T06:02:09.000Z</time>
      </trkpt>
      <trkpt lat="50.97044" lon="2.3993">
        <ele>0.60000002384186</ele>
        <time>2023-08-08T06:02:18.000Z</time>
      </trkpt>
      <trkpt lat="50.97043" lon="2.39844">
        <ele>0.80000001192093</ele>
        <time>2023-08-08T06:02:27.000Z</time>
      </trkpt>
      <trkpt lat="50.97043" lon="2.39835">
        <ele>0.80000001192093</ele>
        <time>2023-08-08T06:02:28.000Z</time>
      </trkpt>
      <trkpt lat="50.97042" lon="2.39745">
        <ele>1</ele>
        <time>2023-08-08T06:02:38.000Z</time>
      </trkpt>
      <trkpt lat="50.97041" lon="2.39655">
        <ele>1.2000000476837</ele>
        <time>2023-08-08T06:02:48.000Z</time>
      </trkpt>
      <trkpt lat="50.97039" lon="2.39564">
        <ele>1</ele>
        <time>2023-08-08T06:02:58.000Z</time>
      </trkpt>
      <trkpt lat="50.97038" lon="2.3952">
        <ele>0.80000001192093</ele>
        <time>2023-08-08T06:03:03.000Z</time>
      </trkpt>
      <trkpt lat="50.97038" lon="2.39501">
        <ele>0.60000002384186</ele>
        <time>2023-08-08T06:03:05.000Z</time>
      </trkpt>
      <trkpt lat="50.97037" lon="2.39429">
        <ele>0.60000002384186</ele>
        <time>2023-08-08T06:03:13.000Z</time>
      </trkpt>
      <trkpt lat="50.97036" lon="2.39342">
        <ele>0.80000001192093</ele>
        <time>2023-08-08T06:03:23.000Z</time>
      </trkpt>
      <trkpt lat="50.97035" lon="2.39322">
        <ele>0.80000001192093</ele>
        <time>2023-08-08T06:03:25.000Z</time>
      </trkpt>
      <trkpt lat="50.97034" lon="2.3923">
        <ele>1.2000000476837</ele>
        <time>2023-08-08T06:03:35.000Z</time>
      </trkpt>
      <trkpt lat="50.97033" lon="2.39204">
        <ele>1</ele>
        <time>2023-08-08T06:03:38.000Z</time>
      </trkpt>
      <trkpt lat="50.97032" lon="2.39118">
        <ele>0.80000001192093</ele>
        <time>2023-08-08T06:03:47.000Z</time>
      </trkpt>
      <trkpt lat="50.9703" lon="2.39025">
        <ele>0.60000002384186</ele>
        <time>2023-08-08T06:03:57.000Z</time>
      </trkpt>
      <trkpt lat="50.97028" lon="2.38933">
        <ele>0.60000002384186</ele>
        <time>2023-08-08T06:04:07.000Z</time>
      </trkpt>
      <trkpt lat="50.97028" lon="2.38899">
        <ele>0.80000001192093</ele>
        <time>2023-08-08T06:04:11.000Z</time>
      </trkpt>
      <trkpt lat="50.97026" lon="2.38804">
        <ele>0.80000001192093</ele>
        <time>2023-08-08T06:04:21.000Z</time>
      </trkpt>
      <trkpt lat="50.97026" lon="2.38768">
        <ele>0.80000001192093</ele>
        <time>2023-08-08T06:04:25.000Z</time>
      </trkpt>
      <trkpt lat="50.97025" lon="2.38678">
        <ele>0.80000001192093</ele>
        <time>2023-08-08T06:04:35.000Z</time>
      </trkpt>
      <trkpt lat="50.97025" lon="2.38661">
        <ele>0.80000001192093</ele>
        <time>2023-08-08T06:04:37.000Z</time>
      </trkpt>
      <trkpt lat="50.97023" lon="2.3857">
        <ele>0.80000001192093</ele>
        <time>2023-08-08T06:04:47.000Z</time>
      </trkpt>
      <trkpt lat="50.97022" lon="2.38543">
        <ele>0.80000001192093</ele>
        <time>2023-08-08T06:04:50.000Z</time>
      </trkpt>
      <trkpt lat="50.97021" lon="2.38455">
        <ele>0.60000002384186</ele>
        <time>2023-08-08T06:05:00.000Z</time>
      </trkpt>
      <trkpt lat="50.97021" lon="2.38446">
        <ele>0.60000002384186</ele>
        <time>2023-08-08T06:05:01.000Z</time>
      </trkpt>
      <trkpt lat="50.97019" lon="2.38358">
        <ele>0.60000002384186</ele>
        <time>2023-08-08T06:05:11.000Z</time>
      </trkpt>
      <trkpt lat="50.97018" lon="2.38323">
        <ele>0.60000002384186</ele>
        <time>2023-08-08T06:05:15.000Z</time>
      </trkpt>
      <trkpt lat="50.97017" lon="2.38235">
        <ele>0.80000001192093</ele>
        <time>2023-08-08T06:05:25.000Z</time>
      </trkpt>
      <trkpt lat="50.97016" lon="2.38227">
        <ele>0.80000001192093</ele>
        <time>2023-08-08T06:05:26.000Z</time>
      </trkpt>
      <trkpt lat="50.97015" lon="2.38139">
        <ele>0.80000001192093</ele>
        <time>2023-08-08T06:05:36.000Z</time>
      </trkpt>
      <trkpt lat="50.97014" lon="2.38086">
        <ele>1</ele>
        <time>2023-08-08T06:05:42.000Z</time>
      </trkpt>
      <trkpt lat="50.97013" lon="2.38068">
        <ele>1</ele>
        <time>2023-08-08T06:05:44.000Z</time>
      </trkpt>
      <trkpt lat="50.97011" lon="2.37999">
        <ele>0.60000002384186</ele>
        <time>2023-08-08T06:05:52.000Z</time>
      </trkpt>
      <trkpt lat="50.9701" lon="2.37916">
        <ele>0.80000001192093</ele>
        <time>2023-08-08T06:06:01.000Z</time>
      </trkpt>
      <trkpt lat="50.97008" lon="2.37829">
        <ele>0.80000001192093</ele>
        <time>2023-08-08T06:06:11.000Z</time>
      </trkpt>
      <trkpt lat="50.97008" lon="2.3782">
        <ele>0.80000001192093</ele>
        <time>2023-08-08T06:06:12.000Z</time>
      </trkpt>
      <trkpt lat="50.97006" lon="2.37728">
        <ele>1</ele>
        <time>2023-08-08T06:06:23.000Z</time>
      </trkpt>
      <trkpt lat="50.97006" lon="2.3772">
        <ele>1</ele>
        <time>2023-08-08T06:06:24.000Z</time>
      </trkpt>
      <trkpt lat="50.97005" lon="2.37632">
        <ele>0.80000001192093</ele>
        <time>2023-08-08T06:06:34.000Z</time>
      </trkpt>
      <trkpt lat="50.97004" lon="2.37588">
        <ele>0.80000001192093</ele>
        <time>2023-08-08T06:06:39.000Z</time>
      </trkpt>
      <trkpt lat="50.97004" lon="2.37516">
        <ele>0.80000001192093</ele>
        <time>2023-08-08T06:06:47.000Z</time>
      </trkpt>
      <trkpt lat="50.97006" lon="2.37426">
        <ele>1</ele>
        <time>2023-08-08T06:06:57.000Z</time>
      </trkpt>
      <trkpt lat="50.9701" lon="2.37338">
        <ele>1</ele>
        <time>2023-08-08T06:07:07.000Z</time>
      </trkpt>
      <trkpt lat="50.97011" lon="2.37321">
        <ele>1</ele>
        <time>2023-08-08T06:07:09.000Z</time>
      </trkpt>
      <trkpt lat="50.97008" lon="2.37233">
        <ele>1.2000000476837</ele>
        <time>2023-08-08T06:07:19.000Z</time>
      </trkpt>
      <trkpt lat="50.97007" lon="2.37224">
        <ele>1.2000000476837</ele>
        <time>2023-08-08T06:07:20.000Z</time>
      </trkpt>
      <trkpt lat="50.96997" lon="2.37136">
        <ele>1.2000000476837</ele>
        <time>2023-08-08T06:07:30.000Z</time>
      </trkpt>
      <trkpt lat="50.96992" lon="2.37092">
        <ele>1.2000000476837</ele>
        <time>2023-08-08T06:07:35.000Z</time>
      </trkpt>
      <trkpt lat="50.96982" lon="2.37002">
        <ele>1.3999999761581</ele>
        <time>2023-08-08T06:07:45.000Z</time>
      </trkpt>
      <trkpt lat="50.96972" lon="2.36915">
        <ele>1.3999999761581</ele>
        <time>2023-08-08T06:07:55.000Z</time>
      </trkpt>
      <trkpt lat="50.96957" lon="2.36851">
        <ele>1.2000000476837</ele>
        <time>2023-08-08T06:08:03.000Z</time>
      </trkpt>
      <trkpt lat="50.96932" lon="2.36794">
        <ele>1.2000000476837</ele>
        <time>2023-08-08T06:08:11.000Z</time>
      </trkpt>
      <trkpt lat="50.96894" lon="2.36728">
        <ele>1.2000000476837</ele>
        <time>2023-08-08T06:08:21.000Z</time>
      </trkpt>
      <trkpt lat="50.96857" lon="2.36659">
        <ele>0.60000002384186</ele>
        <time>2023-08-08T06:08:31.000Z</time>
      </trkpt>
      <trkpt lat="50.96847" lon="2.36639">
        <ele>0.60000002384186</ele>
        <time>2023-08-08T06:08:34.000Z</time>
      </trkpt>
      <trkpt lat="50.96814" lon="2.36561">
        <ele>0.80000001192093</ele>
        <time>2023-08-08T06:08:45.000Z</time>
      </trkpt>
      <trkpt lat="50.96811" lon="2.36554">
        <ele>0.80000001192093</ele>
        <time>2023-08-08T06:08:46.000Z</time>
      </trkpt>
      <trkpt lat="50.96788" lon="2.36485">
        <ele>1</ele>
        <time>2023-08-08T06:08:55.000Z</time>
      </trkpt>
      <trkpt lat="50.96768" lon="2.36404">
        <ele>1</ele>
        <time>2023-08-08T06:09:05.000Z</time>
      </trkpt>
      <trkpt lat="50.96766" lon="2.36396">
        <ele>1</ele>
        <time>2023-08-08T06:09:06.000Z</time>
      </trkpt>
      <trkpt lat="50.96752" lon="2.3631">
        <ele>1</ele>
        <time>2023-08-08T06:09:16.000Z</time>
      </trkpt>
      <trkpt lat="50.96751" lon="2.36302">
        <ele>1</ele>
        <time>2023-08-08T06:09:17.000Z</time>
      </trkpt>
      <trkpt lat="50.96742" lon="2.36216">
        <ele>1</ele>
        <time>2023-08-08T06:09:27.000Z</time>
      </trkpt>
      <trkpt lat="50.96736" lon="2.36126">
        <ele>1</ele>
        <time>2023-08-08T06:09:37.000Z</time>
      </trkpt>
      <trkpt lat="50.96735" lon="2.36117">
        <ele>1</ele>
        <time>2023-08-08T06:09:38.000Z</time>
      </trkpt>
      <trkpt lat="50.9673" lon="2.36044">
        <ele>1</ele>
        <time>2023-08-08T06:09:46.000Z</time>
      </trkpt>
      <trkpt lat="50.96723" lon="2.35953">
        <ele>0.80000001192093</ele>
        <time>2023-08-08T06:09:56.000Z</time>
      </trkpt>
      <trkpt lat="50.9672" lon="2.35917">
        <ele>0.60000002384186</ele>
        <time>2023-08-08T06:10:00.000Z</time>
      </trkpt>
      <trkpt lat="50.96715" lon="2.35845">
        <ele>0.40000000596046</ele>
        <time>2023-08-08T06:10:08.000Z</time>
      </trkpt>
      <trkpt lat="50.96709" lon="2.35756">
        <ele>0.60000002384186</ele>
        <time>2023-08-08T06:10:18.000Z</time>
      </trkpt>
      <trkpt lat="50.96708" lon="2.35738">
        <ele>0.60000002384186</ele>
        <time>2023-08-08T06:10:20.000Z</time>
      </trkpt>
      <trkpt lat="50.96698" lon="2.35654">
        <ele>0.60000002384186</ele>
        <time>2023-08-08T06:10:30.000Z</time>
      </trkpt>
      <trkpt lat="50.96697" lon="2.35646">
        <ele>0.60000002384186</ele>
        <time>2023-08-08T06:10:31.000Z</time>
      </trkpt>
      <trkpt lat="50.96684" lon="2.3556">
        <ele>1</ele>
        <time>2023-08-08T06:10:41.000Z</time>
      </trkpt>
      <trkpt lat="50.96678" lon="2.35525">
        <ele>1</ele>
        <time>2023-08-08T06:10:45.000Z</time>
      </trkpt>
      <trkpt lat="50.96665" lon="2.35439">
        <ele>1</ele>
        <time>2023-08-08T06:10:55.000Z</time>
      </trkpt>
      <trkpt lat="50.9666" lon="2.35413">
        <ele>1</ele>
        <time>2023-08-08T06:10:58.000Z</time>
      </trkpt>
      <trkpt lat="50.96646" lon="2.35327">
        <ele>0.80000001192093</ele>
        <time>2023-08-08T06:11:08.000Z</time>
      </trkpt>
      <trkpt lat="50.96633" lon="2.35243">
        <ele>1</ele>
        <time>2023-08-08T06:11:18.000Z</time>
      </trkpt>
      <trkpt lat="50.96631" lon="2.35232">
        <ele>1</ele>
        <time>2023-08-08T06:11:19.000Z</time>
      </trkpt>
      <trkpt lat="50.96617" lon="2.35145">
        <ele>1</ele>
        <time>2023-08-08T06:11:29.000Z</time>
      </trkpt>
      <trkpt lat="50.96603" lon="2.35056">
        <ele>1</ele>
        <time>2023-08-08T06:11:39.000Z</time>
      </trkpt>
      <trkpt lat="50.9659" lon="2.34984">
        <ele>1.2000000476837</ele>
        <time>2023-08-08T06:11:47.000Z</time>
      </trkpt>
      <trkpt lat="50.96576" lon="2.34899">
        <ele>1</ele>
        <time>2023-08-08T06:11:57.000Z</time>
      </trkpt>
      <trkpt lat="50.96574" lon="2.3489">
        <ele>1</ele>
        <time>2023-08-08T06:11:58.000Z</time>
      </trkpt>
      <trkpt lat="50.96562" lon="2.34812">
        <ele>0.80000001192093</ele>
        <time>2023-08-08T06:12:07.000Z</time>
      </trkpt>
      <trkpt lat="50.9655" lon="2.34729">
        <ele>1</ele>
        <time>2023-08-08T06:12:17.000Z</time>
      </trkpt>
      <trkpt lat="50.96549" lon="2.34723">
        <ele>1</ele>
        <time>2023-08-08T06:12:18.000Z</time>
      </trkpt>
      <trkpt lat="50.96544" lon="2.34688">
        <ele>1</ele>
        <time>2023-08-08T06:12:24.000Z</time>
      </trkpt>
      <trkpt lat="50.96542" lon="2.34675">
        <ele>1</ele>
        <time>2023-08-08T06:12:29.000Z</time>
      </trkpt>
      <trkpt lat="50.96542" lon="2.34675">
        <ele>1</ele>
        <time>2023-08-08T06:12:30.000Z</time>
      </trkpt>
      <trkpt lat="50.96541" lon="2.34667">
        <ele>0.60000002384186</ele>
        <time>2023-08-08T06:12:46.000Z</time>
      </trkpt>
      <trkpt lat="50.96539" lon="2.34656">
        <ele>0.60000002384186</ele>
        <time>2023-08-08T06:12:48.000Z</time>
      </trkpt>
      <trkpt lat="50.96536" lon="2.34621">
        <ele>0.60000002384186</ele>
        <time>2023-08-08T06:12:53.000Z</time>
      </trkpt>
      <trkpt lat="50.96534" lon="2.34612">
        <ele>0.60000002384186</ele>
        <time>2023-08-08T06:12:54.000Z</time>
      </trkpt>
      <trkpt lat="50.96521" lon="2.34544">
        <ele>0.60000002384186</ele>
        <time>2023-08-08T06:13:02.000Z</time>
      </trkpt>
      <trkpt lat="50.9651" lon="2.34485">
        <ele>0.40000000596046</ele>
        <time>2023-08-08T06:13:09.000Z</time>
      </trkpt>
      <trkpt lat="50.96494" lon="2.34405">
        <ele>0.40000000596046</ele>
        <time>2023-08-08T06:13:19.000Z</time>
      </trkpt>
      <trkpt lat="50.96476" lon="2.34319">
        <ele>0.40000000596046</ele>
        <time>2023-08-08T06:13:29.000Z</time>
      </trkpt>
      <trkpt lat="50.96472" lon="2.34299">
        <ele>0.40000000596046</ele>
        <time>2023-08-08T06:13:31.000Z</time>
      </trkpt>
      <trkpt lat="50.96459" lon="2.34239">
        <ele>0.40000000596046</ele>
        <time>2023-08-08T06:13:38.000Z</time>
      </trkpt>
      <trkpt lat="50.96443" lon="2.34168">
        <ele>0.60000002384186</ele>
        <time>2023-08-08T06:13:46.000Z</time>
      </trkpt>
      <trkpt lat="50.96424" lon="2.34085">
        <ele>0.80000001192093</ele>
        <time>2023-08-08T06:13:56.000Z</time>
      </trkpt>
      <trkpt lat="50.96403" lon="2.33998">
        <ele>0.60000002384186</ele>
        <time>2023-08-08T06:14:06.000Z</time>
      </trkpt>
      <trkpt lat="50.96388" lon="2.3393">
        <ele>0.60000002384186</ele>
        <time>2023-08-08T06:14:14.000Z</time>
      </trkpt>
      <trkpt lat="50.96369" lon="2.33843">
        <ele>0.60000002384186</ele>
        <time>2023-08-08T06:14:24.000Z</time>
      </trkpt>
      <trkpt lat="50.96367" lon="2.33835">
        <ele>0.60000002384186</ele>
        <time>2023-08-08T06:14:25.000Z</time>
      </trkpt>
      <trkpt lat="50.9635" lon="2.33768">
        <ele>0.60000002384186</ele>
        <time>2023-08-08T06:14:33.000Z</time>
      </trkpt>
      <trkpt lat="50.96325" lon="2.33687">
        <ele>0.60000002384186</ele>
        <time>2023-08-08T06:14:43.000Z</time>
      </trkpt>
      <trkpt lat="50.96303" lon="2.33622">
        <ele>0.80000001192093</ele>
        <time>2023-08-08T06:14:52.000Z</time>
      </trkpt>
      <trkpt lat="50.96277" lon="2.33544">
        <ele>0.80000001192093</ele>
        <time>2023-08-08T06:15:02.000Z</time>
      </trkpt>
      <trkpt lat="50.96264" lon="2.33505">
        <ele>0.60000002384186</ele>
        <time>2023-08-08T06:15:07.000Z</time>
      </trkpt>
      <trkpt lat="50.96238" lon="2.33426">
        <ele>0.60000002384186</ele>
        <time>2023-08-08T06:15:17.000Z</time>
      </trkpt>
      <trkpt lat="50.96235" lon="2.33418">
        <ele>0.60000002384186</ele>
        <time>2023-08-08T06:15:18.000Z</time>
      </trkpt>
      <trkpt lat="50.96206" lon="2.33341">
        <ele>0.60000002384186</ele>
        <time>2023-08-08T06:15:28.000Z</time>
      </trkpt>
      <trkpt lat="50.96173" lon="2.3327">
        <ele>0.60000002384186</ele>
        <time>2023-08-08T06:15:38.000Z</time>
      </trkpt>
      <trkpt lat="50.96169" lon="2.33264">
        <ele>0.60000002384186</ele>
        <time>2023-08-08T06:15:39.000Z</time>
      </trkpt>
      <trkpt lat="50.96131" lon="2.332">
        <ele>0.60000002384186</ele>
        <time>2023-08-08T06:15:49.000Z</time>
      </trkpt>
      <trkpt lat="50.96128" lon="2.33195">
        <ele>0.60000002384186</ele>
        <time>2023-08-08T06:15:50.000Z</time>
      </trkpt>
      <trkpt lat="50.96088" lon="2.33133">
        <ele>0.60000002384186</ele>
        <time>2023-08-08T06:16:00.000Z</time>
      </trkpt>
      <trkpt lat="50.96085" lon="2.33128">
        <ele>0.60000002384186</ele>
        <time>2023-08-08T06:16:01.000Z</time>
      </trkpt>
      <trkpt lat="50.96061" lon="2.33067">
        <ele>0.60000002384186</ele>
        <time>2023-08-08T06:16:09.000Z</time>
      </trkpt>
      <trkpt lat="50.96043" lon="2.32998">
        <ele>0.40000000596046</ele>
        <time>2023-08-08T06:16:18.000Z</time>
      </trkpt>
      <trkpt lat="50.96023" lon="2.32917">
        <ele>0.40000000596046</ele>
        <time>2023-08-08T06:16:28.000Z</time>
      </trkpt>
      <trkpt lat="50.96004" lon="2.32832">
        <ele>0.20000000298023</ele>
        <time>2023-08-08T06:16:38.000Z</time>
      </trkpt>
      <trkpt lat="50.95985" lon="2.32749">
        <ele>1.5</ele>
        <time>2023-08-08T06:16:48.000Z</time>
      </trkpt>
      <trkpt lat="50.95983" lon="2.32742">
        <ele>1.6</ele>
        <time>2023-08-08T06:16:49.000Z</time>
      </trkpt>
      <trkpt lat="50.95965" lon="2.32653">
        <ele>1.9</ele>
        <time>2023-08-08T06:16:59.000Z</time>
      </trkpt>
      <trkpt lat="50.95963" lon="2.32637">
        <ele>1.7</ele>
        <time>2023-08-08T06:17:01.000Z</time>
      </trkpt>
      <trkpt lat="50.95962" lon="2.32627">
        <ele>1.6</ele>
        <time>2023-08-08T06:17:02.000Z</time>
      </trkpt>
      <trkpt lat="50.9596" lon="2.32576">
        <ele>0.20000000298023</ele>
        <time>2023-08-08T06:17:08.000Z</time>
      </trkpt>
      <trkpt lat="50.95957" lon="2.32488">
        <ele>0.20000000298023</ele>
        <time>2023-08-08T06:17:18.000Z</time>
      </trkpt>
      <trkpt lat="50.95957" lon="2.32464">
        <ele>0.20000000298023</ele>
        <time>2023-08-08T06:17:21.000Z</time>
      </trkpt>
      <trkpt lat="50.95953" lon="2.32391">
        <ele>0.20000000298023</ele>
        <time>2023-08-08T06:17:29.000Z</time>
      </trkpt>
      <trkpt lat="50.95942" lon="2.32327">
        <ele>0.20000000298023</ele>
        <time>2023-08-08T06:17:37.000Z</time>
      </trkpt>
      <trkpt lat="50.9592" lon="2.32263">
        <ele>0.20000000298023</ele>
        <time>2023-08-08T06:17:45.000Z</time>
      </trkpt>
      <trkpt lat="50.95893" lon="2.32219">
        <ele>0.20000000298023</ele>
        <time>2023-08-08T06:17:52.000Z</time>
      </trkpt>
      <trkpt lat="50.95856" lon="2.32183">
        <ele>0.20000000298023</ele>
        <time>2023-08-08T06:18:00.000Z</time>
      </trkpt>
      <trkpt lat="50.95807" lon="2.32141">
        <ele>0.20000000298023</ele>
        <time>2023-08-08T06:18:10.000Z</time>
      </trkpt>
      <trkpt lat="50.95783" lon="2.32119">
        <ele>0.20000000298023</ele>
        <time>2023-08-08T06:18:15.000Z</time>
      </trkpt>
      <trkpt lat="50.95734" lon="2.32079">
        <ele>1.6</ele>
        <time>2023-08-08T06:18:25.000Z</time>
      </trkpt>
      <trkpt lat="50.95683" lon="2.32041">
        <ele>0.20000000298023</ele>
        <time>2023-08-08T06:18:35.000Z</time>
      </trkpt>
      <trkpt lat="50.95669" lon="2.32029">
        <ele>0.20000000298023</ele>
        <time>2023-08-08T06:18:38.000Z</time>
      </trkpt>
      <trkpt lat="50.95664" lon="2.32023">
        <ele>0.40000000596046</ele>
        <time>2023-08-08T06:18:39.000Z</time>
      </trkpt>
      <trkpt lat="50.95661" lon="2.32008">
        <ele>0.20000000298023</ele>
        <time>2023-08-08T06:18:41.000Z</time>
      </trkpt>
      <trkpt lat="50.95667" lon="2.31961">
        <ele>2</ele>
        <time>2023-08-08T06:18:46.000Z</time>
      </trkpt>
      <trkpt lat="50.9567" lon="2.31934">
        <ele>-0.20000000298023</ele>
        <time>2023-08-08T06:18:49.000Z</time>
      </trkpt>
      <trkpt lat="50.95671" lon="2.31908">
        <ele>-0.40000000596046</ele>
        <time>2023-08-08T06:18:52.000Z</time>
      </trkpt>
      <trkpt lat="50.95671" lon="2.31899">
        <ele>-0.40000000596046</ele>
        <time>2023-08-08T06:18:53.000Z</time>
      </trkpt>
      <trkpt lat="50.95668" lon="2.31865">
        <ele>-0.40000000596046</ele>
        <time>2023-08-08T06:18:57.000Z</time>
      </trkpt>
      <trkpt lat="50.95666" lon="2.31856">
        <ele>-0.40000000596046</ele>
        <time>2023-08-08T06:18:58.000Z</time>
      </trkpt>
      <trkpt lat="50.95652" lon="2.31798">
        <ele>2</ele>
        <time>2023-08-08T06:19:05.000Z</time>
      </trkpt>
      <trkpt lat="50.95649" lon="2.31782">
        <ele>2</ele>
        <time>2023-08-08T06:19:07.000Z</time>
      </trkpt>
      <trkpt lat="50.95641" lon="2.31748">
        <ele>0.20000000298023</ele>
        <time>2023-08-08T06:19:11.000Z</time>
      </trkpt>
      <trkpt lat="50.95627" lon="2.31687">
        <ele>0.20000000298023</ele>
        <time>2023-08-08T06:19:18.000Z</time>
      </trkpt>
      <trkpt lat="50.95609" lon="2.31628">
        <ele>0.20000000298023</ele>
        <time>2023-08-08T06:19:25.000Z</time>
      </trkpt>
      <trkpt lat="50.9558" lon="2.3155">
        <ele>-0.40000000596046</ele>
        <time>2023-08-08T06:19:35.000Z</time>
      </trkpt>
      <trkpt lat="50.95575" lon="2.31536">
        <ele>-0.60000002384186</ele>
        <time>2023-08-08T06:19:37.000Z</time>
      </trkpt>
      <trkpt lat="50.95557" lon="2.31474">
        <ele>-0.20000000298023</ele>
        <time>2023-08-08T06:19:45.000Z</time>
      </trkpt>
      <trkpt lat="50.95534" lon="2.31391">
        <ele>-0.20000000298023</ele>
        <time>2023-08-08T06:19:56.000Z</time>
      </trkpt>
      <trkpt lat="50.95514" lon="2.31323">
        <ele>-0.20000000298023</ele>
        <time>2023-08-08T06:20:05.000Z</time>
      </trkpt>
      <trkpt lat="50.95501" lon="2.31239">
        <ele>2</ele>
        <time>2023-08-08T06:20:15.000Z</time>
      </trkpt>
      <trkpt lat="50.955" lon="2.31231">
        <ele>2</ele>
        <time>2023-08-08T06:20:16.000Z</time>
      </trkpt>
      <trkpt lat="50.95488" lon="2.31141">
        <ele>-0.20000000298023</ele>
        <time>2023-08-08T06:20:27.000Z</time>
      </trkpt>
      <trkpt lat="50.95472" lon="2.31058">
        <ele>-0.40000000596046</ele>
        <time>2023-08-08T06:20:37.000Z</time>
      </trkpt>
      <trkpt lat="50.95469" lon="2.31042">
        <ele>-0.40000000596046</ele>
        <time>2023-08-08T06:20:39.000Z</time>
      </trkpt>
      <trkpt lat="50.95448" lon="2.30966">
        <ele>-0.20000000298023</ele>
        <time>2023-08-08T06:20:49.000Z</time>
      </trkpt>
      <trkpt lat="50.95417" lon="2.30887">
        <ele>-0.80000001192093</ele>
        <time>2023-08-08T06:21:00.000Z</time>
      </trkpt>
      <trkpt lat="50.95415" lon="2.30879">
        <ele>-0.80000001192093</ele>
        <time>2023-08-08T06:21:01.000Z</time>
      </trkpt>
      <trkpt lat="50.95408" lon="2.30839">
        <ele>-0.80000001192093</ele>
        <time>2023-08-08T06:21:06.000Z</time>
      </trkpt>
      <trkpt lat="50.95407" lon="2.3083">
        <ele>-0.80000001192093</ele>
        <time>2023-08-08T06:21:07.000Z</time>
      </trkpt>
      <trkpt lat="50.95412" lon="2.30779">
        <ele>-0.80000001192093</ele>
        <time>2023-08-08T06:21:13.000Z</time>
      </trkpt>
      <trkpt lat="50.95427" lon="2.30694">
        <ele>-0.60000002384186</ele>
        <time>2023-08-08T06:21:23.000Z</time>
      </trkpt>
      <trkpt lat="50.95428" lon="2.30668">
        <ele>-0.80000001192093</ele>
        <time>2023-08-08T06:21:26.000Z</time>
      </trkpt>
      <trkpt lat="50.95426" lon="2.30641">
        <ele>-0.60000002384186</ele>
        <time>2023-08-08T06:21:29.000Z</time>
      </trkpt>
      <trkpt lat="50.95425" lon="2.30633">
        <ele>-0.80000001192093</ele>
        <time>2023-08-08T06:21:30.000Z</time>
      </trkpt>
      <trkpt lat="50.95415" lon="2.30603">
        <ele>-0.60000002384186</ele>
        <time>2023-08-08T06:21:34.000Z</time>
      </trkpt>
      <trkpt lat="50.95387" lon="2.30543">
        <ele>-0.40000000596046</ele>
        <time>2023-08-08T06:21:43.000Z</time>
      </trkpt>
      <trkpt lat="50.95359" lon="2.30483">
        <ele>-0.60000002384186</ele>
        <time>2023-08-08T06:21:52.000Z</time>
      </trkpt>
      <trkpt lat="50.95339" lon="2.30432">
        <ele>-0.60000002384186</ele>
        <time>2023-08-08T06:21:59.000Z</time>
      </trkpt>
      <trkpt lat="50.95328" lon="2.30374">
        <ele>-1</ele>
        <time>2023-08-08T06:22:06.000Z</time>
      </trkpt>
      <trkpt lat="50.95321" lon="2.30315">
        <ele>-1</ele>
        <time>2023-08-08T06:22:13.000Z</time>
      </trkpt>
      <trkpt lat="50.95306" lon="2.30271">
        <ele>-1</ele>
        <time>2023-08-08T06:22:19.000Z</time>
      </trkpt>
      <trkpt lat="50.95281" lon="2.30205">
        <ele>-1.3999999761581</ele>
        <time>2023-08-08T06:22:28.000Z</time>
      </trkpt>
      <trkpt lat="50.9528" lon="2.30198">
        <ele>-1.3999999761581</ele>
        <time>2023-08-08T06:22:29.000Z</time>
      </trkpt>
      <trkpt lat="50.95271" lon="2.30148">
        <ele>-1.3999999761581</ele>
        <time>2023-08-08T06:22:35.000Z</time>
      </trkpt>
      <trkpt lat="50.95259" lon="2.30082">
        <ele>-1</ele>
        <time>2023-08-08T06:22:43.000Z</time>
      </trkpt>
      <trkpt lat="50.95249" lon="2.30009">
        <ele>-1</ele>
        <time>2023-08-08T06:22:52.000Z</time>
      </trkpt>
      <trkpt lat="50.95246" lon="2.29948">
        <ele>-1</ele>
        <time>2023-08-08T06:22:59.000Z</time>
      </trkpt>
      <trkpt lat="50.95246" lon="2.2993">
        <ele>-1</ele>
        <time>2023-08-08T06:23:01.000Z</time>
      </trkpt>
      <trkpt lat="50.9525" lon="2.29884">
        <ele>-0.80000001192093</ele>
        <time>2023-08-08T06:23:06.000Z</time>
      </trkpt>
      <trkpt lat="50.95253" lon="2.29869">
        <ele>-0.80000001192093</ele>
        <time>2023-08-08T06:23:08.000Z</time>
      </trkpt>
      <trkpt lat="50.95264" lon="2.29806">
        <ele>-0.60000002384186</ele>
        <time>2023-08-08T06:23:15.000Z</time>
      </trkpt>
      <trkpt lat="50.95267" lon="2.29791">
        <ele>-0.80000001192093</ele>
        <time>2023-08-08T06:23:17.000Z</time>
      </trkpt>
      <trkpt lat="50.9527" lon="2.29755">
        <ele>-0.80000001192093</ele>
        <time>2023-08-08T06:23:21.000Z</time>
      </trkpt>
      <trkpt lat="50.95273" lon="2.29669">
        <ele>-0.80000001192093</ele>
        <time>2023-08-08T06:23:31.000Z</time>
      </trkpt>
      <trkpt lat="50.95273" lon="2.2966">
        <ele>-0.80000001192093</ele>
        <time>2023-08-08T06:23:32.000Z</time>
      </trkpt>
      <trkpt lat="50.95274" lon="2.29649">
        <ele>-0.80000001192093</ele>
        <time>2023-08-08T06:23:33.000Z</time>
      </trkpt>
      <trkpt lat="50.9528" lon="2.29609">
        <ele>-0.80000001192093</ele>
        <time>2023-08-08T06:23:38.000Z</time>
      </trkpt>
      <trkpt lat="50.95294" lon="2.29542">
        <ele>-0.80000001192093</ele>
        <time>2023-08-08T06:23:46.000Z</time>
      </trkpt>
      <trkpt lat="50.95302" lon="2.29468">
        <ele>-0.80000001192093</ele>
        <time>2023-08-08T06:23:55.000Z</time>
      </trkpt>
      <trkpt lat="50.95312" lon="2.29404">
        <ele>-0.80000001192093</ele>
        <time>2023-08-08T06:24:03.000Z</time>
      </trkpt>
      <trkpt lat="50.95328" lon="2.2934">
        <ele>-0.60000002384186</ele>
        <time>2023-08-08T06:24:11.000Z</time>
      </trkpt>
      <trkpt lat="50.95335" lon="2.29302">
        <ele>-0.60000002384186</ele>
        <time>2023-08-08T06:24:16.000Z</time>
      </trkpt>
      <trkpt lat="50.95337" lon="2.29295">
        <ele>-0.60000002384186</ele>
        <time>2023-08-08T06:24:17.000Z</time>
      </trkpt>
      <trkpt lat="50.9534" lon="2.29288">
        <ele>-0.60000002384186</ele>
        <time>2023-08-08T06:24:18.000Z</time>
      </trkpt>
      <trkpt lat="50.9535" lon="2.29277">
        <ele>-0.60000002384186</ele>
        <time>2023-08-08T06:24:20.000Z</time>
      </trkpt>
      <trkpt lat="50.95353" lon="2.29273">
        <ele>-0.60000002384186</ele>
        <time>2023-08-08T06:24:21.000Z</time>
      </trkpt>
      <trkpt lat="50.95387" lon="2.2924">
        <ele>-0.60000002384186</ele>
        <time>2023-08-08T06:24:28.000Z</time>
      </trkpt>
      <trkpt lat="50.95412" lon="2.29211">
        <ele>-0.60000002384186</ele>
        <time>2023-08-08T06:24:34.000Z</time>
      </trkpt>
      <trkpt lat="50.95418" lon="2.29201">
        <ele>-0.60000002384186</ele>
        <time>2023-08-08T06:24:36.000Z</time>
      </trkpt>
      <trkpt lat="50.95451" lon="2.29133">
        <ele>-0.60000002384186</ele>
        <time>2023-08-08T06:24:46.000Z</time>
      </trkpt>
      <trkpt lat="50.95476" lon="2.29077">
        <ele>-1</ele>
        <time>2023-08-08T06:24:54.000Z</time>
      </trkpt>
      <trkpt lat="50.95507" lon="2.29004">
        <ele>-1.2000000476837</ele>
        <time>2023-08-08T06:25:04.000Z</time>
      </trkpt>
      <trkpt lat="50.95534" lon="2.28935">
        <ele>-1.2000000476837</ele>
        <time>2023-08-08T06:25:13.000Z</time>
      </trkpt>
      <trkpt lat="50.95543" lon="2.28887">
        <ele>-1.2000000476837</ele>
        <time>2023-08-08T06:25:19.000Z</time>
      </trkpt>
      <trkpt lat="50.95545" lon="2.28827">
        <ele>-0.80000001192093</ele>
        <time>2023-08-08T06:25:26.000Z</time>
      </trkpt>
      <trkpt lat="50.95535" lon="2.28762">
        <ele>-1</ele>
        <time>2023-08-08T06:25:34.000Z</time>
      </trkpt>
      <trkpt lat="50.95523" lon="2.28685">
        <ele>-1</ele>
        <time>2023-08-08T06:25:43.000Z</time>
      </trkpt>
      <trkpt lat="50.95509" lon="2.28602">
        <ele>-0.80000001192093</ele>
        <time>2023-08-08T06:25:53.000Z</time>
      </trkpt>
      <trkpt lat="50.955" lon="2.28544">
        <ele>-1</ele>
        <time>2023-08-08T06:26:00.000Z</time>
      </trkpt>
      <trkpt lat="50.95493" lon="2.28464">
        <ele>-1</ele>
        <time>2023-08-08T06:26:09.000Z</time>
      </trkpt>
      <trkpt lat="50.95495" lon="2.28396">
        <ele>-1</ele>
        <time>2023-08-08T06:26:17.000Z</time>
      </trkpt>
      <trkpt lat="50.95497" lon="2.28324">
        <ele>-1</ele>
        <time>2023-08-08T06:26:25.000Z</time>
      </trkpt>
      <trkpt lat="50.95497" lon="2.28235">
        <ele>-1</ele>
        <time>2023-08-08T06:26:35.000Z</time>
      </trkpt>
      <trkpt lat="50.955" lon="2.28147">
        <ele>-1</ele>
        <time>2023-08-08T06:26:45.000Z</time>
      </trkpt>
      <trkpt lat="50.955" lon="2.2814">
        <ele>-1</ele>
        <time>2023-08-08T06:26:46.000Z</time>
      </trkpt>
      <trkpt lat="50.95507" lon="2.2805">
        <ele>-0.80000001192093</ele>
        <time>2023-08-08T06:26:56.000Z</time>
      </trkpt>
      <trkpt lat="50.95508" lon="2.28035">
        <ele>-0.80000001192093</ele>
        <time>2023-08-08T06:26:58.000Z</time>
      </trkpt>
      <trkpt lat="50.95514" lon="2.27949">
        <ele>-0.60000002384186</ele>
        <time>2023-08-08T06:27:08.000Z</time>
      </trkpt>
      <trkpt lat="50.9552" lon="2.27859">
        <ele>-0.60000002384186</ele>
        <time>2023-08-08T06:27:18.000Z</time>
      </trkpt>
      <trkpt lat="50.9552" lon="2.27848">
        <ele>-0.60000002384186</ele>
        <time>2023-08-08T06:27:19.000Z</time>
      </trkpt>
      <trkpt lat="50.95524" lon="2.27789">
        <ele>-1</ele>
        <time>2023-08-08T06:27:26.000Z</time>
      </trkpt>
      <trkpt lat="50.95528" lon="2.27718">
        <ele>-1</ele>
        <time>2023-08-08T06:27:34.000Z</time>
      </trkpt>
      <trkpt lat="50.95532" lon="2.27633">
        <ele>-0.60000002384186</ele>
        <time>2023-08-08T06:27:44.000Z</time>
      </trkpt>
      <trkpt lat="50.95536" lon="2.27566">
        <ele>-0.20000000298023</ele>
        <time>2023-08-08T06:27:52.000Z</time>
      </trkpt>
      <trkpt lat="50.95546" lon="2.27475">
        <ele>2</ele>
        <time>2023-08-08T06:28:03.000Z</time>
      </trkpt>
      <trkpt lat="50.95562" lon="2.27409">
        <ele>-0.40000000596046</ele>
        <time>2023-08-08T06:28:11.000Z</time>
      </trkpt>
      <trkpt lat="50.95583" lon="2.27352">
        <ele>-0.60000002384186</ele>
        <time>2023-08-08T06:28:19.000Z</time>
      </trkpt>
      <trkpt lat="50.95604" lon="2.27312">
        <ele>-0.40000000596046</ele>
        <time>2023-08-08T06:28:26.000Z</time>
      </trkpt>
      <trkpt lat="50.95606" lon="2.27311">
        <ele>-0.40000000596046</ele>
        <time>2023-08-08T06:28:27.000Z</time>
      </trkpt>
      <trkpt lat="50.95609" lon="2.2731">
        <ele>-0.40000000596046</ele>
        <time>2023-08-08T06:28:29.000Z</time>
      </trkpt>
      <trkpt lat="50.95614" lon="2.27308">
        <ele>-0.20000000298023</ele>
        <time>2023-08-08T06:28:34.000Z</time>
      </trkpt>
      <trkpt lat="50.9561" lon="2.27297">
        <ele>3.3</ele>
        <time>2023-08-08T06:28:37.000Z</time>
      </trkpt>
      <trkpt lat="50.95592" lon="2.2728">
        <ele>0.20000000298023</ele>
        <time>2023-08-08T06:28:42.000Z</time>
      </trkpt>
      <trkpt lat="50.9558" lon="2.27268">
        <ele>0.40000000596046</ele>
        <time>2023-08-08T06:28:45.000Z</time>
      </trkpt>
      <trkpt lat="50.95564" lon="2.27251">
        <ele>0.60000002384186</ele>
        <time>2023-08-08T06:28:49.000Z</time>
      </trkpt>
      <trkpt lat="50.95553" lon="2.2724">
        <ele>0.80000001192093</ele>
        <time>2023-08-08T06:28:52.000Z</time>
      </trkpt>
      <trkpt lat="50.95539" lon="2.27221">
        <ele>1</ele>
        <time>2023-08-08T06:28:56.000Z</time>
      </trkpt>
      <trkpt lat="50.95529" lon="2.27203">
        <ele>1.3999999761581</ele>
        <time>2023-08-08T06:28:59.000Z</time>
      </trkpt>
      <trkpt lat="50.95526" lon="2.27197">
        <ele>1.7999999523163</ele>
        <time>2023-08-08T06:29:00.000Z</time>
      </trkpt>
      <trkpt lat="50.95517" lon="2.27173">
        <ele>2.2000000476837</ele>
        <time>2023-08-08T06:29:04.000Z</time>
      </trkpt>
      <trkpt lat="50.95511" lon="2.27147">
        <ele>2.5999999046326</ele>
        <time>2023-08-08T06:29:08.000Z</time>
      </trkpt>
      <trkpt lat="50.95507" lon="2.27122">
        <ele>3.4000000953674</ele>
        <time>2023-08-08T06:29:12.000Z</time>
      </trkpt>
      <trkpt lat="50.95506" lon="2.27109">
        <ele>3.5999999046326</ele>
        <time>2023-08-08T06:29:14.000Z</time>
      </trkpt>
      <trkpt lat="50.95506" lon="2.27089">
        <ele>4.5999999046326</ele>
        <time>2023-08-08T06:29:17.000Z</time>
      </trkpt>
      <trkpt lat="50.95507" lon="2.27083">
        <ele>4.8000001907349</ele>
        <time>2023-08-08T06:29:18.000Z</time>
      </trkpt>
      <trkpt lat="50.95508" lon="2.27071">
        <ele>5</ele>
        <time>2023-08-08T06:29:20.000Z</time>
      </trkpt>
      <trkpt lat="50.95515" lon="2.27032">
        <ele>5.8000001907349</ele>
        <time>2023-08-08T06:29:26.000Z</time>
      </trkpt>
      <trkpt lat="50.95518" lon="2.27018">
        <ele>6.1999998092651</ele>
        <time>2023-08-08T06:29:28.000Z</time>
      </trkpt>
      <trkpt lat="50.95531" lon="2.26975">
        <ele>6.8000001907349</ele>
        <time>2023-08-08T06:29:35.000Z</time>
      </trkpt>
      <trkpt lat="50.95533" lon="2.26967">
        <ele>7</ele>
        <time>2023-08-08T06:29:36.000Z</time>
      </trkpt>
      <trkpt lat="50.95534" lon="2.2696">
        <ele>7</ele>
        <time>2023-08-08T06:29:37.000Z</time>
      </trkpt>
      <trkpt lat="50.95545" lon="2.26922">
        <ele>7.1999998092651</ele>
        <time>2023-08-08T06:29:43.000Z</time>
      </trkpt>
      <trkpt lat="50.95549" lon="2.26907">
        <ele>7.1999998092651</ele>
        <time>2023-08-08T06:29:45.000Z</time>
      </trkpt>
      <trkpt lat="50.95561" lon="2.26851">
        <ele>6.8000001907349</ele>
        <time>2023-08-08T06:29:52.000Z</time>
      </trkpt>
      <trkpt lat="50.95563" lon="2.26804">
        <ele>6.5999999046326</ele>
        <time>2023-08-08T06:29:56.000Z</time>
      </trkpt>
      <trkpt lat="50.95562" lon="2.26794">
        <ele>6.4000000953674</ele>
        <time>2023-08-08T06:29:58.000Z</time>
      </trkpt>
      <trkpt lat="50.95557" lon="2.26764">
        <ele>5.5999999046326</ele>
        <time>2023-08-08T06:30:01.000Z</time>
      </trkpt>
      <trkpt lat="50.95546" lon="2.26725">
        <ele>5.1999998092651</ele>
        <time>2023-08-08T06:30:04.000Z</time>
      </trkpt>
      <trkpt lat="50.95537" lon="2.26706">
        <ele>4.8000001907349</ele>
        <time>2023-08-08T06:30:06.000Z</time>
      </trkpt>
      <trkpt lat="50.95537" lon="2.26706">
        <ele>4.4000000953674</ele>
        <time>2023-08-08T06:30:07.000Z</time>
      </trkpt>
      <trkpt lat="50.95528" lon="2.26692">
        <ele>3.7999999523163</ele>
        <time>2023-08-08T06:30:09.000Z</time>
      </trkpt>
      <trkpt lat="50.95512" lon="2.2667">
        <ele>3.2000000476837</ele>
        <time>2023-08-08T06:30:11.000Z</time>
      </trkpt>
      <trkpt lat="50.95495" lon="2.26648">
        <ele>2.2000000476837</ele>
        <time>2023-08-08T06:30:14.000Z</time>
      </trkpt>
      <trkpt lat="50.95485" lon="2.26635">
        <ele>1.7999999523163</ele>
        <time>2023-08-08T06:30:16.000Z</time>
      </trkpt>
      <trkpt lat="50.95468" lon="2.26614">
        <ele>1.2000000476837</ele>
        <time>2023-08-08T06:30:19.000Z</time>
      </trkpt>
      <trkpt lat="50.95433" lon="2.26572">
        <ele>0.60000002384186</ele>
        <time>2023-08-08T06:30:26.000Z</time>
      </trkpt>
      <trkpt lat="50.95404" lon="2.26532">
        <ele>0.20000000298023</ele>
        <time>2023-08-08T06:30:32.000Z</time>
      </trkpt>
      <trkpt lat="50.95393" lon="2.26513">
        <ele>2.1</ele>
        <time>2023-08-08T06:30:35.000Z</time>
      </trkpt>
      <trkpt lat="50.95373" lon="2.26455">
        <ele>-0.20000000298023</ele>
        <time>2023-08-08T06:30:42.000Z</time>
      </trkpt>
      <trkpt lat="50.95365" lon="2.26385">
        <ele>-0.20000000298023</ele>
        <time>2023-08-08T06:30:50.000Z</time>
      </trkpt>
      <trkpt lat="50.95358" lon="2.26306">
        <ele>2.8</ele>
        <time>2023-08-08T06:30:59.000Z</time>
      </trkpt>
      <trkpt lat="50.95353" lon="2.26235">
        <ele>0.40000000596046</ele>
        <time>2023-08-08T06:31:07.000Z</time>
      </trkpt>
      <trkpt lat="50.95356" lon="2.26186">
        <ele>0.40000000596046</ele>
        <time>2023-08-08T06:31:13.000Z</time>
      </trkpt>
      <trkpt lat="50.95363" lon="2.26153">
        <ele>0.40000000596046</ele>
        <time>2023-08-08T06:31:17.000Z</time>
      </trkpt>
      <trkpt lat="50.95368" lon="2.26139">
        <ele>0.40000000596046</ele>
        <time>2023-08-08T06:31:19.000Z</time>
      </trkpt>
      <trkpt lat="50.95388" lon="2.26079">
        <ele>1</ele>
        <time>2023-08-08T06:31:27.000Z</time>
      </trkpt>
      <trkpt lat="50.95412" lon="2.26002">
        <ele>0.80000001192093</ele>
        <time>2023-08-08T06:31:37.000Z</time>
      </trkpt>
      <trkpt lat="50.95426" lon="2.25935">
        <ele>1</ele>
        <time>2023-08-08T06:31:45.000Z</time>
      </trkpt>
      <trkpt lat="50.9543" lon="2.25875">
        <ele>1</ele>
        <time>2023-08-08T06:31:52.000Z</time>
      </trkpt>
      <trkpt lat="50.95427" lon="2.25808">
        <ele>1.2000000476837</ele>
        <time>2023-08-08T06:32:00.000Z</time>
      </trkpt>
      <trkpt lat="50.95416" lon="2.2572">
        <ele>1.2000000476837</ele>
        <time>2023-08-08T06:32:10.000Z</time>
      </trkpt>
      <trkpt lat="50.95414" lon="2.25711">
        <ele>1.2000000476837</ele>
        <time>2023-08-08T06:32:12.000Z</time>
      </trkpt>
      <trkpt lat="50.95402" lon="2.25623">
        <ele>1.2000000476837</ele>
        <time>2023-08-08T06:32:21.000Z</time>
      </trkpt>
      <trkpt lat="50.95393" lon="2.25554">
        <ele>1.3999999761581</ele>
        <time>2023-08-08T06:32:30.000Z</time>
      </trkpt>
      <trkpt lat="50.95388" lon="2.25519">
        <ele>1.3999999761581</ele>
        <time>2023-08-08T06:32:33.000Z</time>
      </trkpt>
      <trkpt lat="50.95378" lon="2.25442">
        <ele>1.3999999761581</ele>
        <time>2023-08-08T06:32:42.000Z</time>
      </trkpt>
      <trkpt lat="50.95366" lon="2.25355">
        <ele>1.3999999761581</ele>
        <time>2023-08-08T06:32:52.000Z</time>
      </trkpt>
      <trkpt lat="50.95363" lon="2.25328">
        <ele>1.3999999761581</ele>
        <time>2023-08-08T06:32:55.000Z</time>
      </trkpt>
      <trkpt lat="50.95352" lon="2.25248">
        <ele>1.3999999761581</ele>
        <time>2023-08-08T06:33:04.000Z</time>
      </trkpt>
      <trkpt lat="50.95344" lon="2.25172">
        <ele>1.3999999761581</ele>
        <time>2023-08-08T06:33:12.000Z</time>
      </trkpt>
      <trkpt lat="50.95335" lon="2.25081">
        <ele>1.2000000476837</ele>
        <time>2023-08-08T06:33:22.000Z</time>
      </trkpt>
      <trkpt lat="50.9533" lon="2.25033">
        <ele>1.2000000476837</ele>
        <time>2023-08-08T06:33:27.000Z</time>
      </trkpt>
      <trkpt lat="50.95321" lon="2.24941">
        <ele>1.3999999761581</ele>
        <time>2023-08-08T06:33:37.000Z</time>
      </trkpt>
      <trkpt lat="50.95319" lon="2.24922">
        <ele>1.3999999761581</ele>
        <time>2023-08-08T06:33:39.000Z</time>
      </trkpt>
      <trkpt lat="50.9531" lon="2.24833">
        <ele>1.2000000476837</ele>
        <time>2023-08-08T06:33:48.000Z</time>
      </trkpt>
      <trkpt lat="50.95308" lon="2.24823">
        <ele>1.2000000476837</ele>
        <time>2023-08-08T06:33:49.000Z</time>
      </trkpt>
      <trkpt lat="50.95302" lon="2.24756">
        <ele>1.2000000476837</ele>
        <time>2023-08-08T06:33:56.000Z</time>
      </trkpt>
      <trkpt lat="50.95293" lon="2.24671">
        <ele>1.3999999761581</ele>
        <time>2023-08-08T06:34:05.000Z</time>
      </trkpt>
      <trkpt lat="50.95293" lon="2.24662">
        <ele>1.3999999761581</ele>
        <time>2023-08-08T06:34:06.000Z</time>
      </trkpt>
      <trkpt lat="50.95286" lon="2.24597">
        <ele>1.6000000238419</ele>
        <time>2023-08-08T06:34:14.000Z</time>
      </trkpt>
      <trkpt lat="50.95278" lon="2.24515">
        <ele>1.6000000238419</ele>
        <time>2023-08-08T06:34:23.000Z</time>
      </trkpt>
      <trkpt lat="50.95269" lon="2.24424">
        <ele>1.3999999761581</ele>
        <time>2023-08-08T06:34:32.000Z</time>
      </trkpt>
      <trkpt lat="50.95267" lon="2.24406">
        <ele>1.3999999761581</ele>
        <time>2023-08-08T06:34:34.000Z</time>
      </trkpt>
      <trkpt lat="50.95257" lon="2.24316">
        <ele>1.6000000238419</ele>
        <time>2023-08-08T06:34:44.000Z</time>
      </trkpt>
      <trkpt lat="50.95256" lon="2.24298">
        <ele>1.7999999523163</ele>
        <time>2023-08-08T06:34:46.000Z</time>
      </trkpt>
      <trkpt lat="50.95246" lon="2.24208">
        <ele>1.6000000238419</ele>
        <time>2023-08-08T06:34:56.000Z</time>
      </trkpt>
      <trkpt lat="50.95244" lon="2.2419">
        <ele>1.6000000238419</ele>
        <time>2023-08-08T06:34:58.000Z</time>
      </trkpt>
      <trkpt lat="50.95237" lon="2.24121">
        <ele>1.7999999523163</ele>
        <time>2023-08-08T06:35:07.000Z</time>
      </trkpt>
      <trkpt lat="50.95228" lon="2.24031">
        <ele>1.7999999523163</ele>
        <time>2023-08-08T06:35:16.000Z</time>
      </trkpt>
      <trkpt lat="50.95227" lon="2.24013">
        <ele>1.7999999523163</ele>
        <time>2023-08-08T06:35:18.000Z</time>
      </trkpt>
      <trkpt lat="50.95217" lon="2.23921">
        <ele>1.7999999523163</ele>
        <time>2023-08-08T06:35:28.000Z</time>
      </trkpt>
      <trkpt lat="50.95216" lon="2.23903">
        <ele>1.7999999523163</ele>
        <time>2023-08-08T06:35:31.000Z</time>
      </trkpt>
      <trkpt lat="50.95206" lon="2.23813">
        <ele>1.6000000238419</ele>
        <time>2023-08-08T06:35:40.000Z</time>
      </trkpt>
      <trkpt lat="50.95204" lon="2.23794">
        <ele>1.6000000238419</ele>
        <time>2023-08-08T06:35:42.000Z</time>
      </trkpt>
      <trkpt lat="50.95195" lon="2.23701">
        <ele>1.3999999761581</ele>
        <time>2023-08-08T06:35:52.000Z</time>
      </trkpt>
      <trkpt lat="50.95194" lon="2.23692">
        <ele>1.3999999761581</ele>
        <time>2023-08-08T06:35:53.000Z</time>
      </trkpt>
      <trkpt lat="50.95187" lon="2.23622">
        <ele>1.7999999523163</ele>
        <time>2023-08-08T06:36:01.000Z</time>
      </trkpt>
      <trkpt lat="50.95177" lon="2.23529">
        <ele>1.7999999523163</ele>
        <time>2023-08-08T06:36:11.000Z</time>
      </trkpt>
      <trkpt lat="50.95176" lon="2.23511">
        <ele>1.7999999523163</ele>
        <time>2023-08-08T06:36:13.000Z</time>
      </trkpt>
      <trkpt lat="50.95167" lon="2.23422">
        <ele>1.7999999523163</ele>
        <time>2023-08-08T06:36:23.000Z</time>
      </trkpt>
      <trkpt lat="50.95166" lon="2.23413">
        <ele>1.7999999523163</ele>
        <time>2023-08-08T06:36:24.000Z</time>
      </trkpt>
      <trkpt lat="50.95156" lon="2.23324">
        <ele>2</ele>
        <time>2023-08-08T06:36:34.000Z</time>
      </trkpt>
      <trkpt lat="50.95148" lon="2.23245">
        <ele>1.7999999523163</ele>
        <time>2023-08-08T06:36:43.000Z</time>
      </trkpt>
      <trkpt lat="50.95137" lon="2.23158">
        <ele>1.7999999523163</ele>
        <time>2023-08-08T06:36:53.000Z</time>
      </trkpt>
      <trkpt lat="50.95136" lon="2.2315">
        <ele>1.7999999523163</ele>
        <time>2023-08-08T06:36:54.000Z</time>
      </trkpt>
      <trkpt lat="50.95128" lon="2.2308">
        <ele>2</ele>
        <time>2023-08-08T06:37:02.000Z</time>
      </trkpt>
      <trkpt lat="50.95118" lon="2.22994">
        <ele>2</ele>
        <time>2023-08-08T06:37:12.000Z</time>
      </trkpt>
      <trkpt lat="50.95117" lon="2.22986">
        <ele>2</ele>
        <time>2023-08-08T06:37:13.000Z</time>
      </trkpt>
      <trkpt lat="50.95107" lon="2.229">
        <ele>2</ele>
        <time>2023-08-08T06:37:23.000Z</time>
      </trkpt>
      <trkpt lat="50.95104" lon="2.22875">
        <ele>2</ele>
        <time>2023-08-08T06:37:26.000Z</time>
      </trkpt>
      <trkpt lat="50.95096" lon="2.22806">
        <ele>2</ele>
        <time>2023-08-08T06:37:34.000Z</time>
      </trkpt>
      <trkpt lat="50.95086" lon="2.22716">
        <ele>2</ele>
        <time>2023-08-08T06:37:44.000Z</time>
      </trkpt>
      <trkpt lat="50.95075" lon="2.22631">
        <ele>1.7999999523163</ele>
        <time>2023-08-08T06:37:53.000Z</time>
      </trkpt>
      <trkpt lat="50.95064" lon="2.22547">
        <ele>1.7999999523163</ele>
        <time>2023-08-08T06:38:02.000Z</time>
      </trkpt>
      <trkpt lat="50.95057" lon="2.22493">
        <ele>2.2000000476837</ele>
        <time>2023-08-08T06:38:08.000Z</time>
      </trkpt>
      <trkpt lat="50.95056" lon="2.22484">
        <ele>2.2000000476837</ele>
        <time>2023-08-08T06:38:09.000Z</time>
      </trkpt>
      <trkpt lat="50.95048" lon="2.22411">
        <ele>2</ele>
        <time>2023-08-08T06:38:17.000Z</time>
      </trkpt>
      <trkpt lat="50.9504" lon="2.2234">
        <ele>2.2000000476837</ele>
        <time>2023-08-08T06:38:25.000Z</time>
      </trkpt>
      <trkpt lat="50.95029" lon="2.22251">
        <ele>2.2000000476837</ele>
        <time>2023-08-08T06:38:35.000Z</time>
      </trkpt>
      <trkpt lat="50.95022" lon="2.2219">
        <ele>2</ele>
        <time>2023-08-08T06:38:42.000Z</time>
      </trkpt>
      <trkpt lat="50.95014" lon="2.22128">
        <ele>2.2000000476837</ele>
        <time>2023-08-08T06:38:50.000Z</time>
      </trkpt>
      <trkpt lat="50.95005" lon="2.22049">
        <ele>2.2000000476837</ele>
        <time>2023-08-08T06:38:58.000Z</time>
      </trkpt>
      <trkpt lat="50.94997" lon="2.21973">
        <ele>2.2000000476837</ele>
        <time>2023-08-08T06:39:07.000Z</time>
      </trkpt>
      <trkpt lat="50.94985" lon="2.21877">
        <ele>1.7999999523163</ele>
        <time>2023-08-08T06:39:18.000Z</time>
      </trkpt>
      <trkpt lat="50.94983" lon="2.2186">
        <ele>1.7999999523163</ele>
        <time>2023-08-08T06:39:20.000Z</time>
      </trkpt>
      <trkpt lat="50.94974" lon="2.21782">
        <ele>1.7999999523163</ele>
        <time>2023-08-08T06:39:29.000Z</time>
      </trkpt>
      <trkpt lat="50.94964" lon="2.21703">
        <ele>2</ele>
        <time>2023-08-08T06:39:38.000Z</time>
      </trkpt>
      <trkpt lat="50.94953" lon="2.21611">
        <ele>1.7999999523163</ele>
        <time>2023-08-08T06:39:49.000Z</time>
      </trkpt>
      <trkpt lat="50.94942" lon="2.21524">
        <ele>2</ele>
        <time>2023-08-08T06:39:59.000Z</time>
      </trkpt>
      <trkpt lat="50.94932" lon="2.21437">
        <ele>2</ele>
        <time>2023-08-08T06:40:09.000Z</time>
      </trkpt>
      <trkpt lat="50.94923" lon="2.21361">
        <ele>2</ele>
        <time>2023-08-08T06:40:18.000Z</time>
      </trkpt>
      <trkpt lat="50.94914" lon="2.21275">
        <ele>1.7999999523163</ele>
        <time>2023-08-08T06:40:28.000Z</time>
      </trkpt>
      <trkpt lat="50.94904" lon="2.21187">
        <ele>1.6000000238419</ele>
        <time>2023-08-08T06:40:38.000Z</time>
      </trkpt>
      <trkpt lat="50.94902" lon="2.2117">
        <ele>1.3999999761581</ele>
        <time>2023-08-08T06:40:40.000Z</time>
      </trkpt>
      <trkpt lat="50.94891" lon="2.21079">
        <ele>1.3999999761581</ele>
        <time>2023-08-08T06:40:51.000Z</time>
      </trkpt>
      <trkpt lat="50.94881" lon="2.21014">
        <ele>1.3999999761581</ele>
        <time>2023-08-08T06:40:59.000Z</time>
      </trkpt>
      <trkpt lat="50.94875" lon="2.20945">
        <ele>1.6000000238419</ele>
        <time>2023-08-08T06:41:07.000Z</time>
      </trkpt>
      <trkpt lat="50.94865" lon="2.20852">
        <ele>1.6000000238419</ele>
        <time>2023-08-08T06:41:17.000Z</time>
      </trkpt>
      <trkpt lat="50.94855" lon="2.20767">
        <ele>1.3999999761581</ele>
        <time>2023-08-08T06:41:26.000Z</time>
      </trkpt>
      <trkpt lat="50.94851" lon="2.2073">
        <ele>1.3999999761581</ele>
        <time>2023-08-08T06:41:30.000Z</time>
      </trkpt>
      <trkpt lat="50.9484" lon="2.20639">
        <ele>1.6000000238419</ele>
        <time>2023-08-08T06:41:40.000Z</time>
      </trkpt>
      <trkpt lat="50.9484" lon="2.20639">
        <ele>1.6000000238419</ele>
        <time>2023-08-08T06:41:41.000Z</time>
      </trkpt>
      <trkpt lat="50.94829" lon="2.2055">
        <ele>1.6000000238419</ele>
        <time>2023-08-08T06:41:51.000Z</time>
      </trkpt>
      <trkpt lat="50.94825" lon="2.20525">
        <ele>1.6000000238419</ele>
        <time>2023-08-08T06:41:53.000Z</time>
      </trkpt>
      <trkpt lat="50.94816" lon="2.20447">
        <ele>1.6000000238419</ele>
        <time>2023-08-08T06:42:03.000Z</time>
      </trkpt>
      <trkpt lat="50.94804" lon="2.2036">
        <ele>1.7999999523163</ele>
        <time>2023-08-08T06:42:13.000Z</time>
      </trkpt>
      <trkpt lat="50.94803" lon="2.20353">
        <ele>1.7999999523163</ele>
        <time>2023-08-08T06:42:14.000Z</time>
      </trkpt>
      <trkpt lat="50.94792" lon="2.20267">
        <ele>1.6000000238419</ele>
        <time>2023-08-08T06:42:23.000Z</time>
      </trkpt>
      <trkpt lat="50.9478" lon="2.20182">
        <ele>1.7999999523163</ele>
        <time>2023-08-08T06:42:33.000Z</time>
      </trkpt>
      <trkpt lat="50.94771" lon="2.20118">
        <ele>1.6000000238419</ele>
        <time>2023-08-08T06:42:41.000Z</time>
      </trkpt>
      <trkpt lat="50.94763" lon="2.2006">
        <ele>1.6000000238419</ele>
        <time>2023-08-08T06:42:48.000Z</time>
      </trkpt>
      <trkpt lat="50.94749" lon="2.20001">
        <ele>1.6000000238419</ele>
        <time>2023-08-08T06:42:55.000Z</time>
      </trkpt>
      <trkpt lat="50.94726" lon="2.19932">
        <ele>2</ele>
        <time>2023-08-08T06:43:04.000Z</time>
      </trkpt>
      <trkpt lat="50.94717" lon="2.19907">
        <ele>2.2000000476837</ele>
        <time>2023-08-08T06:43:08.000Z</time>
      </trkpt>
      <trkpt lat="50.94717" lon="2.19902">
        <ele>2.2000000476837</ele>
        <time>2023-08-08T06:43:09.000Z</time>
      </trkpt>
      <trkpt lat="50.94719" lon="2.19897">
        <ele>2.2000000476837</ele>
        <time>2023-08-08T06:43:10.000Z</time>
      </trkpt>
      <trkpt lat="50.94725" lon="2.19889">
        <ele>2.2000000476837</ele>
        <time>2023-08-08T06:43:12.000Z</time>
      </trkpt>
      <trkpt lat="50.94757" lon="2.19863">
        <ele>2.7999999523163</ele>
        <time>2023-08-08T06:43:20.000Z</time>
      </trkpt>
      <trkpt lat="50.94757" lon="2.19863">
        <ele>2.7999999523163</ele>
        <time>2023-08-08T06:43:21.000Z</time>
      </trkpt>
      <trkpt lat="50.94762" lon="2.19853">
        <ele>2.7999999523163</ele>
        <time>2023-08-08T06:43:22.000Z</time>
      </trkpt>
      <trkpt lat="50.94763" lon="2.19847">
        <ele>2.7999999523163</ele>
        <time>2023-08-08T06:43:23.000Z</time>
      </trkpt>
      <trkpt lat="50.94764" lon="2.19833">
        <ele>2.7999999523163</ele>
        <time>2023-08-08T06:43:25.000Z</time>
      </trkpt>
      <trkpt lat="50.94763" lon="2.19803">
        <ele>2.7999999523163</ele>
        <time>2023-08-08T06:43:29.000Z</time>
      </trkpt>
      <trkpt lat="50.94761" lon="2.19782">
        <ele>2.7999999523163</ele>
        <time>2023-08-08T06:43:32.000Z</time>
      </trkpt>
      <trkpt lat="50.94761" lon="2.19769">
        <ele>2.7999999523163</ele>
        <time>2023-08-08T06:43:34.000Z</time>
      </trkpt>
      <trkpt lat="50.94761" lon="2.19763">
        <ele>2.7999999523163</ele>
        <time>2023-08-08T06:43:35.000Z</time>
      </trkpt>
      <trkpt lat="50.9476" lon="2.19744">
        <ele>2.7999999523163</ele>
        <time>2023-08-08T06:43:39.000Z</time>
      </trkpt>
      <trkpt lat="50.94762" lon="2.19743">
        <ele>2.7999999523163</ele>
        <time>2023-08-08T06:43:40.000Z</time>
      </trkpt>
      <trkpt lat="50.94764" lon="2.19743">
        <ele>3</ele>
        <time>2023-08-08T06:43:41.000Z</time>
      </trkpt>
      <trkpt lat="50.94771" lon="2.19745">
        <ele>3</ele>
        <time>2023-08-08T06:43:43.000Z</time>
      </trkpt>
      <trkpt lat="50.94793" lon="2.19745">
        <ele>2.7999999523163</ele>
        <time>2023-08-08T06:43:48.000Z</time>
      </trkpt>
      <trkpt lat="50.94806" lon="2.19743">
        <ele>2.7999999523163</ele>
        <time>2023-08-08T06:43:51.000Z</time>
      </trkpt>
      <trkpt lat="50.94816" lon="2.19742">
        <ele>2.7999999523163</ele>
        <time>2023-08-08T06:43:53.000Z</time>
      </trkpt>
      <trkpt lat="50.94849" lon="2.19748">
        <ele>3</ele>
        <time>2023-08-08T06:44:01.000Z</time>
      </trkpt>
      <trkpt lat="50.94879" lon="2.1977">
        <ele>3</ele>
        <time>2023-08-08T06:44:08.000Z</time>
      </trkpt>
      <trkpt lat="50.94899" lon="2.19786">
        <ele>3</ele>
        <time>2023-08-08T06:44:13.000Z</time>
      </trkpt>
      <trkpt lat="50.94903" lon="2.19786">
        <ele>3</ele>
        <time>2023-08-08T06:44:14.000Z</time>
      </trkpt>
      <trkpt lat="50.94909" lon="2.19778">
        <ele>3</ele>
        <time>2023-08-08T06:44:16.000Z</time>
      </trkpt>
      <trkpt lat="50.94911" lon="2.19772">
        <ele>3</ele>
        <time>2023-08-08T06:44:17.000Z</time>
      </trkpt>
      <trkpt lat="50.94915" lon="2.19753">
        <ele>3</ele>
        <time>2023-08-08T06:44:20.000Z</time>
      </trkpt>
      <trkpt lat="50.94924" lon="2.19718">
        <ele>2.7999999523163</ele>
        <time>2023-08-08T06:44:25.000Z</time>
      </trkpt>
      <trkpt lat="50.94937" lon="2.19677">
        <ele>1.7999999523163</ele>
        <time>2023-08-08T06:44:31.000Z</time>
      </trkpt>
      <trkpt lat="50.94947" lon="2.19651">
        <ele>1.6000000238419</ele>
        <time>2023-08-08T06:44:35.000Z</time>
      </trkpt>
      <trkpt lat="50.94954" lon="2.1963">
        <ele>1.3999999761581</ele>
        <time>2023-08-08T06:44:38.000Z</time>
      </trkpt>
      <trkpt lat="50.94971" lon="2.19583">
        <ele>1.2000000476837</ele>
        <time>2023-08-08T06:44:45.000Z</time>
      </trkpt>
      <trkpt lat="50.94973" lon="2.19575">
        <ele>1.2000000476837</ele>
        <time>2023-08-08T06:44:46.000Z</time>
      </trkpt>
      <trkpt lat="50.9498" lon="2.19554">
        <ele>1.2000000476837</ele>
        <time>2023-08-08T06:44:49.000Z</time>
      </trkpt>
      <trkpt lat="50.94985" lon="2.19541">
        <ele>1.3999999761581</ele>
        <time>2023-08-08T06:44:51.000Z</time>
      </trkpt>
      <trkpt lat="50.94989" lon="2.19536">
        <ele>1.6000000238419</ele>
        <time>2023-08-08T06:44:52.000Z</time>
      </trkpt>
      <trkpt lat="50.94993" lon="2.19532">
        <ele>1.6000000238419</ele>
        <time>2023-08-08T06:44:53.000Z</time>
      </trkpt>
      <trkpt lat="50.95007" lon="2.19526">
        <ele>1.3999999761581</ele>
        <time>2023-08-08T06:44:56.000Z</time>
      </trkpt>
      <trkpt lat="50.95017" lon="2.19522">
        <ele>1.6000000238419</ele>
        <time>2023-08-08T06:44:58.000Z</time>
      </trkpt>
      <trkpt lat="50.9504" lon="2.1951">
        <ele>1.3999999761581</ele>
        <time>2023-08-08T06:45:03.000Z</time>
      </trkpt>
      <trkpt lat="50.95073" lon="2.19494">
        <ele>1.3999999761581</ele>
        <time>2023-08-08T06:45:10.000Z</time>
      </trkpt>
      <trkpt lat="50.95086" lon="2.19489">
        <ele>1.6000000238419</ele>
        <time>2023-08-08T06:45:13.000Z</time>
      </trkpt>
      <trkpt lat="50.95096" lon="2.19483">
        <ele>1.6000000238419</ele>
        <time>2023-08-08T06:45:15.000Z</time>
      </trkpt>
      <trkpt lat="50.95104" lon="2.19478">
        <ele>1.3999999761581</ele>
        <time>2023-08-08T06:45:17.000Z</time>
      </trkpt>
      <trkpt lat="50.95123" lon="2.19472">
        <ele>1.3999999761581</ele>
        <time>2023-08-08T06:45:21.000Z</time>
      </trkpt>
      <trkpt lat="50.95132" lon="2.19469">
        <ele>1.3999999761581</ele>
        <time>2023-08-08T06:45:24.000Z</time>
      </trkpt>
      <trkpt lat="50.95147" lon="2.19461">
        <ele>1.6000000238419</ele>
        <time>2023-08-08T06:45:28.000Z</time>
      </trkpt>
      <trkpt lat="50.95179" lon="2.19448">
        <ele>1.6000000238419</ele>
        <time>2023-08-08T06:45:35.000Z</time>
      </trkpt>
      <trkpt lat="50.95201" lon="2.19437">
        <ele>1.7999999523163</ele>
        <time>2023-08-08T06:45:41.000Z</time>
      </trkpt>
      <trkpt lat="50.95212" lon="2.19412">
        <ele>1.7999999523163</ele>
        <time>2023-08-08T06:45:46.000Z</time>
      </trkpt>
      <trkpt lat="50.95212" lon="2.19405">
        <ele>1.7999999523163</ele>
        <time>2023-08-08T06:45:47.000Z</time>
      </trkpt>
      <trkpt lat="50.95209" lon="2.19382">
        <ele>2</ele>
        <time>2023-08-08T06:45:50.000Z</time>
      </trkpt>
      <trkpt lat="50.95202" lon="2.19351">
        <ele>2</ele>
        <time>2023-08-08T06:45:54.000Z</time>
      </trkpt>
      <trkpt lat="50.95198" lon="2.1933">
        <ele>1.7999999523163</ele>
        <time>2023-08-08T06:45:57.000Z</time>
      </trkpt>
      <trkpt lat="50.9518" lon="2.19259">
        <ele>1.3999999761581</ele>
        <time>2023-08-08T06:46:07.000Z</time>
      </trkpt>
      <trkpt lat="50.95172" lon="2.19216">
        <ele>1.6000000238419</ele>
        <time>2023-08-08T06:46:14.000Z</time>
      </trkpt>
      <trkpt lat="50.9518" lon="2.19209">
        <ele>1.6000000238419</ele>
        <time>2023-08-08T06:46:17.000Z</time>
      </trkpt>
      <trkpt lat="50.95201" lon="2.19205">
        <ele>1.6000000238419</ele>
        <time>2023-08-08T06:46:22.000Z</time>
      </trkpt>
      <trkpt lat="50.95241" lon="2.19198">
        <ele>1.7999999523163</ele>
        <time>2023-08-08T06:46:30.000Z</time>
      </trkpt>
      <trkpt lat="50.95279" lon="2.192">
        <ele>1.7999999523163</ele>
        <time>2023-08-08T06:46:37.000Z</time>
      </trkpt>
      <trkpt lat="50.95335" lon="2.19218">
        <ele>2.2000000476837</ele>
        <time>2023-08-08T06:46:47.000Z</time>
      </trkpt>
      <trkpt lat="50.9534" lon="2.19221">
        <ele>2.2000000476837</ele>
        <time>2023-08-08T06:46:48.000Z</time>
      </trkpt>
      <trkpt lat="50.95392" lon="2.19245">
        <ele>2</ele>
        <time>2023-08-08T06:46:57.000Z</time>
      </trkpt>
      <trkpt lat="50.95432" lon="2.19269">
        <ele>1.7999999523163</ele>
        <time>2023-08-08T06:47:04.000Z</time>
      </trkpt>
      <trkpt lat="50.95461" lon="2.19282">
        <ele>1.7999999523163</ele>
        <time>2023-08-08T06:47:09.000Z</time>
      </trkpt>
      <trkpt lat="50.95472" lon="2.19283">
        <ele>1.7999999523163</ele>
        <time>2023-08-08T06:47:11.000Z</time>
      </trkpt>
      <trkpt lat="50.95495" lon="2.19287">
        <ele>1.7999999523163</ele>
        <time>2023-08-08T06:47:15.000Z</time>
      </trkpt>
      <trkpt lat="50.95507" lon="2.19286">
        <ele>1.7999999523163</ele>
        <time>2023-08-08T06:47:17.000Z</time>
      </trkpt>
      <trkpt lat="50.95513" lon="2.19284">
        <ele>1.7999999523163</ele>
        <time>2023-08-08T06:47:18.000Z</time>
      </trkpt>
      <trkpt lat="50.95528" lon="2.19274">
        <ele>1.7999999523163</ele>
        <time>2023-08-08T06:47:21.000Z</time>
      </trkpt>
      <trkpt lat="50.95538" lon="2.19264">
        <ele>2</ele>
        <time>2023-08-08T06:47:23.000Z</time>
      </trkpt>
      <trkpt lat="50.95551" lon="2.19246">
        <ele>2</ele>
        <time>2023-08-08T06:47:26.000Z</time>
      </trkpt>
      <trkpt lat="50.95583" lon="2.19185">
        <ele>2.2000000476837</ele>
        <time>2023-08-08T06:47:35.000Z</time>
      </trkpt>
      <trkpt lat="50.95611" lon="2.19129">
        <ele>2.4000000953674</ele>
        <time>2023-08-08T06:47:43.000Z</time>
      </trkpt>
      <trkpt lat="50.95622" lon="2.19108">
        <ele>2.5999999046326</ele>
        <time>2023-08-08T06:47:46.000Z</time>
      </trkpt>
      <trkpt lat="50.95652" lon="2.19047">
        <ele>2.7999999523163</ele>
        <time>2023-08-08T06:47:55.000Z</time>
      </trkpt>
      <trkpt lat="50.95682" lon="2.18985">
        <ele>2.5999999046326</ele>
        <time>2023-08-08T06:48:04.000Z</time>
      </trkpt>
      <trkpt lat="50.9571" lon="2.18922">
        <ele>2.2000000476837</ele>
        <time>2023-08-08T06:48:13.000Z</time>
      </trkpt>
      <trkpt lat="50.95737" lon="2.18848">
        <ele>2.4000000953674</ele>
        <time>2023-08-08T06:48:23.000Z</time>
      </trkpt>
      <trkpt lat="50.9574" lon="2.18842">
        <ele>2.4000000953674</ele>
        <time>2023-08-08T06:48:24.000Z</time>
      </trkpt>
      <trkpt lat="50.95754" lon="2.1881">
        <ele>2.7999999523163</ele>
        <time>2023-08-08T06:48:29.000Z</time>
      </trkpt>
      <trkpt lat="50.95756" lon="2.18804">
        <ele>2.7999999523163</ele>
        <time>2023-08-08T06:48:30.000Z</time>
      </trkpt>
      <trkpt lat="50.95774" lon="2.18764">
        <ele>3.7999999523163</ele>
        <time>2023-08-08T06:48:37.000Z</time>
      </trkpt>
      <trkpt lat="50.9578" lon="2.18753">
        <ele>4</ele>
        <time>2023-08-08T06:48:39.000Z</time>
      </trkpt>
      <trkpt lat="50.95795" lon="2.18724">
        <ele>5.1999998092651</ele>
        <time>2023-08-08T06:48:45.000Z</time>
      </trkpt>
      <trkpt lat="50.95797" lon="2.1872">
        <ele>5.4000000953674</ele>
        <time>2023-08-08T06:48:46.000Z</time>
      </trkpt>
      <trkpt lat="50.95817" lon="2.18683">
        <ele>6.4000000953674</ele>
        <time>2023-08-08T06:48:54.000Z</time>
      </trkpt>
      <trkpt lat="50.9584" lon="2.18646">
        <ele>7.4000000953674</ele>
        <time>2023-08-08T06:49:02.000Z</time>
      </trkpt>
      <trkpt lat="50.95846" lon="2.18635">
        <ele>7.5999999046326</ele>
        <time>2023-08-08T06:49:04.000Z</time>
      </trkpt>
      <trkpt lat="50.95867" lon="2.18602">
        <ele>8</ele>
        <time>2023-08-08T06:49:11.000Z</time>
      </trkpt>
      <trkpt lat="50.95896" lon="2.18558">
        <ele>8.3999996185303</ele>
        <time>2023-08-08T06:49:19.000Z</time>
      </trkpt>
      <trkpt lat="50.95903" lon="2.18547">
        <ele>8.6000003814697</ele>
        <time>2023-08-08T06:49:21.000Z</time>
      </trkpt>
      <trkpt lat="50.95935" lon="2.18499">
        <ele>8.8000001907349</ele>
        <time>2023-08-08T06:49:29.000Z</time>
      </trkpt>
      <trkpt lat="50.9597" lon="2.18447">
        <ele>8.1999998092651</ele>
        <time>2023-08-08T06:49:37.000Z</time>
      </trkpt>
      <trkpt lat="50.95998" lon="2.18411">
        <ele>7.4000000953674</ele>
        <time>2023-08-08T06:49:42.000Z</time>
      </trkpt>
      <trkpt lat="50.96008" lon="2.18398">
        <ele>7.1999998092651</ele>
        <time>2023-08-08T06:49:44.000Z</time>
      </trkpt>
      <trkpt lat="50.9602" lon="2.18384">
        <ele>7.1999998092651</ele>
        <time>2023-08-08T06:49:46.000Z</time>
      </trkpt>
      <trkpt lat="50.96033" lon="2.18371">
        <ele>6.5999999046326</ele>
        <time>2023-08-08T06:49:48.000Z</time>
      </trkpt>
      <trkpt lat="50.96047" lon="2.18358">
        <ele>6</ele>
        <time>2023-08-08T06:49:50.000Z</time>
      </trkpt>
      <trkpt lat="50.9606" lon="2.18343">
        <ele>5.1999998092651</ele>
        <time>2023-08-08T06:49:52.000Z</time>
      </trkpt>
      <trkpt lat="50.96094" lon="2.1831">
        <ele>3.7999999523163</ele>
        <time>2023-08-08T06:49:57.000Z</time>
      </trkpt>
      <trkpt lat="50.96106" lon="2.18297">
        <ele>3.4000000953674</ele>
        <time>2023-08-08T06:49:59.000Z</time>
      </trkpt>
      <trkpt lat="50.96131" lon="2.18274">
        <ele>2.7999999523163</ele>
        <time>2023-08-08T06:50:03.000Z</time>
      </trkpt>
      <trkpt lat="50.96155" lon="2.18254">
        <ele>2.5999999046326</ele>
        <time>2023-08-08T06:50:07.000Z</time>
      </trkpt>
      <trkpt lat="50.96202" lon="2.18217">
        <ele>2.2000000476837</ele>
        <time>2023-08-08T06:50:15.000Z</time>
      </trkpt>
      <trkpt lat="50.96253" lon="2.18178">
        <ele>2</ele>
        <time>2023-08-08T06:50:24.000Z</time>
      </trkpt>
      <trkpt lat="50.96279" lon="2.18154">
        <ele>1.7999999523163</ele>
        <time>2023-08-08T06:50:29.000Z</time>
      </trkpt>
      <trkpt lat="50.96298" lon="2.18134">
        <ele>1.7999999523163</ele>
        <time>2023-08-08T06:50:33.000Z</time>
      </trkpt>
      <trkpt lat="50.96339" lon="2.18089">
        <ele>1.7999999523163</ele>
        <time>2023-08-08T06:50:42.000Z</time>
      </trkpt>
      <trkpt lat="50.96377" lon="2.18039">
        <ele>2.2000000476837</ele>
        <time>2023-08-08T06:50:51.000Z</time>
      </trkpt>
      <trkpt lat="50.96412" lon="2.17974">
        <ele>2</ele>
        <time>2023-08-08T06:51:01.000Z</time>
      </trkpt>
      <trkpt lat="50.96418" lon="2.17961">
        <ele>2</ele>
        <time>2023-08-08T06:51:03.000Z</time>
      </trkpt>
      <trkpt lat="50.96452" lon="2.17901">
        <ele>2</ele>
        <time>2023-08-08T06:51:12.000Z</time>
      </trkpt>
      <trkpt lat="50.9649" lon="2.17842">
        <ele>1.7999999523163</ele>
        <time>2023-08-08T06:51:22.000Z</time>
      </trkpt>
      <trkpt lat="50.96531" lon="2.17779">
        <ele>1.6000000238419</ele>
        <time>2023-08-08T06:51:33.000Z</time>
      </trkpt>
      <trkpt lat="50.96535" lon="2.17774">
        <ele>1.6000000238419</ele>
        <time>2023-08-08T06:51:34.000Z</time>
      </trkpt>
      <trkpt lat="50.96577" lon="2.1771">
        <ele>1.6000000238419</ele>
        <time>2023-08-08T06:51:45.000Z</time>
      </trkpt>
      <trkpt lat="50.96617" lon="2.1765">
        <ele>1.7999999523163</ele>
        <time>2023-08-08T06:51:55.000Z</time>
      </trkpt>
      <trkpt lat="50.96654" lon="2.17594">
        <ele>1.6000000238419</ele>
        <time>2023-08-08T06:52:04.000Z</time>
      </trkpt>
      <trkpt lat="50.96691" lon="2.17556">
        <ele>1.3999999761581</ele>
        <time>2023-08-08T06:52:12.000Z</time>
      </trkpt>
      <trkpt lat="50.96735" lon="2.17515">
        <ele>1.3999999761581</ele>
        <time>2023-08-08T06:52:21.000Z</time>
      </trkpt>
      <trkpt lat="50.96784" lon="2.17472">
        <ele>1.6000000238419</ele>
        <time>2023-08-08T06:52:31.000Z</time>
      </trkpt>
      <trkpt lat="50.96835" lon="2.17425">
        <ele>1.6000000238419</ele>
        <time>2023-08-08T06:52:41.000Z</time>
      </trkpt>
      <trkpt lat="50.9688" lon="2.17369">
        <ele>1.7999999523163</ele>
        <time>2023-08-08T06:52:51.000Z</time>
      </trkpt>
      <trkpt lat="50.96914" lon="2.17306">
        <ele>1.7999999523163</ele>
        <time>2023-08-08T06:53:01.000Z</time>
      </trkpt>
      <trkpt lat="50.96949" lon="2.1724">
        <ele>1.6000000238419</ele>
        <time>2023-08-08T06:53:09.000Z</time>
      </trkpt>
      <trkpt lat="50.96957" lon="2.17225">
        <ele>1.6000000238419</ele>
        <time>2023-08-08T06:53:11.000Z</time>
      </trkpt>
      <trkpt lat="50.96994" lon="2.17152">
        <ele>1.3999999761581</ele>
        <time>2023-08-08T06:53:21.000Z</time>
      </trkpt>
      <trkpt lat="50.9703" lon="2.17082">
        <ele>1.3999999761581</ele>
        <time>2023-08-08T06:53:30.000Z</time>
      </trkpt>
      <trkpt lat="50.97049" lon="2.17044">
        <ele>1.3999999761581</ele>
        <time>2023-08-08T06:53:35.000Z</time>
      </trkpt>
      <trkpt lat="50.97081" lon="2.16985">
        <ele>1.3999999761581</ele>
        <time>2023-08-08T06:53:44.000Z</time>
      </trkpt>
      <trkpt lat="50.97123" lon="2.16918">
        <ele>1.6000000238419</ele>
        <time>2023-08-08T06:53:53.000Z</time>
      </trkpt>
      <trkpt lat="50.9717" lon="2.16862">
        <ele>1.6000000238419</ele>
        <time>2023-08-08T06:54:04.000Z</time>
      </trkpt>
      <trkpt lat="50.97179" lon="2.16852">
        <ele>1.6000000238419</ele>
        <time>2023-08-08T06:54:05.000Z</time>
      </trkpt>
      <trkpt lat="50.97232" lon="2.16808">
        <ele>1.6000000238419</ele>
        <time>2023-08-08T06:54:15.000Z</time>
      </trkpt>
      <trkpt lat="50.97237" lon="2.16804">
        <ele>1.6000000238419</ele>
        <time>2023-08-08T06:54:16.000Z</time>
      </trkpt>
      <trkpt lat="50.97288" lon="2.16765">
        <ele>1.7999999523163</ele>
        <time>2023-08-08T06:54:26.000Z</time>
      </trkpt>
      <trkpt lat="50.97293" lon="2.16761">
        <ele>1.7999999523163</ele>
        <time>2023-08-08T06:54:28.000Z</time>
      </trkpt>
      <trkpt lat="50.97344" lon="2.16721">
        <ele>1.7999999523163</ele>
        <time>2023-08-08T06:54:37.000Z</time>
      </trkpt>
      <trkpt lat="50.97358" lon="2.16711">
        <ele>2</ele>
        <time>2023-08-08T06:54:40.000Z</time>
      </trkpt>
      <trkpt lat="50.97408" lon="2.16668">
        <ele>2</ele>
        <time>2023-08-08T06:54:50.000Z</time>
      </trkpt>
      <trkpt lat="50.97417" lon="2.16659">
        <ele>2</ele>
        <time>2023-08-08T06:54:52.000Z</time>
      </trkpt>
      <trkpt lat="50.97458" lon="2.16609">
        <ele>2.2000000476837</ele>
        <time>2023-08-08T06:55:01.000Z</time>
      </trkpt>
      <trkpt lat="50.97502" lon="2.16552">
        <ele>1.7999999523163</ele>
        <time>2023-08-08T06:55:11.000Z</time>
      </trkpt>
      <trkpt lat="50.97515" lon="2.16535">
        <ele>1.7999999523163</ele>
        <time>2023-08-08T06:55:14.000Z</time>
      </trkpt>
      <trkpt lat="50.97559" lon="2.16478">
        <ele>2</ele>
        <time>2023-08-08T06:55:24.000Z</time>
      </trkpt>
      <trkpt lat="50.97563" lon="2.16473">
        <ele>2</ele>
        <time>2023-08-08T06:55:25.000Z</time>
      </trkpt>
      <trkpt lat="50.97605" lon="2.16419">
        <ele>2</ele>
        <time>2023-08-08T06:55:35.000Z</time>
      </trkpt>
      <trkpt lat="50.9761" lon="2.16413">
        <ele>2</ele>
        <time>2023-08-08T06:55:36.000Z</time>
      </trkpt>
      <trkpt lat="50.97648" lon="2.16364">
        <ele>2</ele>
        <time>2023-08-08T06:55:45.000Z</time>
      </trkpt>
      <trkpt lat="50.97687" lon="2.16306">
        <ele>2.2000000476837</ele>
        <time>2023-08-08T06:55:55.000Z</time>
      </trkpt>
      <trkpt lat="50.97719" lon="2.16258">
        <ele>2</ele>
        <time>2023-08-08T06:56:03.000Z</time>
      </trkpt>
      <trkpt lat="50.9776" lon="2.16189">
        <ele>1.7999999523163</ele>
        <time>2023-08-08T06:56:14.000Z</time>
      </trkpt>
      <trkpt lat="50.97766" lon="2.16177">
        <ele>2</ele>
        <time>2023-08-08T06:56:16.000Z</time>
      </trkpt>
      <trkpt lat="50.97793" lon="2.16111">
        <ele>2.2000000476837</ele>
        <time>2023-08-08T06:56:25.000Z</time>
      </trkpt>
      <trkpt lat="50.97813" lon="2.16036">
        <ele>2.2000000476837</ele>
        <time>2023-08-08T06:56:34.000Z</time>
      </trkpt>
      <trkpt lat="50.97827" lon="2.15948">
        <ele>2</ele>
        <time>2023-08-08T06:56:44.000Z</time>
      </trkpt>
      <trkpt lat="50.97828" lon="2.15939">
        <ele>2</ele>
        <time>2023-08-08T06:56:45.000Z</time>
      </trkpt>
      <trkpt lat="50.97834" lon="2.1586">
        <ele>2</ele>
        <time>2023-08-08T06:56:54.000Z</time>
      </trkpt>
      <trkpt lat="50.9783" lon="2.15784">
        <ele>1.7999999523163</ele>
        <time>2023-08-08T06:57:03.000Z</time>
      </trkpt>
      <trkpt lat="50.97819" lon="2.15699">
        <ele>2</ele>
        <time>2023-08-08T06:57:13.000Z</time>
      </trkpt>
      <trkpt lat="50.97818" lon="2.15691">
        <ele>2</ele>
        <time>2023-08-08T06:57:14.000Z</time>
      </trkpt>
      <trkpt lat="50.97808" lon="2.15606">
        <ele>2</ele>
        <time>2023-08-08T06:57:24.000Z</time>
      </trkpt>
      <trkpt lat="50.97806" lon="2.15589">
        <ele>1.7999999523163</ele>
        <time>2023-08-08T06:57:26.000Z</time>
      </trkpt>
      <trkpt lat="50.97796" lon="2.15503">
        <ele>1.7999999523163</ele>
        <time>2023-08-08T06:57:36.000Z</time>
      </trkpt>
      <trkpt lat="50.97795" lon="2.15494">
        <ele>1.7999999523163</ele>
        <time>2023-08-08T06:57:37.000Z</time>
      </trkpt>
      <trkpt lat="50.97785" lon="2.15402">
        <ele>1.6000000238419</ele>
        <time>2023-08-08T06:57:48.000Z</time>
      </trkpt>
      <trkpt lat="50.97784" lon="2.15318">
        <ele>1.7999999523163</ele>
        <time>2023-08-08T06:57:58.000Z</time>
      </trkpt>
      <trkpt lat="50.97792" lon="2.15226">
        <ele>2</ele>
        <time>2023-08-08T06:58:09.000Z</time>
      </trkpt>
      <trkpt lat="50.97808" lon="2.15145">
        <ele>2</ele>
        <time>2023-08-08T06:58:19.000Z</time>
      </trkpt>
      <trkpt lat="50.97829" lon="2.15076">
        <ele>2</ele>
        <time>2023-08-08T06:58:28.000Z</time>
      </trkpt>
      <trkpt lat="50.9786" lon="2.15008">
        <ele>2</ele>
        <time>2023-08-08T06:58:38.000Z</time>
      </trkpt>
      <trkpt lat="50.97897" lon="2.14944">
        <ele>2.2000000476837</ele>
        <time>2023-08-08T06:58:48.000Z</time>
      </trkpt>
      <trkpt lat="50.97935" lon="2.14882">
        <ele>2</ele>
        <time>2023-08-08T06:58:58.000Z</time>
      </trkpt>
      <trkpt lat="50.9795" lon="2.14857">
        <ele>2</ele>
        <time>2023-08-08T06:59:02.000Z</time>
      </trkpt>
      <trkpt lat="50.97989" lon="2.14796">
        <ele>2.2000000476837</ele>
        <time>2023-08-08T06:59:12.000Z</time>
      </trkpt>
      <trkpt lat="50.98001" lon="2.14777">
        <ele>2</ele>
        <time>2023-08-08T06:59:15.000Z</time>
      </trkpt>
      <trkpt lat="50.98039" lon="2.14714">
        <ele>1.7999999523163</ele>
        <time>2023-08-08T06:59:25.000Z</time>
      </trkpt>
      <trkpt lat="50.98042" lon="2.14708">
        <ele>1.7999999523163</ele>
        <time>2023-08-08T06:59:26.000Z</time>
      </trkpt>
      <trkpt lat="50.98081" lon="2.14647">
        <ele>1.7999999523163</ele>
        <time>2023-08-08T06:59:36.000Z</time>
      </trkpt>
      <trkpt lat="50.98093" lon="2.14629">
        <ele>1.6000000238419</ele>
        <time>2023-08-08T06:59:39.000Z</time>
      </trkpt>
      <trkpt lat="50.98102" lon="2.1462">
        <ele>1.6000000238419</ele>
        <time>2023-08-08T06:59:41.000Z</time>
      </trkpt>
      <trkpt lat="50.98117" lon="2.14609">
        <ele>1.6000000238419</ele>
        <time>2023-08-08T06:59:44.000Z</time>
      </trkpt>
      <trkpt lat="50.98143" lon="2.14597">
        <ele>1.6000000238419</ele>
        <time>2023-08-08T06:59:49.000Z</time>
      </trkpt>
      <trkpt lat="50.98154" lon="2.14598">
        <ele>1.6000000238419</ele>
        <time>2023-08-08T06:59:51.000Z</time>
      </trkpt>
      <trkpt lat="50.9817" lon="2.14608">
        <ele>1.6000000238419</ele>
        <time>2023-08-08T06:59:54.000Z</time>
      </trkpt>
      <trkpt lat="50.98176" lon="2.1461">
        <ele>1.6000000238419</ele>
        <time>2023-08-08T06:59:55.000Z</time>
      </trkpt>
      <trkpt lat="50.98181" lon="2.1461">
        <ele>1.6000000238419</ele>
        <time>2023-08-08T06:59:56.000Z</time>
      </trkpt>
      <trkpt lat="50.98192" lon="2.14604">
        <ele>1.6000000238419</ele>
        <time>2023-08-08T06:59:58.000Z</time>
      </trkpt>
      <trkpt lat="50.98201" lon="2.14593">
        <ele>1.7999999523163</ele>
        <time>2023-08-08T07:00:00.000Z</time>
      </trkpt>
      <trkpt lat="50.98203" lon="2.14586">
        <ele>1.7999999523163</ele>
        <time>2023-08-08T07:00:01.000Z</time>
      </trkpt>
      <trkpt lat="50.98205" lon="2.14578">
        <ele>2</ele>
        <time>2023-08-08T07:00:02.000Z</time>
      </trkpt>
      <trkpt lat="50.98206" lon="2.14561">
        <ele>2</ele>
        <time>2023-08-08T07:00:04.000Z</time>
      </trkpt>
      <trkpt lat="50.98204" lon="2.14553">
        <ele>2</ele>
        <time>2023-08-08T07:00:05.000Z</time>
      </trkpt>
      <trkpt lat="50.98198" lon="2.14526">
        <ele>2</ele>
        <time>2023-08-08T07:00:08.000Z</time>
      </trkpt>
      <trkpt lat="50.98199" lon="2.14508">
        <ele>2</ele>
        <time>2023-08-08T07:00:10.000Z</time>
      </trkpt>
      <trkpt lat="50.98211" lon="2.14439">
        <ele>1.6000000238419</ele>
        <time>2023-08-08T07:00:18.000Z</time>
      </trkpt>
      <trkpt lat="50.98221" lon="2.14372">
        <ele>1.6000000238419</ele>
        <time>2023-08-08T07:00:26.000Z</time>
      </trkpt>
      <trkpt lat="50.98235" lon="2.14289">
        <ele>2</ele>
        <time>2023-08-08T07:00:36.000Z</time>
      </trkpt>
      <trkpt lat="50.98239" lon="2.14264">
        <ele>2</ele>
        <time>2023-08-08T07:00:39.000Z</time>
      </trkpt>
      <trkpt lat="50.9825" lon="2.142">
        <ele>1.7999999523163</ele>
        <time>2023-08-08T07:00:47.000Z</time>
      </trkpt>
      <trkpt lat="50.98259" lon="2.14145">
        <ele>1.7999999523163</ele>
        <time>2023-08-08T07:00:54.000Z</time>
      </trkpt>
      <trkpt lat="50.98261" lon="2.1413">
        <ele>1.7999999523163</ele>
        <time>2023-08-08T07:00:56.000Z</time>
      </trkpt>
      <trkpt lat="50.98266" lon="2.14098">
        <ele>1.7999999523163</ele>
        <time>2023-08-08T07:01:00.000Z</time>
      </trkpt>
      <trkpt lat="50.98277" lon="2.1404">
        <ele>2</ele>
        <time>2023-08-08T07:01:07.000Z</time>
      </trkpt>
      <trkpt lat="50.98288" lon="2.13975">
        <ele>2</ele>
        <time>2023-08-08T07:01:15.000Z</time>
      </trkpt>
      <trkpt lat="50.98299" lon="2.1391">
        <ele>1.7999999523163</ele>
        <time>2023-08-08T07:01:23.000Z</time>
      </trkpt>
      <trkpt lat="50.98313" lon="2.13837">
        <ele>1.7999999523163</ele>
        <time>2023-08-08T07:01:32.000Z</time>
      </trkpt>
      <trkpt lat="50.9833" lon="2.13762">
        <ele>2</ele>
        <time>2023-08-08T07:01:42.000Z</time>
      </trkpt>
      <trkpt lat="50.98348" lon="2.13685">
        <ele>2.2000000476837</ele>
        <time>2023-08-08T07:01:52.000Z</time>
      </trkpt>
      <trkpt lat="50.98365" lon="2.13613">
        <ele>2</ele>
        <time>2023-08-08T07:02:01.000Z</time>
      </trkpt>
      <trkpt lat="50.98383" lon="2.13533">
        <ele>1.7999999523163</ele>
        <time>2023-08-08T07:02:11.000Z</time>
      </trkpt>
      <trkpt lat="50.98393" lon="2.13496">
        <ele>1.7999999523163</ele>
        <time>2023-08-08T07:02:16.000Z</time>
      </trkpt>
      <trkpt lat="50.984" lon="2.13486">
        <ele>1.7999999523163</ele>
        <time>2023-08-08T07:02:18.000Z</time>
      </trkpt>
      <trkpt lat="50.98403" lon="2.13481">
        <ele>1.7999999523163</ele>
        <time>2023-08-08T07:02:19.000Z</time>
      </trkpt>
      <trkpt lat="50.98406" lon="2.1347">
        <ele>1.6000000238419</ele>
        <time>2023-08-08T07:02:21.000Z</time>
      </trkpt>
      <trkpt lat="50.98402" lon="2.13459">
        <ele>1.6000000238419</ele>
        <time>2023-08-08T07:02:23.000Z</time>
      </trkpt>
      <trkpt lat="50.98398" lon="2.13455">
        <ele>1.7999999523163</ele>
        <time>2023-08-08T07:02:24.000Z</time>
      </trkpt>
      <trkpt lat="50.98394" lon="2.13453">
        <ele>1.7999999523163</ele>
        <time>2023-08-08T07:02:25.000Z</time>
      </trkpt>
      <trkpt lat="50.98384" lon="2.13449">
        <ele>1.7999999523163</ele>
        <time>2023-08-08T07:02:27.000Z</time>
      </trkpt>
      <trkpt lat="50.98371" lon="2.13439">
        <ele>1.7999999523163</ele>
        <time>2023-08-08T07:02:30.000Z</time>
      </trkpt>
      <trkpt lat="50.98362" lon="2.1343">
        <ele>1.7999999523163</ele>
        <time>2023-08-08T07:02:32.000Z</time>
      </trkpt>
      <trkpt lat="50.98345" lon="2.1341">
        <ele>1.7999999523163</ele>
        <time>2023-08-08T07:02:36.000Z</time>
      </trkpt>
      <trkpt lat="50.98306" lon="2.13351">
        <ele>1.6000000238419</ele>
        <time>2023-08-08T07:02:46.000Z</time>
      </trkpt>
      <trkpt lat="50.98279" lon="2.13297">
        <ele>1.7999999523163</ele>
        <time>2023-08-08T07:02:54.000Z</time>
      </trkpt>
      <trkpt lat="50.98254" lon="2.13241">
        <ele>1.7999999523163</ele>
        <time>2023-08-08T07:03:02.000Z</time>
      </trkpt>
      <trkpt lat="50.98224" lon="2.13177">
        <ele>1.7999999523163</ele>
        <time>2023-08-08T07:03:11.000Z</time>
      </trkpt>
      <trkpt lat="50.9819" lon="2.13106">
        <ele>1.7999999523163</ele>
        <time>2023-08-08T07:03:21.000Z</time>
      </trkpt>
      <trkpt lat="50.98183" lon="2.13092">
        <ele>1.7999999523163</ele>
        <time>2023-08-08T07:03:23.000Z</time>
      </trkpt>
      <trkpt lat="50.98149" lon="2.13018">
        <ele>1.6000000238419</ele>
        <time>2023-08-08T07:03:34.000Z</time>
      </trkpt>
      <trkpt lat="50.98138" lon="2.12987">
        <ele>1.7999999523163</ele>
        <time>2023-08-08T07:03:38.000Z</time>
      </trkpt>
      <trkpt lat="50.98135" lon="2.1297">
        <ele>1.7999999523163</ele>
        <time>2023-08-08T07:03:40.000Z</time>
      </trkpt>
      <trkpt lat="50.98134" lon="2.12962">
        <ele>1.6000000238419</ele>
        <time>2023-08-08T07:03:41.000Z</time>
      </trkpt>
      <trkpt lat="50.98133" lon="2.1292">
        <ele>1.6000000238419</ele>
        <time>2023-08-08T07:03:46.000Z</time>
      </trkpt>
      <trkpt lat="50.98134" lon="2.12912">
        <ele>1.6000000238419</ele>
        <time>2023-08-08T07:03:47.000Z</time>
      </trkpt>
      <trkpt lat="50.98141" lon="2.1288">
        <ele>1.6000000238419</ele>
        <time>2023-08-08T07:03:51.000Z</time>
      </trkpt>
      <trkpt lat="50.98146" lon="2.12865">
        <ele>1.3999999761581</ele>
        <time>2023-08-08T07:03:53.000Z</time>
      </trkpt>
      <trkpt lat="50.98171" lon="2.12821">
        <ele>1.3999999761581</ele>
        <time>2023-08-08T07:04:00.000Z</time>
      </trkpt>
      <trkpt lat="50.98199" lon="2.1277">
        <ele>1.6000000238419</ele>
        <time>2023-08-08T07:04:08.000Z</time>
      </trkpt>
      <trkpt lat="50.98213" lon="2.12714">
        <ele>2.2000000476837</ele>
        <time>2023-08-08T07:04:15.000Z</time>
      </trkpt>
      <trkpt lat="50.98215" lon="2.12656">
        <ele>2.2000000476837</ele>
        <time>2023-08-08T07:04:22.000Z</time>
      </trkpt>
      <trkpt lat="50.98213" lon="2.12632">
        <ele>2.4000000953674</ele>
        <time>2023-08-08T07:04:25.000Z</time>
      </trkpt>
      <trkpt lat="50.98208" lon="2.12609">
        <ele>2.4000000953674</ele>
        <time>2023-08-08T07:04:28.000Z</time>
      </trkpt>
      <trkpt lat="50.98206" lon="2.12601">
        <ele>2.4000000953674</ele>
        <time>2023-08-08T07:04:29.000Z</time>
      </trkpt>
      <trkpt lat="50.98191" lon="2.12566">
        <ele>2.4000000953674</ele>
        <time>2023-08-08T07:04:34.000Z</time>
      </trkpt>
      <trkpt lat="50.98188" lon="2.12559">
        <ele>2.4000000953674</ele>
        <time>2023-08-08T07:04:35.000Z</time>
      </trkpt>
      <trkpt lat="50.98165" lon="2.12522">
        <ele>2.4000000953674</ele>
        <time>2023-08-08T07:04:41.000Z</time>
      </trkpt>
      <trkpt lat="50.98126" lon="2.1246">
        <ele>2.2000000476837</ele>
        <time>2023-08-08T07:04:51.000Z</time>
      </trkpt>
      <trkpt lat="50.98122" lon="2.12454">
        <ele>2.2000000476837</ele>
        <time>2023-08-08T07:04:52.000Z</time>
      </trkpt>
      <trkpt lat="50.98102" lon="2.12423">
        <ele>2.4000000953674</ele>
        <time>2023-08-08T07:04:58.000Z</time>
      </trkpt>
      <trkpt lat="50.98099" lon="2.12417">
        <ele>2.4000000953674</ele>
        <time>2023-08-08T07:04:59.000Z</time>
      </trkpt>
      <trkpt lat="50.98095" lon="2.12402">
        <ele>2.5999999046326</ele>
        <time>2023-08-08T07:05:01.000Z</time>
      </trkpt>
      <trkpt lat="50.98093" lon="2.12394">
        <ele>2.5999999046326</ele>
        <time>2023-08-08T07:05:02.000Z</time>
      </trkpt>
      <trkpt lat="50.98093" lon="2.12386">
        <ele>2.5999999046326</ele>
        <time>2023-08-08T07:05:03.000Z</time>
      </trkpt>
      <trkpt lat="50.98096" lon="2.12371">
        <ele>2.7999999523163</ele>
        <time>2023-08-08T07:05:05.000Z</time>
      </trkpt>
      <trkpt lat="50.98099" lon="2.12366">
        <ele>2.7999999523163</ele>
        <time>2023-08-08T07:05:06.000Z</time>
      </trkpt>
      <trkpt lat="50.98107" lon="2.12356">
        <ele>2.7999999523163</ele>
        <time>2023-08-08T07:05:08.000Z</time>
      </trkpt>
      <trkpt lat="50.98144" lon="2.12316">
        <ele>2.7999999523163</ele>
        <time>2023-08-08T07:05:17.000Z</time>
      </trkpt>
      <trkpt lat="50.9818" lon="2.12275">
        <ele>3.2000000476837</ele>
        <time>2023-08-08T07:05:26.000Z</time>
      </trkpt>
      <trkpt lat="50.98219" lon="2.12233">
        <ele>3.4000000953674</ele>
        <time>2023-08-08T07:05:35.000Z</time>
      </trkpt>
      <trkpt lat="50.98256" lon="2.12187">
        <ele>3.2000000476837</ele>
        <time>2023-08-08T07:05:44.000Z</time>
      </trkpt>
      <trkpt lat="50.98267" lon="2.12174">
        <ele>3.2000000476837</ele>
        <time>2023-08-08T07:05:48.000Z</time>
      </trkpt>
      <trkpt lat="50.98279" lon="2.12158">
        <ele>3.2000000476837</ele>
        <time>2023-08-08T07:05:55.000Z</time>
      </trkpt>
      <trkpt lat="50.9828" lon="2.12157">
        <ele>3.2000000476837</ele>
        <time>2023-08-08T07:05:58.000Z</time>
      </trkpt>
      <trkpt lat="50.98283" lon="2.12153">
        <ele>3.2000000476837</ele>
        <time>2023-08-08T07:06:16.000Z</time>
      </trkpt>
      <trkpt lat="50.9829" lon="2.12132">
        <ele>3.5999999046326</ele>
        <time>2023-08-08T07:06:22.000Z</time>
      </trkpt>
      <trkpt lat="50.98288" lon="2.1212">
        <ele>3.5999999046326</ele>
        <time>2023-08-08T07:06:24.000Z</time>
      </trkpt>
      <trkpt lat="50.98283" lon="2.1211">
        <ele>3.7999999523163</ele>
        <time>2023-08-08T07:06:26.000Z</time>
      </trkpt>
      <trkpt lat="50.9826" lon="2.12069">
        <ele>4.8000001907349</ele>
        <time>2023-08-08T07:06:34.000Z</time>
      </trkpt>
      <trkpt lat="50.9825" lon="2.12049">
        <ele>5.1999998092651</ele>
        <time>2023-08-08T07:06:37.000Z</time>
      </trkpt>
      <trkpt lat="50.98247" lon="2.12031">
        <ele>5.4000000953674</ele>
        <time>2023-08-08T07:06:39.000Z</time>
      </trkpt>
      <trkpt lat="50.98249" lon="2.12013">
        <ele>5.4000000953674</ele>
        <time>2023-08-08T07:06:41.000Z</time>
      </trkpt>
      <trkpt lat="50.98249" lon="2.12013">
        <ele>5.1999998092651</ele>
        <time>2023-08-08T07:06:42.000Z</time>
      </trkpt>
      <trkpt lat="50.98254" lon="2.11996">
        <ele>5.1999998092651</ele>
        <time>2023-08-08T07:06:43.000Z</time>
      </trkpt>
      <trkpt lat="50.98264" lon="2.11962">
        <ele>4.8000001907349</ele>
        <time>2023-08-08T07:06:47.000Z</time>
      </trkpt>
      <trkpt lat="50.98285" lon="2.11875">
        <ele>3.5999999046326</ele>
        <time>2023-08-08T07:06:57.000Z</time>
      </trkpt>
      <trkpt lat="50.98287" lon="2.11867">
        <ele>3.5999999046326</ele>
        <time>2023-08-08T07:06:58.000Z</time>
      </trkpt>
      <trkpt lat="50.98305" lon="2.11788">
        <ele>4</ele>
        <time>2023-08-08T07:07:08.000Z</time>
      </trkpt>
      <trkpt lat="50.98322" lon="2.1172">
        <ele>4.4000000953674</ele>
        <time>2023-08-08T07:07:17.000Z</time>
      </trkpt>
      <trkpt lat="50.98329" lon="2.11708">
        <ele>4.4000000953674</ele>
        <time>2023-08-08T07:07:19.000Z</time>
      </trkpt>
      <trkpt lat="50.98341" lon="2.11693">
        <ele>4.5999999046326</ele>
        <time>2023-08-08T07:07:22.000Z</time>
      </trkpt>
      <trkpt lat="50.98355" lon="2.11685">
        <ele>4.5999999046326</ele>
        <time>2023-08-08T07:07:25.000Z</time>
      </trkpt>
      <trkpt lat="50.98365" lon="2.11683">
        <ele>4.5999999046326</ele>
        <time>2023-08-08T07:07:27.000Z</time>
      </trkpt>
      <trkpt lat="50.98375" lon="2.11684">
        <ele>4.5999999046326</ele>
        <time>2023-08-08T07:07:29.000Z</time>
      </trkpt>
      <trkpt lat="50.98384" lon="2.11689">
        <ele>4.5999999046326</ele>
        <time>2023-08-08T07:07:31.000Z</time>
      </trkpt>
      <trkpt lat="50.98389" lon="2.11692">
        <ele>4.5999999046326</ele>
        <time>2023-08-08T07:07:32.000Z</time>
      </trkpt>
      <trkpt lat="50.98426" lon="2.11719">
        <ele>4.5999999046326</ele>
        <time>2023-08-08T07:07:40.000Z</time>
      </trkpt>
      <trkpt lat="50.98471" lon="2.11749">
        <ele>4.4000000953674</ele>
        <time>2023-08-08T07:07:49.000Z</time>
      </trkpt>
      <trkpt lat="50.98521" lon="2.11784">
        <ele>4.4000000953674</ele>
        <time>2023-08-08T07:07:59.000Z</time>
      </trkpt>
      <trkpt lat="50.98527" lon="2.11787">
        <ele>4.4000000953674</ele>
        <time>2023-08-08T07:08:00.000Z</time>
      </trkpt>
      <trkpt lat="50.98557" lon="2.11805">
        <ele>4.4000000953674</ele>
        <time>2023-08-08T07:08:06.000Z</time>
      </trkpt>
      <trkpt lat="50.98563" lon="2.11806">
        <ele>4.4000000953674</ele>
        <time>2023-08-08T07:08:07.000Z</time>
      </trkpt>
      <trkpt lat="50.98568" lon="2.11805">
        <ele>4.4000000953674</ele>
        <time>2023-08-08T07:08:08.000Z</time>
      </trkpt>
      <trkpt lat="50.98577" lon="2.11801">
        <ele>4.4000000953674</ele>
        <time>2023-08-08T07:08:10.000Z</time>
      </trkpt>
      <trkpt lat="50.98581" lon="2.11796">
        <ele>4.4000000953674</ele>
        <time>2023-08-08T07:08:11.000Z</time>
      </trkpt>
      <trkpt lat="50.98584" lon="2.11791">
        <ele>4.4000000953674</ele>
        <time>2023-08-08T07:08:12.000Z</time>
      </trkpt>
      <trkpt lat="50.98591" lon="2.11771">
        <ele>4.4000000953674</ele>
        <time>2023-08-08T07:08:15.000Z</time>
      </trkpt>
      <trkpt lat="50.98596" lon="2.11753">
        <ele>4.4000000953674</ele>
        <time>2023-08-08T07:08:19.000Z</time>
      </trkpt>
      <trkpt lat="50.98598" lon="2.11734">
        <ele>4.4000000953674</ele>
        <time>2023-08-08T07:08:24.000Z</time>
      </trkpt>
      <trkpt lat="50.98603" lon="2.11687">
        <ele>4.1999998092651</ele>
        <time>2023-08-08T07:08:34.000Z</time>
      </trkpt>
      <trkpt lat="50.98608" lon="2.11645">
        <ele>4</ele>
        <time>2023-08-08T07:08:40.000Z</time>
      </trkpt>
      <trkpt lat="50.98615" lon="2.11589">
        <ele>3.7999999523163</ele>
        <time>2023-08-08T07:08:47.000Z</time>
      </trkpt>
      <trkpt lat="50.98625" lon="2.11525">
        <ele>3.5999999046326</ele>
        <time>2023-08-08T07:08:55.000Z</time>
      </trkpt>
      <trkpt lat="50.98649" lon="2.11443">
        <ele>3.4000000953674</ele>
        <time>2023-08-08T07:09:06.000Z</time>
      </trkpt>
      <trkpt lat="50.98652" lon="2.11436">
        <ele>3.4000000953674</ele>
        <time>2023-08-08T07:09:07.000Z</time>
      </trkpt>
      <trkpt lat="50.98678" lon="2.11354">
        <ele>3.4000000953674</ele>
        <time>2023-08-08T07:09:18.000Z</time>
      </trkpt>
      <trkpt lat="50.98702" lon="2.11278">
        <ele>3.4000000953674</ele>
        <time>2023-08-08T07:09:28.000Z</time>
      </trkpt>
      <trkpt lat="50.98728" lon="2.11197">
        <ele>3.2000000476837</ele>
        <time>2023-08-08T07:09:39.000Z</time>
      </trkpt>
      <trkpt lat="50.98745" lon="2.11138">
        <ele>3.4000000953674</ele>
        <time>2023-08-08T07:09:47.000Z</time>
      </trkpt>
      <trkpt lat="50.98747" lon="2.11131">
        <ele>3.4000000953674</ele>
        <time>2023-08-08T07:09:48.000Z</time>
      </trkpt>
      <trkpt lat="50.98753" lon="2.11118">
        <ele>3.5999999046326</ele>
        <time>2023-08-08T07:09:50.000Z</time>
      </trkpt>
      <trkpt lat="50.98758" lon="2.11113">
        <ele>3.5999999046326</ele>
        <time>2023-08-08T07:09:51.000Z</time>
      </trkpt>
      <trkpt lat="50.98781" lon="2.11087">
        <ele>3.4000000953674</ele>
        <time>2023-08-08T07:09:56.000Z</time>
      </trkpt>
      <trkpt lat="50.98786" lon="2.11084">
        <ele>3.4000000953674</ele>
        <time>2023-08-08T07:09:57.000Z</time>
      </trkpt>
      <trkpt lat="50.98827" lon="2.11074">
        <ele>2.7999999523163</ele>
        <time>2023-08-08T07:10:04.000Z</time>
      </trkpt>
      <trkpt lat="50.98832" lon="2.11072">
        <ele>2.7999999523163</ele>
        <time>2023-08-08T07:10:05.000Z</time>
      </trkpt>
      <trkpt lat="50.98837" lon="2.1107">
        <ele>2.7999999523163</ele>
        <time>2023-08-08T07:10:06.000Z</time>
      </trkpt>
      <trkpt lat="50.98845" lon="2.1106">
        <ele>2.7999999523163</ele>
        <time>2023-08-08T07:10:08.000Z</time>
      </trkpt>
      <trkpt lat="50.98849" lon="2.11036">
        <ele>2.5999999046326</ele>
        <time>2023-08-08T07:10:11.000Z</time>
      </trkpt>
      <trkpt lat="50.98861" lon="2.10958">
        <ele>2.4000000953674</ele>
        <time>2023-08-08T07:10:20.000Z</time>
      </trkpt>
      <trkpt lat="50.98879" lon="2.10872">
        <ele>2.4000000953674</ele>
        <time>2023-08-08T07:10:30.000Z</time>
      </trkpt>
      <trkpt lat="50.98894" lon="2.10806">
        <ele>2.5999999046326</ele>
        <time>2023-08-08T07:10:38.000Z</time>
      </trkpt>
      <trkpt lat="50.9891" lon="2.10724">
        <ele>2.4000000953674</ele>
        <time>2023-08-08T07:10:48.000Z</time>
      </trkpt>
      <trkpt lat="50.98925" lon="2.10643">
        <ele>2.7999999523163</ele>
        <time>2023-08-08T07:10:58.000Z</time>
      </trkpt>
      <trkpt lat="50.98941" lon="2.10556">
        <ele>2.5999999046326</ele>
        <time>2023-08-08T07:11:09.000Z</time>
      </trkpt>
      <trkpt lat="50.98953" lon="2.10492">
        <ele>2.2000000476837</ele>
        <time>2023-08-08T07:11:18.000Z</time>
      </trkpt>
      <trkpt lat="50.98967" lon="2.10404">
        <ele>1.7999999523163</ele>
        <time>2023-08-08T07:11:28.000Z</time>
      </trkpt>
      <trkpt lat="50.98968" lon="2.10396">
        <ele>1.7999999523163</ele>
        <time>2023-08-08T07:11:29.000Z</time>
      </trkpt>
      <trkpt lat="50.98976" lon="2.10322">
        <ele>1.6000000238419</ele>
        <time>2023-08-08T07:11:39.000Z</time>
      </trkpt>
      <trkpt lat="50.98986" lon="2.1024">
        <ele>1.6000000238419</ele>
        <time>2023-08-08T07:11:49.000Z</time>
      </trkpt>
      <trkpt lat="50.98998" lon="2.10193">
        <ele>1.6000000238419</ele>
        <time>2023-08-08T07:11:55.000Z</time>
      </trkpt>
      <trkpt lat="50.99022" lon="2.10128">
        <ele>1.3999999761581</ele>
        <time>2023-08-08T07:12:04.000Z</time>
      </trkpt>
      <trkpt lat="50.99049" lon="2.10055">
        <ele>1.6000000238419</ele>
        <time>2023-08-08T07:12:14.000Z</time>
      </trkpt>
      <trkpt lat="50.99064" lon="2.09985">
        <ele>1.3999999761581</ele>
        <time>2023-08-08T07:12:22.000Z</time>
      </trkpt>
      <trkpt lat="50.99082" lon="2.09899">
        <ele>1.2000000476837</ele>
        <time>2023-08-08T07:12:33.000Z</time>
      </trkpt>
      <trkpt lat="50.99082" lon="2.09899">
        <ele>1.3999999761581</ele>
        <time>2023-08-08T07:12:34.000Z</time>
      </trkpt>
      <trkpt lat="50.99097" lon="2.09809">
        <ele>1.7999999523163</ele>
        <time>2023-08-08T07:12:45.000Z</time>
      </trkpt>
      <trkpt lat="50.99105" lon="2.09724">
        <ele>1.7999999523163</ele>
        <time>2023-08-08T07:12:55.000Z</time>
      </trkpt>
      <trkpt lat="50.99103" lon="2.09648">
        <ele>1.6000000238419</ele>
        <time>2023-08-08T07:13:04.000Z</time>
      </trkpt>
      <trkpt lat="50.99102" lon="2.09632">
        <ele>1.6000000238419</ele>
        <time>2023-08-08T07:13:05.000Z</time>
      </trkpt>
      <trkpt lat="50.99096" lon="2.09588">
        <ele>1.3999999761581</ele>
        <time>2023-08-08T07:13:10.000Z</time>
      </trkpt>
      <trkpt lat="50.99081" lon="2.09498">
        <ele>1.3999999761581</ele>
        <time>2023-08-08T07:13:21.000Z</time>
      </trkpt>
      <trkpt lat="50.99068" lon="2.09425">
        <ele>1.2000000476837</ele>
        <time>2023-08-08T07:13:30.000Z</time>
      </trkpt>
      <trkpt lat="50.99054" lon="2.09337">
        <ele>1.2000000476837</ele>
        <time>2023-08-08T07:13:41.000Z</time>
      </trkpt>
      <trkpt lat="50.99051" lon="2.09321">
        <ele>1.2000000476837</ele>
        <time>2023-08-08T07:13:43.000Z</time>
      </trkpt>
      <trkpt lat="50.99039" lon="2.09248">
        <ele>1.3999999761581</ele>
        <time>2023-08-08T07:13:53.000Z</time>
      </trkpt>
      <trkpt lat="50.99027" lon="2.09167">
        <ele>1</ele>
        <time>2023-08-08T07:14:02.000Z</time>
      </trkpt>
      <trkpt lat="50.99018" lon="2.09099">
        <ele>1</ele>
        <time>2023-08-08T07:14:10.000Z</time>
      </trkpt>
      <trkpt lat="50.99004" lon="2.09015">
        <ele>1.2000000476837</ele>
        <time>2023-08-08T07:14:20.000Z</time>
      </trkpt>
      <trkpt lat="50.99" lon="2.08998">
        <ele>1.2000000476837</ele>
        <time>2023-08-08T07:14:22.000Z</time>
      </trkpt>
      <trkpt lat="50.98981" lon="2.08919">
        <ele>1.2000000476837</ele>
        <time>2023-08-08T07:14:32.000Z</time>
      </trkpt>
      <trkpt lat="50.9897" lon="2.08881">
        <ele>1</ele>
        <time>2023-08-08T07:14:37.000Z</time>
      </trkpt>
      <trkpt lat="50.98963" lon="2.08857">
        <ele>1</ele>
        <time>2023-08-08T07:14:41.000Z</time>
      </trkpt>
      <trkpt lat="50.9894" lon="2.08775">
        <ele>0.80000001192093</ele>
        <time>2023-08-08T07:14:51.000Z</time>
      </trkpt>
      <trkpt lat="50.98923" lon="2.08709">
        <ele>0.80000001192093</ele>
        <time>2023-08-08T07:15:00.000Z</time>
      </trkpt>
      <trkpt lat="50.98904" lon="2.08642">
        <ele>0.80000001192093</ele>
        <time>2023-08-08T07:15:09.000Z</time>
      </trkpt>
      <trkpt lat="50.98888" lon="2.08575">
        <ele>1</ele>
        <time>2023-08-08T07:15:18.000Z</time>
      </trkpt>
      <trkpt lat="50.98872" lon="2.08497">
        <ele>1</ele>
        <time>2023-08-08T07:15:28.000Z</time>
      </trkpt>
      <trkpt lat="50.98857" lon="2.0841">
        <ele>1</ele>
        <time>2023-08-08T07:15:39.000Z</time>
      </trkpt>
      <trkpt lat="50.98856" lon="2.08401">
        <ele>1</ele>
        <time>2023-08-08T07:15:40.000Z</time>
      </trkpt>
      <trkpt lat="50.98846" lon="2.08316">
        <ele>1.2000000476837</ele>
        <time>2023-08-08T07:15:50.000Z</time>
      </trkpt>
      <trkpt lat="50.98839" lon="2.0824">
        <ele>1.2000000476837</ele>
        <time>2023-08-08T07:15:59.000Z</time>
      </trkpt>
      <trkpt lat="50.9883" lon="2.08153">
        <ele>1.2000000476837</ele>
        <time>2023-08-08T07:16:09.000Z</time>
      </trkpt>
      <trkpt lat="50.98829" lon="2.08145">
        <ele>1.2000000476837</ele>
        <time>2023-08-08T07:16:10.000Z</time>
      </trkpt>
      <trkpt lat="50.98819" lon="2.08056">
        <ele>1.3999999761581</ele>
        <time>2023-08-08T07:16:21.000Z</time>
      </trkpt>
      <trkpt lat="50.98812" lon="2.07965">
        <ele>1.2000000476837</ele>
        <time>2023-08-08T07:16:32.000Z</time>
      </trkpt>
      <trkpt lat="50.98817" lon="2.07898">
        <ele>1</ele>
        <time>2023-08-08T07:16:40.000Z</time>
      </trkpt>
      <trkpt lat="50.98824" lon="2.0782">
        <ele>1</ele>
        <time>2023-08-08T07:16:49.000Z</time>
      </trkpt>
      <trkpt lat="50.98826" lon="2.07763">
        <ele>1</ele>
        <time>2023-08-08T07:16:56.000Z</time>
      </trkpt>
      <trkpt lat="50.98817" lon="2.07689">
        <ele>0.80000001192093</ele>
        <time>2023-08-08T07:17:05.000Z</time>
      </trkpt>
      <trkpt lat="50.98803" lon="2.07603">
        <ele>0.80000001192093</ele>
        <time>2023-08-08T07:17:16.000Z</time>
      </trkpt>
      <trkpt lat="50.9879" lon="2.07523">
        <ele>0.80000001192093</ele>
        <time>2023-08-08T07:17:26.000Z</time>
      </trkpt>
      <trkpt lat="50.9878" lon="2.07461">
        <ele>0.80000001192093</ele>
        <time>2023-08-08T07:17:34.000Z</time>
      </trkpt>
      <trkpt lat="50.9877" lon="2.07399">
        <ele>0.60000002384186</ele>
        <time>2023-08-08T07:17:42.000Z</time>
      </trkpt>
      <trkpt lat="50.98763" lon="2.07359">
        <ele>0.60000002384186</ele>
        <time>2023-08-08T07:17:47.000Z</time>
      </trkpt>
      <trkpt lat="50.98757" lon="2.0732">
        <ele>0.60000002384186</ele>
        <time>2023-08-08T07:17:52.000Z</time>
      </trkpt>
      <trkpt lat="50.98743" lon="2.07234">
        <ele>0.60000002384186</ele>
        <time>2023-08-08T07:18:03.000Z</time>
      </trkpt>
      <trkpt lat="50.98732" lon="2.07157">
        <ele>0.60000002384186</ele>
        <time>2023-08-08T07:18:13.000Z</time>
      </trkpt>
      <trkpt lat="50.98727" lon="2.07083">
        <ele>0.60000002384186</ele>
        <time>2023-08-08T07:18:22.000Z</time>
      </trkpt>
      <trkpt lat="50.98722" lon="2.06994">
        <ele>0.60000002384186</ele>
        <time>2023-08-08T07:18:33.000Z</time>
      </trkpt>
      <trkpt lat="50.98721" lon="2.06977">
        <ele>0.60000002384186</ele>
        <time>2023-08-08T07:18:35.000Z</time>
      </trkpt>
      <trkpt lat="50.98717" lon="2.069">
        <ele>0.60000002384186</ele>
        <time>2023-08-08T07:18:44.000Z</time>
      </trkpt>
      <trkpt lat="50.98711" lon="2.06812">
        <ele>0.60000002384186</ele>
        <time>2023-08-08T07:18:54.000Z</time>
      </trkpt>
      <trkpt lat="50.98704" lon="2.06722">
        <ele>0.60000002384186</ele>
        <time>2023-08-08T07:19:04.000Z</time>
      </trkpt>
      <trkpt lat="50.98703" lon="2.06704">
        <ele>0.60000002384186</ele>
        <time>2023-08-08T07:19:06.000Z</time>
      </trkpt>
      <trkpt lat="50.98701" lon="2.06679">
        <ele>0.60000002384186</ele>
        <time>2023-08-08T07:19:09.000Z</time>
      </trkpt>
      <trkpt lat="50.98699" lon="2.06643">
        <ele>0.60000002384186</ele>
        <time>2023-08-08T07:19:13.000Z</time>
      </trkpt>
      <trkpt lat="50.98697" lon="2.06617">
        <ele>0.60000002384186</ele>
        <time>2023-08-08T07:19:16.000Z</time>
      </trkpt>
      <trkpt lat="50.98695" lon="2.06582">
        <ele>0.60000002384186</ele>
        <time>2023-08-08T07:19:20.000Z</time>
      </trkpt>
      <trkpt lat="50.98693" lon="2.06522">
        <ele>0.80000001192093</ele>
        <time>2023-08-08T07:19:27.000Z</time>
      </trkpt>
      <trkpt lat="50.98697" lon="2.06455">
        <ele>1</ele>
        <time>2023-08-08T07:19:35.000Z</time>
      </trkpt>
      <trkpt lat="50.98703" lon="2.0638">
        <ele>1</ele>
        <time>2023-08-08T07:19:44.000Z</time>
      </trkpt>
      <trkpt lat="50.98701" lon="2.0631">
        <ele>1.2000000476837</ele>
        <time>2023-08-08T07:19:52.000Z</time>
      </trkpt>
      <trkpt lat="50.98695" lon="2.06239">
        <ele>1.3999999761581</ele>
        <time>2023-08-08T07:20:00.000Z</time>
      </trkpt>
      <trkpt lat="50.98694" lon="2.0623">
        <ele>1.3999999761581</ele>
        <time>2023-08-08T07:20:01.000Z</time>
      </trkpt>
      <trkpt lat="50.98691" lon="2.06151">
        <ele>1.7999999523163</ele>
        <time>2023-08-08T07:20:10.000Z</time>
      </trkpt>
      <trkpt lat="50.98692" lon="2.06078">
        <ele>1.7999999523163</ele>
        <time>2023-08-08T07:20:18.000Z</time>
      </trkpt>
      <trkpt lat="50.98692" lon="2.05998">
        <ele>1.6000000238419</ele>
        <time>2023-08-08T07:20:27.000Z</time>
      </trkpt>
      <trkpt lat="50.98692" lon="2.05911">
        <ele>1.3999999761581</ele>
        <time>2023-08-08T07:20:37.000Z</time>
      </trkpt>
      <trkpt lat="50.98692" lon="2.05836">
        <ele>1.3999999761581</ele>
        <time>2023-08-08T07:20:46.000Z</time>
      </trkpt>
      <trkpt lat="50.98697" lon="2.05751">
        <ele>1.3999999761581</ele>
        <time>2023-08-08T07:20:56.000Z</time>
      </trkpt>
      <trkpt lat="50.98705" lon="2.05676">
        <ele>1.2000000476837</ele>
        <time>2023-08-08T07:21:05.000Z</time>
      </trkpt>
      <trkpt lat="50.98713" lon="2.05591">
        <ele>1</ele>
        <time>2023-08-08T07:21:15.000Z</time>
      </trkpt>
      <trkpt lat="50.98716" lon="2.05501">
        <ele>1</ele>
        <time>2023-08-08T07:21:25.000Z</time>
      </trkpt>
      <trkpt lat="50.98717" lon="2.05483">
        <ele>1</ele>
        <time>2023-08-08T07:21:27.000Z</time>
      </trkpt>
      <trkpt lat="50.98719" lon="2.05395">
        <ele>1</ele>
        <time>2023-08-08T07:21:37.000Z</time>
      </trkpt>
      <trkpt lat="50.9872" lon="2.05351">
        <ele>1.2000000476837</ele>
        <time>2023-08-08T07:21:42.000Z</time>
      </trkpt>
      <trkpt lat="50.98722" lon="2.05257">
        <ele>1.3999999761581</ele>
        <time>2023-08-08T07:21:53.000Z</time>
      </trkpt>
      <trkpt lat="50.98723" lon="2.0524">
        <ele>1.3999999761581</ele>
        <time>2023-08-08T07:21:55.000Z</time>
      </trkpt>
      <trkpt lat="50.98725" lon="2.05146">
        <ele>1.6000000238419</ele>
        <time>2023-08-08T07:22:06.000Z</time>
      </trkpt>
      <trkpt lat="50.98725" lon="2.05137">
        <ele>1.6000000238419</ele>
        <time>2023-08-08T07:22:07.000Z</time>
      </trkpt>
      <trkpt lat="50.98728" lon="2.05049">
        <ele>1.3999999761581</ele>
        <time>2023-08-08T07:22:17.000Z</time>
      </trkpt>
      <trkpt lat="50.98728" lon="2.05032">
        <ele>1.6000000238419</ele>
        <time>2023-08-08T07:22:19.000Z</time>
      </trkpt>
      <trkpt lat="50.9873" lon="2.04949">
        <ele>1.3999999761581</ele>
        <time>2023-08-08T07:22:29.000Z</time>
      </trkpt>
      <trkpt lat="50.9873" lon="2.04876">
        <ele>1.2000000476837</ele>
        <time>2023-08-08T07:22:38.000Z</time>
      </trkpt>
      <trkpt lat="50.98731" lon="2.04817">
        <ele>1.2000000476837</ele>
        <time>2023-08-08T07:22:46.000Z</time>
      </trkpt>
      <trkpt lat="50.98733" lon="2.04725">
        <ele>1.3999999761581</ele>
        <time>2023-08-08T07:22:57.000Z</time>
      </trkpt>
      <trkpt lat="50.98734" lon="2.04644">
        <ele>1.3999999761581</ele>
        <time>2023-08-08T07:23:07.000Z</time>
      </trkpt>
      <trkpt lat="50.98735" lon="2.04563">
        <ele>1.6000000238419</ele>
        <time>2023-08-08T07:23:17.000Z</time>
      </trkpt>
      <trkpt lat="50.98736" lon="2.04469">
        <ele>1.7999999523163</ele>
        <time>2023-08-08T07:23:28.000Z</time>
      </trkpt>
      <trkpt lat="50.98736" lon="2.0446">
        <ele>1.7999999523163</ele>
        <time>2023-08-08T07:23:29.000Z</time>
      </trkpt>
      <trkpt lat="50.98736" lon="2.04371">
        <ele>1.7999999523163</ele>
        <time>2023-08-08T07:23:39.000Z</time>
      </trkpt>
      <trkpt lat="50.98737" lon="2.04295">
        <ele>1.7999999523163</ele>
        <time>2023-08-08T07:23:48.000Z</time>
      </trkpt>
      <trkpt lat="50.98738" lon="2.04222">
        <ele>2</ele>
        <time>2023-08-08T07:23:57.000Z</time>
      </trkpt>
      <trkpt lat="50.98739" lon="2.0414">
        <ele>2</ele>
        <time>2023-08-08T07:24:07.000Z</time>
      </trkpt>
      <trkpt lat="50.9874" lon="2.0405">
        <ele>2</ele>
        <time>2023-08-08T07:24:18.000Z</time>
      </trkpt>
      <trkpt lat="50.98741" lon="2.04">
        <ele>2</ele>
        <time>2023-08-08T07:24:24.000Z</time>
      </trkpt>
      <trkpt lat="50.98742" lon="2.03992">
        <ele>2</ele>
        <time>2023-08-08T07:24:25.000Z</time>
      </trkpt>
      <trkpt lat="50.98754" lon="2.03928">
        <ele>2</ele>
        <time>2023-08-08T07:24:33.000Z</time>
      </trkpt>
      <trkpt lat="50.98758" lon="2.03903">
        <ele>2</ele>
        <time>2023-08-08T07:24:36.000Z</time>
      </trkpt>
      <trkpt lat="50.98758" lon="2.03868">
        <ele>1.6000000238419</ele>
        <time>2023-08-08T07:24:40.000Z</time>
      </trkpt>
      <trkpt lat="50.98752" lon="2.0381">
        <ele>1.6000000238419</ele>
        <time>2023-08-08T07:24:47.000Z</time>
      </trkpt>
      <trkpt lat="50.9874" lon="2.03718">
        <ele>1.3999999761581</ele>
        <time>2023-08-08T07:24:58.000Z</time>
      </trkpt>
      <trkpt lat="50.98736" lon="2.03635">
        <ele>1.7999999523163</ele>
        <time>2023-08-08T07:25:08.000Z</time>
      </trkpt>
      <trkpt lat="50.98735" lon="2.03547">
        <ele>2</ele>
        <time>2023-08-08T07:25:19.000Z</time>
      </trkpt>
      <trkpt lat="50.98735" lon="2.03532">
        <ele>2</ele>
        <time>2023-08-08T07:25:21.000Z</time>
      </trkpt>
      <trkpt lat="50.98735" lon="2.03518">
        <ele>2</ele>
        <time>2023-08-08T07:25:23.000Z</time>
      </trkpt>
      <trkpt lat="50.98735" lon="2.03502">
        <ele>2</ele>
        <time>2023-08-08T07:25:25.000Z</time>
      </trkpt>
      <trkpt lat="50.98731" lon="2.03491">
        <ele>2</ele>
        <time>2023-08-08T07:25:27.000Z</time>
      </trkpt>
      <trkpt lat="50.98729" lon="2.03485">
        <ele>2</ele>
        <time>2023-08-08T07:25:28.000Z</time>
      </trkpt>
      <trkpt lat="50.98729" lon="2.03478">
        <ele>2</ele>
        <time>2023-08-08T07:25:29.000Z</time>
      </trkpt>
      <trkpt lat="50.9873" lon="2.03448">
        <ele>2</ele>
        <time>2023-08-08T07:25:33.000Z</time>
      </trkpt>
      <trkpt lat="50.98728" lon="2.03376">
        <ele>2</ele>
        <time>2023-08-08T07:25:42.000Z</time>
      </trkpt>
      <trkpt lat="50.98724" lon="2.03328">
        <ele>2</ele>
        <time>2023-08-08T07:25:48.000Z</time>
      </trkpt>
      <trkpt lat="50.98721" lon="2.03313">
        <ele>2</ele>
        <time>2023-08-08T07:25:50.000Z</time>
      </trkpt>
      <trkpt lat="50.98713" lon="2.03273">
        <ele>2</ele>
        <time>2023-08-08T07:25:56.000Z</time>
      </trkpt>
      <trkpt lat="50.98706" lon="2.03242">
        <ele>2</ele>
        <time>2023-08-08T07:26:02.000Z</time>
      </trkpt>
      <trkpt lat="50.98705" lon="2.03233">
        <ele>2</ele>
        <time>2023-08-08T07:26:05.000Z</time>
      </trkpt>
      <trkpt lat="50.98705" lon="2.03232">
        <ele>2</ele>
        <time>2023-08-08T07:26:07.000Z</time>
      </trkpt>
      <trkpt lat="50.98705" lon="2.03232">
        <ele>2</ele>
        <time>2023-08-08T07:26:08.000Z</time>
      </trkpt>
      <trkpt lat="50.987" lon="2.03233">
        <ele>2.2000000476837</ele>
        <time>2023-08-08T07:29:28.000Z</time>
      </trkpt>
      <trkpt lat="50.98689" lon="2.03233">
        <ele>2</ele>
        <time>2023-08-08T07:29:30.000Z</time>
      </trkpt>
      <trkpt lat="50.98672" lon="2.03231">
        <ele>1.3999999761581</ele>
        <time>2023-08-08T07:29:34.000Z</time>
      </trkpt>
      <trkpt lat="50.98667" lon="2.0323">
        <ele>1.2000000476837</ele>
        <time>2023-08-08T07:29:36.000Z</time>
      </trkpt>
      <trkpt lat="50.98631" lon="2.0323">
        <ele>1</ele>
        <time>2023-08-08T07:29:43.000Z</time>
      </trkpt>
      <trkpt lat="50.98582" lon="2.03229">
        <ele>1</ele>
        <time>2023-08-08T07:29:51.000Z</time>
      </trkpt>
      <trkpt lat="50.98531" lon="2.0323">
        <ele>0.80000001192093</ele>
        <time>2023-08-08T07:30:00.000Z</time>
      </trkpt>
      <trkpt lat="50.98476" lon="2.03229">
        <ele>0.80000001192093</ele>
        <time>2023-08-08T07:30:10.000Z</time>
      </trkpt>
      <trkpt lat="50.98465" lon="2.03228">
        <ele>1</ele>
        <time>2023-08-08T07:30:12.000Z</time>
      </trkpt>
      <trkpt lat="50.98454" lon="2.03228">
        <ele>1</ele>
        <time>2023-08-08T07:30:14.000Z</time>
      </trkpt>
      <trkpt lat="50.98433" lon="2.03225">
        <ele>1</ele>
        <time>2023-08-08T07:30:18.000Z</time>
      </trkpt>
      <trkpt lat="50.98424" lon="2.03226">
        <ele>1</ele>
        <time>2023-08-08T07:30:20.000Z</time>
      </trkpt>
      <trkpt lat="50.9842" lon="2.03229">
        <ele>1</ele>
        <time>2023-08-08T07:30:21.000Z</time>
      </trkpt>
      <trkpt lat="50.98418" lon="2.03235">
        <ele>1</ele>
        <time>2023-08-08T07:30:22.000Z</time>
      </trkpt>
      <trkpt lat="50.98417" lon="2.0325">
        <ele>1</ele>
        <time>2023-08-08T07:30:24.000Z</time>
      </trkpt>
      <trkpt lat="50.98408" lon="2.03318">
        <ele>1</ele>
        <time>2023-08-08T07:30:32.000Z</time>
      </trkpt>
      <trkpt lat="50.98403" lon="2.03342">
        <ele>1</ele>
        <time>2023-08-08T07:30:35.000Z</time>
      </trkpt>
      <trkpt lat="50.98397" lon="2.03353">
        <ele>1</ele>
        <time>2023-08-08T07:30:37.000Z</time>
      </trkpt>
      <trkpt lat="50.98377" lon="2.03354">
        <ele>1</ele>
        <time>2023-08-08T07:30:41.000Z</time>
      </trkpt>
      <trkpt lat="50.9833" lon="2.03353">
        <ele>1</ele>
        <time>2023-08-08T07:30:51.000Z</time>
      </trkpt>
      <trkpt lat="50.98312" lon="2.03353">
        <ele>1</ele>
        <time>2023-08-08T07:30:53.000Z</time>
      </trkpt>
      <trkpt lat="50.98305" lon="2.03345">
        <ele>1</ele>
        <time>2023-08-08T07:30:55.000Z</time>
      </trkpt>
      <trkpt lat="50.98303" lon="2.03335">
        <ele>1</ele>
        <time>2023-08-08T07:30:58.000Z</time>
      </trkpt>
      <trkpt lat="50.98301" lon="2.03328">
        <ele>0.80000001192093</ele>
        <time>2023-08-08T07:31:03.000Z</time>
      </trkpt>
      <trkpt lat="50.983" lon="2.03327">
        <ele>0.80000001192093</ele>
        <time>2023-08-08T07:31:04.000Z</time>
      </trkpt>
      <trkpt lat="50.98293" lon="2.03329">
        <ele>0.80000001192093</ele>
        <time>2023-08-08T07:31:08.000Z</time>
      </trkpt>
      <trkpt lat="50.98277" lon="2.03336">
        <ele>0.80000001192093</ele>
        <time>2023-08-08T07:31:14.000Z</time>
      </trkpt>
      <trkpt lat="50.98266" lon="2.03344">
        <ele>1</ele>
        <time>2023-08-08T07:31:19.000Z</time>
      </trkpt>
      <trkpt lat="50.98252" lon="2.0334">
        <ele>0.80000001192093</ele>
        <time>2023-08-08T07:31:25.000Z</time>
      </trkpt>
      <trkpt lat="50.98244" lon="2.0334">
        <ele>0.80000001192093</ele>
        <time>2023-08-08T07:31:28.000Z</time>
      </trkpt>
      <trkpt lat="50.98242" lon="2.03337">
        <ele>0.80000001192093</ele>
        <time>2023-08-08T07:31:29.000Z</time>
      </trkpt>
      <trkpt lat="50.98235" lon="2.03315">
        <ele>0.80000001192093</ele>
        <time>2023-08-08T07:31:35.000Z</time>
      </trkpt>
      <trkpt lat="50.98237" lon="2.03296">
        <ele>0.80000001192093</ele>
        <time>2023-08-08T07:31:40.000Z</time>
      </trkpt>
      <trkpt lat="50.98236" lon="2.03294">
        <ele>0.80000001192093</ele>
        <time>2023-08-08T07:31:41.000Z</time>
      </trkpt>
      <trkpt lat="50.98236" lon="2.03293">
        <ele>0.80000001192093</ele>
        <time>2023-08-08T07:31:42.000Z</time>
      </trkpt>
      <trkpt lat="50.98231" lon="2.03289">
        <ele>0.80000001192093</ele>
        <time>2023-08-08T07:31:44.000Z</time>
      </trkpt>
      <trkpt lat="50.98228" lon="2.03289">
        <ele>1</ele>
        <time>2023-08-08T07:31:45.000Z</time>
      </trkpt>
      <trkpt lat="50.98208" lon="2.03289">
        <ele>1</ele>
        <time>2023-08-08T07:31:51.000Z</time>
      </trkpt>
      <trkpt lat="50.9818" lon="2.03291">
        <ele>1</ele>
        <time>2023-08-08T07:31:57.000Z</time>
      </trkpt>
      <trkpt lat="50.98172" lon="2.0329">
        <ele>1.2000000476837</ele>
        <time>2023-08-08T07:32:01.000Z</time>
      </trkpt>
      <trkpt lat="50.98171" lon="2.03268">
        <ele>1.2000000476837</ele>
        <time>2023-08-08T07:32:06.000Z</time>
      </trkpt>
      <trkpt lat="50.98172" lon="2.03233">
        <ele>1.2000000476837</ele>
        <time>2023-08-08T07:32:11.000Z</time>
      </trkpt>
      <trkpt lat="50.98173" lon="2.03179">
        <ele>1.2000000476837</ele>
        <time>2023-08-08T07:32:18.000Z</time>
      </trkpt>
      <trkpt lat="50.98173" lon="2.03118">
        <ele>1.2000000476837</ele>
        <time>2023-08-08T07:32:26.000Z</time>
      </trkpt>
      <trkpt lat="50.9817" lon="2.0305">
        <ele>1.3999999761581</ele>
        <time>2023-08-08T07:32:35.000Z</time>
      </trkpt>
      <trkpt lat="50.98168" lon="2.02997">
        <ele>1.2000000476837</ele>
        <time>2023-08-08T07:32:42.000Z</time>
      </trkpt>
      <trkpt lat="50.98167" lon="2.02967">
        <ele>1.2000000476837</ele>
        <time>2023-08-08T07:32:46.000Z</time>
      </trkpt>
      <trkpt lat="50.98165" lon="2.02952">
        <ele>1.2000000476837</ele>
        <time>2023-08-08T07:32:48.000Z</time>
      </trkpt>
      <trkpt lat="50.98159" lon="2.02896">
        <ele>1.3999999761581</ele>
        <time>2023-08-08T07:32:55.000Z</time>
      </trkpt>
      <trkpt lat="50.98154" lon="2.02814">
        <ele>1.2000000476837</ele>
        <time>2023-08-08T07:33:05.000Z</time>
      </trkpt>
      <trkpt lat="50.98151" lon="2.02733">
        <ele>1.3999999761581</ele>
        <time>2023-08-08T07:33:15.000Z</time>
      </trkpt>
      <trkpt lat="50.98146" lon="2.02649">
        <ele>1.2000000476837</ele>
        <time>2023-08-08T07:33:25.000Z</time>
      </trkpt>
      <trkpt lat="50.98138" lon="2.02576">
        <ele>1</ele>
        <time>2023-08-08T07:33:34.000Z</time>
      </trkpt>
      <trkpt lat="50.9814" lon="2.02527">
        <ele>0.80000001192093</ele>
        <time>2023-08-08T07:33:40.000Z</time>
      </trkpt>
      <trkpt lat="50.98159" lon="2.0246">
        <ele>1</ele>
        <time>2023-08-08T07:33:49.000Z</time>
      </trkpt>
      <trkpt lat="50.98178" lon="2.02389">
        <ele>0.80000001192093</ele>
        <time>2023-08-08T07:33:58.000Z</time>
      </trkpt>
      <trkpt lat="50.98181" lon="2.02312">
        <ele>1.2000000476837</ele>
        <time>2023-08-08T07:34:07.000Z</time>
      </trkpt>
      <trkpt lat="50.98172" lon="2.02247">
        <ele>1.2000000476837</ele>
        <time>2023-08-08T07:34:15.000Z</time>
      </trkpt>
      <trkpt lat="50.9816" lon="2.02162">
        <ele>1</ele>
        <time>2023-08-08T07:34:25.000Z</time>
      </trkpt>
      <trkpt lat="50.98153" lon="2.02077">
        <ele>0.80000001192093</ele>
        <time>2023-08-08T07:34:35.000Z</time>
      </trkpt>
      <trkpt lat="50.98144" lon="2.01986">
        <ele>0.80000001192093</ele>
        <time>2023-08-08T07:34:46.000Z</time>
      </trkpt>
      <trkpt lat="50.9813" lon="2.01905">
        <ele>1</ele>
        <time>2023-08-08T07:34:56.000Z</time>
      </trkpt>
      <trkpt lat="50.98119" lon="2.0185">
        <ele>1.2000000476837</ele>
        <time>2023-08-08T07:35:03.000Z</time>
      </trkpt>
      <trkpt lat="50.98109" lon="2.01791">
        <ele>1.3999999761581</ele>
        <time>2023-08-08T07:35:11.000Z</time>
      </trkpt>
      <trkpt lat="50.98104" lon="2.01755">
        <ele>1.3999999761581</ele>
        <time>2023-08-08T07:35:17.000Z</time>
      </trkpt>
      <trkpt lat="50.98103" lon="2.01743">
        <ele>1.3999999761581</ele>
        <time>2023-08-08T07:35:19.000Z</time>
      </trkpt>
      <trkpt lat="50.98103" lon="2.01736">
        <ele>1.3999999761581</ele>
        <time>2023-08-08T07:35:20.000Z</time>
      </trkpt>
      <trkpt lat="50.98098" lon="2.01659">
        <ele>1.2000000476837</ele>
        <time>2023-08-08T07:35:28.000Z</time>
      </trkpt>
      <trkpt lat="50.98092" lon="2.0158">
        <ele>1</ele>
        <time>2023-08-08T07:35:37.000Z</time>
      </trkpt>
      <trkpt lat="50.9809" lon="2.01561">
        <ele>1</ele>
        <time>2023-08-08T07:35:39.000Z</time>
      </trkpt>
      <trkpt lat="50.98084" lon="2.01533">
        <ele>1</ele>
        <time>2023-08-08T07:35:43.000Z</time>
      </trkpt>
      <trkpt lat="50.98067" lon="2.0148">
        <ele>1</ele>
        <time>2023-08-08T07:35:49.000Z</time>
      </trkpt>
      <trkpt lat="50.9806" lon="2.01466">
        <ele>0.80000001192093</ele>
        <time>2023-08-08T07:35:51.000Z</time>
      </trkpt>
      <trkpt lat="50.98041" lon="2.01437">
        <ele>0.60000002384186</ele>
        <time>2023-08-08T07:35:55.000Z</time>
      </trkpt>
      <trkpt lat="50.98" lon="2.01375">
        <ele>0.60000002384186</ele>
        <time>2023-08-08T07:36:03.000Z</time>
      </trkpt>
      <trkpt lat="50.97992" lon="2.0136">
        <ele>0.60000002384186</ele>
        <time>2023-08-08T07:36:05.000Z</time>
      </trkpt>
      <trkpt lat="50.97961" lon="2.01299">
        <ele>0.40000000596046</ele>
        <time>2023-08-08T07:36:13.000Z</time>
      </trkpt>
      <trkpt lat="50.97938" lon="2.01245">
        <ele>0.40000000596046</ele>
        <time>2023-08-08T07:36:20.000Z</time>
      </trkpt>
      <trkpt lat="50.97905" lon="2.01191">
        <ele>0.20000000298023</ele>
        <time>2023-08-08T07:36:29.000Z</time>
      </trkpt>
      <trkpt lat="50.97868" lon="2.01123">
        <ele>0.60000002384186</ele>
        <time>2023-08-08T07:36:38.000Z</time>
      </trkpt>
      <trkpt lat="50.97865" lon="2.01116">
        <ele>0.60000002384186</ele>
        <time>2023-08-08T07:36:39.000Z</time>
      </trkpt>
      <trkpt lat="50.97836" lon="2.01054">
        <ele>0.60000002384186</ele>
        <time>2023-08-08T07:36:48.000Z</time>
      </trkpt>
      <trkpt lat="50.97823" lon="2.01038">
        <ele>0.60000002384186</ele>
        <time>2023-08-08T07:36:51.000Z</time>
      </trkpt>
      <trkpt lat="50.9782" lon="2.01031">
        <ele>0.60000002384186</ele>
        <time>2023-08-08T07:36:52.000Z</time>
      </trkpt>
      <trkpt lat="50.97797" lon="2.0097">
        <ele>0.80000001192093</ele>
        <time>2023-08-08T07:37:00.000Z</time>
      </trkpt>
      <trkpt lat="50.97769" lon="2.00889">
        <ele>1</ele>
        <time>2023-08-08T07:37:10.000Z</time>
      </trkpt>
      <trkpt lat="50.97739" lon="2.0082">
        <ele>1</ele>
        <time>2023-08-08T07:37:19.000Z</time>
      </trkpt>
      <trkpt lat="50.97704" lon="2.00745">
        <ele>0.80000001192093</ele>
        <time>2023-08-08T07:37:29.000Z</time>
      </trkpt>
      <trkpt lat="50.97701" lon="2.00737">
        <ele>0.80000001192093</ele>
        <time>2023-08-08T07:37:30.000Z</time>
      </trkpt>
      <trkpt lat="50.9768" lon="2.00665">
        <ele>0.60000002384186</ele>
        <time>2023-08-08T07:37:39.000Z</time>
      </trkpt>
      <trkpt lat="50.97659" lon="2.00595">
        <ele>0.60000002384186</ele>
        <time>2023-08-08T07:37:48.000Z</time>
      </trkpt>
      <trkpt lat="50.97639" lon="2.00524">
        <ele>0.40000000596046</ele>
        <time>2023-08-08T07:37:57.000Z</time>
      </trkpt>
      <trkpt lat="50.97622" lon="2.00453">
        <ele>0.40000000596046</ele>
        <time>2023-08-08T07:38:06.000Z</time>
      </trkpt>
      <trkpt lat="50.97602" lon="2.00376">
        <ele>0.20000000298023</ele>
        <time>2023-08-08T07:38:16.000Z</time>
      </trkpt>
      <trkpt lat="50.97575" lon="2.00302">
        <ele>0.20000000298023</ele>
        <time>2023-08-08T07:38:26.000Z</time>
      </trkpt>
      <trkpt lat="50.97546" lon="2.00221">
        <ele>0.20000000298023</ele>
        <time>2023-08-08T07:38:37.000Z</time>
      </trkpt>
      <trkpt lat="50.97538" lon="2.00199">
        <ele>0.20000000298023</ele>
        <time>2023-08-08T07:38:40.000Z</time>
      </trkpt>
      <trkpt lat="50.97511" lon="2.00126">
        <ele>3</ele>
        <time>2023-08-08T07:38:50.000Z</time>
      </trkpt>
      <trkpt lat="50.97501" lon="2.00078">
        <ele>0.20000000298023</ele>
        <time>2023-08-08T07:38:56.000Z</time>
      </trkpt>
      <trkpt lat="50.97492" lon="2.00004">
        <ele>0.20000000298023</ele>
        <time>2023-08-08T07:39:05.000Z</time>
      </trkpt>
      <trkpt lat="50.97479" lon="1.99921">
        <ele>3</ele>
        <time>2023-08-08T07:39:15.000Z</time>
      </trkpt>
      <trkpt lat="50.97462" lon="1.99858">
        <ele>3</ele>
        <time>2023-08-08T07:39:23.000Z</time>
      </trkpt>
      <trkpt lat="50.97448" lon="1.99832">
        <ele>3</ele>
        <time>2023-08-08T07:39:27.000Z</time>
      </trkpt>
      <trkpt lat="50.97439" lon="1.99821">
        <ele>3</ele>
        <time>2023-08-08T07:39:29.000Z</time>
      </trkpt>
      <trkpt lat="50.97396" lon="1.99767">
        <ele>2.8</ele>
        <time>2023-08-08T07:39:39.000Z</time>
      </trkpt>
      <trkpt lat="50.97372" lon="1.99744">
        <ele>-0.20000000298023</ele>
        <time>2023-08-08T07:39:44.000Z</time>
      </trkpt>
      <trkpt lat="50.97368" lon="1.99738">
        <ele>-0.20000000298023</ele>
        <time>2023-08-08T07:39:45.000Z</time>
      </trkpt>
      <trkpt lat="50.97359" lon="1.99727">
        <ele>-0.20000000298023</ele>
        <time>2023-08-08T07:39:47.000Z</time>
      </trkpt>
      <trkpt lat="50.97343" lon="1.99692">
        <ele>-0.40000000596046</ele>
        <time>2023-08-08T07:39:52.000Z</time>
      </trkpt>
      <trkpt lat="50.97336" lon="1.99668">
        <ele>-0.40000000596046</ele>
        <time>2023-08-08T07:39:55.000Z</time>
      </trkpt>
      <trkpt lat="50.97334" lon="1.99651">
        <ele>-0.40000000596046</ele>
        <time>2023-08-08T07:39:57.000Z</time>
      </trkpt>
      <trkpt lat="50.97324" lon="1.99566">
        <ele>-0.20000000298023</ele>
        <time>2023-08-08T07:40:07.000Z</time>
      </trkpt>
      <trkpt lat="50.97324" lon="1.99558">
        <ele>-0.20000000298023</ele>
        <time>2023-08-08T07:40:08.000Z</time>
      </trkpt>
      <trkpt lat="50.97318" lon="1.99506">
        <ele>-0.20000000298023</ele>
        <time>2023-08-08T07:40:14.000Z</time>
      </trkpt>
      <trkpt lat="50.97313" lon="1.99454">
        <ele>3</ele>
        <time>2023-08-08T07:40:20.000Z</time>
      </trkpt>
      <trkpt lat="50.97306" lon="1.99388">
        <ele>2</ele>
        <time>2023-08-08T07:40:28.000Z</time>
      </trkpt>
      <trkpt lat="50.97306" lon="1.99373">
        <ele>2.6</ele>
        <time>2023-08-08T07:40:30.000Z</time>
      </trkpt>
      <trkpt lat="50.97308" lon="1.99357">
        <ele>2.9</ele>
        <time>2023-08-08T07:40:32.000Z</time>
      </trkpt>
      <trkpt lat="50.97316" lon="1.99348">
        <ele>2.8</ele>
        <time>2023-08-08T07:40:34.000Z</time>
      </trkpt>
      <trkpt lat="50.9732" lon="1.99346">
        <ele>2.8</ele>
        <time>2023-08-08T07:40:35.000Z</time>
      </trkpt>
      <trkpt lat="50.97325" lon="1.99346">
        <ele>2.7</ele>
        <time>2023-08-08T07:40:36.000Z</time>
      </trkpt>
      <trkpt lat="50.97346" lon="1.99351">
        <ele>2.7</ele>
        <time>2023-08-08T07:40:40.000Z</time>
      </trkpt>
      <trkpt lat="50.97378" lon="1.99368">
        <ele>0.20000000298023</ele>
        <time>2023-08-08T07:40:46.000Z</time>
      </trkpt>
      <trkpt lat="50.97422" lon="1.99401">
        <ele>0.60000002384186</ele>
        <time>2023-08-08T07:40:55.000Z</time>
      </trkpt>
      <trkpt lat="50.97439" lon="1.9942">
        <ele>0.60000002384186</ele>
        <time>2023-08-08T07:40:59.000Z</time>
      </trkpt>
      <trkpt lat="50.97447" lon="1.99431">
        <ele>0.60000002384186</ele>
        <time>2023-08-08T07:41:01.000Z</time>
      </trkpt>
      <trkpt lat="50.97459" lon="1.99448">
        <ele>0.80000001192093</ele>
        <time>2023-08-08T07:41:04.000Z</time>
      </trkpt>
      <trkpt lat="50.97481" lon="1.99483">
        <ele>1.2000000476837</ele>
        <time>2023-08-08T07:41:10.000Z</time>
      </trkpt>
      <trkpt lat="50.97497" lon="1.99508">
        <ele>1.2000000476837</ele>
        <time>2023-08-08T07:41:14.000Z</time>
      </trkpt>
      <trkpt lat="50.97501" lon="1.99513">
        <ele>1</ele>
        <time>2023-08-08T07:41:16.000Z</time>
      </trkpt>
      <trkpt lat="50.97512" lon="1.99517">
        <ele>0.80000001192093</ele>
        <time>2023-08-08T07:41:17.000Z</time>
      </trkpt>
      <trkpt lat="50.97518" lon="1.99514">
        <ele>0.80000001192093</ele>
        <time>2023-08-08T07:41:18.000Z</time>
      </trkpt>
      <trkpt lat="50.97522" lon="1.99509">
        <ele>0.60000002384186</ele>
        <time>2023-08-08T07:41:19.000Z</time>
      </trkpt>
      <trkpt lat="50.97526" lon="1.99493">
        <ele>0.40000000596046</ele>
        <time>2023-08-08T07:41:21.000Z</time>
      </trkpt>
      <trkpt lat="50.97532" lon="1.99443">
        <ele>0.40000000596046</ele>
        <time>2023-08-08T07:41:27.000Z</time>
      </trkpt>
      <trkpt lat="50.97539" lon="1.99361">
        <ele>0.40000000596046</ele>
        <time>2023-08-08T07:41:37.000Z</time>
      </trkpt>
      <trkpt lat="50.97542" lon="1.99279">
        <ele>0.20000000298023</ele>
        <time>2023-08-08T07:41:47.000Z</time>
      </trkpt>
      <trkpt lat="50.97544" lon="1.99213">
        <ele>0.20000000298023</ele>
        <time>2023-08-08T07:41:55.000Z</time>
      </trkpt>
      <trkpt lat="50.97545" lon="1.99204">
        <ele>0.20000000298023</ele>
        <time>2023-08-08T07:41:56.000Z</time>
      </trkpt>
      <trkpt lat="50.97555" lon="1.99146">
        <ele>0.20000000298023</ele>
        <time>2023-08-08T07:42:03.000Z</time>
      </trkpt>
      <trkpt lat="50.97569" lon="1.99081">
        <ele>0.40000000596046</ele>
        <time>2023-08-08T07:42:11.000Z</time>
      </trkpt>
      <trkpt lat="50.97572" lon="1.98998">
        <ele>0.60000002384186</ele>
        <time>2023-08-08T07:42:21.000Z</time>
      </trkpt>
      <trkpt lat="50.97571" lon="1.98908">
        <ele>0.40000000596046</ele>
        <time>2023-08-08T07:42:32.000Z</time>
      </trkpt>
      <trkpt lat="50.97572" lon="1.98898">
        <ele>0.40000000596046</ele>
        <time>2023-08-08T07:42:33.000Z</time>
      </trkpt>
      <trkpt lat="50.97574" lon="1.98844">
        <ele>0.40000000596046</ele>
        <time>2023-08-08T07:42:40.000Z</time>
      </trkpt>
      <trkpt lat="50.97575" lon="1.98835">
        <ele>0.40000000596046</ele>
        <time>2023-08-08T07:42:41.000Z</time>
      </trkpt>
      <trkpt lat="50.97579" lon="1.9882">
        <ele>0.40000000596046</ele>
        <time>2023-08-08T07:42:43.000Z</time>
      </trkpt>
      <trkpt lat="50.97582" lon="1.98813">
        <ele>0.40000000596046</ele>
        <time>2023-08-08T07:42:44.000Z</time>
      </trkpt>
      <trkpt lat="50.97586" lon="1.98807">
        <ele>0.40000000596046</ele>
        <time>2023-08-08T07:42:45.000Z</time>
      </trkpt>
      <trkpt lat="50.97599" lon="1.98795">
        <ele>0.20000000298023</ele>
        <time>2023-08-08T07:42:48.000Z</time>
      </trkpt>
      <trkpt lat="50.97645" lon="1.98751">
        <ele>0.40000000596046</ele>
        <time>2023-08-08T07:42:58.000Z</time>
      </trkpt>
      <trkpt lat="50.9769" lon="1.98708">
        <ele>0.60000002384186</ele>
        <time>2023-08-08T07:43:08.000Z</time>
      </trkpt>
      <trkpt lat="50.97707" lon="1.98688">
        <ele>0.80000001192093</ele>
        <time>2023-08-08T07:43:12.000Z</time>
      </trkpt>
      <trkpt lat="50.97713" lon="1.98674">
        <ele>0.80000001192093</ele>
        <time>2023-08-08T07:43:14.000Z</time>
      </trkpt>
      <trkpt lat="50.97727" lon="1.9863">
        <ele>0.60000002384186</ele>
        <time>2023-08-08T07:43:20.000Z</time>
      </trkpt>
      <trkpt lat="50.97749" lon="1.98546">
        <ele>0.60000002384186</ele>
        <time>2023-08-08T07:43:31.000Z</time>
      </trkpt>
      <trkpt lat="50.97768" lon="1.98477">
        <ele>0.80000001192093</ele>
        <time>2023-08-08T07:43:40.000Z</time>
      </trkpt>
      <trkpt lat="50.97783" lon="1.98424">
        <ele>0.60000002384186</ele>
        <time>2023-08-08T07:43:47.000Z</time>
      </trkpt>
      <trkpt lat="50.97785" lon="1.98417">
        <ele>0.60000002384186</ele>
        <time>2023-08-08T07:43:48.000Z</time>
      </trkpt>
      <trkpt lat="50.97792" lon="1.98404">
        <ele>0.40000000596046</ele>
        <time>2023-08-08T07:43:50.000Z</time>
      </trkpt>
      <trkpt lat="50.97802" lon="1.98386">
        <ele>0.60000002384186</ele>
        <time>2023-08-08T07:43:53.000Z</time>
      </trkpt>
      <trkpt lat="50.97805" lon="1.98371">
        <ele>0.60000002384186</ele>
        <time>2023-08-08T07:43:55.000Z</time>
      </trkpt>
      <trkpt lat="50.97809" lon="1.98347">
        <ele>0.60000002384186</ele>
        <time>2023-08-08T07:43:58.000Z</time>
      </trkpt>
      <trkpt lat="50.97812" lon="1.98324">
        <ele>0.60000002384186</ele>
        <time>2023-08-08T07:44:01.000Z</time>
      </trkpt>
      <trkpt lat="50.9781" lon="1.98308">
        <ele>0.60000002384186</ele>
        <time>2023-08-08T07:44:03.000Z</time>
      </trkpt>
      <trkpt lat="50.97806" lon="1.98293">
        <ele>0.60000002384186</ele>
        <time>2023-08-08T07:44:05.000Z</time>
      </trkpt>
      <trkpt lat="50.97803" lon="1.98287">
        <ele>0.60000002384186</ele>
        <time>2023-08-08T07:44:07.000Z</time>
      </trkpt>
      <trkpt lat="50.97796" lon="1.98275">
        <ele>0.60000002384186</ele>
        <time>2023-08-08T07:44:08.000Z</time>
      </trkpt>
      <trkpt lat="50.97776" lon="1.98248">
        <ele>0.60000002384186</ele>
        <time>2023-08-08T07:44:13.000Z</time>
      </trkpt>
      <trkpt lat="50.97764" lon="1.98231">
        <ele>0.60000002384186</ele>
        <time>2023-08-08T07:44:16.000Z</time>
      </trkpt>
      <trkpt lat="50.97751" lon="1.98216">
        <ele>0.60000002384186</ele>
        <time>2023-08-08T07:44:19.000Z</time>
      </trkpt>
      <trkpt lat="50.97708" lon="1.98165">
        <ele>0.60000002384186</ele>
        <time>2023-08-08T07:44:29.000Z</time>
      </trkpt>
      <trkpt lat="50.97669" lon="1.98121">
        <ele>0.60000002384186</ele>
        <time>2023-08-08T07:44:38.000Z</time>
      </trkpt>
      <trkpt lat="50.97629" lon="1.9808">
        <ele>0.60000002384186</ele>
        <time>2023-08-08T07:44:47.000Z</time>
      </trkpt>
      <trkpt lat="50.97615" lon="1.9807">
        <ele>0.60000002384186</ele>
        <time>2023-08-08T07:44:50.000Z</time>
      </trkpt>
      <trkpt lat="50.97596" lon="1.98057">
        <ele>0.60000002384186</ele>
        <time>2023-08-08T07:44:54.000Z</time>
      </trkpt>
      <trkpt lat="50.97551" lon="1.98026">
        <ele>0.40000000596046</ele>
        <time>2023-08-08T07:45:04.000Z</time>
      </trkpt>
      <trkpt lat="50.97504" lon="1.97995">
        <ele>0.60000002384186</ele>
        <time>2023-08-08T07:45:14.000Z</time>
      </trkpt>
      <trkpt lat="50.97473" lon="1.9799">
        <ele>0.60000002384186</ele>
        <time>2023-08-08T07:45:20.000Z</time>
      </trkpt>
      <trkpt lat="50.97442" lon="1.97995">
        <ele>0.60000002384186</ele>
        <time>2023-08-08T07:45:26.000Z</time>
      </trkpt>
      <trkpt lat="50.97437" lon="1.97998">
        <ele>0.60000002384186</ele>
        <time>2023-08-08T07:45:27.000Z</time>
      </trkpt>
      <trkpt lat="50.97412" lon="1.98014">
        <ele>0.60000002384186</ele>
        <time>2023-08-08T07:45:32.000Z</time>
      </trkpt>
      <trkpt lat="50.97365" lon="1.98033">
        <ele>0.60000002384186</ele>
        <time>2023-08-08T07:45:41.000Z</time>
      </trkpt>
      <trkpt lat="50.97318" lon="1.98045">
        <ele>0.80000001192093</ele>
        <time>2023-08-08T07:45:50.000Z</time>
      </trkpt>
      <trkpt lat="50.97297" lon="1.98038">
        <ele>0.80000001192093</ele>
        <time>2023-08-08T07:45:54.000Z</time>
      </trkpt>
      <trkpt lat="50.97292" lon="1.98035">
        <ele>0.60000002384186</ele>
        <time>2023-08-08T07:45:55.000Z</time>
      </trkpt>
      <trkpt lat="50.97271" lon="1.98026">
        <ele>0.60000002384186</ele>
        <time>2023-08-08T07:45:59.000Z</time>
      </trkpt>
      <trkpt lat="50.97265" lon="1.98025">
        <ele>0.60000002384186</ele>
        <time>2023-08-08T07:46:00.000Z</time>
      </trkpt>
      <trkpt lat="50.97254" lon="1.98026">
        <ele>0.60000002384186</ele>
        <time>2023-08-08T07:46:02.000Z</time>
      </trkpt>
      <trkpt lat="50.97233" lon="1.9803">
        <ele>0.60000002384186</ele>
        <time>2023-08-08T07:46:06.000Z</time>
      </trkpt>
      <trkpt lat="50.97187" lon="1.98037">
        <ele>0.80000001192093</ele>
        <time>2023-08-08T07:46:15.000Z</time>
      </trkpt>
      <trkpt lat="50.97129" lon="1.98044">
        <ele>0.60000002384186</ele>
        <time>2023-08-08T07:46:26.000Z</time>
      </trkpt>
      <trkpt lat="50.97123" lon="1.98044">
        <ele>0.60000002384186</ele>
        <time>2023-08-08T07:46:27.000Z</time>
      </trkpt>
      <trkpt lat="50.9708" lon="1.98039">
        <ele>0.60000002384186</ele>
        <time>2023-08-08T07:46:35.000Z</time>
      </trkpt>
      <trkpt lat="50.97034" lon="1.98015">
        <ele>0.80000001192093</ele>
        <time>2023-08-08T07:46:44.000Z</time>
      </trkpt>
      <trkpt lat="50.96995" lon="1.9798">
        <ele>0.60000002384186</ele>
        <time>2023-08-08T07:46:52.000Z</time>
      </trkpt>
      <trkpt lat="50.96961" lon="1.97953">
        <ele>0.80000001192093</ele>
        <time>2023-08-08T07:46:59.000Z</time>
      </trkpt>
      <trkpt lat="50.96947" lon="1.97949">
        <ele>0.80000001192093</ele>
        <time>2023-08-08T07:47:02.000Z</time>
      </trkpt>
      <trkpt lat="50.96936" lon="1.97949">
        <ele>1</ele>
        <time>2023-08-08T07:47:04.000Z</time>
      </trkpt>
      <trkpt lat="50.96921" lon="1.97956">
        <ele>1</ele>
        <time>2023-08-08T07:47:07.000Z</time>
      </trkpt>
      <trkpt lat="50.96916" lon="1.9796">
        <ele>1.2000000476837</ele>
        <time>2023-08-08T07:47:08.000Z</time>
      </trkpt>
      <trkpt lat="50.96908" lon="1.97971">
        <ele>1.2000000476837</ele>
        <time>2023-08-08T07:47:10.000Z</time>
      </trkpt>
      <trkpt lat="50.96898" lon="1.97991">
        <ele>1.2000000476837</ele>
        <time>2023-08-08T07:47:13.000Z</time>
      </trkpt>
      <trkpt lat="50.9688" lon="1.98028">
        <ele>1</ele>
        <time>2023-08-08T07:47:18.000Z</time>
      </trkpt>
      <trkpt lat="50.9688" lon="1.98028">
        <ele>1</ele>
        <time>2023-08-08T07:47:19.000Z</time>
      </trkpt>
      <trkpt lat="50.9687" lon="1.98038">
        <ele>1</ele>
        <time>2023-08-08T07:47:20.000Z</time>
      </trkpt>
      <trkpt lat="50.9686" lon="1.98044">
        <ele>1</ele>
        <time>2023-08-08T07:47:22.000Z</time>
      </trkpt>
      <trkpt lat="50.96832" lon="1.98041">
        <ele>1</ele>
        <time>2023-08-08T07:47:27.000Z</time>
      </trkpt>
      <trkpt lat="50.9679" lon="1.98023">
        <ele>1</ele>
        <time>2023-08-08T07:47:35.000Z</time>
      </trkpt>
      <trkpt lat="50.96766" lon="1.98005">
        <ele>1</ele>
        <time>2023-08-08T07:47:40.000Z</time>
      </trkpt>
      <trkpt lat="50.96758" lon="1.97995">
        <ele>1</ele>
        <time>2023-08-08T07:47:42.000Z</time>
      </trkpt>
      <trkpt lat="50.9675" lon="1.97982">
        <ele>1</ele>
        <time>2023-08-08T07:47:44.000Z</time>
      </trkpt>
      <trkpt lat="50.96738" lon="1.97954">
        <ele>1.2000000476837</ele>
        <time>2023-08-08T07:47:48.000Z</time>
      </trkpt>
      <trkpt lat="50.96714" lon="1.97909">
        <ele>1</ele>
        <time>2023-08-08T07:47:55.000Z</time>
      </trkpt>
      <trkpt lat="50.96683" lon="1.97878">
        <ele>0.60000002384186</ele>
        <time>2023-08-08T07:48:02.000Z</time>
      </trkpt>
      <trkpt lat="50.9665" lon="1.97861">
        <ele>0.60000002384186</ele>
        <time>2023-08-08T07:48:09.000Z</time>
      </trkpt>
      <trkpt lat="50.96608" lon="1.97848">
        <ele>1</ele>
        <time>2023-08-08T07:48:17.000Z</time>
      </trkpt>
      <trkpt lat="50.96599" lon="1.97842">
        <ele>1</ele>
        <time>2023-08-08T07:48:19.000Z</time>
      </trkpt>
      <trkpt lat="50.96589" lon="1.97834">
        <ele>1</ele>
        <time>2023-08-08T07:48:21.000Z</time>
      </trkpt>
      <trkpt lat="50.96585" lon="1.97829">
        <ele>1</ele>
        <time>2023-08-08T07:48:22.000Z</time>
      </trkpt>
      <trkpt lat="50.96582" lon="1.97822">
        <ele>0.80000001192093</ele>
        <time>2023-08-08T07:48:23.000Z</time>
      </trkpt>
      <trkpt lat="50.96576" lon="1.97809">
        <ele>0.80000001192093</ele>
        <time>2023-08-08T07:48:25.000Z</time>
      </trkpt>
      <trkpt lat="50.96574" lon="1.97801">
        <ele>0.80000001192093</ele>
        <time>2023-08-08T07:48:26.000Z</time>
      </trkpt>
      <trkpt lat="50.9656" lon="1.97738">
        <ele>0.60000002384186</ele>
        <time>2023-08-08T07:48:34.000Z</time>
      </trkpt>
      <trkpt lat="50.96549" lon="1.97666">
        <ele>0.40000000596046</ele>
        <time>2023-08-08T07:48:43.000Z</time>
      </trkpt>
      <trkpt lat="50.96542" lon="1.97629">
        <ele>0.40000000596046</ele>
        <time>2023-08-08T07:48:48.000Z</time>
      </trkpt>
      <trkpt lat="50.96541" lon="1.97622">
        <ele>0.40000000596046</ele>
        <time>2023-08-08T07:48:49.000Z</time>
      </trkpt>
      <trkpt lat="50.96542" lon="1.97615">
        <ele>0.40000000596046</ele>
        <time>2023-08-08T07:48:50.000Z</time>
      </trkpt>
      <trkpt lat="50.96547" lon="1.97603">
        <ele>0.40000000596046</ele>
        <time>2023-08-08T07:48:52.000Z</time>
      </trkpt>
      <trkpt lat="50.9656" lon="1.9759">
        <ele>0.40000000596046</ele>
        <time>2023-08-08T07:48:55.000Z</time>
      </trkpt>
      <trkpt lat="50.96568" lon="1.97579">
        <ele>0.40000000596046</ele>
        <time>2023-08-08T07:48:57.000Z</time>
      </trkpt>
      <trkpt lat="50.96573" lon="1.97565">
        <ele>0.40000000596046</ele>
        <time>2023-08-08T07:48:59.000Z</time>
      </trkpt>
      <trkpt lat="50.96574" lon="1.97557">
        <ele>0.40000000596046</ele>
        <time>2023-08-08T07:49:00.000Z</time>
      </trkpt>
      <trkpt lat="50.96576" lon="1.97503">
        <ele>0.60000002384186</ele>
        <time>2023-08-08T07:49:07.000Z</time>
      </trkpt>
      <trkpt lat="50.96575" lon="1.97443">
        <ele>0.60000002384186</ele>
        <time>2023-08-08T07:49:15.000Z</time>
      </trkpt>
      <trkpt lat="50.96575" lon="1.97436">
        <ele>0.60000002384186</ele>
        <time>2023-08-08T07:49:16.000Z</time>
      </trkpt>
      <trkpt lat="50.96576" lon="1.97357">
        <ele>1</ele>
        <time>2023-08-08T07:49:26.000Z</time>
      </trkpt>
      <trkpt lat="50.96576" lon="1.97285">
        <ele>0.60000002384186</ele>
        <time>2023-08-08T07:49:35.000Z</time>
      </trkpt>
      <trkpt lat="50.96575" lon="1.97248">
        <ele>0.60000002384186</ele>
        <time>2023-08-08T07:49:40.000Z</time>
      </trkpt>
      <trkpt lat="50.96571" lon="1.97235">
        <ele>0.60000002384186</ele>
        <time>2023-08-08T07:49:42.000Z</time>
      </trkpt>
      <trkpt lat="50.96551" lon="1.97175">
        <ele>0.80000001192093</ele>
        <time>2023-08-08T07:49:51.000Z</time>
      </trkpt>
      <trkpt lat="50.9653" lon="1.97113">
        <ele>0.60000002384186</ele>
        <time>2023-08-08T07:50:00.000Z</time>
      </trkpt>
      <trkpt lat="50.96507" lon="1.97044">
        <ele>0.60000002384186</ele>
        <time>2023-08-08T07:50:10.000Z</time>
      </trkpt>
      <trkpt lat="50.96481" lon="1.96967">
        <ele>1</ele>
        <time>2023-08-08T07:50:21.000Z</time>
      </trkpt>
      <trkpt lat="50.96479" lon="1.9696">
        <ele>1</ele>
        <time>2023-08-08T07:50:22.000Z</time>
      </trkpt>
      <trkpt lat="50.96455" lon="1.96893">
        <ele>1</ele>
        <time>2023-08-08T07:50:32.000Z</time>
      </trkpt>
      <trkpt lat="50.96437" lon="1.96839">
        <ele>1</ele>
        <time>2023-08-08T07:50:40.000Z</time>
      </trkpt>
      <trkpt lat="50.96415" lon="1.96773">
        <ele>0.80000001192093</ele>
        <time>2023-08-08T07:50:49.000Z</time>
      </trkpt>
      <trkpt lat="50.96395" lon="1.96714">
        <ele>0.80000001192093</ele>
        <time>2023-08-08T07:50:57.000Z</time>
      </trkpt>
      <trkpt lat="50.9637" lon="1.96642">
        <ele>0.60000002384186</ele>
        <time>2023-08-08T07:51:07.000Z</time>
      </trkpt>
      <trkpt lat="50.96348" lon="1.96577">
        <ele>1</ele>
        <time>2023-08-08T07:51:16.000Z</time>
      </trkpt>
      <trkpt lat="50.96321" lon="1.96497">
        <ele>1</ele>
        <time>2023-08-08T07:51:27.000Z</time>
      </trkpt>
      <trkpt lat="50.96301" lon="1.96439">
        <ele>1</ele>
        <time>2023-08-08T07:51:35.000Z</time>
      </trkpt>
      <trkpt lat="50.96273" lon="1.9636">
        <ele>1</ele>
        <time>2023-08-08T07:51:46.000Z</time>
      </trkpt>
      <trkpt lat="50.96271" lon="1.96353">
        <ele>1</ele>
        <time>2023-08-08T07:51:47.000Z</time>
      </trkpt>
      <trkpt lat="50.9625" lon="1.96295">
        <ele>1</ele>
        <time>2023-08-08T07:51:55.000Z</time>
      </trkpt>
      <trkpt lat="50.96229" lon="1.96232">
        <ele>1.2000000476837</ele>
        <time>2023-08-08T07:52:04.000Z</time>
      </trkpt>
      <trkpt lat="50.96206" lon="1.96169">
        <ele>1.2000000476837</ele>
        <time>2023-08-08T07:52:13.000Z</time>
      </trkpt>
      <trkpt lat="50.96203" lon="1.96161">
        <ele>1.2000000476837</ele>
        <time>2023-08-08T07:52:14.000Z</time>
      </trkpt>
      <trkpt lat="50.96186" lon="1.9613">
        <ele>1.2000000476837</ele>
        <time>2023-08-08T07:52:19.000Z</time>
      </trkpt>
      <trkpt lat="50.96154" lon="1.96091">
        <ele>1.3999999761581</ele>
        <time>2023-08-08T07:52:27.000Z</time>
      </trkpt>
      <trkpt lat="50.96117" lon="1.96063">
        <ele>1.3999999761581</ele>
        <time>2023-08-08T07:52:35.000Z</time>
      </trkpt>
      <trkpt lat="50.96081" lon="1.96051">
        <ele>1.3999999761581</ele>
        <time>2023-08-08T07:52:42.000Z</time>
      </trkpt>
      <trkpt lat="50.96054" lon="1.96047">
        <ele>1.2000000476837</ele>
        <time>2023-08-08T07:52:47.000Z</time>
      </trkpt>
      <trkpt lat="50.96036" lon="1.96045">
        <ele>1.2000000476837</ele>
        <time>2023-08-08T07:52:50.000Z</time>
      </trkpt>
      <trkpt lat="50.95989" lon="1.96041">
        <ele>1.2000000476837</ele>
        <time>2023-08-08T07:52:59.000Z</time>
      </trkpt>
      <trkpt lat="50.9594" lon="1.96037">
        <ele>1.2000000476837</ele>
        <time>2023-08-08T07:53:08.000Z</time>
      </trkpt>
      <trkpt lat="50.95904" lon="1.9603">
        <ele>1</ele>
        <time>2023-08-08T07:53:15.000Z</time>
      </trkpt>
      <trkpt lat="50.95894" lon="1.96024">
        <ele>1</ele>
        <time>2023-08-08T07:53:17.000Z</time>
      </trkpt>
      <trkpt lat="50.95876" lon="1.9601">
        <ele>1</ele>
        <time>2023-08-08T07:53:21.000Z</time>
      </trkpt>
      <trkpt lat="50.95842" lon="1.95988">
        <ele>1</ele>
        <time>2023-08-08T07:53:28.000Z</time>
      </trkpt>
      <trkpt lat="50.95807" lon="1.95967">
        <ele>1</ele>
        <time>2023-08-08T07:53:35.000Z</time>
      </trkpt>
      <trkpt lat="50.95773" lon="1.95935">
        <ele>1</ele>
        <time>2023-08-08T07:53:42.000Z</time>
      </trkpt>
      <trkpt lat="50.9573" lon="1.95891">
        <ele>0.80000001192093</ele>
        <time>2023-08-08T07:53:52.000Z</time>
      </trkpt>
      <trkpt lat="50.95711" lon="1.95875">
        <ele>0.80000001192093</ele>
        <time>2023-08-08T07:53:56.000Z</time>
      </trkpt>
      <trkpt lat="50.95689" lon="1.95863">
        <ele>0.80000001192093</ele>
        <time>2023-08-08T07:54:00.000Z</time>
      </trkpt>
      <trkpt lat="50.95654" lon="1.95847">
        <ele>0.80000001192093</ele>
        <time>2023-08-08T07:54:07.000Z</time>
      </trkpt>
      <trkpt lat="50.95645" lon="1.95838">
        <ele>0.80000001192093</ele>
        <time>2023-08-08T07:54:09.000Z</time>
      </trkpt>
      <trkpt lat="50.95634" lon="1.95821">
        <ele>0.80000001192093</ele>
        <time>2023-08-08T07:54:12.000Z</time>
      </trkpt>
      <trkpt lat="50.95617" lon="1.9579">
        <ele>0.80000001192093</ele>
        <time>2023-08-08T07:54:17.000Z</time>
      </trkpt>
      <trkpt lat="50.95615" lon="1.95783">
        <ele>0.80000001192093</ele>
        <time>2023-08-08T07:54:18.000Z</time>
      </trkpt>
      <trkpt lat="50.95612" lon="1.95776">
        <ele>0.80000001192093</ele>
        <time>2023-08-08T07:54:19.000Z</time>
      </trkpt>
      <trkpt lat="50.95609" lon="1.95752">
        <ele>0.80000001192093</ele>
        <time>2023-08-08T07:54:22.000Z</time>
      </trkpt>
      <trkpt lat="50.9561" lon="1.95703">
        <ele>0.80000001192093</ele>
        <time>2023-08-08T07:54:28.000Z</time>
      </trkpt>
      <trkpt lat="50.95612" lon="1.95657">
        <ele>1</ele>
        <time>2023-08-08T07:54:34.000Z</time>
      </trkpt>
      <trkpt lat="50.95612" lon="1.95627">
        <ele>0.80000001192093</ele>
        <time>2023-08-08T07:54:38.000Z</time>
      </trkpt>
      <trkpt lat="50.95608" lon="1.9561">
        <ele>0.80000001192093</ele>
        <time>2023-08-08T07:54:40.000Z</time>
      </trkpt>
      <trkpt lat="50.95601" lon="1.95596">
        <ele>0.80000001192093</ele>
        <time>2023-08-08T07:54:42.000Z</time>
      </trkpt>
      <trkpt lat="50.95597" lon="1.95591">
        <ele>0.80000001192093</ele>
        <time>2023-08-08T07:54:43.000Z</time>
      </trkpt>
      <trkpt lat="50.95592" lon="1.95589">
        <ele>0.80000001192093</ele>
        <time>2023-08-08T07:54:44.000Z</time>
      </trkpt>
      <trkpt lat="50.95575" lon="1.95586">
        <ele>0.80000001192093</ele>
        <time>2023-08-08T07:54:47.000Z</time>
      </trkpt>
      <trkpt lat="50.95528" lon="1.95585">
        <ele>1</ele>
        <time>2023-08-08T07:54:56.000Z</time>
      </trkpt>
      <trkpt lat="50.95485" lon="1.95585">
        <ele>1.2000000476837</ele>
        <time>2023-08-08T07:55:05.000Z</time>
      </trkpt>
      <trkpt lat="50.9548" lon="1.95585">
        <ele>1.2000000476837</ele>
        <time>2023-08-08T07:55:06.000Z</time>
      </trkpt>
      <trkpt lat="50.95473" lon="1.95582">
        <ele>1.2000000476837</ele>
        <time>2023-08-08T07:55:08.000Z</time>
      </trkpt>
      <trkpt lat="50.95472" lon="1.95579">
        <ele>1.3999999761581</ele>
        <time>2023-08-08T07:55:09.000Z</time>
      </trkpt>
      <trkpt lat="50.95471" lon="1.95574">
        <ele>1.3999999761581</ele>
        <time>2023-08-08T07:55:10.000Z</time>
      </trkpt>
      <trkpt lat="50.95473" lon="1.95563">
        <ele>1.3999999761581</ele>
        <time>2023-08-08T07:55:12.000Z</time>
      </trkpt>
      <trkpt lat="50.95481" lon="1.9553">
        <ele>1.6000000238419</ele>
        <time>2023-08-08T07:55:18.000Z</time>
      </trkpt>
      <trkpt lat="50.95492" lon="1.95486">
        <ele>1.6000000238419</ele>
        <time>2023-08-08T07:55:25.000Z</time>
      </trkpt>
      <trkpt lat="50.95507" lon="1.95424">
        <ele>1.2000000476837</ele>
        <time>2023-08-08T07:55:34.000Z</time>
      </trkpt>
      <trkpt lat="50.95525" lon="1.95351">
        <ele>1.2000000476837</ele>
        <time>2023-08-08T07:55:44.000Z</time>
      </trkpt>
      <trkpt lat="50.95544" lon="1.95269">
        <ele>1.3999999761581</ele>
        <time>2023-08-08T07:55:55.000Z</time>
      </trkpt>
      <trkpt lat="50.95563" lon="1.95185">
        <ele>1.3999999761581</ele>
        <time>2023-08-08T07:56:06.000Z</time>
      </trkpt>
      <trkpt lat="50.95565" lon="1.95178">
        <ele>1.3999999761581</ele>
        <time>2023-08-08T07:56:07.000Z</time>
      </trkpt>
      <trkpt lat="50.95574" lon="1.95142">
        <ele>1.3999999761581</ele>
        <time>2023-08-08T07:56:12.000Z</time>
      </trkpt>
      <trkpt lat="50.95591" lon="1.95068">
        <ele>1.6000000238419</ele>
        <time>2023-08-08T07:56:22.000Z</time>
      </trkpt>
      <trkpt lat="50.95593" lon="1.95061">
        <ele>1.6000000238419</ele>
        <time>2023-08-08T07:56:23.000Z</time>
      </trkpt>
      <trkpt lat="50.95614" lon="1.94974">
        <ele>1.6000000238419</ele>
        <time>2023-08-08T07:56:34.000Z</time>
      </trkpt>
      <trkpt lat="50.95632" lon="1.94893">
        <ele>1.6000000238419</ele>
        <time>2023-08-08T07:56:45.000Z</time>
      </trkpt>
      <trkpt lat="50.95647" lon="1.94833">
        <ele>1.6000000238419</ele>
        <time>2023-08-08T07:56:53.000Z</time>
      </trkpt>
      <trkpt lat="50.95665" lon="1.9475">
        <ele>1.6000000238419</ele>
        <time>2023-08-08T07:57:04.000Z</time>
      </trkpt>
      <trkpt lat="50.95684" lon="1.94667">
        <ele>1.6000000238419</ele>
        <time>2023-08-08T07:57:15.000Z</time>
      </trkpt>
      <trkpt lat="50.95686" lon="1.94659">
        <ele>1.6000000238419</ele>
        <time>2023-08-08T07:57:16.000Z</time>
      </trkpt>
      <trkpt lat="50.95704" lon="1.94585">
        <ele>1.7999999523163</ele>
        <time>2023-08-08T07:57:26.000Z</time>
      </trkpt>
      <trkpt lat="50.95716" lon="1.94532">
        <ele>2</ele>
        <time>2023-08-08T07:57:33.000Z</time>
      </trkpt>
      <trkpt lat="50.95733" lon="1.94455">
        <ele>2</ele>
        <time>2023-08-08T07:57:43.000Z</time>
      </trkpt>
      <trkpt lat="50.95748" lon="1.9439">
        <ele>2.2000000476837</ele>
        <time>2023-08-08T07:57:52.000Z</time>
      </trkpt>
      <trkpt lat="50.9575" lon="1.94382">
        <ele>2.2000000476837</ele>
        <time>2023-08-08T07:57:53.000Z</time>
      </trkpt>
      <trkpt lat="50.95765" lon="1.94315">
        <ele>2.4000000953674</ele>
        <time>2023-08-08T07:58:02.000Z</time>
      </trkpt>
      <trkpt lat="50.9578" lon="1.94249">
        <ele>2.5999999046326</ele>
        <time>2023-08-08T07:58:11.000Z</time>
      </trkpt>
      <trkpt lat="50.95798" lon="1.94173">
        <ele>2.4000000953674</ele>
        <time>2023-08-08T07:58:21.000Z</time>
      </trkpt>
      <trkpt lat="50.95817" lon="1.94092">
        <ele>2.2000000476837</ele>
        <time>2023-08-08T07:58:32.000Z</time>
      </trkpt>
      <trkpt lat="50.9583" lon="1.94023">
        <ele>2.2000000476837</ele>
        <time>2023-08-08T07:58:42.000Z</time>
      </trkpt>
      <trkpt lat="50.95836" lon="1.94005">
        <ele>2.2000000476837</ele>
        <time>2023-08-08T07:58:46.000Z</time>
      </trkpt>
      <trkpt lat="50.9584" lon="1.93992">
        <ele>2</ele>
        <time>2023-08-08T07:58:51.000Z</time>
      </trkpt>
      <trkpt lat="50.95843" lon="1.93973">
        <ele>2</ele>
        <time>2023-08-08T07:58:55.000Z</time>
      </trkpt>
      <trkpt lat="50.95847" lon="1.93952">
        <ele>2</ele>
        <time>2023-08-08T07:58:59.000Z</time>
      </trkpt>
      <trkpt lat="50.95856" lon="1.93912">
        <ele>2.2000000476837</ele>
        <time>2023-08-08T07:59:05.000Z</time>
      </trkpt>
      <trkpt lat="50.95864" lon="1.93873">
        <ele>2.4000000953674</ele>
        <time>2023-08-08T07:59:10.000Z</time>
      </trkpt>
      <trkpt lat="50.95871" lon="1.93852">
        <ele>2.5999999046326</ele>
        <time>2023-08-08T07:59:13.000Z</time>
      </trkpt>
      <trkpt lat="50.95886" lon="1.93784">
        <ele>2.5999999046326</ele>
        <time>2023-08-08T07:59:22.000Z</time>
      </trkpt>
      <trkpt lat="50.95901" lon="1.93722">
        <ele>2.4000000953674</ele>
        <time>2023-08-08T07:59:30.000Z</time>
      </trkpt>
      <trkpt lat="50.95917" lon="1.93652">
        <ele>2.2000000476837</ele>
        <time>2023-08-08T07:59:39.000Z</time>
      </trkpt>
      <trkpt lat="50.95935" lon="1.93575">
        <ele>2.2000000476837</ele>
        <time>2023-08-08T07:59:49.000Z</time>
      </trkpt>
      <trkpt lat="50.95955" lon="1.9349">
        <ele>2.4000000953674</ele>
        <time>2023-08-08T08:00:00.000Z</time>
      </trkpt>
      <trkpt lat="50.95975" lon="1.93403">
        <ele>2.4000000953674</ele>
        <time>2023-08-08T08:00:11.000Z</time>
      </trkpt>
      <trkpt lat="50.95977" lon="1.93395">
        <ele>2.4000000953674</ele>
        <time>2023-08-08T08:00:12.000Z</time>
      </trkpt>
      <trkpt lat="50.95996" lon="1.93316">
        <ele>2.4000000953674</ele>
        <time>2023-08-08T08:00:22.000Z</time>
      </trkpt>
      <trkpt lat="50.96012" lon="1.93246">
        <ele>2.2000000476837</ele>
        <time>2023-08-08T08:00:31.000Z</time>
      </trkpt>
      <trkpt lat="50.9603" lon="1.93166">
        <ele>2.4000000953674</ele>
        <time>2023-08-08T08:00:41.000Z</time>
      </trkpt>
      <trkpt lat="50.96031" lon="1.93158">
        <ele>2.4000000953674</ele>
        <time>2023-08-08T08:00:42.000Z</time>
      </trkpt>
      <trkpt lat="50.96029" lon="1.93134">
        <ele>2.2000000476837</ele>
        <time>2023-08-08T08:00:45.000Z</time>
      </trkpt>
      <trkpt lat="50.96018" lon="1.93071">
        <ele>2.2000000476837</ele>
        <time>2023-08-08T08:00:53.000Z</time>
      </trkpt>
      <trkpt lat="50.96006" lon="1.92999">
        <ele>2</ele>
        <time>2023-08-08T08:01:02.000Z</time>
      </trkpt>
      <trkpt lat="50.95992" lon="1.92913">
        <ele>2</ele>
        <time>2023-08-08T08:01:13.000Z</time>
      </trkpt>
      <trkpt lat="50.95991" lon="1.92905">
        <ele>2</ele>
        <time>2023-08-08T08:01:14.000Z</time>
      </trkpt>
      <trkpt lat="50.95977" lon="1.92818">
        <ele>2</ele>
        <time>2023-08-08T08:01:25.000Z</time>
      </trkpt>
      <trkpt lat="50.95976" lon="1.9281">
        <ele>2</ele>
        <time>2023-08-08T08:01:26.000Z</time>
      </trkpt>
      <trkpt lat="50.95967" lon="1.92747">
        <ele>2.2000000476837</ele>
        <time>2023-08-08T08:01:34.000Z</time>
      </trkpt>
      <trkpt lat="50.95953" lon="1.92662">
        <ele>2.2000000476837</ele>
        <time>2023-08-08T08:01:45.000Z</time>
      </trkpt>
      <trkpt lat="50.95951" lon="1.92646">
        <ele>2.2000000476837</ele>
        <time>2023-08-08T08:01:47.000Z</time>
      </trkpt>
      <trkpt lat="50.95939" lon="1.92566">
        <ele>2</ele>
        <time>2023-08-08T08:01:57.000Z</time>
      </trkpt>
      <trkpt lat="50.95929" lon="1.92493">
        <ele>1.7999999523163</ele>
        <time>2023-08-08T08:02:06.000Z</time>
      </trkpt>
      <trkpt lat="50.95916" lon="1.92408">
        <ele>1.7999999523163</ele>
        <time>2023-08-08T08:02:17.000Z</time>
      </trkpt>
      <trkpt lat="50.95905" lon="1.92332">
        <ele>1.7999999523163</ele>
        <time>2023-08-08T08:02:27.000Z</time>
      </trkpt>
      <trkpt lat="50.95892" lon="1.92245">
        <ele>1.7999999523163</ele>
        <time>2023-08-08T08:02:38.000Z</time>
      </trkpt>
      <trkpt lat="50.95889" lon="1.92229">
        <ele>1.7999999523163</ele>
        <time>2023-08-08T08:02:40.000Z</time>
      </trkpt>
      <trkpt lat="50.9588" lon="1.92168">
        <ele>1.7999999523163</ele>
        <time>2023-08-08T08:02:48.000Z</time>
      </trkpt>
      <trkpt lat="50.95869" lon="1.92101">
        <ele>1.3999999761581</ele>
        <time>2023-08-08T08:02:57.000Z</time>
      </trkpt>
      <trkpt lat="50.95857" lon="1.92019">
        <ele>1.7999999523163</ele>
        <time>2023-08-08T08:03:08.000Z</time>
      </trkpt>
      <trkpt lat="50.9585" lon="1.91976">
        <ele>1.3999999761581</ele>
        <time>2023-08-08T08:03:14.000Z</time>
      </trkpt>
      <trkpt lat="50.95848" lon="1.9196">
        <ele>1.6000000238419</ele>
        <time>2023-08-08T08:03:16.000Z</time>
      </trkpt>
      <trkpt lat="50.9584" lon="1.91899">
        <ele>1.7999999523163</ele>
        <time>2023-08-08T08:03:24.000Z</time>
      </trkpt>
      <trkpt lat="50.9583" lon="1.91832">
        <ele>2</ele>
        <time>2023-08-08T08:03:33.000Z</time>
      </trkpt>
      <trkpt lat="50.95817" lon="1.91749">
        <ele>2.2000000476837</ele>
        <time>2023-08-08T08:03:44.000Z</time>
      </trkpt>
      <trkpt lat="50.95807" lon="1.9168">
        <ele>2</ele>
        <time>2023-08-08T08:03:53.000Z</time>
      </trkpt>
      <trkpt lat="50.95798" lon="1.91623">
        <ele>2.4000000953674</ele>
        <time>2023-08-08T08:04:02.000Z</time>
      </trkpt>
      <trkpt lat="50.95791" lon="1.91623">
        <ele>2.5999999046326</ele>
        <time>2023-08-08T08:04:05.000Z</time>
      </trkpt>
      <trkpt lat="50.95777" lon="1.91628">
        <ele>2.7999999523163</ele>
        <time>2023-08-08T08:04:10.000Z</time>
      </trkpt>
      <trkpt lat="50.95774" lon="1.91625">
        <ele>2.7999999523163</ele>
        <time>2023-08-08T08:04:11.000Z</time>
      </trkpt>
      <trkpt lat="50.95773" lon="1.9162">
        <ele>2.5999999046326</ele>
        <time>2023-08-08T08:04:12.000Z</time>
      </trkpt>
      <trkpt lat="50.95771" lon="1.91608">
        <ele>2.5999999046326</ele>
        <time>2023-08-08T08:04:14.000Z</time>
      </trkpt>
      <trkpt lat="50.95765" lon="1.91568">
        <ele>2.5999999046326</ele>
        <time>2023-08-08T08:04:21.000Z</time>
      </trkpt>
      <trkpt lat="50.95754" lon="1.91493">
        <ele>2.7999999523163</ele>
        <time>2023-08-08T08:04:30.000Z</time>
      </trkpt>
      <trkpt lat="50.95741" lon="1.91409">
        <ele>2.7999999523163</ele>
        <time>2023-08-08T08:04:41.000Z</time>
      </trkpt>
      <trkpt lat="50.95728" lon="1.91326">
        <ele>2.5999999046326</ele>
        <time>2023-08-08T08:04:52.000Z</time>
      </trkpt>
      <trkpt lat="50.95719" lon="1.91271">
        <ele>2.7999999523163</ele>
        <time>2023-08-08T08:04:59.000Z</time>
      </trkpt>
      <trkpt lat="50.95718" lon="1.91264">
        <ele>2.5999999046326</ele>
        <time>2023-08-08T08:05:00.000Z</time>
      </trkpt>
      <trkpt lat="50.95707" lon="1.91196">
        <ele>2.4000000953674</ele>
        <time>2023-08-08T08:05:09.000Z</time>
      </trkpt>
      <trkpt lat="50.95703" lon="1.91176">
        <ele>2.4000000953674</ele>
        <time>2023-08-08T08:05:12.000Z</time>
      </trkpt>
      <trkpt lat="50.95699" lon="1.91166">
        <ele>2.4000000953674</ele>
        <time>2023-08-08T08:05:14.000Z</time>
      </trkpt>
      <trkpt lat="50.95682" lon="1.91149">
        <ele>2.4000000953674</ele>
        <time>2023-08-08T08:05:20.000Z</time>
      </trkpt>
      <trkpt lat="50.95673" lon="1.91148">
        <ele>2.5999999046326</ele>
        <time>2023-08-08T08:05:24.000Z</time>
      </trkpt>
      <trkpt lat="50.9567" lon="1.91148">
        <ele>2.5999999046326</ele>
        <time>2023-08-08T08:05:25.000Z</time>
      </trkpt>
      <trkpt lat="50.95668" lon="1.91142">
        <ele>2.5999999046326</ele>
        <time>2023-08-08T08:05:27.000Z</time>
      </trkpt>
      <trkpt lat="50.95668" lon="1.91116">
        <ele>2.5999999046326</ele>
        <time>2023-08-08T08:05:32.000Z</time>
      </trkpt>
      <trkpt lat="50.95666" lon="1.91104">
        <ele>2.7999999523163</ele>
        <time>2023-08-08T08:05:34.000Z</time>
      </trkpt>
      <trkpt lat="50.9566" lon="1.91084">
        <ele>2.7999999523163</ele>
        <time>2023-08-08T08:05:37.000Z</time>
      </trkpt>
      <trkpt lat="50.95644" lon="1.91037">
        <ele>2.5999999046326</ele>
        <time>2023-08-08T08:05:44.000Z</time>
      </trkpt>
      <trkpt lat="50.95629" lon="1.90989">
        <ele>2.5999999046326</ele>
        <time>2023-08-08T08:05:51.000Z</time>
      </trkpt>
      <trkpt lat="50.95626" lon="1.90975">
        <ele>2.5999999046326</ele>
        <time>2023-08-08T08:05:53.000Z</time>
      </trkpt>
      <trkpt lat="50.95612" lon="1.90927">
        <ele>2.4000000953674</ele>
        <time>2023-08-08T08:06:01.000Z</time>
      </trkpt>
      <trkpt lat="50.95604" lon="1.90905">
        <ele>2.4000000953674</ele>
        <time>2023-08-08T08:06:06.000Z</time>
      </trkpt>
      <trkpt lat="50.95593" lon="1.90875">
        <ele>2.4000000953674</ele>
        <time>2023-08-08T08:06:11.000Z</time>
      </trkpt>
      <trkpt lat="50.95586" lon="1.9084">
        <ele>2.5999999046326</ele>
        <time>2023-08-08T08:06:16.000Z</time>
      </trkpt>
      <trkpt lat="50.95586" lon="1.90833">
        <ele>2.5999999046326</ele>
        <time>2023-08-08T08:06:17.000Z</time>
      </trkpt>
      <trkpt lat="50.95588" lon="1.908">
        <ele>3</ele>
        <time>2023-08-08T08:06:22.000Z</time>
      </trkpt>
      <trkpt lat="50.9559" lon="1.90787">
        <ele>3</ele>
        <time>2023-08-08T08:06:24.000Z</time>
      </trkpt>
      <trkpt lat="50.95596" lon="1.9074">
        <ele>3.2000000476837</ele>
        <time>2023-08-08T08:06:31.000Z</time>
      </trkpt>
      <trkpt lat="50.95604" lon="1.90682">
        <ele>3</ele>
        <time>2023-08-08T08:06:40.000Z</time>
      </trkpt>
      <trkpt lat="50.95607" lon="1.9067">
        <ele>3</ele>
        <time>2023-08-08T08:06:42.000Z</time>
      </trkpt>
      <trkpt lat="50.95611" lon="1.90659">
        <ele>3</ele>
        <time>2023-08-08T08:06:44.000Z</time>
      </trkpt>
      <trkpt lat="50.95614" lon="1.90655">
        <ele>3</ele>
        <time>2023-08-08T08:06:45.000Z</time>
      </trkpt>
      <trkpt lat="50.95618" lon="1.90653">
        <ele>3</ele>
        <time>2023-08-08T08:06:46.000Z</time>
      </trkpt>
      <trkpt lat="50.95628" lon="1.90651">
        <ele>3</ele>
        <time>2023-08-08T08:06:48.000Z</time>
      </trkpt>
      <trkpt lat="50.95645" lon="1.90641">
        <ele>3</ele>
        <time>2023-08-08T08:06:51.000Z</time>
      </trkpt>
      <trkpt lat="50.9565" lon="1.90636">
        <ele>3</ele>
        <time>2023-08-08T08:06:52.000Z</time>
      </trkpt>
      <trkpt lat="50.9566" lon="1.90622">
        <ele>3</ele>
        <time>2023-08-08T08:06:54.000Z</time>
      </trkpt>
      <trkpt lat="50.95672" lon="1.90598">
        <ele>3</ele>
        <time>2023-08-08T08:06:57.000Z</time>
      </trkpt>
      <trkpt lat="50.95677" lon="1.9058">
        <ele>3</ele>
        <time>2023-08-08T08:06:59.000Z</time>
      </trkpt>
      <trkpt lat="50.95679" lon="1.9056">
        <ele>3</ele>
        <time>2023-08-08T08:07:01.000Z</time>
      </trkpt>
      <trkpt lat="50.95675" lon="1.90523">
        <ele>3</ele>
        <time>2023-08-08T08:07:05.000Z</time>
      </trkpt>
      <trkpt lat="50.95673" lon="1.90515">
        <ele>3</ele>
        <time>2023-08-08T08:07:06.000Z</time>
      </trkpt>
      <trkpt lat="50.95668" lon="1.90501">
        <ele>3</ele>
        <time>2023-08-08T08:07:08.000Z</time>
      </trkpt>
      <trkpt lat="50.95657" lon="1.90484">
        <ele>3</ele>
        <time>2023-08-08T08:07:11.000Z</time>
      </trkpt>
      <trkpt lat="50.95649" lon="1.90474">
        <ele>3</ele>
        <time>2023-08-08T08:07:13.000Z</time>
      </trkpt>
      <trkpt lat="50.95642" lon="1.90461">
        <ele>2.7999999523163</ele>
        <time>2023-08-08T08:07:15.000Z</time>
      </trkpt>
      <trkpt lat="50.9564" lon="1.90454">
        <ele>2.7999999523163</ele>
        <time>2023-08-08T08:07:16.000Z</time>
      </trkpt>
      <trkpt lat="50.95639" lon="1.90446">
        <ele>2.7999999523163</ele>
        <time>2023-08-08T08:07:17.000Z</time>
      </trkpt>
      <trkpt lat="50.95638" lon="1.90419">
        <ele>2.5999999046326</ele>
        <time>2023-08-08T08:07:20.000Z</time>
      </trkpt>
      <trkpt lat="50.95639" lon="1.90401">
        <ele>2.5999999046326</ele>
        <time>2023-08-08T08:07:22.000Z</time>
      </trkpt>
      <trkpt lat="50.9564" lon="1.90377">
        <ele>2.5999999046326</ele>
        <time>2023-08-08T08:07:25.000Z</time>
      </trkpt>
      <trkpt lat="50.9564" lon="1.90369">
        <ele>2.4000000953674</ele>
        <time>2023-08-08T08:07:26.000Z</time>
      </trkpt>
      <trkpt lat="50.9564" lon="1.90354">
        <ele>2.2000000476837</ele>
        <time>2023-08-08T08:07:28.000Z</time>
      </trkpt>
      <trkpt lat="50.95635" lon="1.90333">
        <ele>1.7999999523163</ele>
        <time>2023-08-08T08:07:31.000Z</time>
      </trkpt>
      <trkpt lat="50.95629" lon="1.90287">
        <ele>1.6000000238419</ele>
        <time>2023-08-08T08:07:38.000Z</time>
      </trkpt>
      <trkpt lat="50.9562" lon="1.90239">
        <ele>1.6000000238419</ele>
        <time>2023-08-08T08:07:45.000Z</time>
      </trkpt>
      <trkpt lat="50.95608" lon="1.90168">
        <ele>1.6000000238419</ele>
        <time>2023-08-08T08:07:55.000Z</time>
      </trkpt>
      <trkpt lat="50.95596" lon="1.90096">
        <ele>1.6000000238419</ele>
        <time>2023-08-08T08:08:05.000Z</time>
      </trkpt>
      <trkpt lat="50.95589" lon="1.90045">
        <ele>1.6000000238419</ele>
        <time>2023-08-08T08:08:12.000Z</time>
      </trkpt>
      <trkpt lat="50.95578" lon="1.89981">
        <ele>1.6000000238419</ele>
        <time>2023-08-08T08:08:21.000Z</time>
      </trkpt>
      <trkpt lat="50.9557" lon="1.8994">
        <ele>1.3999999761581</ele>
        <time>2023-08-08T08:08:28.000Z</time>
      </trkpt>
      <trkpt lat="50.95571" lon="1.8992">
        <ele>1.6000000238419</ele>
        <time>2023-08-08T08:08:32.000Z</time>
      </trkpt>
      <trkpt lat="50.95574" lon="1.89916">
        <ele>1.6000000238419</ele>
        <time>2023-08-08T08:08:33.000Z</time>
      </trkpt>
      <trkpt lat="50.95588" lon="1.89898">
        <ele>1.6000000238419</ele>
        <time>2023-08-08T08:08:37.000Z</time>
      </trkpt>
      <trkpt lat="50.95591" lon="1.89891">
        <ele>1.7999999523163</ele>
        <time>2023-08-08T08:08:38.000Z</time>
      </trkpt>
      <trkpt lat="50.95595" lon="1.89881">
        <ele>1.7999999523163</ele>
        <time>2023-08-08T08:08:40.000Z</time>
      </trkpt>
      <trkpt lat="50.95597" lon="1.89868">
        <ele>1.6000000238419</ele>
        <time>2023-08-08T08:08:42.000Z</time>
      </trkpt>
      <trkpt lat="50.95597" lon="1.89862">
        <ele>1.6000000238419</ele>
        <time>2023-08-08T08:08:43.000Z</time>
      </trkpt>
      <trkpt lat="50.95597" lon="1.89858">
        <ele>1.6000000238419</ele>
        <time>2023-08-08T08:08:44.000Z</time>
      </trkpt>
      <trkpt lat="50.95593" lon="1.89838">
        <ele>1.3999999761581</ele>
        <time>2023-08-08T08:08:47.000Z</time>
      </trkpt>
      <trkpt lat="50.9559" lon="1.89832">
        <ele>1.3999999761581</ele>
        <time>2023-08-08T08:08:48.000Z</time>
      </trkpt>
      <trkpt lat="50.95587" lon="1.89827">
        <ele>1.3999999761581</ele>
        <time>2023-08-08T08:08:49.000Z</time>
      </trkpt>
      <trkpt lat="50.9558" lon="1.89819">
        <ele>1.3999999761581</ele>
        <time>2023-08-08T08:08:51.000Z</time>
      </trkpt>
      <trkpt lat="50.95576" lon="1.89816">
        <ele>1.3999999761581</ele>
        <time>2023-08-08T08:08:52.000Z</time>
      </trkpt>
      <trkpt lat="50.95571" lon="1.89814">
        <ele>1.3999999761581</ele>
        <time>2023-08-08T08:08:53.000Z</time>
      </trkpt>
      <trkpt lat="50.95561" lon="1.89814">
        <ele>1.3999999761581</ele>
        <time>2023-08-08T08:08:56.000Z</time>
      </trkpt>
      <trkpt lat="50.95559" lon="1.89812">
        <ele>1.3999999761581</ele>
        <time>2023-08-08T08:08:57.000Z</time>
      </trkpt>
      <trkpt lat="50.95556" lon="1.89809">
        <ele>1.3999999761581</ele>
        <time>2023-08-08T08:08:59.000Z</time>
      </trkpt>
      <trkpt lat="50.95555" lon="1.89809">
        <ele>1.3999999761581</ele>
        <time>2023-08-08T08:09:02.000Z</time>
      </trkpt>
      <trkpt lat="50.95554" lon="1.89812">
        <ele>1.2000000476837</ele>
        <time>2023-08-08T08:09:31.000Z</time>
      </trkpt>
      <trkpt lat="50.95552" lon="1.89816">
        <ele>1.2000000476837</ele>
        <time>2023-08-08T08:09:33.000Z</time>
      </trkpt>
      <trkpt lat="50.95547" lon="1.8982">
        <ele>1.2000000476837</ele>
        <time>2023-08-08T08:09:35.000Z</time>
      </trkpt>
      <trkpt lat="50.95545" lon="1.89821">
        <ele>1.2000000476837</ele>
        <time>2023-08-08T08:09:36.000Z</time>
      </trkpt>
      <trkpt lat="50.95541" lon="1.89818">
        <ele>1.2000000476837</ele>
        <time>2023-08-08T08:09:38.000Z</time>
      </trkpt>
      <trkpt lat="50.95539" lon="1.89807">
        <ele>1.2000000476837</ele>
        <time>2023-08-08T08:09:40.000Z</time>
      </trkpt>
      <trkpt lat="50.9553" lon="1.89768">
        <ele>1.2000000476837</ele>
        <time>2023-08-08T08:09:46.000Z</time>
      </trkpt>
      <trkpt lat="50.95529" lon="1.89761">
        <ele>1.2000000476837</ele>
        <time>2023-08-08T08:09:47.000Z</time>
      </trkpt>
      <trkpt lat="50.95519" lon="1.89727">
        <ele>1.2000000476837</ele>
        <time>2023-08-08T08:09:52.000Z</time>
      </trkpt>
      <trkpt lat="50.95503" lon="1.89657">
        <ele>1.3999999761581</ele>
        <time>2023-08-08T08:10:02.000Z</time>
      </trkpt>
      <trkpt lat="50.95494" lon="1.896">
        <ele>1.2000000476837</ele>
        <time>2023-08-08T08:10:10.000Z</time>
      </trkpt>
      <trkpt lat="50.95492" lon="1.89583">
        <ele>1.2000000476837</ele>
        <time>2023-08-08T08:10:12.000Z</time>
      </trkpt>
      <trkpt lat="50.95487" lon="1.89556">
        <ele>1.2000000476837</ele>
        <time>2023-08-08T08:10:16.000Z</time>
      </trkpt>
      <trkpt lat="50.95472" lon="1.89483">
        <ele>1</ele>
        <time>2023-08-08T08:10:26.000Z</time>
      </trkpt>
      <trkpt lat="50.95471" lon="1.89476">
        <ele>1</ele>
        <time>2023-08-08T08:10:27.000Z</time>
      </trkpt>
      <trkpt lat="50.95468" lon="1.89446">
        <ele>1.2000000476837</ele>
        <time>2023-08-08T08:10:31.000Z</time>
      </trkpt>
      <trkpt lat="50.95467" lon="1.89438">
        <ele>1.3999999761581</ele>
        <time>2023-08-08T08:10:32.000Z</time>
      </trkpt>
      <trkpt lat="50.9546" lon="1.89399">
        <ele>1.3999999761581</ele>
        <time>2023-08-08T08:10:37.000Z</time>
      </trkpt>
      <trkpt lat="50.95447" lon="1.89323">
        <ele>1.3999999761581</ele>
        <time>2023-08-08T08:10:47.000Z</time>
      </trkpt>
      <trkpt lat="50.95445" lon="1.89315">
        <ele>1.3999999761581</ele>
        <time>2023-08-08T08:10:48.000Z</time>
      </trkpt>
      <trkpt lat="50.95442" lon="1.89283">
        <ele>1.3999999761581</ele>
        <time>2023-08-08T08:10:52.000Z</time>
      </trkpt>
      <trkpt lat="50.95432" lon="1.89243">
        <ele>1.3999999761581</ele>
        <time>2023-08-08T08:10:58.000Z</time>
      </trkpt>
      <trkpt lat="50.95419" lon="1.89191">
        <ele>1.3999999761581</ele>
        <time>2023-08-08T08:11:06.000Z</time>
      </trkpt>
      <trkpt lat="50.95411" lon="1.89162">
        <ele>1.3999999761581</ele>
        <time>2023-08-08T08:11:12.000Z</time>
      </trkpt>
      <trkpt lat="50.95406" lon="1.89126">
        <ele>1.7999999523163</ele>
        <time>2023-08-08T08:11:18.000Z</time>
      </trkpt>
      <trkpt lat="50.95403" lon="1.89078">
        <ele>1.6000000238419</ele>
        <time>2023-08-08T08:11:25.000Z</time>
      </trkpt>
      <trkpt lat="50.95399" lon="1.89021">
        <ele>1.2000000476837</ele>
        <time>2023-08-08T08:11:32.000Z</time>
      </trkpt>
      <trkpt lat="50.95391" lon="1.88948">
        <ele>0.80000001192093</ele>
        <time>2023-08-08T08:11:41.000Z</time>
      </trkpt>
      <trkpt lat="50.95389" lon="1.8893">
        <ele>0.60000002384186</ele>
        <time>2023-08-08T08:11:43.000Z</time>
      </trkpt>
      <trkpt lat="50.95382" lon="1.88891">
        <ele>0.40000000596046</ele>
        <time>2023-08-08T08:11:48.000Z</time>
      </trkpt>
      <trkpt lat="50.95374" lon="1.88843">
        <ele>0.20000000298023</ele>
        <time>2023-08-08T08:11:54.000Z</time>
      </trkpt>
      <trkpt lat="50.9537" lon="1.88828">
        <ele>0.20000000298023</ele>
        <time>2023-08-08T08:11:56.000Z</time>
      </trkpt>
      <trkpt lat="50.95364" lon="1.88781">
        <ele>0.20000000298023</ele>
        <time>2023-08-08T08:12:02.000Z</time>
      </trkpt>
      <trkpt lat="50.95356" lon="1.88725">
        <ele>1.9</ele>
        <time>2023-08-08T08:12:09.000Z</time>
      </trkpt>
      <trkpt lat="50.95345" lon="1.88653">
        <ele>2</ele>
        <time>2023-08-08T08:12:18.000Z</time>
      </trkpt>
      <trkpt lat="50.95336" lon="1.8859">
        <ele>-0.20000000298023</ele>
        <time>2023-08-08T08:12:26.000Z</time>
      </trkpt>
      <trkpt lat="50.95335" lon="1.88582">
        <ele>-0.40000000596046</ele>
        <time>2023-08-08T08:12:27.000Z</time>
      </trkpt>
      <trkpt lat="50.95336" lon="1.88529">
        <ele>-0.40000000596046</ele>
        <time>2023-08-08T08:12:34.000Z</time>
      </trkpt>
      <trkpt lat="50.95336" lon="1.88522">
        <ele>-0.40000000596046</ele>
        <time>2023-08-08T08:12:35.000Z</time>
      </trkpt>
      <trkpt lat="50.95334" lon="1.88507">
        <ele>-0.20000000298023</ele>
        <time>2023-08-08T08:12:38.000Z</time>
      </trkpt>
      <trkpt lat="50.95332" lon="1.88502">
        <ele>-0.20000000298023</ele>
        <time>2023-08-08T08:12:39.000Z</time>
      </trkpt>
      <trkpt lat="50.95317" lon="1.88471">
        <ele>3</ele>
        <time>2023-08-08T08:12:45.000Z</time>
      </trkpt>
      <trkpt lat="50.95318" lon="1.88448">
        <ele>0.20000000298023</ele>
        <time>2023-08-08T08:12:49.000Z</time>
      </trkpt>
      <trkpt lat="50.95319" lon="1.88442">
        <ele>0.20000000298023</ele>
        <time>2023-08-08T08:12:50.000Z</time>
      </trkpt>
      <trkpt lat="50.95323" lon="1.8843">
        <ele>0.20000000298023</ele>
        <time>2023-08-08T08:12:52.000Z</time>
      </trkpt>
      <trkpt lat="50.95323" lon="1.88424">
        <ele>0.20000000298023</ele>
        <time>2023-08-08T08:12:53.000Z</time>
      </trkpt>
      <trkpt lat="50.95322" lon="1.88418">
        <ele>0.20000000298023</ele>
        <time>2023-08-08T08:12:54.000Z</time>
      </trkpt>
      <trkpt lat="50.95312" lon="1.88392">
        <ele>0.20000000298023</ele>
        <time>2023-08-08T08:12:58.000Z</time>
      </trkpt>
      <trkpt lat="50.95295" lon="1.88343">
        <ele>0.20000000298023</ele>
        <time>2023-08-08T08:13:05.000Z</time>
      </trkpt>
      <trkpt lat="50.95279" lon="1.88301">
        <ele>0.20000000298023</ele>
        <time>2023-08-08T08:13:11.000Z</time>
      </trkpt>
      <trkpt lat="50.95276" lon="1.88285">
        <ele>0.20000000298023</ele>
        <time>2023-08-08T08:13:13.000Z</time>
      </trkpt>
      <trkpt lat="50.95264" lon="1.88216">
        <ele>1.5</ele>
        <time>2023-08-08T08:13:22.000Z</time>
      </trkpt>
      <trkpt lat="50.95254" lon="1.88148">
        <ele>1.7</ele>
        <time>2023-08-08T08:13:31.000Z</time>
      </trkpt>
      <trkpt lat="50.95242" lon="1.88071">
        <ele>2</ele>
        <time>2023-08-08T08:13:41.000Z</time>
      </trkpt>
      <trkpt lat="50.95231" lon="1.87999">
        <ele>3</ele>
        <time>2023-08-08T08:13:51.000Z</time>
      </trkpt>
      <trkpt lat="50.95227" lon="1.87978">
        <ele>2.3</ele>
        <time>2023-08-08T08:13:56.000Z</time>
      </trkpt>
      <trkpt lat="50.95226" lon="1.87964">
        <ele>2.1</ele>
        <time>2023-08-08T08:14:00.000Z</time>
      </trkpt>
      <trkpt lat="50.95228" lon="1.87962">
        <ele>2.1</ele>
        <time>2023-08-08T08:14:01.000Z</time>
      </trkpt>
      <trkpt lat="50.95232" lon="1.8796">
        <ele>2.2</ele>
        <time>2023-08-08T08:14:03.000Z</time>
      </trkpt>
      <trkpt lat="50.95238" lon="1.87957">
        <ele>0.20000000298023</ele>
        <time>2023-08-08T08:14:06.000Z</time>
      </trkpt>
      <trkpt lat="50.95237" lon="1.87936">
        <ele>0.20000000298023</ele>
        <time>2023-08-08T08:14:10.000Z</time>
      </trkpt>
      <trkpt lat="50.95229" lon="1.87894">
        <ele>0.20000000298023</ele>
        <time>2023-08-08T08:14:16.000Z</time>
      </trkpt>
      <trkpt lat="50.9522" lon="1.87841">
        <ele>0.20000000298023</ele>
        <time>2023-08-08T08:14:23.000Z</time>
      </trkpt>
      <trkpt lat="50.95218" lon="1.87828">
        <ele>0.20000000298023</ele>
        <time>2023-08-08T08:14:25.000Z</time>
      </trkpt>
      <trkpt lat="50.95216" lon="1.87813">
        <ele>0.20000000298023</ele>
        <time>2023-08-08T08:14:28.000Z</time>
      </trkpt>
      <trkpt lat="50.95213" lon="1.87802">
        <ele>0.40000000596046</ele>
        <time>2023-08-08T08:14:32.000Z</time>
      </trkpt>
      <trkpt lat="50.95206" lon="1.8779">
        <ele>0.60000002384186</ele>
        <time>2023-08-08T08:14:37.000Z</time>
      </trkpt>
      <trkpt lat="50.952" lon="1.87769">
        <ele>1</ele>
        <time>2023-08-08T08:14:42.000Z</time>
      </trkpt>
      <trkpt lat="50.95199" lon="1.87763">
        <ele>1.2000000476837</ele>
        <time>2023-08-08T08:14:43.000Z</time>
      </trkpt>
      <trkpt lat="50.95196" lon="1.87751">
        <ele>1.2000000476837</ele>
        <time>2023-08-08T08:14:45.000Z</time>
      </trkpt>
      <trkpt lat="50.95192" lon="1.8774">
        <ele>1.3999999761581</ele>
        <time>2023-08-08T08:14:47.000Z</time>
      </trkpt>
      <trkpt lat="50.95186" lon="1.87707">
        <ele>1.2000000476837</ele>
        <time>2023-08-08T08:14:53.000Z</time>
      </trkpt>
      <trkpt lat="50.95183" lon="1.87688">
        <ele>0.60000002384186</ele>
        <time>2023-08-08T08:14:58.000Z</time>
      </trkpt>
      <trkpt lat="50.95183" lon="1.87687">
        <ele>0.80000001192093</ele>
        <time>2023-08-08T08:14:59.000Z</time>
      </trkpt>
      <trkpt lat="50.95182" lon="1.87683">
        <ele>0.60000002384186</ele>
        <time>2023-08-08T08:15:02.000Z</time>
      </trkpt>
      <trkpt lat="50.95182" lon="1.87683">
        <ele>0.80000001192093</ele>
        <time>2023-08-08T08:15:04.000Z</time>
      </trkpt>
      <trkpt lat="50.95181" lon="1.87679">
        <ele>0.80000001192093</ele>
        <time>2023-08-08T08:15:56.000Z</time>
      </trkpt>
      <trkpt lat="50.95181" lon="1.87675">
        <ele>0.80000001192093</ele>
        <time>2023-08-08T08:15:57.000Z</time>
      </trkpt>
      <trkpt lat="50.95176" lon="1.87647">
        <ele>0.60000002384186</ele>
        <time>2023-08-08T08:16:02.000Z</time>
      </trkpt>
      <trkpt lat="50.95169" lon="1.87611">
        <ele>0.60000002384186</ele>
        <time>2023-08-08T08:16:07.000Z</time>
      </trkpt>
      <trkpt lat="50.95163" lon="1.87566">
        <ele>0.40000000596046</ele>
        <time>2023-08-08T08:16:13.000Z</time>
      </trkpt>
      <trkpt lat="50.95162" lon="1.87558">
        <ele>0.40000000596046</ele>
        <time>2023-08-08T08:16:14.000Z</time>
      </trkpt>
      <trkpt lat="50.95156" lon="1.87524">
        <ele>0.40000000596046</ele>
        <time>2023-08-08T08:16:18.000Z</time>
      </trkpt>
      <trkpt lat="50.95151" lon="1.87486">
        <ele>0.80000001192093</ele>
        <time>2023-08-08T08:16:23.000Z</time>
      </trkpt>
      <trkpt lat="50.95144" lon="1.8743">
        <ele>0.80000001192093</ele>
        <time>2023-08-08T08:16:30.000Z</time>
      </trkpt>
      <trkpt lat="50.95143" lon="1.87423">
        <ele>0.80000001192093</ele>
        <time>2023-08-08T08:16:31.000Z</time>
      </trkpt>
      <trkpt lat="50.95137" lon="1.87386">
        <ele>0.80000001192093</ele>
        <time>2023-08-08T08:16:36.000Z</time>
      </trkpt>
      <trkpt lat="50.95136" lon="1.87379">
        <ele>0.80000001192093</ele>
        <time>2023-08-08T08:16:37.000Z</time>
      </trkpt>
      <trkpt lat="50.95132" lon="1.87349">
        <ele>0.80000001192093</ele>
        <time>2023-08-08T08:16:41.000Z</time>
      </trkpt>
      <trkpt lat="50.95131" lon="1.87342">
        <ele>0.80000001192093</ele>
        <time>2023-08-08T08:16:42.000Z</time>
      </trkpt>
      <trkpt lat="50.95123" lon="1.8728">
        <ele>0.60000002384186</ele>
        <time>2023-08-08T08:16:50.000Z</time>
      </trkpt>
      <trkpt lat="50.95119" lon="1.87254">
        <ele>0.60000002384186</ele>
        <time>2023-08-08T08:16:53.000Z</time>
      </trkpt>
      <trkpt lat="50.95115" lon="1.87231">
        <ele>0.60000002384186</ele>
        <time>2023-08-08T08:16:56.000Z</time>
      </trkpt>
      <trkpt lat="50.951" lon="1.87144">
        <ele>0.60000002384186</ele>
        <time>2023-08-08T08:17:07.000Z</time>
      </trkpt>
      <trkpt lat="50.95087" lon="1.87056">
        <ele>0.80000001192093</ele>
        <time>2023-08-08T08:17:18.000Z</time>
      </trkpt>
      <trkpt lat="50.95083" lon="1.8703">
        <ele>0.80000001192093</ele>
        <time>2023-08-08T08:17:21.000Z</time>
      </trkpt>
      <trkpt lat="50.9507" lon="1.86948">
        <ele>0.80000001192093</ele>
        <time>2023-08-08T08:17:31.000Z</time>
      </trkpt>
      <trkpt lat="50.95056" lon="1.86858">
        <ele>1</ele>
        <time>2023-08-08T08:17:42.000Z</time>
      </trkpt>
      <trkpt lat="50.95046" lon="1.86792">
        <ele>1</ele>
        <time>2023-08-08T08:17:50.000Z</time>
      </trkpt>
      <trkpt lat="50.95038" lon="1.86744">
        <ele>1.2000000476837</ele>
        <time>2023-08-08T08:17:56.000Z</time>
      </trkpt>
      <trkpt lat="50.95027" lon="1.8667">
        <ele>1.3999999761581</ele>
        <time>2023-08-08T08:18:05.000Z</time>
      </trkpt>
      <trkpt lat="50.95015" lon="1.86594">
        <ele>1</ele>
        <time>2023-08-08T08:18:14.000Z</time>
      </trkpt>
      <trkpt lat="50.95004" lon="1.86519">
        <ele>0.80000001192093</ele>
        <time>2023-08-08T08:18:23.000Z</time>
      </trkpt>
      <trkpt lat="50.94995" lon="1.86462">
        <ele>0.80000001192093</ele>
        <time>2023-08-08T08:18:30.000Z</time>
      </trkpt>
      <trkpt lat="50.94984" lon="1.8639">
        <ele>0.80000001192093</ele>
        <time>2023-08-08T08:18:39.000Z</time>
      </trkpt>
      <trkpt lat="50.9497" lon="1.86303">
        <ele>0.60000002384186</ele>
        <time>2023-08-08T08:18:50.000Z</time>
      </trkpt>
      <trkpt lat="50.94964" lon="1.86247">
        <ele>0.80000001192093</ele>
        <time>2023-08-08T08:18:58.000Z</time>
      </trkpt>
      <trkpt lat="50.94963" lon="1.86241">
        <ele>0.80000001192093</ele>
        <time>2023-08-08T08:18:59.000Z</time>
      </trkpt>
      <trkpt lat="50.94959" lon="1.86216">
        <ele>0.80000001192093</ele>
        <time>2023-08-08T08:19:03.000Z</time>
      </trkpt>
      <trkpt lat="50.94958" lon="1.86193">
        <ele>0.80000001192093</ele>
        <time>2023-08-08T08:19:08.000Z</time>
      </trkpt>
      <trkpt lat="50.94951" lon="1.86173">
        <ele>0.80000001192093</ele>
        <time>2023-08-08T08:19:12.000Z</time>
      </trkpt>
      <trkpt lat="50.94941" lon="1.86147">
        <ele>0.80000001192093</ele>
        <time>2023-08-08T08:19:17.000Z</time>
      </trkpt>
      <trkpt lat="50.94945" lon="1.86112">
        <ele>0.80000001192093</ele>
        <time>2023-08-08T08:19:23.000Z</time>
      </trkpt>
      <trkpt lat="50.94951" lon="1.86104">
        <ele>0.80000001192093</ele>
        <time>2023-08-08T08:19:25.000Z</time>
      </trkpt>
      <trkpt lat="50.9496" lon="1.86096">
        <ele>0.80000001192093</ele>
        <time>2023-08-08T08:19:27.000Z</time>
      </trkpt>
      <trkpt lat="50.9499" lon="1.86067">
        <ele>0.80000001192093</ele>
        <time>2023-08-08T08:19:34.000Z</time>
      </trkpt>
      <trkpt lat="50.95021" lon="1.86036">
        <ele>0.80000001192093</ele>
        <time>2023-08-08T08:19:41.000Z</time>
      </trkpt>
      <trkpt lat="50.95069" lon="1.85987">
        <ele>1</ele>
        <time>2023-08-08T08:19:52.000Z</time>
      </trkpt>
      <trkpt lat="50.95077" lon="1.85979">
        <ele>1</ele>
        <time>2023-08-08T08:19:54.000Z</time>
      </trkpt>
      <trkpt lat="50.95089" lon="1.85966">
        <ele>1</ele>
        <time>2023-08-08T08:19:57.000Z</time>
      </trkpt>
      <trkpt lat="50.95115" lon="1.8594">
        <ele>1</ele>
        <time>2023-08-08T08:20:03.000Z</time>
      </trkpt>
      <trkpt lat="50.95124" lon="1.85932">
        <ele>1</ele>
        <time>2023-08-08T08:20:05.000Z</time>
      </trkpt>
      <trkpt lat="50.95167" lon="1.8589">
        <ele>1</ele>
        <time>2023-08-08T08:20:15.000Z</time>
      </trkpt>
      <trkpt lat="50.95196" lon="1.8586">
        <ele>1</ele>
        <time>2023-08-08T08:20:22.000Z</time>
      </trkpt>
      <trkpt lat="50.95234" lon="1.8582">
        <ele>1.2000000476837</ele>
        <time>2023-08-08T08:20:31.000Z</time>
      </trkpt>
      <trkpt lat="50.95253" lon="1.85801">
        <ele>1.2000000476837</ele>
        <time>2023-08-08T08:20:36.000Z</time>
      </trkpt>
      <trkpt lat="50.95255" lon="1.85795">
        <ele>1.2000000476837</ele>
        <time>2023-08-08T08:20:37.000Z</time>
      </trkpt>
      <trkpt lat="50.95253" lon="1.85772">
        <ele>1.2000000476837</ele>
        <time>2023-08-08T08:20:41.000Z</time>
      </trkpt>
      <trkpt lat="50.95251" lon="1.85744">
        <ele>1.3999999761581</ele>
        <time>2023-08-08T08:20:45.000Z</time>
      </trkpt>
      <trkpt lat="50.95253" lon="1.85738">
        <ele>1.3999999761581</ele>
        <time>2023-08-08T08:20:46.000Z</time>
      </trkpt>
      <trkpt lat="50.95257" lon="1.85736">
        <ele>1.3999999761581</ele>
        <time>2023-08-08T08:20:47.000Z</time>
      </trkpt>
      <trkpt lat="50.95265" lon="1.85731">
        <ele>1.3999999761581</ele>
        <time>2023-08-08T08:20:49.000Z</time>
      </trkpt>
      <trkpt lat="50.95269" lon="1.85727">
        <ele>1.6000000238419</ele>
        <time>2023-08-08T08:20:50.000Z</time>
      </trkpt>
      <trkpt lat="50.95272" lon="1.85723">
        <ele>1.6000000238419</ele>
        <time>2023-08-08T08:20:51.000Z</time>
      </trkpt>
      <trkpt lat="50.95287" lon="1.85705">
        <ele>1.7999999523163</ele>
        <time>2023-08-08T08:20:55.000Z</time>
      </trkpt>
      <trkpt lat="50.9529" lon="1.857">
        <ele>1.7999999523163</ele>
        <time>2023-08-08T08:20:56.000Z</time>
      </trkpt>
      <trkpt lat="50.95315" lon="1.85663">
        <ele>2.5999999046326</ele>
        <time>2023-08-08T08:21:04.000Z</time>
      </trkpt>
      <trkpt lat="50.95317" lon="1.85659">
        <ele>2.5999999046326</ele>
        <time>2023-08-08T08:21:05.000Z</time>
      </trkpt>
      <trkpt lat="50.95331" lon="1.85641">
        <ele>2.7999999523163</ele>
        <time>2023-08-08T08:21:09.000Z</time>
      </trkpt>
      <trkpt lat="50.95338" lon="1.85631">
        <ele>3</ele>
        <time>2023-08-08T08:21:11.000Z</time>
      </trkpt>
      <trkpt lat="50.95354" lon="1.85614">
        <ele>3.5999999046326</ele>
        <time>2023-08-08T08:21:16.000Z</time>
      </trkpt>
      <trkpt lat="50.95361" lon="1.8561">
        <ele>3.5999999046326</ele>
        <time>2023-08-08T08:21:18.000Z</time>
      </trkpt>
      <trkpt lat="50.95371" lon="1.85605">
        <ele>3.7999999523163</ele>
        <time>2023-08-08T08:21:22.000Z</time>
      </trkpt>
      <trkpt lat="50.95373" lon="1.85604">
        <ele>3.7999999523163</ele>
        <time>2023-08-08T08:21:23.000Z</time>
      </trkpt>
      <trkpt lat="50.95375" lon="1.85603">
        <ele>3.7999999523163</ele>
        <time>2023-08-08T08:21:27.000Z</time>
      </trkpt>
      <trkpt lat="50.95375" lon="1.856">
        <ele>4.5999999046326</ele>
        <time>2023-08-08T08:23:05.000Z</time>
      </trkpt>
      <trkpt lat="50.95373" lon="1.85592">
        <ele>4.4000000953674</ele>
        <time>2023-08-08T08:23:07.000Z</time>
      </trkpt>
      <trkpt lat="50.95369" lon="1.85563">
        <ele>4.4000000953674</ele>
        <time>2023-08-08T08:23:13.000Z</time>
      </trkpt>
      <trkpt lat="50.95361" lon="1.85537">
        <ele>4.5999999046326</ele>
        <time>2023-08-08T08:23:18.000Z</time>
      </trkpt>
      <trkpt lat="50.95351" lon="1.85506">
        <ele>4.4000000953674</ele>
        <time>2023-08-08T08:23:24.000Z</time>
      </trkpt>
      <trkpt lat="50.95337" lon="1.85472">
        <ele>4.4000000953674</ele>
        <time>2023-08-08T08:23:31.000Z</time>
      </trkpt>
      <trkpt lat="50.95327" lon="1.85438">
        <ele>4.5999999046326</ele>
        <time>2023-08-08T08:23:37.000Z</time>
      </trkpt>
      <trkpt lat="50.9532" lon="1.85413">
        <ele>4.5999999046326</ele>
        <time>2023-08-08T08:23:41.000Z</time>
      </trkpt>
      <trkpt lat="50.95316" lon="1.85388">
        <ele>4.5999999046326</ele>
        <time>2023-08-08T08:23:45.000Z</time>
      </trkpt>
      <trkpt lat="50.95315" lon="1.85383">
        <ele>4.5999999046326</ele>
        <time>2023-08-08T08:23:46.000Z</time>
      </trkpt>
      <trkpt lat="50.95312" lon="1.85359">
        <ele>4.8000001907349</ele>
        <time>2023-08-08T08:23:50.000Z</time>
      </trkpt>
      <trkpt lat="50.95305" lon="1.85328">
        <ele>5</ele>
        <time>2023-08-08T08:23:55.000Z</time>
      </trkpt>
      <trkpt lat="50.95297" lon="1.8528">
        <ele>5.1999998092651</ele>
        <time>2023-08-08T08:24:04.000Z</time>
      </trkpt>
      <trkpt lat="50.95297" lon="1.85272">
        <ele>5.1999998092651</ele>
        <time>2023-08-08T08:24:06.000Z</time>
      </trkpt>
      <trkpt lat="50.95299" lon="1.85264">
        <ele>5.4000000953674</ele>
        <time>2023-08-08T08:24:08.000Z</time>
      </trkpt>
      <trkpt lat="50.95298" lon="1.85242">
        <ele>5.4000000953674</ele>
        <time>2023-08-08T08:24:12.000Z</time>
      </trkpt>
      <trkpt lat="50.95305" lon="1.85217">
        <ele>5.8000001907349</ele>
        <time>2023-08-08T08:24:16.000Z</time>
      </trkpt>
      <trkpt lat="50.9531" lon="1.852">
        <ele>6</ele>
        <time>2023-08-08T08:24:19.000Z</time>
      </trkpt>
      <trkpt lat="50.95312" lon="1.85197">
        <ele>6.1999998092651</ele>
        <time>2023-08-08T08:24:20.000Z</time>
      </trkpt>
      <trkpt lat="50.95335" lon="1.85166">
        <ele>6.8000001907349</ele>
        <time>2023-08-08T08:24:27.000Z</time>
      </trkpt>
      <trkpt lat="50.95343" lon="1.85157">
        <ele>7.1999998092651</ele>
        <time>2023-08-08T08:24:29.000Z</time>
      </trkpt>
      <trkpt lat="50.95365" lon="1.85134">
        <ele>8</ele>
        <time>2023-08-08T08:24:35.000Z</time>
      </trkpt>
      <trkpt lat="50.95401" lon="1.85108">
        <ele>7.5999999046326</ele>
        <time>2023-08-08T08:24:43.000Z</time>
      </trkpt>
      <trkpt lat="50.9541" lon="1.851">
        <ele>7.4000000953674</ele>
        <time>2023-08-08T08:24:45.000Z</time>
      </trkpt>
      <trkpt lat="50.95421" lon="1.8509">
        <ele>7.1999998092651</ele>
        <time>2023-08-08T08:24:47.000Z</time>
      </trkpt>
      <trkpt lat="50.95425" lon="1.85087">
        <ele>7</ele>
        <time>2023-08-08T08:24:48.000Z</time>
      </trkpt>
      <trkpt lat="50.95461" lon="1.8507">
        <ele>6.1999998092651</ele>
        <time>2023-08-08T08:24:55.000Z</time>
      </trkpt>
      <trkpt lat="50.95466" lon="1.85068">
        <ele>6</ele>
        <time>2023-08-08T08:24:56.000Z</time>
      </trkpt>
      <trkpt lat="50.95473" lon="1.85069">
        <ele>5.8000001907349</ele>
        <time>2023-08-08T08:24:58.000Z</time>
      </trkpt>
      <trkpt lat="50.95478" lon="1.85071">
        <ele>5.8000001907349</ele>
        <time>2023-08-08T08:24:59.000Z</time>
      </trkpt>
      <trkpt lat="50.95482" lon="1.85072">
        <ele>5.5999999046326</ele>
        <time>2023-08-08T08:25:00.000Z</time>
      </trkpt>
      <trkpt lat="50.95491" lon="1.85067">
        <ele>5.4000000953674</ele>
        <time>2023-08-08T08:25:02.000Z</time>
      </trkpt>
      <trkpt lat="50.95497" lon="1.85055">
        <ele>5.4000000953674</ele>
        <time>2023-08-08T08:25:04.000Z</time>
      </trkpt>
      <trkpt lat="50.95505" lon="1.85043">
        <ele>5.4000000953674</ele>
        <time>2023-08-08T08:25:06.000Z</time>
      </trkpt>
      <trkpt lat="50.95514" lon="1.8504">
        <ele>5.1999998092651</ele>
        <time>2023-08-08T08:25:08.000Z</time>
      </trkpt>
      <trkpt lat="50.95519" lon="1.8504">
        <ele>5.1999998092651</ele>
        <time>2023-08-08T08:25:09.000Z</time>
      </trkpt>
      <trkpt lat="50.95526" lon="1.85038">
        <ele>5</ele>
        <time>2023-08-08T08:25:10.000Z</time>
      </trkpt>
      <trkpt lat="50.95545" lon="1.85029">
        <ele>4.5999999046326</ele>
        <time>2023-08-08T08:25:14.000Z</time>
      </trkpt>
      <trkpt lat="50.95573" lon="1.85016">
        <ele>4.1999998092651</ele>
        <time>2023-08-08T08:25:20.000Z</time>
      </trkpt>
      <trkpt lat="50.95582" lon="1.85012">
        <ele>4</ele>
        <time>2023-08-08T08:25:22.000Z</time>
      </trkpt>
      <trkpt lat="50.95624" lon="1.84992">
        <ele>3</ele>
        <time>2023-08-08T08:25:32.000Z</time>
      </trkpt>
      <trkpt lat="50.95629" lon="1.84989">
        <ele>3</ele>
        <time>2023-08-08T08:25:33.000Z</time>
      </trkpt>
      <trkpt lat="50.95632" lon="1.84985">
        <ele>3</ele>
        <time>2023-08-08T08:25:34.000Z</time>
      </trkpt>
      <trkpt lat="50.95636" lon="1.84982">
        <ele>3</ele>
        <time>2023-08-08T08:25:35.000Z</time>
      </trkpt>
      <trkpt lat="50.95665" lon="1.84969">
        <ele>2.7999999523163</ele>
        <time>2023-08-08T08:25:42.000Z</time>
      </trkpt>
      <trkpt lat="50.95675" lon="1.84965">
        <ele>2.7999999523163</ele>
        <time>2023-08-08T08:25:44.000Z</time>
      </trkpt>
      <trkpt lat="50.95693" lon="1.84959">
        <ele>2.7999999523163</ele>
        <time>2023-08-08T08:25:48.000Z</time>
      </trkpt>
      <trkpt lat="50.95729" lon="1.84949">
        <ele>2.4000000953674</ele>
        <time>2023-08-08T08:25:56.000Z</time>
      </trkpt>
      <trkpt lat="50.95737" lon="1.84947">
        <ele>2.2000000476837</ele>
        <time>2023-08-08T08:25:58.000Z</time>
      </trkpt>
      <trkpt lat="50.95747" lon="1.84946">
        <ele>2.2000000476837</ele>
        <time>2023-08-08T08:26:01.000Z</time>
      </trkpt>
      <trkpt lat="50.95753" lon="1.84944">
        <ele>2.2000000476837</ele>
        <time>2023-08-08T08:26:02.000Z</time>
      </trkpt>
      <trkpt lat="50.95766" lon="1.84941">
        <ele>2.2000000476837</ele>
        <time>2023-08-08T08:26:05.000Z</time>
      </trkpt>
      <trkpt lat="50.95804" lon="1.84931">
        <ele>2.4000000953674</ele>
        <time>2023-08-08T08:26:13.000Z</time>
      </trkpt>
      <trkpt lat="50.95814" lon="1.8493">
        <ele>2.4000000953674</ele>
        <time>2023-08-08T08:26:15.000Z</time>
      </trkpt>
      <trkpt lat="50.9583" lon="1.84928">
        <ele>2.5999999046326</ele>
        <time>2023-08-08T08:26:19.000Z</time>
      </trkpt>
      <trkpt lat="50.95851" lon="1.84928">
        <ele>2.5999999046326</ele>
        <time>2023-08-08T08:26:26.000Z</time>
      </trkpt>
      <trkpt lat="50.95872" lon="1.84926">
        <ele>3</ele>
        <time>2023-08-08T08:26:32.000Z</time>
      </trkpt>
      <trkpt lat="50.95888" lon="1.84926">
        <ele>3.2000000476837</ele>
        <time>2023-08-08T08:26:38.000Z</time>
      </trkpt>
      <trkpt lat="50.95893" lon="1.84928">
        <ele>3.2000000476837</ele>
        <time>2023-08-08T08:26:41.000Z</time>
      </trkpt>
      <trkpt lat="50.95894" lon="1.84924">
        <ele>3.2000000476837</ele>
        <time>2023-08-08T08:26:43.000Z</time>
      </trkpt>
      <trkpt lat="50.95899" lon="1.84915">
        <ele>3.2000000476837</ele>
        <time>2023-08-08T08:26:47.000Z</time>
      </trkpt>
      <trkpt lat="50.95901" lon="1.84915">
        <ele>3.2000000476837</ele>
        <time>2023-08-08T08:26:48.000Z</time>
      </trkpt>
      <trkpt lat="50.95908" lon="1.84914">
        <ele>3.2000000476837</ele>
        <time>2023-08-08T08:26:53.000Z</time>
      </trkpt>
      <trkpt lat="50.95908" lon="1.84907">
        <ele>3.2000000476837</ele>
        <time>2023-08-08T08:26:58.000Z</time>
      </trkpt>
      <trkpt lat="50.95908" lon="1.84907">
        <ele>3.2000000476837</ele>
        <time>2023-08-08T08:27:00.000Z</time>
      </trkpt>
      <trkpt lat="50.95907" lon="1.8491">
        <ele>1.7999999523163</ele>
        <time>2023-08-08T08:58:41.000Z</time>
      </trkpt>
      <trkpt lat="50.95905" lon="1.84915">
        <ele>1.7999999523163</ele>
        <time>2023-08-08T08:58:43.000Z</time>
      </trkpt>
      <trkpt lat="50.95906" lon="1.84921">
        <ele>1.6000000238419</ele>
        <time>2023-08-08T08:58:45.000Z</time>
      </trkpt>
      <trkpt lat="50.9591" lon="1.84923">
        <ele>1.3999999761581</ele>
        <time>2023-08-08T08:58:47.000Z</time>
      </trkpt>
      <trkpt lat="50.95913" lon="1.84923">
        <ele>1.3999999761581</ele>
        <time>2023-08-08T08:58:48.000Z</time>
      </trkpt>
      <trkpt lat="50.95924" lon="1.84916">
        <ele>1.2000000476837</ele>
        <time>2023-08-08T08:58:52.000Z</time>
      </trkpt>
      <trkpt lat="50.95943" lon="1.84906">
        <ele>1.3999999761581</ele>
        <time>2023-08-08T08:58:58.000Z</time>
      </trkpt>
      <trkpt lat="50.95953" lon="1.84897">
        <ele>1.7999999523163</ele>
        <time>2023-08-08T08:59:03.000Z</time>
      </trkpt>
      <trkpt lat="50.95967" lon="1.84886">
        <ele>2.2000000476837</ele>
        <time>2023-08-08T08:59:08.000Z</time>
      </trkpt>
      <trkpt lat="50.95989" lon="1.84871">
        <ele>3</ele>
        <time>2023-08-08T08:59:15.000Z</time>
      </trkpt>
      <trkpt lat="50.95992" lon="1.84867">
        <ele>3.2000000476837</ele>
        <time>2023-08-08T08:59:16.000Z</time>
      </trkpt>
      <trkpt lat="50.96015" lon="1.84844">
        <ele>3.5999999046326</ele>
        <time>2023-08-08T08:59:24.000Z</time>
      </trkpt>
      <trkpt lat="50.9604" lon="1.84823">
        <ele>4.1999998092651</ele>
        <time>2023-08-08T08:59:32.000Z</time>
      </trkpt>
      <trkpt lat="50.96058" lon="1.84817">
        <ele>4.5999999046326</ele>
        <time>2023-08-08T08:59:38.000Z</time>
      </trkpt>
      <trkpt lat="50.96077" lon="1.84808">
        <ele>4.5999999046326</ele>
        <time>2023-08-08T08:59:44.000Z</time>
      </trkpt>
      <trkpt lat="50.96105" lon="1.84794">
        <ele>4.1999998092651</ele>
        <time>2023-08-08T08:59:52.000Z</time>
      </trkpt>
      <trkpt lat="50.96129" lon="1.84783">
        <ele>3.7999999523163</ele>
        <time>2023-08-08T08:59:57.000Z</time>
      </trkpt>
      <trkpt lat="50.96162" lon="1.84765">
        <ele>3.7999999523163</ele>
        <time>2023-08-08T09:00:04.000Z</time>
      </trkpt>
      <trkpt lat="50.96196" lon="1.8475">
        <ele>3.5999999046326</ele>
        <time>2023-08-08T09:00:12.000Z</time>
      </trkpt>
      <trkpt lat="50.96237" lon="1.8473">
        <ele>3.7999999523163</ele>
        <time>2023-08-08T09:00:22.000Z</time>
      </trkpt>
      <trkpt lat="50.96275" lon="1.84712">
        <ele>4</ele>
        <time>2023-08-08T09:00:31.000Z</time>
      </trkpt>
      <trkpt lat="50.96309" lon="1.84694">
        <ele>4.1999998092651</ele>
        <time>2023-08-08T09:00:39.000Z</time>
      </trkpt>
      <trkpt lat="50.9633" lon="1.84679">
        <ele>4</ele>
        <time>2023-08-08T09:00:44.000Z</time>
      </trkpt>
      <trkpt lat="50.96338" lon="1.84674">
        <ele>3.7999999523163</ele>
        <time>2023-08-08T09:00:46.000Z</time>
      </trkpt>
      <trkpt lat="50.9635" lon="1.84664">
        <ele>3.5999999046326</ele>
        <time>2023-08-08T09:00:49.000Z</time>
      </trkpt>
      <trkpt lat="50.96361" lon="1.84649">
        <ele>3.4000000953674</ele>
        <time>2023-08-08T09:00:52.000Z</time>
      </trkpt>
      <trkpt lat="50.96367" lon="1.84639">
        <ele>3.4000000953674</ele>
        <time>2023-08-08T09:00:54.000Z</time>
      </trkpt>
      <trkpt lat="50.96378" lon="1.84617">
        <ele>3.7999999523163</ele>
        <time>2023-08-08T09:00:58.000Z</time>
      </trkpt>
      <trkpt lat="50.96375" lon="1.84604">
        <ele>4</ele>
        <time>2023-08-08T09:01:00.000Z</time>
      </trkpt>
      <trkpt lat="50.96372" lon="1.84601">
        <ele>4.1999998092651</ele>
        <time>2023-08-08T09:01:01.000Z</time>
      </trkpt>
      <trkpt lat="50.96364" lon="1.84597">
        <ele>4.1999998092651</ele>
        <time>2023-08-08T09:01:03.000Z</time>
      </trkpt>
      <trkpt lat="50.96355" lon="1.84594">
        <ele>4.4000000953674</ele>
        <time>2023-08-08T09:01:05.000Z</time>
      </trkpt>
      <trkpt lat="50.96348" lon="1.84586">
        <ele>4.4000000953674</ele>
        <time>2023-08-08T09:01:07.000Z</time>
      </trkpt>
      <trkpt lat="50.96345" lon="1.8456">
        <ele>4.5999999046326</ele>
        <time>2023-08-08T09:01:11.000Z</time>
      </trkpt>
      <trkpt lat="50.9634" lon="1.84525">
        <ele>4.5999999046326</ele>
        <time>2023-08-08T09:01:16.000Z</time>
      </trkpt>
      <trkpt lat="50.96337" lon="1.84505">
        <ele>4.5999999046326</ele>
        <time>2023-08-08T09:01:19.000Z</time>
      </trkpt>
      <trkpt lat="50.96324" lon="1.84426">
        <ele>4.5999999046326</ele>
        <time>2023-08-08T09:01:30.000Z</time>
      </trkpt>
      <trkpt lat="50.96309" lon="1.84364">
        <ele>4.5999999046326</ele>
        <time>2023-08-08T09:01:39.000Z</time>
      </trkpt>
      <trkpt lat="50.96293" lon="1.84298">
        <ele>4.1999998092651</ele>
        <time>2023-08-08T09:01:49.000Z</time>
      </trkpt>
      <trkpt lat="50.96272" lon="1.84214">
        <ele>4</ele>
        <time>2023-08-08T09:02:02.000Z</time>
      </trkpt>
      <trkpt lat="50.96256" lon="1.84156">
        <ele>4</ele>
        <time>2023-08-08T09:02:11.000Z</time>
      </trkpt>
      <trkpt lat="50.96237" lon="1.84082">
        <ele>3.5999999046326</ele>
        <time>2023-08-08T09:02:22.000Z</time>
      </trkpt>
      <trkpt lat="50.96223" lon="1.8403">
        <ele>3.5999999046326</ele>
        <time>2023-08-08T09:02:30.000Z</time>
      </trkpt>
      <trkpt lat="50.96208" lon="1.83966">
        <ele>3.5999999046326</ele>
        <time>2023-08-08T09:02:40.000Z</time>
      </trkpt>
      <trkpt lat="50.96204" lon="1.83948">
        <ele>3.2000000476837</ele>
        <time>2023-08-08T09:02:43.000Z</time>
      </trkpt>
      <trkpt lat="50.96196" lon="1.83916">
        <ele>3</ele>
        <time>2023-08-08T09:02:48.000Z</time>
      </trkpt>
      <trkpt lat="50.96179" lon="1.83846">
        <ele>3.2000000476837</ele>
        <time>2023-08-08T09:02:59.000Z</time>
      </trkpt>
      <trkpt lat="50.96162" lon="1.83773">
        <ele>2.7999999523163</ele>
        <time>2023-08-08T09:03:10.000Z</time>
      </trkpt>
      <trkpt lat="50.96145" lon="1.83702">
        <ele>2.7999999523163</ele>
        <time>2023-08-08T09:03:21.000Z</time>
      </trkpt>
      <trkpt lat="50.96128" lon="1.83629">
        <ele>2.7999999523163</ele>
        <time>2023-08-08T09:03:32.000Z</time>
      </trkpt>
      <trkpt lat="50.96108" lon="1.83547">
        <ele>2.5999999046326</ele>
        <time>2023-08-08T09:03:44.000Z</time>
      </trkpt>
      <trkpt lat="50.9609" lon="1.83473">
        <ele>2.2000000476837</ele>
        <time>2023-08-08T09:03:55.000Z</time>
      </trkpt>
      <trkpt lat="50.96076" lon="1.83411">
        <ele>2.2000000476837</ele>
        <time>2023-08-08T09:04:04.000Z</time>
      </trkpt>
      <trkpt lat="50.96054" lon="1.8335">
        <ele>2</ele>
        <time>2023-08-08T09:04:13.000Z</time>
      </trkpt>
      <trkpt lat="50.96028" lon="1.83288">
        <ele>1.7999999523163</ele>
        <time>2023-08-08T09:04:23.000Z</time>
      </trkpt>
      <trkpt lat="50.96024" lon="1.83277">
        <ele>1.7999999523163</ele>
        <time>2023-08-08T09:04:25.000Z</time>
      </trkpt>
      <trkpt lat="50.96024" lon="1.83263">
        <ele>2</ele>
        <time>2023-08-08T09:04:27.000Z</time>
      </trkpt>
      <trkpt lat="50.96025" lon="1.83248">
        <ele>2</ele>
        <time>2023-08-08T09:04:29.000Z</time>
      </trkpt>
      <trkpt lat="50.96022" lon="1.83234">
        <ele>2.2000000476837</ele>
        <time>2023-08-08T09:04:31.000Z</time>
      </trkpt>
      <trkpt lat="50.96016" lon="1.83223">
        <ele>2.2000000476837</ele>
        <time>2023-08-08T09:04:33.000Z</time>
      </trkpt>
      <trkpt lat="50.9601" lon="1.83213">
        <ele>2.2000000476837</ele>
        <time>2023-08-08T09:04:35.000Z</time>
      </trkpt>
      <trkpt lat="50.96006" lon="1.83199">
        <ele>2.2000000476837</ele>
        <time>2023-08-08T09:04:37.000Z</time>
      </trkpt>
      <trkpt lat="50.96004" lon="1.83184">
        <ele>2.2000000476837</ele>
        <time>2023-08-08T09:04:39.000Z</time>
      </trkpt>
      <trkpt lat="50.95997" lon="1.83108">
        <ele>2.2000000476837</ele>
        <time>2023-08-08T09:04:49.000Z</time>
      </trkpt>
      <trkpt lat="50.95992" lon="1.83078">
        <ele>2.2000000476837</ele>
        <time>2023-08-08T09:04:53.000Z</time>
      </trkpt>
      <trkpt lat="50.95987" lon="1.83056">
        <ele>2.2000000476837</ele>
        <time>2023-08-08T09:04:56.000Z</time>
      </trkpt>
      <trkpt lat="50.95969" lon="1.82984">
        <ele>2</ele>
        <time>2023-08-08T09:05:06.000Z</time>
      </trkpt>
      <trkpt lat="50.95952" lon="1.82914">
        <ele>1.7999999523163</ele>
        <time>2023-08-08T09:05:17.000Z</time>
      </trkpt>
      <trkpt lat="50.95944" lon="1.82878">
        <ele>1.7999999523163</ele>
        <time>2023-08-08T09:05:22.000Z</time>
      </trkpt>
      <trkpt lat="50.95936" lon="1.82844">
        <ele>1.7999999523163</ele>
        <time>2023-08-08T09:05:27.000Z</time>
      </trkpt>
      <trkpt lat="50.95935" lon="1.82839">
        <ele>2</ele>
        <time>2023-08-08T09:05:28.000Z</time>
      </trkpt>
      <trkpt lat="50.95935" lon="1.82824">
        <ele>2</ele>
        <time>2023-08-08T09:05:30.000Z</time>
      </trkpt>
      <trkpt lat="50.95937" lon="1.82816">
        <ele>2</ele>
        <time>2023-08-08T09:05:31.000Z</time>
      </trkpt>
      <trkpt lat="50.9594" lon="1.82796">
        <ele>2</ele>
        <time>2023-08-08T09:05:34.000Z</time>
      </trkpt>
      <trkpt lat="50.95939" lon="1.8278">
        <ele>2</ele>
        <time>2023-08-08T09:05:36.000Z</time>
      </trkpt>
      <trkpt lat="50.95934" lon="1.82766">
        <ele>2</ele>
        <time>2023-08-08T09:05:38.000Z</time>
      </trkpt>
      <trkpt lat="50.95927" lon="1.82753">
        <ele>2</ele>
        <time>2023-08-08T09:05:40.000Z</time>
      </trkpt>
      <trkpt lat="50.95924" lon="1.82748">
        <ele>2</ele>
        <time>2023-08-08T09:05:41.000Z</time>
      </trkpt>
      <trkpt lat="50.95919" lon="1.82735">
        <ele>2</ele>
        <time>2023-08-08T09:05:43.000Z</time>
      </trkpt>
      <trkpt lat="50.95915" lon="1.82722">
        <ele>2</ele>
        <time>2023-08-08T09:05:45.000Z</time>
      </trkpt>
      <trkpt lat="50.95908" lon="1.827">
        <ele>1.7999999523163</ele>
        <time>2023-08-08T09:05:48.000Z</time>
      </trkpt>
      <trkpt lat="50.95898" lon="1.82672">
        <ele>1.6000000238419</ele>
        <time>2023-08-08T09:05:52.000Z</time>
      </trkpt>
      <trkpt lat="50.95874" lon="1.82605">
        <ele>1.6000000238419</ele>
        <time>2023-08-08T09:06:02.000Z</time>
      </trkpt>
      <trkpt lat="50.95869" lon="1.82591">
        <ele>1.6000000238419</ele>
        <time>2023-08-08T09:06:04.000Z</time>
      </trkpt>
      <trkpt lat="50.95862" lon="1.82562">
        <ele>1.6000000238419</ele>
        <time>2023-08-08T09:06:08.000Z</time>
      </trkpt>
      <trkpt lat="50.95856" lon="1.82533">
        <ele>1.7999999523163</ele>
        <time>2023-08-08T09:06:12.000Z</time>
      </trkpt>
      <trkpt lat="50.9585" lon="1.82506">
        <ele>1.7999999523163</ele>
        <time>2023-08-08T09:06:16.000Z</time>
      </trkpt>
      <trkpt lat="50.95847" lon="1.82491">
        <ele>1.7999999523163</ele>
        <time>2023-08-08T09:06:18.000Z</time>
      </trkpt>
      <trkpt lat="50.95843" lon="1.82469">
        <ele>1.6000000238419</ele>
        <time>2023-08-08T09:06:22.000Z</time>
      </trkpt>
      <trkpt lat="50.95835" lon="1.82427">
        <ele>1.6000000238419</ele>
        <time>2023-08-08T09:06:27.000Z</time>
      </trkpt>
      <trkpt lat="50.95832" lon="1.82406">
        <ele>1.6000000238419</ele>
        <time>2023-08-08T09:06:30.000Z</time>
      </trkpt>
      <trkpt lat="50.95822" lon="1.82356">
        <ele>1.6000000238419</ele>
        <time>2023-08-08T09:06:37.000Z</time>
      </trkpt>
      <trkpt lat="50.9581" lon="1.82299">
        <ele>1.7999999523163</ele>
        <time>2023-08-08T09:06:45.000Z</time>
      </trkpt>
      <trkpt lat="50.95799" lon="1.82249">
        <ele>1.6000000238419</ele>
        <time>2023-08-08T09:06:52.000Z</time>
      </trkpt>
      <trkpt lat="50.95788" lon="1.82205">
        <ele>1.3999999761581</ele>
        <time>2023-08-08T09:06:58.000Z</time>
      </trkpt>
      <trkpt lat="50.95777" lon="1.82162">
        <ele>1.6000000238419</ele>
        <time>2023-08-08T09:07:04.000Z</time>
      </trkpt>
      <trkpt lat="50.95774" lon="1.82147">
        <ele>1.6000000238419</ele>
        <time>2023-08-08T09:07:06.000Z</time>
      </trkpt>
      <trkpt lat="50.95773" lon="1.82142">
        <ele>1.7999999523163</ele>
        <time>2023-08-08T09:07:07.000Z</time>
      </trkpt>
      <trkpt lat="50.95763" lon="1.82101">
        <ele>2</ele>
        <time>2023-08-08T09:07:13.000Z</time>
      </trkpt>
      <trkpt lat="50.9575" lon="1.82041">
        <ele>2.5999999046326</ele>
        <time>2023-08-08T09:07:22.000Z</time>
      </trkpt>
      <trkpt lat="50.95744" lon="1.81984">
        <ele>2.5999999046326</ele>
        <time>2023-08-08T09:07:30.000Z</time>
      </trkpt>
      <trkpt lat="50.95742" lon="1.81968">
        <ele>2.5999999046326</ele>
        <time>2023-08-08T09:07:32.000Z</time>
      </trkpt>
      <trkpt lat="50.95739" lon="1.81939">
        <ele>2.4000000953674</ele>
        <time>2023-08-08T09:07:36.000Z</time>
      </trkpt>
      <trkpt lat="50.95738" lon="1.81924">
        <ele>2.4000000953674</ele>
        <time>2023-08-08T09:07:38.000Z</time>
      </trkpt>
      <trkpt lat="50.95736" lon="1.81895">
        <ele>2.4000000953674</ele>
        <time>2023-08-08T09:07:42.000Z</time>
      </trkpt>
      <trkpt lat="50.95733" lon="1.81836">
        <ele>2.2000000476837</ele>
        <time>2023-08-08T09:07:50.000Z</time>
      </trkpt>
      <trkpt lat="50.95732" lon="1.81828">
        <ele>2.4000000953674</ele>
        <time>2023-08-08T09:07:51.000Z</time>
      </trkpt>
      <trkpt lat="50.95726" lon="1.81751">
        <ele>2.4000000953674</ele>
        <time>2023-08-08T09:08:01.000Z</time>
      </trkpt>
      <trkpt lat="50.95719" lon="1.81658">
        <ele>2.4000000953674</ele>
        <time>2023-08-08T09:08:13.000Z</time>
      </trkpt>
      <trkpt lat="50.95717" lon="1.81629">
        <ele>2.4000000953674</ele>
        <time>2023-08-08T09:08:17.000Z</time>
      </trkpt>
      <trkpt lat="50.95715" lon="1.81613">
        <ele>2.4000000953674</ele>
        <time>2023-08-08T09:08:19.000Z</time>
      </trkpt>
      <trkpt lat="50.95715" lon="1.81606">
        <ele>2.4000000953674</ele>
        <time>2023-08-08T09:08:20.000Z</time>
      </trkpt>
      <trkpt lat="50.95709" lon="1.81546">
        <ele>2.5999999046326</ele>
        <time>2023-08-08T09:08:28.000Z</time>
      </trkpt>
      <trkpt lat="50.95708" lon="1.81524">
        <ele>2.5999999046326</ele>
        <time>2023-08-08T09:08:31.000Z</time>
      </trkpt>
      <trkpt lat="50.95708" lon="1.81501">
        <ele>2.4000000953674</ele>
        <time>2023-08-08T09:08:34.000Z</time>
      </trkpt>
      <trkpt lat="50.95704" lon="1.81437">
        <ele>2.4000000953674</ele>
        <time>2023-08-08T09:08:42.000Z</time>
      </trkpt>
      <trkpt lat="50.95698" lon="1.81353">
        <ele>2.4000000953674</ele>
        <time>2023-08-08T09:08:53.000Z</time>
      </trkpt>
      <trkpt lat="50.95694" lon="1.81288">
        <ele>2</ele>
        <time>2023-08-08T09:09:02.000Z</time>
      </trkpt>
      <trkpt lat="50.95693" lon="1.81282">
        <ele>2</ele>
        <time>2023-08-08T09:09:03.000Z</time>
      </trkpt>
      <trkpt lat="50.95686" lon="1.81191">
        <ele>2</ele>
        <time>2023-08-08T09:09:15.000Z</time>
      </trkpt>
      <trkpt lat="50.95685" lon="1.81185">
        <ele>2</ele>
        <time>2023-08-08T09:09:16.000Z</time>
      </trkpt>
      <trkpt lat="50.95679" lon="1.81099">
        <ele>2.2000000476837</ele>
        <time>2023-08-08T09:09:28.000Z</time>
      </trkpt>
      <trkpt lat="50.95678" lon="1.81092">
        <ele>2.2000000476837</ele>
        <time>2023-08-08T09:09:29.000Z</time>
      </trkpt>
      <trkpt lat="50.95675" lon="1.81038">
        <ele>2.2000000476837</ele>
        <time>2023-08-08T09:09:37.000Z</time>
      </trkpt>
      <trkpt lat="50.9567" lon="1.80964">
        <ele>2.2000000476837</ele>
        <time>2023-08-08T09:09:48.000Z</time>
      </trkpt>
      <trkpt lat="50.95665" lon="1.80901">
        <ele>2</ele>
        <time>2023-08-08T09:09:57.000Z</time>
      </trkpt>
      <trkpt lat="50.95661" lon="1.80835">
        <ele>1.7999999523163</ele>
        <time>2023-08-08T09:10:06.000Z</time>
      </trkpt>
      <trkpt lat="50.95656" lon="1.80768">
        <ele>1.7999999523163</ele>
        <time>2023-08-08T09:10:15.000Z</time>
      </trkpt>
      <trkpt lat="50.95652" lon="1.80706">
        <ele>1.6000000238419</ele>
        <time>2023-08-08T09:10:23.000Z</time>
      </trkpt>
      <trkpt lat="50.95647" lon="1.80631">
        <ele>1.6000000238419</ele>
        <time>2023-08-08T09:10:32.000Z</time>
      </trkpt>
      <trkpt lat="50.95641" lon="1.80547">
        <ele>1.6000000238419</ele>
        <time>2023-08-08T09:10:42.000Z</time>
      </trkpt>
      <trkpt lat="50.95636" lon="1.80477">
        <ele>1.3999999761581</ele>
        <time>2023-08-08T09:10:51.000Z</time>
      </trkpt>
      <trkpt lat="50.95635" lon="1.80452">
        <ele>1.3999999761581</ele>
        <time>2023-08-08T09:10:54.000Z</time>
      </trkpt>
      <trkpt lat="50.95629" lon="1.80365">
        <ele>1.2000000476837</ele>
        <time>2023-08-08T09:11:05.000Z</time>
      </trkpt>
      <trkpt lat="50.95619" lon="1.803">
        <ele>1</ele>
        <time>2023-08-08T09:11:13.000Z</time>
      </trkpt>
      <trkpt lat="50.95607" lon="1.80255">
        <ele>0.80000001192093</ele>
        <time>2023-08-08T09:11:19.000Z</time>
      </trkpt>
      <trkpt lat="50.95606" lon="1.80247">
        <ele>0.80000001192093</ele>
        <time>2023-08-08T09:11:20.000Z</time>
      </trkpt>
      <trkpt lat="50.95605" lon="1.80242">
        <ele>0.80000001192093</ele>
        <time>2023-08-08T09:11:21.000Z</time>
      </trkpt>
      <trkpt lat="50.95606" lon="1.80227">
        <ele>0.80000001192093</ele>
        <time>2023-08-08T09:11:23.000Z</time>
      </trkpt>
      <trkpt lat="50.95606" lon="1.80219">
        <ele>0.80000001192093</ele>
        <time>2023-08-08T09:11:24.000Z</time>
      </trkpt>
      <trkpt lat="50.95606" lon="1.80212">
        <ele>0.80000001192093</ele>
        <time>2023-08-08T09:11:25.000Z</time>
      </trkpt>
      <trkpt lat="50.95603" lon="1.80191">
        <ele>0.80000001192093</ele>
        <time>2023-08-08T09:11:28.000Z</time>
      </trkpt>
      <trkpt lat="50.95603" lon="1.8014">
        <ele>0.60000002384186</ele>
        <time>2023-08-08T09:11:34.000Z</time>
      </trkpt>
      <trkpt lat="50.95597" lon="1.80078">
        <ele>0.60000002384186</ele>
        <time>2023-08-08T09:11:42.000Z</time>
      </trkpt>
      <trkpt lat="50.95583" lon="1.80018">
        <ele>0.40000000596046</ele>
        <time>2023-08-08T09:11:50.000Z</time>
      </trkpt>
      <trkpt lat="50.9558" lon="1.80011">
        <ele>0.40000000596046</ele>
        <time>2023-08-08T09:11:51.000Z</time>
      </trkpt>
      <trkpt lat="50.95575" lon="1.79999">
        <ele>0.40000000596046</ele>
        <time>2023-08-08T09:11:53.000Z</time>
      </trkpt>
      <trkpt lat="50.9557" lon="1.79984">
        <ele>0.20000000298023</ele>
        <time>2023-08-08T09:11:55.000Z</time>
      </trkpt>
      <trkpt lat="50.95569" lon="1.79977">
        <ele>0.20000000298023</ele>
        <time>2023-08-08T09:11:56.000Z</time>
      </trkpt>
      <trkpt lat="50.95561" lon="1.7994">
        <ele>0.20000000298023</ele>
        <time>2023-08-08T09:12:01.000Z</time>
      </trkpt>
      <trkpt lat="50.9556" lon="1.79932">
        <ele>0.20000000298023</ele>
        <time>2023-08-08T09:12:02.000Z</time>
      </trkpt>
      <trkpt lat="50.95549" lon="1.79876">
        <ele>0.40000000596046</ele>
        <time>2023-08-08T09:12:10.000Z</time>
      </trkpt>
      <trkpt lat="50.95534" lon="1.79815">
        <ele>0.40000000596046</ele>
        <time>2023-08-08T09:12:18.000Z</time>
      </trkpt>
      <trkpt lat="50.9552" lon="1.79762">
        <ele>0.20000000298023</ele>
        <time>2023-08-08T09:12:25.000Z</time>
      </trkpt>
      <trkpt lat="50.95507" lon="1.79699">
        <ele>0.40000000596046</ele>
        <time>2023-08-08T09:12:33.000Z</time>
      </trkpt>
      <trkpt lat="50.95499" lon="1.79644">
        <ele>0.40000000596046</ele>
        <time>2023-08-08T09:12:40.000Z</time>
      </trkpt>
      <trkpt lat="50.95494" lon="1.79607">
        <ele>0.60000002384186</ele>
        <time>2023-08-08T09:12:45.000Z</time>
      </trkpt>
      <trkpt lat="50.95493" lon="1.79595">
        <ele>0.60000002384186</ele>
        <time>2023-08-08T09:12:47.000Z</time>
      </trkpt>
      <trkpt lat="50.95486" lon="1.79536">
        <ele>0.40000000596046</ele>
        <time>2023-08-08T09:12:55.000Z</time>
      </trkpt>
      <trkpt lat="50.95485" lon="1.79529">
        <ele>0.40000000596046</ele>
        <time>2023-08-08T09:12:56.000Z</time>
      </trkpt>
      <trkpt lat="50.9548" lon="1.79477">
        <ele>0.40000000596046</ele>
        <time>2023-08-08T09:13:03.000Z</time>
      </trkpt>
      <trkpt lat="50.95478" lon="1.79455">
        <ele>0.40000000596046</ele>
        <time>2023-08-08T09:13:06.000Z</time>
      </trkpt>
      <trkpt lat="50.9547" lon="1.79379">
        <ele>0.20000000298023</ele>
        <time>2023-08-08T09:13:16.000Z</time>
      </trkpt>
      <trkpt lat="50.95464" lon="1.79326">
        <ele>0.20000000298023</ele>
        <time>2023-08-08T09:13:23.000Z</time>
      </trkpt>
      <trkpt lat="50.95457" lon="1.7925">
        <ele>-0.20000000298023</ele>
        <time>2023-08-08T09:13:33.000Z</time>
      </trkpt>
      <trkpt lat="50.95452" lon="1.79195">
        <ele>-0.40000000596046</ele>
        <time>2023-08-08T09:13:40.000Z</time>
      </trkpt>
      <trkpt lat="50.95442" lon="1.79108">
        <ele>-0.20000000298023</ele>
        <time>2023-08-08T09:13:51.000Z</time>
      </trkpt>
      <trkpt lat="50.95432" lon="1.79029">
        <ele>4</ele>
        <time>2023-08-08T09:14:01.000Z</time>
      </trkpt>
      <trkpt lat="50.95424" lon="1.78957">
        <ele>0.20000000298023</ele>
        <time>2023-08-08T09:14:10.000Z</time>
      </trkpt>
      <trkpt lat="50.95417" lon="1.78891">
        <ele>0.20000000298023</ele>
        <time>2023-08-08T09:14:18.000Z</time>
      </trkpt>
      <trkpt lat="50.95411" lon="1.78827">
        <ele>0.40000000596046</ele>
        <time>2023-08-08T09:14:26.000Z</time>
      </trkpt>
      <trkpt lat="50.95405" lon="1.78766">
        <ele>0.60000002384186</ele>
        <time>2023-08-08T09:14:34.000Z</time>
      </trkpt>
      <trkpt lat="50.95396" lon="1.78685">
        <ele>0.80000001192093</ele>
        <time>2023-08-08T09:14:44.000Z</time>
      </trkpt>
      <trkpt lat="50.95387" lon="1.78604">
        <ele>0.40000000596046</ele>
        <time>2023-08-08T09:14:54.000Z</time>
      </trkpt>
      <trkpt lat="50.95379" lon="1.78526">
        <ele>3.7</ele>
        <time>2023-08-08T09:15:04.000Z</time>
      </trkpt>
      <trkpt lat="50.95375" lon="1.78455">
        <ele>0.40000000596046</ele>
        <time>2023-08-08T09:15:13.000Z</time>
      </trkpt>
      <trkpt lat="50.9537" lon="1.78368">
        <ele>3.2</ele>
        <time>2023-08-08T09:15:24.000Z</time>
      </trkpt>
      <trkpt lat="50.95364" lon="1.78278">
        <ele>-0.40000000596046</ele>
        <time>2023-08-08T09:15:35.000Z</time>
      </trkpt>
      <trkpt lat="50.95363" lon="1.78269">
        <ele>-0.40000000596046</ele>
        <time>2023-08-08T09:15:36.000Z</time>
      </trkpt>
      <trkpt lat="50.95362" lon="1.78244">
        <ele>-0.60000002384186</ele>
        <time>2023-08-08T09:15:39.000Z</time>
      </trkpt>
      <trkpt lat="50.95354" lon="1.78186">
        <ele>-1</ele>
        <time>2023-08-08T09:15:46.000Z</time>
      </trkpt>
      <trkpt lat="50.95341" lon="1.7811">
        <ele>-1</ele>
        <time>2023-08-08T09:15:56.000Z</time>
      </trkpt>
      <trkpt lat="50.95329" lon="1.78043">
        <ele>-0.60000002384186</ele>
        <time>2023-08-08T09:16:05.000Z</time>
      </trkpt>
      <trkpt lat="50.95317" lon="1.77977">
        <ele>-0.60000002384186</ele>
        <time>2023-08-08T09:16:14.000Z</time>
      </trkpt>
      <trkpt lat="50.95303" lon="1.77892">
        <ele>-0.40000000596046</ele>
        <time>2023-08-08T09:16:25.000Z</time>
      </trkpt>
      <trkpt lat="50.95288" lon="1.77808">
        <ele>-0.60000002384186</ele>
        <time>2023-08-08T09:16:36.000Z</time>
      </trkpt>
      <trkpt lat="50.95275" lon="1.77742">
        <ele>-0.40000000596046</ele>
        <time>2023-08-08T09:16:45.000Z</time>
      </trkpt>
      <trkpt lat="50.95261" lon="1.77684">
        <ele>-0.20000000298023</ele>
        <time>2023-08-08T09:16:53.000Z</time>
      </trkpt>
      <trkpt lat="50.95243" lon="1.77619">
        <ele>-0.20000000298023</ele>
        <time>2023-08-08T09:17:02.000Z</time>
      </trkpt>
      <trkpt lat="50.95221" lon="1.77542">
        <ele>4</ele>
        <time>2023-08-08T09:17:13.000Z</time>
      </trkpt>
      <trkpt lat="50.95205" lon="1.77486">
        <ele>0.20000000298023</ele>
        <time>2023-08-08T09:17:21.000Z</time>
      </trkpt>
      <trkpt lat="50.95182" lon="1.77406">
        <ele>-0.20000000298023</ele>
        <time>2023-08-08T09:17:32.000Z</time>
      </trkpt>
      <trkpt lat="50.95161" lon="1.77337">
        <ele>-0.40000000596046</ele>
        <time>2023-08-08T09:17:42.000Z</time>
      </trkpt>
      <trkpt lat="50.95141" lon="1.77267">
        <ele>-0.80000001192093</ele>
        <time>2023-08-08T09:17:52.000Z</time>
      </trkpt>
      <trkpt lat="50.95124" lon="1.77207">
        <ele>-0.80000001192093</ele>
        <time>2023-08-08T09:18:01.000Z</time>
      </trkpt>
      <trkpt lat="50.95105" lon="1.77143">
        <ele>-0.80000001192093</ele>
        <time>2023-08-08T09:18:10.000Z</time>
      </trkpt>
      <trkpt lat="50.95083" lon="1.77066">
        <ele>-0.60000002384186</ele>
        <time>2023-08-08T09:18:21.000Z</time>
      </trkpt>
      <trkpt lat="50.95061" lon="1.7699">
        <ele>-0.80000001192093</ele>
        <time>2023-08-08T09:18:32.000Z</time>
      </trkpt>
      <trkpt lat="50.95037" lon="1.76907">
        <ele>-1</ele>
        <time>2023-08-08T09:18:44.000Z</time>
      </trkpt>
      <trkpt lat="50.95017" lon="1.76828">
        <ele>-1</ele>
        <time>2023-08-08T09:18:55.000Z</time>
      </trkpt>
      <trkpt lat="50.95" lon="1.76759">
        <ele>-1.6000000238419</ele>
        <time>2023-08-08T09:19:05.000Z</time>
      </trkpt>
      <trkpt lat="50.94997" lon="1.76744">
        <ele>-2</ele>
        <time>2023-08-08T09:19:07.000Z</time>
      </trkpt>
      <trkpt lat="50.94979" lon="1.76667">
        <ele>-2</ele>
        <time>2023-08-08T09:19:18.000Z</time>
      </trkpt>
      <trkpt lat="50.94965" lon="1.76612">
        <ele>-1.7999999523163</ele>
        <time>2023-08-08T09:19:26.000Z</time>
      </trkpt>
      <trkpt lat="50.94951" lon="1.76549">
        <ele>-1.7999999523163</ele>
        <time>2023-08-08T09:19:35.000Z</time>
      </trkpt>
      <trkpt lat="50.94936" lon="1.76485">
        <ele>-2</ele>
        <time>2023-08-08T09:19:44.000Z</time>
      </trkpt>
      <trkpt lat="50.94925" lon="1.76436">
        <ele>-2</ele>
        <time>2023-08-08T09:19:51.000Z</time>
      </trkpt>
      <trkpt lat="50.9492" lon="1.76412">
        <ele>-1.7999999523163</ele>
        <time>2023-08-08T09:19:54.000Z</time>
      </trkpt>
      <trkpt lat="50.94901" lon="1.76331">
        <ele>-1.7999999523163</ele>
        <time>2023-08-08T09:20:05.000Z</time>
      </trkpt>
      <trkpt lat="50.94899" lon="1.76323">
        <ele>-1.7999999523163</ele>
        <time>2023-08-08T09:20:06.000Z</time>
      </trkpt>
      <trkpt lat="50.94883" lon="1.76257">
        <ele>-1.7999999523163</ele>
        <time>2023-08-08T09:20:15.000Z</time>
      </trkpt>
      <trkpt lat="50.94863" lon="1.76175">
        <ele>-2</ele>
        <time>2023-08-08T09:20:26.000Z</time>
      </trkpt>
      <trkpt lat="50.94856" lon="1.76146">
        <ele>-2</ele>
        <time>2023-08-08T09:20:30.000Z</time>
      </trkpt>
      <trkpt lat="50.94847" lon="1.76113">
        <ele>-2</ele>
        <time>2023-08-08T09:20:35.000Z</time>
      </trkpt>
      <trkpt lat="50.94844" lon="1.76107">
        <ele>-2</ele>
        <time>2023-08-08T09:20:36.000Z</time>
      </trkpt>
      <trkpt lat="50.94821" lon="1.76045">
        <ele>-2</ele>
        <time>2023-08-08T09:20:45.000Z</time>
      </trkpt>
      <trkpt lat="50.94818" lon="1.76038">
        <ele>-2</ele>
        <time>2023-08-08T09:20:46.000Z</time>
      </trkpt>
      <trkpt lat="50.94807" lon="1.76005">
        <ele>-1.7999999523163</ele>
        <time>2023-08-08T09:20:51.000Z</time>
      </trkpt>
      <trkpt lat="50.94787" lon="1.75953">
        <ele>-1.6000000238419</ele>
        <time>2023-08-08T09:20:59.000Z</time>
      </trkpt>
      <trkpt lat="50.94769" lon="1.75903">
        <ele>-1.3999999761581</ele>
        <time>2023-08-08T09:21:07.000Z</time>
      </trkpt>
      <trkpt lat="50.94763" lon="1.75885">
        <ele>-1.3999999761581</ele>
        <time>2023-08-08T09:21:10.000Z</time>
      </trkpt>
      <trkpt lat="50.94754" lon="1.75861">
        <ele>-1.2000000476837</ele>
        <time>2023-08-08T09:21:14.000Z</time>
      </trkpt>
      <trkpt lat="50.94733" lon="1.75805">
        <ele>-1</ele>
        <time>2023-08-08T09:21:23.000Z</time>
      </trkpt>
      <trkpt lat="50.94716" lon="1.75762">
        <ele>-1</ele>
        <time>2023-08-08T09:21:30.000Z</time>
      </trkpt>
      <trkpt lat="50.94706" lon="1.75728">
        <ele>-0.80000001192093</ele>
        <time>2023-08-08T09:21:35.000Z</time>
      </trkpt>
      <trkpt lat="50.947" lon="1.75708">
        <ele>-0.60000002384186</ele>
        <time>2023-08-08T09:21:38.000Z</time>
      </trkpt>
      <trkpt lat="50.94681" lon="1.75642">
        <ele>-0.60000002384186</ele>
        <time>2023-08-08T09:21:48.000Z</time>
      </trkpt>
      <trkpt lat="50.94667" lon="1.75596">
        <ele>-0.60000002384186</ele>
        <time>2023-08-08T09:21:55.000Z</time>
      </trkpt>
      <trkpt lat="50.94643" lon="1.75514">
        <ele>-0.40000000596046</ele>
        <time>2023-08-08T09:22:07.000Z</time>
      </trkpt>
      <trkpt lat="50.94639" lon="1.755">
        <ele>-0.40000000596046</ele>
        <time>2023-08-08T09:22:09.000Z</time>
      </trkpt>
      <trkpt lat="50.94616" lon="1.75414">
        <ele>-0.60000002384186</ele>
        <time>2023-08-08T09:22:21.000Z</time>
      </trkpt>
      <trkpt lat="50.94598" lon="1.7535">
        <ele>-0.80000001192093</ele>
        <time>2023-08-08T09:22:30.000Z</time>
      </trkpt>
      <trkpt lat="50.94579" lon="1.75279">
        <ele>-1</ele>
        <time>2023-08-08T09:22:40.000Z</time>
      </trkpt>
      <trkpt lat="50.94564" lon="1.75225">
        <ele>-1.2000000476837</ele>
        <time>2023-08-08T09:22:48.000Z</time>
      </trkpt>
      <trkpt lat="50.94547" lon="1.75161">
        <ele>-0.80000001192093</ele>
        <time>2023-08-08T09:22:57.000Z</time>
      </trkpt>
      <trkpt lat="50.94533" lon="1.75101">
        <ele>-0.60000002384186</ele>
        <time>2023-08-08T09:23:06.000Z</time>
      </trkpt>
      <trkpt lat="50.94522" lon="1.75051">
        <ele>-0.60000002384186</ele>
        <time>2023-08-08T09:23:13.000Z</time>
      </trkpt>
      <trkpt lat="50.9452" lon="1.75037">
        <ele>-0.60000002384186</ele>
        <time>2023-08-08T09:23:15.000Z</time>
      </trkpt>
      <trkpt lat="50.94516" lon="1.74985">
        <ele>-0.60000002384186</ele>
        <time>2023-08-08T09:23:22.000Z</time>
      </trkpt>
      <trkpt lat="50.94508" lon="1.74927">
        <ele>-0.80000001192093</ele>
        <time>2023-08-08T09:23:30.000Z</time>
      </trkpt>
      <trkpt lat="50.94506" lon="1.7492">
        <ele>-0.80000001192093</ele>
        <time>2023-08-08T09:23:31.000Z</time>
      </trkpt>
      <trkpt lat="50.94492" lon="1.74873">
        <ele>-0.80000001192093</ele>
        <time>2023-08-08T09:23:38.000Z</time>
      </trkpt>
      <trkpt lat="50.94477" lon="1.74827">
        <ele>-0.60000002384186</ele>
        <time>2023-08-08T09:23:45.000Z</time>
      </trkpt>
      <trkpt lat="50.94456" lon="1.74754">
        <ele>-0.20000000298023</ele>
        <time>2023-08-08T09:23:56.000Z</time>
      </trkpt>
      <trkpt lat="50.94446" lon="1.74722">
        <ele>5</ele>
        <time>2023-08-08T09:24:01.000Z</time>
      </trkpt>
      <trkpt lat="50.9444" lon="1.74703">
        <ele>0.20000000298023</ele>
        <time>2023-08-08T09:24:04.000Z</time>
      </trkpt>
      <trkpt lat="50.94417" lon="1.74641">
        <ele>0.60000002384186</ele>
        <time>2023-08-08T09:24:14.000Z</time>
      </trkpt>
      <trkpt lat="50.94396" lon="1.74572">
        <ele>1.2000000476837</ele>
        <time>2023-08-08T09:24:25.000Z</time>
      </trkpt>
      <trkpt lat="50.94394" lon="1.74566">
        <ele>1.2000000476837</ele>
        <time>2023-08-08T09:24:26.000Z</time>
      </trkpt>
      <trkpt lat="50.94389" lon="1.74547">
        <ele>1.3999999761581</ele>
        <time>2023-08-08T09:24:29.000Z</time>
      </trkpt>
      <trkpt lat="50.94381" lon="1.74522">
        <ele>1.7999999523163</ele>
        <time>2023-08-08T09:24:33.000Z</time>
      </trkpt>
      <trkpt lat="50.94367" lon="1.74474">
        <ele>2</ele>
        <time>2023-08-08T09:24:41.000Z</time>
      </trkpt>
      <trkpt lat="50.94363" lon="1.74462">
        <ele>2</ele>
        <time>2023-08-08T09:24:43.000Z</time>
      </trkpt>
      <trkpt lat="50.94361" lon="1.74456">
        <ele>2</ele>
        <time>2023-08-08T09:24:44.000Z</time>
      </trkpt>
      <trkpt lat="50.94353" lon="1.74434">
        <ele>2.4000000953674</ele>
        <time>2023-08-08T09:24:48.000Z</time>
      </trkpt>
      <trkpt lat="50.94342" lon="1.74408">
        <ele>2.5999999046326</ele>
        <time>2023-08-08T09:24:53.000Z</time>
      </trkpt>
      <trkpt lat="50.94324" lon="1.74367">
        <ele>3.2000000476837</ele>
        <time>2023-08-08T09:25:01.000Z</time>
      </trkpt>
      <trkpt lat="50.94317" lon="1.7435">
        <ele>3.4000000953674</ele>
        <time>2023-08-08T09:25:04.000Z</time>
      </trkpt>
      <trkpt lat="50.94307" lon="1.74329">
        <ele>3.5999999046326</ele>
        <time>2023-08-08T09:25:08.000Z</time>
      </trkpt>
      <trkpt lat="50.943" lon="1.74314">
        <ele>3.7999999523163</ele>
        <time>2023-08-08T09:25:11.000Z</time>
      </trkpt>
      <trkpt lat="50.94291" lon="1.74296">
        <ele>4.1999998092651</ele>
        <time>2023-08-08T09:25:15.000Z</time>
      </trkpt>
      <trkpt lat="50.94289" lon="1.74288">
        <ele>4.1999998092651</ele>
        <time>2023-08-08T09:25:17.000Z</time>
      </trkpt>
      <trkpt lat="50.9429" lon="1.74282">
        <ele>4.1999998092651</ele>
        <time>2023-08-08T09:25:19.000Z</time>
      </trkpt>
      <trkpt lat="50.94296" lon="1.74263">
        <ele>3.7999999523163</ele>
        <time>2023-08-08T09:25:26.000Z</time>
      </trkpt>
      <trkpt lat="50.94297" lon="1.74259">
        <ele>3.2000000476837</ele>
        <time>2023-08-08T09:25:31.000Z</time>
      </trkpt>
      <trkpt lat="50.94286" lon="1.7428">
        <ele>5.5999999046326</ele>
        <time>2023-08-08T09:47:20.000Z</time>
      </trkpt>
      <trkpt lat="50.94283" lon="1.74278">
        <ele>5.5999999046326</ele>
        <time>2023-08-08T09:47:22.000Z</time>
      </trkpt>
      <trkpt lat="50.94282" lon="1.74277">
        <ele>5.8000001907349</ele>
        <time>2023-08-08T09:47:23.000Z</time>
      </trkpt>
      <trkpt lat="50.94274" lon="1.74267">
        <ele>5.8000001907349</ele>
        <time>2023-08-08T09:47:28.000Z</time>
      </trkpt>
      <trkpt lat="50.94256" lon="1.74242">
        <ele>6.5999999046326</ele>
        <time>2023-08-08T09:47:35.000Z</time>
      </trkpt>
      <trkpt lat="50.94254" lon="1.74238">
        <ele>6.8000001907349</ele>
        <time>2023-08-08T09:47:36.000Z</time>
      </trkpt>
      <trkpt lat="50.94241" lon="1.74219">
        <ele>7.8000001907349</ele>
        <time>2023-08-08T09:47:41.000Z</time>
      </trkpt>
      <trkpt lat="50.94238" lon="1.74215">
        <ele>8</ele>
        <time>2023-08-08T09:47:42.000Z</time>
      </trkpt>
      <trkpt lat="50.94222" lon="1.74189">
        <ele>8.1999998092651</ele>
        <time>2023-08-08T09:47:49.000Z</time>
      </trkpt>
      <trkpt lat="50.94206" lon="1.74163">
        <ele>8.6000003814697</ele>
        <time>2023-08-08T09:47:56.000Z</time>
      </trkpt>
      <trkpt lat="50.94193" lon="1.74144">
        <ele>9</ele>
        <time>2023-08-08T09:48:01.000Z</time>
      </trkpt>
      <trkpt lat="50.94186" lon="1.74133">
        <ele>9.1999998092651</ele>
        <time>2023-08-08T09:48:04.000Z</time>
      </trkpt>
      <trkpt lat="50.94162" lon="1.74097">
        <ele>10</ele>
        <time>2023-08-08T09:48:13.000Z</time>
      </trkpt>
      <trkpt lat="50.94144" lon="1.74068">
        <ele>11</ele>
        <time>2023-08-08T09:48:20.000Z</time>
      </trkpt>
      <trkpt lat="50.94137" lon="1.74057">
        <ele>11.39999961853</ele>
        <time>2023-08-08T09:48:23.000Z</time>
      </trkpt>
      <trkpt lat="50.94117" lon="1.74024">
        <ele>12.199999809265</ele>
        <time>2023-08-08T09:48:31.000Z</time>
      </trkpt>
      <trkpt lat="50.94111" lon="1.74012">
        <ele>12.39999961853</ele>
        <time>2023-08-08T09:48:34.000Z</time>
      </trkpt>
      <trkpt lat="50.94095" lon="1.73986">
        <ele>13.199999809265</ele>
        <time>2023-08-08T09:48:41.000Z</time>
      </trkpt>
      <trkpt lat="50.94093" lon="1.73982">
        <ele>13.199999809265</ele>
        <time>2023-08-08T09:48:42.000Z</time>
      </trkpt>
      <trkpt lat="50.9407" lon="1.73943">
        <ele>14.199999809265</ele>
        <time>2023-08-08T09:48:52.000Z</time>
      </trkpt>
      <trkpt lat="50.94063" lon="1.73932">
        <ele>14.60000038147</ele>
        <time>2023-08-08T09:48:55.000Z</time>
      </trkpt>
      <trkpt lat="50.94056" lon="1.73921">
        <ele>15.199999809265</ele>
        <time>2023-08-08T09:48:58.000Z</time>
      </trkpt>
      <trkpt lat="50.94044" lon="1.73901">
        <ele>16</ele>
        <time>2023-08-08T09:49:04.000Z</time>
      </trkpt>
      <trkpt lat="50.94036" lon="1.73887">
        <ele>16.39999961853</ele>
        <time>2023-08-08T09:49:08.000Z</time>
      </trkpt>
      <trkpt lat="50.94023" lon="1.73867">
        <ele>17</ele>
        <time>2023-08-08T09:49:14.000Z</time>
      </trkpt>
      <trkpt lat="50.94004" lon="1.73837">
        <ele>17.39999961853</ele>
        <time>2023-08-08T09:49:22.000Z</time>
      </trkpt>
      <trkpt lat="50.94" lon="1.73829">
        <ele>17.39999961853</ele>
        <time>2023-08-08T09:49:24.000Z</time>
      </trkpt>
      <trkpt lat="50.93981" lon="1.73795">
        <ele>17.799999237061</ele>
        <time>2023-08-08T09:49:32.000Z</time>
      </trkpt>
      <trkpt lat="50.93961" lon="1.73752">
        <ele>18.39999961853</ele>
        <time>2023-08-08T09:49:42.000Z</time>
      </trkpt>
      <trkpt lat="50.93959" lon="1.73748">
        <ele>18.39999961853</ele>
        <time>2023-08-08T09:49:43.000Z</time>
      </trkpt>
      <trkpt lat="50.93941" lon="1.73702">
        <ele>19.39999961853</ele>
        <time>2023-08-08T09:49:53.000Z</time>
      </trkpt>
      <trkpt lat="50.93938" lon="1.73692">
        <ele>19.60000038147</ele>
        <time>2023-08-08T09:49:55.000Z</time>
      </trkpt>
      <trkpt lat="50.93926" lon="1.73664">
        <ele>20.39999961853</ele>
        <time>2023-08-08T09:50:01.000Z</time>
      </trkpt>
      <trkpt lat="50.93925" lon="1.73659">
        <ele>20.60000038147</ele>
        <time>2023-08-08T09:50:02.000Z</time>
      </trkpt>
      <trkpt lat="50.93912" lon="1.73622">
        <ele>21.39999961853</ele>
        <time>2023-08-08T09:50:10.000Z</time>
      </trkpt>
      <trkpt lat="50.93905" lon="1.73601">
        <ele>21.799999237061</ele>
        <time>2023-08-08T09:50:14.000Z</time>
      </trkpt>
      <trkpt lat="50.93894" lon="1.73565">
        <ele>22.39999961853</ele>
        <time>2023-08-08T09:50:21.000Z</time>
      </trkpt>
      <trkpt lat="50.93876" lon="1.73507">
        <ele>22.799999237061</ele>
        <time>2023-08-08T09:50:32.000Z</time>
      </trkpt>
      <trkpt lat="50.93859" lon="1.73449">
        <ele>23.200000762939</ele>
        <time>2023-08-08T09:50:43.000Z</time>
      </trkpt>
      <trkpt lat="50.93849" lon="1.73416">
        <ele>23.799999237061</ele>
        <time>2023-08-08T09:50:49.000Z</time>
      </trkpt>
      <trkpt lat="50.93843" lon="1.73396">
        <ele>24</ele>
        <time>2023-08-08T09:50:53.000Z</time>
      </trkpt>
      <trkpt lat="50.9383" lon="1.73355">
        <ele>24.200000762939</ele>
        <time>2023-08-08T09:51:01.000Z</time>
      </trkpt>
      <trkpt lat="50.93816" lon="1.7331">
        <ele>24.799999237061</ele>
        <time>2023-08-08T09:51:10.000Z</time>
      </trkpt>
      <trkpt lat="50.93812" lon="1.733">
        <ele>25.200000762939</ele>
        <time>2023-08-08T09:51:12.000Z</time>
      </trkpt>
      <trkpt lat="50.93799" lon="1.73255">
        <ele>25.60000038147</ele>
        <time>2023-08-08T09:51:21.000Z</time>
      </trkpt>
      <trkpt lat="50.93796" lon="1.73245">
        <ele>26</ele>
        <time>2023-08-08T09:51:23.000Z</time>
      </trkpt>
      <trkpt lat="50.93791" lon="1.7323">
        <ele>26</ele>
        <time>2023-08-08T09:51:26.000Z</time>
      </trkpt>
      <trkpt lat="50.93775" lon="1.73172">
        <ele>26.60000038147</ele>
        <time>2023-08-08T09:51:37.000Z</time>
      </trkpt>
      <trkpt lat="50.9376" lon="1.73117">
        <ele>27</ele>
        <time>2023-08-08T09:51:47.000Z</time>
      </trkpt>
      <trkpt lat="50.93759" lon="1.73112">
        <ele>27</ele>
        <time>2023-08-08T09:51:48.000Z</time>
      </trkpt>
      <trkpt lat="50.93745" lon="1.73062">
        <ele>26.799999237061</ele>
        <time>2023-08-08T09:51:57.000Z</time>
      </trkpt>
      <trkpt lat="50.93725" lon="1.73003">
        <ele>26.799999237061</ele>
        <time>2023-08-08T09:52:08.000Z</time>
      </trkpt>
      <trkpt lat="50.93707" lon="1.7295">
        <ele>26.799999237061</ele>
        <time>2023-08-08T09:52:18.000Z</time>
      </trkpt>
      <trkpt lat="50.93686" lon="1.72889">
        <ele>27.200000762939</ele>
        <time>2023-08-08T09:52:30.000Z</time>
      </trkpt>
      <trkpt lat="50.93668" lon="1.72848">
        <ele>27.799999237061</ele>
        <time>2023-08-08T09:52:39.000Z</time>
      </trkpt>
      <trkpt lat="50.93642" lon="1.72802">
        <ele>28.200000762939</ele>
        <time>2023-08-08T09:52:50.000Z</time>
      </trkpt>
      <trkpt lat="50.9364" lon="1.72799">
        <ele>28.200000762939</ele>
        <time>2023-08-08T09:52:51.000Z</time>
      </trkpt>
      <trkpt lat="50.93623" lon="1.72772">
        <ele>28.39999961853</ele>
        <time>2023-08-08T09:52:58.000Z</time>
      </trkpt>
      <trkpt lat="50.93621" lon="1.72769">
        <ele>28.39999961853</ele>
        <time>2023-08-08T09:52:59.000Z</time>
      </trkpt>
      <trkpt lat="50.93592" lon="1.72729">
        <ele>29.200000762939</ele>
        <time>2023-08-08T09:53:10.000Z</time>
      </trkpt>
      <trkpt lat="50.9359" lon="1.72726">
        <ele>29.200000762939</ele>
        <time>2023-08-08T09:53:11.000Z</time>
      </trkpt>
      <trkpt lat="50.93569" lon="1.72697">
        <ele>30</ele>
        <time>2023-08-08T09:53:19.000Z</time>
      </trkpt>
      <trkpt lat="50.93555" lon="1.72676">
        <ele>30.200000762939</ele>
        <time>2023-08-08T09:53:25.000Z</time>
      </trkpt>
      <trkpt lat="50.93548" lon="1.72666">
        <ele>30.60000038147</ele>
        <time>2023-08-08T09:53:28.000Z</time>
      </trkpt>
      <trkpt lat="50.93518" lon="1.72626">
        <ele>31.200000762939</ele>
        <time>2023-08-08T09:53:40.000Z</time>
      </trkpt>
      <trkpt lat="50.93513" lon="1.7262">
        <ele>31.39999961853</ele>
        <time>2023-08-08T09:53:42.000Z</time>
      </trkpt>
      <trkpt lat="50.93496" lon="1.72597">
        <ele>32.200000762939</ele>
        <time>2023-08-08T09:53:49.000Z</time>
      </trkpt>
      <trkpt lat="50.93492" lon="1.72591">
        <ele>32.400001525879</ele>
        <time>2023-08-08T09:53:51.000Z</time>
      </trkpt>
      <trkpt lat="50.93471" lon="1.72562">
        <ele>33</ele>
        <time>2023-08-08T09:54:00.000Z</time>
      </trkpt>
      <trkpt lat="50.93461" lon="1.72548">
        <ele>33.400001525879</ele>
        <time>2023-08-08T09:54:04.000Z</time>
      </trkpt>
      <trkpt lat="50.93447" lon="1.72528">
        <ele>34.200000762939</ele>
        <time>2023-08-08T09:54:10.000Z</time>
      </trkpt>
      <trkpt lat="50.93432" lon="1.72507">
        <ele>34.400001525879</ele>
        <time>2023-08-08T09:54:16.000Z</time>
      </trkpt>
      <trkpt lat="50.93419" lon="1.7249">
        <ele>34.599998474121</ele>
        <time>2023-08-08T09:54:21.000Z</time>
      </trkpt>
      <trkpt lat="50.93391" lon="1.72451">
        <ele>35.599998474121</ele>
        <time>2023-08-08T09:54:32.000Z</time>
      </trkpt>
      <trkpt lat="50.93389" lon="1.72448">
        <ele>35.599998474121</ele>
        <time>2023-08-08T09:54:33.000Z</time>
      </trkpt>
      <trkpt lat="50.93377" lon="1.72431">
        <ele>36.200000762939</ele>
        <time>2023-08-08T09:54:38.000Z</time>
      </trkpt>
      <trkpt lat="50.93365" lon="1.72414">
        <ele>36.599998474121</ele>
        <time>2023-08-08T09:54:43.000Z</time>
      </trkpt>
      <trkpt lat="50.93351" lon="1.72395">
        <ele>37.599998474121</ele>
        <time>2023-08-08T09:54:49.000Z</time>
      </trkpt>
      <trkpt lat="50.9334" lon="1.72379">
        <ele>38.599998474121</ele>
        <time>2023-08-08T09:54:55.000Z</time>
      </trkpt>
      <trkpt lat="50.93338" lon="1.72376">
        <ele>38.799999237061</ele>
        <time>2023-08-08T09:54:56.000Z</time>
      </trkpt>
      <trkpt lat="50.93323" lon="1.72356">
        <ele>39.799999237061</ele>
        <time>2023-08-08T09:55:04.000Z</time>
      </trkpt>
      <trkpt lat="50.93309" lon="1.72337">
        <ele>40.799999237061</ele>
        <time>2023-08-08T09:55:12.000Z</time>
      </trkpt>
      <trkpt lat="50.93307" lon="1.72335">
        <ele>41</ele>
        <time>2023-08-08T09:55:13.000Z</time>
      </trkpt>
      <trkpt lat="50.93297" lon="1.7232">
        <ele>42.200000762939</ele>
        <time>2023-08-08T09:55:19.000Z</time>
      </trkpt>
      <trkpt lat="50.93294" lon="1.72318">
        <ele>42.599998474121</ele>
        <time>2023-08-08T09:55:20.000Z</time>
      </trkpt>
      <trkpt lat="50.93289" lon="1.72312">
        <ele>43.200000762939</ele>
        <time>2023-08-08T09:55:23.000Z</time>
      </trkpt>
      <trkpt lat="50.93276" lon="1.72297">
        <ele>44.400001525879</ele>
        <time>2023-08-08T09:55:30.000Z</time>
      </trkpt>
      <trkpt lat="50.93273" lon="1.72294">
        <ele>44.599998474121</ele>
        <time>2023-08-08T09:55:32.000Z</time>
      </trkpt>
      <trkpt lat="50.9326" lon="1.72282">
        <ele>45.400001525879</ele>
        <time>2023-08-08T09:55:39.000Z</time>
      </trkpt>
      <trkpt lat="50.93257" lon="1.72279">
        <ele>45.599998474121</ele>
        <time>2023-08-08T09:55:41.000Z</time>
      </trkpt>
      <trkpt lat="50.9325" lon="1.72272">
        <ele>46.200000762939</ele>
        <time>2023-08-08T09:55:45.000Z</time>
      </trkpt>
      <trkpt lat="50.93242" lon="1.72266">
        <ele>46.799999237061</ele>
        <time>2023-08-08T09:55:49.000Z</time>
      </trkpt>
      <trkpt lat="50.93231" lon="1.72257">
        <ele>47.599998474121</ele>
        <time>2023-08-08T09:55:55.000Z</time>
      </trkpt>
      <trkpt lat="50.93227" lon="1.72253">
        <ele>47.799999237061</ele>
        <time>2023-08-08T09:55:57.000Z</time>
      </trkpt>
      <trkpt lat="50.93214" lon="1.72244">
        <ele>48.599998474121</ele>
        <time>2023-08-08T09:56:04.000Z</time>
      </trkpt>
      <trkpt lat="50.93211" lon="1.72241">
        <ele>48.799999237061</ele>
        <time>2023-08-08T09:56:06.000Z</time>
      </trkpt>
      <trkpt lat="50.93198" lon="1.72231">
        <ele>49.599998474121</ele>
        <time>2023-08-08T09:56:13.000Z</time>
      </trkpt>
      <trkpt lat="50.9319" lon="1.72226">
        <ele>50</ele>
        <time>2023-08-08T09:56:17.000Z</time>
      </trkpt>
      <trkpt lat="50.93177" lon="1.72216">
        <ele>51</ele>
        <time>2023-08-08T09:56:24.000Z</time>
      </trkpt>
      <trkpt lat="50.93174" lon="1.72214">
        <ele>51.200000762939</ele>
        <time>2023-08-08T09:56:25.000Z</time>
      </trkpt>
      <trkpt lat="50.93162" lon="1.72206">
        <ele>52</ele>
        <time>2023-08-08T09:56:31.000Z</time>
      </trkpt>
      <trkpt lat="50.93161" lon="1.72204">
        <ele>52.200000762939</ele>
        <time>2023-08-08T09:56:32.000Z</time>
      </trkpt>
      <trkpt lat="50.93144" lon="1.72194">
        <ele>53</ele>
        <time>2023-08-08T09:56:40.000Z</time>
      </trkpt>
      <trkpt lat="50.93143" lon="1.72193">
        <ele>53.200000762939</ele>
        <time>2023-08-08T09:56:41.000Z</time>
      </trkpt>
      <trkpt lat="50.93131" lon="1.72185">
        <ele>54.200000762939</ele>
        <time>2023-08-08T09:56:47.000Z</time>
      </trkpt>
      <trkpt lat="50.93125" lon="1.72181">
        <ele>55</ele>
        <time>2023-08-08T09:56:50.000Z</time>
      </trkpt>
      <trkpt lat="50.93123" lon="1.7218">
        <ele>55.400001525879</ele>
        <time>2023-08-08T09:56:51.000Z</time>
      </trkpt>
      <trkpt lat="50.93111" lon="1.72173">
        <ele>56.400001525879</ele>
        <time>2023-08-08T09:56:57.000Z</time>
      </trkpt>
      <trkpt lat="50.93104" lon="1.72168">
        <ele>56.799999237061</ele>
        <time>2023-08-08T09:57:01.000Z</time>
      </trkpt>
      <trkpt lat="50.9309" lon="1.7216">
        <ele>57.599998474121</ele>
        <time>2023-08-08T09:57:08.000Z</time>
      </trkpt>
      <trkpt lat="50.93087" lon="1.72158">
        <ele>57.599998474121</ele>
        <time>2023-08-08T09:57:09.000Z</time>
      </trkpt>
      <trkpt lat="50.93078" lon="1.72152">
        <ele>58.599998474121</ele>
        <time>2023-08-08T09:57:14.000Z</time>
      </trkpt>
      <trkpt lat="50.9307" lon="1.72147">
        <ele>59.400001525879</ele>
        <time>2023-08-08T09:57:18.000Z</time>
      </trkpt>
      <trkpt lat="50.93068" lon="1.72146">
        <ele>59.799999237061</ele>
        <time>2023-08-08T09:57:19.000Z</time>
      </trkpt>
      <trkpt lat="50.93057" lon="1.72139">
        <ele>61</ele>
        <time>2023-08-08T09:57:24.000Z</time>
      </trkpt>
      <trkpt lat="50.93054" lon="1.72137">
        <ele>61</ele>
        <time>2023-08-08T09:57:25.000Z</time>
      </trkpt>
      <trkpt lat="50.93042" lon="1.7213">
        <ele>62</ele>
        <time>2023-08-08T09:57:31.000Z</time>
      </trkpt>
      <trkpt lat="50.93037" lon="1.72127">
        <ele>62.400001525879</ele>
        <time>2023-08-08T09:57:34.000Z</time>
      </trkpt>
      <trkpt lat="50.9303" lon="1.72123">
        <ele>63.200000762939</ele>
        <time>2023-08-08T09:57:37.000Z</time>
      </trkpt>
      <trkpt lat="50.93022" lon="1.72119">
        <ele>63.799999237061</ele>
        <time>2023-08-08T09:57:41.000Z</time>
      </trkpt>
      <trkpt lat="50.93019" lon="1.72117">
        <ele>64.199996948242</ele>
        <time>2023-08-08T09:57:43.000Z</time>
      </trkpt>
      <trkpt lat="50.9301" lon="1.7211">
        <ele>65.599998474121</ele>
        <time>2023-08-08T09:57:48.000Z</time>
      </trkpt>
      <trkpt lat="50.93008" lon="1.72109">
        <ele>65.800003051758</ele>
        <time>2023-08-08T09:57:49.000Z</time>
      </trkpt>
      <trkpt lat="50.93002" lon="1.72106">
        <ele>66.800003051758</ele>
        <time>2023-08-08T09:57:52.000Z</time>
      </trkpt>
      <trkpt lat="50.92994" lon="1.72101">
        <ele>67.800003051758</ele>
        <time>2023-08-08T09:57:57.000Z</time>
      </trkpt>
      <trkpt lat="50.92992" lon="1.721">
        <ele>68</ele>
        <time>2023-08-08T09:57:58.000Z</time>
      </trkpt>
      <trkpt lat="50.9298" lon="1.72092">
        <ele>69</ele>
        <time>2023-08-08T09:58:05.000Z</time>
      </trkpt>
      <trkpt lat="50.92975" lon="1.7209">
        <ele>69.400001525879</ele>
        <time>2023-08-08T09:58:07.000Z</time>
      </trkpt>
      <trkpt lat="50.92968" lon="1.72086">
        <ele>70.199996948242</ele>
        <time>2023-08-08T09:58:11.000Z</time>
      </trkpt>
      <trkpt lat="50.92956" lon="1.72078">
        <ele>71.400001525879</ele>
        <time>2023-08-08T09:58:17.000Z</time>
      </trkpt>
      <trkpt lat="50.92955" lon="1.72077">
        <ele>71.400001525879</ele>
        <time>2023-08-08T09:58:18.000Z</time>
      </trkpt>
      <trkpt lat="50.92943" lon="1.7207">
        <ele>72.400001525879</ele>
        <time>2023-08-08T09:58:24.000Z</time>
      </trkpt>
      <trkpt lat="50.92941" lon="1.72068">
        <ele>72.400001525879</ele>
        <time>2023-08-08T09:58:25.000Z</time>
      </trkpt>
      <trkpt lat="50.92933" lon="1.72063">
        <ele>73.400001525879</ele>
        <time>2023-08-08T09:58:29.000Z</time>
      </trkpt>
      <trkpt lat="50.92929" lon="1.72061">
        <ele>73.800003051758</ele>
        <time>2023-08-08T09:58:31.000Z</time>
      </trkpt>
      <trkpt lat="50.92925" lon="1.72059">
        <ele>74.400001525879</ele>
        <time>2023-08-08T09:58:33.000Z</time>
      </trkpt>
      <trkpt lat="50.92912" lon="1.72051">
        <ele>75.599998474121</ele>
        <time>2023-08-08T09:58:39.000Z</time>
      </trkpt>
      <trkpt lat="50.9291" lon="1.7205">
        <ele>75.800003051758</ele>
        <time>2023-08-08T09:58:40.000Z</time>
      </trkpt>
      <trkpt lat="50.92899" lon="1.72042">
        <ele>77</ele>
        <time>2023-08-08T09:58:45.000Z</time>
      </trkpt>
      <trkpt lat="50.92892" lon="1.72039">
        <ele>77.199996948242</ele>
        <time>2023-08-08T09:58:48.000Z</time>
      </trkpt>
      <trkpt lat="50.92876" lon="1.72029">
        <ele>78</ele>
        <time>2023-08-08T09:58:55.000Z</time>
      </trkpt>
      <trkpt lat="50.92855" lon="1.72015">
        <ele>79</ele>
        <time>2023-08-08T09:59:04.000Z</time>
      </trkpt>
      <trkpt lat="50.92849" lon="1.72011">
        <ele>79.199996948242</ele>
        <time>2023-08-08T09:59:07.000Z</time>
      </trkpt>
      <trkpt lat="50.92827" lon="1.71997">
        <ele>80</ele>
        <time>2023-08-08T09:59:16.000Z</time>
      </trkpt>
      <trkpt lat="50.9282" lon="1.71994">
        <ele>80.800003051758</ele>
        <time>2023-08-08T09:59:19.000Z</time>
      </trkpt>
      <trkpt lat="50.92798" lon="1.71982">
        <ele>81.400001525879</ele>
        <time>2023-08-08T09:59:28.000Z</time>
      </trkpt>
      <trkpt lat="50.92779" lon="1.71973">
        <ele>82.400001525879</ele>
        <time>2023-08-08T09:59:36.000Z</time>
      </trkpt>
      <trkpt lat="50.92758" lon="1.71964">
        <ele>83.400001525879</ele>
        <time>2023-08-08T09:59:45.000Z</time>
      </trkpt>
      <trkpt lat="50.92746" lon="1.7196">
        <ele>84.599998474121</ele>
        <time>2023-08-08T09:59:50.000Z</time>
      </trkpt>
      <trkpt lat="50.92736" lon="1.71956">
        <ele>84.800003051758</ele>
        <time>2023-08-08T09:59:54.000Z</time>
      </trkpt>
      <trkpt lat="50.92716" lon="1.71948">
        <ele>85.400001525879</ele>
        <time>2023-08-08T10:00:02.000Z</time>
      </trkpt>
      <trkpt lat="50.92712" lon="1.71947">
        <ele>85.599998474121</ele>
        <time>2023-08-08T10:00:04.000Z</time>
      </trkpt>
      <trkpt lat="50.927" lon="1.71942">
        <ele>86.199996948242</ele>
        <time>2023-08-08T10:00:09.000Z</time>
      </trkpt>
      <trkpt lat="50.92691" lon="1.71939">
        <ele>86.599998474121</ele>
        <time>2023-08-08T10:00:13.000Z</time>
      </trkpt>
      <trkpt lat="50.92677" lon="1.71934">
        <ele>87.199996948242</ele>
        <time>2023-08-08T10:00:19.000Z</time>
      </trkpt>
      <trkpt lat="50.92667" lon="1.7193">
        <ele>87.599998474121</ele>
        <time>2023-08-08T10:00:23.000Z</time>
      </trkpt>
      <trkpt lat="50.92658" lon="1.71927">
        <ele>88</ele>
        <time>2023-08-08T10:00:27.000Z</time>
      </trkpt>
      <trkpt lat="50.92648" lon="1.71922">
        <ele>88.800003051758</ele>
        <time>2023-08-08T10:00:31.000Z</time>
      </trkpt>
      <trkpt lat="50.92636" lon="1.71917">
        <ele>89.199996948242</ele>
        <time>2023-08-08T10:00:36.000Z</time>
      </trkpt>
      <trkpt lat="50.92628" lon="1.71914">
        <ele>89.800003051758</ele>
        <time>2023-08-08T10:00:40.000Z</time>
      </trkpt>
      <trkpt lat="50.92612" lon="1.71908">
        <ele>91</ele>
        <time>2023-08-08T10:00:46.000Z</time>
      </trkpt>
      <trkpt lat="50.92588" lon="1.71898">
        <ele>91.800003051758</ele>
        <time>2023-08-08T10:00:56.000Z</time>
      </trkpt>
      <trkpt lat="50.92573" lon="1.71893">
        <ele>92.199996948242</ele>
        <time>2023-08-08T10:01:02.000Z</time>
      </trkpt>
      <trkpt lat="50.92565" lon="1.71891">
        <ele>92.199996948242</ele>
        <time>2023-08-08T10:01:05.000Z</time>
      </trkpt>
      <trkpt lat="50.92551" lon="1.7189">
        <ele>93.199996948242</ele>
        <time>2023-08-08T10:01:11.000Z</time>
      </trkpt>
      <trkpt lat="50.9254" lon="1.7189">
        <ele>93.599998474121</ele>
        <time>2023-08-08T10:01:15.000Z</time>
      </trkpt>
      <trkpt lat="50.92533" lon="1.7189">
        <ele>94.400001525879</ele>
        <time>2023-08-08T10:01:18.000Z</time>
      </trkpt>
      <trkpt lat="50.92516" lon="1.7189">
        <ele>95</ele>
        <time>2023-08-08T10:01:25.000Z</time>
      </trkpt>
      <trkpt lat="50.92508" lon="1.71891">
        <ele>95.599998474121</ele>
        <time>2023-08-08T10:01:28.000Z</time>
      </trkpt>
      <trkpt lat="50.92493" lon="1.71891">
        <ele>96.199996948242</ele>
        <time>2023-08-08T10:01:34.000Z</time>
      </trkpt>
      <trkpt lat="50.92482" lon="1.71891">
        <ele>96.599998474121</ele>
        <time>2023-08-08T10:01:38.000Z</time>
      </trkpt>
      <trkpt lat="50.9247" lon="1.71891">
        <ele>97.400001525879</ele>
        <time>2023-08-08T10:01:43.000Z</time>
      </trkpt>
      <trkpt lat="50.92467" lon="1.71891">
        <ele>97.800003051758</ele>
        <time>2023-08-08T10:01:44.000Z</time>
      </trkpt>
      <trkpt lat="50.92448" lon="1.71891">
        <ele>98.800003051758</ele>
        <time>2023-08-08T10:01:51.000Z</time>
      </trkpt>
      <trkpt lat="50.92446" lon="1.71891">
        <ele>99</ele>
        <time>2023-08-08T10:01:52.000Z</time>
      </trkpt>
      <trkpt lat="50.92437" lon="1.71891">
        <ele>99.800003051758</ele>
        <time>2023-08-08T10:01:56.000Z</time>
      </trkpt>
      <trkpt lat="50.92422" lon="1.71889">
        <ele>101</ele>
        <time>2023-08-08T10:02:02.000Z</time>
      </trkpt>
      <trkpt lat="50.9242" lon="1.71889">
        <ele>101.40000152588</ele>
        <time>2023-08-08T10:02:03.000Z</time>
      </trkpt>
      <trkpt lat="50.92411" lon="1.71884">
        <ele>102</ele>
        <time>2023-08-08T10:02:07.000Z</time>
      </trkpt>
      <trkpt lat="50.92404" lon="1.7188">
        <ele>103</ele>
        <time>2023-08-08T10:02:10.000Z</time>
      </trkpt>
      <trkpt lat="50.92402" lon="1.71878">
        <ele>103.19999694824</ele>
        <time>2023-08-08T10:02:11.000Z</time>
      </trkpt>
      <trkpt lat="50.92387" lon="1.71864">
        <ele>104.19999694824</ele>
        <time>2023-08-08T10:02:18.000Z</time>
      </trkpt>
      <trkpt lat="50.92385" lon="1.71862">
        <ele>104.40000152588</ele>
        <time>2023-08-08T10:02:19.000Z</time>
      </trkpt>
      <trkpt lat="50.92374" lon="1.71847">
        <ele>105.19999694824</ele>
        <time>2023-08-08T10:02:25.000Z</time>
      </trkpt>
      <trkpt lat="50.92373" lon="1.71844">
        <ele>105.40000152588</ele>
        <time>2023-08-08T10:02:26.000Z</time>
      </trkpt>
      <trkpt lat="50.92363" lon="1.71825">
        <ele>106.80000305176</ele>
        <time>2023-08-08T10:02:32.000Z</time>
      </trkpt>
      <trkpt lat="50.92357" lon="1.71812">
        <ele>107.40000152588</ele>
        <time>2023-08-08T10:02:36.000Z</time>
      </trkpt>
      <trkpt lat="50.92353" lon="1.71802">
        <ele>108</ele>
        <time>2023-08-08T10:02:39.000Z</time>
      </trkpt>
      <trkpt lat="50.92346" lon="1.71791">
        <ele>108.59999847412</ele>
        <time>2023-08-08T10:02:43.000Z</time>
      </trkpt>
      <trkpt lat="50.92345" lon="1.71788">
        <ele>108.59999847412</ele>
        <time>2023-08-08T10:02:44.000Z</time>
      </trkpt>
      <trkpt lat="50.92343" lon="1.71782">
        <ele>109</ele>
        <time>2023-08-08T10:02:46.000Z</time>
      </trkpt>
      <trkpt lat="50.92342" lon="1.71775">
        <ele>109.80000305176</ele>
        <time>2023-08-08T10:02:48.000Z</time>
      </trkpt>
      <trkpt lat="50.9234" lon="1.71772">
        <ele>110.19999694824</ele>
        <time>2023-08-08T10:02:49.000Z</time>
      </trkpt>
      <trkpt lat="50.92334" lon="1.7176">
        <ele>111.19999694824</ele>
        <time>2023-08-08T10:02:53.000Z</time>
      </trkpt>
      <trkpt lat="50.92331" lon="1.71754">
        <ele>111.59999847412</ele>
        <time>2023-08-08T10:02:55.000Z</time>
      </trkpt>
      <trkpt lat="50.92328" lon="1.71744">
        <ele>112.19999694824</ele>
        <time>2023-08-08T10:02:58.000Z</time>
      </trkpt>
      <trkpt lat="50.92325" lon="1.71731">
        <ele>113</ele>
        <time>2023-08-08T10:03:02.000Z</time>
      </trkpt>
      <trkpt lat="50.92324" lon="1.71716">
        <ele>113.40000152588</ele>
        <time>2023-08-08T10:03:06.000Z</time>
      </trkpt>
      <trkpt lat="50.92325" lon="1.71702">
        <ele>113.40000152588</ele>
        <time>2023-08-08T10:03:09.000Z</time>
      </trkpt>
      <trkpt lat="50.92329" lon="1.71669">
        <ele>113.19999694824</ele>
        <time>2023-08-08T10:03:14.000Z</time>
      </trkpt>
      <trkpt lat="50.92333" lon="1.71634">
        <ele>111.40000152588</ele>
        <time>2023-08-08T10:03:18.000Z</time>
      </trkpt>
      <trkpt lat="50.92334" lon="1.71625">
        <ele>111.19999694824</ele>
        <time>2023-08-08T10:03:19.000Z</time>
      </trkpt>
      <trkpt lat="50.92335" lon="1.71617">
        <ele>110.40000152588</ele>
        <time>2023-08-08T10:03:20.000Z</time>
      </trkpt>
      <trkpt lat="50.92335" lon="1.71609">
        <ele>110.19999694824</ele>
        <time>2023-08-08T10:03:21.000Z</time>
      </trkpt>
      <trkpt lat="50.92334" lon="1.71594">
        <ele>109.19999694824</ele>
        <time>2023-08-08T10:03:23.000Z</time>
      </trkpt>
      <trkpt lat="50.92333" lon="1.71587">
        <ele>108.80000305176</ele>
        <time>2023-08-08T10:03:24.000Z</time>
      </trkpt>
      <trkpt lat="50.9233" lon="1.71576">
        <ele>107.80000305176</ele>
        <time>2023-08-08T10:03:26.000Z</time>
      </trkpt>
      <trkpt lat="50.92324" lon="1.71565">
        <ele>107</ele>
        <time>2023-08-08T10:03:28.000Z</time>
      </trkpt>
      <trkpt lat="50.9232" lon="1.7156">
        <ele>106.40000152588</ele>
        <time>2023-08-08T10:03:29.000Z</time>
      </trkpt>
      <trkpt lat="50.92317" lon="1.71557">
        <ele>106.19999694824</ele>
        <time>2023-08-08T10:03:30.000Z</time>
      </trkpt>
      <trkpt lat="50.92308" lon="1.71552">
        <ele>105.19999694824</ele>
        <time>2023-08-08T10:03:32.000Z</time>
      </trkpt>
      <trkpt lat="50.92295" lon="1.71552">
        <ele>104</ele>
        <time>2023-08-08T10:03:35.000Z</time>
      </trkpt>
      <trkpt lat="50.92286" lon="1.71555">
        <ele>102.59999847412</ele>
        <time>2023-08-08T10:03:37.000Z</time>
      </trkpt>
      <trkpt lat="50.9227" lon="1.71562">
        <ele>101.40000152588</ele>
        <time>2023-08-08T10:03:40.000Z</time>
      </trkpt>
      <trkpt lat="50.92263" lon="1.71564">
        <ele>100.59999847412</ele>
        <time>2023-08-08T10:03:41.000Z</time>
      </trkpt>
      <trkpt lat="50.92257" lon="1.71567">
        <ele>100.19999694824</ele>
        <time>2023-08-08T10:03:42.000Z</time>
      </trkpt>
      <trkpt lat="50.92227" lon="1.71573">
        <ele>99</ele>
        <time>2023-08-08T10:03:46.000Z</time>
      </trkpt>
      <trkpt lat="50.92213" lon="1.71571">
        <ele>97</ele>
        <time>2023-08-08T10:03:48.000Z</time>
      </trkpt>
      <trkpt lat="50.92206" lon="1.71569">
        <ele>96.400001525879</ele>
        <time>2023-08-08T10:03:49.000Z</time>
      </trkpt>
      <trkpt lat="50.922" lon="1.71566">
        <ele>95.800003051758</ele>
        <time>2023-08-08T10:03:50.000Z</time>
      </trkpt>
      <trkpt lat="50.92192" lon="1.71563">
        <ele>94.800003051758</ele>
        <time>2023-08-08T10:03:51.000Z</time>
      </trkpt>
      <trkpt lat="50.92178" lon="1.71555">
        <ele>93.199996948242</ele>
        <time>2023-08-08T10:03:53.000Z</time>
      </trkpt>
      <trkpt lat="50.92163" lon="1.71546">
        <ele>91.800003051758</ele>
        <time>2023-08-08T10:03:55.000Z</time>
      </trkpt>
      <trkpt lat="50.92148" lon="1.71536">
        <ele>90.800003051758</ele>
        <time>2023-08-08T10:03:57.000Z</time>
      </trkpt>
      <trkpt lat="50.92133" lon="1.71527">
        <ele>89.400001525879</ele>
        <time>2023-08-08T10:03:59.000Z</time>
      </trkpt>
      <trkpt lat="50.92119" lon="1.71519">
        <ele>88</ele>
        <time>2023-08-08T10:04:01.000Z</time>
      </trkpt>
      <trkpt lat="50.92103" lon="1.7151">
        <ele>85.800003051758</ele>
        <time>2023-08-08T10:04:03.000Z</time>
      </trkpt>
      <trkpt lat="50.92095" lon="1.71505">
        <ele>85.400001525879</ele>
        <time>2023-08-08T10:04:04.000Z</time>
      </trkpt>
      <trkpt lat="50.92087" lon="1.715">
        <ele>84.400001525879</ele>
        <time>2023-08-08T10:04:05.000Z</time>
      </trkpt>
      <trkpt lat="50.92071" lon="1.71493">
        <ele>83.400001525879</ele>
        <time>2023-08-08T10:04:07.000Z</time>
      </trkpt>
      <trkpt lat="50.92063" lon="1.71493">
        <ele>82.400001525879</ele>
        <time>2023-08-08T10:04:08.000Z</time>
      </trkpt>
      <trkpt lat="50.92054" lon="1.71494">
        <ele>82</ele>
        <time>2023-08-08T10:04:09.000Z</time>
      </trkpt>
      <trkpt lat="50.92046" lon="1.71497">
        <ele>81</ele>
        <time>2023-08-08T10:04:10.000Z</time>
      </trkpt>
      <trkpt lat="50.92038" lon="1.71504">
        <ele>80.400001525879</ele>
        <time>2023-08-08T10:04:11.000Z</time>
      </trkpt>
      <trkpt lat="50.92032" lon="1.71513">
        <ele>79.599998474121</ele>
        <time>2023-08-08T10:04:12.000Z</time>
      </trkpt>
      <trkpt lat="50.92026" lon="1.71524">
        <ele>79.199996948242</ele>
        <time>2023-08-08T10:04:13.000Z</time>
      </trkpt>
      <trkpt lat="50.92021" lon="1.71536">
        <ele>78.199996948242</ele>
        <time>2023-08-08T10:04:14.000Z</time>
      </trkpt>
      <trkpt lat="50.92013" lon="1.71565">
        <ele>76.400001525879</ele>
        <time>2023-08-08T10:04:16.000Z</time>
      </trkpt>
      <trkpt lat="50.92005" lon="1.71592">
        <ele>74.800003051758</ele>
        <time>2023-08-08T10:04:18.000Z</time>
      </trkpt>
      <trkpt lat="50.92001" lon="1.71604">
        <ele>73.599998474121</ele>
        <time>2023-08-08T10:04:19.000Z</time>
      </trkpt>
      <trkpt lat="50.91989" lon="1.71622">
        <ele>72</ele>
        <time>2023-08-08T10:04:21.000Z</time>
      </trkpt>
      <trkpt lat="50.91981" lon="1.71627">
        <ele>70.800003051758</ele>
        <time>2023-08-08T10:04:22.000Z</time>
      </trkpt>
      <trkpt lat="50.91972" lon="1.71629">
        <ele>70.400001525879</ele>
        <time>2023-08-08T10:04:23.000Z</time>
      </trkpt>
      <trkpt lat="50.91964" lon="1.71626">
        <ele>69.400001525879</ele>
        <time>2023-08-08T10:04:24.000Z</time>
      </trkpt>
      <trkpt lat="50.91956" lon="1.7162">
        <ele>68.800003051758</ele>
        <time>2023-08-08T10:04:25.000Z</time>
      </trkpt>
      <trkpt lat="50.91949" lon="1.71611">
        <ele>67.400001525879</ele>
        <time>2023-08-08T10:04:26.000Z</time>
      </trkpt>
      <trkpt lat="50.91944" lon="1.71601">
        <ele>66.400001525879</ele>
        <time>2023-08-08T10:04:27.000Z</time>
      </trkpt>
      <trkpt lat="50.91941" lon="1.71572">
        <ele>65</ele>
        <time>2023-08-08T10:04:29.000Z</time>
      </trkpt>
      <trkpt lat="50.91944" lon="1.7154">
        <ele>63.599998474121</ele>
        <time>2023-08-08T10:04:31.000Z</time>
      </trkpt>
      <trkpt lat="50.91945" lon="1.71525">
        <ele>62.200000762939</ele>
        <time>2023-08-08T10:04:32.000Z</time>
      </trkpt>
      <trkpt lat="50.91948" lon="1.71496">
        <ele>60.599998474121</ele>
        <time>2023-08-08T10:04:34.000Z</time>
      </trkpt>
      <trkpt lat="50.91951" lon="1.71468">
        <ele>59</ele>
        <time>2023-08-08T10:04:36.000Z</time>
      </trkpt>
      <trkpt lat="50.91953" lon="1.71443">
        <ele>57.200000762939</ele>
        <time>2023-08-08T10:04:38.000Z</time>
      </trkpt>
      <trkpt lat="50.91954" lon="1.71431">
        <ele>56</ele>
        <time>2023-08-08T10:04:39.000Z</time>
      </trkpt>
      <trkpt lat="50.91955" lon="1.7142">
        <ele>55.599998474121</ele>
        <time>2023-08-08T10:04:40.000Z</time>
      </trkpt>
      <trkpt lat="50.91953" lon="1.71409">
        <ele>54.200000762939</ele>
        <time>2023-08-08T10:04:41.000Z</time>
      </trkpt>
      <trkpt lat="50.91947" lon="1.71388">
        <ele>52.799999237061</ele>
        <time>2023-08-08T10:04:43.000Z</time>
      </trkpt>
      <trkpt lat="50.91936" lon="1.71373">
        <ele>51</ele>
        <time>2023-08-08T10:04:45.000Z</time>
      </trkpt>
      <trkpt lat="50.9193" lon="1.71368">
        <ele>50.200000762939</ele>
        <time>2023-08-08T10:04:46.000Z</time>
      </trkpt>
      <trkpt lat="50.91923" lon="1.71366">
        <ele>50</ele>
        <time>2023-08-08T10:04:47.000Z</time>
      </trkpt>
      <trkpt lat="50.91909" lon="1.71366">
        <ele>49.200000762939</ele>
        <time>2023-08-08T10:04:49.000Z</time>
      </trkpt>
      <trkpt lat="50.91901" lon="1.71369">
        <ele>48.200000762939</ele>
        <time>2023-08-08T10:04:50.000Z</time>
      </trkpt>
      <trkpt lat="50.91886" lon="1.71375">
        <ele>47</ele>
        <time>2023-08-08T10:04:52.000Z</time>
      </trkpt>
      <trkpt lat="50.91879" lon="1.71377">
        <ele>45.599998474121</ele>
        <time>2023-08-08T10:04:53.000Z</time>
      </trkpt>
      <trkpt lat="50.91872" lon="1.71377">
        <ele>45</ele>
        <time>2023-08-08T10:04:54.000Z</time>
      </trkpt>
      <trkpt lat="50.91865" lon="1.71375">
        <ele>43.799999237061</ele>
        <time>2023-08-08T10:04:55.000Z</time>
      </trkpt>
      <trkpt lat="50.91851" lon="1.71367">
        <ele>42</ele>
        <time>2023-08-08T10:04:57.000Z</time>
      </trkpt>
      <trkpt lat="50.91845" lon="1.71363">
        <ele>40.799999237061</ele>
        <time>2023-08-08T10:04:58.000Z</time>
      </trkpt>
      <trkpt lat="50.91832" lon="1.71355">
        <ele>39.400001525879</ele>
        <time>2023-08-08T10:05:00.000Z</time>
      </trkpt>
      <trkpt lat="50.91819" lon="1.71346">
        <ele>37.599998474121</ele>
        <time>2023-08-08T10:05:02.000Z</time>
      </trkpt>
      <trkpt lat="50.91807" lon="1.71338">
        <ele>36.400001525879</ele>
        <time>2023-08-08T10:05:04.000Z</time>
      </trkpt>
      <trkpt lat="50.91802" lon="1.71334">
        <ele>35.400001525879</ele>
        <time>2023-08-08T10:05:05.000Z</time>
      </trkpt>
      <trkpt lat="50.91796" lon="1.71331">
        <ele>35</ele>
        <time>2023-08-08T10:05:06.000Z</time>
      </trkpt>
      <trkpt lat="50.91783" lon="1.71322">
        <ele>34</ele>
        <time>2023-08-08T10:05:09.000Z</time>
      </trkpt>
      <trkpt lat="50.91781" lon="1.71319">
        <ele>33.799999237061</ele>
        <time>2023-08-08T10:05:10.000Z</time>
      </trkpt>
      <trkpt lat="50.9178" lon="1.71313">
        <ele>33.799999237061</ele>
        <time>2023-08-08T10:05:11.000Z</time>
      </trkpt>
      <trkpt lat="50.91781" lon="1.71303">
        <ele>33.400001525879</ele>
        <time>2023-08-08T10:05:13.000Z</time>
      </trkpt>
      <trkpt lat="50.91786" lon="1.71295">
        <ele>32.599998474121</ele>
        <time>2023-08-08T10:05:16.000Z</time>
      </trkpt>
      <trkpt lat="50.91786" lon="1.71294">
        <ele>32.400001525879</ele>
        <time>2023-08-08T10:05:17.000Z</time>
      </trkpt>
      <trkpt lat="50.91786" lon="1.71294">
        <ele>32.200000762939</ele>
        <time>2023-08-08T10:05:18.000Z</time>
      </trkpt>
      <trkpt lat="50.91789" lon="1.71288">
        <ele>31.799999237061</ele>
        <time>2023-08-08T10:05:42.000Z</time>
      </trkpt>
      <trkpt lat="50.91792" lon="1.7128">
        <ele>31.799999237061</ele>
        <time>2023-08-08T10:05:44.000Z</time>
      </trkpt>
      <trkpt lat="50.91802" lon="1.71253">
        <ele>31.39999961853</ele>
        <time>2023-08-08T10:05:49.000Z</time>
      </trkpt>
      <trkpt lat="50.91804" lon="1.71247">
        <ele>31.39999961853</ele>
        <time>2023-08-08T10:05:50.000Z</time>
      </trkpt>
      <trkpt lat="50.91806" lon="1.71242">
        <ele>31.200000762939</ele>
        <time>2023-08-08T10:05:51.000Z</time>
      </trkpt>
      <trkpt lat="50.91812" lon="1.71223">
        <ele>31</ele>
        <time>2023-08-08T10:05:54.000Z</time>
      </trkpt>
      <trkpt lat="50.91813" lon="1.71216">
        <ele>30.799999237061</ele>
        <time>2023-08-08T10:05:55.000Z</time>
      </trkpt>
      <trkpt lat="50.91823" lon="1.71152">
        <ele>30.60000038147</ele>
        <time>2023-08-08T10:06:04.000Z</time>
      </trkpt>
      <trkpt lat="50.91826" lon="1.71139">
        <ele>30.60000038147</ele>
        <time>2023-08-08T10:06:06.000Z</time>
      </trkpt>
      <trkpt lat="50.91833" lon="1.71113">
        <ele>30.60000038147</ele>
        <time>2023-08-08T10:06:10.000Z</time>
      </trkpt>
      <trkpt lat="50.91834" lon="1.71107">
        <ele>30.60000038147</ele>
        <time>2023-08-08T10:06:11.000Z</time>
      </trkpt>
      <trkpt lat="50.91834" lon="1.711">
        <ele>30.60000038147</ele>
        <time>2023-08-08T10:06:12.000Z</time>
      </trkpt>
      <trkpt lat="50.91832" lon="1.71087">
        <ele>30.799999237061</ele>
        <time>2023-08-08T10:06:14.000Z</time>
      </trkpt>
      <trkpt lat="50.9183" lon="1.71081">
        <ele>30.799999237061</ele>
        <time>2023-08-08T10:06:15.000Z</time>
      </trkpt>
      <trkpt lat="50.91829" lon="1.71076">
        <ele>30.799999237061</ele>
        <time>2023-08-08T10:06:16.000Z</time>
      </trkpt>
      <trkpt lat="50.91822" lon="1.71061">
        <ele>30.60000038147</ele>
        <time>2023-08-08T10:06:19.000Z</time>
      </trkpt>
      <trkpt lat="50.91821" lon="1.71055">
        <ele>30.60000038147</ele>
        <time>2023-08-08T10:06:20.000Z</time>
      </trkpt>
      <trkpt lat="50.91812" lon="1.7101">
        <ele>31.200000762939</ele>
        <time>2023-08-08T10:06:28.000Z</time>
      </trkpt>
      <trkpt lat="50.91802" lon="1.70956">
        <ele>31.60000038147</ele>
        <time>2023-08-08T10:06:37.000Z</time>
      </trkpt>
      <trkpt lat="50.91787" lon="1.70901">
        <ele>32</ele>
        <time>2023-08-08T10:06:47.000Z</time>
      </trkpt>
      <trkpt lat="50.91775" lon="1.70869">
        <ele>32.200000762939</ele>
        <time>2023-08-08T10:06:54.000Z</time>
      </trkpt>
      <trkpt lat="50.91774" lon="1.70865">
        <ele>32.400001525879</ele>
        <time>2023-08-08T10:06:55.000Z</time>
      </trkpt>
      <trkpt lat="50.91762" lon="1.70836">
        <ele>33</ele>
        <time>2023-08-08T10:07:03.000Z</time>
      </trkpt>
      <trkpt lat="50.91759" lon="1.70829">
        <ele>33.200000762939</ele>
        <time>2023-08-08T10:07:05.000Z</time>
      </trkpt>
      <trkpt lat="50.91747" lon="1.70802">
        <ele>34.200000762939</ele>
        <time>2023-08-08T10:07:13.000Z</time>
      </trkpt>
      <trkpt lat="50.91745" lon="1.70798">
        <ele>34.400001525879</ele>
        <time>2023-08-08T10:07:14.000Z</time>
      </trkpt>
      <trkpt lat="50.91737" lon="1.70779">
        <ele>35.599998474121</ele>
        <time>2023-08-08T10:07:20.000Z</time>
      </trkpt>
      <trkpt lat="50.91732" lon="1.7077">
        <ele>36.400001525879</ele>
        <time>2023-08-08T10:07:23.000Z</time>
      </trkpt>
      <trkpt lat="50.9173" lon="1.70764">
        <ele>36.799999237061</ele>
        <time>2023-08-08T10:07:25.000Z</time>
      </trkpt>
      <trkpt lat="50.91723" lon="1.70749">
        <ele>38</ele>
        <time>2023-08-08T10:07:30.000Z</time>
      </trkpt>
      <trkpt lat="50.91722" lon="1.70746">
        <ele>38.200000762939</ele>
        <time>2023-08-08T10:07:31.000Z</time>
      </trkpt>
      <trkpt lat="50.91716" lon="1.70735">
        <ele>39.200000762939</ele>
        <time>2023-08-08T10:07:35.000Z</time>
      </trkpt>
      <trkpt lat="50.91711" lon="1.70724">
        <ele>39.799999237061</ele>
        <time>2023-08-08T10:07:39.000Z</time>
      </trkpt>
      <trkpt lat="50.91707" lon="1.70714">
        <ele>40.400001525879</ele>
        <time>2023-08-08T10:07:42.000Z</time>
      </trkpt>
      <trkpt lat="50.91702" lon="1.70703">
        <ele>41.400001525879</ele>
        <time>2023-08-08T10:07:46.000Z</time>
      </trkpt>
      <trkpt lat="50.91695" lon="1.70688">
        <ele>42.599998474121</ele>
        <time>2023-08-08T10:07:52.000Z</time>
      </trkpt>
      <trkpt lat="50.91691" lon="1.7068">
        <ele>43</ele>
        <time>2023-08-08T10:07:55.000Z</time>
      </trkpt>
      <trkpt lat="50.91687" lon="1.70672">
        <ele>43.799999237061</ele>
        <time>2023-08-08T10:07:58.000Z</time>
      </trkpt>
      <trkpt lat="50.91678" lon="1.70653">
        <ele>44.599998474121</ele>
        <time>2023-08-08T10:08:05.000Z</time>
      </trkpt>
      <trkpt lat="50.91675" lon="1.70647">
        <ele>44.799999237061</ele>
        <time>2023-08-08T10:08:07.000Z</time>
      </trkpt>
      <trkpt lat="50.91665" lon="1.7063">
        <ele>45.799999237061</ele>
        <time>2023-08-08T10:08:13.000Z</time>
      </trkpt>
      <trkpt lat="50.91647" lon="1.70602">
        <ele>46.799999237061</ele>
        <time>2023-08-08T10:08:23.000Z</time>
      </trkpt>
      <trkpt lat="50.91645" lon="1.70599">
        <ele>46.799999237061</ele>
        <time>2023-08-08T10:08:24.000Z</time>
      </trkpt>
      <trkpt lat="50.9162" lon="1.70567">
        <ele>47.599998474121</ele>
        <time>2023-08-08T10:08:34.000Z</time>
      </trkpt>
      <trkpt lat="50.9159" lon="1.70534">
        <ele>47.799999237061</ele>
        <time>2023-08-08T10:08:45.000Z</time>
      </trkpt>
      <trkpt lat="50.91562" lon="1.7051">
        <ele>47.599998474121</ele>
        <time>2023-08-08T10:08:54.000Z</time>
      </trkpt>
      <trkpt lat="50.91558" lon="1.70507">
        <ele>47.599998474121</ele>
        <time>2023-08-08T10:08:55.000Z</time>
      </trkpt>
      <trkpt lat="50.91528" lon="1.70481">
        <ele>47.599998474121</ele>
        <time>2023-08-08T10:09:05.000Z</time>
      </trkpt>
      <trkpt lat="50.91513" lon="1.70469">
        <ele>48</ele>
        <time>2023-08-08T10:09:11.000Z</time>
      </trkpt>
      <trkpt lat="50.915" lon="1.70458">
        <ele>48.400001525879</ele>
        <time>2023-08-08T10:09:17.000Z</time>
      </trkpt>
      <trkpt lat="50.91488" lon="1.70448">
        <ele>49</ele>
        <time>2023-08-08T10:09:23.000Z</time>
      </trkpt>
      <trkpt lat="50.91486" lon="1.70446">
        <ele>49.400001525879</ele>
        <time>2023-08-08T10:09:24.000Z</time>
      </trkpt>
      <trkpt lat="50.91477" lon="1.70437">
        <ele>50</ele>
        <time>2023-08-08T10:09:29.000Z</time>
      </trkpt>
      <trkpt lat="50.91473" lon="1.70433">
        <ele>50.400001525879</ele>
        <time>2023-08-08T10:09:31.000Z</time>
      </trkpt>
      <trkpt lat="50.91465" lon="1.70425">
        <ele>51.200000762939</ele>
        <time>2023-08-08T10:09:35.000Z</time>
      </trkpt>
      <trkpt lat="50.91458" lon="1.70416">
        <ele>52</ele>
        <time>2023-08-08T10:09:39.000Z</time>
      </trkpt>
      <trkpt lat="50.91456" lon="1.70414">
        <ele>52.200000762939</ele>
        <time>2023-08-08T10:09:40.000Z</time>
      </trkpt>
      <trkpt lat="50.91446" lon="1.70402">
        <ele>53.200000762939</ele>
        <time>2023-08-08T10:09:46.000Z</time>
      </trkpt>
      <trkpt lat="50.91445" lon="1.704">
        <ele>53.400001525879</ele>
        <time>2023-08-08T10:09:47.000Z</time>
      </trkpt>
      <trkpt lat="50.91438" lon="1.70392">
        <ele>54.400001525879</ele>
        <time>2023-08-08T10:09:51.000Z</time>
      </trkpt>
      <trkpt lat="50.91431" lon="1.70384">
        <ele>54.799999237061</ele>
        <time>2023-08-08T10:09:55.000Z</time>
      </trkpt>
      <trkpt lat="50.91427" lon="1.70378">
        <ele>55.599998474121</ele>
        <time>2023-08-08T10:09:58.000Z</time>
      </trkpt>
      <trkpt lat="50.91424" lon="1.70373">
        <ele>55.799999237061</ele>
        <time>2023-08-08T10:10:00.000Z</time>
      </trkpt>
      <trkpt lat="50.91418" lon="1.70366">
        <ele>56.599998474121</ele>
        <time>2023-08-08T10:10:04.000Z</time>
      </trkpt>
      <trkpt lat="50.9141" lon="1.70356">
        <ele>57.799999237061</ele>
        <time>2023-08-08T10:10:09.000Z</time>
      </trkpt>
      <trkpt lat="50.91401" lon="1.70345">
        <ele>59</ele>
        <time>2023-08-08T10:10:15.000Z</time>
      </trkpt>
      <trkpt lat="50.91391" lon="1.70333">
        <ele>60</ele>
        <time>2023-08-08T10:10:21.000Z</time>
      </trkpt>
      <trkpt lat="50.9139" lon="1.70331">
        <ele>60.400001525879</ele>
        <time>2023-08-08T10:10:22.000Z</time>
      </trkpt>
      <trkpt lat="50.91382" lon="1.7032">
        <ele>61.200000762939</ele>
        <time>2023-08-08T10:10:27.000Z</time>
      </trkpt>
      <trkpt lat="50.91377" lon="1.70312">
        <ele>62</ele>
        <time>2023-08-08T10:10:30.000Z</time>
      </trkpt>
      <trkpt lat="50.91373" lon="1.70307">
        <ele>62.599998474121</ele>
        <time>2023-08-08T10:10:33.000Z</time>
      </trkpt>
      <trkpt lat="50.9136" lon="1.70291">
        <ele>63.799999237061</ele>
        <time>2023-08-08T10:10:41.000Z</time>
      </trkpt>
      <trkpt lat="50.91359" lon="1.70289">
        <ele>63.799999237061</ele>
        <time>2023-08-08T10:10:42.000Z</time>
      </trkpt>
      <trkpt lat="50.91351" lon="1.70279">
        <ele>64.800003051758</ele>
        <time>2023-08-08T10:10:47.000Z</time>
      </trkpt>
      <trkpt lat="50.91338" lon="1.70264">
        <ele>65.400001525879</ele>
        <time>2023-08-08T10:10:54.000Z</time>
      </trkpt>
      <trkpt lat="50.91332" lon="1.70254">
        <ele>65.800003051758</ele>
        <time>2023-08-08T10:10:58.000Z</time>
      </trkpt>
      <trkpt lat="50.91322" lon="1.70242">
        <ele>66.400001525879</ele>
        <time>2023-08-08T10:11:03.000Z</time>
      </trkpt>
      <trkpt lat="50.91316" lon="1.70235">
        <ele>66.800003051758</ele>
        <time>2023-08-08T10:11:06.000Z</time>
      </trkpt>
      <trkpt lat="50.91307" lon="1.70222">
        <ele>67.400001525879</ele>
        <time>2023-08-08T10:11:11.000Z</time>
      </trkpt>
      <trkpt lat="50.91297" lon="1.7021">
        <ele>67.800003051758</ele>
        <time>2023-08-08T10:11:16.000Z</time>
      </trkpt>
      <trkpt lat="50.91286" lon="1.70195">
        <ele>68.199996948242</ele>
        <time>2023-08-08T10:11:22.000Z</time>
      </trkpt>
      <trkpt lat="50.9128" lon="1.70188">
        <ele>68.800003051758</ele>
        <time>2023-08-08T10:11:25.000Z</time>
      </trkpt>
      <trkpt lat="50.91266" lon="1.7017">
        <ele>69.800003051758</ele>
        <time>2023-08-08T10:11:33.000Z</time>
      </trkpt>
      <trkpt lat="50.91263" lon="1.70166">
        <ele>70</ele>
        <time>2023-08-08T10:11:35.000Z</time>
      </trkpt>
      <trkpt lat="50.91252" lon="1.70153">
        <ele>71</ele>
        <time>2023-08-08T10:11:41.000Z</time>
      </trkpt>
      <trkpt lat="50.9125" lon="1.7015">
        <ele>71.400001525879</ele>
        <time>2023-08-08T10:11:42.000Z</time>
      </trkpt>
      <trkpt lat="50.91243" lon="1.70141">
        <ele>72.199996948242</ele>
        <time>2023-08-08T10:11:46.000Z</time>
      </trkpt>
      <trkpt lat="50.91235" lon="1.7013">
        <ele>72.800003051758</ele>
        <time>2023-08-08T10:11:51.000Z</time>
      </trkpt>
      <trkpt lat="50.91229" lon="1.70124">
        <ele>73.400001525879</ele>
        <time>2023-08-08T10:11:54.000Z</time>
      </trkpt>
      <trkpt lat="50.91219" lon="1.70112">
        <ele>74.199996948242</ele>
        <time>2023-08-08T10:12:00.000Z</time>
      </trkpt>
      <trkpt lat="50.91217" lon="1.7011">
        <ele>74.400001525879</ele>
        <time>2023-08-08T10:12:01.000Z</time>
      </trkpt>
      <trkpt lat="50.91201" lon="1.70096">
        <ele>75.599998474121</ele>
        <time>2023-08-08T10:12:10.000Z</time>
      </trkpt>
      <trkpt lat="50.91189" lon="1.70086">
        <ele>76.599998474121</ele>
        <time>2023-08-08T10:12:17.000Z</time>
      </trkpt>
      <trkpt lat="50.91187" lon="1.70085">
        <ele>76.800003051758</ele>
        <time>2023-08-08T10:12:18.000Z</time>
      </trkpt>
      <trkpt lat="50.9118" lon="1.70079">
        <ele>77.800003051758</ele>
        <time>2023-08-08T10:12:22.000Z</time>
      </trkpt>
      <trkpt lat="50.91169" lon="1.70071">
        <ele>78.400001525879</ele>
        <time>2023-08-08T10:12:28.000Z</time>
      </trkpt>
      <trkpt lat="50.91162" lon="1.70066">
        <ele>79</ele>
        <time>2023-08-08T10:12:32.000Z</time>
      </trkpt>
      <trkpt lat="50.91148" lon="1.70055">
        <ele>80</ele>
        <time>2023-08-08T10:12:39.000Z</time>
      </trkpt>
      <trkpt lat="50.91128" lon="1.7004">
        <ele>80.599998474121</ele>
        <time>2023-08-08T10:12:48.000Z</time>
      </trkpt>
      <trkpt lat="50.91111" lon="1.70027">
        <ele>80.800003051758</ele>
        <time>2023-08-08T10:12:55.000Z</time>
      </trkpt>
      <trkpt lat="50.91105" lon="1.70021">
        <ele>81.199996948242</ele>
        <time>2023-08-08T10:12:58.000Z</time>
      </trkpt>
      <trkpt lat="50.91082" lon="1.70002">
        <ele>81.400001525879</ele>
        <time>2023-08-08T10:13:07.000Z</time>
      </trkpt>
      <trkpt lat="50.91065" lon="1.69986">
        <ele>81.599998474121</ele>
        <time>2023-08-08T10:13:13.000Z</time>
      </trkpt>
      <trkpt lat="50.9104" lon="1.6996">
        <ele>81.400001525879</ele>
        <time>2023-08-08T10:13:20.000Z</time>
      </trkpt>
      <trkpt lat="50.91012" lon="1.69934">
        <ele>80</ele>
        <time>2023-08-08T10:13:26.000Z</time>
      </trkpt>
      <trkpt lat="50.90995" lon="1.69917">
        <ele>78.800003051758</ele>
        <time>2023-08-08T10:13:29.000Z</time>
      </trkpt>
      <trkpt lat="50.9098" lon="1.69902">
        <ele>77.800003051758</ele>
        <time>2023-08-08T10:13:32.000Z</time>
      </trkpt>
      <trkpt lat="50.90969" lon="1.69892">
        <ele>77.400001525879</ele>
        <time>2023-08-08T10:13:34.000Z</time>
      </trkpt>
      <trkpt lat="50.90957" lon="1.6988">
        <ele>76.599998474121</ele>
        <time>2023-08-08T10:13:36.000Z</time>
      </trkpt>
      <trkpt lat="50.90941" lon="1.69862">
        <ele>75.400001525879</ele>
        <time>2023-08-08T10:13:39.000Z</time>
      </trkpt>
      <trkpt lat="50.9093" lon="1.69848">
        <ele>74.800003051758</ele>
        <time>2023-08-08T10:13:41.000Z</time>
      </trkpt>
      <trkpt lat="50.90915" lon="1.69826">
        <ele>74.199996948242</ele>
        <time>2023-08-08T10:13:44.000Z</time>
      </trkpt>
      <trkpt lat="50.90897" lon="1.69793">
        <ele>73.199996948242</ele>
        <time>2023-08-08T10:13:48.000Z</time>
      </trkpt>
      <trkpt lat="50.90882" lon="1.69757">
        <ele>72</ele>
        <time>2023-08-08T10:13:52.000Z</time>
      </trkpt>
      <trkpt lat="50.90874" lon="1.69737">
        <ele>71.199996948242</ele>
        <time>2023-08-08T10:13:54.000Z</time>
      </trkpt>
      <trkpt lat="50.90869" lon="1.69725">
        <ele>71</ele>
        <time>2023-08-08T10:13:55.000Z</time>
      </trkpt>
      <trkpt lat="50.90859" lon="1.69698">
        <ele>69.199996948242</ele>
        <time>2023-08-08T10:13:58.000Z</time>
      </trkpt>
      <trkpt lat="50.90847" lon="1.69667">
        <ele>68</ele>
        <time>2023-08-08T10:14:01.000Z</time>
      </trkpt>
      <trkpt lat="50.90843" lon="1.69657">
        <ele>67.599998474121</ele>
        <time>2023-08-08T10:14:02.000Z</time>
      </trkpt>
      <trkpt lat="50.90835" lon="1.69636">
        <ele>67</ele>
        <time>2023-08-08T10:14:04.000Z</time>
      </trkpt>
      <trkpt lat="50.90824" lon="1.69605">
        <ele>65.400001525879</ele>
        <time>2023-08-08T10:14:07.000Z</time>
      </trkpt>
      <trkpt lat="50.90812" lon="1.69575">
        <ele>64</ele>
        <time>2023-08-08T10:14:10.000Z</time>
      </trkpt>
      <trkpt lat="50.90806" lon="1.69559">
        <ele>63.200000762939</ele>
        <time>2023-08-08T10:14:12.000Z</time>
      </trkpt>
      <trkpt lat="50.90803" lon="1.69551">
        <ele>62.799999237061</ele>
        <time>2023-08-08T10:14:13.000Z</time>
      </trkpt>
      <trkpt lat="50.90792" lon="1.69524">
        <ele>61.400001525879</ele>
        <time>2023-08-08T10:14:16.000Z</time>
      </trkpt>
      <trkpt lat="50.90781" lon="1.69495">
        <ele>60.200000762939</ele>
        <time>2023-08-08T10:14:19.000Z</time>
      </trkpt>
      <trkpt lat="50.9077" lon="1.6947">
        <ele>59.400001525879</ele>
        <time>2023-08-08T10:14:22.000Z</time>
      </trkpt>
      <trkpt lat="50.90766" lon="1.69461">
        <ele>58.799999237061</ele>
        <time>2023-08-08T10:14:23.000Z</time>
      </trkpt>
      <trkpt lat="50.90753" lon="1.69433">
        <ele>57</ele>
        <time>2023-08-08T10:14:26.000Z</time>
      </trkpt>
      <trkpt lat="50.90741" lon="1.69412">
        <ele>55.799999237061</ele>
        <time>2023-08-08T10:14:28.000Z</time>
      </trkpt>
      <trkpt lat="50.90726" lon="1.69383">
        <ele>54.200000762939</ele>
        <time>2023-08-08T10:14:31.000Z</time>
      </trkpt>
      <trkpt lat="50.90708" lon="1.69349">
        <ele>52.799999237061</ele>
        <time>2023-08-08T10:14:34.000Z</time>
      </trkpt>
      <trkpt lat="50.90703" lon="1.6934">
        <ele>52</ele>
        <time>2023-08-08T10:14:35.000Z</time>
      </trkpt>
      <trkpt lat="50.90698" lon="1.69329">
        <ele>51.200000762939</ele>
        <time>2023-08-08T10:14:36.000Z</time>
      </trkpt>
      <trkpt lat="50.90685" lon="1.69305">
        <ele>50.200000762939</ele>
        <time>2023-08-08T10:14:38.000Z</time>
      </trkpt>
      <trkpt lat="50.90675" lon="1.69285">
        <ele>48.799999237061</ele>
        <time>2023-08-08T10:14:40.000Z</time>
      </trkpt>
      <trkpt lat="50.90663" lon="1.69264">
        <ele>47.400001525879</ele>
        <time>2023-08-08T10:14:42.000Z</time>
      </trkpt>
      <trkpt lat="50.90656" lon="1.69251">
        <ele>46.599998474121</ele>
        <time>2023-08-08T10:14:43.000Z</time>
      </trkpt>
      <trkpt lat="50.90652" lon="1.69243">
        <ele>46.400001525879</ele>
        <time>2023-08-08T10:14:44.000Z</time>
      </trkpt>
      <trkpt lat="50.90646" lon="1.69232">
        <ele>45</ele>
        <time>2023-08-08T10:14:45.000Z</time>
      </trkpt>
      <trkpt lat="50.90634" lon="1.69207">
        <ele>44</ele>
        <time>2023-08-08T10:14:47.000Z</time>
      </trkpt>
      <trkpt lat="50.90625" lon="1.69185">
        <ele>42.599998474121</ele>
        <time>2023-08-08T10:14:49.000Z</time>
      </trkpt>
      <trkpt lat="50.9062" lon="1.69173">
        <ele>41.799999237061</ele>
        <time>2023-08-08T10:14:50.000Z</time>
      </trkpt>
      <trkpt lat="50.90614" lon="1.69158">
        <ele>41.400001525879</ele>
        <time>2023-08-08T10:14:51.000Z</time>
      </trkpt>
      <trkpt lat="50.90602" lon="1.69125">
        <ele>39.799999237061</ele>
        <time>2023-08-08T10:14:54.000Z</time>
      </trkpt>
      <trkpt lat="50.90593" lon="1.69102">
        <ele>38.799999237061</ele>
        <time>2023-08-08T10:14:56.000Z</time>
      </trkpt>
      <trkpt lat="50.90581" lon="1.69067">
        <ele>37.200000762939</ele>
        <time>2023-08-08T10:14:59.000Z</time>
      </trkpt>
      <trkpt lat="50.90576" lon="1.69054">
        <ele>36.599998474121</ele>
        <time>2023-08-08T10:15:00.000Z</time>
      </trkpt>
      <trkpt lat="50.90572" lon="1.69043">
        <ele>35.799999237061</ele>
        <time>2023-08-08T10:15:01.000Z</time>
      </trkpt>
      <trkpt lat="50.90561" lon="1.69012">
        <ele>34.599998474121</ele>
        <time>2023-08-08T10:15:04.000Z</time>
      </trkpt>
      <trkpt lat="50.90553" lon="1.68989">
        <ele>33.200000762939</ele>
        <time>2023-08-08T10:15:06.000Z</time>
      </trkpt>
      <trkpt lat="50.90545" lon="1.68969">
        <ele>32.599998474121</ele>
        <time>2023-08-08T10:15:08.000Z</time>
      </trkpt>
      <trkpt lat="50.90542" lon="1.68961">
        <ele>32</ele>
        <time>2023-08-08T10:15:09.000Z</time>
      </trkpt>
      <trkpt lat="50.90529" lon="1.68924">
        <ele>30.799999237061</ele>
        <time>2023-08-08T10:15:13.000Z</time>
      </trkpt>
      <trkpt lat="50.90511" lon="1.68873">
        <ele>29.799999237061</ele>
        <time>2023-08-08T10:15:19.000Z</time>
      </trkpt>
      <trkpt lat="50.90505" lon="1.68857">
        <ele>29.60000038147</ele>
        <time>2023-08-08T10:15:21.000Z</time>
      </trkpt>
      <trkpt lat="50.90483" lon="1.68798">
        <ele>28.799999237061</ele>
        <time>2023-08-08T10:15:29.000Z</time>
      </trkpt>
      <trkpt lat="50.90464" lon="1.68751">
        <ele>28.60000038147</ele>
        <time>2023-08-08T10:15:36.000Z</time>
      </trkpt>
      <trkpt lat="50.9044" lon="1.68706">
        <ele>28</ele>
        <time>2023-08-08T10:15:43.000Z</time>
      </trkpt>
      <trkpt lat="50.90427" lon="1.68683">
        <ele>27.60000038147</ele>
        <time>2023-08-08T10:15:47.000Z</time>
      </trkpt>
      <trkpt lat="50.9042" lon="1.68672">
        <ele>27.60000038147</ele>
        <time>2023-08-08T10:15:49.000Z</time>
      </trkpt>
      <trkpt lat="50.90411" lon="1.68655">
        <ele>27.39999961853</ele>
        <time>2023-08-08T10:15:52.000Z</time>
      </trkpt>
      <trkpt lat="50.90377" lon="1.68599">
        <ele>26.799999237061</ele>
        <time>2023-08-08T10:16:01.000Z</time>
      </trkpt>
      <trkpt lat="50.90369" lon="1.68585">
        <ele>26.60000038147</ele>
        <time>2023-08-08T10:16:03.000Z</time>
      </trkpt>
      <trkpt lat="50.90343" lon="1.68541">
        <ele>26</ele>
        <time>2023-08-08T10:16:10.000Z</time>
      </trkpt>
      <trkpt lat="50.90331" lon="1.68519">
        <ele>25.39999961853</ele>
        <time>2023-08-08T10:16:13.000Z</time>
      </trkpt>
      <trkpt lat="50.90297" lon="1.6846">
        <ele>24.39999961853</ele>
        <time>2023-08-08T10:16:22.000Z</time>
      </trkpt>
      <trkpt lat="50.90294" lon="1.68455">
        <ele>24.39999961853</ele>
        <time>2023-08-08T10:16:23.000Z</time>
      </trkpt>
      <trkpt lat="50.90267" lon="1.68411">
        <ele>23.200000762939</ele>
        <time>2023-08-08T10:16:30.000Z</time>
      </trkpt>
      <trkpt lat="50.90256" lon="1.68391">
        <ele>23</ele>
        <time>2023-08-08T10:16:33.000Z</time>
      </trkpt>
      <trkpt lat="50.90237" lon="1.68359">
        <ele>22.200000762939</ele>
        <time>2023-08-08T10:16:38.000Z</time>
      </trkpt>
      <trkpt lat="50.90224" lon="1.6834">
        <ele>21.799999237061</ele>
        <time>2023-08-08T10:16:41.000Z</time>
      </trkpt>
      <trkpt lat="50.90217" lon="1.6833">
        <ele>21.39999961853</ele>
        <time>2023-08-08T10:16:43.000Z</time>
      </trkpt>
      <trkpt lat="50.90203" lon="1.68316">
        <ele>21</ele>
        <time>2023-08-08T10:16:46.000Z</time>
      </trkpt>
      <trkpt lat="50.90188" lon="1.68305">
        <ele>20.799999237061</ele>
        <time>2023-08-08T10:16:49.000Z</time>
      </trkpt>
      <trkpt lat="50.9015" lon="1.68291">
        <ele>20.60000038147</ele>
        <time>2023-08-08T10:16:57.000Z</time>
      </trkpt>
      <trkpt lat="50.90116" lon="1.6829">
        <ele>20.799999237061</ele>
        <time>2023-08-08T10:17:04.000Z</time>
      </trkpt>
      <trkpt lat="50.90072" lon="1.683">
        <ele>21.200000762939</ele>
        <time>2023-08-08T10:17:13.000Z</time>
      </trkpt>
      <trkpt lat="50.90016" lon="1.68318">
        <ele>22</ele>
        <time>2023-08-08T10:17:24.000Z</time>
      </trkpt>
      <trkpt lat="50.90007" lon="1.68321">
        <ele>22.200000762939</ele>
        <time>2023-08-08T10:17:26.000Z</time>
      </trkpt>
      <trkpt lat="50.89964" lon="1.68342">
        <ele>22.39999961853</ele>
        <time>2023-08-08T10:17:34.000Z</time>
      </trkpt>
      <trkpt lat="50.89921" lon="1.68366">
        <ele>22.39999961853</ele>
        <time>2023-08-08T10:17:43.000Z</time>
      </trkpt>
      <trkpt lat="50.89881" lon="1.68392">
        <ele>22.799999237061</ele>
        <time>2023-08-08T10:17:51.000Z</time>
      </trkpt>
      <trkpt lat="50.89848" lon="1.68415">
        <ele>22.799999237061</ele>
        <time>2023-08-08T10:17:58.000Z</time>
      </trkpt>
      <trkpt lat="50.89804" lon="1.68443">
        <ele>23</ele>
        <time>2023-08-08T10:18:07.000Z</time>
      </trkpt>
      <trkpt lat="50.89793" lon="1.68451">
        <ele>23.200000762939</ele>
        <time>2023-08-08T10:18:10.000Z</time>
      </trkpt>
      <trkpt lat="50.89764" lon="1.6847">
        <ele>23.39999961853</ele>
        <time>2023-08-08T10:18:16.000Z</time>
      </trkpt>
      <trkpt lat="50.8972" lon="1.68499">
        <ele>23.39999961853</ele>
        <time>2023-08-08T10:18:25.000Z</time>
      </trkpt>
      <trkpt lat="50.89669" lon="1.68538">
        <ele>23.200000762939</ele>
        <time>2023-08-08T10:18:36.000Z</time>
      </trkpt>
      <trkpt lat="50.89629" lon="1.68577">
        <ele>23.39999961853</ele>
        <time>2023-08-08T10:18:45.000Z</time>
      </trkpt>
      <trkpt lat="50.89621" lon="1.68584">
        <ele>23.60000038147</ele>
        <time>2023-08-08T10:18:47.000Z</time>
      </trkpt>
      <trkpt lat="50.89599" lon="1.68607">
        <ele>24</ele>
        <time>2023-08-08T10:18:52.000Z</time>
      </trkpt>
      <trkpt lat="50.89564" lon="1.68643">
        <ele>24.60000038147</ele>
        <time>2023-08-08T10:19:00.000Z</time>
      </trkpt>
      <trkpt lat="50.89552" lon="1.6865">
        <ele>24.39999961853</ele>
        <time>2023-08-08T10:19:02.000Z</time>
      </trkpt>
      <trkpt lat="50.89527" lon="1.68654">
        <ele>24.200000762939</ele>
        <time>2023-08-08T10:19:06.000Z</time>
      </trkpt>
      <trkpt lat="50.89521" lon="1.68653">
        <ele>24</ele>
        <time>2023-08-08T10:19:07.000Z</time>
      </trkpt>
      <trkpt lat="50.89513" lon="1.68652">
        <ele>24</ele>
        <time>2023-08-08T10:19:08.000Z</time>
      </trkpt>
      <trkpt lat="50.89494" lon="1.68642">
        <ele>23.200000762939</ele>
        <time>2023-08-08T10:19:11.000Z</time>
      </trkpt>
      <trkpt lat="50.89488" lon="1.68636">
        <ele>22.799999237061</ele>
        <time>2023-08-08T10:19:12.000Z</time>
      </trkpt>
      <trkpt lat="50.89475" lon="1.68622">
        <ele>22.200000762939</ele>
        <time>2023-08-08T10:19:14.000Z</time>
      </trkpt>
      <trkpt lat="50.89468" lon="1.68612">
        <ele>22</ele>
        <time>2023-08-08T10:19:15.000Z</time>
      </trkpt>
      <trkpt lat="50.89458" lon="1.68595">
        <ele>21.39999961853</ele>
        <time>2023-08-08T10:19:17.000Z</time>
      </trkpt>
      <trkpt lat="50.89449" lon="1.68579">
        <ele>20.799999237061</ele>
        <time>2023-08-08T10:19:19.000Z</time>
      </trkpt>
      <trkpt lat="50.89439" lon="1.6856">
        <ele>20.39999961853</ele>
        <time>2023-08-08T10:19:21.000Z</time>
      </trkpt>
      <trkpt lat="50.89435" lon="1.68552">
        <ele>20.200000762939</ele>
        <time>2023-08-08T10:19:22.000Z</time>
      </trkpt>
      <trkpt lat="50.89404" lon="1.68497">
        <ele>19.39999961853</ele>
        <time>2023-08-08T10:19:29.000Z</time>
      </trkpt>
      <trkpt lat="50.89394" lon="1.6848">
        <ele>19.200000762939</ele>
        <time>2023-08-08T10:19:31.000Z</time>
      </trkpt>
      <trkpt lat="50.89374" lon="1.68445">
        <ele>19.200000762939</ele>
        <time>2023-08-08T10:19:36.000Z</time>
      </trkpt>
      <trkpt lat="50.89344" lon="1.68396">
        <ele>19.39999961853</ele>
        <time>2023-08-08T10:19:43.000Z</time>
      </trkpt>
      <trkpt lat="50.89307" lon="1.68332">
        <ele>19.39999961853</ele>
        <time>2023-08-08T10:19:52.000Z</time>
      </trkpt>
      <trkpt lat="50.893" lon="1.68319">
        <ele>19.39999961853</ele>
        <time>2023-08-08T10:19:54.000Z</time>
      </trkpt>
      <trkpt lat="50.89281" lon="1.6829">
        <ele>20.200000762939</ele>
        <time>2023-08-08T10:19:59.000Z</time>
      </trkpt>
      <trkpt lat="50.89278" lon="1.68285">
        <ele>20.39999961853</ele>
        <time>2023-08-08T10:20:00.000Z</time>
      </trkpt>
      <trkpt lat="50.89274" lon="1.68279">
        <ele>20.60000038147</ele>
        <time>2023-08-08T10:20:01.000Z</time>
      </trkpt>
      <trkpt lat="50.89262" lon="1.68256">
        <ele>21</ele>
        <time>2023-08-08T10:20:05.000Z</time>
      </trkpt>
      <trkpt lat="50.89251" lon="1.68238">
        <ele>21.200000762939</ele>
        <time>2023-08-08T10:20:08.000Z</time>
      </trkpt>
      <trkpt lat="50.89216" lon="1.68179">
        <ele>22.39999961853</ele>
        <time>2023-08-08T10:20:18.000Z</time>
      </trkpt>
      <trkpt lat="50.89184" lon="1.68128">
        <ele>22.799999237061</ele>
        <time>2023-08-08T10:20:26.000Z</time>
      </trkpt>
      <trkpt lat="50.89181" lon="1.68121">
        <ele>22.799999237061</ele>
        <time>2023-08-08T10:20:27.000Z</time>
      </trkpt>
      <trkpt lat="50.89161" lon="1.68087">
        <ele>22.799999237061</ele>
        <time>2023-08-08T10:20:32.000Z</time>
      </trkpt>
      <trkpt lat="50.89157" lon="1.68082">
        <ele>22.799999237061</ele>
        <time>2023-08-08T10:20:33.000Z</time>
      </trkpt>
      <trkpt lat="50.89128" lon="1.68034">
        <ele>22.200000762939</ele>
        <time>2023-08-08T10:20:40.000Z</time>
      </trkpt>
      <trkpt lat="50.89096" lon="1.67978">
        <ele>21.200000762939</ele>
        <time>2023-08-08T10:20:49.000Z</time>
      </trkpt>
      <trkpt lat="50.8909" lon="1.67967">
        <ele>21</ele>
        <time>2023-08-08T10:20:51.000Z</time>
      </trkpt>
      <trkpt lat="50.89076" lon="1.67944">
        <ele>20.799999237061</ele>
        <time>2023-08-08T10:20:56.000Z</time>
      </trkpt>
      <trkpt lat="50.89073" lon="1.67938">
        <ele>20.799999237061</ele>
        <time>2023-08-08T10:21:00.000Z</time>
      </trkpt>
      <trkpt lat="50.89073" lon="1.67938">
        <ele>20.799999237061</ele>
        <time>2023-08-08T10:21:01.000Z</time>
      </trkpt>
      <trkpt lat="50.8907" lon="1.67934">
        <ele>20</ele>
        <time>2023-08-08T10:23:04.000Z</time>
      </trkpt>
      <trkpt lat="50.89067" lon="1.67928">
        <ele>20</ele>
        <time>2023-08-08T10:23:06.000Z</time>
      </trkpt>
      <trkpt lat="50.8905" lon="1.679">
        <ele>20.200000762939</ele>
        <time>2023-08-08T10:23:13.000Z</time>
      </trkpt>
      <trkpt lat="50.89033" lon="1.67872">
        <ele>20.60000038147</ele>
        <time>2023-08-08T10:23:19.000Z</time>
      </trkpt>
      <trkpt lat="50.89013" lon="1.67839">
        <ele>20.799999237061</ele>
        <time>2023-08-08T10:23:26.000Z</time>
      </trkpt>
      <trkpt lat="50.88992" lon="1.67802">
        <ele>21.60000038147</ele>
        <time>2023-08-08T10:23:33.000Z</time>
      </trkpt>
      <trkpt lat="50.88985" lon="1.67792">
        <ele>21.799999237061</ele>
        <time>2023-08-08T10:23:35.000Z</time>
      </trkpt>
      <trkpt lat="50.88954" lon="1.6774">
        <ele>22.39999961853</ele>
        <time>2023-08-08T10:23:45.000Z</time>
      </trkpt>
      <trkpt lat="50.88936" lon="1.67709">
        <ele>22.799999237061</ele>
        <time>2023-08-08T10:23:51.000Z</time>
      </trkpt>
      <trkpt lat="50.8892" lon="1.67682">
        <ele>23</ele>
        <time>2023-08-08T10:23:56.000Z</time>
      </trkpt>
      <trkpt lat="50.8889" lon="1.67622">
        <ele>23.799999237061</ele>
        <time>2023-08-08T10:24:06.000Z</time>
      </trkpt>
      <trkpt lat="50.88878" lon="1.67596">
        <ele>24</ele>
        <time>2023-08-08T10:24:10.000Z</time>
      </trkpt>
      <trkpt lat="50.8887" lon="1.67576">
        <ele>23.799999237061</ele>
        <time>2023-08-08T10:24:13.000Z</time>
      </trkpt>
      <trkpt lat="50.88856" lon="1.67535">
        <ele>23.39999961853</ele>
        <time>2023-08-08T10:24:19.000Z</time>
      </trkpt>
      <trkpt lat="50.88854" lon="1.67527">
        <ele>23.39999961853</ele>
        <time>2023-08-08T10:24:20.000Z</time>
      </trkpt>
      <trkpt lat="50.88845" lon="1.67467">
        <ele>22.60000038147</ele>
        <time>2023-08-08T10:24:27.000Z</time>
      </trkpt>
      <trkpt lat="50.88845" lon="1.67461">
        <ele>22.39999961853</ele>
        <time>2023-08-08T10:24:28.000Z</time>
      </trkpt>
      <trkpt lat="50.88841" lon="1.67407">
        <ele>21.39999961853</ele>
        <time>2023-08-08T10:24:34.000Z</time>
      </trkpt>
      <trkpt lat="50.88838" lon="1.67373">
        <ele>21</ele>
        <time>2023-08-08T10:24:38.000Z</time>
      </trkpt>
      <trkpt lat="50.88838" lon="1.67314">
        <ele>20.39999961853</ele>
        <time>2023-08-08T10:24:45.000Z</time>
      </trkpt>
      <trkpt lat="50.88838" lon="1.67306">
        <ele>20.200000762939</ele>
        <time>2023-08-08T10:24:46.000Z</time>
      </trkpt>
      <trkpt lat="50.88846" lon="1.67252">
        <ele>19.799999237061</ele>
        <time>2023-08-08T10:24:53.000Z</time>
      </trkpt>
      <trkpt lat="50.88858" lon="1.67178">
        <ele>19.39999961853</ele>
        <time>2023-08-08T10:25:02.000Z</time>
      </trkpt>
      <trkpt lat="50.88858" lon="1.67153">
        <ele>18.799999237061</ele>
        <time>2023-08-08T10:25:05.000Z</time>
      </trkpt>
      <trkpt lat="50.88855" lon="1.67124">
        <ele>18.60000038147</ele>
        <time>2023-08-08T10:25:08.000Z</time>
      </trkpt>
      <trkpt lat="50.88851" lon="1.67105">
        <ele>18.200000762939</ele>
        <time>2023-08-08T10:25:10.000Z</time>
      </trkpt>
      <trkpt lat="50.88843" lon="1.67066">
        <ele>17.200000762939</ele>
        <time>2023-08-08T10:25:14.000Z</time>
      </trkpt>
      <trkpt lat="50.88838" lon="1.67048">
        <ele>17</ele>
        <time>2023-08-08T10:25:16.000Z</time>
      </trkpt>
      <trkpt lat="50.88825" lon="1.66994">
        <ele>15.60000038147</ele>
        <time>2023-08-08T10:25:22.000Z</time>
      </trkpt>
      <trkpt lat="50.88824" lon="1.66986">
        <ele>15.60000038147</ele>
        <time>2023-08-08T10:25:23.000Z</time>
      </trkpt>
      <trkpt lat="50.88809" lon="1.66922">
        <ele>15</ele>
        <time>2023-08-08T10:25:31.000Z</time>
      </trkpt>
      <trkpt lat="50.88795" lon="1.66864">
        <ele>15</ele>
        <time>2023-08-08T10:25:39.000Z</time>
      </trkpt>
      <trkpt lat="50.8878" lon="1.66804">
        <ele>15.39999961853</ele>
        <time>2023-08-08T10:25:48.000Z</time>
      </trkpt>
      <trkpt lat="50.88769" lon="1.66761">
        <ele>16</ele>
        <time>2023-08-08T10:25:55.000Z</time>
      </trkpt>
      <trkpt lat="50.88767" lon="1.6675">
        <ele>16.200000762939</ele>
        <time>2023-08-08T10:25:57.000Z</time>
      </trkpt>
      <trkpt lat="50.88764" lon="1.66739">
        <ele>16.60000038147</ele>
        <time>2023-08-08T10:25:59.000Z</time>
      </trkpt>
      <trkpt lat="50.88762" lon="1.66727">
        <ele>16.799999237061</ele>
        <time>2023-08-08T10:26:01.000Z</time>
      </trkpt>
      <trkpt lat="50.88756" lon="1.66692">
        <ele>17.60000038147</ele>
        <time>2023-08-08T10:26:07.000Z</time>
      </trkpt>
      <trkpt lat="50.88751" lon="1.66675">
        <ele>17.799999237061</ele>
        <time>2023-08-08T10:26:10.000Z</time>
      </trkpt>
      <trkpt lat="50.88744" lon="1.66649">
        <ele>18.60000038147</ele>
        <time>2023-08-08T10:26:14.000Z</time>
      </trkpt>
      <trkpt lat="50.8874" lon="1.66635">
        <ele>18.60000038147</ele>
        <time>2023-08-08T10:26:16.000Z</time>
      </trkpt>
      <trkpt lat="50.88737" lon="1.66628">
        <ele>18.60000038147</ele>
        <time>2023-08-08T10:26:17.000Z</time>
      </trkpt>
      <trkpt lat="50.88732" lon="1.66615">
        <ele>18.60000038147</ele>
        <time>2023-08-08T10:26:19.000Z</time>
      </trkpt>
      <trkpt lat="50.88725" lon="1.66593">
        <ele>18.200000762939</ele>
        <time>2023-08-08T10:26:22.000Z</time>
      </trkpt>
      <trkpt lat="50.88712" lon="1.66548">
        <ele>17.39999961853</ele>
        <time>2023-08-08T10:26:27.000Z</time>
      </trkpt>
      <trkpt lat="50.88704" lon="1.6652">
        <ele>16.200000762939</ele>
        <time>2023-08-08T10:26:30.000Z</time>
      </trkpt>
      <trkpt lat="50.88694" lon="1.66491">
        <ele>14.800000190735</ele>
        <time>2023-08-08T10:26:33.000Z</time>
      </trkpt>
      <trkpt lat="50.88691" lon="1.66484">
        <ele>14.60000038147</ele>
        <time>2023-08-08T10:26:34.000Z</time>
      </trkpt>
      <trkpt lat="50.88688" lon="1.66475">
        <ele>14</ele>
        <time>2023-08-08T10:26:35.000Z</time>
      </trkpt>
      <trkpt lat="50.88684" lon="1.66466">
        <ele>13.199999809265</ele>
        <time>2023-08-08T10:26:36.000Z</time>
      </trkpt>
      <trkpt lat="50.88682" lon="1.66457">
        <ele>12.800000190735</ele>
        <time>2023-08-08T10:26:37.000Z</time>
      </trkpt>
      <trkpt lat="50.88681" lon="1.66447">
        <ele>12.199999809265</ele>
        <time>2023-08-08T10:26:38.000Z</time>
      </trkpt>
      <trkpt lat="50.88679" lon="1.66437">
        <ele>11.800000190735</ele>
        <time>2023-08-08T10:26:39.000Z</time>
      </trkpt>
      <trkpt lat="50.88674" lon="1.66409">
        <ele>11</ele>
        <time>2023-08-08T10:26:42.000Z</time>
      </trkpt>
      <trkpt lat="50.88674" lon="1.664">
        <ele>10.800000190735</ele>
        <time>2023-08-08T10:26:43.000Z</time>
      </trkpt>
      <trkpt lat="50.88674" lon="1.66395">
        <ele>10.800000190735</ele>
        <time>2023-08-08T10:26:44.000Z</time>
      </trkpt>
      <trkpt lat="50.88675" lon="1.66382">
        <ele>10.39999961853</ele>
        <time>2023-08-08T10:26:46.000Z</time>
      </trkpt>
      <trkpt lat="50.88673" lon="1.66376">
        <ele>10.199999809265</ele>
        <time>2023-08-08T10:26:47.000Z</time>
      </trkpt>
      <trkpt lat="50.8867" lon="1.6637">
        <ele>10</ele>
        <time>2023-08-08T10:26:48.000Z</time>
      </trkpt>
      <trkpt lat="50.8866" lon="1.66357">
        <ele>9.6000003814697</ele>
        <time>2023-08-08T10:26:51.000Z</time>
      </trkpt>
      <trkpt lat="50.88648" lon="1.66346">
        <ele>9.1999998092651</ele>
        <time>2023-08-08T10:26:54.000Z</time>
      </trkpt>
      <trkpt lat="50.88636" lon="1.66338">
        <ele>8.8000001907349</ele>
        <time>2023-08-08T10:26:57.000Z</time>
      </trkpt>
      <trkpt lat="50.88622" lon="1.66326">
        <ele>8.3999996185303</ele>
        <time>2023-08-08T10:27:01.000Z</time>
      </trkpt>
      <trkpt lat="50.88613" lon="1.66319">
        <ele>8.6000003814697</ele>
        <time>2023-08-08T10:27:04.000Z</time>
      </trkpt>
      <trkpt lat="50.88598" lon="1.6631">
        <ele>8.6000003814697</ele>
        <time>2023-08-08T10:27:09.000Z</time>
      </trkpt>
      <trkpt lat="50.88579" lon="1.66313">
        <ele>8.8000001907349</ele>
        <time>2023-08-08T10:27:15.000Z</time>
      </trkpt>
      <trkpt lat="50.88565" lon="1.66317">
        <ele>9.3999996185303</ele>
        <time>2023-08-08T10:27:20.000Z</time>
      </trkpt>
      <trkpt lat="50.88555" lon="1.66319">
        <ele>9.6000003814697</ele>
        <time>2023-08-08T10:27:23.000Z</time>
      </trkpt>
      <trkpt lat="50.88543" lon="1.66324">
        <ele>10.199999809265</ele>
        <time>2023-08-08T10:27:29.000Z</time>
      </trkpt>
      <trkpt lat="50.88539" lon="1.66324">
        <ele>10.39999961853</ele>
        <time>2023-08-08T10:27:31.000Z</time>
      </trkpt>
      <trkpt lat="50.88537" lon="1.66324">
        <ele>10.60000038147</ele>
        <time>2023-08-08T10:27:32.000Z</time>
      </trkpt>
      <trkpt lat="50.88534" lon="1.66323">
        <ele>10.60000038147</ele>
        <time>2023-08-08T10:27:34.000Z</time>
      </trkpt>
      <trkpt lat="50.88532" lon="1.66324">
        <ele>10.800000190735</ele>
        <time>2023-08-08T10:27:35.000Z</time>
      </trkpt>
      <trkpt lat="50.88528" lon="1.66325">
        <ele>11.60000038147</ele>
        <time>2023-08-08T10:27:41.000Z</time>
      </trkpt>
      <trkpt lat="50.88524" lon="1.66329">
        <ele>12.39999961853</ele>
        <time>2023-08-08T10:28:51.000Z</time>
      </trkpt>
      <trkpt lat="50.8852" lon="1.66331">
        <ele>12.39999961853</ele>
        <time>2023-08-08T10:28:53.000Z</time>
      </trkpt>
      <trkpt lat="50.88503" lon="1.66338">
        <ele>13</ele>
        <time>2023-08-08T10:29:00.000Z</time>
      </trkpt>
      <trkpt lat="50.88493" lon="1.66341">
        <ele>13.60000038147</ele>
        <time>2023-08-08T10:29:04.000Z</time>
      </trkpt>
      <trkpt lat="50.88479" lon="1.66346">
        <ele>14</ele>
        <time>2023-08-08T10:29:09.000Z</time>
      </trkpt>
      <trkpt lat="50.88469" lon="1.66349">
        <ele>14.800000190735</ele>
        <time>2023-08-08T10:29:13.000Z</time>
      </trkpt>
      <trkpt lat="50.88461" lon="1.66351">
        <ele>15.60000038147</ele>
        <time>2023-08-08T10:29:16.000Z</time>
      </trkpt>
      <trkpt lat="50.88456" lon="1.66351">
        <ele>16</ele>
        <time>2023-08-08T10:29:18.000Z</time>
      </trkpt>
      <trkpt lat="50.88444" lon="1.66354">
        <ele>16.799999237061</ele>
        <time>2023-08-08T10:29:23.000Z</time>
      </trkpt>
      <trkpt lat="50.88438" lon="1.66356">
        <ele>17</ele>
        <time>2023-08-08T10:29:25.000Z</time>
      </trkpt>
      <trkpt lat="50.88425" lon="1.66358">
        <ele>17.39999961853</ele>
        <time>2023-08-08T10:29:30.000Z</time>
      </trkpt>
      <trkpt lat="50.88412" lon="1.6636">
        <ele>18.200000762939</ele>
        <time>2023-08-08T10:29:35.000Z</time>
      </trkpt>
      <trkpt lat="50.88401" lon="1.66367">
        <ele>18.799999237061</ele>
        <time>2023-08-08T10:29:39.000Z</time>
      </trkpt>
      <trkpt lat="50.88395" lon="1.66375">
        <ele>19.200000762939</ele>
        <time>2023-08-08T10:29:42.000Z</time>
      </trkpt>
      <trkpt lat="50.88383" lon="1.66387">
        <ele>20</ele>
        <time>2023-08-08T10:29:48.000Z</time>
      </trkpt>
      <trkpt lat="50.88379" lon="1.66384">
        <ele>20.200000762939</ele>
        <time>2023-08-08T10:29:50.000Z</time>
      </trkpt>
      <trkpt lat="50.88378" lon="1.6638">
        <ele>20.39999961853</ele>
        <time>2023-08-08T10:29:51.000Z</time>
      </trkpt>
      <trkpt lat="50.8837" lon="1.66356">
        <ele>20.799999237061</ele>
        <time>2023-08-08T10:29:56.000Z</time>
      </trkpt>
      <trkpt lat="50.88359" lon="1.66314">
        <ele>20.60000038147</ele>
        <time>2023-08-08T10:30:03.000Z</time>
      </trkpt>
      <trkpt lat="50.88347" lon="1.6626">
        <ele>19.60000038147</ele>
        <time>2023-08-08T10:30:11.000Z</time>
      </trkpt>
      <trkpt lat="50.88335" lon="1.66201">
        <ele>19.200000762939</ele>
        <time>2023-08-08T10:30:20.000Z</time>
      </trkpt>
      <trkpt lat="50.88334" lon="1.66194">
        <ele>19.200000762939</ele>
        <time>2023-08-08T10:30:21.000Z</time>
      </trkpt>
      <trkpt lat="50.88321" lon="1.66134">
        <ele>20.200000762939</ele>
        <time>2023-08-08T10:30:31.000Z</time>
      </trkpt>
      <trkpt lat="50.88303" lon="1.66078">
        <ele>20.60000038147</ele>
        <time>2023-08-08T10:30:41.000Z</time>
      </trkpt>
      <trkpt lat="50.88304" lon="1.66053">
        <ele>20.200000762939</ele>
        <time>2023-08-08T10:30:45.000Z</time>
      </trkpt>
      <trkpt lat="50.88306" lon="1.66045">
        <ele>20.200000762939</ele>
        <time>2023-08-08T10:30:46.000Z</time>
      </trkpt>
      <trkpt lat="50.8831" lon="1.66034">
        <ele>20</ele>
        <time>2023-08-08T10:30:48.000Z</time>
      </trkpt>
      <trkpt lat="50.88313" lon="1.66029">
        <ele>19.799999237061</ele>
        <time>2023-08-08T10:30:49.000Z</time>
      </trkpt>
      <trkpt lat="50.88322" lon="1.66021">
        <ele>18.799999237061</ele>
        <time>2023-08-08T10:30:52.000Z</time>
      </trkpt>
      <trkpt lat="50.88325" lon="1.6602">
        <ele>18.39999961853</ele>
        <time>2023-08-08T10:30:53.000Z</time>
      </trkpt>
      <trkpt lat="50.88329" lon="1.66016">
        <ele>17.799999237061</ele>
        <time>2023-08-08T10:30:54.000Z</time>
      </trkpt>
      <trkpt lat="50.88334" lon="1.66005">
        <ele>17.200000762939</ele>
        <time>2023-08-08T10:30:56.000Z</time>
      </trkpt>
      <trkpt lat="50.88344" lon="1.65979">
        <ele>16.60000038147</ele>
        <time>2023-08-08T10:31:01.000Z</time>
      </trkpt>
      <trkpt lat="50.88346" lon="1.6597">
        <ele>15.800000190735</ele>
        <time>2023-08-08T10:31:03.000Z</time>
      </trkpt>
      <trkpt lat="50.88348" lon="1.65966">
        <ele>15.60000038147</ele>
        <time>2023-08-08T10:31:04.000Z</time>
      </trkpt>
      <trkpt lat="50.8835" lon="1.65963">
        <ele>15.199999809265</ele>
        <time>2023-08-08T10:31:05.000Z</time>
      </trkpt>
      <trkpt lat="50.88353" lon="1.65962">
        <ele>15</ele>
        <time>2023-08-08T10:31:06.000Z</time>
      </trkpt>
      <trkpt lat="50.88357" lon="1.65963">
        <ele>14.39999961853</ele>
        <time>2023-08-08T10:31:07.000Z</time>
      </trkpt>
      <trkpt lat="50.88361" lon="1.65966">
        <ele>14</ele>
        <time>2023-08-08T10:31:08.000Z</time>
      </trkpt>
      <trkpt lat="50.88364" lon="1.6597">
        <ele>13.800000190735</ele>
        <time>2023-08-08T10:31:09.000Z</time>
      </trkpt>
      <trkpt lat="50.88368" lon="1.65973">
        <ele>12.800000190735</ele>
        <time>2023-08-08T10:31:10.000Z</time>
      </trkpt>
      <trkpt lat="50.88383" lon="1.65986">
        <ele>11.800000190735</ele>
        <time>2023-08-08T10:31:14.000Z</time>
      </trkpt>
      <trkpt lat="50.8839" lon="1.65993">
        <ele>11.39999961853</ele>
        <time>2023-08-08T10:31:16.000Z</time>
      </trkpt>
      <trkpt lat="50.88402" lon="1.66003">
        <ele>11.39999961853</ele>
        <time>2023-08-08T10:31:20.000Z</time>
      </trkpt>
      <trkpt lat="50.88418" lon="1.66016">
        <ele>11.39999961853</ele>
        <time>2023-08-08T10:31:25.000Z</time>
      </trkpt>
      <trkpt lat="50.88445" lon="1.66042">
        <ele>11.39999961853</ele>
        <time>2023-08-08T10:31:33.000Z</time>
      </trkpt>
      <trkpt lat="50.88469" lon="1.66062">
        <ele>11.60000038147</ele>
        <time>2023-08-08T10:31:40.000Z</time>
      </trkpt>
      <trkpt lat="50.88493" lon="1.66083">
        <ele>11.800000190735</ele>
        <time>2023-08-08T10:31:47.000Z</time>
      </trkpt>
      <trkpt lat="50.88512" lon="1.66096">
        <ele>11.39999961853</ele>
        <time>2023-08-08T10:31:53.000Z</time>
      </trkpt>
      <trkpt lat="50.88522" lon="1.66102">
        <ele>10.800000190735</ele>
        <time>2023-08-08T10:31:59.000Z</time>
      </trkpt>
      <trkpt lat="50.88522" lon="1.66102">
        <ele>10.800000190735</ele>
        <time>2023-08-08T10:32:01.000Z</time>
      </trkpt>
      <trkpt lat="50.88493" lon="1.66102">
        <ele>17.39999961853</ele>
        <time>2023-08-08T11:33:26.000Z</time>
      </trkpt>
      <trkpt lat="50.88497" lon="1.66101">
        <ele>17.200000762939</ele>
        <time>2023-08-08T11:33:28.000Z</time>
      </trkpt>
      <trkpt lat="50.88499" lon="1.661">
        <ele>17.200000762939</ele>
        <time>2023-08-08T11:33:29.000Z</time>
      </trkpt>
      <trkpt lat="50.88505" lon="1.66095">
        <ele>16.60000038147</ele>
        <time>2023-08-08T11:33:33.000Z</time>
      </trkpt>
      <trkpt lat="50.8851" lon="1.66096">
        <ele>16.200000762939</ele>
        <time>2023-08-08T11:33:35.000Z</time>
      </trkpt>
      <trkpt lat="50.88516" lon="1.66099">
        <ele>15.199999809265</ele>
        <time>2023-08-08T11:33:38.000Z</time>
      </trkpt>
      <trkpt lat="50.88518" lon="1.66101">
        <ele>15.199999809265</ele>
        <time>2023-08-08T11:33:39.000Z</time>
      </trkpt>
      <trkpt lat="50.88525" lon="1.66108">
        <ele>14.60000038147</ele>
        <time>2023-08-08T11:33:43.000Z</time>
      </trkpt>
      <trkpt lat="50.88535" lon="1.66124">
        <ele>14.199999809265</ele>
        <time>2023-08-08T11:33:48.000Z</time>
      </trkpt>
      <trkpt lat="50.88544" lon="1.66153">
        <ele>13.199999809265</ele>
        <time>2023-08-08T11:33:54.000Z</time>
      </trkpt>
      <trkpt lat="50.88543" lon="1.66176">
        <ele>12.60000038147</ele>
        <time>2023-08-08T11:33:59.000Z</time>
      </trkpt>
      <trkpt lat="50.88533" lon="1.66192">
        <ele>12.60000038147</ele>
        <time>2023-08-08T11:34:04.000Z</time>
      </trkpt>
      <trkpt lat="50.88519" lon="1.66201">
        <ele>13</ele>
        <time>2023-08-08T11:34:10.000Z</time>
      </trkpt>
      <trkpt lat="50.88511" lon="1.66209">
        <ele>13.800000190735</ele>
        <time>2023-08-08T11:34:15.000Z</time>
      </trkpt>
      <trkpt lat="50.88509" lon="1.66217">
        <ele>13.800000190735</ele>
        <time>2023-08-08T11:34:17.000Z</time>
      </trkpt>
      <trkpt lat="50.8851" lon="1.66226">
        <ele>14</ele>
        <time>2023-08-08T11:34:19.000Z</time>
      </trkpt>
      <trkpt lat="50.8851" lon="1.66233">
        <ele>14.199999809265</ele>
        <time>2023-08-08T11:34:21.000Z</time>
      </trkpt>
      <trkpt lat="50.88516" lon="1.66254">
        <ele>14.60000038147</ele>
        <time>2023-08-08T11:34:26.000Z</time>
      </trkpt>
      <trkpt lat="50.88521" lon="1.66279">
        <ele>15.199999809265</ele>
        <time>2023-08-08T11:34:31.000Z</time>
      </trkpt>
      <trkpt lat="50.88523" lon="1.66292">
        <ele>15.39999961853</ele>
        <time>2023-08-08T11:34:34.000Z</time>
      </trkpt>
      <trkpt lat="50.88527" lon="1.66311">
        <ele>15.800000190735</ele>
        <time>2023-08-08T11:34:40.000Z</time>
      </trkpt>
      <trkpt lat="50.88526" lon="1.66323">
        <ele>15.800000190735</ele>
        <time>2023-08-08T11:34:44.000Z</time>
      </trkpt>
      <trkpt lat="50.88524" lon="1.66325">
        <ele>15.800000190735</ele>
        <time>2023-08-08T11:34:45.000Z</time>
      </trkpt>
      <trkpt lat="50.88519" lon="1.66328">
        <ele>15.800000190735</ele>
        <time>2023-08-08T11:34:47.000Z</time>
      </trkpt>
      <trkpt lat="50.88506" lon="1.66333">
        <ele>16</ele>
        <time>2023-08-08T11:34:52.000Z</time>
      </trkpt>
      <trkpt lat="50.88501" lon="1.66335">
        <ele>16.39999961853</ele>
        <time>2023-08-08T11:34:54.000Z</time>
      </trkpt>
      <trkpt lat="50.88483" lon="1.66341">
        <ele>17.60000038147</ele>
        <time>2023-08-08T11:35:01.000Z</time>
      </trkpt>
      <trkpt lat="50.88461" lon="1.66346">
        <ele>18.799999237061</ele>
        <time>2023-08-08T11:35:09.000Z</time>
      </trkpt>
      <trkpt lat="50.88459" lon="1.66346">
        <ele>19</ele>
        <time>2023-08-08T11:35:10.000Z</time>
      </trkpt>
      <trkpt lat="50.88451" lon="1.66348">
        <ele>20</ele>
        <time>2023-08-08T11:35:13.000Z</time>
      </trkpt>
      <trkpt lat="50.8844" lon="1.66353">
        <ele>20.799999237061</ele>
        <time>2023-08-08T11:35:18.000Z</time>
      </trkpt>
      <trkpt lat="50.88435" lon="1.66354">
        <ele>21.39999961853</ele>
        <time>2023-08-08T11:35:20.000Z</time>
      </trkpt>
      <trkpt lat="50.88422" lon="1.66358">
        <ele>22</ele>
        <time>2023-08-08T11:35:25.000Z</time>
      </trkpt>
      <trkpt lat="50.88415" lon="1.66361">
        <ele>22.799999237061</ele>
        <time>2023-08-08T11:35:28.000Z</time>
      </trkpt>
      <trkpt lat="50.88409" lon="1.66362">
        <ele>23</ele>
        <time>2023-08-08T11:35:30.000Z</time>
      </trkpt>
      <trkpt lat="50.884" lon="1.66369">
        <ele>23.39999961853</ele>
        <time>2023-08-08T11:35:34.000Z</time>
      </trkpt>
      <trkpt lat="50.88381" lon="1.66388">
        <ele>24</ele>
        <time>2023-08-08T11:35:42.000Z</time>
      </trkpt>
      <trkpt lat="50.88377" lon="1.66392">
        <ele>24.39999961853</ele>
        <time>2023-08-08T11:35:44.000Z</time>
      </trkpt>
      <trkpt lat="50.88365" lon="1.6641">
        <ele>25.60000038147</ele>
        <time>2023-08-08T11:35:50.000Z</time>
      </trkpt>
      <trkpt lat="50.88345" lon="1.6644">
        <ele>26.799999237061</ele>
        <time>2023-08-08T11:36:00.000Z</time>
      </trkpt>
      <trkpt lat="50.88343" lon="1.66443">
        <ele>26.799999237061</ele>
        <time>2023-08-08T11:36:01.000Z</time>
      </trkpt>
      <trkpt lat="50.88328" lon="1.66464">
        <ele>27.799999237061</ele>
        <time>2023-08-08T11:36:08.000Z</time>
      </trkpt>
      <trkpt lat="50.88325" lon="1.66468">
        <ele>27.799999237061</ele>
        <time>2023-08-08T11:36:09.000Z</time>
      </trkpt>
      <trkpt lat="50.88303" lon="1.66498">
        <ele>28.39999961853</ele>
        <time>2023-08-08T11:36:18.000Z</time>
      </trkpt>
      <trkpt lat="50.8828" lon="1.66534">
        <ele>28.799999237061</ele>
        <time>2023-08-08T11:36:27.000Z</time>
      </trkpt>
      <trkpt lat="50.88255" lon="1.66569">
        <ele>29.39999961853</ele>
        <time>2023-08-08T11:36:35.000Z</time>
      </trkpt>
      <trkpt lat="50.88232" lon="1.66604">
        <ele>29.39999961853</ele>
        <time>2023-08-08T11:36:41.000Z</time>
      </trkpt>
      <trkpt lat="50.88203" lon="1.66646">
        <ele>28.39999961853</ele>
        <time>2023-08-08T11:36:48.000Z</time>
      </trkpt>
      <trkpt lat="50.88167" lon="1.66684">
        <ele>27.799999237061</ele>
        <time>2023-08-08T11:36:55.000Z</time>
      </trkpt>
      <trkpt lat="50.8813" lon="1.66711">
        <ele>27.60000038147</ele>
        <time>2023-08-08T11:37:03.000Z</time>
      </trkpt>
      <trkpt lat="50.88088" lon="1.66734">
        <ele>28.200000762939</ele>
        <time>2023-08-08T11:37:12.000Z</time>
      </trkpt>
      <trkpt lat="50.88059" lon="1.66752">
        <ele>28.799999237061</ele>
        <time>2023-08-08T11:37:19.000Z</time>
      </trkpt>
      <trkpt lat="50.88043" lon="1.66761">
        <ele>29.200000762939</ele>
        <time>2023-08-08T11:37:23.000Z</time>
      </trkpt>
      <trkpt lat="50.88025" lon="1.66772">
        <ele>30</ele>
        <time>2023-08-08T11:37:28.000Z</time>
      </trkpt>
      <trkpt lat="50.88015" lon="1.66777">
        <ele>30.200000762939</ele>
        <time>2023-08-08T11:37:31.000Z</time>
      </trkpt>
      <trkpt lat="50.87998" lon="1.66787">
        <ele>31</ele>
        <time>2023-08-08T11:37:36.000Z</time>
      </trkpt>
      <trkpt lat="50.87985" lon="1.66794">
        <ele>31.39999961853</ele>
        <time>2023-08-08T11:37:40.000Z</time>
      </trkpt>
      <trkpt lat="50.8797" lon="1.66803">
        <ele>32</ele>
        <time>2023-08-08T11:37:45.000Z</time>
      </trkpt>
      <trkpt lat="50.8795" lon="1.66814">
        <ele>32.799999237061</ele>
        <time>2023-08-08T11:37:51.000Z</time>
      </trkpt>
      <trkpt lat="50.87941" lon="1.66819">
        <ele>33.200000762939</ele>
        <time>2023-08-08T11:37:54.000Z</time>
      </trkpt>
      <trkpt lat="50.87921" lon="1.66831">
        <ele>34.200000762939</ele>
        <time>2023-08-08T11:38:00.000Z</time>
      </trkpt>
      <trkpt lat="50.87914" lon="1.66834">
        <ele>34.400001525879</ele>
        <time>2023-08-08T11:38:02.000Z</time>
      </trkpt>
      <trkpt lat="50.87875" lon="1.66857">
        <ele>35.200000762939</ele>
        <time>2023-08-08T11:38:12.000Z</time>
      </trkpt>
      <trkpt lat="50.87834" lon="1.66876">
        <ele>34.799999237061</ele>
        <time>2023-08-08T11:38:21.000Z</time>
      </trkpt>
      <trkpt lat="50.87798" lon="1.66885">
        <ele>34.400001525879</ele>
        <time>2023-08-08T11:38:29.000Z</time>
      </trkpt>
      <trkpt lat="50.87769" lon="1.66886">
        <ele>34.200000762939</ele>
        <time>2023-08-08T11:38:36.000Z</time>
      </trkpt>
      <trkpt lat="50.87746" lon="1.66881">
        <ele>35</ele>
        <time>2023-08-08T11:38:43.000Z</time>
      </trkpt>
      <trkpt lat="50.8774" lon="1.6688">
        <ele>35.400001525879</ele>
        <time>2023-08-08T11:38:45.000Z</time>
      </trkpt>
      <trkpt lat="50.87729" lon="1.66877">
        <ele>36.400001525879</ele>
        <time>2023-08-08T11:38:49.000Z</time>
      </trkpt>
      <trkpt lat="50.87726" lon="1.66876">
        <ele>37</ele>
        <time>2023-08-08T11:38:50.000Z</time>
      </trkpt>
      <trkpt lat="50.8772" lon="1.66875">
        <ele>37.599998474121</ele>
        <time>2023-08-08T11:38:52.000Z</time>
      </trkpt>
      <trkpt lat="50.87707" lon="1.66869">
        <ele>38.799999237061</ele>
        <time>2023-08-08T11:38:57.000Z</time>
      </trkpt>
      <trkpt lat="50.87704" lon="1.66868">
        <ele>39</ele>
        <time>2023-08-08T11:38:58.000Z</time>
      </trkpt>
      <trkpt lat="50.87693" lon="1.66863">
        <ele>40</ele>
        <time>2023-08-08T11:39:02.000Z</time>
      </trkpt>
      <trkpt lat="50.87681" lon="1.66857">
        <ele>40.799999237061</ele>
        <time>2023-08-08T11:39:06.000Z</time>
      </trkpt>
      <trkpt lat="50.87672" lon="1.66852">
        <ele>41.200000762939</ele>
        <time>2023-08-08T11:39:09.000Z</time>
      </trkpt>
      <trkpt lat="50.87662" lon="1.66848">
        <ele>42</ele>
        <time>2023-08-08T11:39:13.000Z</time>
      </trkpt>
      <trkpt lat="50.87658" lon="1.66847">
        <ele>42.200000762939</ele>
        <time>2023-08-08T11:39:14.000Z</time>
      </trkpt>
      <trkpt lat="50.87634" lon="1.66841">
        <ele>42.799999237061</ele>
        <time>2023-08-08T11:39:21.000Z</time>
      </trkpt>
      <trkpt lat="50.87611" lon="1.66838">
        <ele>43.200000762939</ele>
        <time>2023-08-08T11:39:27.000Z</time>
      </trkpt>
      <trkpt lat="50.87606" lon="1.66838">
        <ele>43.400001525879</ele>
        <time>2023-08-08T11:39:28.000Z</time>
      </trkpt>
      <trkpt lat="50.87565" lon="1.66842">
        <ele>43.200000762939</ele>
        <time>2023-08-08T11:39:36.000Z</time>
      </trkpt>
      <trkpt lat="50.87533" lon="1.66852">
        <ele>42.200000762939</ele>
        <time>2023-08-08T11:39:42.000Z</time>
      </trkpt>
      <trkpt lat="50.87514" lon="1.66858">
        <ele>41.599998474121</ele>
        <time>2023-08-08T11:39:45.000Z</time>
      </trkpt>
      <trkpt lat="50.87504" lon="1.66862">
        <ele>41</ele>
        <time>2023-08-08T11:39:47.000Z</time>
      </trkpt>
      <trkpt lat="50.87461" lon="1.66878">
        <ele>40</ele>
        <time>2023-08-08T11:39:54.000Z</time>
      </trkpt>
      <trkpt lat="50.87415" lon="1.66895">
        <ele>39.599998474121</ele>
        <time>2023-08-08T11:40:02.000Z</time>
      </trkpt>
      <trkpt lat="50.87368" lon="1.66913">
        <ele>39.599998474121</ele>
        <time>2023-08-08T11:40:11.000Z</time>
      </trkpt>
      <trkpt lat="50.87325" lon="1.66925">
        <ele>40.400001525879</ele>
        <time>2023-08-08T11:40:20.000Z</time>
      </trkpt>
      <trkpt lat="50.87308" lon="1.66928">
        <ele>41.200000762939</ele>
        <time>2023-08-08T11:40:24.000Z</time>
      </trkpt>
      <trkpt lat="50.87289" lon="1.66928">
        <ele>41.599998474121</ele>
        <time>2023-08-08T11:40:28.000Z</time>
      </trkpt>
      <trkpt lat="50.87277" lon="1.66927">
        <ele>42.200000762939</ele>
        <time>2023-08-08T11:40:31.000Z</time>
      </trkpt>
      <trkpt lat="50.87246" lon="1.66922">
        <ele>42.799999237061</ele>
        <time>2023-08-08T11:40:37.000Z</time>
      </trkpt>
      <trkpt lat="50.87202" lon="1.66919">
        <ele>42.799999237061</ele>
        <time>2023-08-08T11:40:45.000Z</time>
      </trkpt>
      <trkpt lat="50.87155" lon="1.66929">
        <ele>41.799999237061</ele>
        <time>2023-08-08T11:40:53.000Z</time>
      </trkpt>
      <trkpt lat="50.87131" lon="1.66938">
        <ele>41</ele>
        <time>2023-08-08T11:40:57.000Z</time>
      </trkpt>
      <trkpt lat="50.87077" lon="1.6696">
        <ele>40.200000762939</ele>
        <time>2023-08-08T11:41:06.000Z</time>
      </trkpt>
      <trkpt lat="50.87065" lon="1.66965">
        <ele>40</ele>
        <time>2023-08-08T11:41:08.000Z</time>
      </trkpt>
      <trkpt lat="50.87011" lon="1.66986">
        <ele>39.200000762939</ele>
        <time>2023-08-08T11:41:17.000Z</time>
      </trkpt>
      <trkpt lat="50.86994" lon="1.66992">
        <ele>39</ele>
        <time>2023-08-08T11:41:20.000Z</time>
      </trkpt>
      <trkpt lat="50.86981" lon="1.66998">
        <ele>38.799999237061</ele>
        <time>2023-08-08T11:41:22.000Z</time>
      </trkpt>
      <trkpt lat="50.86929" lon="1.67018">
        <ele>38.400001525879</ele>
        <time>2023-08-08T11:41:31.000Z</time>
      </trkpt>
      <trkpt lat="50.86884" lon="1.67037">
        <ele>37.799999237061</ele>
        <time>2023-08-08T11:41:38.000Z</time>
      </trkpt>
      <trkpt lat="50.86863" lon="1.67045">
        <ele>37.200000762939</ele>
        <time>2023-08-08T11:41:41.000Z</time>
      </trkpt>
      <trkpt lat="50.86849" lon="1.67051">
        <ele>36.599998474121</ele>
        <time>2023-08-08T11:41:43.000Z</time>
      </trkpt>
      <trkpt lat="50.86827" lon="1.67059">
        <ele>35.599998474121</ele>
        <time>2023-08-08T11:41:46.000Z</time>
      </trkpt>
      <trkpt lat="50.86806" lon="1.67069">
        <ele>35.200000762939</ele>
        <time>2023-08-08T11:41:49.000Z</time>
      </trkpt>
      <trkpt lat="50.86792" lon="1.67075">
        <ele>34.599998474121</ele>
        <time>2023-08-08T11:41:51.000Z</time>
      </trkpt>
      <trkpt lat="50.86758" lon="1.67089">
        <ele>33.599998474121</ele>
        <time>2023-08-08T11:41:56.000Z</time>
      </trkpt>
      <trkpt lat="50.86739" lon="1.67097">
        <ele>33</ele>
        <time>2023-08-08T11:41:59.000Z</time>
      </trkpt>
      <trkpt lat="50.86719" lon="1.67104">
        <ele>32.400001525879</ele>
        <time>2023-08-08T11:42:02.000Z</time>
      </trkpt>
      <trkpt lat="50.86682" lon="1.67116">
        <ele>32</ele>
        <time>2023-08-08T11:42:08.000Z</time>
      </trkpt>
      <trkpt lat="50.86663" lon="1.6712">
        <ele>32</ele>
        <time>2023-08-08T11:42:11.000Z</time>
      </trkpt>
      <trkpt lat="50.8665" lon="1.67123">
        <ele>31.799999237061</ele>
        <time>2023-08-08T11:42:13.000Z</time>
      </trkpt>
      <trkpt lat="50.86612" lon="1.67134">
        <ele>31.39999961853</ele>
        <time>2023-08-08T11:42:19.000Z</time>
      </trkpt>
      <trkpt lat="50.86593" lon="1.67139">
        <ele>31.200000762939</ele>
        <time>2023-08-08T11:42:22.000Z</time>
      </trkpt>
      <trkpt lat="50.86537" lon="1.6716">
        <ele>30.60000038147</ele>
        <time>2023-08-08T11:42:31.000Z</time>
      </trkpt>
      <trkpt lat="50.86525" lon="1.67165">
        <ele>30.60000038147</ele>
        <time>2023-08-08T11:42:33.000Z</time>
      </trkpt>
      <trkpt lat="50.8649" lon="1.67179">
        <ele>30.799999237061</ele>
        <time>2023-08-08T11:42:39.000Z</time>
      </trkpt>
      <trkpt lat="50.86438" lon="1.67204">
        <ele>30.799999237061</ele>
        <time>2023-08-08T11:42:49.000Z</time>
      </trkpt>
      <trkpt lat="50.86397" lon="1.67226">
        <ele>31.60000038147</ele>
        <time>2023-08-08T11:42:58.000Z</time>
      </trkpt>
      <trkpt lat="50.86356" lon="1.67249">
        <ele>32.200000762939</ele>
        <time>2023-08-08T11:43:07.000Z</time>
      </trkpt>
      <trkpt lat="50.8634" lon="1.67261">
        <ele>32.599998474121</ele>
        <time>2023-08-08T11:43:11.000Z</time>
      </trkpt>
      <trkpt lat="50.86314" lon="1.67278">
        <ele>33.200000762939</ele>
        <time>2023-08-08T11:43:17.000Z</time>
      </trkpt>
      <trkpt lat="50.86277" lon="1.67306">
        <ele>33.200000762939</ele>
        <time>2023-08-08T11:43:25.000Z</time>
      </trkpt>
      <trkpt lat="50.86267" lon="1.67313">
        <ele>33</ele>
        <time>2023-08-08T11:43:27.000Z</time>
      </trkpt>
      <trkpt lat="50.86229" lon="1.67331">
        <ele>32.200000762939</ele>
        <time>2023-08-08T11:43:34.000Z</time>
      </trkpt>
      <trkpt lat="50.86179" lon="1.67335">
        <ele>31.799999237061</ele>
        <time>2023-08-08T11:43:43.000Z</time>
      </trkpt>
      <trkpt lat="50.86168" lon="1.67335">
        <ele>31.60000038147</ele>
        <time>2023-08-08T11:43:45.000Z</time>
      </trkpt>
      <trkpt lat="50.86125" lon="1.67343">
        <ele>31.39999961853</ele>
        <time>2023-08-08T11:43:53.000Z</time>
      </trkpt>
      <trkpt lat="50.86071" lon="1.67367">
        <ele>30.799999237061</ele>
        <time>2023-08-08T11:44:03.000Z</time>
      </trkpt>
      <trkpt lat="50.86067" lon="1.67369">
        <ele>30.60000038147</ele>
        <time>2023-08-08T11:44:04.000Z</time>
      </trkpt>
      <trkpt lat="50.86047" lon="1.67379">
        <ele>30.60000038147</ele>
        <time>2023-08-08T11:44:08.000Z</time>
      </trkpt>
      <trkpt lat="50.86011" lon="1.67396">
        <ele>30.60000038147</ele>
        <time>2023-08-08T11:44:15.000Z</time>
      </trkpt>
      <trkpt lat="50.85955" lon="1.67422">
        <ele>30.60000038147</ele>
        <time>2023-08-08T11:44:26.000Z</time>
      </trkpt>
      <trkpt lat="50.85951" lon="1.67424">
        <ele>30.799999237061</ele>
        <time>2023-08-08T11:44:27.000Z</time>
      </trkpt>
      <trkpt lat="50.85897" lon="1.67442">
        <ele>31.39999961853</ele>
        <time>2023-08-08T11:44:38.000Z</time>
      </trkpt>
      <trkpt lat="50.85848" lon="1.67458">
        <ele>31</ele>
        <time>2023-08-08T11:44:48.000Z</time>
      </trkpt>
      <trkpt lat="50.85802" lon="1.6748">
        <ele>31.39999961853</ele>
        <time>2023-08-08T11:44:58.000Z</time>
      </trkpt>
      <trkpt lat="50.85795" lon="1.67487">
        <ele>31.60000038147</ele>
        <time>2023-08-08T11:45:00.000Z</time>
      </trkpt>
      <trkpt lat="50.85774" lon="1.67505">
        <ele>32.599998474121</ele>
        <time>2023-08-08T11:45:05.000Z</time>
      </trkpt>
      <trkpt lat="50.85746" lon="1.67529">
        <ele>33.799999237061</ele>
        <time>2023-08-08T11:45:12.000Z</time>
      </trkpt>
      <trkpt lat="50.85727" lon="1.67542">
        <ele>33.799999237061</ele>
        <time>2023-08-08T11:45:16.000Z</time>
      </trkpt>
      <trkpt lat="50.85692" lon="1.67555">
        <ele>34</ele>
        <time>2023-08-08T11:45:22.000Z</time>
      </trkpt>
      <trkpt lat="50.8565" lon="1.67562">
        <ele>33.200000762939</ele>
        <time>2023-08-08T11:45:28.000Z</time>
      </trkpt>
      <trkpt lat="50.85635" lon="1.67567">
        <ele>32.599998474121</ele>
        <time>2023-08-08T11:45:30.000Z</time>
      </trkpt>
      <trkpt lat="50.8562" lon="1.67573">
        <ele>31.39999961853</ele>
        <time>2023-08-08T11:45:32.000Z</time>
      </trkpt>
      <trkpt lat="50.85614" lon="1.67577">
        <ele>31.200000762939</ele>
        <time>2023-08-08T11:45:33.000Z</time>
      </trkpt>
      <trkpt lat="50.85595" lon="1.67589">
        <ele>30</ele>
        <time>2023-08-08T11:45:36.000Z</time>
      </trkpt>
      <trkpt lat="50.85581" lon="1.67598">
        <ele>29.60000038147</ele>
        <time>2023-08-08T11:45:38.000Z</time>
      </trkpt>
      <trkpt lat="50.85569" lon="1.67608">
        <ele>29.39999961853</ele>
        <time>2023-08-08T11:45:40.000Z</time>
      </trkpt>
      <trkpt lat="50.85551" lon="1.67625">
        <ele>29.39999961853</ele>
        <time>2023-08-08T11:45:43.000Z</time>
      </trkpt>
      <trkpt lat="50.85518" lon="1.67642">
        <ele>29</ele>
        <time>2023-08-08T11:45:49.000Z</time>
      </trkpt>
      <trkpt lat="50.85507" lon="1.67645">
        <ele>29</ele>
        <time>2023-08-08T11:45:51.000Z</time>
      </trkpt>
      <trkpt lat="50.85476" lon="1.67652">
        <ele>29.39999961853</ele>
        <time>2023-08-08T11:45:57.000Z</time>
      </trkpt>
      <trkpt lat="50.85431" lon="1.67663">
        <ele>30</ele>
        <time>2023-08-08T11:46:05.000Z</time>
      </trkpt>
      <trkpt lat="50.85378" lon="1.67675">
        <ele>30.200000762939</ele>
        <time>2023-08-08T11:46:15.000Z</time>
      </trkpt>
      <trkpt lat="50.85372" lon="1.67676">
        <ele>30.200000762939</ele>
        <time>2023-08-08T11:46:16.000Z</time>
      </trkpt>
      <trkpt lat="50.85315" lon="1.67691">
        <ele>29.799999237061</ele>
        <time>2023-08-08T11:46:26.000Z</time>
      </trkpt>
      <trkpt lat="50.85309" lon="1.67693">
        <ele>29.60000038147</ele>
        <time>2023-08-08T11:46:27.000Z</time>
      </trkpt>
      <trkpt lat="50.85253" lon="1.67712">
        <ele>28.39999961853</ele>
        <time>2023-08-08T11:46:36.000Z</time>
      </trkpt>
      <trkpt lat="50.85241" lon="1.67715">
        <ele>28</ele>
        <time>2023-08-08T11:46:38.000Z</time>
      </trkpt>
      <trkpt lat="50.85233" lon="1.67716">
        <ele>27.799999237061</ele>
        <time>2023-08-08T11:46:39.000Z</time>
      </trkpt>
      <trkpt lat="50.85198" lon="1.67722">
        <ele>27</ele>
        <time>2023-08-08T11:46:44.000Z</time>
      </trkpt>
      <trkpt lat="50.85179" lon="1.67723">
        <ele>26.39999961853</ele>
        <time>2023-08-08T11:46:47.000Z</time>
      </trkpt>
      <trkpt lat="50.85164" lon="1.67723">
        <ele>25.799999237061</ele>
        <time>2023-08-08T11:46:49.000Z</time>
      </trkpt>
      <trkpt lat="50.85135" lon="1.67721">
        <ele>24.799999237061</ele>
        <time>2023-08-08T11:46:53.000Z</time>
      </trkpt>
      <trkpt lat="50.85112" lon="1.67718">
        <ele>24.200000762939</ele>
        <time>2023-08-08T11:46:56.000Z</time>
      </trkpt>
      <trkpt lat="50.85105" lon="1.67716">
        <ele>23.799999237061</ele>
        <time>2023-08-08T11:46:57.000Z</time>
      </trkpt>
      <trkpt lat="50.85053" lon="1.67709">
        <ele>22.799999237061</ele>
        <time>2023-08-08T11:47:05.000Z</time>
      </trkpt>
      <trkpt lat="50.85039" lon="1.67708">
        <ele>22.60000038147</ele>
        <time>2023-08-08T11:47:07.000Z</time>
      </trkpt>
      <trkpt lat="50.84993" lon="1.67718">
        <ele>22.200000762939</ele>
        <time>2023-08-08T11:47:15.000Z</time>
      </trkpt>
      <trkpt lat="50.84967" lon="1.67731">
        <ele>21.799999237061</ele>
        <time>2023-08-08T11:47:20.000Z</time>
      </trkpt>
      <trkpt lat="50.8495" lon="1.67743">
        <ele>21.799999237061</ele>
        <time>2023-08-08T11:47:23.000Z</time>
      </trkpt>
      <trkpt lat="50.849" lon="1.67781">
        <ele>21.39999961853</ele>
        <time>2023-08-08T11:47:33.000Z</time>
      </trkpt>
      <trkpt lat="50.84862" lon="1.6781">
        <ele>22</ele>
        <time>2023-08-08T11:47:41.000Z</time>
      </trkpt>
      <trkpt lat="50.8482" lon="1.67843">
        <ele>22.799999237061</ele>
        <time>2023-08-08T11:47:50.000Z</time>
      </trkpt>
      <trkpt lat="50.84816" lon="1.67845">
        <ele>22.799999237061</ele>
        <time>2023-08-08T11:47:51.000Z</time>
      </trkpt>
      <trkpt lat="50.84765" lon="1.67883">
        <ele>23.39999961853</ele>
        <time>2023-08-08T11:48:02.000Z</time>
      </trkpt>
      <trkpt lat="50.84721" lon="1.67908">
        <ele>23</ele>
        <time>2023-08-08T11:48:10.000Z</time>
      </trkpt>
      <trkpt lat="50.84678" lon="1.67922">
        <ele>22.200000762939</ele>
        <time>2023-08-08T11:48:17.000Z</time>
      </trkpt>
      <trkpt lat="50.84664" lon="1.67927">
        <ele>21.799999237061</ele>
        <time>2023-08-08T11:48:19.000Z</time>
      </trkpt>
      <trkpt lat="50.84623" lon="1.67941">
        <ele>21</ele>
        <time>2023-08-08T11:48:26.000Z</time>
      </trkpt>
      <trkpt lat="50.84589" lon="1.67958">
        <ele>21.200000762939</ele>
        <time>2023-08-08T11:48:33.000Z</time>
      </trkpt>
      <trkpt lat="50.84542" lon="1.67986">
        <ele>22</ele>
        <time>2023-08-08T11:48:42.000Z</time>
      </trkpt>
      <trkpt lat="50.84498" lon="1.6802">
        <ele>21.39999961853</ele>
        <time>2023-08-08T11:48:50.000Z</time>
      </trkpt>
      <trkpt lat="50.84464" lon="1.6805">
        <ele>20.799999237061</ele>
        <time>2023-08-08T11:48:56.000Z</time>
      </trkpt>
      <trkpt lat="50.84448" lon="1.68065">
        <ele>20.200000762939</ele>
        <time>2023-08-08T11:48:59.000Z</time>
      </trkpt>
      <trkpt lat="50.84409" lon="1.68108">
        <ele>19.799999237061</ele>
        <time>2023-08-08T11:49:07.000Z</time>
      </trkpt>
      <trkpt lat="50.84385" lon="1.68139">
        <ele>19.799999237061</ele>
        <time>2023-08-08T11:49:12.000Z</time>
      </trkpt>
      <trkpt lat="50.84362" lon="1.6817">
        <ele>19.60000038147</ele>
        <time>2023-08-08T11:49:17.000Z</time>
      </trkpt>
      <trkpt lat="50.84323" lon="1.6823">
        <ele>19.60000038147</ele>
        <time>2023-08-08T11:49:26.000Z</time>
      </trkpt>
      <trkpt lat="50.84314" lon="1.68244">
        <ele>19.39999961853</ele>
        <time>2023-08-08T11:49:28.000Z</time>
      </trkpt>
      <trkpt lat="50.84296" lon="1.68282">
        <ele>19.39999961853</ele>
        <time>2023-08-08T11:49:33.000Z</time>
      </trkpt>
      <trkpt lat="50.84266" lon="1.68338">
        <ele>18.799999237061</ele>
        <time>2023-08-08T11:49:40.000Z</time>
      </trkpt>
      <trkpt lat="50.84247" lon="1.68367">
        <ele>18.39999961853</ele>
        <time>2023-08-08T11:49:44.000Z</time>
      </trkpt>
      <trkpt lat="50.84237" lon="1.68379">
        <ele>18.200000762939</ele>
        <time>2023-08-08T11:49:46.000Z</time>
      </trkpt>
      <trkpt lat="50.84211" lon="1.68399">
        <ele>17.60000038147</ele>
        <time>2023-08-08T11:49:50.000Z</time>
      </trkpt>
      <trkpt lat="50.84205" lon="1.68403">
        <ele>17.60000038147</ele>
        <time>2023-08-08T11:49:51.000Z</time>
      </trkpt>
      <trkpt lat="50.84186" lon="1.68413">
        <ele>17.39999961853</ele>
        <time>2023-08-08T11:49:54.000Z</time>
      </trkpt>
      <trkpt lat="50.84167" lon="1.68417">
        <ele>17</ele>
        <time>2023-08-08T11:49:57.000Z</time>
      </trkpt>
      <trkpt lat="50.84145" lon="1.68417">
        <ele>16.60000038147</ele>
        <time>2023-08-08T11:50:00.000Z</time>
      </trkpt>
      <trkpt lat="50.84125" lon="1.68412">
        <ele>15.800000190735</ele>
        <time>2023-08-08T11:50:03.000Z</time>
      </trkpt>
      <trkpt lat="50.84075" lon="1.68394">
        <ele>15.60000038147</ele>
        <time>2023-08-08T11:50:11.000Z</time>
      </trkpt>
      <trkpt lat="50.84057" lon="1.68389">
        <ele>15.39999961853</ele>
        <time>2023-08-08T11:50:14.000Z</time>
      </trkpt>
      <trkpt lat="50.84015" lon="1.68381">
        <ele>15.199999809265</ele>
        <time>2023-08-08T11:50:21.000Z</time>
      </trkpt>
      <trkpt lat="50.83987" lon="1.68392">
        <ele>15.199999809265</ele>
        <time>2023-08-08T11:50:26.000Z</time>
      </trkpt>
      <trkpt lat="50.83939" lon="1.6843">
        <ele>15</ele>
        <time>2023-08-08T11:50:35.000Z</time>
      </trkpt>
      <trkpt lat="50.83928" lon="1.6844">
        <ele>14.800000190735</ele>
        <time>2023-08-08T11:50:37.000Z</time>
      </trkpt>
      <trkpt lat="50.83923" lon="1.68444">
        <ele>14.60000038147</ele>
        <time>2023-08-08T11:50:38.000Z</time>
      </trkpt>
      <trkpt lat="50.83895" lon="1.68468">
        <ele>13.800000190735</ele>
        <time>2023-08-08T11:50:43.000Z</time>
      </trkpt>
      <trkpt lat="50.83851" lon="1.68505">
        <ele>13.60000038147</ele>
        <time>2023-08-08T11:50:51.000Z</time>
      </trkpt>
      <trkpt lat="50.83841" lon="1.68514">
        <ele>13.39999961853</ele>
        <time>2023-08-08T11:50:53.000Z</time>
      </trkpt>
      <trkpt lat="50.83797" lon="1.68547">
        <ele>13.199999809265</ele>
        <time>2023-08-08T11:51:01.000Z</time>
      </trkpt>
      <trkpt lat="50.83743" lon="1.68583">
        <ele>13.199999809265</ele>
        <time>2023-08-08T11:51:11.000Z</time>
      </trkpt>
      <trkpt lat="50.83692" lon="1.68613">
        <ele>12.800000190735</ele>
        <time>2023-08-08T11:51:20.000Z</time>
      </trkpt>
      <trkpt lat="50.83688" lon="1.68614">
        <ele>12.800000190735</ele>
        <time>2023-08-08T11:51:21.000Z</time>
      </trkpt>
      <trkpt lat="50.83654" lon="1.68621">
        <ele>13.199999809265</ele>
        <time>2023-08-08T11:51:27.000Z</time>
      </trkpt>
      <trkpt lat="50.83643" lon="1.68621">
        <ele>13.39999961853</ele>
        <time>2023-08-08T11:51:29.000Z</time>
      </trkpt>
      <trkpt lat="50.83588" lon="1.68622">
        <ele>14</ele>
        <time>2023-08-08T11:51:39.000Z</time>
      </trkpt>
      <trkpt lat="50.83578" lon="1.68622">
        <ele>14.199999809265</ele>
        <time>2023-08-08T11:51:41.000Z</time>
      </trkpt>
      <trkpt lat="50.83561" lon="1.68623">
        <ele>14.60000038147</ele>
        <time>2023-08-08T11:51:44.000Z</time>
      </trkpt>
      <trkpt lat="50.83524" lon="1.68625">
        <ele>14.60000038147</ele>
        <time>2023-08-08T11:51:51.000Z</time>
      </trkpt>
      <trkpt lat="50.83488" lon="1.68628">
        <ele>15</ele>
        <time>2023-08-08T11:51:58.000Z</time>
      </trkpt>
      <trkpt lat="50.83471" lon="1.68632">
        <ele>15.199999809265</ele>
        <time>2023-08-08T11:52:01.000Z</time>
      </trkpt>
      <trkpt lat="50.83465" lon="1.68634">
        <ele>15.199999809265</ele>
        <time>2023-08-08T11:52:02.000Z</time>
      </trkpt>
      <trkpt lat="50.83456" lon="1.6864">
        <ele>15.199999809265</ele>
        <time>2023-08-08T11:52:04.000Z</time>
      </trkpt>
      <trkpt lat="50.83436" lon="1.68655">
        <ele>14.60000038147</ele>
        <time>2023-08-08T11:52:09.000Z</time>
      </trkpt>
      <trkpt lat="50.83434" lon="1.68655">
        <ele>14.39999961853</ele>
        <time>2023-08-08T11:52:10.000Z</time>
      </trkpt>
      <trkpt lat="50.83432" lon="1.68653">
        <ele>14.199999809265</ele>
        <time>2023-08-08T11:52:12.000Z</time>
      </trkpt>
      <trkpt lat="50.83434" lon="1.6865">
        <ele>14</ele>
        <time>2023-08-08T11:52:16.000Z</time>
      </trkpt>
      <trkpt lat="50.83435" lon="1.6865">
        <ele>13.800000190735</ele>
        <time>2023-08-08T11:52:18.000Z</time>
      </trkpt>
      <trkpt lat="50.83435" lon="1.6865">
        <ele>13.800000190735</ele>
        <time>2023-08-08T11:52:19.000Z</time>
      </trkpt>
      <trkpt lat="50.83431" lon="1.68656">
        <ele>13</ele>
        <time>2023-08-08T11:56:54.000Z</time>
      </trkpt>
      <trkpt lat="50.83427" lon="1.68661">
        <ele>12.800000190735</ele>
        <time>2023-08-08T11:56:56.000Z</time>
      </trkpt>
      <trkpt lat="50.83411" lon="1.6868">
        <ele>12.60000038147</ele>
        <time>2023-08-08T11:57:00.000Z</time>
      </trkpt>
      <trkpt lat="50.83387" lon="1.68705">
        <ele>12.199999809265</ele>
        <time>2023-08-08T11:57:04.000Z</time>
      </trkpt>
      <trkpt lat="50.83375" lon="1.68717">
        <ele>11.60000038147</ele>
        <time>2023-08-08T11:57:06.000Z</time>
      </trkpt>
      <trkpt lat="50.83351" lon="1.68737">
        <ele>11</ele>
        <time>2023-08-08T11:57:10.000Z</time>
      </trkpt>
      <trkpt lat="50.83309" lon="1.68764">
        <ele>11.199999809265</ele>
        <time>2023-08-08T11:57:17.000Z</time>
      </trkpt>
      <trkpt lat="50.83277" lon="1.68776">
        <ele>11.39999961853</ele>
        <time>2023-08-08T11:57:23.000Z</time>
      </trkpt>
      <trkpt lat="50.83265" lon="1.68782">
        <ele>11.60000038147</ele>
        <time>2023-08-08T11:57:26.000Z</time>
      </trkpt>
      <trkpt lat="50.83257" lon="1.68785">
        <ele>12</ele>
        <time>2023-08-08T11:57:28.000Z</time>
      </trkpt>
      <trkpt lat="50.83235" lon="1.68794">
        <ele>12.800000190735</ele>
        <time>2023-08-08T11:57:35.000Z</time>
      </trkpt>
      <trkpt lat="50.83228" lon="1.68796">
        <ele>13</ele>
        <time>2023-08-08T11:57:37.000Z</time>
      </trkpt>
      <trkpt lat="50.83215" lon="1.688">
        <ele>14</ele>
        <time>2023-08-08T11:57:42.000Z</time>
      </trkpt>
      <trkpt lat="50.83212" lon="1.68801">
        <ele>14.199999809265</ele>
        <time>2023-08-08T11:57:43.000Z</time>
      </trkpt>
      <trkpt lat="50.83199" lon="1.68808">
        <ele>15.199999809265</ele>
        <time>2023-08-08T11:57:48.000Z</time>
      </trkpt>
      <trkpt lat="50.83196" lon="1.68809">
        <ele>15.60000038147</ele>
        <time>2023-08-08T11:57:49.000Z</time>
      </trkpt>
      <trkpt lat="50.83183" lon="1.68816">
        <ele>16.799999237061</ele>
        <time>2023-08-08T11:57:54.000Z</time>
      </trkpt>
      <trkpt lat="50.83177" lon="1.6882">
        <ele>17.39999961853</ele>
        <time>2023-08-08T11:57:56.000Z</time>
      </trkpt>
      <trkpt lat="50.83171" lon="1.68824">
        <ele>17.799999237061</ele>
        <time>2023-08-08T11:57:58.000Z</time>
      </trkpt>
      <trkpt lat="50.83156" lon="1.68834">
        <ele>19</ele>
        <time>2023-08-08T11:58:03.000Z</time>
      </trkpt>
      <trkpt lat="50.83144" lon="1.68843">
        <ele>19.60000038147</ele>
        <time>2023-08-08T11:58:07.000Z</time>
      </trkpt>
      <trkpt lat="50.83134" lon="1.6885">
        <ele>20</ele>
        <time>2023-08-08T11:58:10.000Z</time>
      </trkpt>
      <trkpt lat="50.83107" lon="1.68871">
        <ele>21</ele>
        <time>2023-08-08T11:58:19.000Z</time>
      </trkpt>
      <trkpt lat="50.83082" lon="1.6889">
        <ele>21.799999237061</ele>
        <time>2023-08-08T11:58:27.000Z</time>
      </trkpt>
      <trkpt lat="50.83076" lon="1.68895">
        <ele>22</ele>
        <time>2023-08-08T11:58:29.000Z</time>
      </trkpt>
      <trkpt lat="50.8304" lon="1.6892">
        <ele>22.200000762939</ele>
        <time>2023-08-08T11:58:40.000Z</time>
      </trkpt>
      <trkpt lat="50.83004" lon="1.68946">
        <ele>23.200000762939</ele>
        <time>2023-08-08T11:58:51.000Z</time>
      </trkpt>
      <trkpt lat="50.83" lon="1.68948">
        <ele>23.39999961853</ele>
        <time>2023-08-08T11:58:52.000Z</time>
      </trkpt>
      <trkpt lat="50.82968" lon="1.68971">
        <ele>24.200000762939</ele>
        <time>2023-08-08T11:59:01.000Z</time>
      </trkpt>
      <trkpt lat="50.82936" lon="1.68994">
        <ele>24</ele>
        <time>2023-08-08T11:59:09.000Z</time>
      </trkpt>
      <trkpt lat="50.82902" lon="1.69026">
        <ele>23</ele>
        <time>2023-08-08T11:59:17.000Z</time>
      </trkpt>
      <trkpt lat="50.82897" lon="1.69031">
        <ele>22.799999237061</ele>
        <time>2023-08-08T11:59:18.000Z</time>
      </trkpt>
      <trkpt lat="50.82879" lon="1.69058">
        <ele>22.39999961853</ele>
        <time>2023-08-08T11:59:22.000Z</time>
      </trkpt>
      <trkpt lat="50.82876" lon="1.69064">
        <ele>22.200000762939</ele>
        <time>2023-08-08T11:59:23.000Z</time>
      </trkpt>
      <trkpt lat="50.82859" lon="1.69105">
        <ele>21</ele>
        <time>2023-08-08T11:59:27.000Z</time>
      </trkpt>
      <trkpt lat="50.82851" lon="1.69124">
        <ele>20.39999961853</ele>
        <time>2023-08-08T11:59:29.000Z</time>
      </trkpt>
      <trkpt lat="50.82844" lon="1.69135">
        <ele>19.60000038147</ele>
        <time>2023-08-08T11:59:30.000Z</time>
      </trkpt>
      <trkpt lat="50.82837" lon="1.69141">
        <ele>19.200000762939</ele>
        <time>2023-08-08T11:59:31.000Z</time>
      </trkpt>
      <trkpt lat="50.82823" lon="1.69147">
        <ele>18.799999237061</ele>
        <time>2023-08-08T11:59:33.000Z</time>
      </trkpt>
      <trkpt lat="50.82816" lon="1.69147">
        <ele>18.60000038147</ele>
        <time>2023-08-08T11:59:34.000Z</time>
      </trkpt>
      <trkpt lat="50.82808" lon="1.69147">
        <ele>18.39999961853</ele>
        <time>2023-08-08T11:59:35.000Z</time>
      </trkpt>
      <trkpt lat="50.82795" lon="1.69155">
        <ele>18</ele>
        <time>2023-08-08T11:59:37.000Z</time>
      </trkpt>
      <trkpt lat="50.82784" lon="1.69163">
        <ele>17.60000038147</ele>
        <time>2023-08-08T11:59:39.000Z</time>
      </trkpt>
      <trkpt lat="50.8277" lon="1.69166">
        <ele>17.200000762939</ele>
        <time>2023-08-08T11:59:41.000Z</time>
      </trkpt>
      <trkpt lat="50.82765" lon="1.69166">
        <ele>17</ele>
        <time>2023-08-08T11:59:42.000Z</time>
      </trkpt>
      <trkpt lat="50.82747" lon="1.69164">
        <ele>16.799999237061</ele>
        <time>2023-08-08T11:59:45.000Z</time>
      </trkpt>
      <trkpt lat="50.82726" lon="1.69166">
        <ele>17.200000762939</ele>
        <time>2023-08-08T11:59:50.000Z</time>
      </trkpt>
      <trkpt lat="50.82707" lon="1.69173">
        <ele>18.39999961853</ele>
        <time>2023-08-08T11:59:56.000Z</time>
      </trkpt>
      <trkpt lat="50.82697" lon="1.69178">
        <ele>18.799999237061</ele>
        <time>2023-08-08T11:59:59.000Z</time>
      </trkpt>
      <trkpt lat="50.82679" lon="1.69188">
        <ele>20</ele>
        <time>2023-08-08T12:00:05.000Z</time>
      </trkpt>
      <trkpt lat="50.82669" lon="1.69192">
        <ele>20.60000038147</ele>
        <time>2023-08-08T12:00:08.000Z</time>
      </trkpt>
      <trkpt lat="50.82659" lon="1.69198">
        <ele>21</ele>
        <time>2023-08-08T12:00:11.000Z</time>
      </trkpt>
      <trkpt lat="50.82636" lon="1.6921">
        <ele>22.200000762939</ele>
        <time>2023-08-08T12:00:18.000Z</time>
      </trkpt>
      <trkpt lat="50.82633" lon="1.69212">
        <ele>22.39999961853</ele>
        <time>2023-08-08T12:00:19.000Z</time>
      </trkpt>
      <trkpt lat="50.82604" lon="1.69229">
        <ele>23</ele>
        <time>2023-08-08T12:00:27.000Z</time>
      </trkpt>
      <trkpt lat="50.82597" lon="1.69236">
        <ele>23.200000762939</ele>
        <time>2023-08-08T12:00:29.000Z</time>
      </trkpt>
      <trkpt lat="50.82592" lon="1.69243">
        <ele>23.200000762939</ele>
        <time>2023-08-08T12:00:31.000Z</time>
      </trkpt>
      <trkpt lat="50.82576" lon="1.69262">
        <ele>23.60000038147</ele>
        <time>2023-08-08T12:00:36.000Z</time>
      </trkpt>
      <trkpt lat="50.82545" lon="1.69319">
        <ele>24.200000762939</ele>
        <time>2023-08-08T12:00:47.000Z</time>
      </trkpt>
      <trkpt lat="50.82538" lon="1.69332">
        <ele>24.200000762939</ele>
        <time>2023-08-08T12:00:49.000Z</time>
      </trkpt>
      <trkpt lat="50.82516" lon="1.69377">
        <ele>24.799999237061</ele>
        <time>2023-08-08T12:00:57.000Z</time>
      </trkpt>
      <trkpt lat="50.82485" lon="1.6944">
        <ele>25</ele>
        <time>2023-08-08T12:01:07.000Z</time>
      </trkpt>
      <trkpt lat="50.82456" lon="1.69497">
        <ele>25</ele>
        <time>2023-08-08T12:01:16.000Z</time>
      </trkpt>
      <trkpt lat="50.82424" lon="1.69561">
        <ele>24.60000038147</ele>
        <time>2023-08-08T12:01:26.000Z</time>
      </trkpt>
      <trkpt lat="50.8239" lon="1.69628">
        <ele>25</ele>
        <time>2023-08-08T12:01:36.000Z</time>
      </trkpt>
      <trkpt lat="50.82383" lon="1.69641">
        <ele>25</ele>
        <time>2023-08-08T12:01:38.000Z</time>
      </trkpt>
      <trkpt lat="50.8237" lon="1.69668">
        <ele>25.200000762939</ele>
        <time>2023-08-08T12:01:42.000Z</time>
      </trkpt>
      <trkpt lat="50.82346" lon="1.69714">
        <ele>25.799999237061</ele>
        <time>2023-08-08T12:01:49.000Z</time>
      </trkpt>
      <trkpt lat="50.82311" lon="1.69785">
        <ele>26.39999961853</ele>
        <time>2023-08-08T12:02:00.000Z</time>
      </trkpt>
      <trkpt lat="50.82308" lon="1.69791">
        <ele>26.39999961853</ele>
        <time>2023-08-08T12:02:01.000Z</time>
      </trkpt>
      <trkpt lat="50.82291" lon="1.69827">
        <ele>26.799999237061</ele>
        <time>2023-08-08T12:02:07.000Z</time>
      </trkpt>
      <trkpt lat="50.82284" lon="1.69837">
        <ele>27</ele>
        <time>2023-08-08T12:02:09.000Z</time>
      </trkpt>
      <trkpt lat="50.82276" lon="1.69854">
        <ele>27.200000762939</ele>
        <time>2023-08-08T12:02:12.000Z</time>
      </trkpt>
      <trkpt lat="50.82273" lon="1.6986">
        <ele>27.39999961853</ele>
        <time>2023-08-08T12:02:13.000Z</time>
      </trkpt>
      <trkpt lat="50.82269" lon="1.69866">
        <ele>27.799999237061</ele>
        <time>2023-08-08T12:02:14.000Z</time>
      </trkpt>
      <trkpt lat="50.82246" lon="1.69896">
        <ele>28.60000038147</ele>
        <time>2023-08-08T12:02:20.000Z</time>
      </trkpt>
      <trkpt lat="50.82243" lon="1.69899">
        <ele>28.799999237061</ele>
        <time>2023-08-08T12:02:21.000Z</time>
      </trkpt>
      <trkpt lat="50.82238" lon="1.69903">
        <ele>28.799999237061</ele>
        <time>2023-08-08T12:02:22.000Z</time>
      </trkpt>
      <trkpt lat="50.82224" lon="1.69912">
        <ele>29.200000762939</ele>
        <time>2023-08-08T12:02:25.000Z</time>
      </trkpt>
      <trkpt lat="50.82215" lon="1.69916">
        <ele>29.39999961853</ele>
        <time>2023-08-08T12:02:27.000Z</time>
      </trkpt>
      <trkpt lat="50.82206" lon="1.69919">
        <ele>29.60000038147</ele>
        <time>2023-08-08T12:02:29.000Z</time>
      </trkpt>
      <trkpt lat="50.82202" lon="1.6992">
        <ele>29.799999237061</ele>
        <time>2023-08-08T12:02:30.000Z</time>
      </trkpt>
      <trkpt lat="50.82188" lon="1.69921">
        <ele>30</ele>
        <time>2023-08-08T12:02:33.000Z</time>
      </trkpt>
      <trkpt lat="50.82169" lon="1.69919">
        <ele>30.60000038147</ele>
        <time>2023-08-08T12:02:37.000Z</time>
      </trkpt>
      <trkpt lat="50.82156" lon="1.69916">
        <ele>30.799999237061</ele>
        <time>2023-08-08T12:02:40.000Z</time>
      </trkpt>
      <trkpt lat="50.82106" lon="1.69911">
        <ele>32</ele>
        <time>2023-08-08T12:02:51.000Z</time>
      </trkpt>
      <trkpt lat="50.82074" lon="1.69919">
        <ele>32.400001525879</ele>
        <time>2023-08-08T12:02:58.000Z</time>
      </trkpt>
      <trkpt lat="50.82042" lon="1.6994">
        <ele>32.400001525879</ele>
        <time>2023-08-08T12:03:06.000Z</time>
      </trkpt>
      <trkpt lat="50.81993" lon="1.69976">
        <ele>31.799999237061</ele>
        <time>2023-08-08T12:03:15.000Z</time>
      </trkpt>
      <trkpt lat="50.81954" lon="1.7">
        <ele>30.799999237061</ele>
        <time>2023-08-08T12:03:22.000Z</time>
      </trkpt>
      <trkpt lat="50.81917" lon="1.70018">
        <ele>29.60000038147</ele>
        <time>2023-08-08T12:03:27.000Z</time>
      </trkpt>
      <trkpt lat="50.819" lon="1.70025">
        <ele>28.200000762939</ele>
        <time>2023-08-08T12:03:29.000Z</time>
      </trkpt>
      <trkpt lat="50.81882" lon="1.70033">
        <ele>27.200000762939</ele>
        <time>2023-08-08T12:03:31.000Z</time>
      </trkpt>
      <trkpt lat="50.81857" lon="1.70045">
        <ele>26.200000762939</ele>
        <time>2023-08-08T12:03:34.000Z</time>
      </trkpt>
      <trkpt lat="50.81849" lon="1.70048">
        <ele>25.200000762939</ele>
        <time>2023-08-08T12:03:35.000Z</time>
      </trkpt>
      <trkpt lat="50.81825" lon="1.7006">
        <ele>24</ele>
        <time>2023-08-08T12:03:38.000Z</time>
      </trkpt>
      <trkpt lat="50.8181" lon="1.70066">
        <ele>23.200000762939</ele>
        <time>2023-08-08T12:03:40.000Z</time>
      </trkpt>
      <trkpt lat="50.81802" lon="1.70069">
        <ele>22.799999237061</ele>
        <time>2023-08-08T12:03:41.000Z</time>
      </trkpt>
      <trkpt lat="50.8178" lon="1.7008">
        <ele>21.799999237061</ele>
        <time>2023-08-08T12:03:44.000Z</time>
      </trkpt>
      <trkpt lat="50.81758" lon="1.70091">
        <ele>21</ele>
        <time>2023-08-08T12:03:47.000Z</time>
      </trkpt>
      <trkpt lat="50.81745" lon="1.70099">
        <ele>20.39999961853</ele>
        <time>2023-08-08T12:03:49.000Z</time>
      </trkpt>
      <trkpt lat="50.81706" lon="1.70123">
        <ele>19.60000038147</ele>
        <time>2023-08-08T12:03:55.000Z</time>
      </trkpt>
      <trkpt lat="50.81681" lon="1.70134">
        <ele>19.200000762939</ele>
        <time>2023-08-08T12:03:59.000Z</time>
      </trkpt>
      <trkpt lat="50.81663" lon="1.7014">
        <ele>19</ele>
        <time>2023-08-08T12:04:02.000Z</time>
      </trkpt>
      <trkpt lat="50.81618" lon="1.70158">
        <ele>18.39999961853</ele>
        <time>2023-08-08T12:04:10.000Z</time>
      </trkpt>
      <trkpt lat="50.81589" lon="1.70174">
        <ele>18</ele>
        <time>2023-08-08T12:04:15.000Z</time>
      </trkpt>
      <trkpt lat="50.81585" lon="1.70177">
        <ele>17.799999237061</ele>
        <time>2023-08-08T12:04:16.000Z</time>
      </trkpt>
      <trkpt lat="50.81577" lon="1.70188">
        <ele>16.799999237061</ele>
        <time>2023-08-08T12:04:19.000Z</time>
      </trkpt>
      <trkpt lat="50.81572" lon="1.70201">
        <ele>16.39999961853</ele>
        <time>2023-08-08T12:04:23.000Z</time>
      </trkpt>
      <trkpt lat="50.81571" lon="1.70204">
        <ele>16.39999961853</ele>
        <time>2023-08-08T12:04:24.000Z</time>
      </trkpt>
      <trkpt lat="50.81573" lon="1.70207">
        <ele>16.39999961853</ele>
        <time>2023-08-08T12:04:25.000Z</time>
      </trkpt>
      <trkpt lat="50.81579" lon="1.70212">
        <ele>16.39999961853</ele>
        <time>2023-08-08T12:04:27.000Z</time>
      </trkpt>
      <trkpt lat="50.81604" lon="1.70228">
        <ele>16.60000038147</ele>
        <time>2023-08-08T12:04:34.000Z</time>
      </trkpt>
      <trkpt lat="50.81631" lon="1.70247">
        <ele>17.39999961853</ele>
        <time>2023-08-08T12:04:42.000Z</time>
      </trkpt>
      <trkpt lat="50.81646" lon="1.70256">
        <ele>17.799999237061</ele>
        <time>2023-08-08T12:04:46.000Z</time>
      </trkpt>
      <trkpt lat="50.81659" lon="1.70266">
        <ele>18.39999961853</ele>
        <time>2023-08-08T12:04:50.000Z</time>
      </trkpt>
      <trkpt lat="50.81661" lon="1.70276">
        <ele>18.799999237061</ele>
        <time>2023-08-08T12:04:52.000Z</time>
      </trkpt>
      <trkpt lat="50.81661" lon="1.70282">
        <ele>19</ele>
        <time>2023-08-08T12:04:53.000Z</time>
      </trkpt>
      <trkpt lat="50.81648" lon="1.70316">
        <ele>19.39999961853</ele>
        <time>2023-08-08T12:04:59.000Z</time>
      </trkpt>
      <trkpt lat="50.81638" lon="1.70341">
        <ele>20</ele>
        <time>2023-08-08T12:05:03.000Z</time>
      </trkpt>
      <trkpt lat="50.81629" lon="1.70367">
        <ele>20.39999961853</ele>
        <time>2023-08-08T12:05:07.000Z</time>
      </trkpt>
      <trkpt lat="50.81619" lon="1.70392">
        <ele>20.60000038147</ele>
        <time>2023-08-08T12:05:11.000Z</time>
      </trkpt>
      <trkpt lat="50.81609" lon="1.70418">
        <ele>20.39999961853</ele>
        <time>2023-08-08T12:05:15.000Z</time>
      </trkpt>
      <trkpt lat="50.81583" lon="1.70487">
        <ele>21</ele>
        <time>2023-08-08T12:05:26.000Z</time>
      </trkpt>
      <trkpt lat="50.81579" lon="1.70499">
        <ele>21.200000762939</ele>
        <time>2023-08-08T12:05:28.000Z</time>
      </trkpt>
      <trkpt lat="50.81568" lon="1.70522">
        <ele>21.200000762939</ele>
        <time>2023-08-08T12:05:32.000Z</time>
      </trkpt>
      <trkpt lat="50.81562" lon="1.7053">
        <ele>21.39999961853</ele>
        <time>2023-08-08T12:05:34.000Z</time>
      </trkpt>
      <trkpt lat="50.81555" lon="1.7054">
        <ele>21.39999961853</ele>
        <time>2023-08-08T12:05:39.000Z</time>
      </trkpt>
      <trkpt lat="50.81555" lon="1.7054">
        <ele>21.39999961853</ele>
        <time>2023-08-08T12:05:42.000Z</time>
      </trkpt>
      <trkpt lat="50.81552" lon="1.70544">
        <ele>21.200000762939</ele>
        <time>2023-08-08T12:05:50.000Z</time>
      </trkpt>
      <trkpt lat="50.8155" lon="1.70546">
        <ele>21.200000762939</ele>
        <time>2023-08-08T12:05:51.000Z</time>
      </trkpt>
      <trkpt lat="50.8154" lon="1.70564">
        <ele>21</ele>
        <time>2023-08-08T12:05:56.000Z</time>
      </trkpt>
      <trkpt lat="50.81524" lon="1.70594">
        <ele>20.799999237061</ele>
        <time>2023-08-08T12:06:02.000Z</time>
      </trkpt>
      <trkpt lat="50.81511" lon="1.70617">
        <ele>20.60000038147</ele>
        <time>2023-08-08T12:06:07.000Z</time>
      </trkpt>
      <trkpt lat="50.81488" lon="1.70647">
        <ele>20.39999961853</ele>
        <time>2023-08-08T12:06:13.000Z</time>
      </trkpt>
      <trkpt lat="50.81476" lon="1.70665">
        <ele>20.200000762939</ele>
        <time>2023-08-08T12:06:16.000Z</time>
      </trkpt>
      <trkpt lat="50.81467" lon="1.70683">
        <ele>20</ele>
        <time>2023-08-08T12:06:19.000Z</time>
      </trkpt>
      <trkpt lat="50.8146" lon="1.70694">
        <ele>19.799999237061</ele>
        <time>2023-08-08T12:06:21.000Z</time>
      </trkpt>
      <trkpt lat="50.81444" lon="1.70718">
        <ele>19.60000038147</ele>
        <time>2023-08-08T12:06:25.000Z</time>
      </trkpt>
      <trkpt lat="50.81439" lon="1.70721">
        <ele>19.39999961853</ele>
        <time>2023-08-08T12:06:26.000Z</time>
      </trkpt>
      <trkpt lat="50.81433" lon="1.70724">
        <ele>19.39999961853</ele>
        <time>2023-08-08T12:06:27.000Z</time>
      </trkpt>
      <trkpt lat="50.81414" lon="1.70722">
        <ele>19</ele>
        <time>2023-08-08T12:06:30.000Z</time>
      </trkpt>
      <trkpt lat="50.81402" lon="1.70718">
        <ele>18.60000038147</ele>
        <time>2023-08-08T12:06:32.000Z</time>
      </trkpt>
      <trkpt lat="50.81371" lon="1.70706">
        <ele>17.39999961853</ele>
        <time>2023-08-08T12:06:37.000Z</time>
      </trkpt>
      <trkpt lat="50.81365" lon="1.70705">
        <ele>17.39999961853</ele>
        <time>2023-08-08T12:06:38.000Z</time>
      </trkpt>
      <trkpt lat="50.81331" lon="1.70692">
        <ele>16.200000762939</ele>
        <time>2023-08-08T12:06:44.000Z</time>
      </trkpt>
      <trkpt lat="50.81325" lon="1.70689">
        <ele>15.800000190735</ele>
        <time>2023-08-08T12:06:45.000Z</time>
      </trkpt>
      <trkpt lat="50.81312" lon="1.70685">
        <ele>15</ele>
        <time>2023-08-08T12:06:47.000Z</time>
      </trkpt>
      <trkpt lat="50.81301" lon="1.70679">
        <ele>14.800000190735</ele>
        <time>2023-08-08T12:06:49.000Z</time>
      </trkpt>
      <trkpt lat="50.81298" lon="1.70674">
        <ele>14.60000038147</ele>
        <time>2023-08-08T12:06:50.000Z</time>
      </trkpt>
      <trkpt lat="50.81295" lon="1.70667">
        <ele>14.199999809265</ele>
        <time>2023-08-08T12:06:51.000Z</time>
      </trkpt>
      <trkpt lat="50.81289" lon="1.70653">
        <ele>13.800000190735</ele>
        <time>2023-08-08T12:06:53.000Z</time>
      </trkpt>
      <trkpt lat="50.81285" lon="1.70644">
        <ele>13.60000038147</ele>
        <time>2023-08-08T12:06:54.000Z</time>
      </trkpt>
      <trkpt lat="50.81275" lon="1.70623">
        <ele>13.39999961853</ele>
        <time>2023-08-08T12:06:57.000Z</time>
      </trkpt>
      <trkpt lat="50.81267" lon="1.70613">
        <ele>13.199999809265</ele>
        <time>2023-08-08T12:06:59.000Z</time>
      </trkpt>
      <trkpt lat="50.81245" lon="1.70599">
        <ele>12.800000190735</ele>
        <time>2023-08-08T12:07:03.000Z</time>
      </trkpt>
      <trkpt lat="50.8124" lon="1.70601">
        <ele>12.800000190735</ele>
        <time>2023-08-08T12:07:04.000Z</time>
      </trkpt>
      <trkpt lat="50.81235" lon="1.70607">
        <ele>12.60000038147</ele>
        <time>2023-08-08T12:07:05.000Z</time>
      </trkpt>
      <trkpt lat="50.81222" lon="1.7062">
        <ele>12.39999961853</ele>
        <time>2023-08-08T12:07:07.000Z</time>
      </trkpt>
      <trkpt lat="50.81205" lon="1.70639">
        <ele>11.39999961853</ele>
        <time>2023-08-08T12:07:10.000Z</time>
      </trkpt>
      <trkpt lat="50.81195" lon="1.7065">
        <ele>10.800000190735</ele>
        <time>2023-08-08T12:07:12.000Z</time>
      </trkpt>
      <trkpt lat="50.81179" lon="1.70668">
        <ele>10.39999961853</ele>
        <time>2023-08-08T12:07:15.000Z</time>
      </trkpt>
      <trkpt lat="50.81158" lon="1.70689">
        <ele>10</ele>
        <time>2023-08-08T12:07:19.000Z</time>
      </trkpt>
      <trkpt lat="50.81149" lon="1.707">
        <ele>10</ele>
        <time>2023-08-08T12:07:21.000Z</time>
      </trkpt>
      <trkpt lat="50.81139" lon="1.70716">
        <ele>10</ele>
        <time>2023-08-08T12:07:24.000Z</time>
      </trkpt>
      <trkpt lat="50.81124" lon="1.70748">
        <ele>10</ele>
        <time>2023-08-08T12:07:29.000Z</time>
      </trkpt>
      <trkpt lat="50.81122" lon="1.70755">
        <ele>10</ele>
        <time>2023-08-08T12:07:30.000Z</time>
      </trkpt>
      <trkpt lat="50.81112" lon="1.70778">
        <ele>10</ele>
        <time>2023-08-08T12:07:35.000Z</time>
      </trkpt>
      <trkpt lat="50.81099" lon="1.70775">
        <ele>10.39999961853</ele>
        <time>2023-08-08T12:07:39.000Z</time>
      </trkpt>
      <trkpt lat="50.81081" lon="1.70759">
        <ele>10.39999961853</ele>
        <time>2023-08-08T12:07:43.000Z</time>
      </trkpt>
      <trkpt lat="50.81072" lon="1.70752">
        <ele>10.199999809265</ele>
        <time>2023-08-08T12:07:45.000Z</time>
      </trkpt>
      <trkpt lat="50.81062" lon="1.70754">
        <ele>9.6000003814697</ele>
        <time>2023-08-08T12:07:47.000Z</time>
      </trkpt>
      <trkpt lat="50.81057" lon="1.70765">
        <ele>9</ele>
        <time>2023-08-08T12:07:49.000Z</time>
      </trkpt>
      <trkpt lat="50.81054" lon="1.70772">
        <ele>8.8000001907349</ele>
        <time>2023-08-08T12:07:50.000Z</time>
      </trkpt>
      <trkpt lat="50.81052" lon="1.70779">
        <ele>8.6000003814697</ele>
        <time>2023-08-08T12:07:51.000Z</time>
      </trkpt>
      <trkpt lat="50.81047" lon="1.70788">
        <ele>8.6000003814697</ele>
        <time>2023-08-08T12:07:53.000Z</time>
      </trkpt>
      <trkpt lat="50.81044" lon="1.70793">
        <ele>8.6000003814697</ele>
        <time>2023-08-08T12:07:54.000Z</time>
      </trkpt>
      <trkpt lat="50.81032" lon="1.70802">
        <ele>8.6000003814697</ele>
        <time>2023-08-08T12:07:57.000Z</time>
      </trkpt>
      <trkpt lat="50.81025" lon="1.70804">
        <ele>8.8000001907349</ele>
        <time>2023-08-08T12:07:59.000Z</time>
      </trkpt>
      <trkpt lat="50.8102" lon="1.70804">
        <ele>8.8000001907349</ele>
        <time>2023-08-08T12:08:00.000Z</time>
      </trkpt>
      <trkpt lat="50.81007" lon="1.70802">
        <ele>10</ele>
        <time>2023-08-08T12:08:04.000Z</time>
      </trkpt>
      <trkpt lat="50.81003" lon="1.70801">
        <ele>10.39999961853</ele>
        <time>2023-08-08T12:08:05.000Z</time>
      </trkpt>
      <trkpt lat="50.80998" lon="1.70801">
        <ele>10.39999961853</ele>
        <time>2023-08-08T12:08:06.000Z</time>
      </trkpt>
      <trkpt lat="50.80983" lon="1.70803">
        <ele>10.800000190735</ele>
        <time>2023-08-08T12:08:09.000Z</time>
      </trkpt>
      <trkpt lat="50.80973" lon="1.70809">
        <ele>10.800000190735</ele>
        <time>2023-08-08T12:08:11.000Z</time>
      </trkpt>
      <trkpt lat="50.80959" lon="1.70821">
        <ele>10.60000038147</ele>
        <time>2023-08-08T12:08:14.000Z</time>
      </trkpt>
      <trkpt lat="50.80922" lon="1.70862">
        <ele>10</ele>
        <time>2023-08-08T12:08:22.000Z</time>
      </trkpt>
      <trkpt lat="50.809" lon="1.70886">
        <ele>9.6000003814697</ele>
        <time>2023-08-08T12:08:26.000Z</time>
      </trkpt>
      <trkpt lat="50.80889" lon="1.70896">
        <ele>9.1999998092651</ele>
        <time>2023-08-08T12:08:28.000Z</time>
      </trkpt>
      <trkpt lat="50.80863" lon="1.70923">
        <ele>8.8000001907349</ele>
        <time>2023-08-08T12:08:33.000Z</time>
      </trkpt>
      <trkpt lat="50.80828" lon="1.70958">
        <ele>8.6000003814697</ele>
        <time>2023-08-08T12:08:40.000Z</time>
      </trkpt>
      <trkpt lat="50.80824" lon="1.70961">
        <ele>8.6000003814697</ele>
        <time>2023-08-08T12:08:41.000Z</time>
      </trkpt>
      <trkpt lat="50.80802" lon="1.70975">
        <ele>8.6000003814697</ele>
        <time>2023-08-08T12:08:45.000Z</time>
      </trkpt>
      <trkpt lat="50.80762" lon="1.70998">
        <ele>9</ele>
        <time>2023-08-08T12:08:53.000Z</time>
      </trkpt>
      <trkpt lat="50.80753" lon="1.71004">
        <ele>9</ele>
        <time>2023-08-08T12:08:55.000Z</time>
      </trkpt>
      <trkpt lat="50.80742" lon="1.7101">
        <ele>9.1999998092651</ele>
        <time>2023-08-08T12:08:58.000Z</time>
      </trkpt>
      <trkpt lat="50.80725" lon="1.71022">
        <ele>10.39999961853</ele>
        <time>2023-08-08T12:09:04.000Z</time>
      </trkpt>
      <trkpt lat="50.8072" lon="1.71025">
        <ele>10.800000190735</ele>
        <time>2023-08-08T12:09:06.000Z</time>
      </trkpt>
      <trkpt lat="50.8071" lon="1.71031">
        <ele>11.39999961853</ele>
        <time>2023-08-08T12:09:10.000Z</time>
      </trkpt>
      <trkpt lat="50.80706" lon="1.71034">
        <ele>12</ele>
        <time>2023-08-08T12:09:12.000Z</time>
      </trkpt>
      <trkpt lat="50.80697" lon="1.7104">
        <ele>12.800000190735</ele>
        <time>2023-08-08T12:09:16.000Z</time>
      </trkpt>
      <trkpt lat="50.80684" lon="1.71048">
        <ele>13.60000038147</ele>
        <time>2023-08-08T12:09:22.000Z</time>
      </trkpt>
      <trkpt lat="50.80678" lon="1.71052">
        <ele>13.800000190735</ele>
        <time>2023-08-08T12:09:25.000Z</time>
      </trkpt>
      <trkpt lat="50.80663" lon="1.71061">
        <ele>14.39999961853</ele>
        <time>2023-08-08T12:09:32.000Z</time>
      </trkpt>
      <trkpt lat="50.80656" lon="1.71066">
        <ele>14.800000190735</ele>
        <time>2023-08-08T12:09:35.000Z</time>
      </trkpt>
      <trkpt lat="50.80644" lon="1.71073">
        <ele>15.60000038147</ele>
        <time>2023-08-08T12:09:41.000Z</time>
      </trkpt>
      <trkpt lat="50.80636" lon="1.71078">
        <ele>16.200000762939</ele>
        <time>2023-08-08T12:09:45.000Z</time>
      </trkpt>
      <trkpt lat="50.80625" lon="1.71085">
        <ele>17.200000762939</ele>
        <time>2023-08-08T12:09:50.000Z</time>
      </trkpt>
      <trkpt lat="50.80623" lon="1.71086">
        <ele>17.200000762939</ele>
        <time>2023-08-08T12:09:51.000Z</time>
      </trkpt>
      <trkpt lat="50.80608" lon="1.71094">
        <ele>18.200000762939</ele>
        <time>2023-08-08T12:09:58.000Z</time>
      </trkpt>
      <trkpt lat="50.80606" lon="1.71095">
        <ele>18.39999961853</ele>
        <time>2023-08-08T12:09:59.000Z</time>
      </trkpt>
      <trkpt lat="50.80587" lon="1.71102">
        <ele>19.200000762939</ele>
        <time>2023-08-08T12:10:06.000Z</time>
      </trkpt>
      <trkpt lat="50.80581" lon="1.71103">
        <ele>19.39999961853</ele>
        <time>2023-08-08T12:10:08.000Z</time>
      </trkpt>
      <trkpt lat="50.80568" lon="1.71108">
        <ele>20</ele>
        <time>2023-08-08T12:10:12.000Z</time>
      </trkpt>
      <trkpt lat="50.80542" lon="1.71116">
        <ele>20.200000762939</ele>
        <time>2023-08-08T12:10:18.000Z</time>
      </trkpt>
      <trkpt lat="50.80503" lon="1.71128">
        <ele>20.200000762939</ele>
        <time>2023-08-08T12:10:26.000Z</time>
      </trkpt>
      <trkpt lat="50.80453" lon="1.71143">
        <ele>19.60000038147</ele>
        <time>2023-08-08T12:10:36.000Z</time>
      </trkpt>
      <trkpt lat="50.80414" lon="1.71151">
        <ele>19.39999961853</ele>
        <time>2023-08-08T12:10:44.000Z</time>
      </trkpt>
      <trkpt lat="50.80394" lon="1.71152">
        <ele>20.200000762939</ele>
        <time>2023-08-08T12:10:49.000Z</time>
      </trkpt>
      <trkpt lat="50.80385" lon="1.71152">
        <ele>20.60000038147</ele>
        <time>2023-08-08T12:10:52.000Z</time>
      </trkpt>
      <trkpt lat="50.80372" lon="1.71154">
        <ele>21.200000762939</ele>
        <time>2023-08-08T12:10:56.000Z</time>
      </trkpt>
      <trkpt lat="50.80362" lon="1.71154">
        <ele>21.60000038147</ele>
        <time>2023-08-08T12:10:59.000Z</time>
      </trkpt>
      <trkpt lat="50.80341" lon="1.71156">
        <ele>22.200000762939</ele>
        <time>2023-08-08T12:11:05.000Z</time>
      </trkpt>
      <trkpt lat="50.8032" lon="1.71158">
        <ele>22.799999237061</ele>
        <time>2023-08-08T12:11:11.000Z</time>
      </trkpt>
      <trkpt lat="50.80306" lon="1.71159">
        <ele>23.39999961853</ele>
        <time>2023-08-08T12:11:15.000Z</time>
      </trkpt>
      <trkpt lat="50.80295" lon="1.7116">
        <ele>23.799999237061</ele>
        <time>2023-08-08T12:11:18.000Z</time>
      </trkpt>
      <trkpt lat="50.80261" lon="1.71163">
        <ele>24</ele>
        <time>2023-08-08T12:11:26.000Z</time>
      </trkpt>
      <trkpt lat="50.80213" lon="1.71166">
        <ele>24.39999961853</ele>
        <time>2023-08-08T12:11:37.000Z</time>
      </trkpt>
      <trkpt lat="50.80183" lon="1.71167">
        <ele>24.799999237061</ele>
        <time>2023-08-08T12:11:44.000Z</time>
      </trkpt>
      <trkpt lat="50.80166" lon="1.71168">
        <ele>25</ele>
        <time>2023-08-08T12:11:48.000Z</time>
      </trkpt>
      <trkpt lat="50.80122" lon="1.7117">
        <ele>25.200000762939</ele>
        <time>2023-08-08T12:11:58.000Z</time>
      </trkpt>
      <trkpt lat="50.80073" lon="1.71174">
        <ele>25.60000038147</ele>
        <time>2023-08-08T12:12:09.000Z</time>
      </trkpt>
      <trkpt lat="50.80046" lon="1.71176">
        <ele>25.799999237061</ele>
        <time>2023-08-08T12:12:16.000Z</time>
      </trkpt>
      <trkpt lat="50.80043" lon="1.71176">
        <ele>25.799999237061</ele>
        <time>2023-08-08T12:12:17.000Z</time>
      </trkpt>
      <trkpt lat="50.80024" lon="1.71177">
        <ele>27</ele>
        <time>2023-08-08T12:12:23.000Z</time>
      </trkpt>
      <trkpt lat="50.80019" lon="1.71177">
        <ele>27</ele>
        <time>2023-08-08T12:12:25.000Z</time>
      </trkpt>
      <trkpt lat="50.80006" lon="1.71178">
        <ele>28</ele>
        <time>2023-08-08T12:12:30.000Z</time>
      </trkpt>
      <trkpt lat="50.79997" lon="1.71179">
        <ele>28.39999961853</ele>
        <time>2023-08-08T12:12:33.000Z</time>
      </trkpt>
      <trkpt lat="50.79981" lon="1.71181">
        <ele>29</ele>
        <time>2023-08-08T12:12:39.000Z</time>
      </trkpt>
      <trkpt lat="50.79969" lon="1.71181">
        <ele>29.799999237061</ele>
        <time>2023-08-08T12:12:43.000Z</time>
      </trkpt>
      <trkpt lat="50.79963" lon="1.71181">
        <ele>30.200000762939</ele>
        <time>2023-08-08T12:12:45.000Z</time>
      </trkpt>
      <trkpt lat="50.79946" lon="1.71182">
        <ele>31.39999961853</ele>
        <time>2023-08-08T12:12:51.000Z</time>
      </trkpt>
      <trkpt lat="50.79943" lon="1.71183">
        <ele>31.60000038147</ele>
        <time>2023-08-08T12:12:52.000Z</time>
      </trkpt>
      <trkpt lat="50.79907" lon="1.71184">
        <ele>32.200000762939</ele>
        <time>2023-08-08T12:13:03.000Z</time>
      </trkpt>
      <trkpt lat="50.79903" lon="1.71185">
        <ele>32.400001525879</ele>
        <time>2023-08-08T12:13:04.000Z</time>
      </trkpt>
      <trkpt lat="50.79884" lon="1.71186">
        <ele>32.799999237061</ele>
        <time>2023-08-08T12:13:09.000Z</time>
      </trkpt>
      <trkpt lat="50.79853" lon="1.71191">
        <ele>32.599998474121</ele>
        <time>2023-08-08T12:13:16.000Z</time>
      </trkpt>
      <trkpt lat="50.79825" lon="1.71196">
        <ele>31.200000762939</ele>
        <time>2023-08-08T12:13:21.000Z</time>
      </trkpt>
      <trkpt lat="50.79819" lon="1.71198">
        <ele>30.799999237061</ele>
        <time>2023-08-08T12:13:22.000Z</time>
      </trkpt>
      <trkpt lat="50.79796" lon="1.71206">
        <ele>30</ele>
        <time>2023-08-08T12:13:25.000Z</time>
      </trkpt>
      <trkpt lat="50.79781" lon="1.71211">
        <ele>29.39999961853</ele>
        <time>2023-08-08T12:13:27.000Z</time>
      </trkpt>
      <trkpt lat="50.79763" lon="1.71217">
        <ele>28.39999961853</ele>
        <time>2023-08-08T12:13:29.000Z</time>
      </trkpt>
      <trkpt lat="50.79746" lon="1.71224">
        <ele>27.39999961853</ele>
        <time>2023-08-08T12:13:31.000Z</time>
      </trkpt>
      <trkpt lat="50.79718" lon="1.71234">
        <ele>26.39999961853</ele>
        <time>2023-08-08T12:13:34.000Z</time>
      </trkpt>
      <trkpt lat="50.7971" lon="1.71237">
        <ele>26.200000762939</ele>
        <time>2023-08-08T12:13:35.000Z</time>
      </trkpt>
      <trkpt lat="50.79695" lon="1.71242">
        <ele>25</ele>
        <time>2023-08-08T12:13:37.000Z</time>
      </trkpt>
      <trkpt lat="50.79669" lon="1.71252">
        <ele>24</ele>
        <time>2023-08-08T12:13:40.000Z</time>
      </trkpt>
      <trkpt lat="50.79646" lon="1.7126">
        <ele>22.799999237061</ele>
        <time>2023-08-08T12:13:43.000Z</time>
      </trkpt>
      <trkpt lat="50.79628" lon="1.71267">
        <ele>22.200000762939</ele>
        <time>2023-08-08T12:13:45.000Z</time>
      </trkpt>
      <trkpt lat="50.79614" lon="1.71272">
        <ele>21.60000038147</ele>
        <time>2023-08-08T12:13:47.000Z</time>
      </trkpt>
      <trkpt lat="50.79566" lon="1.71289">
        <ele>20.60000038147</ele>
        <time>2023-08-08T12:13:53.000Z</time>
      </trkpt>
      <trkpt lat="50.79551" lon="1.71296">
        <ele>20.39999961853</ele>
        <time>2023-08-08T12:13:55.000Z</time>
      </trkpt>
      <trkpt lat="50.79511" lon="1.71318">
        <ele>20</ele>
        <time>2023-08-08T12:14:01.000Z</time>
      </trkpt>
      <trkpt lat="50.79467" lon="1.71349">
        <ele>20.200000762939</ele>
        <time>2023-08-08T12:14:09.000Z</time>
      </trkpt>
      <trkpt lat="50.79425" lon="1.71382">
        <ele>20.200000762939</ele>
        <time>2023-08-08T12:14:17.000Z</time>
      </trkpt>
      <trkpt lat="50.79389" lon="1.71418">
        <ele>19.60000038147</ele>
        <time>2023-08-08T12:14:25.000Z</time>
      </trkpt>
      <trkpt lat="50.7936" lon="1.71447">
        <ele>19.60000038147</ele>
        <time>2023-08-08T12:14:32.000Z</time>
      </trkpt>
      <trkpt lat="50.79329" lon="1.71475">
        <ele>20.39999961853</ele>
        <time>2023-08-08T12:14:40.000Z</time>
      </trkpt>
      <trkpt lat="50.79294" lon="1.71512">
        <ele>21.39999961853</ele>
        <time>2023-08-08T12:14:50.000Z</time>
      </trkpt>
      <trkpt lat="50.79279" lon="1.71527">
        <ele>21.60000038147</ele>
        <time>2023-08-08T12:14:54.000Z</time>
      </trkpt>
      <trkpt lat="50.79266" lon="1.7154">
        <ele>22</ele>
        <time>2023-08-08T12:14:58.000Z</time>
      </trkpt>
      <trkpt lat="50.79258" lon="1.71548">
        <ele>22</ele>
        <time>2023-08-08T12:15:00.000Z</time>
      </trkpt>
      <trkpt lat="50.79229" lon="1.71578">
        <ele>22.60000038147</ele>
        <time>2023-08-08T12:15:09.000Z</time>
      </trkpt>
      <trkpt lat="50.79223" lon="1.71584">
        <ele>22.60000038147</ele>
        <time>2023-08-08T12:15:11.000Z</time>
      </trkpt>
      <trkpt lat="50.79194" lon="1.71613">
        <ele>23.39999961853</ele>
        <time>2023-08-08T12:15:20.000Z</time>
      </trkpt>
      <trkpt lat="50.79188" lon="1.71619">
        <ele>23.799999237061</ele>
        <time>2023-08-08T12:15:22.000Z</time>
      </trkpt>
      <trkpt lat="50.7917" lon="1.71638">
        <ele>24.60000038147</ele>
        <time>2023-08-08T12:15:29.000Z</time>
      </trkpt>
      <trkpt lat="50.79166" lon="1.71641">
        <ele>25.200000762939</ele>
        <time>2023-08-08T12:15:30.000Z</time>
      </trkpt>
      <trkpt lat="50.79154" lon="1.71652">
        <ele>26.39999961853</ele>
        <time>2023-08-08T12:15:35.000Z</time>
      </trkpt>
      <trkpt lat="50.79147" lon="1.71661">
        <ele>26.799999237061</ele>
        <time>2023-08-08T12:15:38.000Z</time>
      </trkpt>
      <trkpt lat="50.7914" lon="1.71669">
        <ele>27.39999961853</ele>
        <time>2023-08-08T12:15:41.000Z</time>
      </trkpt>
      <trkpt lat="50.79132" lon="1.71682">
        <ele>28.60000038147</ele>
        <time>2023-08-08T12:15:45.000Z</time>
      </trkpt>
      <trkpt lat="50.7913" lon="1.71685">
        <ele>28.799999237061</ele>
        <time>2023-08-08T12:15:46.000Z</time>
      </trkpt>
      <trkpt lat="50.79121" lon="1.71702">
        <ele>29.60000038147</ele>
        <time>2023-08-08T12:15:51.000Z</time>
      </trkpt>
      <trkpt lat="50.79119" lon="1.71706">
        <ele>29.799999237061</ele>
        <time>2023-08-08T12:15:52.000Z</time>
      </trkpt>
      <trkpt lat="50.79099" lon="1.71751">
        <ele>30.60000038147</ele>
        <time>2023-08-08T12:16:03.000Z</time>
      </trkpt>
      <trkpt lat="50.79097" lon="1.71756">
        <ele>30.60000038147</ele>
        <time>2023-08-08T12:16:04.000Z</time>
      </trkpt>
      <trkpt lat="50.79085" lon="1.71783">
        <ele>31.799999237061</ele>
        <time>2023-08-08T12:16:11.000Z</time>
      </trkpt>
      <trkpt lat="50.79081" lon="1.71794">
        <ele>32</ele>
        <time>2023-08-08T12:16:14.000Z</time>
      </trkpt>
      <trkpt lat="50.79072" lon="1.71814">
        <ele>32.799999237061</ele>
        <time>2023-08-08T12:16:19.000Z</time>
      </trkpt>
      <trkpt lat="50.79067" lon="1.71826">
        <ele>33.200000762939</ele>
        <time>2023-08-08T12:16:22.000Z</time>
      </trkpt>
      <trkpt lat="50.79057" lon="1.71848">
        <ele>33.799999237061</ele>
        <time>2023-08-08T12:16:28.000Z</time>
      </trkpt>
      <trkpt lat="50.79056" lon="1.71852">
        <ele>34</ele>
        <time>2023-08-08T12:16:29.000Z</time>
      </trkpt>
      <trkpt lat="50.79051" lon="1.71864">
        <ele>35.200000762939</ele>
        <time>2023-08-08T12:16:32.000Z</time>
      </trkpt>
      <trkpt lat="50.7904" lon="1.71889">
        <ele>36.200000762939</ele>
        <time>2023-08-08T12:16:39.000Z</time>
      </trkpt>
      <trkpt lat="50.79033" lon="1.71904">
        <ele>36.799999237061</ele>
        <time>2023-08-08T12:16:43.000Z</time>
      </trkpt>
      <trkpt lat="50.79029" lon="1.71915">
        <ele>37.400001525879</ele>
        <time>2023-08-08T12:16:46.000Z</time>
      </trkpt>
      <trkpt lat="50.79017" lon="1.71941">
        <ele>38.400001525879</ele>
        <time>2023-08-08T12:16:53.000Z</time>
      </trkpt>
      <trkpt lat="50.79006" lon="1.71966">
        <ele>39.599998474121</ele>
        <time>2023-08-08T12:17:00.000Z</time>
      </trkpt>
      <trkpt lat="50.79005" lon="1.7197">
        <ele>39.599998474121</ele>
        <time>2023-08-08T12:17:01.000Z</time>
      </trkpt>
      <trkpt lat="50.78994" lon="1.71996">
        <ele>40.599998474121</ele>
        <time>2023-08-08T12:17:08.000Z</time>
      </trkpt>
      <trkpt lat="50.78989" lon="1.72007">
        <ele>41</ele>
        <time>2023-08-08T12:17:11.000Z</time>
      </trkpt>
      <trkpt lat="50.78984" lon="1.7202">
        <ele>41.599998474121</ele>
        <time>2023-08-08T12:17:14.000Z</time>
      </trkpt>
      <trkpt lat="50.7898" lon="1.72032">
        <ele>42</ele>
        <time>2023-08-08T12:17:17.000Z</time>
      </trkpt>
      <trkpt lat="50.78976" lon="1.72044">
        <ele>42.599998474121</ele>
        <time>2023-08-08T12:17:20.000Z</time>
      </trkpt>
      <trkpt lat="50.78969" lon="1.72068">
        <ele>43.799999237061</ele>
        <time>2023-08-08T12:17:26.000Z</time>
      </trkpt>
      <trkpt lat="50.78966" lon="1.72078">
        <ele>44</ele>
        <time>2023-08-08T12:17:28.000Z</time>
      </trkpt>
      <trkpt lat="50.78958" lon="1.72106">
        <ele>44.799999237061</ele>
        <time>2023-08-08T12:17:35.000Z</time>
      </trkpt>
      <trkpt lat="50.78953" lon="1.72124">
        <ele>45.400001525879</ele>
        <time>2023-08-08T12:17:39.000Z</time>
      </trkpt>
      <trkpt lat="50.78947" lon="1.7214">
        <ele>45.799999237061</ele>
        <time>2023-08-08T12:17:43.000Z</time>
      </trkpt>
      <trkpt lat="50.78941" lon="1.72155">
        <ele>46.599998474121</ele>
        <time>2023-08-08T12:17:47.000Z</time>
      </trkpt>
      <trkpt lat="50.78935" lon="1.7217">
        <ele>47</ele>
        <time>2023-08-08T12:17:51.000Z</time>
      </trkpt>
      <trkpt lat="50.78923" lon="1.72192">
        <ele>48</ele>
        <time>2023-08-08T12:17:57.000Z</time>
      </trkpt>
      <trkpt lat="50.7891" lon="1.72209">
        <ele>49</ele>
        <time>2023-08-08T12:18:03.000Z</time>
      </trkpt>
      <trkpt lat="50.78898" lon="1.72225">
        <ele>49.599998474121</ele>
        <time>2023-08-08T12:18:08.000Z</time>
      </trkpt>
      <trkpt lat="50.78886" lon="1.72239">
        <ele>50</ele>
        <time>2023-08-08T12:18:13.000Z</time>
      </trkpt>
      <trkpt lat="50.78871" lon="1.72259">
        <ele>50.599998474121</ele>
        <time>2023-08-08T12:18:19.000Z</time>
      </trkpt>
      <trkpt lat="50.78858" lon="1.7228">
        <ele>51.200000762939</ele>
        <time>2023-08-08T12:18:25.000Z</time>
      </trkpt>
      <trkpt lat="50.78851" lon="1.72296">
        <ele>51.400001525879</ele>
        <time>2023-08-08T12:18:29.000Z</time>
      </trkpt>
      <trkpt lat="50.78831" lon="1.72337">
        <ele>52</ele>
        <time>2023-08-08T12:18:39.000Z</time>
      </trkpt>
      <trkpt lat="50.78826" lon="1.72348">
        <ele>52.200000762939</ele>
        <time>2023-08-08T12:18:42.000Z</time>
      </trkpt>
      <trkpt lat="50.78819" lon="1.72366">
        <ele>52.599998474121</ele>
        <time>2023-08-08T12:18:46.000Z</time>
      </trkpt>
      <trkpt lat="50.78804" lon="1.72399">
        <ele>53.200000762939</ele>
        <time>2023-08-08T12:18:54.000Z</time>
      </trkpt>
      <trkpt lat="50.78803" lon="1.72403">
        <ele>53.200000762939</ele>
        <time>2023-08-08T12:18:55.000Z</time>
      </trkpt>
      <trkpt lat="50.78785" lon="1.72439">
        <ele>53.799999237061</ele>
        <time>2023-08-08T12:19:04.000Z</time>
      </trkpt>
      <trkpt lat="50.78774" lon="1.72463">
        <ele>54.400001525879</ele>
        <time>2023-08-08T12:19:10.000Z</time>
      </trkpt>
      <trkpt lat="50.78764" lon="1.72481">
        <ele>54.799999237061</ele>
        <time>2023-08-08T12:19:15.000Z</time>
      </trkpt>
      <trkpt lat="50.78758" lon="1.72487">
        <ele>55.400001525879</ele>
        <time>2023-08-08T12:19:19.000Z</time>
      </trkpt>
      <trkpt lat="50.78757" lon="1.72487">
        <ele>55.400001525879</ele>
        <time>2023-08-08T12:19:20.000Z</time>
      </trkpt>
      <trkpt lat="50.78756" lon="1.72487">
        <ele>55.599998474121</ele>
        <time>2023-08-08T12:19:23.000Z</time>
      </trkpt>
      <trkpt lat="50.78756" lon="1.72491">
        <ele>55.799999237061</ele>
        <time>2023-08-08T12:20:54.000Z</time>
      </trkpt>
      <trkpt lat="50.78743" lon="1.72505">
        <ele>55.799999237061</ele>
        <time>2023-08-08T12:20:59.000Z</time>
      </trkpt>
      <trkpt lat="50.78736" lon="1.72511">
        <ele>55.599998474121</ele>
        <time>2023-08-08T12:21:01.000Z</time>
      </trkpt>
      <trkpt lat="50.78722" lon="1.72523">
        <ele>55.599998474121</ele>
        <time>2023-08-08T12:21:04.000Z</time>
      </trkpt>
      <trkpt lat="50.78693" lon="1.72545">
        <ele>54.799999237061</ele>
        <time>2023-08-08T12:21:09.000Z</time>
      </trkpt>
      <trkpt lat="50.78688" lon="1.72549">
        <ele>54.400001525879</ele>
        <time>2023-08-08T12:21:10.000Z</time>
      </trkpt>
      <trkpt lat="50.78666" lon="1.72566">
        <ele>53.200000762939</ele>
        <time>2023-08-08T12:21:13.000Z</time>
      </trkpt>
      <trkpt lat="50.7865" lon="1.72578">
        <ele>52.599998474121</ele>
        <time>2023-08-08T12:21:15.000Z</time>
      </trkpt>
      <trkpt lat="50.78636" lon="1.7259">
        <ele>51.799999237061</ele>
        <time>2023-08-08T12:21:17.000Z</time>
      </trkpt>
      <trkpt lat="50.78618" lon="1.72604">
        <ele>50.599998474121</ele>
        <time>2023-08-08T12:21:19.000Z</time>
      </trkpt>
      <trkpt lat="50.78595" lon="1.72622">
        <ele>49.200000762939</ele>
        <time>2023-08-08T12:21:22.000Z</time>
      </trkpt>
      <trkpt lat="50.78566" lon="1.72644">
        <ele>47.400001525879</ele>
        <time>2023-08-08T12:21:25.000Z</time>
      </trkpt>
      <trkpt lat="50.78548" lon="1.72657">
        <ele>46</ele>
        <time>2023-08-08T12:21:27.000Z</time>
      </trkpt>
      <trkpt lat="50.7854" lon="1.72664">
        <ele>45.400001525879</ele>
        <time>2023-08-08T12:21:28.000Z</time>
      </trkpt>
      <trkpt lat="50.78531" lon="1.72672">
        <ele>44.599998474121</ele>
        <time>2023-08-08T12:21:29.000Z</time>
      </trkpt>
      <trkpt lat="50.78513" lon="1.72688">
        <ele>43.400001525879</ele>
        <time>2023-08-08T12:21:31.000Z</time>
      </trkpt>
      <trkpt lat="50.78505" lon="1.72698">
        <ele>42.200000762939</ele>
        <time>2023-08-08T12:21:32.000Z</time>
      </trkpt>
      <trkpt lat="50.78497" lon="1.72708">
        <ele>41.799999237061</ele>
        <time>2023-08-08T12:21:33.000Z</time>
      </trkpt>
      <trkpt lat="50.7849" lon="1.7272">
        <ele>41</ele>
        <time>2023-08-08T12:21:34.000Z</time>
      </trkpt>
      <trkpt lat="50.78476" lon="1.72744">
        <ele>40</ele>
        <time>2023-08-08T12:21:36.000Z</time>
      </trkpt>
      <trkpt lat="50.78462" lon="1.7277">
        <ele>38.599998474121</ele>
        <time>2023-08-08T12:21:38.000Z</time>
      </trkpt>
      <trkpt lat="50.78455" lon="1.72783">
        <ele>37.599998474121</ele>
        <time>2023-08-08T12:21:39.000Z</time>
      </trkpt>
      <trkpt lat="50.78441" lon="1.72809">
        <ele>36.400001525879</ele>
        <time>2023-08-08T12:21:41.000Z</time>
      </trkpt>
      <trkpt lat="50.78427" lon="1.72835">
        <ele>35</ele>
        <time>2023-08-08T12:21:43.000Z</time>
      </trkpt>
      <trkpt lat="50.78415" lon="1.72859">
        <ele>33.599998474121</ele>
        <time>2023-08-08T12:21:45.000Z</time>
      </trkpt>
      <trkpt lat="50.78406" lon="1.72875">
        <ele>33</ele>
        <time>2023-08-08T12:21:46.000Z</time>
      </trkpt>
      <trkpt lat="50.78399" lon="1.72888">
        <ele>32.599998474121</ele>
        <time>2023-08-08T12:21:47.000Z</time>
      </trkpt>
      <trkpt lat="50.78386" lon="1.72912">
        <ele>31.200000762939</ele>
        <time>2023-08-08T12:21:49.000Z</time>
      </trkpt>
      <trkpt lat="50.78372" lon="1.72933">
        <ele>29.799999237061</ele>
        <time>2023-08-08T12:21:51.000Z</time>
      </trkpt>
      <trkpt lat="50.78344" lon="1.72975">
        <ele>29</ele>
        <time>2023-08-08T12:21:56.000Z</time>
      </trkpt>
      <trkpt lat="50.78334" lon="1.72988">
        <ele>29</ele>
        <time>2023-08-08T12:21:58.000Z</time>
      </trkpt>
      <trkpt lat="50.78319" lon="1.73005">
        <ele>29.200000762939</ele>
        <time>2023-08-08T12:22:01.000Z</time>
      </trkpt>
      <trkpt lat="50.78291" lon="1.73031">
        <ele>29.799999237061</ele>
        <time>2023-08-08T12:22:07.000Z</time>
      </trkpt>
      <trkpt lat="50.78265" lon="1.73055">
        <ele>30.200000762939</ele>
        <time>2023-08-08T12:22:13.000Z</time>
      </trkpt>
      <trkpt lat="50.78253" lon="1.73067">
        <ele>30.39999961853</ele>
        <time>2023-08-08T12:22:16.000Z</time>
      </trkpt>
      <trkpt lat="50.78241" lon="1.73077">
        <ele>30.60000038147</ele>
        <time>2023-08-08T12:22:19.000Z</time>
      </trkpt>
      <trkpt lat="50.78238" lon="1.73081">
        <ele>30.799999237061</ele>
        <time>2023-08-08T12:22:20.000Z</time>
      </trkpt>
      <trkpt lat="50.78235" lon="1.73084">
        <ele>30.799999237061</ele>
        <time>2023-08-08T12:22:21.000Z</time>
      </trkpt>
      <trkpt lat="50.78231" lon="1.73087">
        <ele>30.799999237061</ele>
        <time>2023-08-08T12:22:22.000Z</time>
      </trkpt>
      <trkpt lat="50.78225" lon="1.73094">
        <ele>31.200000762939</ele>
        <time>2023-08-08T12:22:24.000Z</time>
      </trkpt>
      <trkpt lat="50.78214" lon="1.73104">
        <ele>31.799999237061</ele>
        <time>2023-08-08T12:22:28.000Z</time>
      </trkpt>
      <trkpt lat="50.78208" lon="1.7311">
        <ele>32.200000762939</ele>
        <time>2023-08-08T12:22:30.000Z</time>
      </trkpt>
      <trkpt lat="50.78194" lon="1.73124">
        <ele>32.599998474121</ele>
        <time>2023-08-08T12:22:35.000Z</time>
      </trkpt>
      <trkpt lat="50.78184" lon="1.73134">
        <ele>32.799999237061</ele>
        <time>2023-08-08T12:22:39.000Z</time>
      </trkpt>
      <trkpt lat="50.78172" lon="1.73146">
        <ele>32.799999237061</ele>
        <time>2023-08-08T12:22:43.000Z</time>
      </trkpt>
      <trkpt lat="50.78159" lon="1.73161">
        <ele>33.200000762939</ele>
        <time>2023-08-08T12:22:48.000Z</time>
      </trkpt>
      <trkpt lat="50.78145" lon="1.73182">
        <ele>34</ele>
        <time>2023-08-08T12:22:54.000Z</time>
      </trkpt>
      <trkpt lat="50.78143" lon="1.73185">
        <ele>34.200000762939</ele>
        <time>2023-08-08T12:22:55.000Z</time>
      </trkpt>
      <trkpt lat="50.78133" lon="1.73201">
        <ele>35</ele>
        <time>2023-08-08T12:23:00.000Z</time>
      </trkpt>
      <trkpt lat="50.78129" lon="1.73207">
        <ele>36</ele>
        <time>2023-08-08T12:23:02.000Z</time>
      </trkpt>
      <trkpt lat="50.78126" lon="1.73212">
        <ele>36.400001525879</ele>
        <time>2023-08-08T12:23:04.000Z</time>
      </trkpt>
      <trkpt lat="50.78114" lon="1.73234">
        <ele>37.200000762939</ele>
        <time>2023-08-08T12:23:11.000Z</time>
      </trkpt>
      <trkpt lat="50.78111" lon="1.73239">
        <ele>37.400001525879</ele>
        <time>2023-08-08T12:23:13.000Z</time>
      </trkpt>
      <trkpt lat="50.78101" lon="1.73256">
        <ele>38.599998474121</ele>
        <time>2023-08-08T12:23:19.000Z</time>
      </trkpt>
      <trkpt lat="50.7809" lon="1.73275">
        <ele>39.599998474121</ele>
        <time>2023-08-08T12:23:26.000Z</time>
      </trkpt>
      <trkpt lat="50.78083" lon="1.7329">
        <ele>40.599998474121</ele>
        <time>2023-08-08T12:23:31.000Z</time>
      </trkpt>
      <trkpt lat="50.78076" lon="1.73304">
        <ele>41.599998474121</ele>
        <time>2023-08-08T12:23:36.000Z</time>
      </trkpt>
      <trkpt lat="50.78071" lon="1.73314">
        <ele>43</ele>
        <time>2023-08-08T12:23:40.000Z</time>
      </trkpt>
      <trkpt lat="50.78064" lon="1.73332">
        <ele>44</ele>
        <time>2023-08-08T12:23:46.000Z</time>
      </trkpt>
      <trkpt lat="50.78063" lon="1.73335">
        <ele>43.799999237061</ele>
        <time>2023-08-08T12:23:47.000Z</time>
      </trkpt>
      <trkpt lat="50.78053" lon="1.73361">
        <ele>45</ele>
        <time>2023-08-08T12:23:54.000Z</time>
      </trkpt>
      <trkpt lat="50.78044" lon="1.73386">
        <ele>45.599998474121</ele>
        <time>2023-08-08T12:24:01.000Z</time>
      </trkpt>
      <trkpt lat="50.78038" lon="1.73414">
        <ele>45.799999237061</ele>
        <time>2023-08-08T12:24:07.000Z</time>
      </trkpt>
      <trkpt lat="50.78034" lon="1.7344">
        <ele>46.200000762939</ele>
        <time>2023-08-08T12:24:12.000Z</time>
      </trkpt>
      <trkpt lat="50.78034" lon="1.73445">
        <ele>46.200000762939</ele>
        <time>2023-08-08T12:24:13.000Z</time>
      </trkpt>
      <trkpt lat="50.78031" lon="1.73485">
        <ele>45.599998474121</ele>
        <time>2023-08-08T12:24:20.000Z</time>
      </trkpt>
      <trkpt lat="50.78024" lon="1.73533">
        <ele>45</ele>
        <time>2023-08-08T12:24:27.000Z</time>
      </trkpt>
      <trkpt lat="50.78023" lon="1.7354">
        <ele>45</ele>
        <time>2023-08-08T12:24:28.000Z</time>
      </trkpt>
      <trkpt lat="50.78011" lon="1.736">
        <ele>44.400001525879</ele>
        <time>2023-08-08T12:24:36.000Z</time>
      </trkpt>
      <trkpt lat="50.78003" lon="1.7364">
        <ele>43.799999237061</ele>
        <time>2023-08-08T12:24:40.000Z</time>
      </trkpt>
      <trkpt lat="50.77999" lon="1.73654">
        <ele>43.200000762939</ele>
        <time>2023-08-08T12:24:41.000Z</time>
      </trkpt>
      <trkpt lat="50.77994" lon="1.73671">
        <ele>42.200000762939</ele>
        <time>2023-08-08T12:24:43.000Z</time>
      </trkpt>
      <trkpt lat="50.77985" lon="1.73698">
        <ele>41</ele>
        <time>2023-08-08T12:24:46.000Z</time>
      </trkpt>
      <trkpt lat="50.77968" lon="1.73727">
        <ele>40</ele>
        <time>2023-08-08T12:24:50.000Z</time>
      </trkpt>
      <trkpt lat="50.77963" lon="1.73733">
        <ele>39.599998474121</ele>
        <time>2023-08-08T12:24:51.000Z</time>
      </trkpt>
      <trkpt lat="50.77957" lon="1.73738">
        <ele>39.400001525879</ele>
        <time>2023-08-08T12:24:52.000Z</time>
      </trkpt>
      <trkpt lat="50.77947" lon="1.73744">
        <ele>39</ele>
        <time>2023-08-08T12:24:54.000Z</time>
      </trkpt>
      <trkpt lat="50.7794" lon="1.73747">
        <ele>38.799999237061</ele>
        <time>2023-08-08T12:24:55.000Z</time>
      </trkpt>
      <trkpt lat="50.77901" lon="1.73755">
        <ele>37.799999237061</ele>
        <time>2023-08-08T12:25:02.000Z</time>
      </trkpt>
      <trkpt lat="50.77895" lon="1.73757">
        <ele>37.599998474121</ele>
        <time>2023-08-08T12:25:03.000Z</time>
      </trkpt>
      <trkpt lat="50.77862" lon="1.73761">
        <ele>37.400001525879</ele>
        <time>2023-08-08T12:25:09.000Z</time>
      </trkpt>
      <trkpt lat="50.77857" lon="1.7376">
        <ele>37.400001525879</ele>
        <time>2023-08-08T12:25:10.000Z</time>
      </trkpt>
      <trkpt lat="50.77816" lon="1.73763">
        <ele>37.200000762939</ele>
        <time>2023-08-08T12:25:18.000Z</time>
      </trkpt>
      <trkpt lat="50.77811" lon="1.73765">
        <ele>37.200000762939</ele>
        <time>2023-08-08T12:25:19.000Z</time>
      </trkpt>
      <trkpt lat="50.77803" lon="1.73768">
        <ele>37.400001525879</ele>
        <time>2023-08-08T12:25:21.000Z</time>
      </trkpt>
      <trkpt lat="50.77797" lon="1.7378">
        <ele>37.400001525879</ele>
        <time>2023-08-08T12:25:23.000Z</time>
      </trkpt>
      <trkpt lat="50.77785" lon="1.73827">
        <ele>37.200000762939</ele>
        <time>2023-08-08T12:25:29.000Z</time>
      </trkpt>
      <trkpt lat="50.77776" lon="1.73862">
        <ele>36.599998474121</ele>
        <time>2023-08-08T12:25:33.000Z</time>
      </trkpt>
      <trkpt lat="50.7777" lon="1.73887">
        <ele>35.799999237061</ele>
        <time>2023-08-08T12:25:36.000Z</time>
      </trkpt>
      <trkpt lat="50.77769" lon="1.73896">
        <ele>35.599998474121</ele>
        <time>2023-08-08T12:25:37.000Z</time>
      </trkpt>
      <trkpt lat="50.7777" lon="1.73907">
        <ele>35.200000762939</ele>
        <time>2023-08-08T12:25:38.000Z</time>
      </trkpt>
      <trkpt lat="50.77773" lon="1.73915">
        <ele>35</ele>
        <time>2023-08-08T12:25:39.000Z</time>
      </trkpt>
      <trkpt lat="50.77776" lon="1.73923">
        <ele>34.799999237061</ele>
        <time>2023-08-08T12:25:40.000Z</time>
      </trkpt>
      <trkpt lat="50.77785" lon="1.73937">
        <ele>34.599998474121</ele>
        <time>2023-08-08T12:25:42.000Z</time>
      </trkpt>
      <trkpt lat="50.77791" lon="1.73947">
        <ele>34.400001525879</ele>
        <time>2023-08-08T12:25:43.000Z</time>
      </trkpt>
      <trkpt lat="50.77811" lon="1.73983">
        <ele>33.599998474121</ele>
        <time>2023-08-08T12:25:47.000Z</time>
      </trkpt>
      <trkpt lat="50.77816" lon="1.73995">
        <ele>33.200000762939</ele>
        <time>2023-08-08T12:25:48.000Z</time>
      </trkpt>
      <trkpt lat="50.77819" lon="1.74006">
        <ele>32.799999237061</ele>
        <time>2023-08-08T12:25:49.000Z</time>
      </trkpt>
      <trkpt lat="50.77823" lon="1.7403">
        <ele>32.400001525879</ele>
        <time>2023-08-08T12:25:51.000Z</time>
      </trkpt>
      <trkpt lat="50.77825" lon="1.74047">
        <ele>31.60000038147</ele>
        <time>2023-08-08T12:25:52.000Z</time>
      </trkpt>
      <trkpt lat="50.77826" lon="1.74076">
        <ele>30.39999961853</ele>
        <time>2023-08-08T12:25:54.000Z</time>
      </trkpt>
      <trkpt lat="50.77825" lon="1.74088">
        <ele>30</ele>
        <time>2023-08-08T12:25:55.000Z</time>
      </trkpt>
      <trkpt lat="50.77822" lon="1.74119">
        <ele>29</ele>
        <time>2023-08-08T12:25:57.000Z</time>
      </trkpt>
      <trkpt lat="50.77817" lon="1.74158">
        <ele>28.39999961853</ele>
        <time>2023-08-08T12:26:00.000Z</time>
      </trkpt>
      <trkpt lat="50.77813" lon="1.74187">
        <ele>27.799999237061</ele>
        <time>2023-08-08T12:26:02.000Z</time>
      </trkpt>
      <trkpt lat="50.77803" lon="1.74253">
        <ele>27.39999961853</ele>
        <time>2023-08-08T12:26:07.000Z</time>
      </trkpt>
      <trkpt lat="50.77796" lon="1.74286">
        <ele>27</ele>
        <time>2023-08-08T12:26:10.000Z</time>
      </trkpt>
      <trkpt lat="50.77791" lon="1.74298">
        <ele>26.799999237061</ele>
        <time>2023-08-08T12:26:11.000Z</time>
      </trkpt>
      <trkpt lat="50.77771" lon="1.74341">
        <ele>26.60000038147</ele>
        <time>2023-08-08T12:26:16.000Z</time>
      </trkpt>
      <trkpt lat="50.77755" lon="1.74369">
        <ele>27</ele>
        <time>2023-08-08T12:26:21.000Z</time>
      </trkpt>
      <trkpt lat="50.7775" lon="1.74378">
        <ele>27.200000762939</ele>
        <time>2023-08-08T12:26:23.000Z</time>
      </trkpt>
      <trkpt lat="50.77742" lon="1.7439">
        <ele>27.799999237061</ele>
        <time>2023-08-08T12:26:26.000Z</time>
      </trkpt>
      <trkpt lat="50.77733" lon="1.74403">
        <ele>29</ele>
        <time>2023-08-08T12:26:30.000Z</time>
      </trkpt>
      <trkpt lat="50.77729" lon="1.7441">
        <ele>29.60000038147</ele>
        <time>2023-08-08T12:26:32.000Z</time>
      </trkpt>
      <trkpt lat="50.77723" lon="1.7442">
        <ele>30.200000762939</ele>
        <time>2023-08-08T12:26:35.000Z</time>
      </trkpt>
      <trkpt lat="50.77712" lon="1.74435">
        <ele>31</ele>
        <time>2023-08-08T12:26:40.000Z</time>
      </trkpt>
      <trkpt lat="50.7771" lon="1.74438">
        <ele>31.200000762939</ele>
        <time>2023-08-08T12:26:41.000Z</time>
      </trkpt>
      <trkpt lat="50.77698" lon="1.74454">
        <ele>32.200000762939</ele>
        <time>2023-08-08T12:26:47.000Z</time>
      </trkpt>
      <trkpt lat="50.77692" lon="1.74463">
        <ele>32.599998474121</ele>
        <time>2023-08-08T12:26:50.000Z</time>
      </trkpt>
      <trkpt lat="50.77683" lon="1.74477">
        <ele>33.400001525879</ele>
        <time>2023-08-08T12:26:55.000Z</time>
      </trkpt>
      <trkpt lat="50.77673" lon="1.74492">
        <ele>34</ele>
        <time>2023-08-08T12:27:00.000Z</time>
      </trkpt>
      <trkpt lat="50.77663" lon="1.74508">
        <ele>34.400001525879</ele>
        <time>2023-08-08T12:27:05.000Z</time>
      </trkpt>
      <trkpt lat="50.77654" lon="1.74522">
        <ele>35.200000762939</ele>
        <time>2023-08-08T12:27:10.000Z</time>
      </trkpt>
      <trkpt lat="50.77651" lon="1.74529">
        <ele>35.599998474121</ele>
        <time>2023-08-08T12:27:12.000Z</time>
      </trkpt>
      <trkpt lat="50.77638" lon="1.74555">
        <ele>36.799999237061</ele>
        <time>2023-08-08T12:27:20.000Z</time>
      </trkpt>
      <trkpt lat="50.77624" lon="1.74585">
        <ele>37.799999237061</ele>
        <time>2023-08-08T12:27:28.000Z</time>
      </trkpt>
      <trkpt lat="50.77622" lon="1.74591">
        <ele>38.200000762939</ele>
        <time>2023-08-08T12:27:30.000Z</time>
      </trkpt>
      <trkpt lat="50.77613" lon="1.74617">
        <ele>39</ele>
        <time>2023-08-08T12:27:36.000Z</time>
      </trkpt>
      <trkpt lat="50.77611" lon="1.74626">
        <ele>39.200000762939</ele>
        <time>2023-08-08T12:27:38.000Z</time>
      </trkpt>
      <trkpt lat="50.77598" lon="1.74668">
        <ele>40</ele>
        <time>2023-08-08T12:27:47.000Z</time>
      </trkpt>
      <trkpt lat="50.77583" lon="1.74714">
        <ele>41.200000762939</ele>
        <time>2023-08-08T12:27:58.000Z</time>
      </trkpt>
      <trkpt lat="50.77582" lon="1.74718">
        <ele>41.400001525879</ele>
        <time>2023-08-08T12:27:59.000Z</time>
      </trkpt>
      <trkpt lat="50.77572" lon="1.74746">
        <ele>42.200000762939</ele>
        <time>2023-08-08T12:28:05.000Z</time>
      </trkpt>
      <trkpt lat="50.77569" lon="1.74754">
        <ele>42.200000762939</ele>
        <time>2023-08-08T12:28:07.000Z</time>
      </trkpt>
      <trkpt lat="50.77554" lon="1.74786">
        <ele>42.799999237061</ele>
        <time>2023-08-08T12:28:15.000Z</time>
      </trkpt>
      <trkpt lat="50.77545" lon="1.748">
        <ele>43.200000762939</ele>
        <time>2023-08-08T12:28:19.000Z</time>
      </trkpt>
      <trkpt lat="50.77532" lon="1.74822">
        <ele>43.799999237061</ele>
        <time>2023-08-08T12:28:25.000Z</time>
      </trkpt>
      <trkpt lat="50.77519" lon="1.74842">
        <ele>44.400001525879</ele>
        <time>2023-08-08T12:28:31.000Z</time>
      </trkpt>
      <trkpt lat="50.77516" lon="1.74845">
        <ele>44.400001525879</ele>
        <time>2023-08-08T12:28:32.000Z</time>
      </trkpt>
      <trkpt lat="50.77501" lon="1.74865">
        <ele>45.200000762939</ele>
        <time>2023-08-08T12:28:38.000Z</time>
      </trkpt>
      <trkpt lat="50.77494" lon="1.74875">
        <ele>45.400001525879</ele>
        <time>2023-08-08T12:28:41.000Z</time>
      </trkpt>
      <trkpt lat="50.77481" lon="1.74893">
        <ele>45.599998474121</ele>
        <time>2023-08-08T12:28:46.000Z</time>
      </trkpt>
      <trkpt lat="50.77456" lon="1.74925">
        <ele>46.400001525879</ele>
        <time>2023-08-08T12:28:55.000Z</time>
      </trkpt>
      <trkpt lat="50.7745" lon="1.74933">
        <ele>46.400001525879</ele>
        <time>2023-08-08T12:28:57.000Z</time>
      </trkpt>
      <trkpt lat="50.77431" lon="1.74952">
        <ele>46.599998474121</ele>
        <time>2023-08-08T12:29:03.000Z</time>
      </trkpt>
      <trkpt lat="50.7741" lon="1.74973">
        <ele>46.799999237061</ele>
        <time>2023-08-08T12:29:10.000Z</time>
      </trkpt>
      <trkpt lat="50.77378" lon="1.75003">
        <ele>47.400001525879</ele>
        <time>2023-08-08T12:29:20.000Z</time>
      </trkpt>
      <trkpt lat="50.7735" lon="1.7503">
        <ele>48.200000762939</ele>
        <time>2023-08-08T12:29:29.000Z</time>
      </trkpt>
      <trkpt lat="50.77344" lon="1.75035">
        <ele>48.599998474121</ele>
        <time>2023-08-08T12:29:31.000Z</time>
      </trkpt>
      <trkpt lat="50.77328" lon="1.75051">
        <ele>49.599998474121</ele>
        <time>2023-08-08T12:29:37.000Z</time>
      </trkpt>
      <trkpt lat="50.77325" lon="1.75054">
        <ele>49.799999237061</ele>
        <time>2023-08-08T12:29:38.000Z</time>
      </trkpt>
      <trkpt lat="50.77307" lon="1.75073">
        <ele>50.400001525879</ele>
        <time>2023-08-08T12:29:45.000Z</time>
      </trkpt>
      <trkpt lat="50.77294" lon="1.75085">
        <ele>50.599998474121</ele>
        <time>2023-08-08T12:29:50.000Z</time>
      </trkpt>
      <trkpt lat="50.77281" lon="1.75097">
        <ele>51.599998474121</ele>
        <time>2023-08-08T12:29:55.000Z</time>
      </trkpt>
      <trkpt lat="50.77279" lon="1.75099">
        <ele>52</ele>
        <time>2023-08-08T12:29:56.000Z</time>
      </trkpt>
      <trkpt lat="50.77261" lon="1.75115">
        <ele>53</ele>
        <time>2023-08-08T12:30:03.000Z</time>
      </trkpt>
      <trkpt lat="50.77237" lon="1.75131">
        <ele>53.799999237061</ele>
        <time>2023-08-08T12:30:12.000Z</time>
      </trkpt>
      <trkpt lat="50.77212" lon="1.75139">
        <ele>54</ele>
        <time>2023-08-08T12:30:20.000Z</time>
      </trkpt>
      <trkpt lat="50.77205" lon="1.75142">
        <ele>54.200000762939</ele>
        <time>2023-08-08T12:30:22.000Z</time>
      </trkpt>
      <trkpt lat="50.77182" lon="1.75159">
        <ele>54.799999237061</ele>
        <time>2023-08-08T12:30:30.000Z</time>
      </trkpt>
      <trkpt lat="50.77163" lon="1.75193">
        <ele>54.799999237061</ele>
        <time>2023-08-08T12:30:38.000Z</time>
      </trkpt>
      <trkpt lat="50.77153" lon="1.75211">
        <ele>55</ele>
        <time>2023-08-08T12:30:42.000Z</time>
      </trkpt>
      <trkpt lat="50.77146" lon="1.75223">
        <ele>55.200000762939</ele>
        <time>2023-08-08T12:30:45.000Z</time>
      </trkpt>
      <trkpt lat="50.77134" lon="1.75253">
        <ele>56</ele>
        <time>2023-08-08T12:30:53.000Z</time>
      </trkpt>
      <trkpt lat="50.77129" lon="1.75267">
        <ele>56.799999237061</ele>
        <time>2023-08-08T12:30:58.000Z</time>
      </trkpt>
      <trkpt lat="50.77125" lon="1.75273">
        <ele>57.400001525879</ele>
        <time>2023-08-08T12:31:00.000Z</time>
      </trkpt>
      <trkpt lat="50.77118" lon="1.75293">
        <ele>58.599998474121</ele>
        <time>2023-08-08T12:31:05.000Z</time>
      </trkpt>
      <trkpt lat="50.77106" lon="1.75311">
        <ele>59.799999237061</ele>
        <time>2023-08-08T12:31:10.000Z</time>
      </trkpt>
      <trkpt lat="50.77086" lon="1.75332">
        <ele>61</ele>
        <time>2023-08-08T12:31:17.000Z</time>
      </trkpt>
      <trkpt lat="50.77084" lon="1.75336">
        <ele>61</ele>
        <time>2023-08-08T12:31:18.000Z</time>
      </trkpt>
      <trkpt lat="50.77065" lon="1.75365">
        <ele>62</ele>
        <time>2023-08-08T12:31:26.000Z</time>
      </trkpt>
      <trkpt lat="50.77051" lon="1.75388">
        <ele>62.599998474121</ele>
        <time>2023-08-08T12:31:32.000Z</time>
      </trkpt>
      <trkpt lat="50.77047" lon="1.75392">
        <ele>63</ele>
        <time>2023-08-08T12:31:34.000Z</time>
      </trkpt>
      <trkpt lat="50.77037" lon="1.75411">
        <ele>63.400001525879</ele>
        <time>2023-08-08T12:31:40.000Z</time>
      </trkpt>
      <trkpt lat="50.77029" lon="1.7543">
        <ele>63.799999237061</ele>
        <time>2023-08-08T12:31:45.000Z</time>
      </trkpt>
      <trkpt lat="50.77025" lon="1.75438">
        <ele>64</ele>
        <time>2023-08-08T12:31:47.000Z</time>
      </trkpt>
      <trkpt lat="50.77017" lon="1.7546">
        <ele>64.599998474121</ele>
        <time>2023-08-08T12:31:53.000Z</time>
      </trkpt>
      <trkpt lat="50.77015" lon="1.75463">
        <ele>65</ele>
        <time>2023-08-08T12:31:55.000Z</time>
      </trkpt>
      <trkpt lat="50.77015" lon="1.75463">
        <ele>65.199996948242</ele>
        <time>2023-08-08T12:31:57.000Z</time>
      </trkpt>
      <trkpt lat="50.77003" lon="1.75503">
        <ele>64.599998474121</ele>
        <time>2023-08-08T12:34:57.000Z</time>
      </trkpt>
      <trkpt lat="50.77" lon="1.75515">
        <ele>64.800003051758</ele>
        <time>2023-08-08T12:35:00.000Z</time>
      </trkpt>
      <trkpt lat="50.76991" lon="1.75542">
        <ele>64.800003051758</ele>
        <time>2023-08-08T12:35:06.000Z</time>
      </trkpt>
      <trkpt lat="50.76984" lon="1.75568">
        <ele>64.800003051758</ele>
        <time>2023-08-08T12:35:11.000Z</time>
      </trkpt>
      <trkpt lat="50.76979" lon="1.75594">
        <ele>65.400001525879</ele>
        <time>2023-08-08T12:35:17.000Z</time>
      </trkpt>
      <trkpt lat="50.76977" lon="1.75602">
        <ele>65.800003051758</ele>
        <time>2023-08-08T12:35:19.000Z</time>
      </trkpt>
      <trkpt lat="50.76969" lon="1.75621">
        <ele>66.599998474121</ele>
        <time>2023-08-08T12:35:24.000Z</time>
      </trkpt>
      <trkpt lat="50.76964" lon="1.75633">
        <ele>67</ele>
        <time>2023-08-08T12:35:27.000Z</time>
      </trkpt>
      <trkpt lat="50.76945" lon="1.75665">
        <ele>67.400001525879</ele>
        <time>2023-08-08T12:35:36.000Z</time>
      </trkpt>
      <trkpt lat="50.76937" lon="1.7568">
        <ele>67.599998474121</ele>
        <time>2023-08-08T12:35:40.000Z</time>
      </trkpt>
      <trkpt lat="50.76929" lon="1.75694">
        <ele>68</ele>
        <time>2023-08-08T12:35:44.000Z</time>
      </trkpt>
      <trkpt lat="50.76917" lon="1.75715">
        <ele>68.800003051758</ele>
        <time>2023-08-08T12:35:50.000Z</time>
      </trkpt>
      <trkpt lat="50.76909" lon="1.75728">
        <ele>69.199996948242</ele>
        <time>2023-08-08T12:35:54.000Z</time>
      </trkpt>
      <trkpt lat="50.76898" lon="1.75747">
        <ele>69.800003051758</ele>
        <time>2023-08-08T12:35:59.000Z</time>
      </trkpt>
      <trkpt lat="50.76891" lon="1.7576">
        <ele>70.199996948242</ele>
        <time>2023-08-08T12:36:02.000Z</time>
      </trkpt>
      <trkpt lat="50.76872" lon="1.75793">
        <ele>70.400001525879</ele>
        <time>2023-08-08T12:36:10.000Z</time>
      </trkpt>
      <trkpt lat="50.76848" lon="1.75828">
        <ele>70.800003051758</ele>
        <time>2023-08-08T12:36:19.000Z</time>
      </trkpt>
      <trkpt lat="50.76824" lon="1.75851">
        <ele>71.400001525879</ele>
        <time>2023-08-08T12:36:27.000Z</time>
      </trkpt>
      <trkpt lat="50.76818" lon="1.75857">
        <ele>71.800003051758</ele>
        <time>2023-08-08T12:36:29.000Z</time>
      </trkpt>
      <trkpt lat="50.768" lon="1.75873">
        <ele>72.599998474121</ele>
        <time>2023-08-08T12:36:35.000Z</time>
      </trkpt>
      <trkpt lat="50.76795" lon="1.75878">
        <ele>73</ele>
        <time>2023-08-08T12:36:37.000Z</time>
      </trkpt>
      <trkpt lat="50.76778" lon="1.75897">
        <ele>74</ele>
        <time>2023-08-08T12:36:43.000Z</time>
      </trkpt>
      <trkpt lat="50.76776" lon="1.75901">
        <ele>74</ele>
        <time>2023-08-08T12:36:44.000Z</time>
      </trkpt>
      <trkpt lat="50.76755" lon="1.75943">
        <ele>74.199996948242</ele>
        <time>2023-08-08T12:36:53.000Z</time>
      </trkpt>
      <trkpt lat="50.76739" lon="1.75981">
        <ele>74.400001525879</ele>
        <time>2023-08-08T12:37:00.000Z</time>
      </trkpt>
      <trkpt lat="50.76722" lon="1.76028">
        <ele>74.800003051758</ele>
        <time>2023-08-08T12:37:08.000Z</time>
      </trkpt>
      <trkpt lat="50.7672" lon="1.76035">
        <ele>75</ele>
        <time>2023-08-08T12:37:09.000Z</time>
      </trkpt>
      <trkpt lat="50.76717" lon="1.76051">
        <ele>75</ele>
        <time>2023-08-08T12:37:11.000Z</time>
      </trkpt>
      <trkpt lat="50.76717" lon="1.76065">
        <ele>75</ele>
        <time>2023-08-08T12:37:13.000Z</time>
      </trkpt>
      <trkpt lat="50.76717" lon="1.76078">
        <ele>75.400001525879</ele>
        <time>2023-08-08T12:37:15.000Z</time>
      </trkpt>
      <trkpt lat="50.76718" lon="1.76092">
        <ele>75.599998474121</ele>
        <time>2023-08-08T12:37:17.000Z</time>
      </trkpt>
      <trkpt lat="50.76721" lon="1.76119">
        <ele>75.800003051758</ele>
        <time>2023-08-08T12:37:21.000Z</time>
      </trkpt>
      <trkpt lat="50.76722" lon="1.76132">
        <ele>76.199996948242</ele>
        <time>2023-08-08T12:37:23.000Z</time>
      </trkpt>
      <trkpt lat="50.76724" lon="1.76146">
        <ele>76.599998474121</ele>
        <time>2023-08-08T12:37:25.000Z</time>
      </trkpt>
      <trkpt lat="50.76724" lon="1.76161">
        <ele>76.800003051758</ele>
        <time>2023-08-08T12:37:27.000Z</time>
      </trkpt>
      <trkpt lat="50.76718" lon="1.76222">
        <ele>77.199996948242</ele>
        <time>2023-08-08T12:37:35.000Z</time>
      </trkpt>
      <trkpt lat="50.76704" lon="1.76283">
        <ele>77.599998474121</ele>
        <time>2023-08-08T12:37:44.000Z</time>
      </trkpt>
      <trkpt lat="50.76688" lon="1.76319">
        <ele>77.599998474121</ele>
        <time>2023-08-08T12:37:50.000Z</time>
      </trkpt>
      <trkpt lat="50.76678" lon="1.76339">
        <ele>77.800003051758</ele>
        <time>2023-08-08T12:37:54.000Z</time>
      </trkpt>
      <trkpt lat="50.76668" lon="1.76354">
        <ele>77.800003051758</ele>
        <time>2023-08-08T12:37:57.000Z</time>
      </trkpt>
      <trkpt lat="50.76662" lon="1.76363">
        <ele>77.800003051758</ele>
        <time>2023-08-08T12:37:59.000Z</time>
      </trkpt>
      <trkpt lat="50.76655" lon="1.76372">
        <ele>77.800003051758</ele>
        <time>2023-08-08T12:38:01.000Z</time>
      </trkpt>
      <trkpt lat="50.76649" lon="1.76379">
        <ele>77.800003051758</ele>
        <time>2023-08-08T12:38:03.000Z</time>
      </trkpt>
      <trkpt lat="50.76626" lon="1.76406">
        <ele>77.800003051758</ele>
        <time>2023-08-08T12:38:09.000Z</time>
      </trkpt>
      <trkpt lat="50.76607" lon="1.76441">
        <ele>77.199996948242</ele>
        <time>2023-08-08T12:38:14.000Z</time>
      </trkpt>
      <trkpt lat="50.76584" lon="1.76488">
        <ele>75.800003051758</ele>
        <time>2023-08-08T12:38:19.000Z</time>
      </trkpt>
      <trkpt lat="50.7658" lon="1.76498">
        <ele>75.599998474121</ele>
        <time>2023-08-08T12:38:20.000Z</time>
      </trkpt>
      <trkpt lat="50.76571" lon="1.76534">
        <ele>74.800003051758</ele>
        <time>2023-08-08T12:38:23.000Z</time>
      </trkpt>
      <trkpt lat="50.76567" lon="1.76559">
        <ele>74</ele>
        <time>2023-08-08T12:38:25.000Z</time>
      </trkpt>
      <trkpt lat="50.76564" lon="1.76571">
        <ele>73.599998474121</ele>
        <time>2023-08-08T12:38:26.000Z</time>
      </trkpt>
      <trkpt lat="50.76559" lon="1.76597">
        <ele>72.400001525879</ele>
        <time>2023-08-08T12:38:28.000Z</time>
      </trkpt>
      <trkpt lat="50.76551" lon="1.76622">
        <ele>71.800003051758</ele>
        <time>2023-08-08T12:38:30.000Z</time>
      </trkpt>
      <trkpt lat="50.76539" lon="1.76653">
        <ele>71.199996948242</ele>
        <time>2023-08-08T12:38:32.000Z</time>
      </trkpt>
      <trkpt lat="50.76527" lon="1.76681">
        <ele>70.199996948242</ele>
        <time>2023-08-08T12:38:34.000Z</time>
      </trkpt>
      <trkpt lat="50.76522" lon="1.76693">
        <ele>69.199996948242</ele>
        <time>2023-08-08T12:38:35.000Z</time>
      </trkpt>
      <trkpt lat="50.76514" lon="1.76709">
        <ele>68</ele>
        <time>2023-08-08T12:38:36.000Z</time>
      </trkpt>
      <trkpt lat="50.76502" lon="1.76737">
        <ele>66.199996948242</ele>
        <time>2023-08-08T12:38:38.000Z</time>
      </trkpt>
      <trkpt lat="50.7649" lon="1.76766">
        <ele>64</ele>
        <time>2023-08-08T12:38:40.000Z</time>
      </trkpt>
      <trkpt lat="50.76484" lon="1.7678">
        <ele>62.799999237061</ele>
        <time>2023-08-08T12:38:41.000Z</time>
      </trkpt>
      <trkpt lat="50.76472" lon="1.76809">
        <ele>61.400001525879</ele>
        <time>2023-08-08T12:38:43.000Z</time>
      </trkpt>
      <trkpt lat="50.7646" lon="1.76836">
        <ele>59.400001525879</ele>
        <time>2023-08-08T12:38:45.000Z</time>
      </trkpt>
      <trkpt lat="50.76448" lon="1.76863">
        <ele>58.400001525879</ele>
        <time>2023-08-08T12:38:47.000Z</time>
      </trkpt>
      <trkpt lat="50.76441" lon="1.76874">
        <ele>57</ele>
        <time>2023-08-08T12:38:48.000Z</time>
      </trkpt>
      <trkpt lat="50.76433" lon="1.76885">
        <ele>56.200000762939</ele>
        <time>2023-08-08T12:38:49.000Z</time>
      </trkpt>
      <trkpt lat="50.76424" lon="1.76894">
        <ele>55.200000762939</ele>
        <time>2023-08-08T12:38:50.000Z</time>
      </trkpt>
      <trkpt lat="50.76403" lon="1.76908">
        <ele>54</ele>
        <time>2023-08-08T12:38:52.000Z</time>
      </trkpt>
      <trkpt lat="50.76382" lon="1.76924">
        <ele>52</ele>
        <time>2023-08-08T12:38:54.000Z</time>
      </trkpt>
      <trkpt lat="50.76374" lon="1.76932">
        <ele>50.400001525879</ele>
        <time>2023-08-08T12:38:55.000Z</time>
      </trkpt>
      <trkpt lat="50.76364" lon="1.76943">
        <ele>49.799999237061</ele>
        <time>2023-08-08T12:38:56.000Z</time>
      </trkpt>
      <trkpt lat="50.76353" lon="1.76957">
        <ele>48.799999237061</ele>
        <time>2023-08-08T12:38:57.000Z</time>
      </trkpt>
      <trkpt lat="50.76338" lon="1.76984">
        <ele>47.400001525879</ele>
        <time>2023-08-08T12:38:59.000Z</time>
      </trkpt>
      <trkpt lat="50.76332" lon="1.76995">
        <ele>45.799999237061</ele>
        <time>2023-08-08T12:39:00.000Z</time>
      </trkpt>
      <trkpt lat="50.76316" lon="1.77023">
        <ele>44.200000762939</ele>
        <time>2023-08-08T12:39:02.000Z</time>
      </trkpt>
      <trkpt lat="50.76296" lon="1.77061">
        <ele>43</ele>
        <time>2023-08-08T12:39:05.000Z</time>
      </trkpt>
      <trkpt lat="50.76277" lon="1.77093">
        <ele>42</ele>
        <time>2023-08-08T12:39:08.000Z</time>
      </trkpt>
      <trkpt lat="50.76264" lon="1.77115">
        <ele>41</ele>
        <time>2023-08-08T12:39:10.000Z</time>
      </trkpt>
      <trkpt lat="50.76257" lon="1.77126">
        <ele>40.599998474121</ele>
        <time>2023-08-08T12:39:11.000Z</time>
      </trkpt>
      <trkpt lat="50.76239" lon="1.77158">
        <ele>39</ele>
        <time>2023-08-08T12:39:14.000Z</time>
      </trkpt>
      <trkpt lat="50.76221" lon="1.77187">
        <ele>38.200000762939</ele>
        <time>2023-08-08T12:39:17.000Z</time>
      </trkpt>
      <trkpt lat="50.76215" lon="1.77196">
        <ele>37.799999237061</ele>
        <time>2023-08-08T12:39:18.000Z</time>
      </trkpt>
      <trkpt lat="50.76186" lon="1.77239">
        <ele>36.599998474121</ele>
        <time>2023-08-08T12:39:23.000Z</time>
      </trkpt>
      <trkpt lat="50.76181" lon="1.77248">
        <ele>36.599998474121</ele>
        <time>2023-08-08T12:39:24.000Z</time>
      </trkpt>
      <trkpt lat="50.76149" lon="1.77298">
        <ele>35.599998474121</ele>
        <time>2023-08-08T12:39:30.000Z</time>
      </trkpt>
      <trkpt lat="50.7614" lon="1.77314">
        <ele>35.400001525879</ele>
        <time>2023-08-08T12:39:32.000Z</time>
      </trkpt>
      <trkpt lat="50.7613" lon="1.77343">
        <ele>35.200000762939</ele>
        <time>2023-08-08T12:39:35.000Z</time>
      </trkpt>
      <trkpt lat="50.76129" lon="1.77351">
        <ele>35.200000762939</ele>
        <time>2023-08-08T12:39:36.000Z</time>
      </trkpt>
      <trkpt lat="50.7613" lon="1.77362">
        <ele>35.200000762939</ele>
        <time>2023-08-08T12:39:37.000Z</time>
      </trkpt>
      <trkpt lat="50.76133" lon="1.77381">
        <ele>35</ele>
        <time>2023-08-08T12:39:39.000Z</time>
      </trkpt>
      <trkpt lat="50.76147" lon="1.77411">
        <ele>35</ele>
        <time>2023-08-08T12:39:43.000Z</time>
      </trkpt>
      <trkpt lat="50.76176" lon="1.77455">
        <ele>34.799999237061</ele>
        <time>2023-08-08T12:39:50.000Z</time>
      </trkpt>
      <trkpt lat="50.76183" lon="1.77469">
        <ele>35</ele>
        <time>2023-08-08T12:39:52.000Z</time>
      </trkpt>
      <trkpt lat="50.76187" lon="1.77485">
        <ele>35</ele>
        <time>2023-08-08T12:39:54.000Z</time>
      </trkpt>
      <trkpt lat="50.76189" lon="1.77502">
        <ele>35</ele>
        <time>2023-08-08T12:39:56.000Z</time>
      </trkpt>
      <trkpt lat="50.76188" lon="1.77528">
        <ele>35.200000762939</ele>
        <time>2023-08-08T12:39:59.000Z</time>
      </trkpt>
      <trkpt lat="50.76186" lon="1.77597">
        <ele>36</ele>
        <time>2023-08-08T12:40:08.000Z</time>
      </trkpt>
      <trkpt lat="50.76185" lon="1.77626">
        <ele>36.400001525879</ele>
        <time>2023-08-08T12:40:12.000Z</time>
      </trkpt>
      <trkpt lat="50.76182" lon="1.77646">
        <ele>36.799999237061</ele>
        <time>2023-08-08T12:40:15.000Z</time>
      </trkpt>
      <trkpt lat="50.76178" lon="1.77658">
        <ele>37</ele>
        <time>2023-08-08T12:40:17.000Z</time>
      </trkpt>
      <trkpt lat="50.76168" lon="1.7768">
        <ele>37.400001525879</ele>
        <time>2023-08-08T12:40:21.000Z</time>
      </trkpt>
      <trkpt lat="50.76163" lon="1.7769">
        <ele>37.799999237061</ele>
        <time>2023-08-08T12:40:23.000Z</time>
      </trkpt>
      <trkpt lat="50.76146" lon="1.77716">
        <ele>38.799999237061</ele>
        <time>2023-08-08T12:40:29.000Z</time>
      </trkpt>
      <trkpt lat="50.76144" lon="1.7772">
        <ele>39</ele>
        <time>2023-08-08T12:40:30.000Z</time>
      </trkpt>
      <trkpt lat="50.76131" lon="1.77738">
        <ele>40</ele>
        <time>2023-08-08T12:40:35.000Z</time>
      </trkpt>
      <trkpt lat="50.76126" lon="1.77745">
        <ele>40.200000762939</ele>
        <time>2023-08-08T12:40:37.000Z</time>
      </trkpt>
      <trkpt lat="50.7611" lon="1.77771">
        <ele>41</ele>
        <time>2023-08-08T12:40:44.000Z</time>
      </trkpt>
      <trkpt lat="50.76106" lon="1.77779">
        <ele>41.200000762939</ele>
        <time>2023-08-08T12:40:46.000Z</time>
      </trkpt>
      <trkpt lat="50.7609" lon="1.77814">
        <ele>42.200000762939</ele>
        <time>2023-08-08T12:40:54.000Z</time>
      </trkpt>
      <trkpt lat="50.76086" lon="1.77822">
        <ele>42.400001525879</ele>
        <time>2023-08-08T12:40:56.000Z</time>
      </trkpt>
      <trkpt lat="50.76078" lon="1.77847">
        <ele>42.599998474121</ele>
        <time>2023-08-08T12:41:01.000Z</time>
      </trkpt>
      <trkpt lat="50.76079" lon="1.77853">
        <ele>42.599998474121</ele>
        <time>2023-08-08T12:41:02.000Z</time>
      </trkpt>
      <trkpt lat="50.7608" lon="1.77858">
        <ele>42.799999237061</ele>
        <time>2023-08-08T12:41:03.000Z</time>
      </trkpt>
      <trkpt lat="50.76088" lon="1.77874">
        <ele>42.799999237061</ele>
        <time>2023-08-08T12:41:06.000Z</time>
      </trkpt>
      <trkpt lat="50.76104" lon="1.77911">
        <ele>43.400001525879</ele>
        <time>2023-08-08T12:41:13.000Z</time>
      </trkpt>
      <trkpt lat="50.7611" lon="1.77924">
        <ele>43.400001525879</ele>
        <time>2023-08-08T12:41:15.000Z</time>
      </trkpt>
      <trkpt lat="50.76134" lon="1.77975">
        <ele>43.799999237061</ele>
        <time>2023-08-08T12:41:24.000Z</time>
      </trkpt>
      <trkpt lat="50.76166" lon="1.78039">
        <ele>43.799999237061</ele>
        <time>2023-08-08T12:41:34.000Z</time>
      </trkpt>
      <trkpt lat="50.76192" lon="1.78082">
        <ele>43.400001525879</ele>
        <time>2023-08-08T12:41:40.000Z</time>
      </trkpt>
      <trkpt lat="50.76212" lon="1.78111">
        <ele>42.400001525879</ele>
        <time>2023-08-08T12:41:44.000Z</time>
      </trkpt>
      <trkpt lat="50.76227" lon="1.78133">
        <ele>42</ele>
        <time>2023-08-08T12:41:47.000Z</time>
      </trkpt>
      <trkpt lat="50.7627" lon="1.78198">
        <ele>41.599998474121</ele>
        <time>2023-08-08T12:41:56.000Z</time>
      </trkpt>
      <trkpt lat="50.76304" lon="1.78257">
        <ele>41.599998474121</ele>
        <time>2023-08-08T12:42:04.000Z</time>
      </trkpt>
      <trkpt lat="50.76336" lon="1.78321">
        <ele>42.200000762939</ele>
        <time>2023-08-08T12:42:13.000Z</time>
      </trkpt>
      <trkpt lat="50.76364" lon="1.78375">
        <ele>43</ele>
        <time>2023-08-08T12:42:22.000Z</time>
      </trkpt>
      <trkpt lat="50.76372" lon="1.78391">
        <ele>43.400001525879</ele>
        <time>2023-08-08T12:42:25.000Z</time>
      </trkpt>
      <trkpt lat="50.76387" lon="1.78421">
        <ele>44.200000762939</ele>
        <time>2023-08-08T12:42:30.000Z</time>
      </trkpt>
      <trkpt lat="50.76395" lon="1.78437">
        <ele>44.599998474121</ele>
        <time>2023-08-08T12:42:33.000Z</time>
      </trkpt>
      <trkpt lat="50.76405" lon="1.78465">
        <ele>45.200000762939</ele>
        <time>2023-08-08T12:42:38.000Z</time>
      </trkpt>
      <trkpt lat="50.76405" lon="1.78491">
        <ele>45.400001525879</ele>
        <time>2023-08-08T12:42:43.000Z</time>
      </trkpt>
      <trkpt lat="50.76394" lon="1.78498">
        <ele>45.599998474121</ele>
        <time>2023-08-08T12:42:47.000Z</time>
      </trkpt>
      <trkpt lat="50.7639" lon="1.78498">
        <ele>45.599998474121</ele>
        <time>2023-08-08T12:42:48.000Z</time>
      </trkpt>
      <trkpt lat="50.76364" lon="1.78504">
        <ele>46.400001525879</ele>
        <time>2023-08-08T12:42:55.000Z</time>
      </trkpt>
      <trkpt lat="50.76356" lon="1.78508">
        <ele>46.799999237061</ele>
        <time>2023-08-08T12:42:57.000Z</time>
      </trkpt>
      <trkpt lat="50.76332" lon="1.7852">
        <ele>47.599998474121</ele>
        <time>2023-08-08T12:43:03.000Z</time>
      </trkpt>
      <trkpt lat="50.7632" lon="1.78528">
        <ele>47.799999237061</ele>
        <time>2023-08-08T12:43:06.000Z</time>
      </trkpt>
      <trkpt lat="50.76292" lon="1.7855">
        <ele>48.599998474121</ele>
        <time>2023-08-08T12:43:14.000Z</time>
      </trkpt>
      <trkpt lat="50.76285" lon="1.78555">
        <ele>49</ele>
        <time>2023-08-08T12:43:16.000Z</time>
      </trkpt>
      <trkpt lat="50.76262" lon="1.78572">
        <ele>49.799999237061</ele>
        <time>2023-08-08T12:43:23.000Z</time>
      </trkpt>
      <trkpt lat="50.76256" lon="1.78577">
        <ele>50</ele>
        <time>2023-08-08T12:43:25.000Z</time>
      </trkpt>
      <trkpt lat="50.76224" lon="1.78593">
        <ele>50.599998474121</ele>
        <time>2023-08-08T12:43:34.000Z</time>
      </trkpt>
      <trkpt lat="50.76212" lon="1.78598">
        <ele>51</ele>
        <time>2023-08-08T12:43:37.000Z</time>
      </trkpt>
      <trkpt lat="50.76198" lon="1.78605">
        <ele>51.799999237061</ele>
        <time>2023-08-08T12:43:41.000Z</time>
      </trkpt>
      <trkpt lat="50.76162" lon="1.78626">
        <ele>52</ele>
        <time>2023-08-08T12:43:51.000Z</time>
      </trkpt>
      <trkpt lat="50.76159" lon="1.78629">
        <ele>52.200000762939</ele>
        <time>2023-08-08T12:43:52.000Z</time>
      </trkpt>
      <trkpt lat="50.76133" lon="1.78655">
        <ele>53</ele>
        <time>2023-08-08T12:44:00.000Z</time>
      </trkpt>
      <trkpt lat="50.76114" lon="1.78678">
        <ele>53.400001525879</ele>
        <time>2023-08-08T12:44:06.000Z</time>
      </trkpt>
      <trkpt lat="50.76108" lon="1.78686">
        <ele>53.599998474121</ele>
        <time>2023-08-08T12:44:08.000Z</time>
      </trkpt>
      <trkpt lat="50.76092" lon="1.78713">
        <ele>54.200000762939</ele>
        <time>2023-08-08T12:44:14.000Z</time>
      </trkpt>
      <trkpt lat="50.76074" lon="1.78744">
        <ele>54.400001525879</ele>
        <time>2023-08-08T12:44:20.000Z</time>
      </trkpt>
      <trkpt lat="50.76065" lon="1.7876">
        <ele>54.599998474121</ele>
        <time>2023-08-08T12:44:23.000Z</time>
      </trkpt>
      <trkpt lat="50.76035" lon="1.78814">
        <ele>55.200000762939</ele>
        <time>2023-08-08T12:44:32.000Z</time>
      </trkpt>
      <trkpt lat="50.76002" lon="1.78872">
        <ele>54.799999237061</ele>
        <time>2023-08-08T12:44:41.000Z</time>
      </trkpt>
      <trkpt lat="50.75982" lon="1.78909">
        <ele>55</ele>
        <time>2023-08-08T12:44:46.000Z</time>
      </trkpt>
      <trkpt lat="50.75975" lon="1.78923">
        <ele>55</ele>
        <time>2023-08-08T12:44:48.000Z</time>
      </trkpt>
      <trkpt lat="50.75939" lon="1.78984">
        <ele>55.400001525879</ele>
        <time>2023-08-08T12:44:57.000Z</time>
      </trkpt>
      <trkpt lat="50.75928" lon="1.79001">
        <ele>55.799999237061</ele>
        <time>2023-08-08T12:45:00.000Z</time>
      </trkpt>
      <trkpt lat="50.75891" lon="1.79057">
        <ele>56.200000762939</ele>
        <time>2023-08-08T12:45:10.000Z</time>
      </trkpt>
      <trkpt lat="50.75884" lon="1.79068">
        <ele>56.400001525879</ele>
        <time>2023-08-08T12:45:12.000Z</time>
      </trkpt>
      <trkpt lat="50.75855" lon="1.79108">
        <ele>57.599998474121</ele>
        <time>2023-08-08T12:45:20.000Z</time>
      </trkpt>
      <trkpt lat="50.7583" lon="1.79144">
        <ele>58</ele>
        <time>2023-08-08T12:45:28.000Z</time>
      </trkpt>
      <trkpt lat="50.75808" lon="1.79174">
        <ele>58.599998474121</ele>
        <time>2023-08-08T12:45:35.000Z</time>
      </trkpt>
      <trkpt lat="50.75805" lon="1.79178">
        <ele>58.799999237061</ele>
        <time>2023-08-08T12:45:36.000Z</time>
      </trkpt>
      <trkpt lat="50.75786" lon="1.79202">
        <ele>59.799999237061</ele>
        <time>2023-08-08T12:45:42.000Z</time>
      </trkpt>
      <trkpt lat="50.75783" lon="1.79207">
        <ele>60</ele>
        <time>2023-08-08T12:45:43.000Z</time>
      </trkpt>
      <trkpt lat="50.75758" lon="1.79239">
        <ele>61</ele>
        <time>2023-08-08T12:45:51.000Z</time>
      </trkpt>
      <trkpt lat="50.75755" lon="1.79244">
        <ele>61</ele>
        <time>2023-08-08T12:45:52.000Z</time>
      </trkpt>
      <trkpt lat="50.7573" lon="1.7928">
        <ele>62</ele>
        <time>2023-08-08T12:46:00.000Z</time>
      </trkpt>
      <trkpt lat="50.75727" lon="1.79285">
        <ele>62</ele>
        <time>2023-08-08T12:46:01.000Z</time>
      </trkpt>
      <trkpt lat="50.75706" lon="1.79324">
        <ele>62.599998474121</ele>
        <time>2023-08-08T12:46:09.000Z</time>
      </trkpt>
      <trkpt lat="50.75699" lon="1.79338">
        <ele>63</ele>
        <time>2023-08-08T12:46:12.000Z</time>
      </trkpt>
      <trkpt lat="50.75687" lon="1.79364">
        <ele>63.400001525879</ele>
        <time>2023-08-08T12:46:17.000Z</time>
      </trkpt>
      <trkpt lat="50.75668" lon="1.79403">
        <ele>64</ele>
        <time>2023-08-08T12:46:24.000Z</time>
      </trkpt>
      <trkpt lat="50.75657" lon="1.79423">
        <ele>64</ele>
        <time>2023-08-08T12:46:28.000Z</time>
      </trkpt>
      <trkpt lat="50.75622" lon="1.79473">
        <ele>64.800003051758</ele>
        <time>2023-08-08T12:46:39.000Z</time>
      </trkpt>
      <trkpt lat="50.75615" lon="1.7948">
        <ele>65</ele>
        <time>2023-08-08T12:46:41.000Z</time>
      </trkpt>
      <trkpt lat="50.75584" lon="1.79507">
        <ele>65.599998474121</ele>
        <time>2023-08-08T12:46:49.000Z</time>
      </trkpt>
      <trkpt lat="50.75576" lon="1.79512">
        <ele>65.599998474121</ele>
        <time>2023-08-08T12:46:51.000Z</time>
      </trkpt>
      <trkpt lat="50.75565" lon="1.79514">
        <ele>65.599998474121</ele>
        <time>2023-08-08T12:46:53.000Z</time>
      </trkpt>
      <trkpt lat="50.7556" lon="1.79513">
        <ele>65.599998474121</ele>
        <time>2023-08-08T12:46:54.000Z</time>
      </trkpt>
      <trkpt lat="50.75552" lon="1.7951">
        <ele>65.599998474121</ele>
        <time>2023-08-08T12:46:56.000Z</time>
      </trkpt>
      <trkpt lat="50.75542" lon="1.7951">
        <ele>65.599998474121</ele>
        <time>2023-08-08T12:46:58.000Z</time>
      </trkpt>
      <trkpt lat="50.75537" lon="1.79513">
        <ele>65.599998474121</ele>
        <time>2023-08-08T12:46:59.000Z</time>
      </trkpt>
      <trkpt lat="50.75534" lon="1.79517">
        <ele>65.599998474121</ele>
        <time>2023-08-08T12:47:00.000Z</time>
      </trkpt>
      <trkpt lat="50.75528" lon="1.79532">
        <ele>65.599998474121</ele>
        <time>2023-08-08T12:47:02.000Z</time>
      </trkpt>
      <trkpt lat="50.75525" lon="1.79548">
        <ele>65.599998474121</ele>
        <time>2023-08-08T12:47:04.000Z</time>
      </trkpt>
      <trkpt lat="50.7552" lon="1.79561">
        <ele>65.599998474121</ele>
        <time>2023-08-08T12:47:06.000Z</time>
      </trkpt>
      <trkpt lat="50.75515" lon="1.79569">
        <ele>65.400001525879</ele>
        <time>2023-08-08T12:47:07.000Z</time>
      </trkpt>
      <trkpt lat="50.7549" lon="1.79597">
        <ele>65.400001525879</ele>
        <time>2023-08-08T12:47:13.000Z</time>
      </trkpt>
      <trkpt lat="50.75454" lon="1.7962">
        <ele>66</ele>
        <time>2023-08-08T12:47:21.000Z</time>
      </trkpt>
      <trkpt lat="50.75419" lon="1.79634">
        <ele>66</ele>
        <time>2023-08-08T12:47:28.000Z</time>
      </trkpt>
      <trkpt lat="50.75386" lon="1.79648">
        <ele>64.800003051758</ele>
        <time>2023-08-08T12:47:33.000Z</time>
      </trkpt>
      <trkpt lat="50.75361" lon="1.79656">
        <ele>63.599998474121</ele>
        <time>2023-08-08T12:47:36.000Z</time>
      </trkpt>
      <trkpt lat="50.75339" lon="1.79667">
        <ele>62.799999237061</ele>
        <time>2023-08-08T12:47:39.000Z</time>
      </trkpt>
      <trkpt lat="50.75331" lon="1.79672">
        <ele>62</ele>
        <time>2023-08-08T12:47:40.000Z</time>
      </trkpt>
      <trkpt lat="50.75322" lon="1.79679">
        <ele>61.400001525879</ele>
        <time>2023-08-08T12:47:41.000Z</time>
      </trkpt>
      <trkpt lat="50.75309" lon="1.79692">
        <ele>61</ele>
        <time>2023-08-08T12:47:43.000Z</time>
      </trkpt>
      <trkpt lat="50.75288" lon="1.79724">
        <ele>59.400001525879</ele>
        <time>2023-08-08T12:47:46.000Z</time>
      </trkpt>
      <trkpt lat="50.75282" lon="1.79736">
        <ele>59</ele>
        <time>2023-08-08T12:47:47.000Z</time>
      </trkpt>
      <trkpt lat="50.75271" lon="1.79757">
        <ele>58.200000762939</ele>
        <time>2023-08-08T12:47:49.000Z</time>
      </trkpt>
      <trkpt lat="50.75256" lon="1.79784">
        <ele>57</ele>
        <time>2023-08-08T12:47:51.000Z</time>
      </trkpt>
      <trkpt lat="50.75243" lon="1.79806">
        <ele>55.599998474121</ele>
        <time>2023-08-08T12:47:53.000Z</time>
      </trkpt>
      <trkpt lat="50.75237" lon="1.79819">
        <ele>55.200000762939</ele>
        <time>2023-08-08T12:47:54.000Z</time>
      </trkpt>
      <trkpt lat="50.7523" lon="1.79833">
        <ele>54.200000762939</ele>
        <time>2023-08-08T12:47:55.000Z</time>
      </trkpt>
      <trkpt lat="50.75218" lon="1.79859">
        <ele>52.799999237061</ele>
        <time>2023-08-08T12:47:57.000Z</time>
      </trkpt>
      <trkpt lat="50.75211" lon="1.79871">
        <ele>52.200000762939</ele>
        <time>2023-08-08T12:47:58.000Z</time>
      </trkpt>
      <trkpt lat="50.75204" lon="1.79883">
        <ele>51.400001525879</ele>
        <time>2023-08-08T12:47:59.000Z</time>
      </trkpt>
      <trkpt lat="50.75189" lon="1.79907">
        <ele>50.200000762939</ele>
        <time>2023-08-08T12:48:01.000Z</time>
      </trkpt>
      <trkpt lat="50.7517" lon="1.79937">
        <ele>48.799999237061</ele>
        <time>2023-08-08T12:48:04.000Z</time>
      </trkpt>
      <trkpt lat="50.75163" lon="1.79948">
        <ele>48.599998474121</ele>
        <time>2023-08-08T12:48:05.000Z</time>
      </trkpt>
      <trkpt lat="50.7515" lon="1.79962">
        <ele>48.200000762939</ele>
        <time>2023-08-08T12:48:07.000Z</time>
      </trkpt>
      <trkpt lat="50.75117" lon="1.79985">
        <ele>48</ele>
        <time>2023-08-08T12:48:12.000Z</time>
      </trkpt>
      <trkpt lat="50.75073" lon="1.80007">
        <ele>48.400001525879</ele>
        <time>2023-08-08T12:48:19.000Z</time>
      </trkpt>
      <trkpt lat="50.75043" lon="1.80033">
        <ele>48.599998474121</ele>
        <time>2023-08-08T12:48:25.000Z</time>
      </trkpt>
      <trkpt lat="50.75005" lon="1.80075">
        <ele>48.400001525879</ele>
        <time>2023-08-08T12:48:33.000Z</time>
      </trkpt>
      <trkpt lat="50.74974" lon="1.8011">
        <ele>48</ele>
        <time>2023-08-08T12:48:40.000Z</time>
      </trkpt>
      <trkpt lat="50.7497" lon="1.80114">
        <ele>48</ele>
        <time>2023-08-08T12:48:41.000Z</time>
      </trkpt>
      <trkpt lat="50.74955" lon="1.80124">
        <ele>48</ele>
        <time>2023-08-08T12:48:44.000Z</time>
      </trkpt>
      <trkpt lat="50.7495" lon="1.80126">
        <ele>48</ele>
        <time>2023-08-08T12:48:45.000Z</time>
      </trkpt>
      <trkpt lat="50.74903" lon="1.8015">
        <ele>48.200000762939</ele>
        <time>2023-08-08T12:48:54.000Z</time>
      </trkpt>
      <trkpt lat="50.74868" lon="1.80175">
        <ele>48.799999237061</ele>
        <time>2023-08-08T12:49:02.000Z</time>
      </trkpt>
      <trkpt lat="50.74855" lon="1.80181">
        <ele>48.799999237061</ele>
        <time>2023-08-08T12:49:05.000Z</time>
      </trkpt>
      <trkpt lat="50.7484" lon="1.80187">
        <ele>49</ele>
        <time>2023-08-08T12:49:09.000Z</time>
      </trkpt>
      <trkpt lat="50.7482" lon="1.80192">
        <ele>50</ele>
        <time>2023-08-08T12:49:14.000Z</time>
      </trkpt>
      <trkpt lat="50.74803" lon="1.80198">
        <ele>50.599998474121</ele>
        <time>2023-08-08T12:49:18.000Z</time>
      </trkpt>
      <trkpt lat="50.74765" lon="1.80212">
        <ele>50.799999237061</ele>
        <time>2023-08-08T12:49:27.000Z</time>
      </trkpt>
      <trkpt lat="50.74754" lon="1.80216">
        <ele>51</ele>
        <time>2023-08-08T12:49:30.000Z</time>
      </trkpt>
      <trkpt lat="50.74742" lon="1.8022">
        <ele>51.200000762939</ele>
        <time>2023-08-08T12:49:33.000Z</time>
      </trkpt>
      <trkpt lat="50.74729" lon="1.80224">
        <ele>51.400001525879</ele>
        <time>2023-08-08T12:49:36.000Z</time>
      </trkpt>
      <trkpt lat="50.74698" lon="1.80235">
        <ele>52</ele>
        <time>2023-08-08T12:49:44.000Z</time>
      </trkpt>
      <trkpt lat="50.74684" lon="1.8024">
        <ele>52.599998474121</ele>
        <time>2023-08-08T12:49:48.000Z</time>
      </trkpt>
      <trkpt lat="50.74673" lon="1.80244">
        <ele>53.200000762939</ele>
        <time>2023-08-08T12:49:51.000Z</time>
      </trkpt>
      <trkpt lat="50.74651" lon="1.80251">
        <ele>53.599998474121</ele>
        <time>2023-08-08T12:49:57.000Z</time>
      </trkpt>
      <trkpt lat="50.74614" lon="1.80265">
        <ele>54</ele>
        <time>2023-08-08T12:50:07.000Z</time>
      </trkpt>
      <trkpt lat="50.74609" lon="1.80266">
        <ele>54.400001525879</ele>
        <time>2023-08-08T12:50:08.000Z</time>
      </trkpt>
      <trkpt lat="50.74587" lon="1.80275">
        <ele>54.200000762939</ele>
        <time>2023-08-08T12:50:14.000Z</time>
      </trkpt>
      <trkpt lat="50.74563" lon="1.80287">
        <ele>54.799999237061</ele>
        <time>2023-08-08T12:50:21.000Z</time>
      </trkpt>
      <trkpt lat="50.74557" lon="1.80294">
        <ele>55.200000762939</ele>
        <time>2023-08-08T12:50:23.000Z</time>
      </trkpt>
      <trkpt lat="50.74541" lon="1.80314">
        <ele>56</ele>
        <time>2023-08-08T12:50:29.000Z</time>
      </trkpt>
      <trkpt lat="50.74534" lon="1.80319">
        <ele>56.200000762939</ele>
        <time>2023-08-08T12:50:31.000Z</time>
      </trkpt>
      <trkpt lat="50.74528" lon="1.80317">
        <ele>56.400001525879</ele>
        <time>2023-08-08T12:50:33.000Z</time>
      </trkpt>
      <trkpt lat="50.74514" lon="1.80307">
        <ele>57.400001525879</ele>
        <time>2023-08-08T12:50:37.000Z</time>
      </trkpt>
      <trkpt lat="50.74507" lon="1.80307">
        <ele>58</ele>
        <time>2023-08-08T12:50:39.000Z</time>
      </trkpt>
      <trkpt lat="50.74493" lon="1.80319">
        <ele>58.400001525879</ele>
        <time>2023-08-08T12:50:43.000Z</time>
      </trkpt>
      <trkpt lat="50.7448" lon="1.80343">
        <ele>59</ele>
        <time>2023-08-08T12:50:48.000Z</time>
      </trkpt>
      <trkpt lat="50.74452" lon="1.8036">
        <ele>59.599998474121</ele>
        <time>2023-08-08T12:50:56.000Z</time>
      </trkpt>
      <trkpt lat="50.74448" lon="1.80362">
        <ele>59.599998474121</ele>
        <time>2023-08-08T12:50:57.000Z</time>
      </trkpt>
      <trkpt lat="50.7443" lon="1.80373">
        <ele>60.599998474121</ele>
        <time>2023-08-08T12:51:03.000Z</time>
      </trkpt>
      <trkpt lat="50.74419" lon="1.80381">
        <ele>60.799999237061</ele>
        <time>2023-08-08T12:51:06.000Z</time>
      </trkpt>
      <trkpt lat="50.74401" lon="1.80396">
        <ele>61.599998474121</ele>
        <time>2023-08-08T12:51:12.000Z</time>
      </trkpt>
      <trkpt lat="50.74382" lon="1.80412">
        <ele>62</ele>
        <time>2023-08-08T12:51:18.000Z</time>
      </trkpt>
      <trkpt lat="50.74375" lon="1.80418">
        <ele>62.200000762939</ele>
        <time>2023-08-08T12:51:20.000Z</time>
      </trkpt>
      <trkpt lat="50.7435" lon="1.80438">
        <ele>62.599998474121</ele>
        <time>2023-08-08T12:51:27.000Z</time>
      </trkpt>
      <trkpt lat="50.74342" lon="1.80444">
        <ele>62.599998474121</ele>
        <time>2023-08-08T12:51:29.000Z</time>
      </trkpt>
      <trkpt lat="50.74311" lon="1.80468">
        <ele>62.599998474121</ele>
        <time>2023-08-08T12:51:37.000Z</time>
      </trkpt>
      <trkpt lat="50.74269" lon="1.80504">
        <ele>62.400001525879</ele>
        <time>2023-08-08T12:51:47.000Z</time>
      </trkpt>
      <trkpt lat="50.74234" lon="1.80527">
        <ele>62</ele>
        <time>2023-08-08T12:51:54.000Z</time>
      </trkpt>
      <trkpt lat="50.7421" lon="1.80543">
        <ele>61.400001525879</ele>
        <time>2023-08-08T12:51:58.000Z</time>
      </trkpt>
      <trkpt lat="50.74193" lon="1.80554">
        <ele>60.799999237061</ele>
        <time>2023-08-08T12:52:01.000Z</time>
      </trkpt>
      <trkpt lat="50.74181" lon="1.80562">
        <ele>60.400001525879</ele>
        <time>2023-08-08T12:52:03.000Z</time>
      </trkpt>
      <trkpt lat="50.74156" lon="1.80578">
        <ele>59.400001525879</ele>
        <time>2023-08-08T12:52:07.000Z</time>
      </trkpt>
      <trkpt lat="50.74139" lon="1.80589">
        <ele>59</ele>
        <time>2023-08-08T12:52:10.000Z</time>
      </trkpt>
      <trkpt lat="50.74125" lon="1.80594">
        <ele>58.799999237061</ele>
        <time>2023-08-08T12:52:12.000Z</time>
      </trkpt>
      <trkpt lat="50.74113" lon="1.80595">
        <ele>58.400001525879</ele>
        <time>2023-08-08T12:52:14.000Z</time>
      </trkpt>
      <trkpt lat="50.74101" lon="1.80593">
        <ele>57.799999237061</ele>
        <time>2023-08-08T12:52:16.000Z</time>
      </trkpt>
      <trkpt lat="50.74088" lon="1.80583">
        <ele>57.400001525879</ele>
        <time>2023-08-08T12:52:18.000Z</time>
      </trkpt>
      <trkpt lat="50.74084" lon="1.8058">
        <ele>57</ele>
        <time>2023-08-08T12:52:19.000Z</time>
      </trkpt>
      <trkpt lat="50.74071" lon="1.80576">
        <ele>56.599998474121</ele>
        <time>2023-08-08T12:52:21.000Z</time>
      </trkpt>
      <trkpt lat="50.7406" lon="1.80577">
        <ele>56.200000762939</ele>
        <time>2023-08-08T12:52:23.000Z</time>
      </trkpt>
      <trkpt lat="50.74056" lon="1.80577">
        <ele>56</ele>
        <time>2023-08-08T12:52:24.000Z</time>
      </trkpt>
      <trkpt lat="50.74051" lon="1.80575">
        <ele>55.799999237061</ele>
        <time>2023-08-08T12:52:25.000Z</time>
      </trkpt>
      <trkpt lat="50.74046" lon="1.8057">
        <ele>55.799999237061</ele>
        <time>2023-08-08T12:52:26.000Z</time>
      </trkpt>
      <trkpt lat="50.7404" lon="1.80557">
        <ele>55.599998474121</ele>
        <time>2023-08-08T12:52:28.000Z</time>
      </trkpt>
      <trkpt lat="50.74037" lon="1.80525">
        <ele>55.200000762939</ele>
        <time>2023-08-08T12:52:32.000Z</time>
      </trkpt>
      <trkpt lat="50.74036" lon="1.8051">
        <ele>55</ele>
        <time>2023-08-08T12:52:34.000Z</time>
      </trkpt>
      <trkpt lat="50.74031" lon="1.80456">
        <ele>54</ele>
        <time>2023-08-08T12:52:40.000Z</time>
      </trkpt>
      <trkpt lat="50.74028" lon="1.80432">
        <ele>53.599998474121</ele>
        <time>2023-08-08T12:52:43.000Z</time>
      </trkpt>
      <trkpt lat="50.74024" lon="1.80387">
        <ele>53</ele>
        <time>2023-08-08T12:52:48.000Z</time>
      </trkpt>
      <trkpt lat="50.74019" lon="1.80333">
        <ele>52.400001525879</ele>
        <time>2023-08-08T12:52:54.000Z</time>
      </trkpt>
      <trkpt lat="50.74015" lon="1.80288">
        <ele>52</ele>
        <time>2023-08-08T12:52:59.000Z</time>
      </trkpt>
      <trkpt lat="50.74012" lon="1.80259">
        <ele>51.400001525879</ele>
        <time>2023-08-08T12:53:02.000Z</time>
      </trkpt>
      <trkpt lat="50.74009" lon="1.80224">
        <ele>51</ele>
        <time>2023-08-08T12:53:06.000Z</time>
      </trkpt>
      <trkpt lat="50.74005" lon="1.80182">
        <ele>50</ele>
        <time>2023-08-08T12:53:11.000Z</time>
      </trkpt>
      <trkpt lat="50.74003" lon="1.80166">
        <ele>49.799999237061</ele>
        <time>2023-08-08T12:53:13.000Z</time>
      </trkpt>
      <trkpt lat="50.73995" lon="1.80082">
        <ele>49.200000762939</ele>
        <time>2023-08-08T12:53:23.000Z</time>
      </trkpt>
      <trkpt lat="50.73994" lon="1.80075">
        <ele>49.200000762939</ele>
        <time>2023-08-08T12:53:24.000Z</time>
      </trkpt>
      <trkpt lat="50.73987" lon="1.80068">
        <ele>49</ele>
        <time>2023-08-08T12:53:26.000Z</time>
      </trkpt>
      <trkpt lat="50.73965" lon="1.8007">
        <ele>48.799999237061</ele>
        <time>2023-08-08T12:53:31.000Z</time>
      </trkpt>
      <trkpt lat="50.7396" lon="1.80071">
        <ele>48.799999237061</ele>
        <time>2023-08-08T12:53:32.000Z</time>
      </trkpt>
      <trkpt lat="50.73934" lon="1.80075">
        <ele>48.599998474121</ele>
        <time>2023-08-08T12:53:38.000Z</time>
      </trkpt>
      <trkpt lat="50.73906" lon="1.80079">
        <ele>49</ele>
        <time>2023-08-08T12:53:45.000Z</time>
      </trkpt>
      <trkpt lat="50.73873" lon="1.80084">
        <ele>49.599998474121</ele>
        <time>2023-08-08T12:53:54.000Z</time>
      </trkpt>
      <trkpt lat="50.73867" lon="1.80087">
        <ele>49.799999237061</ele>
        <time>2023-08-08T12:53:56.000Z</time>
      </trkpt>
      <trkpt lat="50.73847" lon="1.80095">
        <ele>50.400001525879</ele>
        <time>2023-08-08T12:54:02.000Z</time>
      </trkpt>
      <trkpt lat="50.73816" lon="1.80117">
        <ele>50.799999237061</ele>
        <time>2023-08-08T12:54:12.000Z</time>
      </trkpt>
      <trkpt lat="50.73791" lon="1.80144">
        <ele>51.799999237061</ele>
        <time>2023-08-08T12:54:21.000Z</time>
      </trkpt>
      <trkpt lat="50.73785" lon="1.8015">
        <ele>51.799999237061</ele>
        <time>2023-08-08T12:54:23.000Z</time>
      </trkpt>
      <trkpt lat="50.73767" lon="1.80164">
        <ele>52.799999237061</ele>
        <time>2023-08-08T12:54:29.000Z</time>
      </trkpt>
      <trkpt lat="50.73761" lon="1.80168">
        <ele>53</ele>
        <time>2023-08-08T12:54:31.000Z</time>
      </trkpt>
      <trkpt lat="50.73737" lon="1.8018">
        <ele>53.599998474121</ele>
        <time>2023-08-08T12:54:38.000Z</time>
      </trkpt>
      <trkpt lat="50.73706" lon="1.80194">
        <ele>53.799999237061</ele>
        <time>2023-08-08T12:54:46.000Z</time>
      </trkpt>
      <trkpt lat="50.73673" lon="1.80209">
        <ele>53.799999237061</ele>
        <time>2023-08-08T12:54:55.000Z</time>
      </trkpt>
      <trkpt lat="50.73627" lon="1.80225">
        <ele>53.799999237061</ele>
        <time>2023-08-08T12:55:07.000Z</time>
      </trkpt>
      <trkpt lat="50.7361" lon="1.80226">
        <ele>54.200000762939</ele>
        <time>2023-08-08T12:55:12.000Z</time>
      </trkpt>
      <trkpt lat="50.73599" lon="1.80223">
        <ele>54.200000762939</ele>
        <time>2023-08-08T12:55:15.000Z</time>
      </trkpt>
      <trkpt lat="50.73569" lon="1.80215">
        <ele>55</ele>
        <time>2023-08-08T12:55:25.000Z</time>
      </trkpt>
      <trkpt lat="50.73565" lon="1.80214">
        <ele>55.200000762939</ele>
        <time>2023-08-08T12:55:26.000Z</time>
      </trkpt>
      <trkpt lat="50.73548" lon="1.80209">
        <ele>56</ele>
        <time>2023-08-08T12:55:33.000Z</time>
      </trkpt>
      <trkpt lat="50.7354" lon="1.80206">
        <ele>56.400001525879</ele>
        <time>2023-08-08T12:55:36.000Z</time>
      </trkpt>
      <trkpt lat="50.73523" lon="1.80202">
        <ele>57.200000762939</ele>
        <time>2023-08-08T12:55:43.000Z</time>
      </trkpt>
      <trkpt lat="50.73513" lon="1.802">
        <ele>57.400001525879</ele>
        <time>2023-08-08T12:55:47.000Z</time>
      </trkpt>
      <trkpt lat="50.73503" lon="1.80198">
        <ele>57.599998474121</ele>
        <time>2023-08-08T12:55:51.000Z</time>
      </trkpt>
      <trkpt lat="50.73488" lon="1.80194">
        <ele>58.400001525879</ele>
        <time>2023-08-08T12:55:57.000Z</time>
      </trkpt>
      <trkpt lat="50.73475" lon="1.80192">
        <ele>59</ele>
        <time>2023-08-08T12:56:02.000Z</time>
      </trkpt>
      <trkpt lat="50.73463" lon="1.80188">
        <ele>59.599998474121</ele>
        <time>2023-08-08T12:56:07.000Z</time>
      </trkpt>
      <trkpt lat="50.73454" lon="1.80187">
        <ele>60.200000762939</ele>
        <time>2023-08-08T12:56:10.000Z</time>
      </trkpt>
      <trkpt lat="50.73447" lon="1.80185">
        <ele>60.599998474121</ele>
        <time>2023-08-08T12:56:13.000Z</time>
      </trkpt>
      <trkpt lat="50.73437" lon="1.80182">
        <ele>60.799999237061</ele>
        <time>2023-08-08T12:56:17.000Z</time>
      </trkpt>
      <trkpt lat="50.73425" lon="1.8018">
        <ele>61.599998474121</ele>
        <time>2023-08-08T12:56:22.000Z</time>
      </trkpt>
      <trkpt lat="50.73413" lon="1.80178">
        <ele>62.599998474121</ele>
        <time>2023-08-08T12:56:27.000Z</time>
      </trkpt>
      <trkpt lat="50.73411" lon="1.80177">
        <ele>62.799999237061</ele>
        <time>2023-08-08T12:56:28.000Z</time>
      </trkpt>
      <trkpt lat="50.73401" lon="1.80171">
        <ele>63</ele>
        <time>2023-08-08T12:56:33.000Z</time>
      </trkpt>
      <trkpt lat="50.73397" lon="1.80169">
        <ele>63.599998474121</ele>
        <time>2023-08-08T12:56:35.000Z</time>
      </trkpt>
      <trkpt lat="50.73396" lon="1.80167">
        <ele>63.799999237061</ele>
        <time>2023-08-08T12:56:36.000Z</time>
      </trkpt>
      <trkpt lat="50.73386" lon="1.80155">
        <ele>64.800003051758</ele>
        <time>2023-08-08T12:56:42.000Z</time>
      </trkpt>
      <trkpt lat="50.73375" lon="1.80137">
        <ele>66</ele>
        <time>2023-08-08T12:56:49.000Z</time>
      </trkpt>
      <trkpt lat="50.73372" lon="1.80133">
        <ele>66.400001525879</ele>
        <time>2023-08-08T12:56:51.000Z</time>
      </trkpt>
      <trkpt lat="50.73366" lon="1.8012">
        <ele>67.199996948242</ele>
        <time>2023-08-08T12:56:56.000Z</time>
      </trkpt>
      <trkpt lat="50.73364" lon="1.80115">
        <ele>67.800003051758</ele>
        <time>2023-08-08T12:56:58.000Z</time>
      </trkpt>
      <trkpt lat="50.73359" lon="1.80105">
        <ele>68.400001525879</ele>
        <time>2023-08-08T12:57:02.000Z</time>
      </trkpt>
      <trkpt lat="50.73352" lon="1.80095">
        <ele>69.400001525879</ele>
        <time>2023-08-08T12:57:07.000Z</time>
      </trkpt>
      <trkpt lat="50.7335" lon="1.80093">
        <ele>69.599998474121</ele>
        <time>2023-08-08T12:57:08.000Z</time>
      </trkpt>
      <trkpt lat="50.73339" lon="1.80079">
        <ele>70.599998474121</ele>
        <time>2023-08-08T12:57:15.000Z</time>
      </trkpt>
      <trkpt lat="50.73336" lon="1.80076">
        <ele>70.800003051758</ele>
        <time>2023-08-08T12:57:17.000Z</time>
      </trkpt>
      <trkpt lat="50.73327" lon="1.80068">
        <ele>71.800003051758</ele>
        <time>2023-08-08T12:57:22.000Z</time>
      </trkpt>
      <trkpt lat="50.73316" lon="1.8006">
        <ele>72.800003051758</ele>
        <time>2023-08-08T12:57:28.000Z</time>
      </trkpt>
      <trkpt lat="50.73315" lon="1.80058">
        <ele>73</ele>
        <time>2023-08-08T12:57:29.000Z</time>
      </trkpt>
      <trkpt lat="50.73302" lon="1.80052">
        <ele>74.199996948242</ele>
        <time>2023-08-08T12:57:36.000Z</time>
      </trkpt>
      <trkpt lat="50.73297" lon="1.80051">
        <ele>74.599998474121</ele>
        <time>2023-08-08T12:57:38.000Z</time>
      </trkpt>
      <trkpt lat="50.7329" lon="1.80051">
        <ele>75.400001525879</ele>
        <time>2023-08-08T12:57:42.000Z</time>
      </trkpt>
      <trkpt lat="50.73278" lon="1.80056">
        <ele>76.400001525879</ele>
        <time>2023-08-08T12:57:48.000Z</time>
      </trkpt>
      <trkpt lat="50.73269" lon="1.80065">
        <ele>77.199996948242</ele>
        <time>2023-08-08T12:57:53.000Z</time>
      </trkpt>
      <trkpt lat="50.73267" lon="1.80069">
        <ele>77.599998474121</ele>
        <time>2023-08-08T12:57:55.000Z</time>
      </trkpt>
      <trkpt lat="50.73266" lon="1.80071">
        <ele>77.599998474121</ele>
        <time>2023-08-08T12:57:56.000Z</time>
      </trkpt>
      <trkpt lat="50.7326" lon="1.80087">
        <ele>78.599998474121</ele>
        <time>2023-08-08T12:58:02.000Z</time>
      </trkpt>
      <trkpt lat="50.73259" lon="1.8009">
        <ele>78.599998474121</ele>
        <time>2023-08-08T12:58:03.000Z</time>
      </trkpt>
      <trkpt lat="50.73257" lon="1.80105">
        <ele>79.800003051758</ele>
        <time>2023-08-08T12:58:08.000Z</time>
      </trkpt>
      <trkpt lat="50.73257" lon="1.80112">
        <ele>80.400001525879</ele>
        <time>2023-08-08T12:58:10.000Z</time>
      </trkpt>
      <trkpt lat="50.73257" lon="1.80121">
        <ele>80.800003051758</ele>
        <time>2023-08-08T12:58:13.000Z</time>
      </trkpt>
      <trkpt lat="50.73259" lon="1.8014">
        <ele>82</ele>
        <time>2023-08-08T12:58:19.000Z</time>
      </trkpt>
      <trkpt lat="50.73258" lon="1.80159">
        <ele>82.800003051758</ele>
        <time>2023-08-08T12:58:25.000Z</time>
      </trkpt>
      <trkpt lat="50.73258" lon="1.80163">
        <ele>82.800003051758</ele>
        <time>2023-08-08T12:58:26.000Z</time>
      </trkpt>
      <trkpt lat="50.73252" lon="1.80187">
        <ele>83.800003051758</ele>
        <time>2023-08-08T12:58:33.000Z</time>
      </trkpt>
      <trkpt lat="50.73251" lon="1.80189">
        <ele>83.800003051758</ele>
        <time>2023-08-08T12:58:34.000Z</time>
      </trkpt>
      <trkpt lat="50.73243" lon="1.802">
        <ele>85</ele>
        <time>2023-08-08T12:58:39.000Z</time>
      </trkpt>
      <trkpt lat="50.73229" lon="1.80207">
        <ele>86</ele>
        <time>2023-08-08T12:58:46.000Z</time>
      </trkpt>
      <trkpt lat="50.73218" lon="1.80208">
        <ele>87.199996948242</ele>
        <time>2023-08-08T12:58:52.000Z</time>
      </trkpt>
      <trkpt lat="50.73214" lon="1.80207">
        <ele>87.400001525879</ele>
        <time>2023-08-08T12:58:54.000Z</time>
      </trkpt>
      <trkpt lat="50.73205" lon="1.80207">
        <ele>88.199996948242</ele>
        <time>2023-08-08T12:58:58.000Z</time>
      </trkpt>
      <trkpt lat="50.73197" lon="1.80205">
        <ele>88.800003051758</ele>
        <time>2023-08-08T12:59:02.000Z</time>
      </trkpt>
      <trkpt lat="50.73193" lon="1.80204">
        <ele>89.199996948242</ele>
        <time>2023-08-08T12:59:04.000Z</time>
      </trkpt>
      <trkpt lat="50.73178" lon="1.80202">
        <ele>90.199996948242</ele>
        <time>2023-08-08T12:59:11.000Z</time>
      </trkpt>
      <trkpt lat="50.73168" lon="1.80201">
        <ele>91.400001525879</ele>
        <time>2023-08-08T12:59:16.000Z</time>
      </trkpt>
      <trkpt lat="50.73157" lon="1.802">
        <ele>92</ele>
        <time>2023-08-08T12:59:21.000Z</time>
      </trkpt>
      <trkpt lat="50.73147" lon="1.80199">
        <ele>92.599998474121</ele>
        <time>2023-08-08T12:59:26.000Z</time>
      </trkpt>
      <trkpt lat="50.73143" lon="1.80199">
        <ele>93</ele>
        <time>2023-08-08T12:59:28.000Z</time>
      </trkpt>
      <trkpt lat="50.73141" lon="1.80198">
        <ele>93.199996948242</ele>
        <time>2023-08-08T12:59:29.000Z</time>
      </trkpt>
      <trkpt lat="50.73136" lon="1.80194">
        <ele>93.800003051758</ele>
        <time>2023-08-08T12:59:32.000Z</time>
      </trkpt>
      <trkpt lat="50.73134" lon="1.80194">
        <ele>94</ele>
        <time>2023-08-08T12:59:33.000Z</time>
      </trkpt>
      <trkpt lat="50.73116" lon="1.80204">
        <ele>94.800003051758</ele>
        <time>2023-08-08T12:59:42.000Z</time>
      </trkpt>
      <trkpt lat="50.73112" lon="1.80204">
        <ele>94.800003051758</ele>
        <time>2023-08-08T12:59:44.000Z</time>
      </trkpt>
      <trkpt lat="50.73108" lon="1.80204">
        <ele>95.199996948242</ele>
        <time>2023-08-08T12:59:47.000Z</time>
      </trkpt>
      <trkpt lat="50.73108" lon="1.80204">
        <ele>95.599998474121</ele>
        <time>2023-08-08T12:59:50.000Z</time>
      </trkpt>
      <trkpt lat="50.73101" lon="1.80216">
        <ele>94.800003051758</ele>
        <time>2023-08-08T13:12:08.000Z</time>
      </trkpt>
      <trkpt lat="50.73099" lon="1.80219">
        <ele>94.800003051758</ele>
        <time>2023-08-08T13:12:09.000Z</time>
      </trkpt>
      <trkpt lat="50.73087" lon="1.80239">
        <ele>94.800003051758</ele>
        <time>2023-08-08T13:12:15.000Z</time>
      </trkpt>
      <trkpt lat="50.73068" lon="1.80261">
        <ele>94.800003051758</ele>
        <time>2023-08-08T13:12:23.000Z</time>
      </trkpt>
      <trkpt lat="50.73047" lon="1.80287">
        <ele>95.400001525879</ele>
        <time>2023-08-08T13:12:32.000Z</time>
      </trkpt>
      <trkpt lat="50.73042" lon="1.80293">
        <ele>95.599998474121</ele>
        <time>2023-08-08T13:12:34.000Z</time>
      </trkpt>
      <trkpt lat="50.73023" lon="1.8032">
        <ele>96.400001525879</ele>
        <time>2023-08-08T13:12:42.000Z</time>
      </trkpt>
      <trkpt lat="50.73014" lon="1.80335">
        <ele>96.599998474121</ele>
        <time>2023-08-08T13:12:46.000Z</time>
      </trkpt>
      <trkpt lat="50.73004" lon="1.8035">
        <ele>97</ele>
        <time>2023-08-08T13:12:50.000Z</time>
      </trkpt>
      <trkpt lat="50.72979" lon="1.80396">
        <ele>97.800003051758</ele>
        <time>2023-08-08T13:13:01.000Z</time>
      </trkpt>
      <trkpt lat="50.72976" lon="1.804">
        <ele>97.800003051758</ele>
        <time>2023-08-08T13:13:02.000Z</time>
      </trkpt>
      <trkpt lat="50.7295" lon="1.80433">
        <ele>98.199996948242</ele>
        <time>2023-08-08T13:13:11.000Z</time>
      </trkpt>
      <trkpt lat="50.72935" lon="1.80451">
        <ele>98.599998474121</ele>
        <time>2023-08-08T13:13:16.000Z</time>
      </trkpt>
      <trkpt lat="50.72916" lon="1.80475">
        <ele>99.199996948242</ele>
        <time>2023-08-08T13:13:23.000Z</time>
      </trkpt>
      <trkpt lat="50.72895" lon="1.80499">
        <ele>99.599998474121</ele>
        <time>2023-08-08T13:13:30.000Z</time>
      </trkpt>
      <trkpt lat="50.7288" lon="1.80515">
        <ele>100.19999694824</ele>
        <time>2023-08-08T13:13:36.000Z</time>
      </trkpt>
      <trkpt lat="50.72868" lon="1.8053">
        <ele>100.59999847412</ele>
        <time>2023-08-08T13:13:41.000Z</time>
      </trkpt>
      <trkpt lat="50.72856" lon="1.80543">
        <ele>101.19999694824</ele>
        <time>2023-08-08T13:13:46.000Z</time>
      </trkpt>
      <trkpt lat="50.72846" lon="1.80553">
        <ele>101.80000305176</ele>
        <time>2023-08-08T13:13:50.000Z</time>
      </trkpt>
      <trkpt lat="50.72832" lon="1.80566">
        <ele>102</ele>
        <time>2023-08-08T13:13:55.000Z</time>
      </trkpt>
      <trkpt lat="50.72812" lon="1.80583">
        <ele>102.19999694824</ele>
        <time>2023-08-08T13:14:01.000Z</time>
      </trkpt>
      <trkpt lat="50.72806" lon="1.80588">
        <ele>102.19999694824</ele>
        <time>2023-08-08T13:14:03.000Z</time>
      </trkpt>
      <trkpt lat="50.72767" lon="1.80616">
        <ele>102.40000152588</ele>
        <time>2023-08-08T13:14:14.000Z</time>
      </trkpt>
      <trkpt lat="50.72743" lon="1.80634">
        <ele>102.80000305176</ele>
        <time>2023-08-08T13:14:21.000Z</time>
      </trkpt>
      <trkpt lat="50.72736" lon="1.80643">
        <ele>102.80000305176</ele>
        <time>2023-08-08T13:14:23.000Z</time>
      </trkpt>
      <trkpt lat="50.72723" lon="1.80674">
        <ele>103</ele>
        <time>2023-08-08T13:14:29.000Z</time>
      </trkpt>
      <trkpt lat="50.72699" lon="1.80732">
        <ele>103</ele>
        <time>2023-08-08T13:14:40.000Z</time>
      </trkpt>
      <trkpt lat="50.72672" lon="1.80787">
        <ele>103</ele>
        <time>2023-08-08T13:14:51.000Z</time>
      </trkpt>
      <trkpt lat="50.72644" lon="1.80846">
        <ele>103.40000152588</ele>
        <time>2023-08-08T13:15:03.000Z</time>
      </trkpt>
      <trkpt lat="50.72622" lon="1.80893">
        <ele>103.80000305176</ele>
        <time>2023-08-08T13:15:12.000Z</time>
      </trkpt>
      <trkpt lat="50.7262" lon="1.80898">
        <ele>103.80000305176</ele>
        <time>2023-08-08T13:15:13.000Z</time>
      </trkpt>
      <trkpt lat="50.72617" lon="1.80902">
        <ele>103.80000305176</ele>
        <time>2023-08-08T13:15:14.000Z</time>
      </trkpt>
      <trkpt lat="50.72591" lon="1.80938">
        <ele>104.59999847412</ele>
        <time>2023-08-08T13:15:23.000Z</time>
      </trkpt>
      <trkpt lat="50.7258" lon="1.80952">
        <ele>104.80000305176</ele>
        <time>2023-08-08T13:15:27.000Z</time>
      </trkpt>
      <trkpt lat="50.72569" lon="1.80962">
        <ele>105.19999694824</ele>
        <time>2023-08-08T13:15:31.000Z</time>
      </trkpt>
      <trkpt lat="50.72558" lon="1.8097">
        <ele>106</ele>
        <time>2023-08-08T13:15:35.000Z</time>
      </trkpt>
      <trkpt lat="50.72551" lon="1.80975">
        <ele>106.40000152588</ele>
        <time>2023-08-08T13:15:38.000Z</time>
      </trkpt>
      <trkpt lat="50.7254" lon="1.80983">
        <ele>107</ele>
        <time>2023-08-08T13:15:43.000Z</time>
      </trkpt>
      <trkpt lat="50.72534" lon="1.80986">
        <ele>107.40000152588</ele>
        <time>2023-08-08T13:15:45.000Z</time>
      </trkpt>
      <trkpt lat="50.72527" lon="1.80991">
        <ele>108.19999694824</ele>
        <time>2023-08-08T13:15:48.000Z</time>
      </trkpt>
      <trkpt lat="50.72508" lon="1.81001">
        <ele>109</ele>
        <time>2023-08-08T13:15:55.000Z</time>
      </trkpt>
      <trkpt lat="50.72506" lon="1.81002">
        <ele>109.19999694824</ele>
        <time>2023-08-08T13:15:56.000Z</time>
      </trkpt>
      <trkpt lat="50.72475" lon="1.81017">
        <ele>110</ele>
        <time>2023-08-08T13:16:07.000Z</time>
      </trkpt>
      <trkpt lat="50.7247" lon="1.81019">
        <ele>110.19999694824</ele>
        <time>2023-08-08T13:16:09.000Z</time>
      </trkpt>
      <trkpt lat="50.72447" lon="1.8103">
        <ele>110.59999847412</ele>
        <time>2023-08-08T13:16:17.000Z</time>
      </trkpt>
      <trkpt lat="50.72426" lon="1.81043">
        <ele>110.80000305176</ele>
        <time>2023-08-08T13:16:24.000Z</time>
      </trkpt>
      <trkpt lat="50.72389" lon="1.81069">
        <ele>110.80000305176</ele>
        <time>2023-08-08T13:16:36.000Z</time>
      </trkpt>
      <trkpt lat="50.72358" lon="1.81088">
        <ele>110.19999694824</ele>
        <time>2023-08-08T13:16:45.000Z</time>
      </trkpt>
      <trkpt lat="50.72327" lon="1.81104">
        <ele>109.59999847412</ele>
        <time>2023-08-08T13:16:54.000Z</time>
      </trkpt>
      <trkpt lat="50.72308" lon="1.81114">
        <ele>109</ele>
        <time>2023-08-08T13:16:59.000Z</time>
      </trkpt>
      <trkpt lat="50.72287" lon="1.81125">
        <ele>108.59999847412</ele>
        <time>2023-08-08T13:17:04.000Z</time>
      </trkpt>
      <trkpt lat="50.7226" lon="1.81143">
        <ele>107.80000305176</ele>
        <time>2023-08-08T13:17:10.000Z</time>
      </trkpt>
      <trkpt lat="50.72245" lon="1.81154">
        <ele>107</ele>
        <time>2023-08-08T13:17:13.000Z</time>
      </trkpt>
      <trkpt lat="50.72235" lon="1.81163">
        <ele>106.80000305176</ele>
        <time>2023-08-08T13:17:15.000Z</time>
      </trkpt>
      <trkpt lat="50.72219" lon="1.81177">
        <ele>106</ele>
        <time>2023-08-08T13:17:18.000Z</time>
      </trkpt>
      <trkpt lat="50.72197" lon="1.81199">
        <ele>105.40000152588</ele>
        <time>2023-08-08T13:17:22.000Z</time>
      </trkpt>
      <trkpt lat="50.7218" lon="1.81218">
        <ele>104.80000305176</ele>
        <time>2023-08-08T13:17:25.000Z</time>
      </trkpt>
      <trkpt lat="50.72162" lon="1.81237">
        <ele>104.40000152588</ele>
        <time>2023-08-08T13:17:28.000Z</time>
      </trkpt>
      <trkpt lat="50.72135" lon="1.81271">
        <ele>103.59999847412</ele>
        <time>2023-08-08T13:17:32.000Z</time>
      </trkpt>
      <trkpt lat="50.72122" lon="1.81289">
        <ele>103</ele>
        <time>2023-08-08T13:17:34.000Z</time>
      </trkpt>
      <trkpt lat="50.72103" lon="1.81316">
        <ele>101.59999847412</ele>
        <time>2023-08-08T13:17:37.000Z</time>
      </trkpt>
      <trkpt lat="50.72087" lon="1.81343">
        <ele>101</ele>
        <time>2023-08-08T13:17:40.000Z</time>
      </trkpt>
      <trkpt lat="50.72081" lon="1.81352">
        <ele>100.59999847412</ele>
        <time>2023-08-08T13:17:41.000Z</time>
      </trkpt>
      <trkpt lat="50.72045" lon="1.81409">
        <ele>99.400001525879</ele>
        <time>2023-08-08T13:17:48.000Z</time>
      </trkpt>
      <trkpt lat="50.72014" lon="1.81448">
        <ele>98.800003051758</ele>
        <time>2023-08-08T13:17:54.000Z</time>
      </trkpt>
      <trkpt lat="50.71992" lon="1.81466">
        <ele>98.400001525879</ele>
        <time>2023-08-08T13:17:58.000Z</time>
      </trkpt>
      <trkpt lat="50.71981" lon="1.81473">
        <ele>98.400001525879</ele>
        <time>2023-08-08T13:18:00.000Z</time>
      </trkpt>
      <trkpt lat="50.71941" lon="1.81489">
        <ele>97.800003051758</ele>
        <time>2023-08-08T13:18:07.000Z</time>
      </trkpt>
      <trkpt lat="50.71908" lon="1.81491">
        <ele>97.400001525879</ele>
        <time>2023-08-08T13:18:13.000Z</time>
      </trkpt>
      <trkpt lat="50.71902" lon="1.81491">
        <ele>97.400001525879</ele>
        <time>2023-08-08T13:18:14.000Z</time>
      </trkpt>
      <trkpt lat="50.7186" lon="1.81474">
        <ele>97.199996948242</ele>
        <time>2023-08-08T13:18:22.000Z</time>
      </trkpt>
      <trkpt lat="50.71821" lon="1.81445">
        <ele>96.400001525879</ele>
        <time>2023-08-08T13:18:30.000Z</time>
      </trkpt>
      <trkpt lat="50.71816" lon="1.8144">
        <ele>96.400001525879</ele>
        <time>2023-08-08T13:18:31.000Z</time>
      </trkpt>
      <trkpt lat="50.71782" lon="1.81396">
        <ele>95.199996948242</ele>
        <time>2023-08-08T13:18:39.000Z</time>
      </trkpt>
      <trkpt lat="50.71751" lon="1.81355">
        <ele>94.199996948242</ele>
        <time>2023-08-08T13:18:46.000Z</time>
      </trkpt>
      <trkpt lat="50.71737" lon="1.8134">
        <ele>93.800003051758</ele>
        <time>2023-08-08T13:18:49.000Z</time>
      </trkpt>
      <trkpt lat="50.71718" lon="1.81318">
        <ele>93</ele>
        <time>2023-08-08T13:18:53.000Z</time>
      </trkpt>
      <trkpt lat="50.71685" lon="1.8128">
        <ele>92</ele>
        <time>2023-08-08T13:19:00.000Z</time>
      </trkpt>
      <trkpt lat="50.71666" lon="1.81258">
        <ele>91.199996948242</ele>
        <time>2023-08-08T13:19:04.000Z</time>
      </trkpt>
      <trkpt lat="50.71657" lon="1.81248">
        <ele>91</ele>
        <time>2023-08-08T13:19:06.000Z</time>
      </trkpt>
      <trkpt lat="50.71631" lon="1.8122">
        <ele>90.199996948242</ele>
        <time>2023-08-08T13:19:12.000Z</time>
      </trkpt>
      <trkpt lat="50.71626" lon="1.81215">
        <ele>90</ele>
        <time>2023-08-08T13:19:13.000Z</time>
      </trkpt>
      <trkpt lat="50.71594" lon="1.81194">
        <ele>89.400001525879</ele>
        <time>2023-08-08T13:19:20.000Z</time>
      </trkpt>
      <trkpt lat="50.71563" lon="1.81182">
        <ele>89.400001525879</ele>
        <time>2023-08-08T13:19:27.000Z</time>
      </trkpt>
      <trkpt lat="50.71526" lon="1.81179">
        <ele>89.400001525879</ele>
        <time>2023-08-08T13:19:35.000Z</time>
      </trkpt>
      <trkpt lat="50.71497" lon="1.81186">
        <ele>89.199996948242</ele>
        <time>2023-08-08T13:19:42.000Z</time>
      </trkpt>
      <trkpt lat="50.71472" lon="1.81197">
        <ele>89</ele>
        <time>2023-08-08T13:19:48.000Z</time>
      </trkpt>
      <trkpt lat="50.7146" lon="1.81205">
        <ele>88.800003051758</ele>
        <time>2023-08-08T13:19:51.000Z</time>
      </trkpt>
      <trkpt lat="50.71421" lon="1.81242">
        <ele>88.199996948242</ele>
        <time>2023-08-08T13:20:01.000Z</time>
      </trkpt>
      <trkpt lat="50.71405" lon="1.81261">
        <ele>87.800003051758</ele>
        <time>2023-08-08T13:20:05.000Z</time>
      </trkpt>
      <trkpt lat="50.7139" lon="1.81277">
        <ele>87.400001525879</ele>
        <time>2023-08-08T13:20:09.000Z</time>
      </trkpt>
      <trkpt lat="50.71381" lon="1.81284">
        <ele>87</ele>
        <time>2023-08-08T13:20:13.000Z</time>
      </trkpt>
      <trkpt lat="50.71378" lon="1.81288">
        <ele>86.599998474121</ele>
        <time>2023-08-08T13:20:15.000Z</time>
      </trkpt>
      <trkpt lat="50.71374" lon="1.81294">
        <ele>86.400001525879</ele>
        <time>2023-08-08T13:20:18.000Z</time>
      </trkpt>
      <trkpt lat="50.71373" lon="1.81296">
        <ele>86.400001525879</ele>
        <time>2023-08-08T13:20:19.000Z</time>
      </trkpt>
      <trkpt lat="50.71366" lon="1.81303">
        <ele>86</ele>
        <time>2023-08-08T13:20:22.000Z</time>
      </trkpt>
      <trkpt lat="50.71353" lon="1.8132">
        <ele>85.599998474121</ele>
        <time>2023-08-08T13:20:27.000Z</time>
      </trkpt>
      <trkpt lat="50.71351" lon="1.81322">
        <ele>85.599998474121</ele>
        <time>2023-08-08T13:20:28.000Z</time>
      </trkpt>
      <trkpt lat="50.71345" lon="1.81327">
        <ele>84.599998474121</ele>
        <time>2023-08-08T13:20:32.000Z</time>
      </trkpt>
      <trkpt lat="50.71344" lon="1.81327">
        <ele>84.400001525879</ele>
        <time>2023-08-08T13:20:33.000Z</time>
      </trkpt>
      <trkpt lat="50.71342" lon="1.81325">
        <ele>84</ele>
        <time>2023-08-08T13:20:36.000Z</time>
      </trkpt>
      <trkpt lat="50.71336" lon="1.81315">
        <ele>83.599998474121</ele>
        <time>2023-08-08T13:20:40.000Z</time>
      </trkpt>
      <trkpt lat="50.71334" lon="1.81312">
        <ele>83.599998474121</ele>
        <time>2023-08-08T13:20:41.000Z</time>
      </trkpt>
      <trkpt lat="50.71328" lon="1.81299">
        <ele>83</ele>
        <time>2023-08-08T13:20:46.000Z</time>
      </trkpt>
      <trkpt lat="50.71328" lon="1.81299">
        <ele>83</ele>
        <time>2023-08-08T13:20:47.000Z</time>
      </trkpt>
      <trkpt lat="50.71338" lon="1.81325">
        <ele>85.400001525879</ele>
        <time>2023-08-08T13:30:56.000Z</time>
      </trkpt>
      <trkpt lat="50.71334" lon="1.81333">
        <ele>85.400001525879</ele>
        <time>2023-08-08T13:30:58.000Z</time>
      </trkpt>
      <trkpt lat="50.71315" lon="1.81358">
        <ele>85.199996948242</ele>
        <time>2023-08-08T13:31:03.000Z</time>
      </trkpt>
      <trkpt lat="50.71296" lon="1.81379">
        <ele>84.199996948242</ele>
        <time>2023-08-08T13:31:07.000Z</time>
      </trkpt>
      <trkpt lat="50.71289" lon="1.81387">
        <ele>84</ele>
        <time>2023-08-08T13:31:08.000Z</time>
      </trkpt>
      <trkpt lat="50.71271" lon="1.81404">
        <ele>83.199996948242</ele>
        <time>2023-08-08T13:31:11.000Z</time>
      </trkpt>
      <trkpt lat="50.71264" lon="1.8141">
        <ele>82.599998474121</ele>
        <time>2023-08-08T13:31:12.000Z</time>
      </trkpt>
      <trkpt lat="50.71248" lon="1.81418">
        <ele>81.800003051758</ele>
        <time>2023-08-08T13:31:14.000Z</time>
      </trkpt>
      <trkpt lat="50.71228" lon="1.81425">
        <ele>80.599998474121</ele>
        <time>2023-08-08T13:31:17.000Z</time>
      </trkpt>
      <trkpt lat="50.71207" lon="1.81431">
        <ele>79.199996948242</ele>
        <time>2023-08-08T13:31:20.000Z</time>
      </trkpt>
      <trkpt lat="50.71201" lon="1.81433">
        <ele>78.400001525879</ele>
        <time>2023-08-08T13:31:21.000Z</time>
      </trkpt>
      <trkpt lat="50.71186" lon="1.81437">
        <ele>77.800003051758</ele>
        <time>2023-08-08T13:31:23.000Z</time>
      </trkpt>
      <trkpt lat="50.71165" lon="1.8144">
        <ele>76.599998474121</ele>
        <time>2023-08-08T13:31:26.000Z</time>
      </trkpt>
      <trkpt lat="50.71149" lon="1.81438">
        <ele>76</ele>
        <time>2023-08-08T13:31:28.000Z</time>
      </trkpt>
      <trkpt lat="50.71142" lon="1.81437">
        <ele>75.400001525879</ele>
        <time>2023-08-08T13:31:29.000Z</time>
      </trkpt>
      <trkpt lat="50.71126" lon="1.81432">
        <ele>74.400001525879</ele>
        <time>2023-08-08T13:31:31.000Z</time>
      </trkpt>
      <trkpt lat="50.7111" lon="1.81426">
        <ele>73.199996948242</ele>
        <time>2023-08-08T13:31:33.000Z</time>
      </trkpt>
      <trkpt lat="50.71093" lon="1.81421">
        <ele>71.599998474121</ele>
        <time>2023-08-08T13:31:35.000Z</time>
      </trkpt>
      <trkpt lat="50.71075" lon="1.81415">
        <ele>70</ele>
        <time>2023-08-08T13:31:37.000Z</time>
      </trkpt>
      <trkpt lat="50.71066" lon="1.81413">
        <ele>69</ele>
        <time>2023-08-08T13:31:38.000Z</time>
      </trkpt>
      <trkpt lat="50.71049" lon="1.81407">
        <ele>67.599998474121</ele>
        <time>2023-08-08T13:31:40.000Z</time>
      </trkpt>
      <trkpt lat="50.71031" lon="1.81404">
        <ele>66.199996948242</ele>
        <time>2023-08-08T13:31:42.000Z</time>
      </trkpt>
      <trkpt lat="50.71022" lon="1.81403">
        <ele>65</ele>
        <time>2023-08-08T13:31:43.000Z</time>
      </trkpt>
      <trkpt lat="50.71012" lon="1.81403">
        <ele>64.400001525879</ele>
        <time>2023-08-08T13:31:44.000Z</time>
      </trkpt>
      <trkpt lat="50.71002" lon="1.81405">
        <ele>63.400001525879</ele>
        <time>2023-08-08T13:31:45.000Z</time>
      </trkpt>
      <trkpt lat="50.70983" lon="1.8141">
        <ele>61.599998474121</ele>
        <time>2023-08-08T13:31:47.000Z</time>
      </trkpt>
      <trkpt lat="50.70972" lon="1.81414">
        <ele>60.799999237061</ele>
        <time>2023-08-08T13:31:48.000Z</time>
      </trkpt>
      <trkpt lat="50.70963" lon="1.8142">
        <ele>60.200000762939</ele>
        <time>2023-08-08T13:31:49.000Z</time>
      </trkpt>
      <trkpt lat="50.70944" lon="1.81432">
        <ele>58.799999237061</ele>
        <time>2023-08-08T13:31:51.000Z</time>
      </trkpt>
      <trkpt lat="50.70935" lon="1.8144">
        <ele>57.799999237061</ele>
        <time>2023-08-08T13:31:52.000Z</time>
      </trkpt>
      <trkpt lat="50.70926" lon="1.81447">
        <ele>57</ele>
        <time>2023-08-08T13:31:53.000Z</time>
      </trkpt>
      <trkpt lat="50.70918" lon="1.81456">
        <ele>56</ele>
        <time>2023-08-08T13:31:54.000Z</time>
      </trkpt>
      <trkpt lat="50.7091" lon="1.81466">
        <ele>55</ele>
        <time>2023-08-08T13:31:55.000Z</time>
      </trkpt>
      <trkpt lat="50.70895" lon="1.81487">
        <ele>53.200000762939</ele>
        <time>2023-08-08T13:31:57.000Z</time>
      </trkpt>
      <trkpt lat="50.70881" lon="1.81512">
        <ele>51.799999237061</ele>
        <time>2023-08-08T13:31:59.000Z</time>
      </trkpt>
      <trkpt lat="50.70868" lon="1.81539">
        <ele>50.400001525879</ele>
        <time>2023-08-08T13:32:01.000Z</time>
      </trkpt>
      <trkpt lat="50.70861" lon="1.81552">
        <ele>49.400001525879</ele>
        <time>2023-08-08T13:32:02.000Z</time>
      </trkpt>
      <trkpt lat="50.70847" lon="1.8158">
        <ele>47.799999237061</ele>
        <time>2023-08-08T13:32:04.000Z</time>
      </trkpt>
      <trkpt lat="50.70831" lon="1.81605">
        <ele>46.599998474121</ele>
        <time>2023-08-08T13:32:06.000Z</time>
      </trkpt>
      <trkpt lat="50.70823" lon="1.81617">
        <ele>45.400001525879</ele>
        <time>2023-08-08T13:32:07.000Z</time>
      </trkpt>
      <trkpt lat="50.70805" lon="1.81636">
        <ele>44</ele>
        <time>2023-08-08T13:32:09.000Z</time>
      </trkpt>
      <trkpt lat="50.70786" lon="1.81653">
        <ele>42.400001525879</ele>
        <time>2023-08-08T13:32:11.000Z</time>
      </trkpt>
      <trkpt lat="50.70767" lon="1.81664">
        <ele>41.200000762939</ele>
        <time>2023-08-08T13:32:13.000Z</time>
      </trkpt>
      <trkpt lat="50.70749" lon="1.81673">
        <ele>40.599998474121</ele>
        <time>2023-08-08T13:32:15.000Z</time>
      </trkpt>
      <trkpt lat="50.7074" lon="1.81675">
        <ele>40</ele>
        <time>2023-08-08T13:32:16.000Z</time>
      </trkpt>
      <trkpt lat="50.70724" lon="1.8168">
        <ele>39.400001525879</ele>
        <time>2023-08-08T13:32:18.000Z</time>
      </trkpt>
      <trkpt lat="50.70708" lon="1.81681">
        <ele>39</ele>
        <time>2023-08-08T13:32:20.000Z</time>
      </trkpt>
      <trkpt lat="50.7067" lon="1.81683">
        <ele>38.799999237061</ele>
        <time>2023-08-08T13:32:26.000Z</time>
      </trkpt>
      <trkpt lat="50.70647" lon="1.81684">
        <ele>38.799999237061</ele>
        <time>2023-08-08T13:32:30.000Z</time>
      </trkpt>
      <trkpt lat="50.70626" lon="1.81686">
        <ele>39</ele>
        <time>2023-08-08T13:32:34.000Z</time>
      </trkpt>
      <trkpt lat="50.70593" lon="1.81689">
        <ele>39.400001525879</ele>
        <time>2023-08-08T13:32:41.000Z</time>
      </trkpt>
      <trkpt lat="50.70589" lon="1.81689">
        <ele>39.400001525879</ele>
        <time>2023-08-08T13:32:42.000Z</time>
      </trkpt>
      <trkpt lat="50.70577" lon="1.81692">
        <ele>39.599998474121</ele>
        <time>2023-08-08T13:32:45.000Z</time>
      </trkpt>
      <trkpt lat="50.70567" lon="1.81696">
        <ele>39.799999237061</ele>
        <time>2023-08-08T13:32:48.000Z</time>
      </trkpt>
      <trkpt lat="50.70562" lon="1.81697">
        <ele>40</ele>
        <time>2023-08-08T13:32:50.000Z</time>
      </trkpt>
      <trkpt lat="50.70549" lon="1.81702">
        <ele>40.599998474121</ele>
        <time>2023-08-08T13:32:55.000Z</time>
      </trkpt>
      <trkpt lat="50.7054" lon="1.81705">
        <ele>41.400001525879</ele>
        <time>2023-08-08T13:32:59.000Z</time>
      </trkpt>
      <trkpt lat="50.70529" lon="1.81709">
        <ele>42</ele>
        <time>2023-08-08T13:33:04.000Z</time>
      </trkpt>
      <trkpt lat="50.70524" lon="1.81711">
        <ele>42.400001525879</ele>
        <time>2023-08-08T13:33:07.000Z</time>
      </trkpt>
      <trkpt lat="50.70512" lon="1.81717">
        <ele>43</ele>
        <time>2023-08-08T13:33:13.000Z</time>
      </trkpt>
      <trkpt lat="50.70501" lon="1.81723">
        <ele>43.400001525879</ele>
        <time>2023-08-08T13:33:19.000Z</time>
      </trkpt>
      <trkpt lat="50.70491" lon="1.81729">
        <ele>44.400001525879</ele>
        <time>2023-08-08T13:33:24.000Z</time>
      </trkpt>
      <trkpt lat="50.70488" lon="1.81731">
        <ele>44.599998474121</ele>
        <time>2023-08-08T13:33:25.000Z</time>
      </trkpt>
      <trkpt lat="50.70477" lon="1.8174">
        <ele>45.599998474121</ele>
        <time>2023-08-08T13:33:31.000Z</time>
      </trkpt>
      <trkpt lat="50.7047" lon="1.81746">
        <ele>46.400001525879</ele>
        <time>2023-08-08T13:33:35.000Z</time>
      </trkpt>
      <trkpt lat="50.70465" lon="1.8175">
        <ele>46.599998474121</ele>
        <time>2023-08-08T13:33:38.000Z</time>
      </trkpt>
      <trkpt lat="50.70455" lon="1.81759">
        <ele>47.599998474121</ele>
        <time>2023-08-08T13:33:44.000Z</time>
      </trkpt>
      <trkpt lat="50.70453" lon="1.8176">
        <ele>47.599998474121</ele>
        <time>2023-08-08T13:33:45.000Z</time>
      </trkpt>
      <trkpt lat="50.70441" lon="1.81771">
        <ele>49</ele>
        <time>2023-08-08T13:33:53.000Z</time>
      </trkpt>
      <trkpt lat="50.70439" lon="1.81773">
        <ele>49.200000762939</ele>
        <time>2023-08-08T13:33:54.000Z</time>
      </trkpt>
      <trkpt lat="50.70432" lon="1.81781">
        <ele>50.200000762939</ele>
        <time>2023-08-08T13:33:59.000Z</time>
      </trkpt>
      <trkpt lat="50.70427" lon="1.81786">
        <ele>50.599998474121</ele>
        <time>2023-08-08T13:34:02.000Z</time>
      </trkpt>
      <trkpt lat="50.70423" lon="1.81791">
        <ele>51</ele>
        <time>2023-08-08T13:34:05.000Z</time>
      </trkpt>
      <trkpt lat="50.70421" lon="1.81793">
        <ele>51.200000762939</ele>
        <time>2023-08-08T13:34:06.000Z</time>
      </trkpt>
      <trkpt lat="50.70414" lon="1.81802">
        <ele>51.799999237061</ele>
        <time>2023-08-08T13:34:11.000Z</time>
      </trkpt>
      <trkpt lat="50.70412" lon="1.81806">
        <ele>52</ele>
        <time>2023-08-08T13:34:13.000Z</time>
      </trkpt>
      <trkpt lat="50.70403" lon="1.8182">
        <ele>53.400001525879</ele>
        <time>2023-08-08T13:34:20.000Z</time>
      </trkpt>
      <trkpt lat="50.70396" lon="1.8183">
        <ele>54.599998474121</ele>
        <time>2023-08-08T13:34:25.000Z</time>
      </trkpt>
      <trkpt lat="50.7039" lon="1.81841">
        <ele>55.599998474121</ele>
        <time>2023-08-08T13:34:30.000Z</time>
      </trkpt>
      <trkpt lat="50.70387" lon="1.81845">
        <ele>56</ele>
        <time>2023-08-08T13:34:32.000Z</time>
      </trkpt>
      <trkpt lat="50.70382" lon="1.81856">
        <ele>56.799999237061</ele>
        <time>2023-08-08T13:34:37.000Z</time>
      </trkpt>
      <trkpt lat="50.70379" lon="1.81863">
        <ele>57.200000762939</ele>
        <time>2023-08-08T13:34:40.000Z</time>
      </trkpt>
      <trkpt lat="50.70374" lon="1.81874">
        <ele>57.599998474121</ele>
        <time>2023-08-08T13:34:45.000Z</time>
      </trkpt>
      <trkpt lat="50.70366" lon="1.81889">
        <ele>58.599998474121</ele>
        <time>2023-08-08T13:34:52.000Z</time>
      </trkpt>
      <trkpt lat="50.70366" lon="1.81891">
        <ele>58.799999237061</ele>
        <time>2023-08-08T13:34:53.000Z</time>
      </trkpt>
      <trkpt lat="50.70357" lon="1.81911">
        <ele>59.599998474121</ele>
        <time>2023-08-08T13:35:01.000Z</time>
      </trkpt>
      <trkpt lat="50.70356" lon="1.81913">
        <ele>59.799999237061</ele>
        <time>2023-08-08T13:35:02.000Z</time>
      </trkpt>
      <trkpt lat="50.70351" lon="1.81925">
        <ele>60.799999237061</ele>
        <time>2023-08-08T13:35:07.000Z</time>
      </trkpt>
      <trkpt lat="50.70348" lon="1.8193">
        <ele>61.200000762939</ele>
        <time>2023-08-08T13:35:09.000Z</time>
      </trkpt>
      <trkpt lat="50.70347" lon="1.81934">
        <ele>61.599998474121</ele>
        <time>2023-08-08T13:35:11.000Z</time>
      </trkpt>
      <trkpt lat="50.70344" lon="1.81941">
        <ele>62.200000762939</ele>
        <time>2023-08-08T13:35:14.000Z</time>
      </trkpt>
      <trkpt lat="50.70338" lon="1.81953">
        <ele>63.200000762939</ele>
        <time>2023-08-08T13:35:19.000Z</time>
      </trkpt>
      <trkpt lat="50.70337" lon="1.81958">
        <ele>63.599998474121</ele>
        <time>2023-08-08T13:35:21.000Z</time>
      </trkpt>
      <trkpt lat="50.70332" lon="1.81967">
        <ele>64.400001525879</ele>
        <time>2023-08-08T13:35:25.000Z</time>
      </trkpt>
      <trkpt lat="50.70327" lon="1.81976">
        <ele>65</ele>
        <time>2023-08-08T13:35:30.000Z</time>
      </trkpt>
      <trkpt lat="50.70324" lon="1.81986">
        <ele>65.400001525879</ele>
        <time>2023-08-08T13:35:35.000Z</time>
      </trkpt>
      <trkpt lat="50.70322" lon="1.81991">
        <ele>66</ele>
        <time>2023-08-08T13:35:37.000Z</time>
      </trkpt>
      <trkpt lat="50.70319" lon="1.81998">
        <ele>66.599998474121</ele>
        <time>2023-08-08T13:35:40.000Z</time>
      </trkpt>
      <trkpt lat="50.70311" lon="1.82013">
        <ele>67.199996948242</ele>
        <time>2023-08-08T13:35:46.000Z</time>
      </trkpt>
      <trkpt lat="50.70308" lon="1.8202">
        <ele>67.400001525879</ele>
        <time>2023-08-08T13:35:49.000Z</time>
      </trkpt>
      <trkpt lat="50.70304" lon="1.82026">
        <ele>67.800003051758</ele>
        <time>2023-08-08T13:35:52.000Z</time>
      </trkpt>
      <trkpt lat="50.70295" lon="1.82043">
        <ele>68.599998474121</ele>
        <time>2023-08-08T13:35:59.000Z</time>
      </trkpt>
      <trkpt lat="50.70294" lon="1.82045">
        <ele>68.599998474121</ele>
        <time>2023-08-08T13:36:00.000Z</time>
      </trkpt>
      <trkpt lat="50.70287" lon="1.82056">
        <ele>69.400001525879</ele>
        <time>2023-08-08T13:36:06.000Z</time>
      </trkpt>
      <trkpt lat="50.70286" lon="1.82057">
        <ele>69.599998474121</ele>
        <time>2023-08-08T13:36:07.000Z</time>
      </trkpt>
      <trkpt lat="50.70279" lon="1.82066">
        <ele>70.599998474121</ele>
        <time>2023-08-08T13:36:12.000Z</time>
      </trkpt>
      <trkpt lat="50.70272" lon="1.82072">
        <ele>71.400001525879</ele>
        <time>2023-08-08T13:36:16.000Z</time>
      </trkpt>
      <trkpt lat="50.70269" lon="1.82076">
        <ele>71.800003051758</ele>
        <time>2023-08-08T13:36:18.000Z</time>
      </trkpt>
      <trkpt lat="50.70259" lon="1.82088">
        <ele>72.800003051758</ele>
        <time>2023-08-08T13:36:25.000Z</time>
      </trkpt>
      <trkpt lat="50.70257" lon="1.82089">
        <ele>73</ele>
        <time>2023-08-08T13:36:26.000Z</time>
      </trkpt>
      <trkpt lat="50.70248" lon="1.82098">
        <ele>73.599998474121</ele>
        <time>2023-08-08T13:36:32.000Z</time>
      </trkpt>
      <trkpt lat="50.70243" lon="1.821">
        <ele>74.199996948242</ele>
        <time>2023-08-08T13:36:35.000Z</time>
      </trkpt>
      <trkpt lat="50.70238" lon="1.82104">
        <ele>75.199996948242</ele>
        <time>2023-08-08T13:36:39.000Z</time>
      </trkpt>
      <trkpt lat="50.70237" lon="1.82104">
        <ele>75.400001525879</ele>
        <time>2023-08-08T13:36:40.000Z</time>
      </trkpt>
      <trkpt lat="50.70227" lon="1.82111">
        <ele>76</ele>
        <time>2023-08-08T13:36:46.000Z</time>
      </trkpt>
      <trkpt lat="50.70225" lon="1.82112">
        <ele>76.400001525879</ele>
        <time>2023-08-08T13:36:47.000Z</time>
      </trkpt>
      <trkpt lat="50.70213" lon="1.82118">
        <ele>77.599998474121</ele>
        <time>2023-08-08T13:36:54.000Z</time>
      </trkpt>
      <trkpt lat="50.70211" lon="1.82118">
        <ele>77.800003051758</ele>
        <time>2023-08-08T13:36:55.000Z</time>
      </trkpt>
      <trkpt lat="50.70205" lon="1.8212">
        <ele>78.599998474121</ele>
        <time>2023-08-08T13:36:59.000Z</time>
      </trkpt>
      <trkpt lat="50.702" lon="1.82122">
        <ele>79.199996948242</ele>
        <time>2023-08-08T13:37:02.000Z</time>
      </trkpt>
      <trkpt lat="50.70195" lon="1.82124">
        <ele>79.800003051758</ele>
        <time>2023-08-08T13:37:06.000Z</time>
      </trkpt>
      <trkpt lat="50.70191" lon="1.82125">
        <ele>80</ele>
        <time>2023-08-08T13:37:08.000Z</time>
      </trkpt>
      <trkpt lat="50.70184" lon="1.82129">
        <ele>81</ele>
        <time>2023-08-08T13:37:13.000Z</time>
      </trkpt>
      <trkpt lat="50.70177" lon="1.82132">
        <ele>81.599998474121</ele>
        <time>2023-08-08T13:37:17.000Z</time>
      </trkpt>
      <trkpt lat="50.70175" lon="1.82133">
        <ele>82</ele>
        <time>2023-08-08T13:37:18.000Z</time>
      </trkpt>
      <trkpt lat="50.70163" lon="1.8214">
        <ele>83.199996948242</ele>
        <time>2023-08-08T13:37:25.000Z</time>
      </trkpt>
      <trkpt lat="50.7016" lon="1.82142">
        <ele>83.400001525879</ele>
        <time>2023-08-08T13:37:27.000Z</time>
      </trkpt>
      <trkpt lat="50.70152" lon="1.82145">
        <ele>84.199996948242</ele>
        <time>2023-08-08T13:37:32.000Z</time>
      </trkpt>
      <trkpt lat="50.70149" lon="1.82145">
        <ele>84.400001525879</ele>
        <time>2023-08-08T13:37:34.000Z</time>
      </trkpt>
      <trkpt lat="50.70141" lon="1.8215">
        <ele>85.199996948242</ele>
        <time>2023-08-08T13:37:40.000Z</time>
      </trkpt>
      <trkpt lat="50.70134" lon="1.82152">
        <ele>86</ele>
        <time>2023-08-08T13:37:44.000Z</time>
      </trkpt>
      <trkpt lat="50.70131" lon="1.82154">
        <ele>86.400001525879</ele>
        <time>2023-08-08T13:37:46.000Z</time>
      </trkpt>
      <trkpt lat="50.70124" lon="1.82157">
        <ele>87.400001525879</ele>
        <time>2023-08-08T13:37:51.000Z</time>
      </trkpt>
      <trkpt lat="50.70121" lon="1.82158">
        <ele>87.400001525879</ele>
        <time>2023-08-08T13:37:53.000Z</time>
      </trkpt>
      <trkpt lat="50.70109" lon="1.82162">
        <ele>88.199996948242</ele>
        <time>2023-08-08T13:38:00.000Z</time>
      </trkpt>
      <trkpt lat="50.70106" lon="1.82164">
        <ele>88.400001525879</ele>
        <time>2023-08-08T13:38:02.000Z</time>
      </trkpt>
      <trkpt lat="50.70097" lon="1.82169">
        <ele>89.400001525879</ele>
        <time>2023-08-08T13:38:07.000Z</time>
      </trkpt>
      <trkpt lat="50.7009" lon="1.82172">
        <ele>90</ele>
        <time>2023-08-08T13:38:11.000Z</time>
      </trkpt>
      <trkpt lat="50.70084" lon="1.82175">
        <ele>90.400001525879</ele>
        <time>2023-08-08T13:38:14.000Z</time>
      </trkpt>
      <trkpt lat="50.70075" lon="1.82178">
        <ele>90.800003051758</ele>
        <time>2023-08-08T13:38:19.000Z</time>
      </trkpt>
      <trkpt lat="50.70065" lon="1.82182">
        <ele>91.599998474121</ele>
        <time>2023-08-08T13:38:24.000Z</time>
      </trkpt>
      <trkpt lat="50.70054" lon="1.82187">
        <ele>92.400001525879</ele>
        <time>2023-08-08T13:38:29.000Z</time>
      </trkpt>
      <trkpt lat="50.7005" lon="1.82189">
        <ele>92.800003051758</ele>
        <time>2023-08-08T13:38:31.000Z</time>
      </trkpt>
      <trkpt lat="50.70034" lon="1.82197">
        <ele>93.400001525879</ele>
        <time>2023-08-08T13:38:38.000Z</time>
      </trkpt>
      <trkpt lat="50.70019" lon="1.82204">
        <ele>93.800003051758</ele>
        <time>2023-08-08T13:38:43.000Z</time>
      </trkpt>
      <trkpt lat="50.70011" lon="1.82207">
        <ele>94</ele>
        <time>2023-08-08T13:38:46.000Z</time>
      </trkpt>
      <trkpt lat="50.69987" lon="1.82217">
        <ele>94.400001525879</ele>
        <time>2023-08-08T13:38:54.000Z</time>
      </trkpt>
      <trkpt lat="50.69946" lon="1.82234">
        <ele>94.599998474121</ele>
        <time>2023-08-08T13:39:06.000Z</time>
      </trkpt>
      <trkpt lat="50.69912" lon="1.82248">
        <ele>94.599998474121</ele>
        <time>2023-08-08T13:39:16.000Z</time>
      </trkpt>
      <trkpt lat="50.69902" lon="1.82252">
        <ele>94.800003051758</ele>
        <time>2023-08-08T13:39:19.000Z</time>
      </trkpt>
      <trkpt lat="50.69885" lon="1.8226">
        <ele>95.400001525879</ele>
        <time>2023-08-08T13:39:24.000Z</time>
      </trkpt>
      <trkpt lat="50.69862" lon="1.82271">
        <ele>95.800003051758</ele>
        <time>2023-08-08T13:39:32.000Z</time>
      </trkpt>
      <trkpt lat="50.69859" lon="1.82272">
        <ele>95.800003051758</ele>
        <time>2023-08-08T13:39:33.000Z</time>
      </trkpt>
      <trkpt lat="50.69817" lon="1.8229">
        <ele>96.599998474121</ele>
        <time>2023-08-08T13:39:46.000Z</time>
      </trkpt>
      <trkpt lat="50.6981" lon="1.82293">
        <ele>96.800003051758</ele>
        <time>2023-08-08T13:39:48.000Z</time>
      </trkpt>
      <trkpt lat="50.69786" lon="1.82304">
        <ele>97.199996948242</ele>
        <time>2023-08-08T13:39:55.000Z</time>
      </trkpt>
      <trkpt lat="50.6977" lon="1.82311">
        <ele>97.800003051758</ele>
        <time>2023-08-08T13:40:00.000Z</time>
      </trkpt>
      <trkpt lat="50.69757" lon="1.82317">
        <ele>98.199996948242</ele>
        <time>2023-08-08T13:40:04.000Z</time>
      </trkpt>
      <trkpt lat="50.6972" lon="1.82333">
        <ele>98.199996948242</ele>
        <time>2023-08-08T13:40:15.000Z</time>
      </trkpt>
      <trkpt lat="50.69684" lon="1.82348">
        <ele>98.599998474121</ele>
        <time>2023-08-08T13:40:26.000Z</time>
      </trkpt>
      <trkpt lat="50.69676" lon="1.82351">
        <ele>98.800003051758</ele>
        <time>2023-08-08T13:40:28.000Z</time>
      </trkpt>
      <trkpt lat="50.6964" lon="1.82366">
        <ele>99</ele>
        <time>2023-08-08T13:40:39.000Z</time>
      </trkpt>
      <trkpt lat="50.69607" lon="1.8238">
        <ele>99.599998474121</ele>
        <time>2023-08-08T13:40:49.000Z</time>
      </trkpt>
      <trkpt lat="50.696" lon="1.82383">
        <ele>99.800003051758</ele>
        <time>2023-08-08T13:40:51.000Z</time>
      </trkpt>
      <trkpt lat="50.69588" lon="1.82389">
        <ele>99.800003051758</ele>
        <time>2023-08-08T13:40:55.000Z</time>
      </trkpt>
      <trkpt lat="50.69574" lon="1.82395">
        <ele>99.400001525879</ele>
        <time>2023-08-08T13:40:59.000Z</time>
      </trkpt>
      <trkpt lat="50.69547" lon="1.82406">
        <ele>98.599998474121</ele>
        <time>2023-08-08T13:41:06.000Z</time>
      </trkpt>
      <trkpt lat="50.6951" lon="1.82422">
        <ele>97.199996948242</ele>
        <time>2023-08-08T13:41:13.000Z</time>
      </trkpt>
      <trkpt lat="50.69474" lon="1.82439">
        <ele>96</ele>
        <time>2023-08-08T13:41:18.000Z</time>
      </trkpt>
      <trkpt lat="50.69457" lon="1.82447">
        <ele>94.599998474121</ele>
        <time>2023-08-08T13:41:20.000Z</time>
      </trkpt>
      <trkpt lat="50.69441" lon="1.82454">
        <ele>93.400001525879</ele>
        <time>2023-08-08T13:41:22.000Z</time>
      </trkpt>
      <trkpt lat="50.69423" lon="1.82462">
        <ele>92.199996948242</ele>
        <time>2023-08-08T13:41:24.000Z</time>
      </trkpt>
      <trkpt lat="50.69405" lon="1.82469">
        <ele>91</ele>
        <time>2023-08-08T13:41:26.000Z</time>
      </trkpt>
      <trkpt lat="50.69384" lon="1.82478">
        <ele>90</ele>
        <time>2023-08-08T13:41:28.000Z</time>
      </trkpt>
      <trkpt lat="50.69364" lon="1.82487">
        <ele>87.800003051758</ele>
        <time>2023-08-08T13:41:30.000Z</time>
      </trkpt>
      <trkpt lat="50.69353" lon="1.82492">
        <ele>87.199996948242</ele>
        <time>2023-08-08T13:41:31.000Z</time>
      </trkpt>
      <trkpt lat="50.69343" lon="1.82497">
        <ele>86.199996948242</ele>
        <time>2023-08-08T13:41:32.000Z</time>
      </trkpt>
      <trkpt lat="50.69322" lon="1.82506">
        <ele>85</ele>
        <time>2023-08-08T13:41:34.000Z</time>
      </trkpt>
      <trkpt lat="50.69312" lon="1.8251">
        <ele>83.599998474121</ele>
        <time>2023-08-08T13:41:35.000Z</time>
      </trkpt>
      <trkpt lat="50.69294" lon="1.82518">
        <ele>82.599998474121</ele>
        <time>2023-08-08T13:41:37.000Z</time>
      </trkpt>
      <trkpt lat="50.69286" lon="1.82522">
        <ele>82.400001525879</ele>
        <time>2023-08-08T13:41:38.000Z</time>
      </trkpt>
      <trkpt lat="50.69257" lon="1.82534">
        <ele>81.800003051758</ele>
        <time>2023-08-08T13:41:42.000Z</time>
      </trkpt>
      <trkpt lat="50.69225" lon="1.82548">
        <ele>82</ele>
        <time>2023-08-08T13:41:48.000Z</time>
      </trkpt>
      <trkpt lat="50.69195" lon="1.8256">
        <ele>82.599998474121</ele>
        <time>2023-08-08T13:41:55.000Z</time>
      </trkpt>
      <trkpt lat="50.69176" lon="1.82568">
        <ele>83.199996948242</ele>
        <time>2023-08-08T13:42:00.000Z</time>
      </trkpt>
      <trkpt lat="50.69163" lon="1.82574">
        <ele>83.599998474121</ele>
        <time>2023-08-08T13:42:04.000Z</time>
      </trkpt>
      <trkpt lat="50.69134" lon="1.82586">
        <ele>84.599998474121</ele>
        <time>2023-08-08T13:42:13.000Z</time>
      </trkpt>
      <trkpt lat="50.69129" lon="1.82589">
        <ele>84.800003051758</ele>
        <time>2023-08-08T13:42:15.000Z</time>
      </trkpt>
      <trkpt lat="50.69122" lon="1.82592">
        <ele>85</ele>
        <time>2023-08-08T13:42:18.000Z</time>
      </trkpt>
      <trkpt lat="50.6911" lon="1.82597">
        <ele>86</ele>
        <time>2023-08-08T13:42:24.000Z</time>
      </trkpt>
      <trkpt lat="50.69108" lon="1.82598">
        <ele>86.199996948242</ele>
        <time>2023-08-08T13:42:25.000Z</time>
      </trkpt>
      <trkpt lat="50.691" lon="1.82601">
        <ele>87</ele>
        <time>2023-08-08T13:42:29.000Z</time>
      </trkpt>
      <trkpt lat="50.69093" lon="1.82605">
        <ele>87.400001525879</ele>
        <time>2023-08-08T13:42:33.000Z</time>
      </trkpt>
      <trkpt lat="50.69085" lon="1.82607">
        <ele>88</ele>
        <time>2023-08-08T13:42:37.000Z</time>
      </trkpt>
      <trkpt lat="50.69081" lon="1.82609">
        <ele>88.199996948242</ele>
        <time>2023-08-08T13:42:39.000Z</time>
      </trkpt>
      <trkpt lat="50.69072" lon="1.82613">
        <ele>88.800003051758</ele>
        <time>2023-08-08T13:42:44.000Z</time>
      </trkpt>
      <trkpt lat="50.69067" lon="1.82615">
        <ele>89.400001525879</ele>
        <time>2023-08-08T13:42:47.000Z</time>
      </trkpt>
      <trkpt lat="50.69059" lon="1.82619">
        <ele>90</ele>
        <time>2023-08-08T13:42:51.000Z</time>
      </trkpt>
      <trkpt lat="50.69047" lon="1.82623">
        <ele>91</ele>
        <time>2023-08-08T13:42:57.000Z</time>
      </trkpt>
      <trkpt lat="50.69034" lon="1.82629">
        <ele>92</ele>
        <time>2023-08-08T13:43:04.000Z</time>
      </trkpt>
      <trkpt lat="50.69032" lon="1.8263">
        <ele>92.400001525879</ele>
        <time>2023-08-08T13:43:05.000Z</time>
      </trkpt>
      <trkpt lat="50.69023" lon="1.82632">
        <ele>93.199996948242</ele>
        <time>2023-08-08T13:43:10.000Z</time>
      </trkpt>
      <trkpt lat="50.69021" lon="1.82633">
        <ele>93.199996948242</ele>
        <time>2023-08-08T13:43:11.000Z</time>
      </trkpt>
      <trkpt lat="50.69001" lon="1.82644">
        <ele>94</ele>
        <time>2023-08-08T13:43:20.000Z</time>
      </trkpt>
      <trkpt lat="50.68999" lon="1.82645">
        <ele>94</ele>
        <time>2023-08-08T13:43:21.000Z</time>
      </trkpt>
      <trkpt lat="50.68987" lon="1.82649">
        <ele>95.199996948242</ele>
        <time>2023-08-08T13:43:27.000Z</time>
      </trkpt>
      <trkpt lat="50.68983" lon="1.82651">
        <ele>95.400001525879</ele>
        <time>2023-08-08T13:43:29.000Z</time>
      </trkpt>
      <trkpt lat="50.68972" lon="1.82656">
        <ele>96.199996948242</ele>
        <time>2023-08-08T13:43:34.000Z</time>
      </trkpt>
      <trkpt lat="50.68963" lon="1.82661">
        <ele>96.599998474121</ele>
        <time>2023-08-08T13:43:38.000Z</time>
      </trkpt>
      <trkpt lat="50.68946" lon="1.82668">
        <ele>96.800003051758</ele>
        <time>2023-08-08T13:43:46.000Z</time>
      </trkpt>
      <trkpt lat="50.68925" lon="1.82677">
        <ele>97.400001525879</ele>
        <time>2023-08-08T13:43:56.000Z</time>
      </trkpt>
      <trkpt lat="50.68905" lon="1.82686">
        <ele>98.400001525879</ele>
        <time>2023-08-08T13:44:05.000Z</time>
      </trkpt>
      <trkpt lat="50.68903" lon="1.82687">
        <ele>98.400001525879</ele>
        <time>2023-08-08T13:44:06.000Z</time>
      </trkpt>
      <trkpt lat="50.68883" lon="1.82696">
        <ele>98.800003051758</ele>
        <time>2023-08-08T13:44:13.000Z</time>
      </trkpt>
      <trkpt lat="50.68866" lon="1.82703">
        <ele>99</ele>
        <time>2023-08-08T13:44:19.000Z</time>
      </trkpt>
      <trkpt lat="50.68836" lon="1.82715">
        <ele>98.800003051758</ele>
        <time>2023-08-08T13:44:27.000Z</time>
      </trkpt>
      <trkpt lat="50.68815" lon="1.82723">
        <ele>98.400001525879</ele>
        <time>2023-08-08T13:44:32.000Z</time>
      </trkpt>
      <trkpt lat="50.68777" lon="1.82741">
        <ele>97.800003051758</ele>
        <time>2023-08-08T13:44:41.000Z</time>
      </trkpt>
      <trkpt lat="50.68768" lon="1.82745">
        <ele>97.800003051758</ele>
        <time>2023-08-08T13:44:43.000Z</time>
      </trkpt>
      <trkpt lat="50.68751" lon="1.82751">
        <ele>97.400001525879</ele>
        <time>2023-08-08T13:44:47.000Z</time>
      </trkpt>
      <trkpt lat="50.68734" lon="1.82759">
        <ele>97.199996948242</ele>
        <time>2023-08-08T13:44:51.000Z</time>
      </trkpt>
      <trkpt lat="50.68706" lon="1.82771">
        <ele>96.800003051758</ele>
        <time>2023-08-08T13:44:57.000Z</time>
      </trkpt>
      <trkpt lat="50.68677" lon="1.82785">
        <ele>96.400001525879</ele>
        <time>2023-08-08T13:45:03.000Z</time>
      </trkpt>
      <trkpt lat="50.68669" lon="1.82789">
        <ele>96.400001525879</ele>
        <time>2023-08-08T13:45:05.000Z</time>
      </trkpt>
      <trkpt lat="50.68647" lon="1.82798">
        <ele>96.400001525879</ele>
        <time>2023-08-08T13:45:11.000Z</time>
      </trkpt>
      <trkpt lat="50.68632" lon="1.82804">
        <ele>96.400001525879</ele>
        <time>2023-08-08T13:45:15.000Z</time>
      </trkpt>
      <trkpt lat="50.68625" lon="1.82807">
        <ele>96</ele>
        <time>2023-08-08T13:45:17.000Z</time>
      </trkpt>
      <trkpt lat="50.68616" lon="1.8281">
        <ele>95.599998474121</ele>
        <time>2023-08-08T13:45:19.000Z</time>
      </trkpt>
      <trkpt lat="50.68598" lon="1.82821">
        <ele>95.199996948242</ele>
        <time>2023-08-08T13:45:22.000Z</time>
      </trkpt>
      <trkpt lat="50.68592" lon="1.82823">
        <ele>95</ele>
        <time>2023-08-08T13:45:23.000Z</time>
      </trkpt>
      <trkpt lat="50.68577" lon="1.8283">
        <ele>94.800003051758</ele>
        <time>2023-08-08T13:45:25.000Z</time>
      </trkpt>
      <trkpt lat="50.68544" lon="1.82842">
        <ele>94.599998474121</ele>
        <time>2023-08-08T13:45:30.000Z</time>
      </trkpt>
      <trkpt lat="50.68518" lon="1.82852">
        <ele>94</ele>
        <time>2023-08-08T13:45:35.000Z</time>
      </trkpt>
      <trkpt lat="50.68514" lon="1.82854">
        <ele>93.800003051758</ele>
        <time>2023-08-08T13:45:36.000Z</time>
      </trkpt>
      <trkpt lat="50.68477" lon="1.82871">
        <ele>93.199996948242</ele>
        <time>2023-08-08T13:45:42.000Z</time>
      </trkpt>
      <trkpt lat="50.68457" lon="1.8288">
        <ele>92.800003051758</ele>
        <time>2023-08-08T13:45:45.000Z</time>
      </trkpt>
      <trkpt lat="50.68439" lon="1.82888">
        <ele>91.599998474121</ele>
        <time>2023-08-08T13:45:48.000Z</time>
      </trkpt>
      <trkpt lat="50.68433" lon="1.8289">
        <ele>91.400001525879</ele>
        <time>2023-08-08T13:45:49.000Z</time>
      </trkpt>
      <trkpt lat="50.68408" lon="1.82899">
        <ele>90.800003051758</ele>
        <time>2023-08-08T13:45:54.000Z</time>
      </trkpt>
      <trkpt lat="50.68394" lon="1.82905">
        <ele>90.599998474121</ele>
        <time>2023-08-08T13:45:57.000Z</time>
      </trkpt>
      <trkpt lat="50.68382" lon="1.82911">
        <ele>90.400001525879</ele>
        <time>2023-08-08T13:45:59.000Z</time>
      </trkpt>
      <trkpt lat="50.68353" lon="1.82924">
        <ele>89.599998474121</ele>
        <time>2023-08-08T13:46:04.000Z</time>
      </trkpt>
      <trkpt lat="50.68343" lon="1.82928">
        <ele>89.400001525879</ele>
        <time>2023-08-08T13:46:06.000Z</time>
      </trkpt>
      <trkpt lat="50.68332" lon="1.82934">
        <ele>89</ele>
        <time>2023-08-08T13:46:08.000Z</time>
      </trkpt>
      <trkpt lat="50.68305" lon="1.82948">
        <ele>88.199996948242</ele>
        <time>2023-08-08T13:46:12.000Z</time>
      </trkpt>
      <trkpt lat="50.68298" lon="1.82951">
        <ele>88.199996948242</ele>
        <time>2023-08-08T13:46:13.000Z</time>
      </trkpt>
      <trkpt lat="50.68266" lon="1.82964">
        <ele>87</ele>
        <time>2023-08-08T13:46:18.000Z</time>
      </trkpt>
      <trkpt lat="50.68261" lon="1.82967">
        <ele>86.599998474121</ele>
        <time>2023-08-08T13:46:19.000Z</time>
      </trkpt>
      <trkpt lat="50.68238" lon="1.82977">
        <ele>85.800003051758</ele>
        <time>2023-08-08T13:46:23.000Z</time>
      </trkpt>
      <trkpt lat="50.68219" lon="1.82988">
        <ele>85.400001525879</ele>
        <time>2023-08-08T13:46:26.000Z</time>
      </trkpt>
      <trkpt lat="50.68198" lon="1.82994">
        <ele>84.800003051758</ele>
        <time>2023-08-08T13:46:30.000Z</time>
      </trkpt>
      <trkpt lat="50.68177" lon="1.83003">
        <ele>84.199996948242</ele>
        <time>2023-08-08T13:46:34.000Z</time>
      </trkpt>
      <trkpt lat="50.68165" lon="1.83008">
        <ele>83.800003051758</ele>
        <time>2023-08-08T13:46:36.000Z</time>
      </trkpt>
      <trkpt lat="50.68135" lon="1.83021">
        <ele>82.400001525879</ele>
        <time>2023-08-08T13:46:41.000Z</time>
      </trkpt>
      <trkpt lat="50.68129" lon="1.83023">
        <ele>82.199996948242</ele>
        <time>2023-08-08T13:46:42.000Z</time>
      </trkpt>
      <trkpt lat="50.6811" lon="1.83031">
        <ele>81.400001525879</ele>
        <time>2023-08-08T13:46:45.000Z</time>
      </trkpt>
      <trkpt lat="50.68079" lon="1.83045">
        <ele>80.199996948242</ele>
        <time>2023-08-08T13:46:49.000Z</time>
      </trkpt>
      <trkpt lat="50.68056" lon="1.83056">
        <ele>79.199996948242</ele>
        <time>2023-08-08T13:46:52.000Z</time>
      </trkpt>
      <trkpt lat="50.68047" lon="1.8306">
        <ele>78.800003051758</ele>
        <time>2023-08-08T13:46:53.000Z</time>
      </trkpt>
      <trkpt lat="50.68036" lon="1.83063">
        <ele>78</ele>
        <time>2023-08-08T13:46:54.000Z</time>
      </trkpt>
      <trkpt lat="50.68027" lon="1.83066">
        <ele>77.599998474121</ele>
        <time>2023-08-08T13:46:55.000Z</time>
      </trkpt>
      <trkpt lat="50.68009" lon="1.83072">
        <ele>76.199996948242</ele>
        <time>2023-08-08T13:46:57.000Z</time>
      </trkpt>
      <trkpt lat="50.67987" lon="1.83078">
        <ele>74.800003051758</ele>
        <time>2023-08-08T13:46:59.000Z</time>
      </trkpt>
      <trkpt lat="50.67977" lon="1.8308">
        <ele>74.599998474121</ele>
        <time>2023-08-08T13:47:00.000Z</time>
      </trkpt>
      <trkpt lat="50.67968" lon="1.83083">
        <ele>73.400001525879</ele>
        <time>2023-08-08T13:47:01.000Z</time>
      </trkpt>
      <trkpt lat="50.6796" lon="1.83086">
        <ele>72.199996948242</ele>
        <time>2023-08-08T13:47:02.000Z</time>
      </trkpt>
      <trkpt lat="50.67939" lon="1.83092">
        <ele>71.199996948242</ele>
        <time>2023-08-08T13:47:04.000Z</time>
      </trkpt>
      <trkpt lat="50.67921" lon="1.83098">
        <ele>70</ele>
        <time>2023-08-08T13:47:06.000Z</time>
      </trkpt>
      <trkpt lat="50.67912" lon="1.831">
        <ele>69</ele>
        <time>2023-08-08T13:47:07.000Z</time>
      </trkpt>
      <trkpt lat="50.67904" lon="1.83102">
        <ele>68.400001525879</ele>
        <time>2023-08-08T13:47:08.000Z</time>
      </trkpt>
      <trkpt lat="50.67895" lon="1.83105">
        <ele>67.400001525879</ele>
        <time>2023-08-08T13:47:09.000Z</time>
      </trkpt>
      <trkpt lat="50.67876" lon="1.8311">
        <ele>66.199996948242</ele>
        <time>2023-08-08T13:47:11.000Z</time>
      </trkpt>
      <trkpt lat="50.67862" lon="1.83113">
        <ele>65</ele>
        <time>2023-08-08T13:47:13.000Z</time>
      </trkpt>
      <trkpt lat="50.67854" lon="1.83115">
        <ele>64.199996948242</ele>
        <time>2023-08-08T13:47:14.000Z</time>
      </trkpt>
      <trkpt lat="50.67845" lon="1.83115">
        <ele>63.799999237061</ele>
        <time>2023-08-08T13:47:15.000Z</time>
      </trkpt>
      <trkpt lat="50.67824" lon="1.83112">
        <ele>63</ele>
        <time>2023-08-08T13:47:18.000Z</time>
      </trkpt>
      <trkpt lat="50.67817" lon="1.83108">
        <ele>62.799999237061</ele>
        <time>2023-08-08T13:47:19.000Z</time>
      </trkpt>
      <trkpt lat="50.67807" lon="1.83098">
        <ele>62.599998474121</ele>
        <time>2023-08-08T13:47:21.000Z</time>
      </trkpt>
      <trkpt lat="50.67798" lon="1.83086">
        <ele>62.400001525879</ele>
        <time>2023-08-08T13:47:23.000Z</time>
      </trkpt>
      <trkpt lat="50.67788" lon="1.83083">
        <ele>62.400001525879</ele>
        <time>2023-08-08T13:47:25.000Z</time>
      </trkpt>
      <trkpt lat="50.67779" lon="1.83089">
        <ele>62.400001525879</ele>
        <time>2023-08-08T13:47:27.000Z</time>
      </trkpt>
      <trkpt lat="50.67776" lon="1.83094">
        <ele>62.200000762939</ele>
        <time>2023-08-08T13:47:28.000Z</time>
      </trkpt>
      <trkpt lat="50.67775" lon="1.83101">
        <ele>62.200000762939</ele>
        <time>2023-08-08T13:47:29.000Z</time>
      </trkpt>
      <trkpt lat="50.67772" lon="1.83119">
        <ele>62</ele>
        <time>2023-08-08T13:47:31.000Z</time>
      </trkpt>
      <trkpt lat="50.67768" lon="1.83132">
        <ele>62</ele>
        <time>2023-08-08T13:47:33.000Z</time>
      </trkpt>
      <trkpt lat="50.67764" lon="1.83138">
        <ele>61.799999237061</ele>
        <time>2023-08-08T13:47:34.000Z</time>
      </trkpt>
      <trkpt lat="50.67758" lon="1.83143">
        <ele>61.799999237061</ele>
        <time>2023-08-08T13:47:35.000Z</time>
      </trkpt>
      <trkpt lat="50.67754" lon="1.83145">
        <ele>61.799999237061</ele>
        <time>2023-08-08T13:47:36.000Z</time>
      </trkpt>
      <trkpt lat="50.67749" lon="1.83147">
        <ele>61.799999237061</ele>
        <time>2023-08-08T13:47:37.000Z</time>
      </trkpt>
      <trkpt lat="50.6773" lon="1.83151">
        <ele>61.799999237061</ele>
        <time>2023-08-08T13:47:43.000Z</time>
      </trkpt>
      <trkpt lat="50.6772" lon="1.83152">
        <ele>62.799999237061</ele>
        <time>2023-08-08T13:47:48.000Z</time>
      </trkpt>
      <trkpt lat="50.67705" lon="1.83157">
        <ele>63.400001525879</ele>
        <time>2023-08-08T13:47:55.000Z</time>
      </trkpt>
      <trkpt lat="50.67701" lon="1.83158">
        <ele>64</ele>
        <time>2023-08-08T13:47:57.000Z</time>
      </trkpt>
      <trkpt lat="50.67687" lon="1.83161">
        <ele>65</ele>
        <time>2023-08-08T13:48:04.000Z</time>
      </trkpt>
      <trkpt lat="50.67673" lon="1.83165">
        <ele>65.800003051758</ele>
        <time>2023-08-08T13:48:11.000Z</time>
      </trkpt>
      <trkpt lat="50.67667" lon="1.83166">
        <ele>66.199996948242</ele>
        <time>2023-08-08T13:48:14.000Z</time>
      </trkpt>
      <trkpt lat="50.67655" lon="1.83169">
        <ele>66.800003051758</ele>
        <time>2023-08-08T13:48:20.000Z</time>
      </trkpt>
      <trkpt lat="50.67651" lon="1.8317">
        <ele>67.199996948242</ele>
        <time>2023-08-08T13:48:22.000Z</time>
      </trkpt>
      <trkpt lat="50.67639" lon="1.83172">
        <ele>68.199996948242</ele>
        <time>2023-08-08T13:48:28.000Z</time>
      </trkpt>
      <trkpt lat="50.67623" lon="1.83178">
        <ele>69.400001525879</ele>
        <time>2023-08-08T13:48:36.000Z</time>
      </trkpt>
      <trkpt lat="50.6762" lon="1.83179">
        <ele>69.599998474121</ele>
        <time>2023-08-08T13:48:38.000Z</time>
      </trkpt>
      <trkpt lat="50.67604" lon="1.83182">
        <ele>70.199996948242</ele>
        <time>2023-08-08T13:48:46.000Z</time>
      </trkpt>
      <trkpt lat="50.67592" lon="1.83186">
        <ele>71.400001525879</ele>
        <time>2023-08-08T13:48:52.000Z</time>
      </trkpt>
      <trkpt lat="50.67588" lon="1.83187">
        <ele>71.599998474121</ele>
        <time>2023-08-08T13:48:54.000Z</time>
      </trkpt>
      <trkpt lat="50.67574" lon="1.83193">
        <ele>72.400001525879</ele>
        <time>2023-08-08T13:49:01.000Z</time>
      </trkpt>
      <trkpt lat="50.67568" lon="1.83194">
        <ele>72.599998474121</ele>
        <time>2023-08-08T13:49:04.000Z</time>
      </trkpt>
      <trkpt lat="50.67556" lon="1.83196">
        <ele>73.599998474121</ele>
        <time>2023-08-08T13:49:11.000Z</time>
      </trkpt>
      <trkpt lat="50.67548" lon="1.83199">
        <ele>73.800003051758</ele>
        <time>2023-08-08T13:49:15.000Z</time>
      </trkpt>
      <trkpt lat="50.67535" lon="1.83202">
        <ele>74.599998474121</ele>
        <time>2023-08-08T13:49:23.000Z</time>
      </trkpt>
      <trkpt lat="50.67533" lon="1.83202">
        <ele>74.599998474121</ele>
        <time>2023-08-08T13:49:24.000Z</time>
      </trkpt>
      <trkpt lat="50.67517" lon="1.83206">
        <ele>75.599998474121</ele>
        <time>2023-08-08T13:49:32.000Z</time>
      </trkpt>
      <trkpt lat="50.67515" lon="1.83207">
        <ele>75.599998474121</ele>
        <time>2023-08-08T13:49:33.000Z</time>
      </trkpt>
      <trkpt lat="50.67499" lon="1.83211">
        <ele>76.400001525879</ele>
        <time>2023-08-08T13:49:41.000Z</time>
      </trkpt>
      <trkpt lat="50.67493" lon="1.83212">
        <ele>76.599998474121</ele>
        <time>2023-08-08T13:49:44.000Z</time>
      </trkpt>
      <trkpt lat="50.67478" lon="1.83217">
        <ele>77.400001525879</ele>
        <time>2023-08-08T13:49:51.000Z</time>
      </trkpt>
      <trkpt lat="50.67462" lon="1.83221">
        <ele>77.400001525879</ele>
        <time>2023-08-08T13:49:59.000Z</time>
      </trkpt>
      <trkpt lat="50.67452" lon="1.83223">
        <ele>77.800003051758</ele>
        <time>2023-08-08T13:50:03.000Z</time>
      </trkpt>
      <trkpt lat="50.67441" lon="1.83227">
        <ele>78.599998474121</ele>
        <time>2023-08-08T13:50:08.000Z</time>
      </trkpt>
      <trkpt lat="50.67436" lon="1.83228">
        <ele>78.800003051758</ele>
        <time>2023-08-08T13:50:10.000Z</time>
      </trkpt>
      <trkpt lat="50.67416" lon="1.83233">
        <ele>79.199996948242</ele>
        <time>2023-08-08T13:50:18.000Z</time>
      </trkpt>
      <trkpt lat="50.67397" lon="1.83234">
        <ele>79.599998474121</ele>
        <time>2023-08-08T13:50:26.000Z</time>
      </trkpt>
      <trkpt lat="50.67395" lon="1.83234">
        <ele>80</ele>
        <time>2023-08-08T13:50:27.000Z</time>
      </trkpt>
      <trkpt lat="50.67383" lon="1.83231">
        <ele>80.599998474121</ele>
        <time>2023-08-08T13:50:32.000Z</time>
      </trkpt>
      <trkpt lat="50.67366" lon="1.83227">
        <ele>81</ele>
        <time>2023-08-08T13:50:39.000Z</time>
      </trkpt>
      <trkpt lat="50.67362" lon="1.83225">
        <ele>81.199996948242</ele>
        <time>2023-08-08T13:50:41.000Z</time>
      </trkpt>
      <trkpt lat="50.67346" lon="1.83219">
        <ele>81.800003051758</ele>
        <time>2023-08-08T13:50:48.000Z</time>
      </trkpt>
      <trkpt lat="50.67343" lon="1.83218">
        <ele>82</ele>
        <time>2023-08-08T13:50:49.000Z</time>
      </trkpt>
      <trkpt lat="50.67334" lon="1.83214">
        <ele>82.599998474121</ele>
        <time>2023-08-08T13:50:53.000Z</time>
      </trkpt>
      <trkpt lat="50.67323" lon="1.8321">
        <ele>83.199996948242</ele>
        <time>2023-08-08T13:50:58.000Z</time>
      </trkpt>
      <trkpt lat="50.67315" lon="1.83207">
        <ele>83.400001525879</ele>
        <time>2023-08-08T13:51:02.000Z</time>
      </trkpt>
      <trkpt lat="50.67295" lon="1.832">
        <ele>84.199996948242</ele>
        <time>2023-08-08T13:51:11.000Z</time>
      </trkpt>
      <trkpt lat="50.67287" lon="1.83198">
        <ele>85.400001525879</ele>
        <time>2023-08-08T13:51:15.000Z</time>
      </trkpt>
      <trkpt lat="50.67277" lon="1.83196">
        <ele>86</ele>
        <time>2023-08-08T13:51:19.000Z</time>
      </trkpt>
      <trkpt lat="50.67252" lon="1.83188">
        <ele>85.800003051758</ele>
        <time>2023-08-08T13:51:30.000Z</time>
      </trkpt>
      <trkpt lat="50.67231" lon="1.83182">
        <ele>85.800003051758</ele>
        <time>2023-08-08T13:51:38.000Z</time>
      </trkpt>
      <trkpt lat="50.67207" lon="1.83174">
        <ele>85.599998474121</ele>
        <time>2023-08-08T13:51:44.000Z</time>
      </trkpt>
      <trkpt lat="50.67198" lon="1.83171">
        <ele>85.400001525879</ele>
        <time>2023-08-08T13:51:46.000Z</time>
      </trkpt>
      <trkpt lat="50.67182" lon="1.83167">
        <ele>85.199996948242</ele>
        <time>2023-08-08T13:51:49.000Z</time>
      </trkpt>
      <trkpt lat="50.6716" lon="1.83161">
        <ele>84.400001525879</ele>
        <time>2023-08-08T13:51:53.000Z</time>
      </trkpt>
      <trkpt lat="50.67141" lon="1.83156">
        <ele>83.599998474121</ele>
        <time>2023-08-08T13:51:56.000Z</time>
      </trkpt>
      <trkpt lat="50.67128" lon="1.83152">
        <ele>83.199996948242</ele>
        <time>2023-08-08T13:51:58.000Z</time>
      </trkpt>
      <trkpt lat="50.67108" lon="1.83146">
        <ele>82.199996948242</ele>
        <time>2023-08-08T13:52:01.000Z</time>
      </trkpt>
      <trkpt lat="50.67101" lon="1.83143">
        <ele>81.800003051758</ele>
        <time>2023-08-08T13:52:02.000Z</time>
      </trkpt>
      <trkpt lat="50.67095" lon="1.83141">
        <ele>81</ele>
        <time>2023-08-08T13:52:03.000Z</time>
      </trkpt>
      <trkpt lat="50.67082" lon="1.83138">
        <ele>80</ele>
        <time>2023-08-08T13:52:05.000Z</time>
      </trkpt>
      <trkpt lat="50.67056" lon="1.8313">
        <ele>79</ele>
        <time>2023-08-08T13:52:08.000Z</time>
      </trkpt>
      <trkpt lat="50.67052" lon="1.83129">
        <ele>78.800003051758</ele>
        <time>2023-08-08T13:52:10.000Z</time>
      </trkpt>
      <trkpt lat="50.67026" lon="1.83118">
        <ele>78.599998474121</ele>
        <time>2023-08-08T13:52:15.000Z</time>
      </trkpt>
      <trkpt lat="50.66987" lon="1.83105">
        <ele>78.400001525879</ele>
        <time>2023-08-08T13:52:22.000Z</time>
      </trkpt>
      <trkpt lat="50.66953" lon="1.83094">
        <ele>77.800003051758</ele>
        <time>2023-08-08T13:52:29.000Z</time>
      </trkpt>
      <trkpt lat="50.66953" lon="1.83094">
        <ele>77.800003051758</ele>
        <time>2023-08-08T13:52:30.000Z</time>
      </trkpt>
      <trkpt lat="50.66938" lon="1.8309">
        <ele>77.800003051758</ele>
        <time>2023-08-08T13:52:34.000Z</time>
      </trkpt>
      <trkpt lat="50.66928" lon="1.8309">
        <ele>78</ele>
        <time>2023-08-08T13:52:38.000Z</time>
      </trkpt>
      <trkpt lat="50.66915" lon="1.83084">
        <ele>77.599998474121</ele>
        <time>2023-08-08T13:52:46.000Z</time>
      </trkpt>
      <trkpt lat="50.66914" lon="1.8308">
        <ele>77.400001525879</ele>
        <time>2023-08-08T13:52:50.000Z</time>
      </trkpt>
      <trkpt lat="50.66912" lon="1.8308">
        <ele>77.400001525879</ele>
        <time>2023-08-08T13:54:17.000Z</time>
      </trkpt>
      <trkpt lat="50.66905" lon="1.83091">
        <ele>77.400001525879</ele>
        <time>2023-08-08T13:54:22.000Z</time>
      </trkpt>
      <trkpt lat="50.669" lon="1.83111">
        <ele>78.199996948242</ele>
        <time>2023-08-08T13:54:29.000Z</time>
      </trkpt>
      <trkpt lat="50.66898" lon="1.8312">
        <ele>79</ele>
        <time>2023-08-08T13:54:33.000Z</time>
      </trkpt>
      <trkpt lat="50.66897" lon="1.83123">
        <ele>79.199996948242</ele>
        <time>2023-08-08T13:54:34.000Z</time>
      </trkpt>
      <trkpt lat="50.66896" lon="1.83127">
        <ele>80.199996948242</ele>
        <time>2023-08-08T13:54:36.000Z</time>
      </trkpt>
      <trkpt lat="50.6689" lon="1.83138">
        <ele>81.400001525879</ele>
        <time>2023-08-08T13:54:41.000Z</time>
      </trkpt>
      <trkpt lat="50.66887" lon="1.83144">
        <ele>82.199996948242</ele>
        <time>2023-08-08T13:54:45.000Z</time>
      </trkpt>
      <trkpt lat="50.66885" lon="1.83148">
        <ele>82.199996948242</ele>
        <time>2023-08-08T13:54:46.000Z</time>
      </trkpt>
      <trkpt lat="50.66885" lon="1.83148">
        <ele>82.599998474121</ele>
        <time>2023-08-08T13:54:47.000Z</time>
      </trkpt>
      <trkpt lat="50.66879" lon="1.83161">
        <ele>83</ele>
        <time>2023-08-08T13:54:51.000Z</time>
      </trkpt>
      <trkpt lat="50.66874" lon="1.8317">
        <ele>83.599998474121</ele>
        <time>2023-08-08T13:54:54.000Z</time>
      </trkpt>
      <trkpt lat="50.66865" lon="1.83185">
        <ele>84.400001525879</ele>
        <time>2023-08-08T13:55:00.000Z</time>
      </trkpt>
      <trkpt lat="50.66864" lon="1.83187">
        <ele>84.599998474121</ele>
        <time>2023-08-08T13:55:01.000Z</time>
      </trkpt>
      <trkpt lat="50.66859" lon="1.83199">
        <ele>85.800003051758</ele>
        <time>2023-08-08T13:55:05.000Z</time>
      </trkpt>
      <trkpt lat="50.66856" lon="1.83207">
        <ele>86.599998474121</ele>
        <time>2023-08-08T13:55:09.000Z</time>
      </trkpt>
      <trkpt lat="50.66852" lon="1.83213">
        <ele>86.599998474121</ele>
        <time>2023-08-08T13:55:10.000Z</time>
      </trkpt>
      <trkpt lat="50.66852" lon="1.83213">
        <ele>86.800003051758</ele>
        <time>2023-08-08T13:55:11.000Z</time>
      </trkpt>
      <trkpt lat="50.66851" lon="1.8321">
        <ele>86.800003051758</ele>
        <time>2023-08-08T13:55:12.000Z</time>
      </trkpt>
      <trkpt lat="50.66849" lon="1.83208">
        <ele>87</ele>
        <time>2023-08-08T13:55:14.000Z</time>
      </trkpt>
      <trkpt lat="50.66842" lon="1.83204">
        <ele>88.199996948242</ele>
        <time>2023-08-08T13:55:18.000Z</time>
      </trkpt>
      <trkpt lat="50.66837" lon="1.83203">
        <ele>89.199996948242</ele>
        <time>2023-08-08T13:55:21.000Z</time>
      </trkpt>
      <trkpt lat="50.66834" lon="1.83202">
        <ele>89.199996948242</ele>
        <time>2023-08-08T13:55:22.000Z</time>
      </trkpt>
      <trkpt lat="50.66826" lon="1.83204">
        <ele>90.199996948242</ele>
        <time>2023-08-08T13:55:26.000Z</time>
      </trkpt>
      <trkpt lat="50.66824" lon="1.83208">
        <ele>90.599998474121</ele>
        <time>2023-08-08T13:55:28.000Z</time>
      </trkpt>
      <trkpt lat="50.66822" lon="1.83223">
        <ele>91.400001525879</ele>
        <time>2023-08-08T13:55:33.000Z</time>
      </trkpt>
      <trkpt lat="50.66821" lon="1.83229">
        <ele>91.599998474121</ele>
        <time>2023-08-08T13:55:35.000Z</time>
      </trkpt>
      <trkpt lat="50.66819" lon="1.83248">
        <ele>92.400001525879</ele>
        <time>2023-08-08T13:55:41.000Z</time>
      </trkpt>
      <trkpt lat="50.66818" lon="1.83264">
        <ele>93.400001525879</ele>
        <time>2023-08-08T13:55:47.000Z</time>
      </trkpt>
      <trkpt lat="50.66817" lon="1.83273">
        <ele>93.599998474121</ele>
        <time>2023-08-08T13:55:49.000Z</time>
      </trkpt>
      <trkpt lat="50.66814" lon="1.83292">
        <ele>94.400001525879</ele>
        <time>2023-08-08T13:55:55.000Z</time>
      </trkpt>
      <trkpt lat="50.66812" lon="1.83304">
        <ele>94.800003051758</ele>
        <time>2023-08-08T13:55:59.000Z</time>
      </trkpt>
      <trkpt lat="50.6681" lon="1.83313">
        <ele>95.199996948242</ele>
        <time>2023-08-08T13:56:03.000Z</time>
      </trkpt>
      <trkpt lat="50.66806" lon="1.83338">
        <ele>95.800003051758</ele>
        <time>2023-08-08T13:56:10.000Z</time>
      </trkpt>
      <trkpt lat="50.66805" lon="1.83341">
        <ele>95.800003051758</ele>
        <time>2023-08-08T13:56:11.000Z</time>
      </trkpt>
      <trkpt lat="50.66803" lon="1.8335">
        <ele>96</ele>
        <time>2023-08-08T13:56:14.000Z</time>
      </trkpt>
      <trkpt lat="50.66799" lon="1.83368">
        <ele>96.199996948242</ele>
        <time>2023-08-08T13:56:20.000Z</time>
      </trkpt>
      <trkpt lat="50.66798" lon="1.8337">
        <ele>96.199996948242</ele>
        <time>2023-08-08T13:56:21.000Z</time>
      </trkpt>
      <trkpt lat="50.66799" lon="1.83373">
        <ele>96.400001525879</ele>
        <time>2023-08-08T13:56:24.000Z</time>
      </trkpt>
      <trkpt lat="50.66799" lon="1.83373">
        <ele>96.800003051758</ele>
        <time>2023-08-08T13:56:28.000Z</time>
      </trkpt>
      <trkpt lat="50.66806" lon="1.83376">
        <ele>98</ele>
        <time>2023-08-08T14:31:54.000Z</time>
      </trkpt>
      <trkpt lat="50.66809" lon="1.83376">
        <ele>98</ele>
        <time>2023-08-08T14:31:55.000Z</time>
      </trkpt>
      <trkpt lat="50.66814" lon="1.83376">
        <ele>98</ele>
        <time>2023-08-08T14:31:57.000Z</time>
      </trkpt>
      <trkpt lat="50.66816" lon="1.83376">
        <ele>98</ele>
        <time>2023-08-08T14:31:58.000Z</time>
      </trkpt>
      <trkpt lat="50.66821" lon="1.8337">
        <ele>98</ele>
        <time>2023-08-08T14:32:00.000Z</time>
      </trkpt>
      <trkpt lat="50.66827" lon="1.83345">
        <ele>97.800003051758</ele>
        <time>2023-08-08T14:32:05.000Z</time>
      </trkpt>
      <trkpt lat="50.66831" lon="1.8333">
        <ele>97.599998474121</ele>
        <time>2023-08-08T14:32:08.000Z</time>
      </trkpt>
      <trkpt lat="50.66842" lon="1.83304">
        <ele>97</ele>
        <time>2023-08-08T14:32:13.000Z</time>
      </trkpt>
      <trkpt lat="50.66852" lon="1.83264">
        <ele>96.599998474121</ele>
        <time>2023-08-08T14:32:19.000Z</time>
      </trkpt>
      <trkpt lat="50.66854" lon="1.83257">
        <ele>96.199996948242</ele>
        <time>2023-08-08T14:32:20.000Z</time>
      </trkpt>
      <trkpt lat="50.66855" lon="1.8325">
        <ele>95.800003051758</ele>
        <time>2023-08-08T14:32:21.000Z</time>
      </trkpt>
      <trkpt lat="50.66859" lon="1.83235">
        <ele>95</ele>
        <time>2023-08-08T14:32:23.000Z</time>
      </trkpt>
      <trkpt lat="50.66861" lon="1.83228">
        <ele>94.800003051758</ele>
        <time>2023-08-08T14:32:24.000Z</time>
      </trkpt>
      <trkpt lat="50.66865" lon="1.83213">
        <ele>93.800003051758</ele>
        <time>2023-08-08T14:32:26.000Z</time>
      </trkpt>
      <trkpt lat="50.6687" lon="1.83197">
        <ele>92.599998474121</ele>
        <time>2023-08-08T14:32:28.000Z</time>
      </trkpt>
      <trkpt lat="50.66875" lon="1.83181">
        <ele>91.599998474121</ele>
        <time>2023-08-08T14:32:30.000Z</time>
      </trkpt>
      <trkpt lat="50.66883" lon="1.83158">
        <ele>90.199996948242</ele>
        <time>2023-08-08T14:32:33.000Z</time>
      </trkpt>
      <trkpt lat="50.66889" lon="1.83146">
        <ele>89</ele>
        <time>2023-08-08T14:32:35.000Z</time>
      </trkpt>
      <trkpt lat="50.66892" lon="1.8314">
        <ele>88.599998474121</ele>
        <time>2023-08-08T14:32:36.000Z</time>
      </trkpt>
      <trkpt lat="50.66895" lon="1.83134">
        <ele>87.800003051758</ele>
        <time>2023-08-08T14:32:37.000Z</time>
      </trkpt>
      <trkpt lat="50.66905" lon="1.83112">
        <ele>86.199996948242</ele>
        <time>2023-08-08T14:32:40.000Z</time>
      </trkpt>
      <trkpt lat="50.6691" lon="1.83096">
        <ele>85.599998474121</ele>
        <time>2023-08-08T14:32:42.000Z</time>
      </trkpt>
      <trkpt lat="50.66912" lon="1.83087">
        <ele>85.199996948242</ele>
        <time>2023-08-08T14:32:43.000Z</time>
      </trkpt>
      <trkpt lat="50.66913" lon="1.83067">
        <ele>84</ele>
        <time>2023-08-08T14:32:45.000Z</time>
      </trkpt>
      <trkpt lat="50.66914" lon="1.83055">
        <ele>83.400001525879</ele>
        <time>2023-08-08T14:32:46.000Z</time>
      </trkpt>
      <trkpt lat="50.66916" lon="1.83044">
        <ele>82.800003051758</ele>
        <time>2023-08-08T14:32:47.000Z</time>
      </trkpt>
      <trkpt lat="50.66919" lon="1.83021">
        <ele>81</ele>
        <time>2023-08-08T14:32:49.000Z</time>
      </trkpt>
      <trkpt lat="50.66926" lon="1.83001">
        <ele>79.800003051758</ele>
        <time>2023-08-08T14:32:51.000Z</time>
      </trkpt>
      <trkpt lat="50.66935" lon="1.82985">
        <ele>78.800003051758</ele>
        <time>2023-08-08T14:32:53.000Z</time>
      </trkpt>
      <trkpt lat="50.6694" lon="1.82978">
        <ele>78.400001525879</ele>
        <time>2023-08-08T14:32:54.000Z</time>
      </trkpt>
      <trkpt lat="50.66944" lon="1.8297">
        <ele>78.400001525879</ele>
        <time>2023-08-08T14:32:55.000Z</time>
      </trkpt>
      <trkpt lat="50.66956" lon="1.8294">
        <ele>78.199996948242</ele>
        <time>2023-08-08T14:33:00.000Z</time>
      </trkpt>
      <trkpt lat="50.66959" lon="1.82921">
        <ele>78.599998474121</ele>
        <time>2023-08-08T14:33:04.000Z</time>
      </trkpt>
      <trkpt lat="50.66958" lon="1.82905">
        <ele>79.599998474121</ele>
        <time>2023-08-08T14:33:09.000Z</time>
      </trkpt>
      <trkpt lat="50.66958" lon="1.82902">
        <ele>79.800003051758</ele>
        <time>2023-08-08T14:33:10.000Z</time>
      </trkpt>
      <trkpt lat="50.66958" lon="1.82898">
        <ele>80.199996948242</ele>
        <time>2023-08-08T14:33:11.000Z</time>
      </trkpt>
      <trkpt lat="50.66954" lon="1.82883">
        <ele>81.199996948242</ele>
        <time>2023-08-08T14:33:16.000Z</time>
      </trkpt>
      <trkpt lat="50.6695" lon="1.82868">
        <ele>82</ele>
        <time>2023-08-08T14:33:22.000Z</time>
      </trkpt>
      <trkpt lat="50.66947" lon="1.82861">
        <ele>82.400001525879</ele>
        <time>2023-08-08T14:33:25.000Z</time>
      </trkpt>
      <trkpt lat="50.66945" lon="1.8285">
        <ele>83.400001525879</ele>
        <time>2023-08-08T14:33:29.000Z</time>
      </trkpt>
      <trkpt lat="50.66946" lon="1.82848">
        <ele>83.599998474121</ele>
        <time>2023-08-08T14:33:30.000Z</time>
      </trkpt>
      <trkpt lat="50.66948" lon="1.82846">
        <ele>83.599998474121</ele>
        <time>2023-08-08T14:33:31.000Z</time>
      </trkpt>
      <trkpt lat="50.66954" lon="1.8284">
        <ele>84</ele>
        <time>2023-08-08T14:33:34.000Z</time>
      </trkpt>
      <trkpt lat="50.66965" lon="1.82833">
        <ele>84.599998474121</ele>
        <time>2023-08-08T14:33:39.000Z</time>
      </trkpt>
      <trkpt lat="50.66971" lon="1.82828">
        <ele>85.599998474121</ele>
        <time>2023-08-08T14:33:42.000Z</time>
      </trkpt>
      <trkpt lat="50.66973" lon="1.82827">
        <ele>85.800003051758</ele>
        <time>2023-08-08T14:33:43.000Z</time>
      </trkpt>
      <trkpt lat="50.6698" lon="1.82823">
        <ele>86.599998474121</ele>
        <time>2023-08-08T14:33:46.000Z</time>
      </trkpt>
      <trkpt lat="50.66988" lon="1.82819">
        <ele>87</ele>
        <time>2023-08-08T14:33:49.000Z</time>
      </trkpt>
      <trkpt lat="50.67006" lon="1.82809">
        <ele>87.400001525879</ele>
        <time>2023-08-08T14:33:56.000Z</time>
      </trkpt>
      <trkpt lat="50.6702" lon="1.82797">
        <ele>87.599998474121</ele>
        <time>2023-08-08T14:34:01.000Z</time>
      </trkpt>
      <trkpt lat="50.67029" lon="1.82793">
        <ele>87.599998474121</ele>
        <time>2023-08-08T14:34:04.000Z</time>
      </trkpt>
      <trkpt lat="50.6704" lon="1.8278">
        <ele>87.599998474121</ele>
        <time>2023-08-08T14:34:08.000Z</time>
      </trkpt>
      <trkpt lat="50.67062" lon="1.82755">
        <ele>87.599998474121</ele>
        <time>2023-08-08T14:34:16.000Z</time>
      </trkpt>
      <trkpt lat="50.67085" lon="1.82727">
        <ele>87.599998474121</ele>
        <time>2023-08-08T14:34:24.000Z</time>
      </trkpt>
      <trkpt lat="50.671" lon="1.82704">
        <ele>87.400001525879</ele>
        <time>2023-08-08T14:34:30.000Z</time>
      </trkpt>
      <trkpt lat="50.67119" lon="1.82682">
        <ele>86.800003051758</ele>
        <time>2023-08-08T14:34:37.000Z</time>
      </trkpt>
      <trkpt lat="50.67121" lon="1.82678">
        <ele>86.599998474121</ele>
        <time>2023-08-08T14:34:38.000Z</time>
      </trkpt>
      <trkpt lat="50.67127" lon="1.8267">
        <ele>86.599998474121</ele>
        <time>2023-08-08T14:34:40.000Z</time>
      </trkpt>
      <trkpt lat="50.67148" lon="1.82643">
        <ele>86.400001525879</ele>
        <time>2023-08-08T14:34:46.000Z</time>
      </trkpt>
      <trkpt lat="50.67169" lon="1.82615">
        <ele>85.599998474121</ele>
        <time>2023-08-08T14:34:51.000Z</time>
      </trkpt>
      <trkpt lat="50.67178" lon="1.82603">
        <ele>85.400001525879</ele>
        <time>2023-08-08T14:34:53.000Z</time>
      </trkpt>
      <trkpt lat="50.67187" lon="1.82587">
        <ele>84.800003051758</ele>
        <time>2023-08-08T14:34:55.000Z</time>
      </trkpt>
      <trkpt lat="50.67193" lon="1.8258">
        <ele>84.199996948242</ele>
        <time>2023-08-08T14:34:56.000Z</time>
      </trkpt>
      <trkpt lat="50.67204" lon="1.82565">
        <ele>83.199996948242</ele>
        <time>2023-08-08T14:34:58.000Z</time>
      </trkpt>
      <trkpt lat="50.67223" lon="1.82544">
        <ele>81.800003051758</ele>
        <time>2023-08-08T14:35:01.000Z</time>
      </trkpt>
      <trkpt lat="50.67237" lon="1.8253">
        <ele>80.400001525879</ele>
        <time>2023-08-08T14:35:03.000Z</time>
      </trkpt>
      <trkpt lat="50.67244" lon="1.82522">
        <ele>80</ele>
        <time>2023-08-08T14:35:04.000Z</time>
      </trkpt>
      <trkpt lat="50.67251" lon="1.82515">
        <ele>79.400001525879</ele>
        <time>2023-08-08T14:35:05.000Z</time>
      </trkpt>
      <trkpt lat="50.67269" lon="1.82496">
        <ele>78.199996948242</ele>
        <time>2023-08-08T14:35:08.000Z</time>
      </trkpt>
      <trkpt lat="50.67273" lon="1.8249">
        <ele>78.199996948242</ele>
        <time>2023-08-08T14:35:09.000Z</time>
      </trkpt>
      <trkpt lat="50.67293" lon="1.82469">
        <ele>78</ele>
        <time>2023-08-08T14:35:14.000Z</time>
      </trkpt>
      <trkpt lat="50.67312" lon="1.82448">
        <ele>78.800003051758</ele>
        <time>2023-08-08T14:35:20.000Z</time>
      </trkpt>
      <trkpt lat="50.67318" lon="1.82441">
        <ele>79.400001525879</ele>
        <time>2023-08-08T14:35:22.000Z</time>
      </trkpt>
      <trkpt lat="50.67338" lon="1.82416">
        <ele>79.800003051758</ele>
        <time>2023-08-08T14:35:29.000Z</time>
      </trkpt>
      <trkpt lat="50.67349" lon="1.82398">
        <ele>79.800003051758</ele>
        <time>2023-08-08T14:35:33.000Z</time>
      </trkpt>
      <trkpt lat="50.67356" lon="1.82387">
        <ele>79.599998474121</ele>
        <time>2023-08-08T14:35:35.000Z</time>
      </trkpt>
      <trkpt lat="50.67375" lon="1.82341">
        <ele>78.800003051758</ele>
        <time>2023-08-08T14:35:41.000Z</time>
      </trkpt>
      <trkpt lat="50.67382" lon="1.82323">
        <ele>78.400001525879</ele>
        <time>2023-08-08T14:35:43.000Z</time>
      </trkpt>
      <trkpt lat="50.67391" lon="1.82289">
        <ele>77.400001525879</ele>
        <time>2023-08-08T14:35:47.000Z</time>
      </trkpt>
      <trkpt lat="50.67393" lon="1.82283">
        <ele>77.199996948242</ele>
        <time>2023-08-08T14:35:48.000Z</time>
      </trkpt>
      <trkpt lat="50.67397" lon="1.82268">
        <ele>76.800003051758</ele>
        <time>2023-08-08T14:35:51.000Z</time>
      </trkpt>
      <trkpt lat="50.674" lon="1.8225">
        <ele>76.800003051758</ele>
        <time>2023-08-08T14:35:54.000Z</time>
      </trkpt>
      <trkpt lat="50.67399" lon="1.82229">
        <ele>77</ele>
        <time>2023-08-08T14:35:57.000Z</time>
      </trkpt>
      <trkpt lat="50.674" lon="1.82175">
        <ele>78.199996948242</ele>
        <time>2023-08-08T14:36:06.000Z</time>
      </trkpt>
      <trkpt lat="50.67405" lon="1.82133">
        <ele>78.400001525879</ele>
        <time>2023-08-08T14:36:13.000Z</time>
      </trkpt>
      <trkpt lat="50.67418" lon="1.821">
        <ele>78.199996948242</ele>
        <time>2023-08-08T14:36:18.000Z</time>
      </trkpt>
      <trkpt lat="50.6744" lon="1.82064">
        <ele>77.599998474121</ele>
        <time>2023-08-08T14:36:23.000Z</time>
      </trkpt>
      <trkpt lat="50.67456" lon="1.82039">
        <ele>76.800003051758</ele>
        <time>2023-08-08T14:36:26.000Z</time>
      </trkpt>
      <trkpt lat="50.67471" lon="1.82016">
        <ele>75.199996948242</ele>
        <time>2023-08-08T14:36:29.000Z</time>
      </trkpt>
      <trkpt lat="50.67494" lon="1.8198">
        <ele>73.599998474121</ele>
        <time>2023-08-08T14:36:33.000Z</time>
      </trkpt>
      <trkpt lat="50.67507" lon="1.8196">
        <ele>72.599998474121</ele>
        <time>2023-08-08T14:36:35.000Z</time>
      </trkpt>
      <trkpt lat="50.67514" lon="1.8195">
        <ele>71.800003051758</ele>
        <time>2023-08-08T14:36:36.000Z</time>
      </trkpt>
      <trkpt lat="50.67536" lon="1.81916">
        <ele>70.800003051758</ele>
        <time>2023-08-08T14:36:39.000Z</time>
      </trkpt>
      <trkpt lat="50.67543" lon="1.81905">
        <ele>69.800003051758</ele>
        <time>2023-08-08T14:36:40.000Z</time>
      </trkpt>
      <trkpt lat="50.67552" lon="1.81891">
        <ele>68.800003051758</ele>
        <time>2023-08-08T14:36:41.000Z</time>
      </trkpt>
      <trkpt lat="50.67566" lon="1.81871">
        <ele>67.800003051758</ele>
        <time>2023-08-08T14:36:43.000Z</time>
      </trkpt>
      <trkpt lat="50.67581" lon="1.81852">
        <ele>66.599998474121</ele>
        <time>2023-08-08T14:36:45.000Z</time>
      </trkpt>
      <trkpt lat="50.67596" lon="1.81834">
        <ele>65.400001525879</ele>
        <time>2023-08-08T14:36:47.000Z</time>
      </trkpt>
      <trkpt lat="50.67613" lon="1.81813">
        <ele>63.799999237061</ele>
        <time>2023-08-08T14:36:50.000Z</time>
      </trkpt>
      <trkpt lat="50.67627" lon="1.81798">
        <ele>63.200000762939</ele>
        <time>2023-08-08T14:36:52.000Z</time>
      </trkpt>
      <trkpt lat="50.67631" lon="1.81792">
        <ele>63</ele>
        <time>2023-08-08T14:36:53.000Z</time>
      </trkpt>
      <trkpt lat="50.67642" lon="1.81777">
        <ele>62.599998474121</ele>
        <time>2023-08-08T14:36:55.000Z</time>
      </trkpt>
      <trkpt lat="50.67652" lon="1.81763">
        <ele>62.400001525879</ele>
        <time>2023-08-08T14:36:57.000Z</time>
      </trkpt>
      <trkpt lat="50.67656" lon="1.81756">
        <ele>62.200000762939</ele>
        <time>2023-08-08T14:36:58.000Z</time>
      </trkpt>
      <trkpt lat="50.67671" lon="1.81736">
        <ele>61.599998474121</ele>
        <time>2023-08-08T14:37:01.000Z</time>
      </trkpt>
      <trkpt lat="50.67675" lon="1.8173">
        <ele>61.200000762939</ele>
        <time>2023-08-08T14:37:02.000Z</time>
      </trkpt>
      <trkpt lat="50.67678" lon="1.81727">
        <ele>61</ele>
        <time>2023-08-08T14:37:03.000Z</time>
      </trkpt>
      <trkpt lat="50.67683" lon="1.81724">
        <ele>60.400001525879</ele>
        <time>2023-08-08T14:37:05.000Z</time>
      </trkpt>
      <trkpt lat="50.67698" lon="1.81733">
        <ele>59.400001525879</ele>
        <time>2023-08-08T14:37:10.000Z</time>
      </trkpt>
      <trkpt lat="50.67702" lon="1.81736">
        <ele>59.200000762939</ele>
        <time>2023-08-08T14:37:11.000Z</time>
      </trkpt>
      <trkpt lat="50.67714" lon="1.81744">
        <ele>58.599998474121</ele>
        <time>2023-08-08T14:37:15.000Z</time>
      </trkpt>
      <trkpt lat="50.67727" lon="1.81748">
        <ele>58</ele>
        <time>2023-08-08T14:37:19.000Z</time>
      </trkpt>
      <trkpt lat="50.67739" lon="1.8175">
        <ele>57</ele>
        <time>2023-08-08T14:37:23.000Z</time>
      </trkpt>
      <trkpt lat="50.67742" lon="1.81751">
        <ele>56.799999237061</ele>
        <time>2023-08-08T14:37:24.000Z</time>
      </trkpt>
      <trkpt lat="50.67758" lon="1.81749">
        <ele>55.599998474121</ele>
        <time>2023-08-08T14:37:30.000Z</time>
      </trkpt>
      <trkpt lat="50.67764" lon="1.81748">
        <ele>55</ele>
        <time>2023-08-08T14:37:34.000Z</time>
      </trkpt>
      <trkpt lat="50.67766" lon="1.81747">
        <ele>54.599998474121</ele>
        <time>2023-08-08T14:37:35.000Z</time>
      </trkpt>
      <trkpt lat="50.67773" lon="1.81742">
        <ele>53.599998474121</ele>
        <time>2023-08-08T14:37:39.000Z</time>
      </trkpt>
      <trkpt lat="50.67774" lon="1.81739">
        <ele>53.200000762939</ele>
        <time>2023-08-08T14:37:40.000Z</time>
      </trkpt>
      <trkpt lat="50.67779" lon="1.81726">
        <ele>52.799999237061</ele>
        <time>2023-08-08T14:37:45.000Z</time>
      </trkpt>
      <trkpt lat="50.6778" lon="1.81725">
        <ele>52.799999237061</ele>
        <time>2023-08-08T14:37:46.000Z</time>
      </trkpt>
      <trkpt lat="50.67787" lon="1.81722">
        <ele>52.400001525879</ele>
        <time>2023-08-08T14:37:51.000Z</time>
      </trkpt>
      <trkpt lat="50.6779" lon="1.81721">
        <ele>52.200000762939</ele>
        <time>2023-08-08T14:37:56.000Z</time>
      </trkpt>
    </trkseg>
  </trk>
</gpx>